<?xml version='1.0' encoding='UTF-8'?><gpx version="1.1" creator="JPX - https://github.com/jenetics/jpx" xmlns="http://www.topografix.com/GPX/1/1"><trk><trkseg><trkpt lat="42.3222029760965" lon="13.541776118590198"><ele>742.0</ele><time>2026-05-03T06:17:40Z</time></trkpt><trkpt lat="42.32221976464505" lon="13.541889689021847"><ele>742.0</ele><time>2026-05-03T06:17:42Z</time></trkpt><trkpt lat="42.322235959467385" lon="13.541988183274555"><ele>742.0</ele><time>2026-05-03T06:17:44Z</time></trkpt><trkpt lat="42.322237431773075" lon="13.542127985935775"><ele>742.0</ele><time>2026-05-03T06:17:47Z</time></trkpt><trkpt lat="42.322226483096" lon="13.542257981725783"><ele>742.0</ele><time>2026-05-03T06:17:49Z</time></trkpt><trkpt lat="42.32220025738025" lon="13.542387244631612"><ele>743.2</ele><time>2026-05-03T06:17:51Z</time></trkpt><trkpt lat="42.32215745038099" lon="13.54250809662998"><ele>744.4000000000001</ele><time>2026-05-03T06:17:53Z</time></trkpt><trkpt lat="42.322108265196114" lon="13.542626213820235"><ele>745.5999999999999</ele><time>2026-05-03T06:17:55Z</time></trkpt><trkpt lat="42.322087934422065" lon="13.542726522067564"><ele>746.8</ele><time>2026-05-03T06:17:57Z</time></trkpt><trkpt lat="42.32214566128442" lon="13.542788829900637"><ele>748.0</ele><time>2026-05-03T06:18:02Z</time></trkpt><trkpt lat="42.32220732824739" lon="13.542673748743505"><ele>748.0</ele><time>2026-05-03T06:18:05Z</time></trkpt><trkpt lat="42.3222259165219" lon="13.542562574305938"><ele>748.0</ele><time>2026-05-03T06:18:06Z</time></trkpt><trkpt lat="42.32224839538838" lon="13.542459332876424"><ele>748.0</ele><time>2026-05-03T06:18:07Z</time></trkpt><trkpt lat="42.32227621951259" lon="13.542357912811406"><ele>748.0</ele><time>2026-05-03T06:18:08Z</time></trkpt><trkpt lat="42.322296384699506" lon="13.542272238456327"><ele>748.0</ele><time>2026-05-03T06:18:09Z</time></trkpt><trkpt lat="42.32232856999594" lon="13.54215697548028"><ele>748.0</ele><time>2026-05-03T06:18:11Z</time></trkpt><trkpt lat="42.322360177175796" lon="13.542036202666532"><ele>748.8</ele><time>2026-05-03T06:18:13Z</time></trkpt><trkpt lat="42.32240517887187" lon="13.54186684547842"><ele>749.5999999999999</ele><time>2026-05-03T06:18:15Z</time></trkpt><trkpt lat="42.322430706176675" lon="13.541768817199072"><ele>750.4000000000001</ele><time>2026-05-03T06:18:16Z</time></trkpt><trkpt lat="42.322456329240005" lon="13.54166295791769"><ele>751.2</ele><time>2026-05-03T06:18:17Z</time></trkpt><trkpt lat="42.32248202532837" lon="13.541552853801166"><ele>752.0</ele><time>2026-05-03T06:18:18Z</time></trkpt><trkpt lat="42.32250918540335" lon="13.541441231178574"><ele>752.0</ele><time>2026-05-03T06:18:19Z</time></trkpt><trkpt lat="42.322534282344606" lon="13.541333208586005"><ele>752.0</ele><time>2026-05-03T06:18:20Z</time></trkpt><trkpt lat="42.322566860342" lon="13.541217000221872"><ele>752.0</ele><time>2026-05-03T06:18:21Z</time></trkpt><trkpt lat="42.322600232450554" lon="13.541102329544241"><ele>752.0</ele><time>2026-05-03T06:18:22Z</time></trkpt><trkpt lat="42.32263417331486" lon="13.540980397069246"><ele>752.0</ele><time>2026-05-03T06:18:23Z</time></trkpt><trkpt lat="42.322668753050365" lon="13.54086159320571"><ele>752.6666666666666</ele><time>2026-05-03T06:18:23.999Z</time></trkpt><trkpt lat="42.32269632449565" lon="13.54076346641117"><ele>753.3333333333333</ele><time>2026-05-03T06:18:24.999Z</time></trkpt><trkpt lat="42.32272267665953" lon="13.54066914103682"><ele>754.0</ele><time>2026-05-03T06:18:25.999Z</time></trkpt><trkpt lat="42.32275598273469" lon="13.540521675777477"><ele>754.6666666666666</ele><time>2026-05-03T06:18:27.999Z</time></trkpt><trkpt lat="42.322783769762225" lon="13.540426054994763"><ele>755.3333333333334</ele><time>2026-05-03T06:18:29.999Z</time></trkpt><trkpt lat="42.322825302099936" lon="13.540357952958997"><ele>756.0</ele><time>2026-05-03T06:18:35.999Z</time></trkpt><trkpt lat="42.32286604624538" lon="13.540198196431467"><ele>756.0</ele><time>2026-05-03T06:18:37.999Z</time></trkpt><trkpt lat="42.32286376303933" lon="13.540083790409506"><ele>756.0</ele><time>2026-05-03T06:18:38.999Z</time></trkpt><trkpt lat="42.32285223933276" lon="13.539950872517002"><ele>756.0</ele><time>2026-05-03T06:18:39.999Z</time></trkpt><trkpt lat="42.32284415746084" lon="13.539797646131698"><ele>756.0</ele><time>2026-05-03T06:18:40.999Z</time></trkpt><trkpt lat="42.322838717566654" lon="13.539642642290524"><ele>756.0</ele><time>2026-05-03T06:18:41.999Z</time></trkpt><trkpt lat="42.322832210800364" lon="13.539472340973727"><ele>756.0</ele><time>2026-05-03T06:18:42.999Z</time></trkpt><trkpt lat="42.32282052016106" lon="13.53928605967592"><ele>756.0</ele><time>2026-05-03T06:18:43.999Z</time></trkpt><trkpt lat="42.32280884659856" lon="13.53907673302857"><ele>756.0</ele><time>2026-05-03T06:18:44.999Z</time></trkpt><trkpt lat="42.32279562878687" lon="13.538854479167176"><ele>754.5</ele><time>2026-05-03T06:18:45.999Z</time></trkpt><trkpt lat="42.32278381120099" lon="13.538642328744066"><ele>753.0</ele><time>2026-05-03T06:18:46.999Z</time></trkpt><trkpt lat="42.322765500336295" lon="13.538440556912409"><ele>751.5</ele><time>2026-05-03T06:18:47.999Z</time></trkpt><trkpt lat="42.322750776340726" lon="13.538252856927832"><ele>750.0</ele><time>2026-05-03T06:18:48.999Z</time></trkpt><trkpt lat="42.32274243070817" lon="13.538076438438146"><ele>750.0</ele><time>2026-05-03T06:18:49.999Z</time></trkpt><trkpt lat="42.322736588446894" lon="13.537898807097012"><ele>750.0</ele><time>2026-05-03T06:18:50.999Z</time></trkpt><trkpt lat="42.32272728354288" lon="13.537717261177214"><ele>750.0</ele><time>2026-05-03T06:18:51.999Z</time></trkpt><trkpt lat="42.32271623307875" lon="13.537533979265932"><ele>750.0</ele><time>2026-05-03T06:18:52.999Z</time></trkpt><trkpt lat="42.32270510473839" lon="13.537353864230598"><ele>749.5</ele><time>2026-05-03T06:18:53.999Z</time></trkpt><trkpt lat="42.32269283271094" lon="13.537179176027248"><ele>749.0</ele><time>2026-05-03T06:18:54.999Z</time></trkpt><trkpt lat="42.3226840398326" lon="13.537003272703881"><ele>748.5</ele><time>2026-05-03T06:18:55.999Z</time></trkpt><trkpt lat="42.322675337754134" lon="13.536824860358315"><ele>748.0</ele><time>2026-05-03T06:18:57Z</time></trkpt><trkpt lat="42.32266819306766" lon="13.536638929514753"><ele>746.5</ele><time>2026-05-03T06:18:58Z</time></trkpt><trkpt lat="42.32265880670219" lon="13.536453398989854"><ele>745.0</ele><time>2026-05-03T06:18:59Z</time></trkpt><trkpt lat="42.32265175022525" lon="13.53626235405038"><ele>743.5</ele><time>2026-05-03T06:19:00Z</time></trkpt><trkpt lat="42.32264407918645" lon="13.536073539886424"><ele>742.0</ele><time>2026-05-03T06:19:01Z</time></trkpt><trkpt lat="42.322639917287134" lon="13.535892828782023"><ele>741.0</ele><time>2026-05-03T06:19:02Z</time></trkpt><trkpt lat="42.322638961948684" lon="13.53572315663066"><ele>740.0</ele><time>2026-05-03T06:19:03Z</time></trkpt><trkpt lat="42.32264522719054" lon="13.535562007053192"><ele>739.0</ele><time>2026-05-03T06:19:04Z</time></trkpt><trkpt lat="42.322655082684236" lon="13.535408670991915"><ele>738.0</ele><time>2026-05-03T06:19:05Z</time></trkpt><trkpt lat="42.322672832622914" lon="13.53526009268281"><ele>737.0</ele><time>2026-05-03T06:19:06Z</time></trkpt><trkpt lat="42.32269262969486" lon="13.535119366030592"><ele>736.0</ele><time>2026-05-03T06:19:07Z</time></trkpt><trkpt lat="42.3227190651225" lon="13.534971685944818"><ele>735.0</ele><time>2026-05-03T06:19:08Z</time></trkpt><trkpt lat="42.32275532910359" lon="13.534808796184425"><ele>734.0</ele><time>2026-05-03T06:19:09Z</time></trkpt><trkpt lat="42.32280083020745" lon="13.534626178203974"><ele>731.3333333333333</ele><time>2026-05-03T06:19:10Z</time></trkpt><trkpt lat="42.322853529308794" lon="13.534423232431502"><ele>728.6666666666666</ele><time>2026-05-03T06:19:11Z</time></trkpt><trkpt lat="42.32291956957527" lon="13.534207389826161"><ele>726.0</ele><time>2026-05-03T06:19:12Z</time></trkpt><trkpt lat="42.32299948831639" lon="13.533976479249509"><ele>728.3333333333334</ele><time>2026-05-03T06:19:13Z</time></trkpt><trkpt lat="42.32308560414258" lon="13.533744673380742"><ele>730.6666666666667</ele><time>2026-05-03T06:19:14Z</time></trkpt><trkpt lat="42.323174345190615" lon="13.533519148729582"><ele>733.0</ele><time>2026-05-03T06:19:15Z</time></trkpt><trkpt lat="42.323264710318064" lon="13.53328973891827"><ele>733.0</ele><time>2026-05-03T06:19:16Z</time></trkpt><trkpt lat="42.32335540793328" lon="13.53305450741899"><ele>733.0</ele><time>2026-05-03T06:19:17Z</time></trkpt><trkpt lat="42.323450733944355" lon="13.532812658460378"><ele>733.0</ele><time>2026-05-03T06:19:18Z</time></trkpt><trkpt lat="42.32354585851965" lon="13.53257853695746"><ele>729.6666666666667</ele><time>2026-05-03T06:19:19Z</time></trkpt><trkpt lat="42.323636279305134" lon="13.532346759842705"><ele>726.3333333333334</ele><time>2026-05-03T06:19:20Z</time></trkpt><trkpt lat="42.3237260458907" lon="13.532126960127766"><ele>723.0</ele><time>2026-05-03T06:19:21Z</time></trkpt><trkpt lat="42.32381056578413" lon="13.531912018550136"><ele>721.6666666666666</ele><time>2026-05-03T06:19:22Z</time></trkpt><trkpt lat="42.32389243947032" lon="13.531705291311924"><ele>720.3333333333333</ele><time>2026-05-03T06:19:23Z</time></trkpt><trkpt lat="42.32397580894539" lon="13.531494086187172"><ele>719.0</ele><time>2026-05-03T06:19:24Z</time></trkpt><trkpt lat="42.324063300354176" lon="13.531280001788014"><ele>717.0</ele><time>2026-05-03T06:19:25Z</time></trkpt><trkpt lat="42.32415075659591" lon="13.531066127153467"><ele>715.0</ele><time>2026-05-03T06:19:26Z</time></trkpt><trkpt lat="42.32423434169239" lon="13.530839759271746"><ele>713.0</ele><time>2026-05-03T06:19:27Z</time></trkpt><trkpt lat="42.324311479344374" lon="13.530616319940808"><ele>710.6666666666666</ele><time>2026-05-03T06:19:28Z</time></trkpt><trkpt lat="42.3243738853347" lon="13.530375529210378"><ele>708.3333333333334</ele><time>2026-05-03T06:19:29Z</time></trkpt><trkpt lat="42.324425031122956" lon="13.53012828639659"><ele>706.0</ele><time>2026-05-03T06:19:30Z</time></trkpt><trkpt lat="42.324462458153825" lon="13.529877663313764"><ele>706.0</ele><time>2026-05-03T06:19:31Z</time></trkpt><trkpt lat="42.32448627254588" lon="13.529624475214732"><ele>706.0</ele><time>2026-05-03T06:19:31.999Z</time></trkpt><trkpt lat="42.32449744561636" lon="13.529371480946555"><ele>706.0</ele><time>2026-05-03T06:19:32.999Z</time></trkpt><trkpt lat="42.324496859251205" lon="13.529124841316202"><ele>705.0</ele><time>2026-05-03T06:19:33.999Z</time></trkpt><trkpt lat="42.32448134270115" lon="13.528877713873303"><ele>704.0</ele><time>2026-05-03T06:19:34.999Z</time></trkpt><trkpt lat="42.32446099656077" lon="13.528639981946423"><ele>703.0</ele><time>2026-05-03T06:19:35.999Z</time></trkpt><trkpt lat="42.32444049385842" lon="13.528410549313694"><ele>702.3333333333334</ele><time>2026-05-03T06:19:36.999Z</time></trkpt><trkpt lat="42.32441589272016" lon="13.528193520236787"><ele>701.6666666666666</ele><time>2026-05-03T06:19:37.999Z</time></trkpt><trkpt lat="42.32438768349229" lon="13.52798670198596"><ele>701.0</ele><time>2026-05-03T06:19:38.999Z</time></trkpt><trkpt lat="42.324365469184904" lon="13.527783872379448"><ele>699.3333333333333</ele><time>2026-05-03T06:19:39.999Z</time></trkpt><trkpt lat="42.324347203578775" lon="13.527577360799274"><ele>697.6666666666666</ele><time>2026-05-03T06:19:40.999Z</time></trkpt><trkpt lat="42.32432638306467" lon="13.527370934274101"><ele>696.0</ele><time>2026-05-03T06:19:41.999Z</time></trkpt><trkpt lat="42.32430194120564" lon="13.527173717107896"><ele>695.5</ele><time>2026-05-03T06:19:42.999Z</time></trkpt><trkpt lat="42.32429376129633" lon="13.526981988153326"><ele>695.0</ele><time>2026-05-03T06:19:43.999Z</time></trkpt><trkpt lat="42.32426948208392" lon="13.526799788396252"><ele>694.5</ele><time>2026-05-03T06:19:44.999Z</time></trkpt><trkpt lat="42.32423021324427" lon="13.526616111152896"><ele>694.0</ele><time>2026-05-03T06:19:45.999Z</time></trkpt><trkpt lat="42.324201634273756" lon="13.526419018072538"><ele>693.3333333333334</ele><time>2026-05-03T06:19:46.999Z</time></trkpt><trkpt lat="42.324168953035226" lon="13.526209463228692"><ele>692.6666666666666</ele><time>2026-05-03T06:19:47.999Z</time></trkpt><trkpt lat="42.32413491366975" lon="13.525988909532467"><ele>692.0</ele><time>2026-05-03T06:19:48.999Z</time></trkpt><trkpt lat="42.3241007794805" lon="13.525770693057188"><ele>692.0</ele><time>2026-05-03T06:19:49.999Z</time></trkpt><trkpt lat="42.32406378455446" lon="13.525555530553797"><ele>692.0</ele><time>2026-05-03T06:19:50.999Z</time></trkpt><trkpt lat="42.324027280787114" lon="13.525355631050534"><ele>692.0</ele><time>2026-05-03T06:19:51.999Z</time></trkpt><trkpt lat="42.32399273158026" lon="13.525156378122437"><ele>690.6666666666666</ele><time>2026-05-03T06:19:52.999Z</time></trkpt><trkpt lat="42.32395888127413" lon="13.524957138157161"><ele>689.3333333333334</ele><time>2026-05-03T06:19:53.999Z</time></trkpt><trkpt lat="42.323924490560614" lon="13.524752434653042"><ele>688.0</ele><time>2026-05-03T06:19:54.999Z</time></trkpt><trkpt lat="42.32389009748971" lon="13.524551119801533"><ele>685.25</ele><time>2026-05-03T06:19:55.999Z</time></trkpt><trkpt lat="42.32385769224827" lon="13.524356372503947"><ele>682.5</ele><time>2026-05-03T06:19:56.999Z</time></trkpt><trkpt lat="42.32382539878258" lon="13.524166106401845"><ele>679.75</ele><time>2026-05-03T06:19:57.999Z</time></trkpt><trkpt lat="42.3237958188216" lon="13.523979009150908"><ele>677.0</ele><time>2026-05-03T06:19:58.999Z</time></trkpt><trkpt lat="42.32376635365145" lon="13.523791505385004"><ele>676.0</ele><time>2026-05-03T06:19:59.999Z</time></trkpt><trkpt lat="42.323735332172205" lon="13.523605086641343"><ele>675.0</ele><time>2026-05-03T06:20:00.999Z</time></trkpt><trkpt lat="42.32370421998012" lon="13.523417293180524"><ele>674.0</ele><time>2026-05-03T06:20:01.999Z</time></trkpt><trkpt lat="42.32367050471672" lon="13.523227955567705"><ele>673.0</ele><time>2026-05-03T06:20:02.999Z</time></trkpt><trkpt lat="42.323642014397244" lon="13.523037427431913"><ele>672.25</ele><time>2026-05-03T06:20:03.999Z</time></trkpt><trkpt lat="42.32361717422358" lon="13.522844303563557"><ele>671.5</ele><time>2026-05-03T06:20:04.999Z</time></trkpt><trkpt lat="42.3235979009572" lon="13.522645938837368"><ele>670.75</ele><time>2026-05-03T06:20:05.999Z</time></trkpt><trkpt lat="42.323586534812854" lon="13.522451276933872"><ele>670.0</ele><time>2026-05-03T06:20:06.999Z</time></trkpt><trkpt lat="42.32359439356737" lon="13.522263569245307"><ele>670.0</ele><time>2026-05-03T06:20:07.999Z</time></trkpt><trkpt lat="42.32360946062605" lon="13.522076539731506"><ele>670.0</ele><time>2026-05-03T06:20:08.999Z</time></trkpt><trkpt lat="42.32362798756297" lon="13.52188649005379"><ele>670.0</ele><time>2026-05-03T06:20:09.999Z</time></trkpt><trkpt lat="42.32364157844492" lon="13.521702247806543"><ele>670.0</ele><time>2026-05-03T06:20:10.999Z</time></trkpt><trkpt lat="42.32365365414994" lon="13.521519169305948"><ele>669.0</ele><time>2026-05-03T06:20:11.999Z</time></trkpt><trkpt lat="42.32366835368614" lon="13.521343070688237"><ele>668.0</ele><time>2026-05-03T06:20:12.999Z</time></trkpt><trkpt lat="42.32368202001758" lon="13.5211647599512"><ele>667.0</ele><time>2026-05-03T06:20:13.999Z</time></trkpt><trkpt lat="42.32369556272235" lon="13.52098224337071"><ele>666.0</ele><time>2026-05-03T06:20:14.999Z</time></trkpt><trkpt lat="42.3237095991837" lon="13.520796181382329"><ele>665.6666666666666</ele><time>2026-05-03T06:20:15.999Z</time></trkpt><trkpt lat="42.323726692189446" lon="13.520602523219663"><ele>665.3333333333333</ele><time>2026-05-03T06:20:16.999Z</time></trkpt><trkpt lat="42.32374302138938" lon="13.520398476432062"><ele>665.0</ele><time>2026-05-03T06:20:17.999Z</time></trkpt><trkpt lat="42.323761790226264" lon="13.52018258685281"><ele>664.3333333333333</ele><time>2026-05-03T06:20:18.999Z</time></trkpt><trkpt lat="42.3237789297184" lon="13.519959660370276"><ele>663.6666666666666</ele><time>2026-05-03T06:20:19.999Z</time></trkpt><trkpt lat="42.32379699140188" lon="13.519738685606766"><ele>663.0</ele><time>2026-05-03T06:20:20.999Z</time></trkpt><trkpt lat="42.32381648334291" lon="13.519512394698207"><ele>662.0</ele><time>2026-05-03T06:20:21.999Z</time></trkpt><trkpt lat="42.32383323377208" lon="13.51929404362562"><ele>661.0</ele><time>2026-05-03T06:20:22.999Z</time></trkpt><trkpt lat="42.32385061999681" lon="13.519085604514967"><ele>660.0</ele><time>2026-05-03T06:20:23.999Z</time></trkpt><trkpt lat="42.323868723144024" lon="13.518887006317264"><ele>660.25</ele><time>2026-05-03T06:20:24.999Z</time></trkpt><trkpt lat="42.32388596580244" lon="13.518709861436385"><ele>660.5</ele><time>2026-05-03T06:20:25.999Z</time></trkpt><trkpt lat="42.32390182275214" lon="13.518554690032776"><ele>660.75</ele><time>2026-05-03T06:20:26.999Z</time></trkpt><trkpt lat="42.323915315081386" lon="13.518408285905577"><ele>661.0</ele><time>2026-05-03T06:20:27.999Z</time></trkpt><trkpt lat="42.32392774700629" lon="13.518264291644213"><ele>661.0</ele><time>2026-05-03T06:20:28.999Z</time></trkpt><trkpt lat="42.323940021933645" lon="13.518115296755651"><ele>661.0</ele><time>2026-05-03T06:20:29.999Z</time></trkpt><trkpt lat="42.323953661982685" lon="13.517949026088433"><ele>661.0</ele><time>2026-05-03T06:20:30.999Z</time></trkpt><trkpt lat="42.32396627791697" lon="13.517774401032886"><ele>661.0</ele><time>2026-05-03T06:20:31.999Z</time></trkpt><trkpt lat="42.323982191132515" lon="13.517585936929853"><ele>659.3333333333334</ele><time>2026-05-03T06:20:32.999Z</time></trkpt><trkpt lat="42.324000283455526" lon="13.517386704549818"><ele>657.6666666666666</ele><time>2026-05-03T06:20:33.999Z</time></trkpt><trkpt lat="42.32401641213173" lon="13.517178372409434"><ele>656.0</ele><time>2026-05-03T06:20:34.999Z</time></trkpt><trkpt lat="42.324031713358906" lon="13.51696507825662"><ele>654.3333333333333</ele><time>2026-05-03T06:20:35.999Z</time></trkpt><trkpt lat="42.32404743351743" lon="13.516759176874416"><ele>652.6666666666666</ele><time>2026-05-03T06:20:36.999Z</time></trkpt><trkpt lat="42.324064261570825" lon="13.516559244534442"><ele>651.0</ele><time>2026-05-03T06:20:37.999Z</time></trkpt><trkpt lat="42.32408171288237" lon="13.51635775616962"><ele>650.0</ele><time>2026-05-03T06:20:38.999Z</time></trkpt><trkpt lat="42.32409901689429" lon="13.516151373494814"><ele>649.0</ele><time>2026-05-03T06:20:39.999Z</time></trkpt><trkpt lat="42.324117277254715" lon="13.515940926790543"><ele>648.0</ele><time>2026-05-03T06:20:40.999Z</time></trkpt><trkpt lat="42.32413380911746" lon="13.51573237617932"><ele>648.0</ele><time>2026-05-03T06:20:41.999Z</time></trkpt><trkpt lat="42.324150063688386" lon="13.515530584862214"><ele>648.0</ele><time>2026-05-03T06:20:42.999Z</time></trkpt><trkpt lat="42.32416693462943" lon="13.515331929282558"><ele>648.0</ele><time>2026-05-03T06:20:43.999Z</time></trkpt><trkpt lat="42.32418239585071" lon="13.515137728117116"><ele>648.0</ele><time>2026-05-03T06:20:44.999Z</time></trkpt><trkpt lat="42.32419897766415" lon="13.51493814239462"><ele>647.5</ele><time>2026-05-03T06:20:45.999Z</time></trkpt><trkpt lat="42.32421611184116" lon="13.51473957813918"><ele>647.0</ele><time>2026-05-03T06:20:46.999Z</time></trkpt><trkpt lat="42.32423312368127" lon="13.514539825618014"><ele>646.5</ele><time>2026-05-03T06:20:47.999Z</time></trkpt><trkpt lat="42.32424976164092" lon="13.514336991786147"><ele>646.0</ele><time>2026-05-03T06:20:48.999Z</time></trkpt><trkpt lat="42.32426590812862" lon="13.514131568594218"><ele>644.6666666666667</ele><time>2026-05-03T06:20:49.999Z</time></trkpt><trkpt lat="42.32428238198124" lon="13.513924916869433"><ele>643.3333333333334</ele><time>2026-05-03T06:20:50.999Z</time></trkpt><trkpt lat="42.32429813473476" lon="13.513720362952624"><ele>642.0</ele><time>2026-05-03T06:20:51.999Z</time></trkpt><trkpt lat="42.32431533301986" lon="13.513514921691835"><ele>641.3333333333334</ele><time>2026-05-03T06:20:52.999Z</time></trkpt><trkpt lat="42.32433282690994" lon="13.513308450286168"><ele>640.6666666666667</ele><time>2026-05-03T06:20:53.999Z</time></trkpt><trkpt lat="42.324348805729734" lon="13.513103314133195"><ele>640.0</ele><time>2026-05-03T06:20:54.999Z</time></trkpt><trkpt lat="42.32436444146082" lon="13.512901951554046"><ele>639.3333333333334</ele><time>2026-05-03T06:20:55.999Z</time></trkpt><trkpt lat="42.32438131785926" lon="13.512700285655388"><ele>638.6666666666666</ele><time>2026-05-03T06:20:56.999Z</time></trkpt><trkpt lat="42.324397888518305" lon="13.512496176406604"><ele>638.0</ele><time>2026-05-03T06:20:57.999Z</time></trkpt><trkpt lat="42.324415844003354" lon="13.512292574410864"><ele>638.0</ele><time>2026-05-03T06:20:58.999Z</time></trkpt><trkpt lat="42.32443386678786" lon="13.512090294669052"><ele>638.0</ele><time>2026-05-03T06:20:59.999Z</time></trkpt><trkpt lat="42.3244512361061" lon="13.511889038842407"><ele>638.0</ele><time>2026-05-03T06:21:00.999Z</time></trkpt><trkpt lat="42.32446949878976" lon="13.51168972923303"><ele>638.0</ele><time>2026-05-03T06:21:01.999Z</time></trkpt><trkpt lat="42.32448803574542" lon="13.511493913782767"><ele>637.75</ele><time>2026-05-03T06:21:02.999Z</time></trkpt><trkpt lat="42.324504084081624" lon="13.511300726484581"><ele>637.5</ele><time>2026-05-03T06:21:03.999Z</time></trkpt><trkpt lat="42.32452045932035" lon="13.511105569961432"><ele>637.25</ele><time>2026-05-03T06:21:04.999Z</time></trkpt><trkpt lat="42.324537458945066" lon="13.510906931250775"><ele>637.0</ele><time>2026-05-03T06:21:06Z</time></trkpt><trkpt lat="42.32455421281138" lon="13.510713377713504"><ele>636.0</ele><time>2026-05-03T06:21:07Z</time></trkpt><trkpt lat="42.32457178722082" lon="13.510528364587238"><ele>635.0</ele><time>2026-05-03T06:21:08Z</time></trkpt><trkpt lat="42.32458953404628" lon="13.510344862812765"><ele>634.0</ele><time>2026-05-03T06:21:09Z</time></trkpt><trkpt lat="42.32460710487681" lon="13.510157782462981"><ele>633.0</ele><time>2026-05-03T06:21:10Z</time></trkpt><trkpt lat="42.32462567014082" lon="13.50996258799194"><ele>632.0</ele><time>2026-05-03T06:21:11Z</time></trkpt><trkpt lat="42.32464487801311" lon="13.50976352227378"><ele>631.0</ele><time>2026-05-03T06:21:12Z</time></trkpt><trkpt lat="42.324663927490406" lon="13.509562299989623"><ele>630.0</ele><time>2026-05-03T06:21:13Z</time></trkpt><trkpt lat="42.32468423196434" lon="13.509358996261158"><ele>630.6666666666666</ele><time>2026-05-03T06:21:14Z</time></trkpt><trkpt lat="42.3247053104579" lon="13.509153462599185"><ele>631.3333333333333</ele><time>2026-05-03T06:21:15Z</time></trkpt><trkpt lat="42.32472528505595" lon="13.508948654628199"><ele>632.0</ele><time>2026-05-03T06:21:16Z</time></trkpt><trkpt lat="42.32474359511673" lon="13.508748864724705"><ele>630.75</ele><time>2026-05-03T06:21:17Z</time></trkpt><trkpt lat="42.32476284838734" lon="13.50855115688442"><ele>629.5</ele><time>2026-05-03T06:21:18Z</time></trkpt><trkpt lat="42.324783680367304" lon="13.508355409215232"><ele>628.25</ele><time>2026-05-03T06:21:19Z</time></trkpt><trkpt lat="42.32480233618531" lon="13.50815870463915"><ele>627.0</ele><time>2026-05-03T06:21:20Z</time></trkpt><trkpt lat="42.324820580633244" lon="13.507958539328232"><ele>626.25</ele><time>2026-05-03T06:21:21Z</time></trkpt><trkpt lat="42.32484045152358" lon="13.50775362463331"><ele>625.5</ele><time>2026-05-03T06:21:22Z</time></trkpt><trkpt lat="42.32486159322943" lon="13.507554798513448"><ele>624.75</ele><time>2026-05-03T06:21:23Z</time></trkpt><trkpt lat="42.324882109576286" lon="13.507366266836248"><ele>624.0</ele><time>2026-05-03T06:21:24Z</time></trkpt><trkpt lat="42.324899105351236" lon="13.507176087414397"><ele>623.0</ele><time>2026-05-03T06:21:25Z</time></trkpt><trkpt lat="42.324916686915714" lon="13.506983946006255"><ele>622.0</ele><time>2026-05-03T06:21:26Z</time></trkpt><trkpt lat="42.3249349995825" lon="13.506796114078858"><ele>621.0</ele><time>2026-05-03T06:21:27Z</time></trkpt><trkpt lat="42.32495427932828" lon="13.506609067000845"><ele>620.0</ele><time>2026-05-03T06:21:28Z</time></trkpt><trkpt lat="42.324974382159745" lon="13.506418135497935"><ele>619.0</ele><time>2026-05-03T06:21:29Z</time></trkpt><trkpt lat="42.3249944058418" lon="13.506221427241806"><ele>618.0</ele><time>2026-05-03T06:21:30Z</time></trkpt><trkpt lat="42.325012686378116" lon="13.506026316402682"><ele>617.0</ele><time>2026-05-03T06:21:31Z</time></trkpt><trkpt lat="42.32503121260543" lon="13.505832038516344"><ele>616.0</ele><time>2026-05-03T06:21:32Z</time></trkpt><trkpt lat="42.3250515134653" lon="13.505639684422027"><ele>616.0</ele><time>2026-05-03T06:21:33Z</time></trkpt><trkpt lat="42.32507115156033" lon="13.505443912561278"><ele>616.0</ele><time>2026-05-03T06:21:34Z</time></trkpt><trkpt lat="42.325090407151855" lon="13.505245397316202"><ele>616.0</ele><time>2026-05-03T06:21:35Z</time></trkpt><trkpt lat="42.32511055573345" lon="13.505046420861555"><ele>616.0</ele><time>2026-05-03T06:21:36Z</time></trkpt><trkpt lat="42.32513001800883" lon="13.504845372038659"><ele>615.0</ele><time>2026-05-03T06:21:37Z</time></trkpt><trkpt lat="42.32514982525263" lon="13.504644024699115"><ele>614.0</ele><time>2026-05-03T06:21:38Z</time></trkpt><trkpt lat="42.325170630663514" lon="13.504445793029111"><ele>613.0</ele><time>2026-05-03T06:21:39Z</time></trkpt><trkpt lat="42.3251915256382" lon="13.504251261768001"><ele>612.0</ele><time>2026-05-03T06:21:40Z</time></trkpt><trkpt lat="42.32521051525959" lon="13.504060790289477"><ele>610.5</ele><time>2026-05-03T06:21:41Z</time></trkpt><trkpt lat="42.325229349056684" lon="13.503866519272593"><ele>609.0</ele><time>2026-05-03T06:21:42Z</time></trkpt><trkpt lat="42.32524853296493" lon="13.503671180377784"><ele>607.5</ele><time>2026-05-03T06:21:43Z</time></trkpt><trkpt lat="42.32526537049911" lon="13.503475063874378"><ele>606.0</ele><time>2026-05-03T06:21:44Z</time></trkpt><trkpt lat="42.325283690764884" lon="13.503280721551784"><ele>605.0</ele><time>2026-05-03T06:21:45Z</time></trkpt><trkpt lat="42.3253028543625" lon="13.503089447861718"><ele>604.0</ele><time>2026-05-03T06:21:46Z</time></trkpt><trkpt lat="42.325321804565775" lon="13.502898807376665"><ele>603.0</ele><time>2026-05-03T06:21:47Z</time></trkpt><trkpt lat="42.32533902619856" lon="13.502709841233603"><ele>602.0</ele><time>2026-05-03T06:21:48Z</time></trkpt><trkpt lat="42.32535766719383" lon="13.50252509485519"><ele>601.5</ele><time>2026-05-03T06:21:49Z</time></trkpt><trkpt lat="42.32537773947257" lon="13.502348176298815"><ele>601.0</ele><time>2026-05-03T06:21:50Z</time></trkpt><trkpt lat="42.32539645236315" lon="13.50218233699416"><ele>600.5</ele><time>2026-05-03T06:21:51Z</time></trkpt><trkpt lat="42.32541421437255" lon="13.502032555406222"><ele>600.0</ele><time>2026-05-03T06:21:52Z</time></trkpt><trkpt lat="42.32542936154065" lon="13.501883922750245"><ele>599.0</ele><time>2026-05-03T06:21:53Z</time></trkpt><trkpt lat="42.3254443068897" lon="13.501724089441746"><ele>598.0</ele><time>2026-05-03T06:21:53.999Z</time></trkpt><trkpt lat="42.325460164908804" lon="13.501552316226205"><ele>597.0</ele><time>2026-05-03T06:21:54.999Z</time></trkpt><trkpt lat="42.3254762768078" lon="13.501369591631116"><ele>596.0</ele><time>2026-05-03T06:21:55.999Z</time></trkpt><trkpt lat="42.32549402964357" lon="13.501172891201094"><ele>595.3333333333333</ele><time>2026-05-03T06:21:56.999Z</time></trkpt><trkpt lat="42.32551394271863" lon="13.500963469012627"><ele>594.6666666666666</ele><time>2026-05-03T06:21:57.999Z</time></trkpt><trkpt lat="42.325535057118664" lon="13.500758099625934"><ele>594.0</ele><time>2026-05-03T06:21:58.999Z</time></trkpt><trkpt lat="42.325553770359356" lon="13.500558243812085"><ele>594.75</ele><time>2026-05-03T06:21:59.999Z</time></trkpt><trkpt lat="42.32557263762108" lon="13.500360227428093"><ele>595.5</ele><time>2026-05-03T06:22:00.999Z</time></trkpt><trkpt lat="42.32559237220017" lon="13.500167924260259"><ele>596.25</ele><time>2026-05-03T06:22:01.999Z</time></trkpt><trkpt lat="42.3256114047515" lon="13.499979547567836"><ele>597.0</ele><time>2026-05-03T06:22:02.999Z</time></trkpt><trkpt lat="42.3256315940868" lon="13.49979451758733"><ele>597.0</ele><time>2026-05-03T06:22:03.999Z</time></trkpt><trkpt lat="42.32565113644177" lon="13.499609560878245"><ele>597.0</ele><time>2026-05-03T06:22:04.999Z</time></trkpt><trkpt lat="42.32566983446714" lon="13.499425472352675"><ele>597.0</ele><time>2026-05-03T06:22:05.999Z</time></trkpt><trkpt lat="42.32568960300165" lon="13.499242270173877"><ele>597.0</ele><time>2026-05-03T06:22:06.999Z</time></trkpt><trkpt lat="42.32570849895031" lon="13.499062661324524"><ele>596.5</ele><time>2026-05-03T06:22:07.999Z</time></trkpt><trkpt lat="42.32572747866496" lon="13.498887106511729"><ele>596.0</ele><time>2026-05-03T06:22:08.999Z</time></trkpt><trkpt lat="42.32574702906819" lon="13.498714510408771"><ele>595.5</ele><time>2026-05-03T06:22:09.999Z</time></trkpt><trkpt lat="42.32576567136076" lon="13.498541555037866"><ele>595.0</ele><time>2026-05-03T06:22:10.999Z</time></trkpt><trkpt lat="42.32578411455227" lon="13.498366561876518"><ele>593.75</ele><time>2026-05-03T06:22:11.999Z</time></trkpt><trkpt lat="42.325803422751406" lon="13.498190595422553"><ele>592.5</ele><time>2026-05-03T06:22:12.999Z</time></trkpt><trkpt lat="42.325822272982606" lon="13.49801319602359"><ele>591.25</ele><time>2026-05-03T06:22:13.999Z</time></trkpt><trkpt lat="42.32584044181926" lon="13.497840356245485"><ele>590.0</ele><time>2026-05-03T06:22:14.999Z</time></trkpt><trkpt lat="42.3258552565911" lon="13.497671148902334"><ele>589.0</ele><time>2026-05-03T06:22:15.999Z</time></trkpt><trkpt lat="42.32586674900769" lon="13.497497269516558"><ele>588.0</ele><time>2026-05-03T06:22:16.999Z</time></trkpt><trkpt lat="42.32588153657566" lon="13.497318170702181"><ele>587.0</ele><time>2026-05-03T06:22:17.999Z</time></trkpt><trkpt lat="42.32590092832104" lon="13.497131765645696"><ele>586.0</ele><time>2026-05-03T06:22:18.999Z</time></trkpt><trkpt lat="42.32592526267011" lon="13.496929728531851"><ele>584.0</ele><time>2026-05-03T06:22:19.999Z</time></trkpt><trkpt lat="42.325961427117" lon="13.49671209862812"><ele>582.0</ele><time>2026-05-03T06:22:20.999Z</time></trkpt><trkpt lat="42.326006919347314" lon="13.49648114414497"><ele>580.0</ele><time>2026-05-03T06:22:21.999Z</time></trkpt><trkpt lat="42.32606122867716" lon="13.496241368593397"><ele>579.3333333333334</ele><time>2026-05-03T06:22:22.999Z</time></trkpt><trkpt lat="42.32611965895542" lon="13.496004180632141"><ele>578.6666666666666</ele><time>2026-05-03T06:22:23.999Z</time></trkpt><trkpt lat="42.326179391768044" lon="13.495777017699218"><ele>578.0</ele><time>2026-05-03T06:22:24.999Z</time></trkpt><trkpt lat="42.32623814956359" lon="13.495557646346832"><ele>577.0</ele><time>2026-05-03T06:22:25.999Z</time></trkpt><trkpt lat="42.32629771805496" lon="13.495345086844782"><ele>576.0</ele><time>2026-05-03T06:22:26.999Z</time></trkpt><trkpt lat="42.32635874481501" lon="13.495140124056"><ele>575.0</ele><time>2026-05-03T06:22:27.999Z</time></trkpt><trkpt lat="42.326419661886064" lon="13.494939209628663"><ele>575.6666666666666</ele><time>2026-05-03T06:22:28.999Z</time></trkpt><trkpt lat="42.326479571727184" lon="13.494747089801299"><ele>576.3333333333334</ele><time>2026-05-03T06:22:29.999Z</time></trkpt><trkpt lat="42.32653966164312" lon="13.49455426747103"><ele>577.0</ele><time>2026-05-03T06:22:30.999Z</time></trkpt><trkpt lat="42.32659781630303" lon="13.494362863238436"><ele>577.0</ele><time>2026-05-03T06:22:31.999Z</time></trkpt><trkpt lat="42.32665526069316" lon="13.494169738616943"><ele>577.0</ele><time>2026-05-03T06:22:32.999Z</time></trkpt><trkpt lat="42.326712493622175" lon="13.49397451037404"><ele>577.0</ele><time>2026-05-03T06:22:33.999Z</time></trkpt><trkpt lat="42.32676979592607" lon="13.493783204972335"><ele>576.5</ele><time>2026-05-03T06:22:34.999Z</time></trkpt><trkpt lat="42.326824374255615" lon="13.493606061315006"><ele>576.0</ele><time>2026-05-03T06:22:35.999Z</time></trkpt><trkpt lat="42.32687551421549" lon="13.493439271666062"><ele>575.5</ele><time>2026-05-03T06:22:36.999Z</time></trkpt><trkpt lat="42.326923938408235" lon="13.49327302170436"><ele>575.0</ele><time>2026-05-03T06:22:37.999Z</time></trkpt><trkpt lat="42.326976682940696" lon="13.493098665266468"><ele>575.25</ele><time>2026-05-03T06:22:38.999Z</time></trkpt><trkpt lat="42.3270323778954" lon="13.492920478306523"><ele>575.5</ele><time>2026-05-03T06:22:39.999Z</time></trkpt><trkpt lat="42.32708698933947" lon="13.492740941864252"><ele>575.75</ele><time>2026-05-03T06:22:40.999Z</time></trkpt><trkpt lat="42.32714012267181" lon="13.492556815126134"><ele>576.0</ele><time>2026-05-03T06:22:41.999Z</time></trkpt><trkpt lat="42.32719467571106" lon="13.49236905698641"><ele>576.0</ele><time>2026-05-03T06:22:42.999Z</time></trkpt><trkpt lat="42.32725112377261" lon="13.492178749500393"><ele>576.0</ele><time>2026-05-03T06:22:43.999Z</time></trkpt><trkpt lat="42.32730881968716" lon="13.491986230586006"><ele>576.0</ele><time>2026-05-03T06:22:44.999Z</time></trkpt><trkpt lat="42.32736841074931" lon="13.491791967005236"><ele>576.3333333333334</ele><time>2026-05-03T06:22:45.999Z</time></trkpt><trkpt lat="42.32742788859678" lon="13.491600065470932"><ele>576.6666666666667</ele><time>2026-05-03T06:22:46.999Z</time></trkpt><trkpt lat="42.32748508007795" lon="13.491408619416509"><ele>577.0</ele><time>2026-05-03T06:22:47.999Z</time></trkpt><trkpt lat="42.3275409483201" lon="13.49122182947301"><ele>577.0</ele><time>2026-05-03T06:22:48.999Z</time></trkpt><trkpt lat="42.32759646572339" lon="13.491036120858256"><ele>577.0</ele><time>2026-05-03T06:22:49.999Z</time></trkpt><trkpt lat="42.32765278097071" lon="13.490847255182974"><ele>577.0</ele><time>2026-05-03T06:22:51Z</time></trkpt><trkpt lat="42.327709222487165" lon="13.490658649440803"><ele>577.0</ele><time>2026-05-03T06:22:52Z</time></trkpt><trkpt lat="42.327763866698135" lon="13.490471626091615"><ele>576.75</ele><time>2026-05-03T06:22:53Z</time></trkpt><trkpt lat="42.32781925411681" lon="13.490287135085833"><ele>576.5</ele><time>2026-05-03T06:22:54Z</time></trkpt><trkpt lat="42.327872712732095" lon="13.490108256374242"><ele>576.25</ele><time>2026-05-03T06:22:55Z</time></trkpt><trkpt lat="42.32792447041737" lon="13.489934019448505"><ele>576.0</ele><time>2026-05-03T06:22:56Z</time></trkpt><trkpt lat="42.32797614666949" lon="13.489759985662788"><ele>575.75</ele><time>2026-05-03T06:22:57Z</time></trkpt><trkpt lat="42.32802811131022" lon="13.489585268932672"><ele>575.5</ele><time>2026-05-03T06:22:58Z</time></trkpt><trkpt lat="42.32808002578713" lon="13.489410567599505"><ele>575.25</ele><time>2026-05-03T06:22:59Z</time></trkpt><trkpt lat="42.32813331333907" lon="13.489236516989816"><ele>575.0</ele><time>2026-05-03T06:23:00Z</time></trkpt><trkpt lat="42.3281858256179" lon="13.489062282113046"><ele>575.5</ele><time>2026-05-03T06:23:01Z</time></trkpt><trkpt lat="42.32823848913223" lon="13.488886920789685"><ele>576.0</ele><time>2026-05-03T06:23:02Z</time></trkpt><trkpt lat="42.32829021092077" lon="13.488708000345783"><ele>576.5</ele><time>2026-05-03T06:23:03Z</time></trkpt><trkpt lat="42.32834286972765" lon="13.488528858713233"><ele>577.0</ele><time>2026-05-03T06:23:04Z</time></trkpt><trkpt lat="42.32839771591466" lon="13.488345594281439"><ele>577.25</ele><time>2026-05-03T06:23:05Z</time></trkpt><trkpt lat="42.328452590741556" lon="13.488160401334111"><ele>577.5</ele><time>2026-05-03T06:23:06Z</time></trkpt><trkpt lat="42.328508733396156" lon="13.487973380504473"><ele>577.75</ele><time>2026-05-03T06:23:07Z</time></trkpt><trkpt lat="42.32856494792231" lon="13.48778394652451"><ele>578.0</ele><time>2026-05-03T06:23:08Z</time></trkpt><trkpt lat="42.32862038195647" lon="13.487595335107743"><ele>578.0</ele><time>2026-05-03T06:23:09Z</time></trkpt><trkpt lat="42.32867532389821" lon="13.48740916326543"><ele>578.0</ele><time>2026-05-03T06:23:10Z</time></trkpt><trkpt lat="42.32873213046467" lon="13.487222759991184"><ele>578.0</ele><time>2026-05-03T06:23:11Z</time></trkpt><trkpt lat="42.328787584751105" lon="13.48703592392452"><ele>578.0</ele><time>2026-05-03T06:23:12Z</time></trkpt><trkpt lat="42.32884315346088" lon="13.486846558284661"><ele>578.3333333333333</ele><time>2026-05-03T06:23:13Z</time></trkpt><trkpt lat="42.328899280663926" lon="13.486656791938342"><ele>578.6666666666666</ele><time>2026-05-03T06:23:14Z</time></trkpt><trkpt lat="42.32895616759823" lon="13.486468099655086"><ele>579.0</ele><time>2026-05-03T06:23:15Z</time></trkpt><trkpt lat="42.32901115727147" lon="13.486281689473381"><ele>579.5</ele><time>2026-05-03T06:23:16Z</time></trkpt><trkpt lat="42.32906510350182" lon="13.486097103843033"><ele>580.0</ele><time>2026-05-03T06:23:17Z</time></trkpt><trkpt lat="42.32911901309496" lon="13.485912693475711"><ele>580.5</ele><time>2026-05-03T06:23:18Z</time></trkpt><trkpt lat="42.32917182344687" lon="13.485730734951321"><ele>581.0</ele><time>2026-05-03T06:23:19Z</time></trkpt><trkpt lat="42.32922729850233" lon="13.485548661126476"><ele>580.75</ele><time>2026-05-03T06:23:20Z</time></trkpt><trkpt lat="42.32928358143698" lon="13.485370006194108"><ele>580.5</ele><time>2026-05-03T06:23:21Z</time></trkpt><trkpt lat="42.32933711929573" lon="13.485195113623217"><ele>580.25</ele><time>2026-05-03T06:23:22Z</time></trkpt><trkpt lat="42.32938796731941" lon="13.485019042409041"><ele>580.0</ele><time>2026-05-03T06:23:23Z</time></trkpt><trkpt lat="42.32944196224354" lon="13.484841867792005"><ele>580.0</ele><time>2026-05-03T06:23:24Z</time></trkpt><trkpt lat="42.329497009399304" lon="13.484662108452682"><ele>580.0</ele><time>2026-05-03T06:23:25Z</time></trkpt><trkpt lat="42.32955130365381" lon="13.484480624517676"><ele>580.0</ele><time>2026-05-03T06:23:26Z</time></trkpt><trkpt lat="42.329606961869345" lon="13.484296967871916"><ele>580.0</ele><time>2026-05-03T06:23:27Z</time></trkpt><trkpt lat="42.32966149605578" lon="13.484111895385803"><ele>580.25</ele><time>2026-05-03T06:23:28Z</time></trkpt><trkpt lat="42.32971605776314" lon="13.483927374514794"><ele>580.5</ele><time>2026-05-03T06:23:29Z</time></trkpt><trkpt lat="42.3297728267169" lon="13.48374355255146"><ele>580.75</ele><time>2026-05-03T06:23:30Z</time></trkpt><trkpt lat="42.32982957561388" lon="13.483559969583691"><ele>581.0</ele><time>2026-05-03T06:23:31Z</time></trkpt><trkpt lat="42.32988391336056" lon="13.483373517297663"><ele>581.5</ele><time>2026-05-03T06:23:32Z</time></trkpt><trkpt lat="42.329939283087604" lon="13.483186824912796"><ele>582.0</ele><time>2026-05-03T06:23:33Z</time></trkpt><trkpt lat="42.32999421264022" lon="13.483002030277545"><ele>582.5</ele><time>2026-05-03T06:23:34Z</time></trkpt><trkpt lat="42.33004739187764" lon="13.482817692250439"><ele>583.0</ele><time>2026-05-03T06:23:35Z</time></trkpt><trkpt lat="42.33009989426147" lon="13.482637994318145"><ele>583.0</ele><time>2026-05-03T06:23:36Z</time></trkpt><trkpt lat="42.33015575581358" lon="13.482457968527214"><ele>583.0</ele><time>2026-05-03T06:23:37Z</time></trkpt><trkpt lat="42.330211643048635" lon="13.482273802382332"><ele>583.0</ele><time>2026-05-03T06:23:38Z</time></trkpt><trkpt lat="42.330268506855205" lon="13.482085683861932"><ele>583.0</ele><time>2026-05-03T06:23:39Z</time></trkpt><trkpt lat="42.3303249969129" lon="13.481894431402385"><ele>583.0</ele><time>2026-05-03T06:23:40Z</time></trkpt><trkpt lat="42.3303791883902" lon="13.481708005035543"><ele>583.0</ele><time>2026-05-03T06:23:41Z</time></trkpt><trkpt lat="42.330432205706565" lon="13.481529253162174"><ele>583.0</ele><time>2026-05-03T06:23:42Z</time></trkpt><trkpt lat="42.33048623225693" lon="13.481351427748036"><ele>583.0</ele><time>2026-05-03T06:23:43Z</time></trkpt><trkpt lat="42.330540473711025" lon="13.48117376450288"><ele>584.0</ele><time>2026-05-03T06:23:44Z</time></trkpt><trkpt lat="42.33059280477803" lon="13.48099541879187"><ele>585.0</ele><time>2026-05-03T06:23:45Z</time></trkpt><trkpt lat="42.33064373945765" lon="13.480818145728126"><ele>586.0</ele><time>2026-05-03T06:23:46Z</time></trkpt><trkpt lat="42.330696041731166" lon="13.480643393708942"><ele>587.0</ele><time>2026-05-03T06:23:47Z</time></trkpt><trkpt lat="42.33074867721421" lon="13.480468500574633"><ele>587.25</ele><time>2026-05-03T06:23:48Z</time></trkpt><trkpt lat="42.330799620779665" lon="13.480297348021757"><ele>587.5</ele><time>2026-05-03T06:23:49Z</time></trkpt><trkpt lat="42.33085083420675" lon="13.480126582054812"><ele>587.75</ele><time>2026-05-03T06:23:50Z</time></trkpt><trkpt lat="42.33090060424315" lon="13.479957286755123"><ele>588.0</ele><time>2026-05-03T06:23:51Z</time></trkpt><trkpt lat="42.33094869989729" lon="13.479792792928851"><ele>588.0</ele><time>2026-05-03T06:23:52Z</time></trkpt><trkpt lat="42.33099360114339" lon="13.47963900976931"><ele>588.0</ele><time>2026-05-03T06:23:53Z</time></trkpt><trkpt lat="42.33103718238981" lon="13.479488106891884"><ele>588.0</ele><time>2026-05-03T06:23:54Z</time></trkpt><trkpt lat="42.3310852471882" lon="13.479336200441605"><ele>588.0</ele><time>2026-05-03T06:23:55Z</time></trkpt><trkpt lat="42.33113627075079" lon="13.479180019650899"><ele>588.0</ele><time>2026-05-03T06:23:56Z</time></trkpt><trkpt lat="42.33118683032063" lon="13.47901312208835"><ele>588.0</ele><time>2026-05-03T06:23:57Z</time></trkpt><trkpt lat="42.331238438235886" lon="13.478835412490175"><ele>588.0</ele><time>2026-05-03T06:23:58Z</time></trkpt><trkpt lat="42.33129218530663" lon="13.47864919896515"><ele>588.0</ele><time>2026-05-03T06:23:59Z</time></trkpt><trkpt lat="42.33134907547149" lon="13.478453322494802"><ele>588.6666666666666</ele><time>2026-05-03T06:24:00Z</time></trkpt><trkpt lat="42.33140677641108" lon="13.478247037427534"><ele>589.3333333333333</ele><time>2026-05-03T06:24:01Z</time></trkpt><trkpt lat="42.331469237517105" lon="13.47802693805648"><ele>590.0</ele><time>2026-05-03T06:24:02Z</time></trkpt><trkpt lat="42.33153637058976" lon="13.477802125568145"><ele>590.6666666666666</ele><time>2026-05-03T06:24:03Z</time></trkpt><trkpt lat="42.33160235804225" lon="13.477592190966963"><ele>591.3333333333334</ele><time>2026-05-03T06:24:04Z</time></trkpt><trkpt lat="42.33166513052355" lon="13.477397752781167"><ele>592.0</ele><time>2026-05-03T06:24:05Z</time></trkpt><trkpt lat="42.331719154023254" lon="13.47720941432928"><ele>592.0</ele><time>2026-05-03T06:24:06Z</time></trkpt><trkpt lat="42.33177380677977" lon="13.47702651234505"><ele>592.0</ele><time>2026-05-03T06:24:07Z</time></trkpt><trkpt lat="42.33182399118061" lon="13.476843447814973"><ele>592.0</ele><time>2026-05-03T06:24:08Z</time></trkpt><trkpt lat="42.331874853554815" lon="13.476659651206791"><ele>592.0</ele><time>2026-05-03T06:24:09Z</time></trkpt><trkpt lat="42.33192533949701" lon="13.476473557469218"><ele>592.0</ele><time>2026-05-03T06:24:10Z</time></trkpt><trkpt lat="42.331974826185515" lon="13.476283177002296"><ele>592.0</ele><time>2026-05-03T06:24:11Z</time></trkpt><trkpt lat="42.332023667597284" lon="13.476089263732767"><ele>592.0</ele><time>2026-05-03T06:24:12Z</time></trkpt><trkpt lat="42.33207515664498" lon="13.475891956923153"><ele>592.0</ele><time>2026-05-03T06:24:13Z</time></trkpt><trkpt lat="42.332128526995234" lon="13.475692886175263"><ele>592.0</ele><time>2026-05-03T06:24:14Z</time></trkpt><trkpt lat="42.332177801555154" lon="13.47549365539727"><ele>592.0</ele><time>2026-05-03T06:24:15Z</time></trkpt><trkpt lat="42.33222974598868" lon="13.475293521408288"><ele>592.0</ele><time>2026-05-03T06:24:16Z</time></trkpt><trkpt lat="42.332280407980626" lon="13.475093357419395"><ele>592.0</ele><time>2026-05-03T06:24:17Z</time></trkpt><trkpt lat="42.332332565335356" lon="13.474895736966527"><ele>592.0</ele><time>2026-05-03T06:24:18Z</time></trkpt><trkpt lat="42.33238272437682" lon="13.474709115032454"><ele>592.5</ele><time>2026-05-03T06:24:19Z</time></trkpt><trkpt lat="42.33242872771598" lon="13.47453635679303"><ele>593.0</ele><time>2026-05-03T06:24:20Z</time></trkpt><trkpt lat="42.33247444064478" lon="13.474366465500312"><ele>593.5</ele><time>2026-05-03T06:24:21Z</time></trkpt><trkpt lat="42.33251833794187" lon="13.474193398457103"><ele>594.0</ele><time>2026-05-03T06:24:22Z</time></trkpt><trkpt lat="42.3325635905551" lon="13.47401576104297"><ele>594.0</ele><time>2026-05-03T06:24:23Z</time></trkpt><trkpt lat="42.3326094686915" lon="13.47383499588212"><ele>594.0</ele><time>2026-05-03T06:24:24Z</time></trkpt><trkpt lat="42.33265786919125" lon="13.473653424399028"><ele>594.0</ele><time>2026-05-03T06:24:25Z</time></trkpt><trkpt lat="42.33270630582037" lon="13.4734669695095"><ele>594.0</ele><time>2026-05-03T06:24:26Z</time></trkpt><trkpt lat="42.33275547298257" lon="13.473277898322266"><ele>593.75</ele><time>2026-05-03T06:24:27Z</time></trkpt><trkpt lat="42.33280564256398" lon="13.473088936557202"><ele>593.5</ele><time>2026-05-03T06:24:28Z</time></trkpt><trkpt lat="42.332854242247365" lon="13.47290320421265"><ele>593.25</ele><time>2026-05-03T06:24:29Z</time></trkpt><trkpt lat="42.33290234458614" lon="13.472720986726012"><ele>593.0</ele><time>2026-05-03T06:24:30Z</time></trkpt><trkpt lat="42.332949434142655" lon="13.472542124427813"><ele>593.25</ele><time>2026-05-03T06:24:31Z</time></trkpt><trkpt lat="42.33299622494268" lon="13.472365312133864"><ele>593.5</ele><time>2026-05-03T06:24:32Z</time></trkpt><trkpt lat="42.33304475202208" lon="13.472193890968507"><ele>593.75</ele><time>2026-05-03T06:24:33Z</time></trkpt><trkpt lat="42.333091967244776" lon="13.472033174413484"><ele>594.0</ele><time>2026-05-03T06:24:34Z</time></trkpt><trkpt lat="42.33314088330973" lon="13.471883035253178"><ele>594.0</ele><time>2026-05-03T06:24:35Z</time></trkpt><trkpt lat="42.333189688969945" lon="13.4717429855271"><ele>594.0</ele><time>2026-05-03T06:24:36Z</time></trkpt><trkpt lat="42.33324177563948" lon="13.471616923795134"><ele>594.0</ele><time>2026-05-03T06:24:37Z</time></trkpt><trkpt lat="42.333301632315624" lon="13.471508398192682"><ele>594.0</ele><time>2026-05-03T06:24:38Z</time></trkpt><trkpt lat="42.333371905912294" lon="13.471424588956754"><ele>594.0</ele><time>2026-05-03T06:24:39Z</time></trkpt><trkpt lat="42.333447889557156" lon="13.471371890723994"><ele>594.0</ele><time>2026-05-03T06:24:40Z</time></trkpt><trkpt lat="42.3335253529583" lon="13.471320316068924"><ele>594.0</ele><time>2026-05-03T06:24:41Z</time></trkpt><trkpt lat="42.33358423359675" lon="13.471240025681618"><ele>594.0</ele><time>2026-05-03T06:24:42Z</time></trkpt><trkpt lat="42.333617851383295" lon="13.471131309815675"><ele>594.0</ele><time>2026-05-03T06:24:43Z</time></trkpt><trkpt lat="42.3336174096304" lon="13.47101365458514"><ele>594.0</ele><time>2026-05-03T06:24:44Z</time></trkpt><trkpt lat="42.33358659511916" lon="13.470895782658326"><ele>594.0</ele><time>2026-05-03T06:24:45Z</time></trkpt><trkpt lat="42.333543450555645" lon="13.470764515488527"><ele>593.5</ele><time>2026-05-03T06:24:46Z</time></trkpt><trkpt lat="42.333517399710225" lon="13.470609669118309"><ele>593.0</ele><time>2026-05-03T06:24:47Z</time></trkpt><trkpt lat="42.33351776448767" lon="13.470444871247475"><ele>592.5</ele><time>2026-05-03T06:24:48Z</time></trkpt><trkpt lat="42.33353706812508" lon="13.470281511115905"><ele>592.0</ele><time>2026-05-03T06:24:49Z</time></trkpt><trkpt lat="42.33356897401102" lon="13.470123252877661"><ele>591.75</ele><time>2026-05-03T06:24:50Z</time></trkpt><trkpt lat="42.333606532372066" lon="13.469966438258519"><ele>591.5</ele><time>2026-05-03T06:24:51Z</time></trkpt><trkpt lat="42.33364676486233" lon="13.46980959205226"><ele>591.25</ele><time>2026-05-03T06:24:52Z</time></trkpt><trkpt lat="42.333695000517814" lon="13.469652082869368"><ele>591.0</ele><time>2026-05-03T06:24:53Z</time></trkpt><trkpt lat="42.33373638260228" lon="13.469497457127414"><ele>591.0</ele><time>2026-05-03T06:24:54Z</time></trkpt><trkpt lat="42.33378076442967" lon="13.469340197605119"><ele>591.0</ele><time>2026-05-03T06:24:55Z</time></trkpt><trkpt lat="42.333822612423475" lon="13.469179636411713"><ele>591.0</ele><time>2026-05-03T06:24:56Z</time></trkpt><trkpt lat="42.333870097742086" lon="13.469017001099273"><ele>591.0</ele><time>2026-05-03T06:24:57.001Z</time></trkpt><trkpt lat="42.33391491117592" lon="13.468851192245962"><ele>591.5</ele><time>2026-05-03T06:24:58.001Z</time></trkpt><trkpt lat="42.33396100286284" lon="13.468689870441427"><ele>592.0</ele><time>2026-05-03T06:24:59.001Z</time></trkpt><trkpt lat="42.33401128375582" lon="13.468526223349693"><ele>592.5</ele><time>2026-05-03T06:25:00.001Z</time></trkpt><trkpt lat="42.33405893662524" lon="13.468367417915145"><ele>593.0</ele><time>2026-05-03T06:25:01.001Z</time></trkpt><trkpt lat="42.3341013893096" lon="13.4682092165333"><ele>593.0</ele><time>2026-05-03T06:25:02.001Z</time></trkpt><trkpt lat="42.33414747429629" lon="13.468040468657788"><ele>593.0</ele><time>2026-05-03T06:25:03.001Z</time></trkpt><trkpt lat="42.33418269063055" lon="13.46788114445432"><ele>593.0</ele><time>2026-05-03T06:25:04Z</time></trkpt><trkpt lat="42.33423477906203" lon="13.467711099037215"><ele>593.0</ele><time>2026-05-03T06:25:05Z</time></trkpt><trkpt lat="42.334282934080115" lon="13.467541761019458"><ele>592.75</ele><time>2026-05-03T06:25:06Z</time></trkpt><trkpt lat="42.33433425785141" lon="13.46736371754439"><ele>592.5</ele><time>2026-05-03T06:25:07Z</time></trkpt><trkpt lat="42.3343863465094" lon="13.467187295972398"><ele>592.25</ele><time>2026-05-03T06:25:08Z</time></trkpt><trkpt lat="42.33443002028499" lon="13.467017861151133"><ele>592.0</ele><time>2026-05-03T06:25:09Z</time></trkpt><trkpt lat="42.33447764225431" lon="13.466848751229367"><ele>592.0</ele><time>2026-05-03T06:25:10Z</time></trkpt><trkpt lat="42.334526057963274" lon="13.466686958172488"><ele>592.0</ele><time>2026-05-03T06:25:11Z</time></trkpt><trkpt lat="42.334569533386265" lon="13.46652496515971"><ele>592.0</ele><time>2026-05-03T06:25:12Z</time></trkpt><trkpt lat="42.33461365680782" lon="13.466366737856385"><ele>592.0</ele><time>2026-05-03T06:25:13Z</time></trkpt><trkpt lat="42.33466013460299" lon="13.466209872054966"><ele>591.5</ele><time>2026-05-03T06:25:14Z</time></trkpt><trkpt lat="42.33470157362354" lon="13.466042504395489"><ele>591.0</ele><time>2026-05-03T06:25:15Z</time></trkpt><trkpt lat="42.33474951634687" lon="13.46587342790716"><ele>590.5</ele><time>2026-05-03T06:25:16Z</time></trkpt><trkpt lat="42.33479866320597" lon="13.465707590418615"><ele>590.0</ele><time>2026-05-03T06:25:17Z</time></trkpt><trkpt lat="42.334843831936126" lon="13.465547425586216"><ele>591.0</ele><time>2026-05-03T06:25:18Z</time></trkpt><trkpt lat="42.33488459429118" lon="13.465395610333848"><ele>592.0</ele><time>2026-05-03T06:25:19Z</time></trkpt><trkpt lat="42.33492167807697" lon="13.465258427366203"><ele>593.0</ele><time>2026-05-03T06:25:20Z</time></trkpt><trkpt lat="42.33496006044119" lon="13.4651162989946"><ele>594.0</ele><time>2026-05-03T06:25:21Z</time></trkpt><trkpt lat="42.33500018648196" lon="13.464969286311131"><ele>594.0</ele><time>2026-05-03T06:25:22Z</time></trkpt><trkpt lat="42.33504249575148" lon="13.46482094974409"><ele>594.0</ele><time>2026-05-03T06:25:23Z</time></trkpt><trkpt lat="42.335085176341124" lon="13.464671288895282"><ele>594.0</ele><time>2026-05-03T06:25:24Z</time></trkpt><trkpt lat="42.33512712218672" lon="13.464528378189874"><ele>594.0</ele><time>2026-05-03T06:25:25Z</time></trkpt><trkpt lat="42.335170158064784" lon="13.464381280516065"><ele>594.0</ele><time>2026-05-03T06:25:26Z</time></trkpt><trkpt lat="42.33521373960956" lon="13.464228782620177"><ele>594.0</ele><time>2026-05-03T06:25:27Z</time></trkpt><trkpt lat="42.335258594161196" lon="13.464060960802447"><ele>594.0</ele><time>2026-05-03T06:25:28Z</time></trkpt><trkpt lat="42.33530885238352" lon="13.46387738781559"><ele>594.0</ele><time>2026-05-03T06:25:29Z</time></trkpt><trkpt lat="42.33535896487454" lon="13.463691060018359"><ele>594.0</ele><time>2026-05-03T06:25:30Z</time></trkpt><trkpt lat="42.335409181860044" lon="13.463513738394656"><ele>594.0</ele><time>2026-05-03T06:25:31Z</time></trkpt><trkpt lat="42.33545242553917" lon="13.46334524368209"><ele>594.0</ele><time>2026-05-03T06:25:32Z</time></trkpt><trkpt lat="42.33549304989752" lon="13.463185923943536"><ele>594.0</ele><time>2026-05-03T06:25:33Z</time></trkpt><trkpt lat="42.33553565826105" lon="13.463035581547807"><ele>594.75</ele><time>2026-05-03T06:25:34Z</time></trkpt><trkpt lat="42.33557251000831" lon="13.462899867233785"><ele>595.5</ele><time>2026-05-03T06:25:35Z</time></trkpt><trkpt lat="42.33560894346669" lon="13.462770627255368"><ele>596.25</ele><time>2026-05-03T06:25:36Z</time></trkpt><trkpt lat="42.3356494112273" lon="13.46262353433625"><ele>597.0</ele><time>2026-05-03T06:25:37Z</time></trkpt><trkpt lat="42.33569741702949" lon="13.462450164144823"><ele>597.0</ele><time>2026-05-03T06:25:38Z</time></trkpt><trkpt lat="42.335754692604624" lon="13.462245103591595"><ele>597.0</ele><time>2026-05-03T06:25:39Z</time></trkpt><trkpt lat="42.33581538590604" lon="13.46202320069244"><ele>597.0</ele><time>2026-05-03T06:25:40Z</time></trkpt><trkpt lat="42.33587662882755" lon="13.461808351685098"><ele>596.0</ele><time>2026-05-03T06:25:41Z</time></trkpt><trkpt lat="42.33593224456301" lon="13.461603830587993"><ele>595.0</ele><time>2026-05-03T06:25:42Z</time></trkpt><trkpt lat="42.33598653971308" lon="13.461406127777629"><ele>594.0</ele><time>2026-05-03T06:25:43Z</time></trkpt><trkpt lat="42.336039606033495" lon="13.461214944772411"><ele>594.0</ele><time>2026-05-03T06:25:44Z</time></trkpt><trkpt lat="42.33609237126454" lon="13.461022378783603"><ele>594.0</ele><time>2026-05-03T06:25:45Z</time></trkpt><trkpt lat="42.336145332656464" lon="13.46082857910443"><ele>594.0</ele><time>2026-05-03T06:25:46Z</time></trkpt><trkpt lat="42.33619668653269" lon="13.460643163285422"><ele>594.0</ele><time>2026-05-03T06:25:47Z</time></trkpt><trkpt lat="42.33624564539826" lon="13.460464563056187"><ele>594.0</ele><time>2026-05-03T06:25:48Z</time></trkpt><trkpt lat="42.33629135716499" lon="13.460292003146181"><ele>594.0</ele><time>2026-05-03T06:25:49Z</time></trkpt><trkpt lat="42.336339969429616" lon="13.460116859673699"><ele>594.0</ele><time>2026-05-03T06:25:50Z</time></trkpt><trkpt lat="42.33639089820023" lon="13.459941784111395"><ele>594.25</ele><time>2026-05-03T06:25:51Z</time></trkpt><trkpt lat="42.33644306257606" lon="13.459763447160125"><ele>594.5</ele><time>2026-05-03T06:25:52Z</time></trkpt><trkpt lat="42.336491908930526" lon="13.459588251006828"><ele>594.75</ele><time>2026-05-03T06:25:53Z</time></trkpt><trkpt lat="42.336538808718416" lon="13.459422108342283"><ele>595.0</ele><time>2026-05-03T06:25:54Z</time></trkpt><trkpt lat="42.33658403021192" lon="13.459262893058137"><ele>595.0</ele><time>2026-05-03T06:25:55Z</time></trkpt><trkpt lat="42.33662504858815" lon="13.459109989483737"><ele>595.0</ele><time>2026-05-03T06:25:56Z</time></trkpt><trkpt lat="42.33666234255858" lon="13.458958172433723"><ele>595.0</ele><time>2026-05-03T06:25:57Z</time></trkpt><trkpt lat="42.33670513609945" lon="13.45881044956507"><ele>595.0</ele><time>2026-05-03T06:25:58Z</time></trkpt><trkpt lat="42.3367428276374" lon="13.458661728401102"><ele>595.0</ele><time>2026-05-03T06:25:59Z</time></trkpt><trkpt lat="42.33677927353644" lon="13.458515207146762"><ele>595.0</ele><time>2026-05-03T06:26:00Z</time></trkpt><trkpt lat="42.33681884109434" lon="13.458371812512583"><ele>595.0</ele><time>2026-05-03T06:26:01Z</time></trkpt><trkpt lat="42.33685545414674" lon="13.458230476702502"><ele>595.0</ele><time>2026-05-03T06:26:02Z</time></trkpt><trkpt lat="42.33689562682045" lon="13.458103029688699"><ele>595.0</ele><time>2026-05-03T06:26:03Z</time></trkpt><trkpt lat="42.33694065593894" lon="13.457990002476686"><ele>595.1666666666667</ele><time>2026-05-03T06:26:04Z</time></trkpt><trkpt lat="42.336994684404054" lon="13.45789580082462"><ele>595.3333333333334</ele><time>2026-05-03T06:26:05Z</time></trkpt><trkpt lat="42.337062342689556" lon="13.457812094345355"><ele>595.5</ele><time>2026-05-03T06:26:06Z</time></trkpt><trkpt lat="42.33713005602391" lon="13.457734734983678"><ele>595.6666666666666</ele><time>2026-05-03T06:26:07Z</time></trkpt><trkpt lat="42.337183467820225" lon="13.457654599339445"><ele>595.8333333333333</ele><time>2026-05-03T06:26:08Z</time></trkpt><trkpt lat="42.337207533810954" lon="13.457559276717113"><ele>596.0</ele><time>2026-05-03T06:26:09Z</time></trkpt><trkpt lat="42.33720390076711" lon="13.457458890422672"><ele>596.0</ele><time>2026-05-03T06:26:10Z</time></trkpt><trkpt lat="42.337186943727914" lon="13.457341051906123"><ele>596.0</ele><time>2026-05-03T06:26:11Z</time></trkpt><trkpt lat="42.33717086655148" lon="13.45720122769015"><ele>596.0</ele><time>2026-05-03T06:26:12Z</time></trkpt><trkpt lat="42.33718337373164" lon="13.457029896806434"><ele>596.0</ele><time>2026-05-03T06:26:13Z</time></trkpt><trkpt lat="42.337223650386775" lon="13.456838943409206"><ele>596.0</ele><time>2026-05-03T06:26:14Z</time></trkpt><trkpt lat="42.3372664719689" lon="13.456640860794831"><ele>596.0</ele><time>2026-05-03T06:26:15Z</time></trkpt><trkpt lat="42.33729213942259" lon="13.456462977817452"><ele>596.0</ele><time>2026-05-03T06:26:16Z</time></trkpt><trkpt lat="42.33730862627893" lon="13.456301360582973"><ele>596.0</ele><time>2026-05-03T06:26:17Z</time></trkpt><trkpt lat="42.33731987721369" lon="13.456135849556183"><ele>597.0</ele><time>2026-05-03T06:26:18Z</time></trkpt><trkpt lat="42.337326158792955" lon="13.455967731028572"><ele>598.0</ele><time>2026-05-03T06:26:19Z</time></trkpt><trkpt lat="42.33732387129153" lon="13.455797964080789"><ele>599.0</ele><time>2026-05-03T06:26:20Z</time></trkpt><trkpt lat="42.33731016602115" lon="13.45563515176003"><ele>600.0</ele><time>2026-05-03T06:26:21Z</time></trkpt><trkpt lat="42.33728775110951" lon="13.455482365330264"><ele>599.0</ele><time>2026-05-03T06:26:22Z</time></trkpt><trkpt lat="42.33726051280235" lon="13.455329350506691"><ele>598.0</ele><time>2026-05-03T06:26:23Z</time></trkpt><trkpt lat="42.337232934975106" lon="13.455170209642471"><ele>597.0</ele><time>2026-05-03T06:26:24Z</time></trkpt><trkpt lat="42.337201763204824" lon="13.45500292117007"><ele>596.0</ele><time>2026-05-03T06:26:25Z</time></trkpt><trkpt lat="42.337166494203686" lon="13.454832885143238"><ele>596.0</ele><time>2026-05-03T06:26:26Z</time></trkpt><trkpt lat="42.337130515718364" lon="13.454662524783306"><ele>596.0</ele><time>2026-05-03T06:26:27Z</time></trkpt><trkpt lat="42.33709515253773" lon="13.45449430217987"><ele>596.0</ele><time>2026-05-03T06:26:28Z</time></trkpt><trkpt lat="42.33705942759679" lon="13.45433041107529"><ele>596.0</ele><time>2026-05-03T06:26:29Z</time></trkpt><trkpt lat="42.33702246251941" lon="13.454162868436905"><ele>596.75</ele><time>2026-05-03T06:26:30Z</time></trkpt><trkpt lat="42.33698615563771" lon="13.453996800545395"><ele>597.5</ele><time>2026-05-03T06:26:31Z</time></trkpt><trkpt lat="42.33694714016345" lon="13.453831829742253"><ele>598.25</ele><time>2026-05-03T06:26:32Z</time></trkpt><trkpt lat="42.336908108498776" lon="13.453667646507556"><ele>599.0</ele><time>2026-05-03T06:26:33Z</time></trkpt><trkpt lat="42.336865541258334" lon="13.453500418937992"><ele>599.5</ele><time>2026-05-03T06:26:34Z</time></trkpt><trkpt lat="42.33682559471353" lon="13.453328177245623"><ele>600.0</ele><time>2026-05-03T06:26:35Z</time></trkpt><trkpt lat="42.336786504666726" lon="13.453154987056635"><ele>600.5</ele><time>2026-05-03T06:26:36Z</time></trkpt><trkpt lat="42.33674999438709" lon="13.4529795357144"><ele>601.0</ele><time>2026-05-03T06:26:37Z</time></trkpt><trkpt lat="42.33671484455853" lon="13.452808784577678"><ele>601.5</ele><time>2026-05-03T06:26:38Z</time></trkpt><trkpt lat="42.33668211281587" lon="13.452639674798476"><ele>602.0</ele><time>2026-05-03T06:26:39Z</time></trkpt><trkpt lat="42.33665247456715" lon="13.452471696945151"><ele>602.5</ele><time>2026-05-03T06:26:40Z</time></trkpt><trkpt lat="42.33662573300065" lon="13.452308468454403"><ele>603.0</ele><time>2026-05-03T06:26:41Z</time></trkpt><trkpt lat="42.336597326210885" lon="13.452157298197639"><ele>603.0</ele><time>2026-05-03T06:26:42Z</time></trkpt><trkpt lat="42.33656850506751" lon="13.452016594602908"><ele>603.0</ele><time>2026-05-03T06:26:43Z</time></trkpt><trkpt lat="42.33654730581279" lon="13.451883270850292"><ele>603.0</ele><time>2026-05-03T06:26:44Z</time></trkpt><trkpt lat="42.336541160396486" lon="13.45174767157"><ele>603.0</ele><time>2026-05-03T06:26:45Z</time></trkpt><trkpt lat="42.336552765707275" lon="13.451611053088271"><ele>603.0</ele><time>2026-05-03T06:26:46Z</time></trkpt><trkpt lat="42.33659465181025" lon="13.451479823718428"><ele>603.0</ele><time>2026-05-03T06:26:47Z</time></trkpt><trkpt lat="42.33664674094816" lon="13.451330384028964"><ele>603.0</ele><time>2026-05-03T06:26:48Z</time></trkpt><trkpt lat="42.33668384767359" lon="13.451159866873612"><ele>603.0</ele><time>2026-05-03T06:26:49Z</time></trkpt><trkpt lat="42.336714772808094" lon="13.450975018338458"><ele>603.0</ele><time>2026-05-03T06:26:50Z</time></trkpt><trkpt lat="42.33675309559685" lon="13.450795435654461"><ele>603.5</ele><time>2026-05-03T06:26:51Z</time></trkpt><trkpt lat="42.3367962347673" lon="13.450605715735215"><ele>604.0</ele><time>2026-05-03T06:26:52Z</time></trkpt><trkpt lat="42.336841883041764" lon="13.450403344952415"><ele>604.5</ele><time>2026-05-03T06:26:53Z</time></trkpt><trkpt lat="42.33688376657777" lon="13.45021472101802"><ele>605.0</ele><time>2026-05-03T06:26:54Z</time></trkpt><trkpt lat="42.336920960185225" lon="13.450050292155913"><ele>605.5</ele><time>2026-05-03T06:26:55Z</time></trkpt><trkpt lat="42.336956690580465" lon="13.449886947588212"><ele>606.0</ele><time>2026-05-03T06:26:56Z</time></trkpt><trkpt lat="42.33699087538694" lon="13.449727927129434"><ele>606.5</ele><time>2026-05-03T06:26:57Z</time></trkpt><trkpt lat="42.3370221907669" lon="13.44957432589393"><ele>607.0</ele><time>2026-05-03T06:26:58Z</time></trkpt><trkpt lat="42.33705442668693" lon="13.449421262004266"><ele>607.0</ele><time>2026-05-03T06:26:59Z</time></trkpt><trkpt lat="42.33708748051312" lon="13.449263254649823"><ele>607.0</ele><time>2026-05-03T06:27:00Z</time></trkpt><trkpt lat="42.33712411693124" lon="13.449101047168805"><ele>607.0</ele><time>2026-05-03T06:27:01Z</time></trkpt><trkpt lat="42.337165220668915" lon="13.448929640858637"><ele>607.0</ele><time>2026-05-03T06:27:02Z</time></trkpt><trkpt lat="42.337206365478885" lon="13.448754057345557"><ele>610.2</ele><time>2026-05-03T06:27:03.001Z</time></trkpt><trkpt lat="42.33723962102204" lon="13.448597448263984"><ele>613.4000000000001</ele><time>2026-05-03T06:27:04.001Z</time></trkpt><trkpt lat="42.337268536429626" lon="13.448459694328879"><ele>616.5999999999999</ele><time>2026-05-03T06:27:05.001Z</time></trkpt><trkpt lat="42.33729980073893" lon="13.448333918782915"><ele>619.8</ele><time>2026-05-03T06:27:06.001Z</time></trkpt><trkpt lat="42.33733766283495" lon="13.448222807107378"><ele>623.0</ele><time>2026-05-03T06:27:07.001Z</time></trkpt><trkpt lat="42.33738680528934" lon="13.448118795945645"><ele>623.0</ele><time>2026-05-03T06:27:08.001Z</time></trkpt><trkpt lat="42.337452410557965" lon="13.448022200864148"><ele>623.0</ele><time>2026-05-03T06:27:09.001Z</time></trkpt><trkpt lat="42.33752886836246" lon="13.447943347618615"><ele>623.0</ele><time>2026-05-03T06:27:10.001Z</time></trkpt><trkpt lat="42.33759217421171" lon="13.447868350378949"><ele>623.0</ele><time>2026-05-03T06:27:11.001Z</time></trkpt><trkpt lat="42.337622096573746" lon="13.447761526462893"><ele>623.0</ele><time>2026-05-03T06:27:12.001Z</time></trkpt><trkpt lat="42.33761905382274" lon="13.44762814444402"><ele>623.0</ele><time>2026-05-03T06:27:13.001Z</time></trkpt><trkpt lat="42.33758422515324" lon="13.447495826261944"><ele>623.0</ele><time>2026-05-03T06:27:14.001Z</time></trkpt><trkpt lat="42.33759895055684" lon="13.447336527577946"><ele>623.0</ele><time>2026-05-03T06:27:15.001Z</time></trkpt><trkpt lat="42.33764136303125" lon="13.447158775943276"><ele>623.0</ele><time>2026-05-03T06:27:16.001Z</time></trkpt><trkpt lat="42.337695853487205" lon="13.446948513945603"><ele>623.0</ele><time>2026-05-03T06:27:17.001Z</time></trkpt><trkpt lat="42.33775130080714" lon="13.446705932392769"><ele>623.0</ele><time>2026-05-03T06:27:18.001Z</time></trkpt><trkpt lat="42.33780468549759" lon="13.446457383033792"><ele>623.0</ele><time>2026-05-03T06:27:19.001Z</time></trkpt><trkpt lat="42.3378533822092" lon="13.446222160760154"><ele>623.3333333333333</ele><time>2026-05-03T06:27:20.001Z</time></trkpt><trkpt lat="42.337900177015314" lon="13.445980273335117"><ele>623.6666666666666</ele><time>2026-05-03T06:27:21.001Z</time></trkpt><trkpt lat="42.337942060678934" lon="13.445742752208472"><ele>624.0</ele><time>2026-05-03T06:27:22.001Z</time></trkpt><trkpt lat="42.33798237437073" lon="13.445512237949163"><ele>625.0</ele><time>2026-05-03T06:27:23.001Z</time></trkpt><trkpt lat="42.33802421062763" lon="13.445294526365526"><ele>626.0</ele><time>2026-05-03T06:27:24.001Z</time></trkpt><trkpt lat="42.33806495429455" lon="13.44508120911328"><ele>627.0</ele><time>2026-05-03T06:27:25.001Z</time></trkpt><trkpt lat="42.33810566132535" lon="13.44487315207525"><ele>630.6666666666666</ele><time>2026-05-03T06:27:26Z</time></trkpt><trkpt lat="42.338154078493304" lon="13.44466945709304"><ele>634.3333333333333</ele><time>2026-05-03T06:27:27Z</time></trkpt><trkpt lat="42.33820822616404" lon="13.444466579838393"><ele>638.0</ele><time>2026-05-03T06:27:28Z</time></trkpt><trkpt lat="42.33826544760802" lon="13.44426509422433"><ele>637.6666666666666</ele><time>2026-05-03T06:27:29Z</time></trkpt><trkpt lat="42.338322071343185" lon="13.444060647120867"><ele>637.3333333333334</ele><time>2026-05-03T06:27:30Z</time></trkpt><trkpt lat="42.338379334851126" lon="13.443859847355835"><ele>637.0</ele><time>2026-05-03T06:27:31Z</time></trkpt><trkpt lat="42.33843690383194" lon="13.443666138533521"><ele>637.0</ele><time>2026-05-03T06:27:32Z</time></trkpt><trkpt lat="42.33849416514306" lon="13.443470621510773"><ele>637.0</ele><time>2026-05-03T06:27:33Z</time></trkpt><trkpt lat="42.33854954236915" lon="13.443275824882509"><ele>637.0</ele><time>2026-05-03T06:27:34Z</time></trkpt><trkpt lat="42.33860547139001" lon="13.443083641064801"><ele>637.0</ele><time>2026-05-03T06:27:35Z</time></trkpt><trkpt lat="42.33866306995425" lon="13.442889494266282"><ele>637.0</ele><time>2026-05-03T06:27:36Z</time></trkpt><trkpt lat="42.33872000240921" lon="13.44269481887062"><ele>637.0</ele><time>2026-05-03T06:27:37Z</time></trkpt><trkpt lat="42.33877736116763" lon="13.442499992922311"><ele>637.0</ele><time>2026-05-03T06:27:38Z</time></trkpt><trkpt lat="42.33883480686857" lon="13.442309645737472"><ele>637.0</ele><time>2026-05-03T06:27:39Z</time></trkpt><trkpt lat="42.33888844040363" lon="13.442127997431166"><ele>637.0</ele><time>2026-05-03T06:27:40Z</time></trkpt><trkpt lat="42.338941456835286" lon="13.441945017932698"><ele>637.0</ele><time>2026-05-03T06:27:41Z</time></trkpt><trkpt lat="42.338993724100014" lon="13.44176359574487"><ele>640.25</ele><time>2026-05-03T06:27:42Z</time></trkpt><trkpt lat="42.3390430252905" lon="13.44158679646306"><ele>643.5</ele><time>2026-05-03T06:27:43Z</time></trkpt><trkpt lat="42.33909289604534" lon="13.441412183917347"><ele>646.75</ele><time>2026-05-03T06:27:44Z</time></trkpt><trkpt lat="42.339146059236164" lon="13.44122890740897"><ele>650.0</ele><time>2026-05-03T06:27:45Z</time></trkpt><trkpt lat="42.33920482875748" lon="13.441032789133404"><ele>649.3333333333333</ele><time>2026-05-03T06:27:46Z</time></trkpt><trkpt lat="42.339271641899934" lon="13.440832199301319"><ele>648.6666666666666</ele><time>2026-05-03T06:27:47Z</time></trkpt><trkpt lat="42.339342716418" lon="13.440635755608332"><ele>648.0</ele><time>2026-05-03T06:27:48Z</time></trkpt><trkpt lat="42.33942398596517" lon="13.440441616465595"><ele>648.0</ele><time>2026-05-03T06:27:49Z</time></trkpt><trkpt lat="42.33951548566304" lon="13.440254654554504"><ele>648.0</ele><time>2026-05-03T06:27:50Z</time></trkpt><trkpt lat="42.33961346104133" lon="13.440079199537603"><ele>648.0</ele><time>2026-05-03T06:27:51Z</time></trkpt><trkpt lat="42.33971389273117" lon="13.439915837217063"><ele>650.3333333333334</ele><time>2026-05-03T06:27:52Z</time></trkpt><trkpt lat="42.33981798766712" lon="13.439765676298508"><ele>652.6666666666667</ele><time>2026-05-03T06:27:53Z</time></trkpt><trkpt lat="42.33993043387021" lon="13.439625533812233"><ele>655.0</ele><time>2026-05-03T06:27:54Z</time></trkpt><trkpt lat="42.34005123243642" lon="13.439493420117817"><ele>655.0</ele><time>2026-05-03T06:27:55Z</time></trkpt><trkpt lat="42.340178004739705" lon="13.439371239724789"><ele>655.0</ele><time>2026-05-03T06:27:56Z</time></trkpt><trkpt lat="42.34030919821591" lon="13.439260101030582"><ele>655.0</ele><time>2026-05-03T06:27:57Z</time></trkpt><trkpt lat="42.34044412439694" lon="13.439160637611632"><ele>658.3333333333334</ele><time>2026-05-03T06:27:58Z</time></trkpt><trkpt lat="42.34058116494584" lon="13.439073032292054"><ele>661.6666666666666</ele><time>2026-05-03T06:27:59Z</time></trkpt><trkpt lat="42.34072074480122" lon="13.438993781663418"><ele>665.0</ele><time>2026-05-03T06:28:00Z</time></trkpt><trkpt lat="42.34086315919131" lon="13.43892872527514"><ele>665.0</ele><time>2026-05-03T06:28:01Z</time></trkpt><trkpt lat="42.34100817678597" lon="13.438878454731647"><ele>665.0</ele><time>2026-05-03T06:28:02Z</time></trkpt><trkpt lat="42.34115370659239" lon="13.438835553679995"><ele>665.0</ele><time>2026-05-03T06:28:03Z</time></trkpt><trkpt lat="42.34130131575236" lon="13.43879596719882"><ele>665.0</ele><time>2026-05-03T06:28:04Z</time></trkpt><trkpt lat="42.341449603043" lon="13.438754149412487"><ele>665.0</ele><time>2026-05-03T06:28:05Z</time></trkpt><trkpt lat="42.341597665886226" lon="13.438712975996319"><ele>665.0</ele><time>2026-05-03T06:28:06Z</time></trkpt><trkpt lat="42.34174418877741" lon="13.438673268185049"><ele>665.0</ele><time>2026-05-03T06:28:07Z</time></trkpt><trkpt lat="42.34189109397567" lon="13.438633428677432"><ele>665.0</ele><time>2026-05-03T06:28:08Z</time></trkpt><trkpt lat="42.342039320018536" lon="13.43859202043533"><ele>665.0</ele><time>2026-05-03T06:28:09Z</time></trkpt><trkpt lat="42.34218663234886" lon="13.438551015184027"><ele>665.0</ele><time>2026-05-03T06:28:10Z</time></trkpt><trkpt lat="42.34233338497574" lon="13.43850250506335"><ele>667.3333333333333</ele><time>2026-05-03T06:28:11Z</time></trkpt><trkpt lat="42.342479771484136" lon="13.43843932171229"><ele>669.6666666666666</ele><time>2026-05-03T06:28:12Z</time></trkpt><trkpt lat="42.342626686734704" lon="13.438363803321767"><ele>672.0</ele><time>2026-05-03T06:28:13Z</time></trkpt><trkpt lat="42.34276936568774" lon="13.438279732206952"><ele>672.0</ele><time>2026-05-03T06:28:14Z</time></trkpt><trkpt lat="42.34290851291385" lon="13.438183746480387"><ele>672.0</ele><time>2026-05-03T06:28:15Z</time></trkpt><trkpt lat="42.34304203300661" lon="13.4380747242093"><ele>672.0</ele><time>2026-05-03T06:28:16Z</time></trkpt><trkpt lat="42.343168461168595" lon="13.437952727763797"><ele>673.0</ele><time>2026-05-03T06:28:17Z</time></trkpt><trkpt lat="42.34328874876491" lon="13.43782042286822"><ele>674.0</ele><time>2026-05-03T06:28:18Z</time></trkpt><trkpt lat="42.343402460311204" lon="13.437678656866572"><ele>675.0</ele><time>2026-05-03T06:28:19Z</time></trkpt><trkpt lat="42.34350779211045" lon="13.437525279712531"><ele>675.0</ele><time>2026-05-03T06:28:20Z</time></trkpt><trkpt lat="42.343603218383905" lon="13.43736347702661"><ele>675.0</ele><time>2026-05-03T06:28:21Z</time></trkpt><trkpt lat="42.343688037695635" lon="13.437195953894555"><ele>675.0</ele><time>2026-05-03T06:28:22Z</time></trkpt><trkpt lat="42.34376410408823" lon="13.437024769251709"><ele>674.0</ele><time>2026-05-03T06:28:23Z</time></trkpt><trkpt lat="42.343831512044325" lon="13.436851361391621"><ele>673.0</ele><time>2026-05-03T06:28:24Z</time></trkpt><trkpt lat="42.343888848584264" lon="13.43667174073944"><ele>672.0</ele><time>2026-05-03T06:28:25Z</time></trkpt><trkpt lat="42.34393626255655" lon="13.4364840665766"><ele>671.0</ele><time>2026-05-03T06:28:26Z</time></trkpt><trkpt lat="42.343975641312895" lon="13.436286381709301"><ele>679.6666666666666</ele><time>2026-05-03T06:28:27Z</time></trkpt><trkpt lat="42.34400465951908" lon="13.436085657888984"><ele>688.3333333333334</ele><time>2026-05-03T06:28:28Z</time></trkpt><trkpt lat="42.34402870025904" lon="13.435883320669378"><ele>697.0</ele><time>2026-05-03T06:28:29Z</time></trkpt><trkpt lat="42.34405400443966" lon="13.43568235384594"><ele>697.0</ele><time>2026-05-03T06:28:30Z</time></trkpt><trkpt lat="42.34407833424648" lon="13.435483329173499"><ele>697.0</ele><time>2026-05-03T06:28:31Z</time></trkpt><trkpt lat="42.34410072952201" lon="13.435286893668515"><ele>697.0</ele><time>2026-05-03T06:28:32Z</time></trkpt><trkpt lat="42.34412407341576" lon="13.435088060969003"><ele>697.0</ele><time>2026-05-03T06:28:33Z</time></trkpt><trkpt lat="42.3441499734655" lon="13.43488779565863"><ele>696.0</ele><time>2026-05-03T06:28:34Z</time></trkpt><trkpt lat="42.34418261766927" lon="13.434682912299966"><ele>695.0</ele><time>2026-05-03T06:28:35Z</time></trkpt><trkpt lat="42.34422627322988" lon="13.434471590636688"><ele>694.0</ele><time>2026-05-03T06:28:36Z</time></trkpt><trkpt lat="42.344282307507456" lon="13.434257884927932"><ele>693.3333333333334</ele><time>2026-05-03T06:28:37Z</time></trkpt><trkpt lat="42.344352056105535" lon="13.4340565773965"><ele>692.6666666666666</ele><time>2026-05-03T06:28:38Z</time></trkpt><trkpt lat="42.34442309224833" lon="13.433869815025423"><ele>692.0</ele><time>2026-05-03T06:28:39Z</time></trkpt><trkpt lat="42.344505371574435" lon="13.433697040922505"><ele>692.0</ele><time>2026-05-03T06:28:40Z</time></trkpt><trkpt lat="42.34459168204031" lon="13.433537772014589"><ele>692.0</ele><time>2026-05-03T06:28:41Z</time></trkpt><trkpt lat="42.34468473756523" lon="13.433385913046665"><ele>692.0</ele><time>2026-05-03T06:28:42Z</time></trkpt><trkpt lat="42.34478198611524" lon="13.43324363542171"><ele>692.0</ele><time>2026-05-03T06:28:43Z</time></trkpt><trkpt lat="42.344884913481295" lon="13.433112847122304"><ele>693.75</ele><time>2026-05-03T06:28:44Z</time></trkpt><trkpt lat="42.34499351484651" lon="13.432991599228142"><ele>695.5</ele><time>2026-05-03T06:28:45Z</time></trkpt><trkpt lat="42.34510800193863" lon="13.432877774458142"><ele>697.25</ele><time>2026-05-03T06:28:46Z</time></trkpt><trkpt lat="42.34523310676769" lon="13.432768645601806"><ele>699.0</ele><time>2026-05-03T06:28:47Z</time></trkpt><trkpt lat="42.345368719696424" lon="13.432674545435365"><ele>699.0</ele><time>2026-05-03T06:28:48Z</time></trkpt><trkpt lat="42.3455115186045" lon="13.432592772623357"><ele>699.0</ele><time>2026-05-03T06:28:49Z</time></trkpt><trkpt lat="42.34565525544148" lon="13.432518804838725"><ele>699.0</ele><time>2026-05-03T06:28:50Z</time></trkpt><trkpt lat="42.34579820907408" lon="13.432450486442631"><ele>702.0</ele><time>2026-05-03T06:28:51Z</time></trkpt><trkpt lat="42.34594393887886" lon="13.432382886353942"><ele>705.0</ele><time>2026-05-03T06:28:52Z</time></trkpt><trkpt lat="42.34608872602223" lon="13.432317877728392"><ele>708.0</ele><time>2026-05-03T06:28:53Z</time></trkpt><trkpt lat="42.34623035433107" lon="13.432255881982663"><ele>708.0</ele><time>2026-05-03T06:28:54Z</time></trkpt><trkpt lat="42.34637451713044" lon="13.432193856761547"><ele>708.0</ele><time>2026-05-03T06:28:55Z</time></trkpt><trkpt lat="42.34651748817816" lon="13.432129579959339"><ele>708.0</ele><time>2026-05-03T06:28:56Z</time></trkpt><trkpt lat="42.346659911039666" lon="13.432064934194813"><ele>706.6666666666666</ele><time>2026-05-03T06:28:57Z</time></trkpt><trkpt lat="42.34680224596544" lon="13.432002120302835"><ele>705.3333333333333</ele><time>2026-05-03T06:28:58Z</time></trkpt><trkpt lat="42.346943732002785" lon="13.43193893382456"><ele>704.0</ele><time>2026-05-03T06:28:59Z</time></trkpt><trkpt lat="42.34708678192944" lon="13.431874165306596"><ele>706.3333333333333</ele><time>2026-05-03T06:29:00Z</time></trkpt><trkpt lat="42.34723414432683" lon="13.43180606984416"><ele>708.6666666666666</ele><time>2026-05-03T06:29:01Z</time></trkpt><trkpt lat="42.34738478178964" lon="13.431738391810212"><ele>711.0</ele><time>2026-05-03T06:29:02Z</time></trkpt><trkpt lat="42.34753245993551" lon="13.431675994879495"><ele>711.0</ele><time>2026-05-03T06:29:03Z</time></trkpt><trkpt lat="42.34767887781909" lon="13.43161381211295"><ele>711.0</ele><time>2026-05-03T06:29:04Z</time></trkpt><trkpt lat="42.3478201330335" lon="13.43155119028837"><ele>711.0</ele><time>2026-05-03T06:29:05Z</time></trkpt><trkpt lat="42.347959991960266" lon="13.431487666851647"><ele>711.6666666666666</ele><time>2026-05-03T06:29:06Z</time></trkpt><trkpt lat="42.34810486445801" lon="13.431419971145788"><ele>712.3333333333333</ele><time>2026-05-03T06:29:07Z</time></trkpt><trkpt lat="42.348253552466396" lon="13.431353048377828"><ele>713.0</ele><time>2026-05-03T06:29:08.001Z</time></trkpt><trkpt lat="42.34839791465122" lon="13.431289781115975"><ele>713.0</ele><time>2026-05-03T06:29:09.001Z</time></trkpt><trkpt lat="42.34853976568957" lon="13.431227484924202"><ele>713.0</ele><time>2026-05-03T06:29:10.001Z</time></trkpt><trkpt lat="42.34867959856416" lon="13.431165036581937"><ele>713.0</ele><time>2026-05-03T06:29:11.001Z</time></trkpt><trkpt lat="42.34881887793332" lon="13.43110402696828"><ele>713.0</ele><time>2026-05-03T06:29:12.001Z</time></trkpt><trkpt lat="42.34895806567918" lon="13.43104348493107"><ele>715.0</ele><time>2026-05-03T06:29:13.001Z</time></trkpt><trkpt lat="42.34909727319583" lon="13.430979774341516"><ele>717.0</ele><time>2026-05-03T06:29:14.001Z</time></trkpt><trkpt lat="42.34923542415675" lon="13.430917086013801"><ele>719.0</ele><time>2026-05-03T06:29:15.001Z</time></trkpt><trkpt lat="42.34937429073955" lon="13.430849498859152"><ele>721.0</ele><time>2026-05-03T06:29:16.001Z</time></trkpt><trkpt lat="42.3495134349113" lon="13.430779949541337"><ele>721.0</ele><time>2026-05-03T06:29:17.001Z</time></trkpt><trkpt lat="42.349651298514786" lon="13.430701421637039"><ele>721.0</ele><time>2026-05-03T06:29:18.001Z</time></trkpt><trkpt lat="42.34978864788941" lon="13.430613269423258"><ele>721.0</ele><time>2026-05-03T06:29:19.001Z</time></trkpt><trkpt lat="42.349926109743706" lon="13.43051936554014"><ele>720.5</ele><time>2026-05-03T06:29:20.001Z</time></trkpt><trkpt lat="42.35006031305268" lon="13.430419068426902"><ele>720.0</ele><time>2026-05-03T06:29:21.001Z</time></trkpt><trkpt lat="42.350189513839354" lon="13.430317823372881"><ele>719.5</ele><time>2026-05-03T06:29:22.001Z</time></trkpt><trkpt lat="42.35031625942761" lon="13.430219249638393"><ele>719.0</ele><time>2026-05-03T06:29:23.001Z</time></trkpt><trkpt lat="42.350442979012016" lon="13.430123441862447"><ele>723.3333333333333</ele><time>2026-05-03T06:29:24.001Z</time></trkpt><trkpt lat="42.35057126582506" lon="13.430025185762767"><ele>727.6666666666666</ele><time>2026-05-03T06:29:25Z</time></trkpt><trkpt lat="42.350704399158715" lon="13.429922200183924"><ele>732.0</ele><time>2026-05-03T06:29:26Z</time></trkpt><trkpt lat="42.35084113062761" lon="13.429817970846134"><ele>732.0</ele><time>2026-05-03T06:29:27Z</time></trkpt><trkpt lat="42.35097528014864" lon="13.429714536398057"><ele>732.0</ele><time>2026-05-03T06:29:28Z</time></trkpt><trkpt lat="42.35111051967552" lon="13.42960926306695"><ele>732.0</ele><time>2026-05-03T06:29:29Z</time></trkpt><trkpt lat="42.35124690525862" lon="13.429502177395355"><ele>735.3333333333334</ele><time>2026-05-03T06:29:30Z</time></trkpt><trkpt lat="42.351380060802725" lon="13.429394963515504"><ele>738.6666666666667</ele><time>2026-05-03T06:29:31Z</time></trkpt><trkpt lat="42.3515099501871" lon="13.429288235948688"><ele>742.0</ele><time>2026-05-03T06:29:32Z</time></trkpt><trkpt lat="42.35163553807325" lon="13.429181822723441"><ele>742.0</ele><time>2026-05-03T06:29:33Z</time></trkpt><trkpt lat="42.35175545417586" lon="13.429072572677788"><ele>742.0</ele><time>2026-05-03T06:29:34Z</time></trkpt><trkpt lat="42.35186946451882" lon="13.428966735797335"><ele>742.0</ele><time>2026-05-03T06:29:35Z</time></trkpt><trkpt lat="42.3519859120746" lon="13.428859805005436"><ele>742.0</ele><time>2026-05-03T06:29:36Z</time></trkpt><trkpt lat="42.35210267048827" lon="13.42875090027414"><ele>742.0</ele><time>2026-05-03T06:29:37Z</time></trkpt><trkpt lat="42.352220994726046" lon="13.428635378906606"><ele>742.0</ele><time>2026-05-03T06:29:38Z</time></trkpt><trkpt lat="42.352350189578374" lon="13.428525382587322"><ele>742.0</ele><time>2026-05-03T06:29:39Z</time></trkpt><trkpt lat="42.35247844821957" lon="13.428407237656073"><ele>742.0</ele><time>2026-05-03T06:29:40Z</time></trkpt><trkpt lat="42.35259234690548" lon="13.428294814247192"><ele>742.0</ele><time>2026-05-03T06:29:41Z</time></trkpt><trkpt lat="42.35269814148913" lon="13.428184515380442"><ele>742.0</ele><time>2026-05-03T06:29:42Z</time></trkpt><trkpt lat="42.35280092354372" lon="13.428062029050565"><ele>742.0</ele><time>2026-05-03T06:29:43Z</time></trkpt><trkpt lat="42.35290477324783" lon="13.427922872983704"><ele>739.0</ele><time>2026-05-03T06:29:44Z</time></trkpt><trkpt lat="42.35301135373325" lon="13.42776291589456"><ele>736.0</ele><time>2026-05-03T06:29:45Z</time></trkpt><trkpt lat="42.35310981051808" lon="13.427588637449388"><ele>733.0</ele><time>2026-05-03T06:29:46Z</time></trkpt><trkpt lat="42.35319962083634" lon="13.427403472869994"><ele>731.3333333333334</ele><time>2026-05-03T06:29:47Z</time></trkpt><trkpt lat="42.35328461576631" lon="13.42721024111033"><ele>729.6666666666666</ele><time>2026-05-03T06:29:48Z</time></trkpt><trkpt lat="42.353360426992076" lon="13.427006082447237"><ele>728.0</ele><time>2026-05-03T06:29:49Z</time></trkpt><trkpt lat="42.353422914047634" lon="13.426797113171244"><ele>728.0</ele><time>2026-05-03T06:29:50Z</time></trkpt><trkpt lat="42.353474919814865" lon="13.426593618780913"><ele>728.0</ele><time>2026-05-03T06:29:51Z</time></trkpt><trkpt lat="42.3535157212519" lon="13.426397472465379"><ele>728.0</ele><time>2026-05-03T06:29:52Z</time></trkpt><trkpt lat="42.35354635784076" lon="13.426203754088615"><ele>728.75</ele><time>2026-05-03T06:29:53Z</time></trkpt><trkpt lat="42.353567642625684" lon="13.42601300456918"><ele>729.5</ele><time>2026-05-03T06:29:54Z</time></trkpt><trkpt lat="42.35358122213418" lon="13.425820533689485"><ele>730.25</ele><time>2026-05-03T06:29:55Z</time></trkpt><trkpt lat="42.35358566282487" lon="13.425624992088117"><ele>731.0</ele><time>2026-05-03T06:29:56Z</time></trkpt><trkpt lat="42.35358288252223" lon="13.425427968791519"><ele>731.75</ele><time>2026-05-03T06:29:57Z</time></trkpt><trkpt lat="42.35356943159203" lon="13.425233800245172"><ele>732.5</ele><time>2026-05-03T06:29:58Z</time></trkpt><trkpt lat="42.35355006496458" lon="13.425041103671761"><ele>733.25</ele><time>2026-05-03T06:29:59Z</time></trkpt><trkpt lat="42.35352131755373" lon="13.42484614226287"><ele>734.0</ele><time>2026-05-03T06:30:00Z</time></trkpt><trkpt lat="42.3534808190705" lon="13.424647286423346"><ele>736.0</ele><time>2026-05-03T06:30:01Z</time></trkpt><trkpt lat="42.353431212403734" lon="13.424447942579942"><ele>738.0</ele><time>2026-05-03T06:30:02Z</time></trkpt><trkpt lat="42.35337817409539" lon="13.424248146674032"><ele>740.0</ele><time>2026-05-03T06:30:03Z</time></trkpt><trkpt lat="42.3533248579305" lon="13.424044286693821"><ele>740.0</ele><time>2026-05-03T06:30:04Z</time></trkpt><trkpt lat="42.3532725702408" lon="13.4238453038693"><ele>740.0</ele><time>2026-05-03T06:30:05Z</time></trkpt><trkpt lat="42.35321855173576" lon="13.423649942673235"><ele>740.0</ele><time>2026-05-03T06:30:06Z</time></trkpt><trkpt lat="42.35316244262606" lon="13.423455329025687"><ele>739.0</ele><time>2026-05-03T06:30:07Z</time></trkpt><trkpt lat="42.35310664213701" lon="13.423261165659728"><ele>738.0</ele><time>2026-05-03T06:30:08Z</time></trkpt><trkpt lat="42.35305209129055" lon="13.423068117674978"><ele>737.0</ele><time>2026-05-03T06:30:09Z</time></trkpt><trkpt lat="42.35299693633983" lon="13.422879451390445"><ele>737.0</ele><time>2026-05-03T06:30:10Z</time></trkpt><trkpt lat="42.35294383399338" lon="13.42269609126154"><ele>737.0</ele><time>2026-05-03T06:30:11Z</time></trkpt><trkpt lat="42.35289457128871" lon="13.422515344417832"><ele>737.0</ele><time>2026-05-03T06:30:12Z</time></trkpt><trkpt lat="42.352847113315356" lon="13.422333441082108"><ele>737.0</ele><time>2026-05-03T06:30:13Z</time></trkpt><trkpt lat="42.35279987025164" lon="13.422159418399874"><ele>738.75</ele><time>2026-05-03T06:30:14Z</time></trkpt><trkpt lat="42.352750339586" lon="13.42198016960916"><ele>740.5</ele><time>2026-05-03T06:30:15Z</time></trkpt><trkpt lat="42.35270096831143" lon="13.421798053174395"><ele>742.25</ele><time>2026-05-03T06:30:16Z</time></trkpt><trkpt lat="42.35265534371735" lon="13.421618588926973"><ele>744.0</ele><time>2026-05-03T06:30:17Z</time></trkpt><trkpt lat="42.352616536256825" lon="13.421430053063116"><ele>743.25</ele><time>2026-05-03T06:30:18Z</time></trkpt><trkpt lat="42.352589860841626" lon="13.421238459454058"><ele>742.5</ele><time>2026-05-03T06:30:19Z</time></trkpt><trkpt lat="42.352580477433115" lon="13.421045999539766"><ele>741.75</ele><time>2026-05-03T06:30:20Z</time></trkpt><trkpt lat="42.352588920845555" lon="13.420855979207218"><ele>741.0</ele><time>2026-05-03T06:30:21Z</time></trkpt><trkpt lat="42.352602819595745" lon="13.42066988578001"><ele>741.0</ele><time>2026-05-03T06:30:22Z</time></trkpt><trkpt lat="42.35261756989625" lon="13.420487328702528"><ele>741.0</ele><time>2026-05-03T06:30:23Z</time></trkpt><trkpt lat="42.352612930407695" lon="13.420312915479588"><ele>741.0</ele><time>2026-05-03T06:30:24Z</time></trkpt><trkpt lat="42.352584773776286" lon="13.420140575629214"><ele>741.0</ele><time>2026-05-03T06:30:25Z</time></trkpt><trkpt lat="42.35253196911777" lon="13.419975023762744"><ele>741.0</ele><time>2026-05-03T06:30:26Z</time></trkpt><trkpt lat="42.352467004166584" lon="13.419819497165312"><ele>741.0</ele><time>2026-05-03T06:30:27Z</time></trkpt><trkpt lat="42.352399906575386" lon="13.419678637862209"><ele>741.0</ele><time>2026-05-03T06:30:28Z</time></trkpt><trkpt lat="42.35233843648487" lon="13.419543444631618"><ele>741.0</ele><time>2026-05-03T06:30:29Z</time></trkpt><trkpt lat="42.35229474351826" lon="13.419409519638297"><ele>741.0</ele><time>2026-05-03T06:30:30Z</time></trkpt><trkpt lat="42.35227512943453" lon="13.419272740429163"><ele>741.0</ele><time>2026-05-03T06:30:31Z</time></trkpt><trkpt lat="42.35227978970084" lon="13.419145380322442"><ele>741.0</ele><time>2026-05-03T06:30:32Z</time></trkpt><trkpt lat="42.35228928232313" lon="13.419036978496795"><ele>741.0</ele><time>2026-05-03T06:30:33Z</time></trkpt><trkpt lat="42.352284849269644" lon="13.418943890498362"><ele>741.0</ele><time>2026-05-03T06:30:34Z</time></trkpt><trkpt lat="42.35222693961718" lon="13.418802448701209"><ele>738.8</ele><time>2026-05-03T06:30:36Z</time></trkpt><trkpt lat="42.352108661633494" lon="13.418729669916747"><ele>736.5999999999999</ele><time>2026-05-03T06:30:38Z</time></trkpt><trkpt lat="42.352039581794365" lon="13.418744518677912"><ele>734.4</ele><time>2026-05-03T06:30:39Z</time></trkpt><trkpt lat="42.35197157809866" lon="13.418649783868002"><ele>732.2</ele><time>2026-05-03T06:30:40Z</time></trkpt><trkpt lat="42.35190023764731" lon="13.418583505693737"><ele>730.0</ele><time>2026-05-03T06:30:41Z</time></trkpt><trkpt lat="42.35182768560528" lon="13.418502912202555"><ele>730.0</ele><time>2026-05-03T06:30:42Z</time></trkpt><trkpt lat="42.35176868760254" lon="13.418398474320005"><ele>730.0</ele><time>2026-05-03T06:30:43Z</time></trkpt><trkpt lat="42.3517296528494" lon="13.418272934529844"><ele>730.0</ele><time>2026-05-03T06:30:44Z</time></trkpt><trkpt lat="42.35171364483252" lon="13.41814823076845"><ele>730.0</ele><time>2026-05-03T06:30:45Z</time></trkpt><trkpt lat="42.35170918796006" lon="13.418029406297663"><ele>730.0</ele><time>2026-05-03T06:30:46Z</time></trkpt><trkpt lat="42.35170935605697" lon="13.417918250219609"><ele>730.0</ele><time>2026-05-03T06:30:47Z</time></trkpt><trkpt lat="42.35171167895547" lon="13.417805700290545"><ele>730.0</ele><time>2026-05-03T06:30:48Z</time></trkpt><trkpt lat="42.35171221440761" lon="13.417682961862202"><ele>730.0</ele><time>2026-05-03T06:30:49Z</time></trkpt><trkpt lat="42.35171461040512" lon="13.417545674235845"><ele>730.0</ele><time>2026-05-03T06:30:50Z</time></trkpt><trkpt lat="42.351719901844135" lon="13.417392595825534"><ele>730.0</ele><time>2026-05-03T06:30:51Z</time></trkpt><trkpt lat="42.35172453029935" lon="13.417222664835851"><ele>729.25</ele><time>2026-05-03T06:30:52Z</time></trkpt><trkpt lat="42.35172937474987" lon="13.417041389456454"><ele>728.5</ele><time>2026-05-03T06:30:53Z</time></trkpt><trkpt lat="42.351737162271114" lon="13.41687065610318"><ele>727.75</ele><time>2026-05-03T06:30:54Z</time></trkpt><trkpt lat="42.351747541998684" lon="13.41671088283658"><ele>727.0</ele><time>2026-05-03T06:30:55Z</time></trkpt><trkpt lat="42.35176566108153" lon="13.416561616146527"><ele>727.0</ele><time>2026-05-03T06:30:56Z</time></trkpt><trkpt lat="42.35179413778695" lon="13.416422205882348"><ele>727.0</ele><time>2026-05-03T06:30:57Z</time></trkpt><trkpt lat="42.35183314978727" lon="13.416277567871063"><ele>727.0</ele><time>2026-05-03T06:30:58Z</time></trkpt><trkpt lat="42.35188602009923" lon="13.416123969897711"><ele>727.0</ele><time>2026-05-03T06:30:59Z</time></trkpt><trkpt lat="42.351952039837705" lon="13.415976319606877"><ele>726.25</ele><time>2026-05-03T06:31:00Z</time></trkpt><trkpt lat="42.352028970673345" lon="13.415835573374924"><ele>725.5</ele><time>2026-05-03T06:31:01Z</time></trkpt><trkpt lat="42.35211206097716" lon="13.415698044955125"><ele>724.75</ele><time>2026-05-03T06:31:02Z</time></trkpt><trkpt lat="42.352192223241964" lon="13.4155544609308"><ele>724.0</ele><time>2026-05-03T06:31:03Z</time></trkpt><trkpt lat="42.35226609819479" lon="13.415409862200725"><ele>723.25</ele><time>2026-05-03T06:31:04Z</time></trkpt><trkpt lat="42.35233403131259" lon="13.415266780140339"><ele>722.5</ele><time>2026-05-03T06:31:05Z</time></trkpt><trkpt lat="42.35239379701707" lon="13.415129249571278"><ele>721.75</ele><time>2026-05-03T06:31:06Z</time></trkpt><trkpt lat="42.352442460594624" lon="13.414996330344195"><ele>721.0</ele><time>2026-05-03T06:31:07Z</time></trkpt><trkpt lat="42.35247472757025" lon="13.414872497275642"><ele>721.0</ele><time>2026-05-03T06:31:08Z</time></trkpt><trkpt lat="42.352501999018486" lon="13.414729462932657"><ele>721.0</ele><time>2026-05-03T06:31:09Z</time></trkpt><trkpt lat="42.352520957526856" lon="13.41455140301083"><ele>721.0</ele><time>2026-05-03T06:31:10Z</time></trkpt><trkpt lat="42.35252759500817" lon="13.414356617954372"><ele>721.0</ele><time>2026-05-03T06:31:11Z</time></trkpt><trkpt lat="42.35251823880014" lon="13.414157500132163"><ele>720.75</ele><time>2026-05-03T06:31:12Z</time></trkpt><trkpt lat="42.35249247555905" lon="13.413975906878461"><ele>720.5</ele><time>2026-05-03T06:31:13Z</time></trkpt><trkpt lat="42.35246327262471" lon="13.413813995580442"><ele>720.25</ele><time>2026-05-03T06:31:14Z</time></trkpt><trkpt lat="42.35242790557067" lon="13.413653858594467"><ele>720.0</ele><time>2026-05-03T06:31:15Z</time></trkpt><trkpt lat="42.35237451741609" lon="13.413493066984417"><ele>719.25</ele><time>2026-05-03T06:31:16Z</time></trkpt><trkpt lat="42.35230616429144" lon="13.4133424067985"><ele>718.5</ele><time>2026-05-03T06:31:17Z</time></trkpt><trkpt lat="42.35223496656453" lon="13.413204250917259"><ele>717.75</ele><time>2026-05-03T06:31:18Z</time></trkpt><trkpt lat="42.35217574709101" lon="13.413071501768075"><ele>717.0</ele><time>2026-05-03T06:31:19Z</time></trkpt><trkpt lat="42.352131094669225" lon="13.412937749461861"><ele>716.6</ele><time>2026-05-03T06:31:20Z</time></trkpt><trkpt lat="42.35210141084464" lon="13.41280659943659"><ele>716.2</ele><time>2026-05-03T06:31:21Z</time></trkpt><trkpt lat="42.35209458413759" lon="13.41266404981496"><ele>715.8</ele><time>2026-05-03T06:31:22Z</time></trkpt><trkpt lat="42.35209742837002" lon="13.412522652883817"><ele>715.4</ele><time>2026-05-03T06:31:23Z</time></trkpt><trkpt lat="42.35211294968061" lon="13.412386883069912"><ele>715.0</ele><time>2026-05-03T06:31:24Z</time></trkpt><trkpt lat="42.35214768773554" lon="13.412256887823583"><ele>715.2</ele><time>2026-05-03T06:31:25Z</time></trkpt><trkpt lat="42.35219709634288" lon="13.412132338167554"><ele>715.4</ele><time>2026-05-03T06:31:26Z</time></trkpt><trkpt lat="42.3522634769683" lon="13.412015655430036"><ele>715.5999999999999</ele><time>2026-05-03T06:31:27Z</time></trkpt><trkpt lat="42.35233411902819" lon="13.411905688237209"><ele>715.8</ele><time>2026-05-03T06:31:28Z</time></trkpt><trkpt lat="42.352409349811474" lon="13.411795909406383"><ele>716.0</ele><time>2026-05-03T06:31:29Z</time></trkpt><trkpt lat="42.35248067761292" lon="13.411692725518408"><ele>716.0</ele><time>2026-05-03T06:31:30Z</time></trkpt><trkpt lat="42.35255146887643" lon="13.411591187487767"><ele>716.0</ele><time>2026-05-03T06:31:31Z</time></trkpt><trkpt lat="42.35262209479443" lon="13.411495353493304"><ele>716.0</ele><time>2026-05-03T06:31:32Z</time></trkpt><trkpt lat="42.35268290359166" lon="13.411403920239602"><ele>716.0</ele><time>2026-05-03T06:31:33Z</time></trkpt><trkpt lat="42.3527456770591" lon="13.411322080345569"><ele>716.0</ele><time>2026-05-03T06:31:34Z</time></trkpt><trkpt lat="42.352808347065626" lon="13.411228916951815"><ele>716.0</ele><time>2026-05-03T06:31:35Z</time></trkpt><trkpt lat="42.35287479214304" lon="13.411133723867444"><ele>716.0</ele><time>2026-05-03T06:31:36Z</time></trkpt><trkpt lat="42.352942761381904" lon="13.411030643313396"><ele>716.0</ele><time>2026-05-03T06:31:37Z</time></trkpt><trkpt lat="42.35301300215265" lon="13.410927631066784"><ele>716.0</ele><time>2026-05-03T06:31:38Z</time></trkpt><trkpt lat="42.35308723205164" lon="13.410822096531827"><ele>716.0</ele><time>2026-05-03T06:31:39Z</time></trkpt><trkpt lat="42.35315998377556" lon="13.410712561264017"><ele>716.0</ele><time>2026-05-03T06:31:40Z</time></trkpt><trkpt lat="42.35323294020667" lon="13.410606729212626"><ele>716.0</ele><time>2026-05-03T06:31:41Z</time></trkpt><trkpt lat="42.353304534114905" lon="13.410502098082949"><ele>716.0</ele><time>2026-05-03T06:31:42Z</time></trkpt><trkpt lat="42.35337594599878" lon="13.410400530775117"><ele>716.0</ele><time>2026-05-03T06:31:43Z</time></trkpt><trkpt lat="42.35344650851916" lon="13.410296342750271"><ele>716.0</ele><time>2026-05-03T06:31:44Z</time></trkpt><trkpt lat="42.35351553263837" lon="13.410196764747113"><ele>715.4</ele><time>2026-05-03T06:31:45Z</time></trkpt><trkpt lat="42.353581545214865" lon="13.410097990142484"><ele>714.8</ele><time>2026-05-03T06:31:46Z</time></trkpt><trkpt lat="42.35364529512132" lon="13.409999741858014"><ele>714.1999999999999</ele><time>2026-05-03T06:31:47Z</time></trkpt><trkpt lat="42.3537085786698" lon="13.409903754773579"><ele>713.5999999999999</ele><time>2026-05-03T06:31:48Z</time></trkpt><trkpt lat="42.35377143456637" lon="13.409812397169038"><ele>713.0</ele><time>2026-05-03T06:31:49Z</time></trkpt><trkpt lat="42.35383011960157" lon="13.409724298187355"><ele>713.2</ele><time>2026-05-03T06:31:50Z</time></trkpt><trkpt lat="42.3538938907813" lon="13.409634803148293"><ele>713.4</ele><time>2026-05-03T06:31:51Z</time></trkpt><trkpt lat="42.35396457981172" lon="13.409540617697202"><ele>713.6</ele><time>2026-05-03T06:31:52Z</time></trkpt><trkpt lat="42.35403794476586" lon="13.409436258855763"><ele>713.8000000000001</ele><time>2026-05-03T06:31:53Z</time></trkpt><trkpt lat="42.354107181649944" lon="13.409333975014889"><ele>714.0</ele><time>2026-05-03T06:31:54Z</time></trkpt><trkpt lat="42.35417626726815" lon="13.40923242748452"><ele>714.0</ele><time>2026-05-03T06:31:55Z</time></trkpt><trkpt lat="42.35424542527361" lon="13.409132779251959"><ele>714.0</ele><time>2026-05-03T06:31:56Z</time></trkpt><trkpt lat="42.3543118402297" lon="13.409038376955989"><ele>714.0</ele><time>2026-05-03T06:31:57Z</time></trkpt><trkpt lat="42.354379862156435" lon="13.40894030079535"><ele>714.0</ele><time>2026-05-03T06:31:58Z</time></trkpt><trkpt lat="42.3544456834579" lon="13.408835267336778"><ele>714.0</ele><time>2026-05-03T06:31:59Z</time></trkpt><trkpt lat="42.35450840554015" lon="13.408728634106527"><ele>713.4000000000001</ele><time>2026-05-03T06:32:00Z</time></trkpt><trkpt lat="42.3545691489878" lon="13.4086185902074"><ele>712.8</ele><time>2026-05-03T06:32:01Z</time></trkpt><trkpt lat="42.354627452158645" lon="13.408502066133684"><ele>712.2</ele><time>2026-05-03T06:32:02Z</time></trkpt><trkpt lat="42.354687925226415" lon="13.408382389995836"><ele>711.5999999999999</ele><time>2026-05-03T06:32:03Z</time></trkpt><trkpt lat="42.354747194808375" lon="13.408262509824056"><ele>711.0</ele><time>2026-05-03T06:32:04Z</time></trkpt><trkpt lat="42.35480604509613" lon="13.408138137843707"><ele>711.0</ele><time>2026-05-03T06:32:05Z</time></trkpt><trkpt lat="42.35486742526455" lon="13.40800980850492"><ele>711.0</ele><time>2026-05-03T06:32:06Z</time></trkpt><trkpt lat="42.35492790392355" lon="13.407882760625444"><ele>711.0</ele><time>2026-05-03T06:32:07Z</time></trkpt><trkpt lat="42.354984388439966" lon="13.407759922768479"><ele>711.0</ele><time>2026-05-03T06:32:08Z</time></trkpt><trkpt lat="42.35503808396414" lon="13.407645969129886"><ele>711.0</ele><time>2026-05-03T06:32:09Z</time></trkpt><trkpt lat="42.35509031638293" lon="13.407544059293132"><ele>711.1666666666666</ele><time>2026-05-03T06:32:10Z</time></trkpt><trkpt lat="42.35513783288087" lon="13.407453661922201"><ele>711.3333333333334</ele><time>2026-05-03T06:32:11Z</time></trkpt><trkpt lat="42.35519030038932" lon="13.40738394165759"><ele>711.5</ele><time>2026-05-03T06:32:12Z</time></trkpt><trkpt lat="42.35523884683134" lon="13.407317426040455"><ele>711.6666666666667</ele><time>2026-05-03T06:32:13Z</time></trkpt><trkpt lat="42.355309799868365" lon="13.407286484587367"><ele>711.8333333333334</ele><time>2026-05-03T06:32:14Z</time></trkpt><trkpt lat="42.35538498126212" lon="13.40726583148176"><ele>712.0</ele><time>2026-05-03T06:32:15Z</time></trkpt><trkpt lat="42.35546239652871" lon="13.407310030814317"><ele>712.0</ele><time>2026-05-03T06:32:16Z</time></trkpt><trkpt lat="42.35552757223458" lon="13.407262850189728"><ele>712.0</ele><time>2026-05-03T06:32:17Z</time></trkpt><trkpt lat="42.35557414974362" lon="13.407172900958473"><ele>712.0</ele><time>2026-05-03T06:32:18Z</time></trkpt><trkpt lat="42.35559304804414" lon="13.407065283699515"><ele>712.0</ele><time>2026-05-03T06:32:19Z</time></trkpt><trkpt lat="42.35559150713314" lon="13.40695156196703"><ele>712.0</ele><time>2026-05-03T06:32:20Z</time></trkpt><trkpt lat="42.35561510902969" lon="13.4068418982506"><ele>712.0</ele><time>2026-05-03T06:32:21Z</time></trkpt><trkpt lat="42.355659708568425" lon="13.406744084334818"><ele>712.0</ele><time>2026-05-03T06:32:22Z</time></trkpt><trkpt lat="42.355705476275254" lon="13.406669005258538"><ele>712.0</ele><time>2026-05-03T06:32:23Z</time></trkpt><trkpt lat="42.355781215406466" lon="13.40654023796466"><ele>712.0</ele><time>2026-05-03T06:32:25Z</time></trkpt><trkpt lat="42.355830445365015" lon="13.40641876910295"><ele>712.0</ele><time>2026-05-03T06:32:27Z</time></trkpt><trkpt lat="42.35586216963466" lon="13.406328100517449"><ele>712.0</ele><time>2026-05-03T06:32:29Z</time></trkpt><trkpt lat="42.355896755707164" lon="13.406247311188505"><ele>712.0</ele><time>2026-05-03T06:32:31Z</time></trkpt><trkpt lat="42.35593827946497" lon="13.406119352305275"><ele>711.9999999999999</ele><time>2026-05-03T06:32:33Z</time></trkpt><trkpt lat="42.355985696359696" lon="13.406049503367592"><ele>712.0</ele><time>2026-05-03T06:32:34Z</time></trkpt><trkpt lat="42.35600361412304" lon="13.40596603515353"><ele>712.0</ele><time>2026-05-03T06:32:35Z</time></trkpt><trkpt lat="42.35600174837389" lon="13.40587616459941"><ele>712.0</ele><time>2026-05-03T06:32:36Z</time></trkpt><trkpt lat="42.355987144508376" lon="13.40577829661237"><ele>712.0</ele><time>2026-05-03T06:32:37Z</time></trkpt><trkpt lat="42.355917698435114" lon="13.405703970530846"><ele>711.9999999999999</ele><time>2026-05-03T06:32:38Z</time></trkpt><trkpt lat="42.35586146216964" lon="13.405637542392693"><ele>712.0</ele><time>2026-05-03T06:32:39Z</time></trkpt><trkpt lat="42.35581237928666" lon="13.405573118204751"><ele>712.0</ele><time>2026-05-03T06:32:40Z</time></trkpt><trkpt lat="42.35577120412011" lon="13.405499762904364"><ele>712.0</ele><time>2026-05-03T06:32:41Z</time></trkpt><trkpt lat="42.355737637017896" lon="13.405419061735872"><ele>712.0</ele><time>2026-05-03T06:32:42Z</time></trkpt><trkpt lat="42.35571861178148" lon="13.405277802728577"><ele>712.0</ele><time>2026-05-03T06:32:44Z</time></trkpt><trkpt lat="42.35569242810236" lon="13.405160451422082"><ele>712.0</ele><time>2026-05-03T06:32:46Z</time></trkpt><trkpt lat="42.355666322806805" lon="13.405043451566394"><ele>712.0</ele><time>2026-05-03T06:32:48Z</time></trkpt><trkpt lat="42.355647822945656" lon="13.404960538129203"><ele>711.8333333333334</ele><time>2026-05-03T06:32:50Z</time></trkpt><trkpt lat="42.35555748110463" lon="13.405115756151474"><ele>711.6666666666667</ele><time>2026-05-03T06:32:55Z</time></trkpt><trkpt lat="42.35561453324423" lon="13.405165758543795"><ele>711.5</ele><time>2026-05-03T06:32:58Z</time></trkpt><trkpt lat="42.355650581290305" lon="13.40524081571018"><ele>711.3333333333334</ele><time>2026-05-03T06:38:38Z</time></trkpt><trkpt lat="42.355703154061956" lon="13.405190438281625"><ele>711.1666666666666</ele><time>2026-05-03T06:38:43Z</time></trkpt><trkpt lat="42.35571301494873" lon="13.405091326816384"><ele>711.0</ele><time>2026-05-03T06:38:46Z</time></trkpt><trkpt lat="42.35563399488386" lon="13.405079133095782"><ele>711.0</ele><time>2026-05-03T06:39:17Z</time></trkpt><trkpt lat="42.35563267740726" lon="13.40522986481535"><ele>711.0</ele><time>2026-05-03T06:39:19Z</time></trkpt><trkpt lat="42.35567160225804" lon="13.405339546666191"><ele>711.0</ele><time>2026-05-03T06:39:20Z</time></trkpt><trkpt lat="42.355697117185706" lon="13.405460161598683"><ele>711.0</ele><time>2026-05-03T06:39:21Z</time></trkpt><trkpt lat="42.35571878356902" lon="13.405587265188636"><ele>711.0</ele><time>2026-05-03T06:39:22Z</time></trkpt><trkpt lat="42.35572797096579" lon="13.40570793913246"><ele>711.1666666666666</ele><time>2026-05-03T06:39:23Z</time></trkpt><trkpt lat="42.355735110454795" lon="13.405827563370416"><ele>711.3333333333334</ele><time>2026-05-03T06:39:24Z</time></trkpt><trkpt lat="42.35571840853356" lon="13.405923477816"><ele>711.5</ele><time>2026-05-03T06:39:25Z</time></trkpt><trkpt lat="42.35570244182116" lon="13.406015168839886"><ele>711.6666666666667</ele><time>2026-05-03T06:39:26Z</time></trkpt><trkpt lat="42.35558350907896" lon="13.406063654426346"><ele>711.8333333333334</ele><time>2026-05-03T06:39:27Z</time></trkpt><trkpt lat="42.35550220606298" lon="13.406124320966047"><ele>712.0</ele><time>2026-05-03T06:39:28Z</time></trkpt><trkpt lat="42.355419850673" lon="13.406202760606948"><ele>713.0</ele><time>2026-05-03T06:39:29Z</time></trkpt><trkpt lat="42.355346072385856" lon="13.406282909813374"><ele>714.0</ele><time>2026-05-03T06:39:30Z</time></trkpt><trkpt lat="42.3552613846734" lon="13.40634547045127"><ele>715.0</ele><time>2026-05-03T06:39:31Z</time></trkpt><trkpt lat="42.35517317055858" lon="13.40640691341357"><ele>716.0</ele><time>2026-05-03T06:39:32Z</time></trkpt><trkpt lat="42.3550866532662" lon="13.40645629687511"><ele>717.0</ele><time>2026-05-03T06:39:33Z</time></trkpt><trkpt lat="42.35500171960262" lon="13.406498005002724"><ele>717.0</ele><time>2026-05-03T06:39:34Z</time></trkpt><trkpt lat="42.35491520531279" lon="13.406535027516965"><ele>717.0</ele><time>2026-05-03T06:39:35Z</time></trkpt><trkpt lat="42.354824430836786" lon="13.406571837481946"><ele>717.0</ele><time>2026-05-03T06:39:36Z</time></trkpt><trkpt lat="42.35473448682966" lon="13.406610038053199"><ele>717.0</ele><time>2026-05-03T06:39:37Z</time></trkpt><trkpt lat="42.35464602777918" lon="13.406644459147376"><ele>717.0</ele><time>2026-05-03T06:39:38Z</time></trkpt><trkpt lat="42.354558011515586" lon="13.406676454437225"><ele>718.8</ele><time>2026-05-03T06:39:39Z</time></trkpt><trkpt lat="42.354467016315965" lon="13.406710977891235"><ele>720.6</ele><time>2026-05-03T06:39:40Z</time></trkpt><trkpt lat="42.35437488585248" lon="13.40674625311539"><ele>722.4</ele><time>2026-05-03T06:39:41Z</time></trkpt><trkpt lat="42.35428471903206" lon="13.406774081614167"><ele>724.1999999999999</ele><time>2026-05-03T06:39:42Z</time></trkpt><trkpt lat="42.354197363184134" lon="13.406794181411346"><ele>726.0</ele><time>2026-05-03T06:39:43Z</time></trkpt><trkpt lat="42.354111317420475" lon="13.406793665350445"><ele>726.0</ele><time>2026-05-03T06:39:44Z</time></trkpt><trkpt lat="42.35403170872459" lon="13.406770510025341"><ele>726.0</ele><time>2026-05-03T06:39:45Z</time></trkpt><trkpt lat="42.35395333332679" lon="13.406720114357261"><ele>726.0</ele><time>2026-05-03T06:39:46Z</time></trkpt><trkpt lat="42.35387583499788" lon="13.406633923311793"><ele>726.0</ele><time>2026-05-03T06:39:47Z</time></trkpt><trkpt lat="42.35378788867789" lon="13.406535140206511"><ele>726.0</ele><time>2026-05-03T06:39:48Z</time></trkpt><trkpt lat="42.35369186966656" lon="13.406439261308016"><ele>727.0</ele><time>2026-05-03T06:39:49Z</time></trkpt><trkpt lat="42.35359631985666" lon="13.406353208225587"><ele>728.0</ele><time>2026-05-03T06:39:50Z</time></trkpt><trkpt lat="42.353503043155136" lon="13.406271870925705"><ele>729.0</ele><time>2026-05-03T06:39:51Z</time></trkpt><trkpt lat="42.35341006756658" lon="13.40619861615572"><ele>730.0</ele><time>2026-05-03T06:39:52Z</time></trkpt><trkpt lat="42.353317052282435" lon="13.406133303007586"><ele>731.0</ele><time>2026-05-03T06:39:53Z</time></trkpt><trkpt lat="42.35322614624903" lon="13.406066564926245"><ele>731.0</ele><time>2026-05-03T06:39:54Z</time></trkpt><trkpt lat="42.35313593685207" lon="13.406002247172909"><ele>731.0</ele><time>2026-05-03T06:39:55Z</time></trkpt><trkpt lat="42.35304702545325" lon="13.405942582165789"><ele>731.0</ele><time>2026-05-03T06:39:56Z</time></trkpt><trkpt lat="42.35296074654043" lon="13.405879429907255"><ele>731.0</ele><time>2026-05-03T06:39:57Z</time></trkpt><trkpt lat="42.352876029095746" lon="13.405812794041935"><ele>731.0</ele><time>2026-05-03T06:39:58Z</time></trkpt><trkpt lat="42.35279570127501" lon="13.405743407695905"><ele>731.8</ele><time>2026-05-03T06:39:59Z</time></trkpt><trkpt lat="42.35271408675434" lon="13.40566430056397"><ele>732.5999999999999</ele><time>2026-05-03T06:40:00Z</time></trkpt><trkpt lat="42.352633404213876" lon="13.405578008487911"><ele>733.4</ele><time>2026-05-03T06:40:01Z</time></trkpt><trkpt lat="42.352553560808005" lon="13.405491137308461"><ele>734.2</ele><time>2026-05-03T06:40:02Z</time></trkpt><trkpt lat="42.35247695356294" lon="13.405401899191286"><ele>735.0</ele><time>2026-05-03T06:40:03Z</time></trkpt><trkpt lat="42.352405736327455" lon="13.405307907105568"><ele>735.0</ele><time>2026-05-03T06:40:04Z</time></trkpt><trkpt lat="42.35234117597617" lon="13.405210337909788"><ele>735.0</ele><time>2026-05-03T06:40:05Z</time></trkpt><trkpt lat="42.35228564976833" lon="13.405110494771298"><ele>735.0</ele><time>2026-05-03T06:40:06Z</time></trkpt><trkpt lat="42.35224292220846" lon="13.405010353214653"><ele>735.0</ele><time>2026-05-03T06:40:07Z</time></trkpt><trkpt lat="42.35220724283047" lon="13.404914105462943"><ele>735.0</ele><time>2026-05-03T06:40:08Z</time></trkpt><trkpt lat="42.35217567504307" lon="13.404818220799985"><ele>735.0</ele><time>2026-05-03T06:40:09Z</time></trkpt><trkpt lat="42.3521461081806" lon="13.40472722760898"><ele>734.3333333333334</ele><time>2026-05-03T06:40:10Z</time></trkpt><trkpt lat="42.35211991026341" lon="13.404631994489906"><ele>733.6666666666666</ele><time>2026-05-03T06:40:11Z</time></trkpt><trkpt lat="42.35210136244825" lon="13.404532945853916"><ele>733.0</ele><time>2026-05-03T06:40:12Z</time></trkpt><trkpt lat="42.35209499057994" lon="13.404431029782586"><ele>732.3333333333333</ele><time>2026-05-03T06:40:13Z</time></trkpt><trkpt lat="42.3520997275678" lon="13.404328262912397"><ele>731.6666666666666</ele><time>2026-05-03T06:40:14Z</time></trkpt><trkpt lat="42.35211211432615" lon="13.404227248989752"><ele>731.0</ele><time>2026-05-03T06:40:15Z</time></trkpt><trkpt lat="42.352126915525425" lon="13.404128836901585"><ele>731.0</ele><time>2026-05-03T06:40:16Z</time></trkpt><trkpt lat="42.35214762973189" lon="13.404035970300585"><ele>731.0</ele><time>2026-05-03T06:40:17Z</time></trkpt><trkpt lat="42.35217432899793" lon="13.403937372766093"><ele>731.0</ele><time>2026-05-03T06:40:18Z</time></trkpt><trkpt lat="42.35219827403192" lon="13.403838873151013"><ele>731.0</ele><time>2026-05-03T06:40:19Z</time></trkpt><trkpt lat="42.352221166586816" lon="13.403739895475987"><ele>731.0</ele><time>2026-05-03T06:40:20Z</time></trkpt><trkpt lat="42.352243656465134" lon="13.403641618438298"><ele>731.0</ele><time>2026-05-03T06:40:21Z</time></trkpt><trkpt lat="42.352267304702615" lon="13.403543014708237"><ele>732.0</ele><time>2026-05-03T06:40:22Z</time></trkpt><trkpt lat="42.352293447792846" lon="13.403446591288418"><ele>733.0</ele><time>2026-05-03T06:40:23Z</time></trkpt><trkpt lat="42.35232064914159" lon="13.40334920067738"><ele>734.0</ele><time>2026-05-03T06:40:24Z</time></trkpt><trkpt lat="42.35234865484343" lon="13.403253131138134"><ele>735.0</ele><time>2026-05-03T06:40:25Z</time></trkpt><trkpt lat="42.352376242130575" lon="13.403160777861826"><ele>736.0</ele><time>2026-05-03T06:40:26Z</time></trkpt><trkpt lat="42.35240270111664" lon="13.403064100113177"><ele>737.0</ele><time>2026-05-03T06:40:27Z</time></trkpt><trkpt lat="42.352431904811965" lon="13.402972059491567"><ele>737.0000000000001</ele><time>2026-05-03T06:40:28Z</time></trkpt><trkpt lat="42.35245249072653" lon="13.402873174212933"><ele>737.0</ele><time>2026-05-03T06:40:29Z</time></trkpt><trkpt lat="42.35246754759233" lon="13.402774613724802"><ele>737.0</ele><time>2026-05-03T06:40:30Z</time></trkpt><trkpt lat="42.352492894951425" lon="13.40268030772473"><ele>737.0</ele><time>2026-05-03T06:40:31Z</time></trkpt><trkpt lat="42.35252236670422" lon="13.402584954079334"><ele>737.0</ele><time>2026-05-03T06:40:32Z</time></trkpt><trkpt lat="42.35254973898282" lon="13.402502283192764"><ele>737.0000000000001</ele><time>2026-05-03T06:40:33Z</time></trkpt><trkpt lat="42.352568502732986" lon="13.402414543765703"><ele>737.0</ele><time>2026-05-03T06:40:34Z</time></trkpt><trkpt lat="42.35259056733725" lon="13.40232331570554"><ele>737.0</ele><time>2026-05-03T06:40:35Z</time></trkpt><trkpt lat="42.35261931244988" lon="13.402229926785125"><ele>737.0</ele><time>2026-05-03T06:40:36Z</time></trkpt><trkpt lat="42.35264607165483" lon="13.40213801205749"><ele>737.0</ele><time>2026-05-03T06:40:37Z</time></trkpt><trkpt lat="42.352673885073266" lon="13.402044612538866"><ele>737.0</ele><time>2026-05-03T06:40:38Z</time></trkpt><trkpt lat="42.35270339216549" lon="13.401952442177715"><ele>737.0</ele><time>2026-05-03T06:40:39Z</time></trkpt><trkpt lat="42.35273348038162" lon="13.401874004591669"><ele>737.0</ele><time>2026-05-03T06:40:40Z</time></trkpt><trkpt lat="42.35277083422146" lon="13.401751966391977"><ele>736.8</ele><time>2026-05-03T06:40:42Z</time></trkpt><trkpt lat="42.352921924023846" lon="13.40178367666812"><ele>736.6</ele><time>2026-05-03T06:40:44Z</time></trkpt><trkpt lat="42.3529819030041" lon="13.401821756125257"><ele>736.4</ele><time>2026-05-03T06:40:45Z</time></trkpt><trkpt lat="42.35305000868362" lon="13.401858175790098"><ele>736.1999999999999</ele><time>2026-05-03T06:40:46Z</time></trkpt><trkpt lat="42.35312730336144" lon="13.401889578266445"><ele>736.0</ele><time>2026-05-03T06:40:47Z</time></trkpt><trkpt lat="42.35320885771352" lon="13.401921768221548"><ele>735.6666666666667</ele><time>2026-05-03T06:40:48Z</time></trkpt><trkpt lat="42.35328076524774" lon="13.40195263855275"><ele>735.3333333333334</ele><time>2026-05-03T06:40:49Z</time></trkpt><trkpt lat="42.3533496921906" lon="13.401964684254077"><ele>735.0</ele><time>2026-05-03T06:40:50Z</time></trkpt><trkpt lat="42.353420907223516" lon="13.401954199266424"><ele>734.6666666666666</ele><time>2026-05-03T06:40:51Z</time></trkpt><trkpt lat="42.353484346573474" lon="13.401923852342774"><ele>734.3333333333333</ele><time>2026-05-03T06:40:52Z</time></trkpt><trkpt lat="42.35357878130238" lon="13.401873742019964"><ele>734.0</ele><time>2026-05-03T06:40:54Z</time></trkpt><trkpt lat="42.35364077443531" lon="13.40182823491896"><ele>734.0</ele><time>2026-05-03T06:40:56Z</time></trkpt><trkpt lat="42.353726379435926" lon="13.40199979754173"><ele>734.0</ele><time>2026-05-03T06:41:00Z</time></trkpt><trkpt lat="42.35372967328598" lon="13.40213142922177"><ele>734.0</ele><time>2026-05-03T06:41:02Z</time></trkpt><trkpt lat="42.35370832944078" lon="13.40223047526931"><ele>734.0</ele><time>2026-05-03T06:41:04Z</time></trkpt><trkpt lat="42.353754508213584" lon="13.402305129866123"><ele>734.0</ele><time>2026-05-03T06:41:08Z</time></trkpt><trkpt lat="42.353826379785474" lon="13.402211105598026"><ele>734.1428571428571</ele><time>2026-05-03T06:41:12Z</time></trkpt><trkpt lat="42.35389988543628" lon="13.40218570276138"><ele>734.2857142857143</ele><time>2026-05-03T06:41:15Z</time></trkpt><trkpt lat="42.35384476886794" lon="13.402247360421525"><ele>734.4285714285714</ele><time>2026-05-03T06:47:15.999Z</time></trkpt><trkpt lat="42.35378327047203" lon="13.40227809278495"><ele>734.5714285714286</ele><time>2026-05-03T06:47:18.999Z</time></trkpt><trkpt lat="42.35375873193111" lon="13.402373497219685"><ele>734.7142857142858</ele><time>2026-05-03T06:47:22.999Z</time></trkpt><trkpt lat="42.353753928589946" lon="13.402472036479997"><ele>734.8571428571429</ele><time>2026-05-03T06:47:25.999Z</time></trkpt><trkpt lat="42.35368759366413" lon="13.402543240165443"><ele>735.0</ele><time>2026-05-03T06:47:28.999Z</time></trkpt><trkpt lat="42.35362045735347" lon="13.402498659602637"><ele>735.0</ele><time>2026-05-03T06:47:31.999Z</time></trkpt><trkpt lat="42.3536567928186" lon="13.40242259059043"><ele>735.0</ele><time>2026-05-03T06:47:35.999Z</time></trkpt><trkpt lat="42.35369988529352" lon="13.402359854440144"><ele>735.0</ele><time>2026-05-03T07:02:01Z</time></trkpt><trkpt lat="42.353742327124266" lon="13.402294992041668"><ele>735.0</ele><time>2026-05-03T07:02:09Z</time></trkpt><trkpt lat="42.35374319200452" lon="13.402203822742559"><ele>735.0</ele><time>2026-05-03T07:02:13Z</time></trkpt><trkpt lat="42.353724692077" lon="13.402020507768839"><ele>735.0</ele><time>2026-05-03T07:02:25Z</time></trkpt><trkpt lat="42.35372156883648" lon="13.401924326776756"><ele>734.8</ele><time>2026-05-03T07:02:27Z</time></trkpt><trkpt lat="42.35372871909082" lon="13.401837185513596"><ele>734.6</ele><time>2026-05-03T07:02:29Z</time></trkpt><trkpt lat="42.353773642687734" lon="13.401751236209105"><ele>734.4000000000001</ele><time>2026-05-03T07:02:31Z</time></trkpt><trkpt lat="42.353862812668375" lon="13.401644886676634"><ele>734.2</ele><time>2026-05-03T07:02:33Z</time></trkpt><trkpt lat="42.35398426506285" lon="13.401660737184772"><ele>734.0</ele><time>2026-05-03T07:02:35Z</time></trkpt><trkpt lat="42.35404976473711" lon="13.401743885840077"><ele>733.25</ele><time>2026-05-03T07:02:36Z</time></trkpt><trkpt lat="42.35414001276895" lon="13.401822470672663"><ele>732.5</ele><time>2026-05-03T07:02:37Z</time></trkpt><trkpt lat="42.354217407523244" lon="13.401970768316746"><ele>731.75</ele><time>2026-05-03T07:02:38Z</time></trkpt><trkpt lat="42.35431778450969" lon="13.402085989820025"><ele>731.0</ele><time>2026-05-03T07:02:39Z</time></trkpt><trkpt lat="42.35442100086698" lon="13.40221011396945"><ele>731.0</ele><time>2026-05-03T07:02:40Z</time></trkpt><trkpt lat="42.354527929443215" lon="13.402334608231616"><ele>731.0</ele><time>2026-05-03T07:02:41Z</time></trkpt><trkpt lat="42.3546310886105" lon="13.402459320847994"><ele>731.0</ele><time>2026-05-03T07:02:41.999Z</time></trkpt><trkpt lat="42.35473566545723" lon="13.402581806118956"><ele>731.0</ele><time>2026-05-03T07:02:42.999Z</time></trkpt><trkpt lat="42.35483465921557" lon="13.402702423471274"><ele>729.0</ele><time>2026-05-03T07:02:43.999Z</time></trkpt><trkpt lat="42.354929602049694" lon="13.40281741366033"><ele>727.0</ele><time>2026-05-03T07:02:44.999Z</time></trkpt><trkpt lat="42.35501781509542" lon="13.402929650632394"><ele>725.0</ele><time>2026-05-03T07:02:45.999Z</time></trkpt><trkpt lat="42.35509668396707" lon="13.40304875846923"><ele>723.0</ele><time>2026-05-03T07:02:46.999Z</time></trkpt><trkpt lat="42.355165912238256" lon="13.403182656352227"><ele>723.0</ele><time>2026-05-03T07:02:47.999Z</time></trkpt><trkpt lat="42.355223136096946" lon="13.403327688945186"><ele>723.0</ele><time>2026-05-03T07:02:48.999Z</time></trkpt><trkpt lat="42.35526909689175" lon="13.40347968408867"><ele>723.0</ele><time>2026-05-03T07:02:49.999Z</time></trkpt><trkpt lat="42.35530626109998" lon="13.403642112898584"><ele>723.0</ele><time>2026-05-03T07:02:50.999Z</time></trkpt><trkpt lat="42.35534142618848" lon="13.403805504493015"><ele>724.75</ele><time>2026-05-03T07:02:51.999Z</time></trkpt><trkpt lat="42.35537961885363" lon="13.403967558519174"><ele>726.5</ele><time>2026-05-03T07:02:52.999Z</time></trkpt><trkpt lat="42.355417373841846" lon="13.404129083346556"><ele>728.25</ele><time>2026-05-03T07:02:53.999Z</time></trkpt><trkpt lat="42.35545309008379" lon="13.404289122192987"><ele>730.0</ele><time>2026-05-03T07:02:54.999Z</time></trkpt><trkpt lat="42.35548745937006" lon="13.404446563353632"><ele>730.0</ele><time>2026-05-03T07:02:55.999Z</time></trkpt><trkpt lat="42.3555217520649" lon="13.404604742372731"><ele>730.0</ele><time>2026-05-03T07:02:56.999Z</time></trkpt><trkpt lat="42.35555709539374" lon="13.404759926249094"><ele>730.0</ele><time>2026-05-03T07:02:57.999Z</time></trkpt><trkpt lat="42.35558975594868" lon="13.404910020737434"><ele>730.0</ele><time>2026-05-03T07:02:58.999Z</time></trkpt><trkpt lat="42.35561933714687" lon="13.405058839383294"><ele>726.4</ele><time>2026-05-03T07:02:59.999Z</time></trkpt><trkpt lat="42.35564576956665" lon="13.405204535222513"><ele>722.8</ele><time>2026-05-03T07:03:00.999Z</time></trkpt><trkpt lat="42.35567063691753" lon="13.405344149273894"><ele>719.2</ele><time>2026-05-03T07:03:01.999Z</time></trkpt><trkpt lat="42.355698733381615" lon="13.40547343920184"><ele>715.6</ele><time>2026-05-03T07:03:02.999Z</time></trkpt><trkpt lat="42.35572356393635" lon="13.405604135369739"><ele>712.0</ele><time>2026-05-03T07:03:03.999Z</time></trkpt><trkpt lat="42.35573398758986" lon="13.405739242391062"><ele>712.0</ele><time>2026-05-03T07:03:04.999Z</time></trkpt><trkpt lat="42.35574123222797" lon="13.405873170737058"><ele>712.0</ele><time>2026-05-03T07:03:06Z</time></trkpt><trkpt lat="42.355756842559884" lon="13.406009094575026"><ele>712.0</ele><time>2026-05-03T07:03:07Z</time></trkpt><trkpt lat="42.35577436708255" lon="13.406138706769802"><ele>712.0</ele><time>2026-05-03T07:03:08Z</time></trkpt><trkpt lat="42.355782711063085" lon="13.406269755480656"><ele>712.0</ele><time>2026-05-03T07:03:09Z</time></trkpt><trkpt lat="42.355772870962966" lon="13.406397310033563"><ele>712.0</ele><time>2026-05-03T07:03:10Z</time></trkpt><trkpt lat="42.35572649560144" lon="13.40652718677835"><ele>712.0</ele><time>2026-05-03T07:03:11Z</time></trkpt><trkpt lat="42.3556608744195" lon="13.406647260912028"><ele>712.0</ele><time>2026-05-03T07:03:12Z</time></trkpt><trkpt lat="42.355593343225934" lon="13.40675454348942"><ele>712.0</ele><time>2026-05-03T07:03:13Z</time></trkpt><trkpt lat="42.35552149902961" lon="13.406837678599866"><ele>712.0</ele><time>2026-05-03T07:03:14Z</time></trkpt><trkpt lat="42.35543114871835" lon="13.406892636672318"><ele>712.0</ele><time>2026-05-03T07:03:15Z</time></trkpt><trkpt lat="42.355343827538455" lon="13.406970013435537"><ele>712.0</ele><time>2026-05-03T07:03:16Z</time></trkpt><trkpt lat="42.35526628561604" lon="13.40709413438706"><ele>712.0</ele><time>2026-05-03T07:03:17Z</time></trkpt><trkpt lat="42.35519006938276" lon="13.407245883508365"><ele>712.0</ele><time>2026-05-03T07:03:18Z</time></trkpt><trkpt lat="42.35510258782038" lon="13.407417654923078"><ele>712.0</ele><time>2026-05-03T07:03:19Z</time></trkpt><trkpt lat="42.35501149223895" lon="13.407601902969063"><ele>712.0</ele><time>2026-05-03T07:03:20Z</time></trkpt><trkpt lat="42.354922524245175" lon="13.407777651838089"><ele>712.0</ele><time>2026-05-03T07:03:21Z</time></trkpt><trkpt lat="42.35482990559919" lon="13.407959109616533"><ele>711.6666666666667</ele><time>2026-05-03T07:03:22Z</time></trkpt><trkpt lat="42.354736888680826" lon="13.408149697725625"><ele>711.3333333333334</ele><time>2026-05-03T07:03:23Z</time></trkpt><trkpt lat="42.35464150513853" lon="13.408343976785972"><ele>711.0</ele><time>2026-05-03T07:03:24Z</time></trkpt><trkpt lat="42.35454538193458" lon="13.4085386205524"><ele>712.0</ele><time>2026-05-03T07:03:25Z</time></trkpt><trkpt lat="42.35444559245637" lon="13.40872964228079"><ele>713.0</ele><time>2026-05-03T07:03:26Z</time></trkpt><trkpt lat="42.35433912236547" lon="13.40891269575931"><ele>714.0</ele><time>2026-05-03T07:03:27Z</time></trkpt><trkpt lat="42.35422962197826" lon="13.409085555246804"><ele>714.0</ele><time>2026-05-03T07:03:28Z</time></trkpt><trkpt lat="42.354119350295974" lon="13.409250080366727"><ele>714.0</ele><time>2026-05-03T07:03:29Z</time></trkpt><trkpt lat="42.35401105064375" lon="13.40941135247033"><ele>714.0</ele><time>2026-05-03T07:03:30Z</time></trkpt><trkpt lat="42.35390483007417" lon="13.409569377967113"><ele>713.75</ele><time>2026-05-03T07:03:31Z</time></trkpt><trkpt lat="42.35380028420691" lon="13.409718101680557"><ele>713.5</ele><time>2026-05-03T07:03:32Z</time></trkpt><trkpt lat="42.35370131436256" lon="13.409856702645689"><ele>713.25</ele><time>2026-05-03T07:03:33Z</time></trkpt><trkpt lat="42.353611082625086" lon="13.410008547492275"><ele>713.0</ele><time>2026-05-03T07:03:34Z</time></trkpt><trkpt lat="42.353501880449635" lon="13.410176994255183"><ele>713.0</ele><time>2026-05-03T07:03:35Z</time></trkpt><trkpt lat="42.35337031885196" lon="13.41034605340085"><ele>713.0</ele><time>2026-05-03T07:03:36Z</time></trkpt><trkpt lat="42.353235403100996" lon="13.410527683471527"><ele>713.0</ele><time>2026-05-03T07:03:37Z</time></trkpt><trkpt lat="42.35310844251379" lon="13.410710540936986"><ele>713.3333333333333</ele><time>2026-05-03T07:03:38Z</time></trkpt><trkpt lat="42.352992251764704" lon="13.410879918089764"><ele>713.6666666666666</ele><time>2026-05-03T07:03:39Z</time></trkpt><trkpt lat="42.35288469020903" lon="13.411042567105879"><ele>714.0</ele><time>2026-05-03T07:03:40Z</time></trkpt><trkpt lat="42.352774711228264" lon="13.41120739018308"><ele>714.5</ele><time>2026-05-03T07:03:41Z</time></trkpt><trkpt lat="42.352668123155645" lon="13.41136162166576"><ele>715.0</ele><time>2026-05-03T07:03:42Z</time></trkpt><trkpt lat="42.352568072059505" lon="13.411507130901162"><ele>715.5</ele><time>2026-05-03T07:03:43Z</time></trkpt><trkpt lat="42.35247505690125" lon="13.411638756971616"><ele>716.0</ele><time>2026-05-03T07:03:44Z</time></trkpt><trkpt lat="42.352393621478285" lon="13.411759156203003"><ele>716.0</ele><time>2026-05-03T07:03:45Z</time></trkpt><trkpt lat="42.352307763338196" lon="13.411883935061512"><ele>716.0</ele><time>2026-05-03T07:03:46Z</time></trkpt><trkpt lat="42.35222421197453" lon="13.412014195837475"><ele>716.0</ele><time>2026-05-03T07:03:47Z</time></trkpt><trkpt lat="42.35213456465862" lon="13.412149920675702"><ele>716.0</ele><time>2026-05-03T07:03:48Z</time></trkpt><trkpt lat="42.35205813389508" lon="13.412283026126147"><ele>715.75</ele><time>2026-05-03T07:03:49Z</time></trkpt><trkpt lat="42.35200811603301" lon="13.412419976317098"><ele>715.5</ele><time>2026-05-03T07:03:50Z</time></trkpt><trkpt lat="42.35195157576358" lon="13.412557305797929"><ele>715.25</ele><time>2026-05-03T07:03:51Z</time></trkpt><trkpt lat="42.3519554389433" lon="13.4127423736016"><ele>715.0</ele><time>2026-05-03T07:03:52Z</time></trkpt><trkpt lat="42.35200119385841" lon="13.412915335568186"><ele>715.5</ele><time>2026-05-03T07:03:53Z</time></trkpt><trkpt lat="42.35206242283613" lon="13.413083139834473"><ele>716.0</ele><time>2026-05-03T07:03:54Z</time></trkpt><trkpt lat="42.35212475861761" lon="13.413240632130199"><ele>716.5</ele><time>2026-05-03T07:03:55Z</time></trkpt><trkpt lat="42.35219468142505" lon="13.413396803933301"><ele>717.0</ele><time>2026-05-03T07:03:56Z</time></trkpt><trkpt lat="42.35226515127644" lon="13.41355539287701"><ele>717.75</ele><time>2026-05-03T07:03:57Z</time></trkpt><trkpt lat="42.352330967240775" lon="13.413713696464752"><ele>718.5</ele><time>2026-05-03T07:03:58Z</time></trkpt><trkpt lat="42.35239128317325" lon="13.41387559448896"><ele>719.25</ele><time>2026-05-03T07:03:59Z</time></trkpt><trkpt lat="42.35243594599014" lon="13.41404647859801"><ele>720.0</ele><time>2026-05-03T07:04:00Z</time></trkpt><trkpt lat="42.35245695647595" lon="13.414226312641958"><ele>720.0</ele><time>2026-05-03T07:04:01Z</time></trkpt><trkpt lat="42.352455223536815" lon="13.414408945826603"><ele>720.0</ele><time>2026-05-03T07:04:02Z</time></trkpt><trkpt lat="42.352441160764805" lon="13.414585439063993"><ele>720.0</ele><time>2026-05-03T07:04:03Z</time></trkpt><trkpt lat="42.352417983873245" lon="13.414754372873618"><ele>720.0</ele><time>2026-05-03T07:04:03.999Z</time></trkpt><trkpt lat="42.35238169218015" lon="13.414916860560727"><ele>720.25</ele><time>2026-05-03T07:04:04.999Z</time></trkpt><trkpt lat="42.35233005314866" lon="13.415075104811397"><ele>720.5</ele><time>2026-05-03T07:04:05.999Z</time></trkpt><trkpt lat="42.352267004013186" lon="13.415230572735855"><ele>720.75</ele><time>2026-05-03T07:04:06.999Z</time></trkpt><trkpt lat="42.35219579139627" lon="13.415382481381133"><ele>721.0</ele><time>2026-05-03T07:04:07.999Z</time></trkpt><trkpt lat="42.35211931235559" lon="13.415537528451424"><ele>722.0</ele><time>2026-05-03T07:04:08.999Z</time></trkpt><trkpt lat="42.35203647367149" lon="13.415707487028875"><ele>723.0</ele><time>2026-05-03T07:04:09.999Z</time></trkpt><trkpt lat="42.35194275769597" lon="13.415897723112405"><ele>724.0</ele><time>2026-05-03T07:04:10.999Z</time></trkpt><trkpt lat="42.35184955489382" lon="13.416098732349845"><ele>725.0</ele><time>2026-05-03T07:04:11.999Z</time></trkpt><trkpt lat="42.3517738420559" lon="13.416324673442587"><ele>726.0</ele><time>2026-05-03T07:04:12.999Z</time></trkpt><trkpt lat="42.351707002393034" lon="13.416567044770554"><ele>727.0</ele><time>2026-05-03T07:04:13.999Z</time></trkpt><trkpt lat="42.351699122226876" lon="13.416835002848131"><ele>727.0</ele><time>2026-05-03T07:04:14.999Z</time></trkpt><trkpt lat="42.35168712645562" lon="13.417092770463322"><ele>727.0</ele><time>2026-05-03T07:04:15.999Z</time></trkpt><trkpt lat="42.35167958300159" lon="13.417335016396787"><ele>727.0</ele><time>2026-05-03T07:04:16.999Z</time></trkpt><trkpt lat="42.35167089441882" lon="13.417560740170497"><ele>727.75</ele><time>2026-05-03T07:04:17.999Z</time></trkpt><trkpt lat="42.35166376274368" lon="13.4177689738833"><ele>728.5</ele><time>2026-05-03T07:04:18.999Z</time></trkpt><trkpt lat="42.3516609303081" lon="13.417957233526824"><ele>729.25</ele><time>2026-05-03T07:04:19.999Z</time></trkpt><trkpt lat="42.351672386324495" lon="13.418118205673746"><ele>730.0</ele><time>2026-05-03T07:04:20.999Z</time></trkpt><trkpt lat="42.3516814468514" lon="13.418257709843383"><ele>730.0</ele><time>2026-05-03T07:04:21.999Z</time></trkpt><trkpt lat="42.35174307760346" lon="13.41837716176145"><ele>730.0</ele><time>2026-05-03T07:04:22.999Z</time></trkpt><trkpt lat="42.35179136859804" lon="13.418474976182793"><ele>730.0</ele><time>2026-05-03T07:04:23.999Z</time></trkpt><trkpt lat="42.35183806103084" lon="13.418555304520323"><ele>730.0</ele><time>2026-05-03T07:04:24.999Z</time></trkpt><trkpt lat="42.351884269155995" lon="13.418623747616891"><ele>730.0</ele><time>2026-05-03T07:04:25.999Z</time></trkpt><trkpt lat="42.35196906154722" lon="13.418759329073673"><ele>730.2</ele><time>2026-05-03T07:04:27.999Z</time></trkpt><trkpt lat="42.35200068537764" lon="13.418862908244312"><ele>730.4</ele><time>2026-05-03T07:04:28.999Z</time></trkpt><trkpt lat="42.35202381881859" lon="13.418980470921099"><ele>730.5999999999999</ele><time>2026-05-03T07:04:29.999Z</time></trkpt><trkpt lat="42.352086955109485" lon="13.419109544409535"><ele>730.8</ele><time>2026-05-03T07:04:31.999Z</time></trkpt><trkpt lat="42.35215124430906" lon="13.419189695809223"><ele>731.0</ele><time>2026-05-03T07:04:32.999Z</time></trkpt><trkpt lat="42.35221774110083" lon="13.419288339828205"><ele>732.8</ele><time>2026-05-03T07:04:33.999Z</time></trkpt><trkpt lat="42.35226363600023" lon="13.419392681326153"><ele>734.5999999999999</ele><time>2026-05-03T07:04:34.999Z</time></trkpt><trkpt lat="42.352297835016415" lon="13.419582141253816"><ele>736.4</ele><time>2026-05-03T07:04:36.999Z</time></trkpt><trkpt lat="42.35231580530848" lon="13.419713931141754"><ele>738.2</ele><time>2026-05-03T07:04:37.999Z</time></trkpt><trkpt lat="42.352349391878114" lon="13.419843473303091"><ele>740.0</ele><time>2026-05-03T07:04:38.999Z</time></trkpt><trkpt lat="42.35239800063707" lon="13.419968067011872"><ele>740.0</ele><time>2026-05-03T07:04:39.999Z</time></trkpt><trkpt lat="42.352446150502246" lon="13.420094768034424"><ele>740.0</ele><time>2026-05-03T07:04:40.999Z</time></trkpt><trkpt lat="42.35247744449916" lon="13.42023515393326"><ele>740.0</ele><time>2026-05-03T07:04:41.999Z</time></trkpt><trkpt lat="42.35248882618734" lon="13.42039140803666"><ele>740.0</ele><time>2026-05-03T07:04:42.999Z</time></trkpt><trkpt lat="42.35247628962931" lon="13.420549415559671"><ele>740.0</ele><time>2026-05-03T07:04:43.999Z</time></trkpt><trkpt lat="42.35244721388602" lon="13.420696870821901"><ele>740.2</ele><time>2026-05-03T07:04:44.999Z</time></trkpt><trkpt lat="42.352423460936976" lon="13.420839321421335"><ele>740.4</ele><time>2026-05-03T07:04:45.999Z</time></trkpt><trkpt lat="42.35241198061347" lon="13.420987120069096"><ele>740.5999999999999</ele><time>2026-05-03T07:04:46.999Z</time></trkpt><trkpt lat="42.35241758536927" lon="13.421138246491155"><ele>740.8</ele><time>2026-05-03T07:04:47.999Z</time></trkpt><trkpt lat="42.35244534830313" lon="13.421293030174102"><ele>741.0</ele><time>2026-05-03T07:04:48.999Z</time></trkpt><trkpt lat="42.35250018030083" lon="13.421456619896471"><ele>742.0</ele><time>2026-05-03T07:04:49.999Z</time></trkpt><trkpt lat="42.35258231684885" lon="13.42161964387759"><ele>743.0</ele><time>2026-05-03T07:04:50.999Z</time></trkpt><trkpt lat="42.352675960544666" lon="13.421785467605917"><ele>744.0</ele><time>2026-05-03T07:04:51.999Z</time></trkpt><trkpt lat="42.352769992045445" lon="13.421955932401922"><ele>744.0</ele><time>2026-05-03T07:04:52.999Z</time></trkpt><trkpt lat="42.35286312192654" lon="13.422130122482098"><ele>744.0</ele><time>2026-05-03T07:04:53.999Z</time></trkpt><trkpt lat="42.35295182658586" lon="13.422297384303368"><ele>744.0</ele><time>2026-05-03T07:04:54.999Z</time></trkpt><trkpt lat="42.35303778298284" lon="13.42245461534956"><ele>745.0</ele><time>2026-05-03T07:04:55.999Z</time></trkpt><trkpt lat="42.35312351930428" lon="13.422610652320664"><ele>746.0</ele><time>2026-05-03T07:04:56.999Z</time></trkpt><trkpt lat="42.353200783177535" lon="13.422771648125492"><ele>747.0</ele><time>2026-05-03T07:04:57.999Z</time></trkpt><trkpt lat="42.3532712414134" lon="13.422915025136954"><ele>748.0</ele><time>2026-05-03T07:04:58.999Z</time></trkpt><trkpt lat="42.3533542966073" lon="13.423032728539626"><ele>748.0</ele><time>2026-05-03T07:04:59.999Z</time></trkpt><trkpt lat="42.35340796527904" lon="13.423171637966771"><ele>748.0</ele><time>2026-05-03T07:05:00.999Z</time></trkpt><trkpt lat="42.353473270341745" lon="13.423289716749471"><ele>748.0</ele><time>2026-05-03T07:05:01.999Z</time></trkpt><trkpt lat="42.35353804157192" lon="13.423391397348052"><ele>748.0</ele><time>2026-05-03T07:05:02.999Z</time></trkpt><trkpt lat="42.35359461170248" lon="13.423482248822445"><ele>748.0</ele><time>2026-05-03T07:05:03.999Z</time></trkpt><trkpt lat="42.3536426432503" lon="13.423558574563119"><ele>748.0</ele><time>2026-05-03T07:05:04.999Z</time></trkpt><trkpt lat="42.35371146656137" lon="13.42367480776882"><ele>748.0</ele><time>2026-05-03T07:05:06.999Z</time></trkpt><trkpt lat="42.35376401314027" lon="13.42374406236135"><ele>748.0</ele><time>2026-05-03T07:05:08.999Z</time></trkpt><trkpt lat="42.35383483315948" lon="13.423784933955293"><ele>748.0</ele><time>2026-05-03T07:05:11.999Z</time></trkpt><trkpt lat="42.35388920523138" lon="13.42392042196465"><ele>748.0</ele><time>2026-05-03T07:05:13.999Z</time></trkpt><trkpt lat="42.353934567541465" lon="13.423983986156994"><ele>748.0</ele><time>2026-05-03T07:05:14.999Z</time></trkpt><trkpt lat="42.353983793990984" lon="13.424048397526494"><ele>749.0</ele><time>2026-05-03T07:05:15.999Z</time></trkpt><trkpt lat="42.3540352604947" lon="13.424115666463315"><ele>750.0</ele><time>2026-05-03T07:05:16.999Z</time></trkpt><trkpt lat="42.35408221183134" lon="13.424188030355452"><ele>751.0</ele><time>2026-05-03T07:05:18Z</time></trkpt><trkpt lat="42.35411986445273" lon="13.424263368284787"><ele>752.0</ele><time>2026-05-03T07:05:19Z</time></trkpt><trkpt lat="42.35416553692485" lon="13.424368673883858"><ele>753.0</ele><time>2026-05-03T07:05:21Z</time></trkpt><trkpt lat="42.35421129279575" lon="13.424452301407378"><ele>754.0</ele><time>2026-05-03T07:05:24Z</time></trkpt><trkpt lat="42.354258098318674" lon="13.424522873356265"><ele>755.0</ele><time>2026-05-03T07:05:26Z</time></trkpt><trkpt lat="42.35434064552636" lon="13.424489763785004"><ele>755.0</ele><time>2026-05-03T07:05:29Z</time></trkpt><trkpt lat="42.354300313407805" lon="13.424408963651151"><ele>755.0</ele><time>2026-05-03T07:05:31Z</time></trkpt><trkpt lat="42.35424121832353" lon="13.424378533047857"><ele>755.0</ele><time>2026-05-03T07:05:32Z</time></trkpt><trkpt lat="42.35418059458334" lon="13.424344854235821"><ele>755.0</ele><time>2026-05-03T07:05:33Z</time></trkpt><trkpt lat="42.35412488827824" lon="13.424242533436757"><ele>755.0</ele><time>2026-05-03T07:05:34Z</time></trkpt><trkpt lat="42.35406460217875" lon="13.424112498707096"><ele>755.0</ele><time>2026-05-03T07:05:35Z</time></trkpt><trkpt lat="42.35398724615231" lon="13.423965011755431"><ele>755.0</ele><time>2026-05-03T07:05:36Z</time></trkpt><trkpt lat="42.35390344395686" lon="13.423819433029195"><ele>755.0</ele><time>2026-05-03T07:05:37Z</time></trkpt><trkpt lat="42.353819020762934" lon="13.423664480814582"><ele>755.0</ele><time>2026-05-03T07:05:38Z</time></trkpt><trkpt lat="42.35373519997445" lon="13.423500332395115"><ele>755.0</ele><time>2026-05-03T07:05:39Z</time></trkpt><trkpt lat="42.35364904104521" lon="13.423332494638034"><ele>754.6666666666666</ele><time>2026-05-03T07:05:40Z</time></trkpt><trkpt lat="42.353560611522006" lon="13.42316001361782"><ele>754.3333333333334</ele><time>2026-05-03T07:05:41Z</time></trkpt><trkpt lat="42.35346965095275" lon="13.422987883400827"><ele>754.0</ele><time>2026-05-03T07:05:42Z</time></trkpt><trkpt lat="42.35337986567292" lon="13.42281554891351"><ele>754.0</ele><time>2026-05-03T07:05:43Z</time></trkpt><trkpt lat="42.35329457526106" lon="13.42264603620758"><ele>754.0</ele><time>2026-05-03T07:05:44Z</time></trkpt><trkpt lat="42.353211460274494" lon="13.422482227367299"><ele>754.0</ele><time>2026-05-03T07:05:45Z</time></trkpt><trkpt lat="42.35312629011509" lon="13.422330798435947"><ele>754.0</ele><time>2026-05-03T07:05:46Z</time></trkpt><trkpt lat="42.35303293565073" lon="13.422201367119955"><ele>751.5</ele><time>2026-05-03T07:05:47Z</time></trkpt><trkpt lat="42.35294223895188" lon="13.422089519272149"><ele>749.0</ele><time>2026-05-03T07:05:48Z</time></trkpt><trkpt lat="42.35286070214908" lon="13.421978857560541"><ele>746.5</ele><time>2026-05-03T07:05:49Z</time></trkpt><trkpt lat="42.3527877206816" lon="13.421863147149493"><ele>744.0</ele><time>2026-05-03T07:05:50Z</time></trkpt><trkpt lat="42.35270513306739" lon="13.421762448062816"><ele>744.0</ele><time>2026-05-03T07:05:51Z</time></trkpt><trkpt lat="42.352678851745814" lon="13.421591265356561"><ele>744.0</ele><time>2026-05-03T07:05:52Z</time></trkpt><trkpt lat="42.352643952899776" lon="13.421442110818314"><ele>744.0</ele><time>2026-05-03T07:05:53Z</time></trkpt><trkpt lat="42.35261319498503" lon="13.421290620584559"><ele>744.0</ele><time>2026-05-03T07:05:54Z</time></trkpt><trkpt lat="42.352587332452615" lon="13.421133843739065"><ele>743.25</ele><time>2026-05-03T07:05:55Z</time></trkpt><trkpt lat="42.352577005355975" lon="13.420965824232304"><ele>742.5</ele><time>2026-05-03T07:05:56Z</time></trkpt><trkpt lat="42.35259131151732" lon="13.420797786303488"><ele>741.75</ele><time>2026-05-03T07:05:57Z</time></trkpt><trkpt lat="42.352612011056905" lon="13.420630579034896"><ele>741.0</ele><time>2026-05-03T07:05:58Z</time></trkpt><trkpt lat="42.35262395901502" lon="13.420460296566128"><ele>740.75</ele><time>2026-05-03T07:05:59Z</time></trkpt><trkpt lat="42.352618242123384" lon="13.420286982579979"><ele>740.5</ele><time>2026-05-03T07:06:00Z</time></trkpt><trkpt lat="42.352590518113345" lon="13.42011891509189"><ele>740.25</ele><time>2026-05-03T07:06:01Z</time></trkpt><trkpt lat="42.352541406676366" lon="13.419957838056215"><ele>740.0</ele><time>2026-05-03T07:06:02Z</time></trkpt><trkpt lat="42.35247700375603" lon="13.419810535102318"><ele>740.0</ele><time>2026-05-03T07:06:03Z</time></trkpt><trkpt lat="42.352407944093585" lon="13.419674914866572"><ele>740.0</ele><time>2026-05-03T07:06:04Z</time></trkpt><trkpt lat="42.352347960776385" lon="13.419548326406098"><ele>740.0</ele><time>2026-05-03T07:06:05Z</time></trkpt><trkpt lat="42.35230521270582" lon="13.419422618505871"><ele>740.0</ele><time>2026-05-03T07:06:06Z</time></trkpt><trkpt lat="42.3522829972502" lon="13.419299235780098"><ele>740.0</ele><time>2026-05-03T07:06:07Z</time></trkpt><trkpt lat="42.352282861142335" lon="13.41918533116819"><ele>740.1428571428571</ele><time>2026-05-03T07:06:08Z</time></trkpt><trkpt lat="42.352290786202" lon="13.419083670579258"><ele>740.2857142857142</ele><time>2026-05-03T07:06:09Z</time></trkpt><trkpt lat="42.352282392070435" lon="13.418984112623871"><ele>740.4285714285713</ele><time>2026-05-03T07:06:10Z</time></trkpt><trkpt lat="42.35225644972737" lon="13.418891024347964"><ele>740.5714285714286</ele><time>2026-05-03T07:06:11Z</time></trkpt><trkpt lat="42.35221142329293" lon="13.41882176717868"><ele>740.7142857142858</ele><time>2026-05-03T07:06:12Z</time></trkpt><trkpt lat="42.352151110486076" lon="13.418790656166177"><ele>740.8571428571428</ele><time>2026-05-03T07:06:13Z</time></trkpt><trkpt lat="42.35208830927595" lon="13.418800763665724"><ele>741.0</ele><time>2026-05-03T07:06:14Z</time></trkpt><trkpt lat="42.35202134165978" lon="13.418849460882269"><ele>739.3333333333334</ele><time>2026-05-03T07:06:15Z</time></trkpt><trkpt lat="42.35196204655594" lon="13.418931365836878"><ele>737.6666666666666</ele><time>2026-05-03T07:06:16Z</time></trkpt><trkpt lat="42.35191224903868" lon="13.419029017382009"><ele>736.0</ele><time>2026-05-03T07:06:17Z</time></trkpt><trkpt lat="42.35188484966941" lon="13.41912489298797"><ele>734.3333333333333</ele><time>2026-05-03T07:06:18Z</time></trkpt><trkpt lat="42.35187740473373" lon="13.419223869349535"><ele>732.6666666666666</ele><time>2026-05-03T07:06:19Z</time></trkpt><trkpt lat="42.351889924164745" lon="13.419324146392063"><ele>731.0</ele><time>2026-05-03T07:06:20Z</time></trkpt><trkpt lat="42.351932120693164" lon="13.419419389392793"><ele>731.0</ele><time>2026-05-03T07:06:21Z</time></trkpt><trkpt lat="42.352001300709105" lon="13.419527438841918"><ele>731.0</ele><time>2026-05-03T07:06:22Z</time></trkpt><trkpt lat="42.35207599826845" lon="13.419657733097424"><ele>731.0</ele><time>2026-05-03T07:06:23Z</time></trkpt><trkpt lat="42.35214417787332" lon="13.419804589145702"><ele>731.0</ele><time>2026-05-03T07:06:24Z</time></trkpt><trkpt lat="42.35218831654829" lon="13.419950402118088"><ele>731.4</ele><time>2026-05-03T07:06:25Z</time></trkpt><trkpt lat="42.35218863246501" lon="13.42009058310045"><ele>731.8</ele><time>2026-05-03T07:06:26Z</time></trkpt><trkpt lat="42.352180611000605" lon="13.420213033173127"><ele>732.1999999999999</ele><time>2026-05-03T07:06:27Z</time></trkpt><trkpt lat="42.35217632656744" lon="13.420330538778316"><ele>732.5999999999999</ele><time>2026-05-03T07:06:28Z</time></trkpt><trkpt lat="42.352174612974245" lon="13.420443750258642"><ele>733.0</ele><time>2026-05-03T07:06:29Z</time></trkpt><trkpt lat="42.35217977436846" lon="13.420567922105635"><ele>733.8</ele><time>2026-05-03T07:06:30Z</time></trkpt><trkpt lat="42.35219999745986" lon="13.420693557940325"><ele>734.5999999999999</ele><time>2026-05-03T07:06:31Z</time></trkpt><trkpt lat="42.35223193108728" lon="13.420820138678117"><ele>735.4000000000001</ele><time>2026-05-03T07:06:32Z</time></trkpt><trkpt lat="42.35227272294577" lon="13.42095243036763"><ele>736.2</ele><time>2026-05-03T07:06:33Z</time></trkpt><trkpt lat="42.3523114464932" lon="13.421095631430308"><ele>737.0</ele><time>2026-05-03T07:06:34Z</time></trkpt><trkpt lat="42.35235223720208" lon="13.421243490053687"><ele>738.4000000000001</ele><time>2026-05-03T07:06:35Z</time></trkpt><trkpt lat="42.35239036814334" lon="13.421392642393728"><ele>739.8000000000001</ele><time>2026-05-03T07:06:36Z</time></trkpt><trkpt lat="42.35241202758253" lon="13.42153056319229"><ele>741.2</ele><time>2026-05-03T07:06:37Z</time></trkpt><trkpt lat="42.35240887840102" lon="13.421661348386335"><ele>742.6</ele><time>2026-05-03T07:06:38Z</time></trkpt><trkpt lat="42.352392665210644" lon="13.421788616840145"><ele>744.0</ele><time>2026-05-03T07:06:39Z</time></trkpt><trkpt lat="42.35235489947148" lon="13.421904249460892"><ele>744.0</ele><time>2026-05-03T07:06:40Z</time></trkpt><trkpt lat="42.352351898322134" lon="13.42203504278767"><ele>744.0</ele><time>2026-05-03T07:06:41Z</time></trkpt><trkpt lat="42.35234260656698" lon="13.422190023917233"><ele>744.0</ele><time>2026-05-03T07:06:42Z</time></trkpt><trkpt lat="42.35235332384925" lon="13.4223725399426"><ele>744.0</ele><time>2026-05-03T07:06:43Z</time></trkpt><trkpt lat="42.35236202359889" lon="13.422559232118584"><ele>742.25</ele><time>2026-05-03T07:06:44Z</time></trkpt><trkpt lat="42.35237302769974" lon="13.42275134722573"><ele>740.5</ele><time>2026-05-03T07:06:45Z</time></trkpt><trkpt lat="42.35239601252219" lon="13.422938813139307"><ele>738.75</ele><time>2026-05-03T07:06:46Z</time></trkpt><trkpt lat="42.35242265443167" lon="13.423122795548073"><ele>737.0</ele><time>2026-05-03T07:06:47Z</time></trkpt><trkpt lat="42.35244488568265" lon="13.42330547170605"><ele>734.5</ele><time>2026-05-03T07:06:48Z</time></trkpt><trkpt lat="42.352451483057806" lon="13.423487330460995"><ele>732.0</ele><time>2026-05-03T07:06:49Z</time></trkpt><trkpt lat="42.35243779507834" lon="13.423665144782543"><ele>729.5</ele><time>2026-05-03T07:06:50Z</time></trkpt><trkpt lat="42.352406346731534" lon="13.42383197592595"><ele>727.0</ele><time>2026-05-03T07:06:51Z</time></trkpt><trkpt lat="42.35237199420669" lon="13.424000149157106"><ele>725.5</ele><time>2026-05-03T07:06:52Z</time></trkpt><trkpt lat="42.35233692037385" lon="13.42417290902886"><ele>724.0</ele><time>2026-05-03T07:06:53Z</time></trkpt><trkpt lat="42.35229945749454" lon="13.424343840148357"><ele>722.5</ele><time>2026-05-03T07:06:54Z</time></trkpt><trkpt lat="42.352265021396846" lon="13.424509643902534"><ele>721.0</ele><time>2026-05-03T07:06:55Z</time></trkpt><trkpt lat="42.35223254007062" lon="13.42467484878972"><ele>719.25</ele><time>2026-05-03T07:06:56Z</time></trkpt><trkpt lat="42.35219826551121" lon="13.424834062876515"><ele>717.5</ele><time>2026-05-03T07:06:57Z</time></trkpt><trkpt lat="42.352160609843615" lon="13.424991512691955"><ele>715.75</ele><time>2026-05-03T07:06:58Z</time></trkpt><trkpt lat="42.35209116548026" lon="13.425126274217195"><ele>714.0</ele><time>2026-05-03T07:06:59Z</time></trkpt><trkpt lat="42.35203460522033" lon="13.425272046614603"><ele>714.0</ele><time>2026-05-03T07:07:00Z</time></trkpt><trkpt lat="42.351958197469685" lon="13.425403144374712"><ele>714.0</ele><time>2026-05-03T07:07:01Z</time></trkpt><trkpt lat="42.351885576137654" lon="13.4255386417395"><ele>714.0</ele><time>2026-05-03T07:07:02Z</time></trkpt><trkpt lat="42.35181434120842" lon="13.425677029614805"><ele>714.0</ele><time>2026-05-03T07:07:03Z</time></trkpt><trkpt lat="42.35174718308276" lon="13.425818439928157"><ele>715.0</ele><time>2026-05-03T07:07:04Z</time></trkpt><trkpt lat="42.35168198265177" lon="13.42596158887079"><ele>716.0</ele><time>2026-05-03T07:07:05Z</time></trkpt><trkpt lat="42.3516167462145" lon="13.42610823119606"><ele>717.0</ele><time>2026-05-03T07:07:06Z</time></trkpt><trkpt lat="42.35155596570505" lon="13.426252752048574"><ele>718.0</ele><time>2026-05-03T07:07:07Z</time></trkpt><trkpt lat="42.35150110591913" lon="13.426404515581343"><ele>720.75</ele><time>2026-05-03T07:07:08Z</time></trkpt><trkpt lat="42.35145848699027" lon="13.426566640370416"><ele>723.5</ele><time>2026-05-03T07:07:09Z</time></trkpt><trkpt lat="42.35142695719596" lon="13.426729202948989"><ele>726.25</ele><time>2026-05-03T07:07:10Z</time></trkpt><trkpt lat="42.351393859436314" lon="13.426888779464822"><ele>729.0</ele><time>2026-05-03T07:07:11Z</time></trkpt><trkpt lat="42.35136817694871" lon="13.427048396330724"><ele>730.0</ele><time>2026-05-03T07:07:12Z</time></trkpt><trkpt lat="42.351352824812246" lon="13.427193931713637"><ele>731.0</ele><time>2026-05-03T07:07:13Z</time></trkpt><trkpt lat="42.35133972214131" lon="13.427327794940384"><ele>732.0</ele><time>2026-05-03T07:07:14Z</time></trkpt><trkpt lat="42.351310682777054" lon="13.427430011039252"><ele>733.0</ele><time>2026-05-03T07:07:15Z</time></trkpt><trkpt lat="42.35128440203169" lon="13.427522235702936"><ele>734.0</ele><time>2026-05-03T07:07:16Z</time></trkpt><trkpt lat="42.35124177759179" lon="13.427607148367176"><ele>735.0</ele><time>2026-05-03T07:07:17Z</time></trkpt><trkpt lat="42.3512028330361" lon="13.427681616813153"><ele>735.0</ele><time>2026-05-03T07:07:18Z</time></trkpt><trkpt lat="42.35116311660931" lon="13.427750306733675"><ele>735.0</ele><time>2026-05-03T07:07:19Z</time></trkpt><trkpt lat="42.351114492694684" lon="13.427834390155088"><ele>735.0</ele><time>2026-05-03T07:07:21Z</time></trkpt><trkpt lat="42.35106596004387" lon="13.427913108871417"><ele>735.0</ele><time>2026-05-03T07:07:24Z</time></trkpt><trkpt lat="42.35102507355615" lon="13.428039646652552"><ele>735.0</ele><time>2026-05-03T07:07:27Z</time></trkpt><trkpt lat="42.35102165104807" lon="13.428134968595547"><ele>735.0</ele><time>2026-05-03T07:07:29Z</time></trkpt><trkpt lat="42.35116362762059" lon="13.428236819262507"><ele>734.3333333333334</ele><time>2026-05-03T07:07:31Z</time></trkpt><trkpt lat="42.351237824516865" lon="13.428295796464791"><ele>733.6666666666666</ele><time>2026-05-03T07:07:32Z</time></trkpt><trkpt lat="42.35132302140458" lon="13.428350343427093"><ele>733.0</ele><time>2026-05-03T07:07:33Z</time></trkpt><trkpt lat="42.3514135120368" lon="13.428383712497395"><ele>732.3333333333333</ele><time>2026-05-03T07:07:34Z</time></trkpt><trkpt lat="42.35149530244053" lon="13.42843632117741"><ele>731.6666666666666</ele><time>2026-05-03T07:07:35Z</time></trkpt><trkpt lat="42.35157327747103" lon="13.428472524049162"><ele>731.0</ele><time>2026-05-03T07:07:36Z</time></trkpt><trkpt lat="42.35164459033867" lon="13.428511497598537"><ele>732.6666666666666</ele><time>2026-05-03T07:07:37Z</time></trkpt><trkpt lat="42.35169751835649" lon="13.428604102331981"><ele>734.3333333333333</ele><time>2026-05-03T07:07:38Z</time></trkpt><trkpt lat="42.351754971509074" lon="13.428717495601392"><ele>736.0</ele><time>2026-05-03T07:07:39Z</time></trkpt><trkpt lat="42.351809654903754" lon="13.428815997723259"><ele>737.6666666666666</ele><time>2026-05-03T07:07:40Z</time></trkpt><trkpt lat="42.35185259583517" lon="13.428886717927142"><ele>739.3333333333334</ele><time>2026-05-03T07:07:41Z</time></trkpt><trkpt lat="42.351888061546774" lon="13.429010492843412"><ele>741.0</ele><time>2026-05-03T07:07:43Z</time></trkpt><trkpt lat="42.35185529421928" lon="13.429172267457213"><ele>741.1999999999999</ele><time>2026-05-03T07:07:45Z</time></trkpt><trkpt lat="42.351831505313115" lon="13.429293862910662"><ele>741.4</ele><time>2026-05-03T07:07:46Z</time></trkpt><trkpt lat="42.351776319261454" lon="13.429425746075303"><ele>741.6</ele><time>2026-05-03T07:07:47Z</time></trkpt><trkpt lat="42.35172049054564" lon="13.429560095776235"><ele>741.8</ele><time>2026-05-03T07:07:48Z</time></trkpt><trkpt lat="42.351663882045074" lon="13.429692901905637"><ele>742.0</ele><time>2026-05-03T07:07:49Z</time></trkpt><trkpt lat="42.351602488722094" lon="13.429821475407334"><ele>742.4000000000001</ele><time>2026-05-03T07:07:50Z</time></trkpt><trkpt lat="42.35153847928947" lon="13.429941450427163"><ele>742.8000000000001</ele><time>2026-05-03T07:07:51Z</time></trkpt><trkpt lat="42.35147446999426" lon="13.430035443338998"><ele>743.2</ele><time>2026-05-03T07:07:52Z</time></trkpt><trkpt lat="42.351408778988734" lon="13.430074846723084"><ele>743.6</ele><time>2026-05-03T07:07:53Z</time></trkpt><trkpt lat="42.35128367280535" lon="13.43009736322664"><ele>744.0</ele><time>2026-05-03T07:07:55Z</time></trkpt><trkpt lat="42.351195237000674" lon="13.430057918423305"><ele>741.6</ele><time>2026-05-03T07:07:56Z</time></trkpt><trkpt lat="42.35109288417575" lon="13.430013105161251"><ele>739.2</ele><time>2026-05-03T07:07:57Z</time></trkpt><trkpt lat="42.35098294712391" lon="13.429981126805565"><ele>736.8000000000001</ele><time>2026-05-03T07:07:58Z</time></trkpt><trkpt lat="42.35087842445617" lon="13.429959325243745"><ele>734.4000000000001</ele><time>2026-05-03T07:07:59Z</time></trkpt><trkpt lat="42.35078920459952" lon="13.429915851703335"><ele>732.0</ele><time>2026-05-03T07:08:00Z</time></trkpt><trkpt lat="42.35070484262481" lon="13.429997872788343"><ele>732.0</ele><time>2026-05-03T07:08:01Z</time></trkpt><trkpt lat="42.35064926208163" lon="13.430041738732385"><ele>732.0</ele><time>2026-05-03T07:08:03Z</time></trkpt><trkpt lat="42.3505807837189" lon="13.430091188769687"><ele>732.0</ele><time>2026-05-03T07:08:08Z</time></trkpt><trkpt lat="42.35052534157329" lon="13.43014758706107"><ele>732.0</ele><time>2026-05-03T07:08:09Z</time></trkpt><trkpt lat="42.35046853278747" lon="13.430236999991509"><ele>732.0</ele><time>2026-05-03T07:08:10Z</time></trkpt><trkpt lat="42.350416779075196" lon="13.430323654697514"><ele>732.0</ele><time>2026-05-03T07:08:11Z</time></trkpt><trkpt lat="42.350356458215664" lon="13.430428687460237"><ele>731.2</ele><time>2026-05-03T07:08:12Z</time></trkpt><trkpt lat="42.350286585599" lon="13.430543567250153"><ele>730.4000000000001</ele><time>2026-05-03T07:08:13Z</time></trkpt><trkpt lat="42.35021109352141" lon="13.430657526806211"><ele>729.5999999999999</ele><time>2026-05-03T07:08:14Z</time></trkpt><trkpt lat="42.3501414188692" lon="13.430761288733134"><ele>728.8</ele><time>2026-05-03T07:08:15Z</time></trkpt><trkpt lat="42.35007348482676" lon="13.43085989221105"><ele>728.0</ele><time>2026-05-03T07:08:16Z</time></trkpt><trkpt lat="42.34999579638928" lon="13.430940336923094"><ele>728.0</ele><time>2026-05-03T07:08:17Z</time></trkpt><trkpt lat="42.34990488339622" lon="13.431003524154129"><ele>728.0</ele><time>2026-05-03T07:08:18Z</time></trkpt><trkpt lat="42.349808161692934" lon="13.431048709826491"><ele>728.0</ele><time>2026-05-03T07:08:19Z</time></trkpt><trkpt lat="42.34970603830981" lon="13.431050060049873"><ele>728.0</ele><time>2026-05-03T07:08:20Z</time></trkpt><trkpt lat="42.34960259409645" lon="13.431079170547187"><ele>728.0</ele><time>2026-05-03T07:08:21Z</time></trkpt><trkpt lat="42.34949911278874" lon="13.431060734562026"><ele>726.5999999999999</ele><time>2026-05-03T07:08:22Z</time></trkpt><trkpt lat="42.34941139622235" lon="13.430997644507991"><ele>725.1999999999999</ele><time>2026-05-03T07:08:23Z</time></trkpt><trkpt lat="42.349323912091954" lon="13.430985650028532"><ele>723.8</ele><time>2026-05-03T07:08:24Z</time></trkpt><trkpt lat="42.349237821832446" lon="13.431007605735061"><ele>722.4</ele><time>2026-05-03T07:08:25Z</time></trkpt><trkpt lat="42.349153413264325" lon="13.43104757193162"><ele>721.0</ele><time>2026-05-03T07:08:26Z</time></trkpt><trkpt lat="42.349068006580836" lon="13.431111053504198"><ele>721.0</ele><time>2026-05-03T07:08:27Z</time></trkpt><trkpt lat="42.34896988649976" lon="13.431155126998767"><ele>721.0</ele><time>2026-05-03T07:08:28Z</time></trkpt><trkpt lat="42.348864812231426" lon="13.431184765561088"><ele>721.0</ele><time>2026-05-03T07:08:29Z</time></trkpt><trkpt lat="42.348776707565136" lon="13.431268089809521"><ele>721.0</ele><time>2026-05-03T07:08:30Z</time></trkpt><trkpt lat="42.348689064471614" lon="13.431340958677112"><ele>721.0</ele><time>2026-05-03T07:08:31Z</time></trkpt><trkpt lat="42.348593702074" lon="13.431414833251534"><ele>721.0</ele><time>2026-05-03T07:08:32Z</time></trkpt><trkpt lat="42.34849854554498" lon="13.431478442342865"><ele>721.0</ele><time>2026-05-03T07:08:33Z</time></trkpt><trkpt lat="42.3483941986628" lon="13.431510515119635"><ele>721.0</ele><time>2026-05-03T07:08:34Z</time></trkpt><trkpt lat="42.3482920110359" lon="13.431559230633576"><ele>721.0</ele><time>2026-05-03T07:08:35Z</time></trkpt><trkpt lat="42.348185453898076" lon="13.43159805072524"><ele>721.0</ele><time>2026-05-03T07:08:36Z</time></trkpt><trkpt lat="42.3480809131492" lon="13.431654878434717"><ele>719.0</ele><time>2026-05-03T07:08:37Z</time></trkpt><trkpt lat="42.34797057867066" lon="13.431690680701132"><ele>717.0</ele><time>2026-05-03T07:08:38Z</time></trkpt><trkpt lat="42.3478744873408" lon="13.431745193210679"><ele>715.0</ele><time>2026-05-03T07:08:39Z</time></trkpt><trkpt lat="42.347793619312974" lon="13.43179550388535"><ele>713.0</ele><time>2026-05-03T07:08:40Z</time></trkpt><trkpt lat="42.34771400609044" lon="13.431846192044777"><ele>711.0</ele><time>2026-05-03T07:08:41Z</time></trkpt><trkpt lat="42.347612086900305" lon="13.431892370679563"><ele>711.0</ele><time>2026-05-03T07:08:42Z</time></trkpt><trkpt lat="42.34751684576556" lon="13.431968464592533"><ele>711.0</ele><time>2026-05-03T07:08:43Z</time></trkpt><trkpt lat="42.34740887615271" lon="13.432032069774426"><ele>711.0</ele><time>2026-05-03T07:08:44Z</time></trkpt><trkpt lat="42.34728640383916" lon="13.432098880962718"><ele>711.0</ele><time>2026-05-03T07:08:45Z</time></trkpt><trkpt lat="42.347168046948674" lon="13.432163706656626"><ele>711.5</ele><time>2026-05-03T07:08:46Z</time></trkpt><trkpt lat="42.34704839551659" lon="13.432229465291107"><ele>712.0</ele><time>2026-05-03T07:08:47Z</time></trkpt><trkpt lat="42.34693122572154" lon="13.432293351389173"><ele>712.5</ele><time>2026-05-03T07:08:48Z</time></trkpt><trkpt lat="42.34681933476676" lon="13.432371755410193"><ele>713.0</ele><time>2026-05-03T07:08:49Z</time></trkpt><trkpt lat="42.346707321762715" lon="13.432474843984652"><ele>713.0</ele><time>2026-05-03T07:08:50Z</time></trkpt><trkpt lat="42.346603096150126" lon="13.432589008350634"><ele>713.0</ele><time>2026-05-03T07:08:51Z</time></trkpt><trkpt lat="42.34649503483076" lon="13.432696911777796"><ele>713.0</ele><time>2026-05-03T07:08:52Z</time></trkpt><trkpt lat="42.34638665559143" lon="13.432796408718783"><ele>713.0</ele><time>2026-05-03T07:08:53Z</time></trkpt><trkpt lat="42.346281429884655" lon="13.432887229575234"><ele>713.2</ele><time>2026-05-03T07:08:54Z</time></trkpt><trkpt lat="42.34618120820217" lon="13.43296340434132"><ele>713.4</ele><time>2026-05-03T07:08:55Z</time></trkpt><trkpt lat="42.346081807959536" lon="13.43302583625344"><ele>713.6</ele><time>2026-05-03T07:08:56Z</time></trkpt><trkpt lat="42.3459886163805" lon="13.43308765843008"><ele>713.8000000000001</ele><time>2026-05-03T07:08:57Z</time></trkpt><trkpt lat="42.34590269517407" lon="13.433143662196203"><ele>714.0</ele><time>2026-05-03T07:08:58Z</time></trkpt><trkpt lat="42.34580952370379" lon="13.433158595757122"><ele>714.0</ele><time>2026-05-03T07:08:59Z</time></trkpt><trkpt lat="42.345741470453575" lon="13.433191904296379"><ele>714.0</ele><time>2026-05-03T07:09:00Z</time></trkpt><trkpt lat="42.345681122324855" lon="13.433216578070281"><ele>714.0</ele><time>2026-05-03T07:09:02Z</time></trkpt><trkpt lat="42.34561755061233" lon="13.43323397012439"><ele>714.0</ele><time>2026-05-03T07:09:13Z</time></trkpt><trkpt lat="42.34551675109395" lon="13.433236349986055"><ele>714.0</ele><time>2026-05-03T07:09:15Z</time></trkpt><trkpt lat="42.34540086319862" lon="13.43321653748398"><ele>714.0</ele><time>2026-05-03T07:09:17Z</time></trkpt><trkpt lat="42.34531843199315" lon="13.433630722050857"><ele>712.8333333333334</ele><time>2026-05-03T07:09:18Z</time></trkpt><trkpt lat="42.345258159641396" lon="13.433703998299332"><ele>711.6666666666666</ele><time>2026-05-03T07:09:19Z</time></trkpt><trkpt lat="42.345198883009346" lon="13.433785972018974"><ele>710.5</ele><time>2026-05-03T07:09:20Z</time></trkpt><trkpt lat="42.34514279395932" lon="13.43387957288385"><ele>709.3333333333333</ele><time>2026-05-03T07:09:21Z</time></trkpt><trkpt lat="42.34509832641658" lon="13.433970129428072"><ele>708.1666666666666</ele><time>2026-05-03T07:09:22Z</time></trkpt><trkpt lat="42.34505501809602" lon="13.434052133215333"><ele>707.0</ele><time>2026-05-03T07:09:23Z</time></trkpt><trkpt lat="42.34501279881355" lon="13.43413752917753"><ele>707.0</ele><time>2026-05-03T07:09:24Z</time></trkpt><trkpt lat="42.34496465860523" lon="13.434240004266883"><ele>707.0</ele><time>2026-05-03T07:09:25Z</time></trkpt><trkpt lat="42.3449115563806" lon="13.434356430521452"><ele>707.0</ele><time>2026-05-03T07:09:26Z</time></trkpt><trkpt lat="42.34485817991936" lon="13.434472270173822"><ele>707.0</ele><time>2026-05-03T07:09:27Z</time></trkpt><trkpt lat="42.344809115345136" lon="13.434587214210008"><ele>707.0</ele><time>2026-05-03T07:09:28Z</time></trkpt><trkpt lat="42.34475940842124" lon="13.43470148480587"><ele>704.4000000000001</ele><time>2026-05-03T07:09:29Z</time></trkpt><trkpt lat="42.34470873848409" lon="13.434819718431923"><ele>701.8000000000001</ele><time>2026-05-03T07:09:30Z</time></trkpt><trkpt lat="42.34465889799809" lon="13.434944185863003"><ele>699.2</ele><time>2026-05-03T07:09:31Z</time></trkpt><trkpt lat="42.34461403744681" lon="13.435070331663647"><ele>696.6</ele><time>2026-05-03T07:09:32Z</time></trkpt><trkpt lat="42.344567216553735" lon="13.43519609827537"><ele>694.0</ele><time>2026-05-03T07:09:33Z</time></trkpt><trkpt lat="42.34452185547233" lon="13.435309632674823"><ele>694.0</ele><time>2026-05-03T07:09:34Z</time></trkpt><trkpt lat="42.34447831302294" lon="13.435423305717903"><ele>694.0</ele><time>2026-05-03T07:09:35Z</time></trkpt><trkpt lat="42.34443496541785" lon="13.435539232389292"><ele>694.0</ele><time>2026-05-03T07:09:36Z</time></trkpt><trkpt lat="42.34439738524418" lon="13.435640264116824"><ele>694.0</ele><time>2026-05-03T07:09:37Z</time></trkpt><trkpt lat="42.34436076454702" lon="13.4357271275778"><ele>694.0</ele><time>2026-05-03T07:09:38Z</time></trkpt><trkpt lat="42.344297471177626" lon="13.435832167366755"><ele>694.0</ele><time>2026-05-03T07:09:40Z</time></trkpt><trkpt lat="42.34427305781939" lon="13.435977255255084"><ele>694.3333333333334</ele><time>2026-05-03T07:09:42Z</time></trkpt><trkpt lat="42.344273893150564" lon="13.436075549387859"><ele>694.6666666666667</ele><time>2026-05-03T07:09:43Z</time></trkpt><trkpt lat="42.34426991898949" lon="13.436183362993154"><ele>695.0</ele><time>2026-05-03T07:09:44Z</time></trkpt><trkpt lat="42.34425230528384" lon="13.436307534483428"><ele>695.3333333333334</ele><time>2026-05-03T07:09:45Z</time></trkpt><trkpt lat="42.34423692777705" lon="13.436437410446324"><ele>695.6666666666666</ele><time>2026-05-03T07:09:46Z</time></trkpt><trkpt lat="42.34422729772966" lon="13.436566199148873"><ele>696.0</ele><time>2026-05-03T07:09:47Z</time></trkpt><trkpt lat="42.344223402247785" lon="13.436678901523884"><ele>696.0</ele><time>2026-05-03T07:09:48Z</time></trkpt><trkpt lat="42.3442205858121" lon="13.43678908724633"><ele>696.0</ele><time>2026-05-03T07:09:49Z</time></trkpt><trkpt lat="42.34421274413228" lon="13.436881607424084"><ele>696.0</ele><time>2026-05-03T07:09:50Z</time></trkpt><trkpt lat="42.34419079616543" lon="13.43697419032573"><ele>696.0</ele><time>2026-05-03T07:09:51Z</time></trkpt><trkpt lat="42.344155537349764" lon="13.437065754020846"><ele>696.0</ele><time>2026-05-03T07:09:52Z</time></trkpt><trkpt lat="42.344114755004426" lon="13.437161783056556"><ele>696.0</ele><time>2026-05-03T07:09:53Z</time></trkpt><trkpt lat="42.344083722477706" lon="13.43724679885134"><ele>697.4</ele><time>2026-05-03T07:09:54Z</time></trkpt><trkpt lat="42.34406938129606" lon="13.4373313326939"><ele>698.8</ele><time>2026-05-03T07:09:55Z</time></trkpt><trkpt lat="42.34406522117324" lon="13.43751461474872"><ele>700.1999999999999</ele><time>2026-05-03T07:09:57Z</time></trkpt><trkpt lat="42.344056821016196" lon="13.437620410200521"><ele>701.5999999999999</ele><time>2026-05-03T07:09:58Z</time></trkpt><trkpt lat="42.34403450524471" lon="13.437731038570844"><ele>703.0</ele><time>2026-05-03T07:09:59Z</time></trkpt><trkpt lat="42.34400574944058" lon="13.437857865817735"><ele>704.5999999999999</ele><time>2026-05-03T07:10:00Z</time></trkpt><trkpt lat="42.34398688897507" lon="13.438001178700528"><ele>706.1999999999999</ele><time>2026-05-03T07:10:01Z</time></trkpt><trkpt lat="42.343970415425375" lon="13.438159635118117"><ele>707.8</ele><time>2026-05-03T07:10:02Z</time></trkpt><trkpt lat="42.343945276373205" lon="13.438305971400776"><ele>709.4</ele><time>2026-05-03T07:10:03Z</time></trkpt><trkpt lat="42.3439236990023" lon="13.438436879183994"><ele>711.0</ele><time>2026-05-03T07:10:04Z</time></trkpt><trkpt lat="42.343906708536956" lon="13.43855390176152"><ele>711.0</ele><time>2026-05-03T07:10:05Z</time></trkpt><trkpt lat="42.3438877027322" lon="13.43865626243572"><ele>711.0</ele><time>2026-05-03T07:10:06Z</time></trkpt><trkpt lat="42.343854162382655" lon="13.438752969305325"><ele>711.0</ele><time>2026-05-03T07:10:07Z</time></trkpt><trkpt lat="42.34380318812138" lon="13.438856535362095"><ele>711.0</ele><time>2026-05-03T07:10:08Z</time></trkpt><trkpt lat="42.34374976999603" lon="13.438944213298058"><ele>711.0</ele><time>2026-05-03T07:10:09Z</time></trkpt><trkpt lat="42.343652599000386" lon="13.439029211710718"><ele>711.0</ele><time>2026-05-03T07:10:11Z</time></trkpt><trkpt lat="42.34358182057438" lon="13.439069270616496"><ele>708.5</ele><time>2026-05-03T07:10:12Z</time></trkpt><trkpt lat="42.3435081326408" lon="13.439129388750436"><ele>706.0</ele><time>2026-05-03T07:10:13Z</time></trkpt><trkpt lat="42.34344536121818" lon="13.439210567604984"><ele>703.5</ele><time>2026-05-03T07:10:14Z</time></trkpt><trkpt lat="42.343384552276056" lon="13.439302502925942"><ele>701.0</ele><time>2026-05-03T07:10:15Z</time></trkpt><trkpt lat="42.34332539574439" lon="13.439381322901848"><ele>698.5</ele><time>2026-05-03T07:10:16Z</time></trkpt><trkpt lat="42.343273682115445" lon="13.439442127711292"><ele>696.0</ele><time>2026-05-03T07:10:17Z</time></trkpt><trkpt lat="42.343201413522394" lon="13.43952942886192"><ele>696.0</ele><time>2026-05-03T07:10:19Z</time></trkpt><trkpt lat="42.34314106581573" lon="13.439620639900468"><ele>696.0</ele><time>2026-05-03T07:10:21Z</time></trkpt><trkpt lat="42.34310359653064" lon="13.439690196575796"><ele>696.0</ele><time>2026-05-03T07:10:22Z</time></trkpt><trkpt lat="42.34300712322302" lon="13.439788514331063"><ele>696.0</ele><time>2026-05-03T07:10:24Z</time></trkpt><trkpt lat="42.3429023758404" lon="13.439868514401835"><ele>696.0</ele><time>2026-05-03T07:10:26Z</time></trkpt><trkpt lat="42.34282952307341" lon="13.43989586828208"><ele>695.7142857142857</ele><time>2026-05-03T07:10:27Z</time></trkpt><trkpt lat="42.34276140872789" lon="13.439915959400727"><ele>695.4285714285714</ele><time>2026-05-03T07:10:28Z</time></trkpt><trkpt lat="42.34269833367639" lon="13.43991911820565"><ele>695.1428571428571</ele><time>2026-05-03T07:10:29Z</time></trkpt><trkpt lat="42.34262205792199" lon="13.439906095659758"><ele>694.8571428571429</ele><time>2026-05-03T07:10:30Z</time></trkpt><trkpt lat="42.342532000991376" lon="13.439889458385098"><ele>694.5714285714286</ele><time>2026-05-03T07:10:31Z</time></trkpt><trkpt lat="42.34244983338658" lon="13.439880894737145"><ele>694.2857142857143</ele><time>2026-05-03T07:10:32Z</time></trkpt><trkpt lat="42.342385378563854" lon="13.439882388552524"><ele>694.0</ele><time>2026-05-03T07:10:33Z</time></trkpt><trkpt lat="42.34227240718413" lon="13.43994292229391"><ele>692.0</ele><time>2026-05-03T07:10:35Z</time></trkpt><trkpt lat="42.34220947664075" lon="13.439997101871784"><ele>690.0</ele><time>2026-05-03T07:10:36Z</time></trkpt><trkpt lat="42.34215216058685" lon="13.440037319358197"><ele>688.0</ele><time>2026-05-03T07:10:37Z</time></trkpt><trkpt lat="42.34204961240992" lon="13.44008352633753"><ele>686.0</ele><time>2026-05-03T07:10:39Z</time></trkpt><trkpt lat="42.341925718129325" lon="13.440112731976827"><ele>684.0</ele><time>2026-05-03T07:10:41Z</time></trkpt><trkpt lat="42.341809370405095" lon="13.440153353755619"><ele>684.0</ele><time>2026-05-03T07:10:43Z</time></trkpt><trkpt lat="42.341707001752475" lon="13.440202081487246"><ele>684.0</ele><time>2026-05-03T07:10:45Z</time></trkpt><trkpt lat="42.34163597357321" lon="13.440217072925147"><ele>684.0</ele><time>2026-05-03T07:10:46Z</time></trkpt><trkpt lat="42.34156043943826" lon="13.440230484895745"><ele>684.0</ele><time>2026-05-03T07:10:47Z</time></trkpt><trkpt lat="42.3414889305818" lon="13.440235951551706"><ele>684.0</ele><time>2026-05-03T07:10:48Z</time></trkpt><trkpt lat="42.34137203570278" lon="13.440218405218303"><ele>684.0</ele><time>2026-05-03T07:10:50Z</time></trkpt><trkpt lat="42.34127005267258" lon="13.440190367876445"><ele>681.8000000000001</ele><time>2026-05-03T07:10:52Z</time></trkpt><trkpt lat="42.3411604577002" lon="13.440208033918758"><ele>679.6</ele><time>2026-05-03T07:10:54Z</time></trkpt><trkpt lat="42.34107151666709" lon="13.440242096201658"><ele>677.4</ele><time>2026-05-03T07:10:56Z</time></trkpt><trkpt lat="42.34097965024383" lon="13.440299128203842"><ele>675.2</ele><time>2026-05-03T07:10:58Z</time></trkpt><trkpt lat="42.34091746337131" lon="13.440323089565881"><ele>673.0</ele><time>2026-05-03T07:10:59Z</time></trkpt><trkpt lat="42.3408045495533" lon="13.440388952763549"><ele>673.0</ele><time>2026-05-03T07:11:01Z</time></trkpt><trkpt lat="42.34069681429997" lon="13.440436697350826"><ele>673.0</ele><time>2026-05-03T07:11:03Z</time></trkpt><trkpt lat="42.34059336251985" lon="13.440484443071563"><ele>673.0</ele><time>2026-05-03T07:11:05Z</time></trkpt><trkpt lat="42.34049130617047" lon="13.440536056568689"><ele>673.0</ele><time>2026-05-03T07:11:07.001Z</time></trkpt><trkpt lat="42.34039684037183" lon="13.440628049227463"><ele>673.0</ele><time>2026-05-03T07:11:09.001Z</time></trkpt><trkpt lat="42.340350710527744" lon="13.44073834620017"><ele>671.0</ele><time>2026-05-03T07:11:11.001Z</time></trkpt><trkpt lat="42.34032249366363" lon="13.440885518556158"><ele>669.0</ele><time>2026-05-03T07:11:13.001Z</time></trkpt><trkpt lat="42.34027696842489" lon="13.44098035774762"><ele>667.0</ele><time>2026-05-03T07:11:15.001Z</time></trkpt><trkpt lat="42.340270142848965" lon="13.44106646728675"><ele>665.0</ele><time>2026-05-03T07:11:23.001Z</time></trkpt><trkpt lat="42.340263420878514" lon="13.441172944346798"><ele>663.0</ele><time>2026-05-03T07:11:24.001Z</time></trkpt><trkpt lat="42.34025549085667" lon="13.441259726632008"><ele>661.0</ele><time>2026-05-03T07:11:25.001Z</time></trkpt><trkpt lat="42.340236619626644" lon="13.441370448498008"><ele>660.1666666666667</ele><time>2026-05-03T07:11:26Z</time></trkpt><trkpt lat="42.340207579499044" lon="13.441481873117702"><ele>659.3333333333334</ele><time>2026-05-03T07:11:27Z</time></trkpt><trkpt lat="42.340182562796535" lon="13.441572631284288"><ele>658.5</ele><time>2026-05-03T07:11:28Z</time></trkpt><trkpt lat="42.340164169061715" lon="13.4416639747512"><ele>657.6666666666666</ele><time>2026-05-03T07:11:29Z</time></trkpt><trkpt lat="42.3401492498282" lon="13.441752836254624"><ele>656.8333333333333</ele><time>2026-05-03T07:11:30Z</time></trkpt><trkpt lat="42.340102278514735" lon="13.44192146244799"><ele>656.0</ele><time>2026-05-03T07:11:32Z</time></trkpt><trkpt lat="42.34007303833363" lon="13.442013876829368"><ele>656.0</ele><time>2026-05-03T07:11:33Z</time></trkpt><trkpt lat="42.34004671696689" lon="13.442114298470296"><ele>656.0</ele><time>2026-05-03T07:11:34Z</time></trkpt><trkpt lat="42.34001493696322" lon="13.44221952694067"><ele>656.0</ele><time>2026-05-03T07:11:35Z</time></trkpt><trkpt lat="42.339985189158945" lon="13.442329912151266"><ele>656.0</ele><time>2026-05-03T07:11:36Z</time></trkpt><trkpt lat="42.33995715889218" lon="13.442451867020917"><ele>656.0</ele><time>2026-05-03T07:11:37Z</time></trkpt><trkpt lat="42.33992761403731" lon="13.442575012358848"><ele>656.0</ele><time>2026-05-03T07:11:38Z</time></trkpt><trkpt lat="42.33990498847675" lon="13.442689612200244"><ele>655.5</ele><time>2026-05-03T07:11:39Z</time></trkpt><trkpt lat="42.33988230566258" lon="13.442799295873352"><ele>655.0</ele><time>2026-05-03T07:11:40Z</time></trkpt><trkpt lat="42.33986501951326" lon="13.442901908646387"><ele>654.5</ele><time>2026-05-03T07:11:41Z</time></trkpt><trkpt lat="42.33984566712478" lon="13.443001310168102"><ele>654.0</ele><time>2026-05-03T07:11:42Z</time></trkpt><trkpt lat="42.33978293220007" lon="13.443132753219164"><ele>653.5</ele><time>2026-05-03T07:11:44Z</time></trkpt><trkpt lat="42.33974674986432" lon="13.443235139046006"><ele>653.0</ele><time>2026-05-03T07:11:45Z</time></trkpt><trkpt lat="42.33970248072497" lon="13.443337612968548"><ele>651.2</ele><time>2026-05-03T07:11:46Z</time></trkpt><trkpt lat="42.33964342108968" lon="13.443418419110413"><ele>649.4</ele><time>2026-05-03T07:11:47Z</time></trkpt><trkpt lat="42.339574383259354" lon="13.44349515259564"><ele>647.6</ele><time>2026-05-03T07:11:48Z</time></trkpt><trkpt lat="42.33949806683365" lon="13.443571804264637"><ele>645.8000000000001</ele><time>2026-05-03T07:11:49Z</time></trkpt><trkpt lat="42.339414747312986" lon="13.44365272365796"><ele>644.0</ele><time>2026-05-03T07:11:50Z</time></trkpt><trkpt lat="42.339336164150545" lon="13.443741101699478"><ele>645.8000000000001</ele><time>2026-05-03T07:11:51Z</time></trkpt><trkpt lat="42.3392422541288" lon="13.443807198075278"><ele>647.6</ele><time>2026-05-03T07:11:52Z</time></trkpt><trkpt lat="42.339168208793225" lon="13.44388986445295"><ele>649.4</ele><time>2026-05-03T07:11:53Z</time></trkpt><trkpt lat="42.33910598919027" lon="13.443974143819357"><ele>651.2</ele><time>2026-05-03T07:11:54Z</time></trkpt><trkpt lat="42.33906905116966" lon="13.44408311923841"><ele>653.0</ele><time>2026-05-03T07:11:55Z</time></trkpt><trkpt lat="42.339032999625296" lon="13.444176393954905"><ele>653.0</ele><time>2026-05-03T07:11:56Z</time></trkpt><trkpt lat="42.33899106896704" lon="13.444251380616693"><ele>653.0</ele><time>2026-05-03T07:11:57Z</time></trkpt><trkpt lat="42.33898032099572" lon="13.44433747257415"><ele>653.0</ele><time>2026-05-03T07:11:58Z</time></trkpt><trkpt lat="42.33899505704804" lon="13.444433106709992"><ele>653.0</ele><time>2026-05-03T07:11:59Z</time></trkpt><trkpt lat="42.339003325873854" lon="13.444547288460301"><ele>653.0</ele><time>2026-05-03T07:12:00Z</time></trkpt><trkpt lat="42.33899847806921" lon="13.444667312853385"><ele>653.0</ele><time>2026-05-03T07:12:01Z</time></trkpt><trkpt lat="42.339018561586904" lon="13.44478190869474"><ele>652.8</ele><time>2026-05-03T07:12:02Z</time></trkpt><trkpt lat="42.33897634702761" lon="13.44490236450409"><ele>652.5999999999999</ele><time>2026-05-03T07:12:03Z</time></trkpt><trkpt lat="42.33898836698758" lon="13.445038105584901"><ele>652.4000000000001</ele><time>2026-05-03T07:12:04Z</time></trkpt><trkpt lat="42.33895045925679" lon="13.44519490552757"><ele>652.2</ele><time>2026-05-03T07:12:05Z</time></trkpt><trkpt lat="42.338922488547176" lon="13.445358501702348"><ele>652.0</ele><time>2026-05-03T07:12:06Z</time></trkpt><trkpt lat="42.33889605034619" lon="13.445506261529482"><ele>653.0</ele><time>2026-05-03T07:12:07Z</time></trkpt><trkpt lat="42.33888629177428" lon="13.445637093308633"><ele>654.0</ele><time>2026-05-03T07:12:08Z</time></trkpt><trkpt lat="42.33886050496474" lon="13.445770112492312"><ele>655.0</ele><time>2026-05-03T07:12:09Z</time></trkpt><trkpt lat="42.33880600286886" lon="13.445889233185381"><ele>656.0</ele><time>2026-05-03T07:12:10Z</time></trkpt><trkpt lat="42.33875097794698" lon="13.4460307799527"><ele>657.0</ele><time>2026-05-03T07:12:11Z</time></trkpt><trkpt lat="42.33868878839232" lon="13.446182953821555"><ele>652.75</ele><time>2026-05-03T07:12:12Z</time></trkpt><trkpt lat="42.33863856362914" lon="13.446350500160346"><ele>648.5</ele><time>2026-05-03T07:12:13Z</time></trkpt><trkpt lat="42.33858073786411" lon="13.446508933468948"><ele>644.25</ele><time>2026-05-03T07:12:14Z</time></trkpt><trkpt lat="42.33852422081617" lon="13.446669215922064"><ele>640.0</ele><time>2026-05-03T07:12:15Z</time></trkpt><trkpt lat="42.338472468214206" lon="13.44682858688645"><ele>640.0</ele><time>2026-05-03T07:12:16Z</time></trkpt><trkpt lat="42.33842568835854" lon="13.446984729836329"><ele>640.0</ele><time>2026-05-03T07:12:17Z</time></trkpt><trkpt lat="42.33838340346916" lon="13.447138409993336"><ele>640.0</ele><time>2026-05-03T07:12:18Z</time></trkpt><trkpt lat="42.338340226259184" lon="13.447292869697499"><ele>640.0</ele><time>2026-05-03T07:12:19Z</time></trkpt><trkpt lat="42.33829176517718" lon="13.44745083494434"><ele>640.25</ele><time>2026-05-03T07:12:20Z</time></trkpt><trkpt lat="42.33825014734665" lon="13.447615083669975"><ele>640.5</ele><time>2026-05-03T07:12:21Z</time></trkpt><trkpt lat="42.33820593324256" lon="13.447779190877013"><ele>640.75</ele><time>2026-05-03T07:12:22Z</time></trkpt><trkpt lat="42.33815833412142" lon="13.447944016435855"><ele>641.0</ele><time>2026-05-03T07:12:23Z</time></trkpt><trkpt lat="42.33810800819221" lon="13.448107682201353"><ele>641.0</ele><time>2026-05-03T07:12:24Z</time></trkpt><trkpt lat="42.33806226462309" lon="13.44826896160835"><ele>641.0</ele><time>2026-05-03T07:12:25Z</time></trkpt><trkpt lat="42.338013336702765" lon="13.44842617899883"><ele>641.0</ele><time>2026-05-03T07:12:26Z</time></trkpt><trkpt lat="42.33796946460451" lon="13.44858437345527"><ele>641.0</ele><time>2026-05-03T07:12:27Z</time></trkpt><trkpt lat="42.33792334011698" lon="13.448736844120166"><ele>637.0</ele><time>2026-05-03T07:12:28Z</time></trkpt><trkpt lat="42.33787614848284" lon="13.44888947524998"><ele>633.0</ele><time>2026-05-03T07:12:29Z</time></trkpt><trkpt lat="42.33783424302456" lon="13.449041326750477"><ele>629.0</ele><time>2026-05-03T07:12:30Z</time></trkpt><trkpt lat="42.33779626097529" lon="13.449190291447517"><ele>625.0</ele><time>2026-05-03T07:12:31Z</time></trkpt><trkpt lat="42.33777031246996" lon="13.449340587411609"><ele>625.0</ele><time>2026-05-03T07:12:32Z</time></trkpt><trkpt lat="42.3377574631638" lon="13.449489913603351"><ele>625.0</ele><time>2026-05-03T07:12:33Z</time></trkpt><trkpt lat="42.33775827640941" lon="13.449640828357607"><ele>625.0</ele><time>2026-05-03T07:12:34Z</time></trkpt><trkpt lat="42.3377705676751" lon="13.449796042712984"><ele>625.0</ele><time>2026-05-03T07:12:35Z</time></trkpt><trkpt lat="42.33779029313995" lon="13.44995190708444"><ele>624.75</ele><time>2026-05-03T07:12:36Z</time></trkpt><trkpt lat="42.337808990208856" lon="13.450110801655063"><ele>624.5</ele><time>2026-05-03T07:12:37Z</time></trkpt><trkpt lat="42.33782481368456" lon="13.450267338667434"><ele>624.25</ele><time>2026-05-03T07:12:38Z</time></trkpt><trkpt lat="42.33783821989279" lon="13.450426242552542"><ele>624.0</ele><time>2026-05-03T07:12:39Z</time></trkpt><trkpt lat="42.337847199636236" lon="13.450586943943428"><ele>623.5</ele><time>2026-05-03T07:12:40Z</time></trkpt><trkpt lat="42.33785387596694" lon="13.450751405196876"><ele>623.0</ele><time>2026-05-03T07:12:41Z</time></trkpt><trkpt lat="42.33786152997163" lon="13.45091660641041"><ele>622.5</ele><time>2026-05-03T07:12:42Z</time></trkpt><trkpt lat="42.33785270977286" lon="13.451068803306628"><ele>622.0</ele><time>2026-05-03T07:12:43Z</time></trkpt><trkpt lat="42.337859961764536" lon="13.451214648788396"><ele>621.5</ele><time>2026-05-03T07:12:44Z</time></trkpt><trkpt lat="42.33791023957888" lon="13.451360675400958"><ele>621.0</ele><time>2026-05-03T07:12:45Z</time></trkpt><trkpt lat="42.33793214138699" lon="13.451514873628538"><ele>620.5</ele><time>2026-05-03T07:12:46Z</time></trkpt><trkpt lat="42.33795992547804" lon="13.451669115187851"><ele>620.0</ele><time>2026-05-03T07:12:47Z</time></trkpt><trkpt lat="42.33790790235045" lon="13.451806321789443"><ele>620.0</ele><time>2026-05-03T07:12:48Z</time></trkpt><trkpt lat="42.33789917058991" lon="13.45196364527229"><ele>620.0</ele><time>2026-05-03T07:12:49Z</time></trkpt><trkpt lat="42.33790510064852" lon="13.452112489517914"><ele>620.0</ele><time>2026-05-03T07:12:50Z</time></trkpt><trkpt lat="42.33790885913059" lon="13.452255168385573"><ele>620.0</ele><time>2026-05-03T07:12:51Z</time></trkpt><trkpt lat="42.33791259402324" lon="13.452383670357719"><ele>620.0</ele><time>2026-05-03T07:12:52Z</time></trkpt><trkpt lat="42.3379161678788" lon="13.452506631774954"><ele>619.2</ele><time>2026-05-03T07:12:53Z</time></trkpt><trkpt lat="42.337920478808414" lon="13.45262404516552"><ele>618.4</ele><time>2026-05-03T07:12:54Z</time></trkpt><trkpt lat="42.3379274522039" lon="13.452730054871939"><ele>617.6</ele><time>2026-05-03T07:12:55Z</time></trkpt><trkpt lat="42.3379405952002" lon="13.452866075722898"><ele>616.8</ele><time>2026-05-03T07:12:57Z</time></trkpt><trkpt lat="42.337949033306685" lon="13.45301181089327"><ele>616.0</ele><time>2026-05-03T07:13:05Z</time></trkpt><trkpt lat="42.33795732839688" lon="13.453155075715758"><ele>619.0</ele><time>2026-05-03T07:13:07Z</time></trkpt><trkpt lat="42.33813047245897" lon="13.45330245493734"><ele>622.0</ele><time>2026-05-03T07:13:09Z</time></trkpt><trkpt lat="42.338149609830865" lon="13.453391544243793"><ele>625.0</ele><time>2026-05-03T07:13:10Z</time></trkpt><trkpt lat="42.338163623266226" lon="13.453490368733963"><ele>628.0</ele><time>2026-05-03T07:13:11Z</time></trkpt><trkpt lat="42.3381886949808" lon="13.453615375558048"><ele>631.0</ele><time>2026-05-03T07:13:13.001Z</time></trkpt><trkpt lat="42.33818919557356" lon="13.453702355359042"><ele>631.0</ele><time>2026-05-03T07:13:15.001Z</time></trkpt><trkpt lat="42.33819985338573" lon="13.453786470223559"><ele>631.0</ele><time>2026-05-03T07:13:19.001Z</time></trkpt><trkpt lat="42.33825692004568" lon="13.454018058394448"><ele>631.0</ele><time>2026-05-03T07:13:23.001Z</time></trkpt><trkpt lat="42.33826189397026" lon="13.454145096117577"><ele>631.0</ele><time>2026-05-03T07:13:24.001Z</time></trkpt><trkpt lat="42.33829484878165" lon="13.454221923828689"><ele>631.0</ele><time>2026-05-03T07:13:25.001Z</time></trkpt><trkpt lat="42.338311456513466" lon="13.45431118971205"><ele>630.2</ele><time>2026-05-03T07:13:26.001Z</time></trkpt><trkpt lat="42.33844917494339" lon="13.454407855034331"><ele>629.4000000000001</ele><time>2026-05-03T07:13:28.001Z</time></trkpt><trkpt lat="42.33847015300881" lon="13.454493951308704"><ele>628.6</ele><time>2026-05-03T07:13:29.001Z</time></trkpt><trkpt lat="42.33849040766025" lon="13.454577077836788"><ele>627.8000000000001</ele><time>2026-05-03T07:13:30.001Z</time></trkpt><trkpt lat="42.338531782826756" lon="13.454705479564106"><ele>627.0</ele><time>2026-05-03T07:13:32.001Z</time></trkpt><trkpt lat="42.33858815218683" lon="13.454773478621519"><ele>624.0</ele><time>2026-05-03T07:13:35.001Z</time></trkpt><trkpt lat="42.33865662447785" lon="13.454899743054952"><ele>621.0</ele><time>2026-05-03T07:13:37Z</time></trkpt><trkpt lat="42.33818321146307" lon="13.455526512737487"><ele>617.8</ele><time>2026-05-03T07:13:42Z</time></trkpt><trkpt lat="42.33810348988045" lon="13.455509497675033"><ele>614.6</ele><time>2026-05-03T07:13:44Z</time></trkpt><trkpt lat="42.33815943519464" lon="13.455611677376242"><ele>611.4</ele><time>2026-05-03T07:13:51Z</time></trkpt><trkpt lat="42.33825175684527" lon="13.455621027184197"><ele>608.2</ele><time>2026-05-03T07:13:52Z</time></trkpt><trkpt lat="42.3383457804795" lon="13.455660136414547"><ele>605.0</ele><time>2026-05-03T07:13:53Z</time></trkpt><trkpt lat="42.33845280068076" lon="13.455702557864804"><ele>605.0</ele><time>2026-05-03T07:13:54Z</time></trkpt><trkpt lat="42.338558069727284" lon="13.45573985395333"><ele>605.0</ele><time>2026-05-03T07:13:55Z</time></trkpt><trkpt lat="42.33866703199093" lon="13.455770250067454"><ele>605.0</ele><time>2026-05-03T07:13:56Z</time></trkpt><trkpt lat="42.33876509950412" lon="13.455812724644034"><ele>605.0</ele><time>2026-05-03T07:13:57Z</time></trkpt><trkpt lat="42.33885921680033" lon="13.455863492250247"><ele>605.0</ele><time>2026-05-03T07:13:58Z</time></trkpt><trkpt lat="42.33895145908337" lon="13.455904527444467"><ele>606.0</ele><time>2026-05-03T07:13:59Z</time></trkpt><trkpt lat="42.339048648432325" lon="13.455934705498557"><ele>607.0</ele><time>2026-05-03T07:14:00Z</time></trkpt><trkpt lat="42.33915474037612" lon="13.455969983505526"><ele>608.0</ele><time>2026-05-03T07:14:01Z</time></trkpt><trkpt lat="42.33926167561333" lon="13.455998040166536"><ele>609.0</ele><time>2026-05-03T07:14:02Z</time></trkpt><trkpt lat="42.33936626296868" lon="13.455999868960514"><ele>610.0</ele><time>2026-05-03T07:14:03Z</time></trkpt><trkpt lat="42.33946378539655" lon="13.455990502560196"><ele>610.0</ele><time>2026-05-03T07:14:04Z</time></trkpt><trkpt lat="42.339552922242774" lon="13.455995293201397"><ele>610.0</ele><time>2026-05-03T07:14:05Z</time></trkpt><trkpt lat="42.33963125075161" lon="13.456028408676456"><ele>610.0</ele><time>2026-05-03T07:14:06Z</time></trkpt><trkpt lat="42.33968626586635" lon="13.456099007193973"><ele>610.0</ele><time>2026-05-03T07:14:07Z</time></trkpt><trkpt lat="42.3397151298538" lon="13.456190468227241"><ele>610.0</ele><time>2026-05-03T07:14:08Z</time></trkpt><trkpt lat="42.339728310215236" lon="13.456281312854701"><ele>610.0</ele><time>2026-05-03T07:14:09Z</time></trkpt><trkpt lat="42.33973679429661" lon="13.456444829302312"><ele>607.75</ele><time>2026-05-03T07:14:11Z</time></trkpt><trkpt lat="42.33974640240285" lon="13.456597899634033"><ele>605.5</ele><time>2026-05-03T07:14:13Z</time></trkpt><trkpt lat="42.339779034986186" lon="13.456673158153745"><ele>603.25</ele><time>2026-05-03T07:14:16Z</time></trkpt><trkpt lat="42.33993398461073" lon="13.456727428539448"><ele>601.0</ele><time>2026-05-03T07:14:18Z</time></trkpt><trkpt lat="42.34005173070635" lon="13.456745002048347"><ele>601.0</ele><time>2026-05-03T07:14:19Z</time></trkpt><trkpt lat="42.34018708249738" lon="13.456790077778521"><ele>601.0</ele><time>2026-05-03T07:14:20Z</time></trkpt><trkpt lat="42.340338502435216" lon="13.456849152886573"><ele>601.0</ele><time>2026-05-03T07:14:21Z</time></trkpt><trkpt lat="42.34050030172801" lon="13.456905915926223"><ele>600.6666666666667</ele><time>2026-05-03T07:14:22Z</time></trkpt><trkpt lat="42.34065367059945" lon="13.45696139955211"><ele>600.3333333333334</ele><time>2026-05-03T07:14:23Z</time></trkpt><trkpt lat="42.34080474147464" lon="13.457021670995111"><ele>600.0</ele><time>2026-05-03T07:14:24Z</time></trkpt><trkpt lat="42.34095533604268" lon="13.457089296562097"><ele>600.6666666666666</ele><time>2026-05-03T07:14:25Z</time></trkpt><trkpt lat="42.34110610846397" lon="13.457163939841436"><ele>601.3333333333333</ele><time>2026-05-03T07:14:26Z</time></trkpt><trkpt lat="42.34124757970362" lon="13.457256447580523"><ele>602.0</ele><time>2026-05-03T07:14:27Z</time></trkpt><trkpt lat="42.341367065370235" lon="13.457361355939335"><ele>601.6666666666666</ele><time>2026-05-03T07:14:28Z</time></trkpt><trkpt lat="42.3414745577474" lon="13.457491972724958"><ele>601.3333333333334</ele><time>2026-05-03T07:14:29Z</time></trkpt><trkpt lat="42.341579188350124" lon="13.457643905788977"><ele>601.0</ele><time>2026-05-03T07:14:30Z</time></trkpt><trkpt lat="42.34168959476814" lon="13.457801707248143"><ele>601.0</ele><time>2026-05-03T07:14:31Z</time></trkpt><trkpt lat="42.34180659383466" lon="13.457954487176249"><ele>601.0</ele><time>2026-05-03T07:14:32Z</time></trkpt><trkpt lat="42.34192353384091" lon="13.458108065837338"><ele>601.0</ele><time>2026-05-03T07:14:33Z</time></trkpt><trkpt lat="42.34204337444445" lon="13.458262531617754"><ele>601.0</ele><time>2026-05-03T07:14:34Z</time></trkpt><trkpt lat="42.34216278894446" lon="13.458417769327168"><ele>601.0</ele><time>2026-05-03T07:14:35Z</time></trkpt><trkpt lat="42.342282725953034" lon="13.458572969703445"><ele>601.0</ele><time>2026-05-03T07:14:36Z</time></trkpt><trkpt lat="42.34240046088441" lon="13.458732560723652"><ele>601.0</ele><time>2026-05-03T07:14:37Z</time></trkpt><trkpt lat="42.342516921395976" lon="13.45889220565183"><ele>601.0</ele><time>2026-05-03T07:14:38Z</time></trkpt><trkpt lat="42.34264011492262" lon="13.45904706469859"><ele>601.0</ele><time>2026-05-03T07:14:39Z</time></trkpt><trkpt lat="42.342757332837394" lon="13.459195803326955"><ele>601.0</ele><time>2026-05-03T07:14:40Z</time></trkpt><trkpt lat="42.342871930479134" lon="13.459349129858188"><ele>601.0</ele><time>2026-05-03T07:14:41Z</time></trkpt><trkpt lat="42.342981208216344" lon="13.459497147822415"><ele>601.0</ele><time>2026-05-03T07:14:42Z</time></trkpt><trkpt lat="42.343092603217784" lon="13.459641948631393"><ele>602.25</ele><time>2026-05-03T07:14:43Z</time></trkpt><trkpt lat="42.343200706953986" lon="13.459784185754723"><ele>603.5</ele><time>2026-05-03T07:14:44Z</time></trkpt><trkpt lat="42.343307473752105" lon="13.459925777377245"><ele>604.75</ele><time>2026-05-03T07:14:45Z</time></trkpt><trkpt lat="42.343412636601876" lon="13.460067059296604"><ele>606.0</ele><time>2026-05-03T07:14:46Z</time></trkpt><trkpt lat="42.343515614289004" lon="13.460204803084576"><ele>606.0</ele><time>2026-05-03T07:14:47Z</time></trkpt><trkpt lat="42.34361995560935" lon="13.460338942070441"><ele>606.0</ele><time>2026-05-03T07:14:48Z</time></trkpt><trkpt lat="42.34371849193719" lon="13.460465309715696"><ele>606.0</ele><time>2026-05-03T07:14:49Z</time></trkpt><trkpt lat="42.34381299918001" lon="13.460586448211949"><ele>606.0</ele><time>2026-05-03T07:14:50Z</time></trkpt><trkpt lat="42.34390506758927" lon="13.460706080858435"><ele>607.0</ele><time>2026-05-03T07:14:51Z</time></trkpt><trkpt lat="42.34399712175455" lon="13.460823325473847"><ele>608.0</ele><time>2026-05-03T07:14:52Z</time></trkpt><trkpt lat="42.34408227935603" lon="13.460931629818093"><ele>609.0</ele><time>2026-05-03T07:14:53Z</time></trkpt><trkpt lat="42.34417393834583" lon="13.461044787124324"><ele>610.0</ele><time>2026-05-03T07:14:54Z</time></trkpt><trkpt lat="42.344277561361984" lon="13.461171077649276"><ele>609.6666666666667</ele><time>2026-05-03T07:14:55Z</time></trkpt><trkpt lat="42.3443907285461" lon="13.461310012144258"><ele>609.3333333333334</ele><time>2026-05-03T07:14:56Z</time></trkpt><trkpt lat="42.34450568704613" lon="13.461447805424728"><ele>609.0</ele><time>2026-05-03T07:14:57Z</time></trkpt><trkpt lat="42.344624609567205" lon="13.461585635646182"><ele>609.75</ele><time>2026-05-03T07:14:58Z</time></trkpt><trkpt lat="42.34474162325386" lon="13.461716034385116"><ele>610.5</ele><time>2026-05-03T07:14:59Z</time></trkpt><trkpt lat="42.344849694247415" lon="13.461837920531034"><ele>611.25</ele><time>2026-05-03T07:15:00Z</time></trkpt><trkpt lat="42.344951114037265" lon="13.461950648103327"><ele>612.0</ele><time>2026-05-03T07:15:01Z</time></trkpt><trkpt lat="42.34504515646265" lon="13.462044824905727"><ele>612.0</ele><time>2026-05-03T07:15:02Z</time></trkpt><trkpt lat="42.345136079921794" lon="13.462126480469204"><ele>612.0</ele><time>2026-05-03T07:15:03Z</time></trkpt><trkpt lat="42.345220249579036" lon="13.462200446803456"><ele>612.0</ele><time>2026-05-03T07:15:04Z</time></trkpt><trkpt lat="42.345296179339144" lon="13.462270613366528"><ele>612.0</ele><time>2026-05-03T07:15:05Z</time></trkpt><trkpt lat="42.345363970150956" lon="13.46233370040308"><ele>612.0</ele><time>2026-05-03T07:15:06Z</time></trkpt><trkpt lat="42.34542515059248" lon="13.462390292559999"><ele>612.0</ele><time>2026-05-03T07:15:07Z</time></trkpt><trkpt lat="42.34551268991513" lon="13.462463335588856"><ele>612.0</ele><time>2026-05-03T07:15:09Z</time></trkpt><trkpt lat="42.34556818436148" lon="13.462532233811256"><ele>612.0</ele><time>2026-05-03T07:15:13Z</time></trkpt><trkpt lat="42.34563239342838" lon="13.462597521737862"><ele>612.0</ele><time>2026-05-03T07:15:15Z</time></trkpt><trkpt lat="42.34561067297431" lon="13.462684546770094"><ele>612.0</ele><time>2026-05-03T07:15:17Z</time></trkpt><trkpt lat="42.34552203041485" lon="13.462793267285834"><ele>612.0</ele><time>2026-05-03T07:15:19.001Z</time></trkpt><trkpt lat="42.34544622702789" lon="13.462881132855092"><ele>612.5</ele><time>2026-05-03T07:15:20.001Z</time></trkpt><trkpt lat="42.34536473284772" lon="13.462993399202741"><ele>613.0</ele><time>2026-05-03T07:15:21.001Z</time></trkpt><trkpt lat="42.34528182185691" lon="13.46311482243069"><ele>613.5</ele><time>2026-05-03T07:15:22.001Z</time></trkpt><trkpt lat="42.34520841335843" lon="13.463247783136563"><ele>614.0</ele><time>2026-05-03T07:15:23.001Z</time></trkpt><trkpt lat="42.345132692199925" lon="13.463386764505346"><ele>614.0</ele><time>2026-05-03T07:15:24.001Z</time></trkpt><trkpt lat="42.34506476394473" lon="13.46352527963873"><ele>614.0</ele><time>2026-05-03T07:15:25.001Z</time></trkpt><trkpt lat="42.34500562511529" lon="13.463668989514911"><ele>614.0</ele><time>2026-05-03T07:15:26.001Z</time></trkpt><trkpt lat="42.344962494775395" lon="13.463823219625185"><ele>614.0</ele><time>2026-05-03T07:15:27.001Z</time></trkpt><trkpt lat="42.34492729155393" lon="13.463991504641498"><ele>614.25</ele><time>2026-05-03T07:15:28.001Z</time></trkpt><trkpt lat="42.34489418803319" lon="13.464148969584633"><ele>614.5</ele><time>2026-05-03T07:15:29.001Z</time></trkpt><trkpt lat="42.34487033883202" lon="13.464299847432072"><ele>614.75</ele><time>2026-05-03T07:15:30.001Z</time></trkpt><trkpt lat="42.344836153132654" lon="13.464445438412096"><ele>615.0</ele><time>2026-05-03T07:15:31.001Z</time></trkpt><trkpt lat="42.34479814241853" lon="13.464577689619539"><ele>615.0</ele><time>2026-05-03T07:15:32.001Z</time></trkpt><trkpt lat="42.344760121591825" lon="13.464719418607697"><ele>615.0</ele><time>2026-05-03T07:15:33.001Z</time></trkpt><trkpt lat="42.34473049808505" lon="13.464858057477322"><ele>615.0</ele><time>2026-05-03T07:15:34.001Z</time></trkpt><trkpt lat="42.3446982365721" lon="13.464980879351168"><ele>615.0</ele><time>2026-05-03T07:15:35.001Z</time></trkpt><trkpt lat="42.3446711354421" lon="13.465088398861173"><ele>615.0</ele><time>2026-05-03T07:15:36Z</time></trkpt><trkpt lat="42.344650793755676" lon="13.465193064545527"><ele>614.8</ele><time>2026-05-03T07:15:37Z</time></trkpt><trkpt lat="42.34463019916652" lon="13.465305841924446"><ele>614.6</ele><time>2026-05-03T07:15:38Z</time></trkpt><trkpt lat="42.344601658423834" lon="13.465425008816498"><ele>614.4</ele><time>2026-05-03T07:15:39Z</time></trkpt><trkpt lat="42.344558454157166" lon="13.465537747473968"><ele>614.2</ele><time>2026-05-03T07:15:40Z</time></trkpt><trkpt lat="42.344513035058625" lon="13.465649906244991"><ele>614.0</ele><time>2026-05-03T07:15:41Z</time></trkpt><trkpt lat="42.34447100121397" lon="13.465753414678868"><ele>614.0</ele><time>2026-05-03T07:15:42Z</time></trkpt><trkpt lat="42.34441998129915" lon="13.465837152151227"><ele>614.0</ele><time>2026-05-03T07:15:43Z</time></trkpt><trkpt lat="42.34438394509839" lon="13.465915151915759"><ele>614.0</ele><time>2026-05-03T07:15:44Z</time></trkpt><trkpt lat="42.34434577333221" lon="13.466001101010265"><ele>614.0</ele><time>2026-05-03T07:15:46Z</time></trkpt><trkpt lat="42.344524768357275" lon="13.46615767312764"><ele>614.0</ele><time>2026-05-03T07:15:49Z</time></trkpt><trkpt lat="42.34463011064484" lon="13.466198235032353"><ele>614.25</ele><time>2026-05-03T07:15:50Z</time></trkpt><trkpt lat="42.34474407641776" lon="13.46623749721334"><ele>614.5</ele><time>2026-05-03T07:15:51Z</time></trkpt><trkpt lat="42.34485524468851" lon="13.466269007458248"><ele>614.75</ele><time>2026-05-03T07:15:52Z</time></trkpt><trkpt lat="42.34497085524037" lon="13.466295498914414"><ele>615.0</ele><time>2026-05-03T07:15:53Z</time></trkpt><trkpt lat="42.34508496285619" lon="13.466307195173068"><ele>615.0</ele><time>2026-05-03T07:15:54Z</time></trkpt><trkpt lat="42.34518915987282" lon="13.466301038844826"><ele>615.0</ele><time>2026-05-03T07:15:55Z</time></trkpt><trkpt lat="42.34528381375092" lon="13.466290886816289"><ele>615.0</ele><time>2026-05-03T07:15:56Z</time></trkpt><trkpt lat="42.345370247744185" lon="13.46628096647408"><ele>615.0</ele><time>2026-05-03T07:15:57Z</time></trkpt><trkpt lat="42.34545421593856" lon="13.466286557295438"><ele>615.0</ele><time>2026-05-03T07:15:58Z</time></trkpt><trkpt lat="42.34554477207886" lon="13.46632285062451"><ele>616.0</ele><time>2026-05-03T07:15:59Z</time></trkpt><trkpt lat="42.34564147403359" lon="13.466377358415432"><ele>617.0</ele><time>2026-05-03T07:16:00Z</time></trkpt><trkpt lat="42.34575138636227" lon="13.46644198239374"><ele>618.0</ele><time>2026-05-03T07:16:01Z</time></trkpt><trkpt lat="42.345863432482524" lon="13.466513520362556"><ele>619.0</ele><time>2026-05-03T07:16:02Z</time></trkpt><trkpt lat="42.345975780811074" lon="13.466585571287535"><ele>619.0</ele><time>2026-05-03T07:16:03Z</time></trkpt><trkpt lat="42.34608168978859" lon="13.466648442319284"><ele>619.0</ele><time>2026-05-03T07:16:04Z</time></trkpt><trkpt lat="42.34616986039005" lon="13.466708979989434"><ele>619.0</ele><time>2026-05-03T07:16:05Z</time></trkpt><trkpt lat="42.34624419051161" lon="13.466762421124404"><ele>619.0</ele><time>2026-05-03T07:16:06Z</time></trkpt><trkpt lat="42.346318959455814" lon="13.466825081887528"><ele>619.0</ele><time>2026-05-03T07:16:07Z</time></trkpt><trkpt lat="42.34638860083625" lon="13.466903206031635"><ele>619.4</ele><time>2026-05-03T07:16:08Z</time></trkpt><trkpt lat="42.346457071812466" lon="13.46700307386057"><ele>619.8</ele><time>2026-05-03T07:16:09Z</time></trkpt><trkpt lat="42.34652812918132" lon="13.467117647564162"><ele>620.2</ele><time>2026-05-03T07:16:10Z</time></trkpt><trkpt lat="42.34660108450372" lon="13.4672382477305"><ele>620.6</ele><time>2026-05-03T07:16:11Z</time></trkpt><trkpt lat="42.34667595132857" lon="13.467359598208144"><ele>621.0</ele><time>2026-05-03T07:16:12Z</time></trkpt><trkpt lat="42.34674874528905" lon="13.467475099457634"><ele>621.0</ele><time>2026-05-03T07:16:13Z</time></trkpt><trkpt lat="42.34681646914421" lon="13.467582867501271"><ele>621.0</ele><time>2026-05-03T07:16:14Z</time></trkpt><trkpt lat="42.346880102479666" lon="13.46768846874635"><ele>621.0</ele><time>2026-05-03T07:16:15Z</time></trkpt><trkpt lat="42.34693810862949" lon="13.46778098201497"><ele>621.0</ele><time>2026-05-03T07:16:16Z</time></trkpt><trkpt lat="42.34699542363447" lon="13.467846437817366"><ele>621.0</ele><time>2026-05-03T07:16:17Z</time></trkpt><trkpt lat="42.347058932039964" lon="13.46788421180209"><ele>621.0</ele><time>2026-05-03T07:16:18Z</time></trkpt><trkpt lat="42.34714022947924" lon="13.467886097367854"><ele>621.4</ele><time>2026-05-03T07:16:19Z</time></trkpt><trkpt lat="42.34723259292281" lon="13.467862220239438"><ele>621.8</ele><time>2026-05-03T07:16:20Z</time></trkpt><trkpt lat="42.347325211970315" lon="13.467836739487879"><ele>622.1999999999999</ele><time>2026-05-03T07:16:21Z</time></trkpt><trkpt lat="42.34741867511501" lon="13.467827185277732"><ele>622.6</ele><time>2026-05-03T07:16:22Z</time></trkpt><trkpt lat="42.347509153448414" lon="13.467837725463653"><ele>623.0</ele><time>2026-05-03T07:16:23Z</time></trkpt><trkpt lat="42.34759351830054" lon="13.467862122457834"><ele>623.0</ele><time>2026-05-03T07:16:24Z</time></trkpt><trkpt lat="42.34767599111396" lon="13.467903735602928"><ele>623.0</ele><time>2026-05-03T07:16:25Z</time></trkpt><trkpt lat="42.34776429887798" lon="13.467948848753863"><ele>623.0</ele><time>2026-05-03T07:16:26Z</time></trkpt><trkpt lat="42.34786973583094" lon="13.467987863850773"><ele>623.0</ele><time>2026-05-03T07:16:27Z</time></trkpt><trkpt lat="42.34799115178912" lon="13.468026836794506"><ele>623.0</ele><time>2026-05-03T07:16:28Z</time></trkpt><trkpt lat="42.348130316133606" lon="13.468065715542679"><ele>623.5</ele><time>2026-05-03T07:16:29Z</time></trkpt><trkpt lat="42.34827389056948" lon="13.468111874370008"><ele>624.0</ele><time>2026-05-03T07:16:30Z</time></trkpt><trkpt lat="42.34841250534579" lon="13.468171992715789"><ele>624.5</ele><time>2026-05-03T07:16:31Z</time></trkpt><trkpt lat="42.348542864221976" lon="13.46824058562321"><ele>625.0</ele><time>2026-05-03T07:16:32Z</time></trkpt><trkpt lat="42.34867674968585" lon="13.468297400402653"><ele>625.0</ele><time>2026-05-03T07:16:33Z</time></trkpt><trkpt lat="42.34881000616467" lon="13.468348012354776"><ele>625.0</ele><time>2026-05-03T07:16:34Z</time></trkpt><trkpt lat="42.34894105885499" lon="13.46839309788472"><ele>625.0</ele><time>2026-05-03T07:16:35Z</time></trkpt><trkpt lat="42.34905801805151" lon="13.468433578626405"><ele>625.0</ele><time>2026-05-03T07:16:36Z</time></trkpt><trkpt lat="42.349168246625446" lon="13.468461583770234"><ele>625.6</ele><time>2026-05-03T07:16:37Z</time></trkpt><trkpt lat="42.34926602130042" lon="13.468470603077954"><ele>626.2</ele><time>2026-05-03T07:16:38Z</time></trkpt><trkpt lat="42.3493552154754" lon="13.468475071993504"><ele>626.8</ele><time>2026-05-03T07:16:39Z</time></trkpt><trkpt lat="42.34944587166679" lon="13.468480992667102"><ele>627.4</ele><time>2026-05-03T07:16:40Z</time></trkpt><trkpt lat="42.34954417748826" lon="13.468489030998299"><ele>628.0</ele><time>2026-05-03T07:16:41Z</time></trkpt><trkpt lat="42.349648786102655" lon="13.468491183184652"><ele>628.1999999999999</ele><time>2026-05-03T07:16:42Z</time></trkpt><trkpt lat="42.34975636072722" lon="13.468491055519685"><ele>628.4</ele><time>2026-05-03T07:16:43Z</time></trkpt><trkpt lat="42.349857928590815" lon="13.468490312380947"><ele>628.5999999999999</ele><time>2026-05-03T07:16:44Z</time></trkpt><trkpt lat="42.34995143729004" lon="13.46849599002088"><ele>628.8</ele><time>2026-05-03T07:16:45Z</time></trkpt><trkpt lat="42.35004591455808" lon="13.468523587996456"><ele>629.0</ele><time>2026-05-03T07:16:46Z</time></trkpt><trkpt lat="42.350140885426775" lon="13.468575637597061"><ele>629.0</ele><time>2026-05-03T07:16:47Z</time></trkpt><trkpt lat="42.35022083607732" lon="13.468647855538824"><ele>629.0</ele><time>2026-05-03T07:16:48Z</time></trkpt><trkpt lat="42.35029455970665" lon="13.468737523958811"><ele>629.0</ele><time>2026-05-03T07:16:49Z</time></trkpt><trkpt lat="42.350380421104134" lon="13.468824080486078"><ele>629.0</ele><time>2026-05-03T07:16:50Z</time></trkpt><trkpt lat="42.35047160553767" lon="13.468902041356154"><ele>629.0</ele><time>2026-05-03T07:16:51Z</time></trkpt><trkpt lat="42.350558239980394" lon="13.468967844594136"><ele>629.4</ele><time>2026-05-03T07:16:52Z</time></trkpt><trkpt lat="42.35064633923239" lon="13.4690130027514"><ele>629.8</ele><time>2026-05-03T07:16:53Z</time></trkpt><trkpt lat="42.350740611996756" lon="13.46903840441748"><ele>630.2</ele><time>2026-05-03T07:16:54Z</time></trkpt><trkpt lat="42.35083841470603" lon="13.469058384300785"><ele>630.6</ele><time>2026-05-03T07:16:55Z</time></trkpt><trkpt lat="42.35092980274861" lon="13.469066527039661"><ele>631.0</ele><time>2026-05-03T07:16:56Z</time></trkpt><trkpt lat="42.35101427073185" lon="13.469065515575165"><ele>631.0</ele><time>2026-05-03T07:16:57Z</time></trkpt><trkpt lat="42.35109930947172" lon="13.469038418325509"><ele>631.0</ele><time>2026-05-03T07:16:58Z</time></trkpt><trkpt lat="42.351183602920685" lon="13.468997063600577"><ele>631.0</ele><time>2026-05-03T07:16:59Z</time></trkpt><trkpt lat="42.35127225864061" lon="13.468948020058553"><ele>631.0</ele><time>2026-05-03T07:17:00Z</time></trkpt><trkpt lat="42.35135738353772" lon="13.468887935805546"><ele>631.0</ele><time>2026-05-03T07:17:01Z</time></trkpt><trkpt lat="42.35143097978206" lon="13.468813804518334"><ele>632.0</ele><time>2026-05-03T07:17:02Z</time></trkpt><trkpt lat="42.35147666854581" lon="13.468750511481867"><ele>633.0</ele><time>2026-05-03T07:17:03Z</time></trkpt><trkpt lat="42.35155506995576" lon="13.468667863949296"><ele>634.0</ele><time>2026-05-03T07:17:05Z</time></trkpt><trkpt lat="42.351712283027126" lon="13.468728121131457"><ele>635.0</ele><time>2026-05-03T07:17:08Z</time></trkpt><trkpt lat="42.35177731182191" lon="13.468815663884078"><ele>636.0</ele><time>2026-05-03T07:17:09Z</time></trkpt><trkpt lat="42.35185488721297" lon="13.468916068032419"><ele>636.0</ele><time>2026-05-03T07:17:10Z</time></trkpt><trkpt lat="42.35193757284783" lon="13.46902680137421"><ele>636.0</ele><time>2026-05-03T07:17:11Z</time></trkpt><trkpt lat="42.35201966436229" lon="13.46913126845099"><ele>636.0</ele><time>2026-05-03T07:17:12Z</time></trkpt><trkpt lat="42.35210544055213" lon="13.46923167759174"><ele>636.0</ele><time>2026-05-03T07:17:13Z</time></trkpt><trkpt lat="42.3521809552439" lon="13.469316752921493"><ele>636.0</ele><time>2026-05-03T07:17:14Z</time></trkpt><trkpt lat="42.35224890304368" lon="13.469390959361093"><ele>636.2</ele><time>2026-05-03T07:17:15Z</time></trkpt><trkpt lat="42.352312169480435" lon="13.469458786780528"><ele>636.4000000000001</ele><time>2026-05-03T07:17:16Z</time></trkpt><trkpt lat="42.35238051995468" lon="13.469535857444193"><ele>636.6</ele><time>2026-05-03T07:17:17Z</time></trkpt><trkpt lat="42.352451634314185" lon="13.469620492393036"><ele>636.8000000000001</ele><time>2026-05-03T07:17:18Z</time></trkpt><trkpt lat="42.35252313575806" lon="13.469704503290734"><ele>637.0</ele><time>2026-05-03T07:17:19Z</time></trkpt><trkpt lat="42.35259525711008" lon="13.469784747790545"><ele>637.4</ele><time>2026-05-03T07:17:20Z</time></trkpt><trkpt lat="42.352665246215786" lon="13.46986213677644"><ele>637.8000000000001</ele><time>2026-05-03T07:17:21Z</time></trkpt><trkpt lat="42.35273574152678" lon="13.469937793653086"><ele>638.2</ele><time>2026-05-03T07:17:22Z</time></trkpt><trkpt lat="42.352803788946396" lon="13.470015426634452"><ele>638.6</ele><time>2026-05-03T07:17:23Z</time></trkpt><trkpt lat="42.35287020481543" lon="13.470096628371255"><ele>639.0</ele><time>2026-05-03T07:17:24Z</time></trkpt><trkpt lat="42.352931891679575" lon="13.470187201787347"><ele>639.0</ele><time>2026-05-03T07:17:25Z</time></trkpt><trkpt lat="42.35298961499028" lon="13.470282353365132"><ele>639.0</ele><time>2026-05-03T07:17:26Z</time></trkpt><trkpt lat="42.35305166712951" lon="13.470378310441552"><ele>639.0</ele><time>2026-05-03T07:17:27Z</time></trkpt><trkpt lat="42.353115248716705" lon="13.470475287489192"><ele>639.0</ele><time>2026-05-03T07:17:28Z</time></trkpt><trkpt lat="42.35317676403552" lon="13.470573424769222"><ele>639.0</ele><time>2026-05-03T07:17:29Z</time></trkpt><trkpt lat="42.35323252695559" lon="13.470672031039301"><ele>639.5</ele><time>2026-05-03T07:17:30Z</time></trkpt><trkpt lat="42.353282852611585" lon="13.470768411469406"><ele>640.0</ele><time>2026-05-03T07:17:31Z</time></trkpt><trkpt lat="42.35331301536292" lon="13.47088224138004"><ele>640.5</ele><time>2026-05-03T07:17:32Z</time></trkpt><trkpt lat="42.35335878151766" lon="13.470987685107026"><ele>641.0</ele><time>2026-05-03T07:17:33Z</time></trkpt><trkpt lat="42.353414646330165" lon="13.471077805127349"><ele>641.5</ele><time>2026-05-03T07:17:34Z</time></trkpt><trkpt lat="42.35345847021456" lon="13.471173828636603"><ele>642.0</ele><time>2026-05-03T07:17:35Z</time></trkpt><trkpt lat="42.35351057406075" lon="13.471254552775319"><ele>642.0</ele><time>2026-05-03T07:17:36Z</time></trkpt><trkpt lat="42.35356561822407" lon="13.471328160447861"><ele>642.0</ele><time>2026-05-03T07:17:37Z</time></trkpt><trkpt lat="42.35361222644332" lon="13.471387593923735"><ele>642.0</ele><time>2026-05-03T07:17:38Z</time></trkpt><trkpt lat="42.35368366215144" lon="13.471469177189341"><ele>642.0</ele><time>2026-05-03T07:17:40Z</time></trkpt><trkpt lat="42.35370653269015" lon="13.471562559773018"><ele>642.0</ele><time>2026-05-03T07:17:43Z</time></trkpt><trkpt lat="42.35385831131977" lon="13.471551642599609"><ele>642.3333333333334</ele><time>2026-05-03T07:17:45Z</time></trkpt><trkpt lat="42.353932473098645" lon="13.471532753698048"><ele>642.6666666666666</ele><time>2026-05-03T07:17:46Z</time></trkpt><trkpt lat="42.354018573008766" lon="13.471509218449333"><ele>643.0</ele><time>2026-05-03T07:17:47Z</time></trkpt><trkpt lat="42.3541144091939" lon="13.471483246446546"><ele>643.3333333333333</ele><time>2026-05-03T07:17:48Z</time></trkpt><trkpt lat="42.35421028133606" lon="13.47145692107543"><ele>643.6666666666666</ele><time>2026-05-03T07:17:49Z</time></trkpt><trkpt lat="42.35429662092168" lon="13.471436204495665"><ele>644.0</ele><time>2026-05-03T07:17:50Z</time></trkpt><trkpt lat="42.354374333381784" lon="13.471413654403941"><ele>644.0</ele><time>2026-05-03T07:17:51Z</time></trkpt><trkpt lat="42.35444619281737" lon="13.47141055193247"><ele>644.0</ele><time>2026-05-03T07:17:52Z</time></trkpt><trkpt lat="42.35451580255061" lon="13.47143934034217"><ele>644.0</ele><time>2026-05-03T07:17:53Z</time></trkpt><trkpt lat="42.35465614689123" lon="13.47158855804883"><ele>644.0</ele><time>2026-05-03T07:17:55Z</time></trkpt><trkpt lat="42.354740249804834" lon="13.471690020707515"><ele>644.0</ele><time>2026-05-03T07:17:56Z</time></trkpt><trkpt lat="42.354821283999016" lon="13.471784749184295"><ele>644.6</ele><time>2026-05-03T07:17:57Z</time></trkpt><trkpt lat="42.354900819337644" lon="13.47187951504241"><ele>645.2</ele><time>2026-05-03T07:17:58Z</time></trkpt><trkpt lat="42.35498069424337" lon="13.471982023725305"><ele>645.8000000000001</ele><time>2026-05-03T07:17:59Z</time></trkpt><trkpt lat="42.35506133929933" lon="13.472085255107707"><ele>646.4000000000001</ele><time>2026-05-03T07:18:00Z</time></trkpt><trkpt lat="42.355142187820256" lon="13.472187273798033"><ele>647.0</ele><time>2026-05-03T07:18:01Z</time></trkpt><trkpt lat="42.35521842820215" lon="13.47228443523338"><ele>647.0</ele><time>2026-05-03T07:18:02Z</time></trkpt><trkpt lat="42.35529210441145" lon="13.472380177263771"><ele>647.0</ele><time>2026-05-03T07:18:03Z</time></trkpt><trkpt lat="42.355364723654944" lon="13.472472946428715"><ele>647.0</ele><time>2026-05-03T07:18:04Z</time></trkpt><trkpt lat="42.35544169979692" lon="13.472564308325028"><ele>647.0</ele><time>2026-05-03T07:18:05Z</time></trkpt><trkpt lat="42.3555179011049" lon="13.472651839148318"><ele>647.0</ele><time>2026-05-03T07:18:06Z</time></trkpt><trkpt lat="42.35559353810815" lon="13.472739654135744"><ele>647.4000000000001</ele><time>2026-05-03T07:18:07Z</time></trkpt><trkpt lat="42.35566970634515" lon="13.472825632575677"><ele>647.8000000000001</ele><time>2026-05-03T07:18:08Z</time></trkpt><trkpt lat="42.35574759736368" lon="13.472911194276397"><ele>648.2</ele><time>2026-05-03T07:18:09Z</time></trkpt><trkpt lat="42.35582652107901" lon="13.472994663039664"><ele>648.6</ele><time>2026-05-03T07:18:10Z</time></trkpt><trkpt lat="42.35590923294505" lon="13.473077922598954"><ele>649.0</ele><time>2026-05-03T07:18:11Z</time></trkpt><trkpt lat="42.355992429868834" lon="13.473159292710534"><ele>649.1666666666667</ele><time>2026-05-03T07:18:12Z</time></trkpt><trkpt lat="42.35607421635936" lon="13.47323944833431"><ele>649.3333333333334</ele><time>2026-05-03T07:18:13Z</time></trkpt><trkpt lat="42.35615105655584" lon="13.473317988306942"><ele>649.5</ele><time>2026-05-03T07:18:14Z</time></trkpt><trkpt lat="42.35621863536737" lon="13.473389226196469"><ele>649.6666666666666</ele><time>2026-05-03T07:18:15Z</time></trkpt><trkpt lat="42.35627666899112" lon="13.473453903844012"><ele>649.8333333333333</ele><time>2026-05-03T07:18:16Z</time></trkpt><trkpt lat="42.35633001467178" lon="13.473521310390014"><ele>650.0</ele><time>2026-05-03T07:18:17Z</time></trkpt><trkpt lat="42.35641494922602" lon="13.473528034506163"><ele>650.6</ele><time>2026-05-03T07:18:18Z</time></trkpt><trkpt lat="42.35648357557006" lon="13.473535423674068"><ele>651.2</ele><time>2026-05-03T07:18:19Z</time></trkpt><trkpt lat="42.35659104237314" lon="13.473639406387782"><ele>651.8</ele><time>2026-05-03T07:18:21Z</time></trkpt><trkpt lat="42.35662771391897" lon="13.473742608880741"><ele>652.4</ele><time>2026-05-03T07:18:22Z</time></trkpt><trkpt lat="42.35665934766473" lon="13.473859145161956"><ele>653.0</ele><time>2026-05-03T07:18:23Z</time></trkpt><trkpt lat="42.35669100928901" lon="13.473978598797485"><ele>653.5999999999999</ele><time>2026-05-03T07:18:24Z</time></trkpt><trkpt lat="42.356734505949156" lon="13.474103916025642"><ele>654.1999999999999</ele><time>2026-05-03T07:18:25Z</time></trkpt><trkpt lat="42.35677438804279" lon="13.47422513236883"><ele>654.8</ele><time>2026-05-03T07:18:26Z</time></trkpt><trkpt lat="42.3568118023873" lon="13.47434113249348"><ele>655.4</ele><time>2026-05-03T07:18:27Z</time></trkpt><trkpt lat="42.35684987699639" lon="13.474458688461052"><ele>656.0</ele><time>2026-05-03T07:18:28Z</time></trkpt><trkpt lat="42.35689417545623" lon="13.474586700892404"><ele>657.8</ele><time>2026-05-03T07:18:29Z</time></trkpt><trkpt lat="42.35694427288464" lon="13.474716317291582"><ele>659.5999999999999</ele><time>2026-05-03T07:18:30Z</time></trkpt><trkpt lat="42.356994624182846" lon="13.474840830230297"><ele>661.4</ele><time>2026-05-03T07:18:31Z</time></trkpt><trkpt lat="42.35704060206753" lon="13.47496541998385"><ele>663.2</ele><time>2026-05-03T07:18:32Z</time></trkpt><trkpt lat="42.357081357103205" lon="13.475084161194857"><ele>665.0</ele><time>2026-05-03T07:18:33Z</time></trkpt><trkpt lat="42.357114211428" lon="13.475206699513484"><ele>665.0</ele><time>2026-05-03T07:18:34Z</time></trkpt><trkpt lat="42.357141332449046" lon="13.475335385740681"><ele>665.0</ele><time>2026-05-03T07:18:35Z</time></trkpt><trkpt lat="42.357161638493764" lon="13.475460272541419"><ele>665.0</ele><time>2026-05-03T07:18:36Z</time></trkpt><trkpt lat="42.35718809151144" lon="13.475595175550364"><ele>665.0</ele><time>2026-05-03T07:18:37Z</time></trkpt><trkpt lat="42.35721772471121" lon="13.47572387160383"><ele>665.0</ele><time>2026-05-03T07:18:38Z</time></trkpt><trkpt lat="42.35724549686462" lon="13.475849132340702"><ele>667.2</ele><time>2026-05-03T07:18:39Z</time></trkpt><trkpt lat="42.357252557684895" lon="13.475970648080152"><ele>669.4</ele><time>2026-05-03T07:18:40Z</time></trkpt><trkpt lat="42.35725292508695" lon="13.476098092629941"><ele>671.5999999999999</ele><time>2026-05-03T07:18:41Z</time></trkpt><trkpt lat="42.35724101576997" lon="13.476236193770026"><ele>673.8</ele><time>2026-05-03T07:18:42Z</time></trkpt><trkpt lat="42.35723171133824" lon="13.47638529921055"><ele>676.0</ele><time>2026-05-03T07:18:43Z</time></trkpt><trkpt lat="42.357235383272375" lon="13.476540579539197"><ele>677.75</ele><time>2026-05-03T07:18:44Z</time></trkpt><trkpt lat="42.357247537475885" lon="13.476696872098715"><ele>679.5</ele><time>2026-05-03T07:18:45Z</time></trkpt><trkpt lat="42.357259352786926" lon="13.476860801073153"><ele>681.25</ele><time>2026-05-03T07:18:46Z</time></trkpt><trkpt lat="42.35726887300386" lon="13.477014609430183"><ele>683.0</ele><time>2026-05-03T07:18:47Z</time></trkpt><trkpt lat="42.357282011783354" lon="13.477153653827148"><ele>684.0</ele><time>2026-05-03T07:18:48Z</time></trkpt><trkpt lat="42.357297174503294" lon="13.477259284764362"><ele>685.0</ele><time>2026-05-03T07:18:49Z</time></trkpt><trkpt lat="42.357316550651404" lon="13.47734688600974"><ele>686.0</ele><time>2026-05-03T07:18:50Z</time></trkpt><trkpt lat="42.35733367087474" lon="13.477454866697029"><ele>687.0</ele><time>2026-05-03T07:18:52Z</time></trkpt><trkpt lat="42.35736281092715" lon="13.477541916670233"><ele>688.0</ele><time>2026-05-03T07:18:56Z</time></trkpt><trkpt lat="42.35732251198019" lon="13.477621991322348"><ele>689.0</ele><time>2026-05-03T07:18:57Z</time></trkpt><trkpt lat="42.35734430617016" lon="13.477726369793487"><ele>689.0</ele><time>2026-05-03T07:18:58Z</time></trkpt><trkpt lat="42.357358238024624" lon="13.477833520834977"><ele>689.0</ele><time>2026-05-03T07:18:59Z</time></trkpt><trkpt lat="42.357374866181786" lon="13.477959006797759"><ele>689.0</ele><time>2026-05-03T07:19:00Z</time></trkpt><trkpt lat="42.357404603542356" lon="13.478093037855114"><ele>689.0</ele><time>2026-05-03T07:19:01Z</time></trkpt><trkpt lat="42.357436922489036" lon="13.478217766443082"><ele>689.0</ele><time>2026-05-03T07:19:02Z</time></trkpt><trkpt lat="42.357473040768625" lon="13.478346349417965"><ele>690.6</ele><time>2026-05-03T07:19:03Z</time></trkpt><trkpt lat="42.357510661323815" lon="13.478467429375689"><ele>692.2</ele><time>2026-05-03T07:19:04Z</time></trkpt><trkpt lat="42.357537027750396" lon="13.478567211935491"><ele>693.8000000000001</ele><time>2026-05-03T07:19:05Z</time></trkpt><trkpt lat="42.35755318735315" lon="13.478696356228683"><ele>695.4000000000001</ele><time>2026-05-03T07:19:07Z</time></trkpt><trkpt lat="42.3575630364983" lon="13.478815134764913"><ele>697.0</ele><time>2026-05-03T07:19:09Z</time></trkpt><trkpt lat="42.357591764744605" lon="13.47893074466162"><ele>698.8</ele><time>2026-05-03T07:19:11Z</time></trkpt><trkpt lat="42.35759670026391" lon="13.479113329085429"><ele>700.6</ele><time>2026-05-03T07:19:13Z</time></trkpt><trkpt lat="42.35761692372267" lon="13.47923163277791"><ele>702.4</ele><time>2026-05-03T07:19:14Z</time></trkpt><trkpt lat="42.35763938372608" lon="13.479369504847366"><ele>704.1999999999999</ele><time>2026-05-03T07:19:15Z</time></trkpt><trkpt lat="42.35765890433146" lon="13.479507684261343"><ele>706.0</ele><time>2026-05-03T07:19:16Z</time></trkpt><trkpt lat="42.35767863667397" lon="13.479644174231156"><ele>707.8</ele><time>2026-05-03T07:19:17Z</time></trkpt><trkpt lat="42.35769070344964" lon="13.479772410321628"><ele>709.5999999999999</ele><time>2026-05-03T07:19:18Z</time></trkpt><trkpt lat="42.357711042441" lon="13.47990276714266"><ele>711.4</ele><time>2026-05-03T07:19:19Z</time></trkpt><trkpt lat="42.357729545311926" lon="13.4800250076682"><ele>713.2</ele><time>2026-05-03T07:19:20Z</time></trkpt><trkpt lat="42.357745796179195" lon="13.480143906221418"><ele>715.0</ele><time>2026-05-03T07:19:20.999Z</time></trkpt><trkpt lat="42.35773434725472" lon="13.480274577514091"><ele>715.0</ele><time>2026-05-03T07:19:21.999Z</time></trkpt><trkpt lat="42.357713782654834" lon="13.480407953140983"><ele>715.0</ele><time>2026-05-03T07:19:22.999Z</time></trkpt><trkpt lat="42.35767567902497" lon="13.48053263160164"><ele>715.0</ele><time>2026-05-03T07:19:23.999Z</time></trkpt><trkpt lat="42.35766683614687" lon="13.480657264956125"><ele>715.0</ele><time>2026-05-03T07:19:24.999Z</time></trkpt><trkpt lat="42.357661103402755" lon="13.480772433072136"><ele>715.0</ele><time>2026-05-03T07:19:25.999Z</time></trkpt><trkpt lat="42.35767992107606" lon="13.480891871482294"><ele>716.3333333333334</ele><time>2026-05-03T07:19:26.999Z</time></trkpt><trkpt lat="42.35771139550901" lon="13.480988759326959"><ele>717.6666666666667</ele><time>2026-05-03T07:19:27.999Z</time></trkpt><trkpt lat="42.35773731761981" lon="13.481074745933094"><ele>719.0</ele><time>2026-05-03T07:19:28.999Z</time></trkpt><trkpt lat="42.357742762347264" lon="13.481162892265493"><ele>720.3333333333334</ele><time>2026-05-03T07:19:30Z</time></trkpt><trkpt lat="42.35778656323928" lon="13.481249880615819"><ele>721.6666666666666</ele><time>2026-05-03T07:19:31Z</time></trkpt><trkpt lat="42.357721124377164" lon="13.48141027789722"><ele>723.0</ele><time>2026-05-03T07:19:32Z</time></trkpt><trkpt lat="42.35770594898772" lon="13.48155387312629"><ele>725.0</ele><time>2026-05-03T07:19:33Z</time></trkpt><trkpt lat="42.357688554500015" lon="13.481704337529553"><ele>727.0</ele><time>2026-05-03T07:19:34Z</time></trkpt><trkpt lat="42.357669772096045" lon="13.481837595028868"><ele>729.0</ele><time>2026-05-03T07:19:35Z</time></trkpt><trkpt lat="42.357647443051796" lon="13.481949241654673"><ele>731.0</ele><time>2026-05-03T07:19:36Z</time></trkpt><trkpt lat="42.35762395411599" lon="13.48204620020533"><ele>733.0</ele><time>2026-05-03T07:19:37Z</time></trkpt><trkpt lat="42.357601336151" lon="13.482151310751227"><ele>734.6666666666667</ele><time>2026-05-03T07:19:38Z</time></trkpt><trkpt lat="42.357578627667884" lon="13.482266105254794"><ele>736.3333333333334</ele><time>2026-05-03T07:19:39Z</time></trkpt><trkpt lat="42.35756379977253" lon="13.482373104690634"><ele>738.0</ele><time>2026-05-03T07:19:40Z</time></trkpt><trkpt lat="42.35755816579091" lon="13.482477084016455"><ele>739.6666666666666</ele><time>2026-05-03T07:19:41Z</time></trkpt><trkpt lat="42.35756252070013" lon="13.48258196050133"><ele>741.3333333333333</ele><time>2026-05-03T07:19:42Z</time></trkpt><trkpt lat="42.35757270548336" lon="13.482697588041235"><ele>743.0</ele><time>2026-05-03T07:19:43Z</time></trkpt><trkpt lat="42.35758643456192" lon="13.482821524245887"><ele>744.4</ele><time>2026-05-03T07:19:44Z</time></trkpt><trkpt lat="42.35760013992333" lon="13.482958310646948"><ele>745.8</ele><time>2026-05-03T07:19:45Z</time></trkpt><trkpt lat="42.35761490883661" lon="13.483103664610583"><ele>747.2</ele><time>2026-05-03T07:19:46Z</time></trkpt><trkpt lat="42.35762569531844" lon="13.483242870436523"><ele>748.6</ele><time>2026-05-03T07:19:47Z</time></trkpt><trkpt lat="42.35763462903738" lon="13.48338504630762"><ele>750.0</ele><time>2026-05-03T07:19:48Z</time></trkpt><trkpt lat="42.35764361990182" lon="13.483502951962327"><ele>750.0</ele><time>2026-05-03T07:19:49Z</time></trkpt><trkpt lat="42.35765186227811" lon="13.483614427190135"><ele>750.0</ele><time>2026-05-03T07:19:50Z</time></trkpt><trkpt lat="42.357660393974484" lon="13.483714456666808"><ele>750.0</ele><time>2026-05-03T07:19:51Z</time></trkpt><trkpt lat="42.357679234680305" lon="13.483811989959262"><ele>750.0</ele><time>2026-05-03T07:19:52Z</time></trkpt><trkpt lat="42.357701475738644" lon="13.483920701174466"><ele>750.0</ele><time>2026-05-03T07:19:53Z</time></trkpt><trkpt lat="42.357727311387436" lon="13.48405179815664"><ele>750.0</ele><time>2026-05-03T07:19:54Z</time></trkpt><trkpt lat="42.357744933023746" lon="13.48418334530623"><ele>750.8</ele><time>2026-05-03T07:19:55Z</time></trkpt><trkpt lat="42.35776375891517" lon="13.4843172380014"><ele>751.6</ele><time>2026-05-03T07:19:56Z</time></trkpt><trkpt lat="42.3577754468968" lon="13.48444953614226"><ele>752.4000000000001</ele><time>2026-05-03T07:19:57Z</time></trkpt><trkpt lat="42.357777152607525" lon="13.484578093304952"><ele>753.2</ele><time>2026-05-03T07:19:58Z</time></trkpt><trkpt lat="42.35777081208655" lon="13.484705576001804"><ele>754.0</ele><time>2026-05-03T07:19:59Z</time></trkpt><trkpt lat="42.35775847702189" lon="13.484824718395231"><ele>754.6</ele><time>2026-05-03T07:20:00Z</time></trkpt><trkpt lat="42.35773723210242" lon="13.484952133811658"><ele>755.2</ele><time>2026-05-03T07:20:01Z</time></trkpt><trkpt lat="42.3577184982642" lon="13.485077539918068"><ele>755.8000000000001</ele><time>2026-05-03T07:20:02Z</time></trkpt><trkpt lat="42.357703707081484" lon="13.485207725267834"><ele>756.4000000000001</ele><time>2026-05-03T07:20:03Z</time></trkpt><trkpt lat="42.357695880164236" lon="13.485335060649964"><ele>757.0</ele><time>2026-05-03T07:20:04Z</time></trkpt><trkpt lat="42.357688718384196" lon="13.48545373059155"><ele>757.0</ele><time>2026-05-03T07:20:05Z</time></trkpt><trkpt lat="42.35768338611767" lon="13.485549875656275"><ele>757.0</ele><time>2026-05-03T07:20:06Z</time></trkpt><trkpt lat="42.3576799458793" lon="13.48564558810119"><ele>757.0</ele><time>2026-05-03T07:20:07Z</time></trkpt><trkpt lat="42.357678799415545" lon="13.485739821764634"><ele>757.0</ele><time>2026-05-03T07:20:08Z</time></trkpt><trkpt lat="42.35769038308091" lon="13.485903616734904"><ele>757.0</ele><time>2026-05-03T07:20:10Z</time></trkpt><trkpt lat="42.357715876106916" lon="13.485990186650024"><ele>757.0</ele><time>2026-05-03T07:20:11Z</time></trkpt><trkpt lat="42.35775138462125" lon="13.486092821331303"><ele>757.0</ele><time>2026-05-03T07:20:12Z</time></trkpt><trkpt lat="42.357788947286075" lon="13.48619663310523"><ele>757.0</ele><time>2026-05-03T07:20:13Z</time></trkpt><trkpt lat="42.35782750901586" lon="13.486291189726328"><ele>757.0</ele><time>2026-05-03T07:20:14Z</time></trkpt><trkpt lat="42.357866318873015" lon="13.486383704935148"><ele>757.0</ele><time>2026-05-03T07:20:15Z</time></trkpt><trkpt lat="42.35790285634929" lon="13.486473921739845"><ele>757.0</ele><time>2026-05-03T07:20:16Z</time></trkpt><trkpt lat="42.35795773738238" lon="13.486560988286547"><ele>757.0</ele><time>2026-05-03T07:20:17Z</time></trkpt><trkpt lat="42.35802760366692" lon="13.486648673107256"><ele>758.2</ele><time>2026-05-03T07:20:18Z</time></trkpt><trkpt lat="42.35810513172383" lon="13.486733969018617"><ele>759.4000000000001</ele><time>2026-05-03T07:20:19Z</time></trkpt><trkpt lat="42.35818043934157" lon="13.48681872300634"><ele>760.5999999999999</ele><time>2026-05-03T07:20:20Z</time></trkpt><trkpt lat="42.35825333241027" lon="13.486910149049367"><ele>761.8</ele><time>2026-05-03T07:20:21Z</time></trkpt><trkpt lat="42.35832573812354" lon="13.487000676079923"><ele>763.0</ele><time>2026-05-03T07:20:22Z</time></trkpt><trkpt lat="42.35839442372773" lon="13.487095814603542"><ele>763.0</ele><time>2026-05-03T07:20:23Z</time></trkpt><trkpt lat="42.358460844078" lon="13.487179185533588"><ele>763.0</ele><time>2026-05-03T07:20:24Z</time></trkpt><trkpt lat="42.358531838508846" lon="13.487256573188725"><ele>763.0</ele><time>2026-05-03T07:20:25Z</time></trkpt><trkpt lat="42.35859871556389" lon="13.487338244486693"><ele>763.0</ele><time>2026-05-03T07:20:26Z</time></trkpt><trkpt lat="42.35866326707937" lon="13.487415765828777"><ele>763.0</ele><time>2026-05-03T07:20:27Z</time></trkpt><trkpt lat="42.35871508649067" lon="13.487494936607211"><ele>763.0</ele><time>2026-05-03T07:20:28Z</time></trkpt><trkpt lat="42.35875592010357" lon="13.487580819066974"><ele>763.0</ele><time>2026-05-03T07:20:29Z</time></trkpt><trkpt lat="42.35879460304609" lon="13.487685792824301"><ele>763.0</ele><time>2026-05-03T07:20:30Z</time></trkpt><trkpt lat="42.358842635070374" lon="13.487792369414747"><ele>763.0</ele><time>2026-05-03T07:20:31Z</time></trkpt><trkpt lat="42.358897021018066" lon="13.48789641638234"><ele>763.0</ele><time>2026-05-03T07:20:32Z</time></trkpt><trkpt lat="42.35895357412681" lon="13.48799213134297"><ele>763.0</ele><time>2026-05-03T07:20:33Z</time></trkpt><trkpt lat="42.35900469092497" lon="13.488066230856436"><ele>763.0</ele><time>2026-05-03T07:20:34Z</time></trkpt><trkpt lat="42.35907296653309" lon="13.488123364289136"><ele>766.4</ele><time>2026-05-03T07:20:36Z</time></trkpt><trkpt lat="42.359181058965376" lon="13.48826492026676"><ele>769.8</ele><time>2026-05-03T07:20:38Z</time></trkpt><trkpt lat="42.35924300910895" lon="13.488362997231938"><ele>773.2</ele><time>2026-05-03T07:20:39Z</time></trkpt><trkpt lat="42.35929817206079" lon="13.488446145808709"><ele>776.6</ele><time>2026-05-03T07:20:40Z</time></trkpt><trkpt lat="42.35935722390026" lon="13.488509156891071"><ele>780.0</ele><time>2026-05-03T07:20:41Z</time></trkpt><trkpt lat="42.35940523307259" lon="13.488571822842989"><ele>780.0</ele><time>2026-05-03T07:20:42Z</time></trkpt><trkpt lat="42.359452103466175" lon="13.488655959765063"><ele>780.0</ele><time>2026-05-03T07:20:43Z</time></trkpt><trkpt lat="42.359498327524264" lon="13.48874436586045"><ele>780.0</ele><time>2026-05-03T07:20:44Z</time></trkpt><trkpt lat="42.35953968901173" lon="13.488841882321958"><ele>780.0</ele><time>2026-05-03T07:20:45Z</time></trkpt><trkpt lat="42.35958501463061" lon="13.488945086241708"><ele>780.0</ele><time>2026-05-03T07:20:46Z</time></trkpt><trkpt lat="42.35963392331504" lon="13.489034478695704"><ele>780.0</ele><time>2026-05-03T07:20:47Z</time></trkpt><trkpt lat="42.35968767100562" lon="13.489114224766654"><ele>782.0</ele><time>2026-05-03T07:20:48Z</time></trkpt><trkpt lat="42.35973982647023" lon="13.489182392869216"><ele>784.0</ele><time>2026-05-03T07:20:49Z</time></trkpt><trkpt lat="42.35979960336007" lon="13.489251447573292"><ele>786.0</ele><time>2026-05-03T07:20:50Z</time></trkpt><trkpt lat="42.35985880709998" lon="13.489302813529424"><ele>788.0</ele><time>2026-05-03T07:20:51Z</time></trkpt><trkpt lat="42.35993056883932" lon="13.48935017970798"><ele>790.0</ele><time>2026-05-03T07:20:52Z</time></trkpt><trkpt lat="42.36002109870955" lon="13.489410347093132"><ele>792.0</ele><time>2026-05-03T07:20:53Z</time></trkpt><trkpt lat="42.36011465742747" lon="13.489451385716944"><ele>792.0</ele><time>2026-05-03T07:20:54Z</time></trkpt><trkpt lat="42.3601887685351" lon="13.489508400198664"><ele>792.0</ele><time>2026-05-03T07:20:54.999Z</time></trkpt><trkpt lat="42.36024433360863" lon="13.48957252926833"><ele>792.0</ele><time>2026-05-03T07:20:55.999Z</time></trkpt><trkpt lat="42.36031550125875" lon="13.489664803709653"><ele>792.0</ele><time>2026-05-03T07:20:56.999Z</time></trkpt><trkpt lat="42.36038014327492" lon="13.489738373601773"><ele>792.0</ele><time>2026-05-03T07:20:57.999Z</time></trkpt><trkpt lat="42.36045476477805" lon="13.489785236303234"><ele>792.0</ele><time>2026-05-03T07:20:58.999Z</time></trkpt><trkpt lat="42.36054686713031" lon="13.489847568579949"><ele>793.3333333333334</ele><time>2026-05-03T07:20:59.999Z</time></trkpt><trkpt lat="42.360622137593694" lon="13.489905266116851"><ele>794.6666666666667</ele><time>2026-05-03T07:21:00.999Z</time></trkpt><trkpt lat="42.36069235142832" lon="13.489957983915568"><ele>796.0</ele><time>2026-05-03T07:21:01.999Z</time></trkpt><trkpt lat="42.36075813788181" lon="13.490033807872447"><ele>797.3333333333334</ele><time>2026-05-03T07:21:02.999Z</time></trkpt><trkpt lat="42.36080816282947" lon="13.490094277504406"><ele>798.6666666666667</ele><time>2026-05-03T07:21:03.999Z</time></trkpt><trkpt lat="42.360905686033675" lon="13.490173106776712"><ele>800.0</ele><time>2026-05-03T07:21:05.999Z</time></trkpt><trkpt lat="42.36096962494602" lon="13.490204938186986"><ele>800.0000000000001</ele><time>2026-05-03T07:21:06.999Z</time></trkpt><trkpt lat="42.361043734012604" lon="13.490245857447169"><ele>800.0</ele><time>2026-05-03T07:21:07.999Z</time></trkpt><trkpt lat="42.36112143946429" lon="13.49029315080958"><ele>800.0</ele><time>2026-05-03T07:21:08.999Z</time></trkpt><trkpt lat="42.361191281814826" lon="13.490339854047344"><ele>800.0</ele><time>2026-05-03T07:21:09.999Z</time></trkpt><trkpt lat="42.36125802735657" lon="13.490393553806982"><ele>800.0000000000001</ele><time>2026-05-03T07:21:10.999Z</time></trkpt><trkpt lat="42.36132978850214" lon="13.490456821738684"><ele>800.0</ele><time>2026-05-03T07:21:11.999Z</time></trkpt><trkpt lat="42.36139974122348" lon="13.490533013529456"><ele>802.0000000000001</ele><time>2026-05-03T07:21:12.999Z</time></trkpt><trkpt lat="42.361464218622615" lon="13.490604478889345"><ele>804.0</ele><time>2026-05-03T07:21:13.999Z</time></trkpt><trkpt lat="42.36154013704525" lon="13.490672755124178"><ele>806.0</ele><time>2026-05-03T07:21:14.999Z</time></trkpt><trkpt lat="42.36160623678815" lon="13.490716077067878"><ele>808.0</ele><time>2026-05-03T07:21:15.999Z</time></trkpt><trkpt lat="42.36167966736228" lon="13.490766954459088"><ele>810.0000000000001</ele><time>2026-05-03T07:21:16.999Z</time></trkpt><trkpt lat="42.36174090676849" lon="13.490832082516587"><ele>812.0</ele><time>2026-05-03T07:21:17.999Z</time></trkpt><trkpt lat="42.36181056930391" lon="13.490880750869051"><ele>812.0000000000001</ele><time>2026-05-03T07:21:18.999Z</time></trkpt><trkpt lat="42.36188558503727" lon="13.490919380863563"><ele>812.0</ele><time>2026-05-03T07:21:19.999Z</time></trkpt><trkpt lat="42.36194641311856" lon="13.490989266563444"><ele>812.0</ele><time>2026-05-03T07:21:20.999Z</time></trkpt><trkpt lat="42.36198854400425" lon="13.49106487281816"><ele>812.0</ele><time>2026-05-03T07:21:21.999Z</time></trkpt><trkpt lat="42.36202836333109" lon="13.491149623873515"><ele>812.0000000000001</ele><time>2026-05-03T07:21:22.999Z</time></trkpt><trkpt lat="42.362081185460845" lon="13.49124229225203"><ele>812.0</ele><time>2026-05-03T07:21:23.999Z</time></trkpt><trkpt lat="42.362150494568226" lon="13.491327648976753"><ele>813.4000000000001</ele><time>2026-05-03T07:21:24.999Z</time></trkpt><trkpt lat="42.36223610941862" lon="13.491427991613966"><ele>814.8000000000001</ele><time>2026-05-03T07:21:25.999Z</time></trkpt><trkpt lat="42.362305596405385" lon="13.49152881169447"><ele>816.2</ele><time>2026-05-03T07:21:26.999Z</time></trkpt><trkpt lat="42.36237612251733" lon="13.49161711424584"><ele>817.6</ele><time>2026-05-03T07:21:27.999Z</time></trkpt><trkpt lat="42.362444162975116" lon="13.491704177897489"><ele>819.0</ele><time>2026-05-03T07:21:28.999Z</time></trkpt><trkpt lat="42.36250083961075" lon="13.491798125221905"><ele>819.0</ele><time>2026-05-03T07:21:29.999Z</time></trkpt><trkpt lat="42.36254539821954" lon="13.491900786062754"><ele>819.0</ele><time>2026-05-03T07:21:30.999Z</time></trkpt><trkpt lat="42.36257768736324" lon="13.49201097580205"><ele>819.0</ele><time>2026-05-03T07:21:31.999Z</time></trkpt><trkpt lat="42.36261461985855" lon="13.492123450458378"><ele>819.0</ele><time>2026-05-03T07:21:32.999Z</time></trkpt><trkpt lat="42.36265360548332" lon="13.492237143998763"><ele>819.0</ele><time>2026-05-03T07:21:33.999Z</time></trkpt><trkpt lat="42.36268634156238" lon="13.492344993211972"><ele>819.0</ele><time>2026-05-03T07:21:34.999Z</time></trkpt><trkpt lat="42.36271426594987" lon="13.4924727937039"><ele>820.5</ele><time>2026-05-03T07:21:36Z</time></trkpt><trkpt lat="42.36274224438525" lon="13.492589988971083"><ele>822.0</ele><time>2026-05-03T07:21:37Z</time></trkpt><trkpt lat="42.36276640616301" lon="13.49270564673907"><ele>823.5</ele><time>2026-05-03T07:21:38Z</time></trkpt><trkpt lat="42.362802864641935" lon="13.492825473058485"><ele>825.0</ele><time>2026-05-03T07:21:39Z</time></trkpt><trkpt lat="42.3628209407132" lon="13.492923796501126"><ele>826.5</ele><time>2026-05-03T07:21:40Z</time></trkpt><trkpt lat="42.362821341160746" lon="13.49302942628882"><ele>828.0</ele><time>2026-05-03T07:21:41Z</time></trkpt><trkpt lat="42.36280341109421" lon="13.493153911389403"><ele>830.6666666666666</ele><time>2026-05-03T07:21:42Z</time></trkpt><trkpt lat="42.36279073818885" lon="13.493248439487237"><ele>833.3333333333333</ele><time>2026-05-03T07:21:43Z</time></trkpt><trkpt lat="42.36279745470183" lon="13.493353604313686"><ele>836.0</ele><time>2026-05-03T07:21:44Z</time></trkpt><trkpt lat="42.36282122836611" lon="13.493455623599973"><ele>838.6666666666666</ele><time>2026-05-03T07:21:45Z</time></trkpt><trkpt lat="42.362862639171624" lon="13.493561367902695"><ele>841.3333333333333</ele><time>2026-05-03T07:21:46Z</time></trkpt><trkpt lat="42.3629028627197" lon="13.493648043156263"><ele>844.0</ele><time>2026-05-03T07:21:47Z</time></trkpt><trkpt lat="42.36294926923624" lon="13.493725047339872"><ele>846.6</ele><time>2026-05-03T07:21:48Z</time></trkpt><trkpt lat="42.36295619980658" lon="13.49388108081714"><ele>849.2</ele><time>2026-05-03T07:21:50Z</time></trkpt><trkpt lat="42.362953996106214" lon="13.493974073573343"><ele>851.8000000000001</ele><time>2026-05-03T07:21:51Z</time></trkpt><trkpt lat="42.36295816609559" lon="13.494092683351385"><ele>854.4000000000001</ele><time>2026-05-03T07:21:52Z</time></trkpt><trkpt lat="42.362972585388434" lon="13.494223461977699"><ele>857.0</ele><time>2026-05-03T07:21:53Z</time></trkpt><trkpt lat="42.36297709891105" lon="13.49435415166939"><ele>857.0000000000001</ele><time>2026-05-03T07:21:54Z</time></trkpt><trkpt lat="42.362978754413774" lon="13.49447537340088"><ele>857.0</ele><time>2026-05-03T07:21:55Z</time></trkpt><trkpt lat="42.36299036781967" lon="13.494582483166727"><ele>857.0</ele><time>2026-05-03T07:21:56Z</time></trkpt><trkpt lat="42.36298544977619" lon="13.494693417061772"><ele>857.0</ele><time>2026-05-03T07:21:57Z</time></trkpt><trkpt lat="42.362969455490635" lon="13.494795663264505"><ele>857.0000000000001</ele><time>2026-05-03T07:21:58Z</time></trkpt><trkpt lat="42.3629524393259" lon="13.49491398769248"><ele>857.0</ele><time>2026-05-03T07:21:59Z</time></trkpt><trkpt lat="42.362934316744" lon="13.495046269589222"><ele>858.2</ele><time>2026-05-03T07:22:00Z</time></trkpt><trkpt lat="42.36292894030497" lon="13.495175083363552"><ele>859.4000000000001</ele><time>2026-05-03T07:22:01Z</time></trkpt><trkpt lat="42.36291716424961" lon="13.495316344062525"><ele>860.5999999999999</ele><time>2026-05-03T07:22:02Z</time></trkpt><trkpt lat="42.36290573146322" lon="13.49545176392364"><ele>861.8</ele><time>2026-05-03T07:22:03Z</time></trkpt><trkpt lat="42.36289552363237" lon="13.495589302848812"><ele>863.0</ele><time>2026-05-03T07:22:04Z</time></trkpt><trkpt lat="42.36289103834709" lon="13.495723115826552"><ele>863.3333333333334</ele><time>2026-05-03T07:22:05Z</time></trkpt><trkpt lat="42.36287972352497" lon="13.495857535163596"><ele>863.6666666666667</ele><time>2026-05-03T07:22:06Z</time></trkpt><trkpt lat="42.36287079455493" lon="13.495985061654038"><ele>864.0</ele><time>2026-05-03T07:22:07Z</time></trkpt><trkpt lat="42.362861502451295" lon="13.496112520335943"><ele>864.3333333333333</ele><time>2026-05-03T07:22:08Z</time></trkpt><trkpt lat="42.3628514116457" lon="13.49621530155837"><ele>864.6666666666666</ele><time>2026-05-03T07:22:09Z</time></trkpt><trkpt lat="42.362837741131436" lon="13.496312540750411"><ele>865.0</ele><time>2026-05-03T07:22:10Z</time></trkpt><trkpt lat="42.36283072398496" lon="13.496424912481478"><ele>865.9999999999999</ele><time>2026-05-03T07:22:11Z</time></trkpt><trkpt lat="42.362825125234195" lon="13.496522199585566"><ele>867.0</ele><time>2026-05-03T07:22:12Z</time></trkpt><trkpt lat="42.36283050737391" lon="13.496621859576678"><ele>868.0</ele><time>2026-05-03T07:22:13Z</time></trkpt><trkpt lat="42.36284379228341" lon="13.496716356160482"><ele>869.0</ele><time>2026-05-03T07:22:14Z</time></trkpt><trkpt lat="42.36286125900515" lon="13.496825061496102"><ele>869.9999999999999</ele><time>2026-05-03T07:22:15Z</time></trkpt><trkpt lat="42.36288335022339" lon="13.496930606340175"><ele>871.0</ele><time>2026-05-03T07:22:16Z</time></trkpt><trkpt lat="42.36291003447853" lon="13.497025294221702"><ele>871.6666666666666</ele><time>2026-05-03T07:22:17Z</time></trkpt><trkpt lat="42.36290965456969" lon="13.497189077327107"><ele>872.3333333333333</ele><time>2026-05-03T07:22:19Z</time></trkpt><trkpt lat="42.362892373507016" lon="13.497280669033552"><ele>873.0</ele><time>2026-05-03T07:22:20Z</time></trkpt><trkpt lat="42.362882106309804" lon="13.497373426248238"><ele>873.6666666666667</ele><time>2026-05-03T07:22:21Z</time></trkpt><trkpt lat="42.36288317542683" lon="13.497479913848977"><ele>874.3333333333334</ele><time>2026-05-03T07:22:22Z</time></trkpt><trkpt lat="42.36289515597833" lon="13.497568489861164"><ele>875.0</ele><time>2026-05-03T07:22:23Z</time></trkpt><trkpt lat="42.362943530109185" lon="13.497726764292175"><ele>875.0000000000001</ele><time>2026-05-03T07:22:25Z</time></trkpt><trkpt lat="42.362982921043155" lon="13.497813833484948"><ele>875.0</ele><time>2026-05-03T07:22:26Z</time></trkpt><trkpt lat="42.363029097493985" lon="13.49788520550288"><ele>875.0</ele><time>2026-05-03T07:22:27Z</time></trkpt><trkpt lat="42.36307283390151" lon="13.497958062996338"><ele>875.0</ele><time>2026-05-03T07:22:28Z</time></trkpt><trkpt lat="42.3631166272747" lon="13.498022773459432"><ele>875.0000000000001</ele><time>2026-05-03T07:22:29Z</time></trkpt><trkpt lat="42.363210410312206" lon="13.498114449648762"><ele>875.0</ele><time>2026-05-03T07:22:31Z</time></trkpt><trkpt lat="42.363317120567004" lon="13.49820870431627"><ele>878.0000000000001</ele><time>2026-05-03T07:22:33Z</time></trkpt><trkpt lat="42.3633751872026" lon="13.49825940442775"><ele>881.0</ele><time>2026-05-03T07:22:34Z</time></trkpt><trkpt lat="42.36343837018891" lon="13.498314111504374"><ele>884.0</ele><time>2026-05-03T07:22:35Z</time></trkpt><trkpt lat="42.36349276867282" lon="13.498366857940082"><ele>887.0</ele><time>2026-05-03T07:22:36Z</time></trkpt><trkpt lat="42.36355085966266" lon="13.498419198727552"><ele>890.0000000000001</ele><time>2026-05-03T07:22:37Z</time></trkpt><trkpt lat="42.36359976432113" lon="13.49847540117848"><ele>893.0</ele><time>2026-05-03T07:22:38Z</time></trkpt><trkpt lat="42.36364937077517" lon="13.498623242744236"><ele>893.5999999999999</ele><time>2026-05-03T07:22:39.999Z</time></trkpt><trkpt lat="42.36368850894431" lon="13.498792561739563"><ele>894.1999999999999</ele><time>2026-05-03T07:22:41.999Z</time></trkpt><trkpt lat="42.36371575824377" lon="13.498880778270154"><ele>894.8</ele><time>2026-05-03T07:22:42.999Z</time></trkpt><trkpt lat="42.363760337300086" lon="13.4990075360314"><ele>895.4</ele><time>2026-05-03T07:22:44.999Z</time></trkpt><trkpt lat="42.36384954099738" lon="13.499081205287142"><ele>896.0</ele><time>2026-05-03T07:22:46.999Z</time></trkpt><trkpt lat="42.36390094127382" lon="13.499136242173213"><ele>898.0</ele><time>2026-05-03T07:22:47.999Z</time></trkpt><trkpt lat="42.363945211100386" lon="13.499204916636714"><ele>899.9999999999999</ele><time>2026-05-03T07:22:48.999Z</time></trkpt><trkpt lat="42.36397800535046" lon="13.49933791951123"><ele>901.9999999999999</ele><time>2026-05-03T07:22:50.999Z</time></trkpt><trkpt lat="42.36401884363932" lon="13.499403852807113"><ele>904.0</ele><time>2026-05-03T07:22:51.999Z</time></trkpt><trkpt lat="42.3641004867623" lon="13.499521177638591"><ele>906.0</ele><time>2026-05-03T07:22:53.999Z</time></trkpt><trkpt lat="42.36419091415705" lon="13.499636314801846"><ele>906.4</ele><time>2026-05-03T07:22:55.999Z</time></trkpt><trkpt lat="42.36426638840891" lon="13.499771758683968"><ele>906.8</ele><time>2026-05-03T07:22:57.999Z</time></trkpt><trkpt lat="42.36431661558091" lon="13.499870323060993"><ele>907.1999999999999</ele><time>2026-05-03T07:22:58.999Z</time></trkpt><trkpt lat="42.3643729667529" lon="13.499979339535967"><ele>907.5999999999999</ele><time>2026-05-03T07:22:59.999Z</time></trkpt><trkpt lat="42.36442588986041" lon="13.500093589519235"><ele>908.0</ele><time>2026-05-03T07:23:00.999Z</time></trkpt><trkpt lat="42.364470011009026" lon="13.500194409883557"><ele>908.0000000000001</ele><time>2026-05-03T07:23:01.999Z</time></trkpt><trkpt lat="42.364513169401405" lon="13.500279180497111"><ele>908.0</ele><time>2026-05-03T07:23:02.999Z</time></trkpt><trkpt lat="42.36455772360819" lon="13.500369849946003"><ele>908.0</ele><time>2026-05-03T07:23:03.999Z</time></trkpt><trkpt lat="42.36459690339901" lon="13.50046389716239"><ele>908.0</ele><time>2026-05-03T07:23:04.999Z</time></trkpt><trkpt lat="42.36463085476333" lon="13.500561358930142"><ele>908.0000000000001</ele><time>2026-05-03T07:23:05.999Z</time></trkpt><trkpt lat="42.36468885553063" lon="13.500705864355464"><ele>908.0</ele><time>2026-05-03T07:23:07.999Z</time></trkpt><trkpt lat="42.36471649476461" lon="13.500783041757654"><ele>910.0000000000001</ele><time>2026-05-03T07:23:08.999Z</time></trkpt><trkpt lat="42.36474452957052" lon="13.500861752453794"><ele>912.0</ele><time>2026-05-03T07:23:09.999Z</time></trkpt><trkpt lat="42.364782521550254" lon="13.500950464018796"><ele>914.0</ele><time>2026-05-03T07:23:10.999Z</time></trkpt><trkpt lat="42.36481341941841" lon="13.501026620781117"><ele>916.0</ele><time>2026-05-03T07:23:11.999Z</time></trkpt><trkpt lat="42.36484526335725" lon="13.501110980911548"><ele>918.0000000000001</ele><time>2026-05-03T07:23:12.999Z</time></trkpt><trkpt lat="42.3648718873761" lon="13.501200069329855"><ele>920.0</ele><time>2026-05-03T07:23:13.999Z</time></trkpt><trkpt lat="42.364903278483155" lon="13.501347745472208"><ele>920.9999999999999</ele><time>2026-05-03T07:23:15.999Z</time></trkpt><trkpt lat="42.364918424185596" lon="13.501432383983987"><ele>922.0</ele><time>2026-05-03T07:23:16.999Z</time></trkpt><trkpt lat="42.36493487148652" lon="13.50152621113079"><ele>922.9999999999999</ele><time>2026-05-03T07:23:17.999Z</time></trkpt><trkpt lat="42.36495135033424" lon="13.501613601949067"><ele>923.9999999999999</ele><time>2026-05-03T07:23:18.999Z</time></trkpt><trkpt lat="42.36497371267575" lon="13.501704173378563"><ele>925.0</ele><time>2026-05-03T07:23:19.999Z</time></trkpt><trkpt lat="42.36500651648395" lon="13.501800478040247"><ele>925.9999999999999</ele><time>2026-05-03T07:23:20.999Z</time></trkpt><trkpt lat="42.36503045095904" lon="13.50189725106669"><ele>926.9999999999999</ele><time>2026-05-03T07:23:21.999Z</time></trkpt><trkpt lat="42.36505669471749" lon="13.501983803336737"><ele>926.9999999999999</ele><time>2026-05-03T07:23:22.999Z</time></trkpt><trkpt lat="42.36508691531732" lon="13.502070351067392"><ele>927.0</ele><time>2026-05-03T07:23:23.999Z</time></trkpt><trkpt lat="42.365115566255795" lon="13.502170420455533"><ele>926.9999999999999</ele><time>2026-05-03T07:23:24.999Z</time></trkpt><trkpt lat="42.36513358080278" lon="13.502254832495503"><ele>926.9999999999999</ele><time>2026-05-03T07:23:25.999Z</time></trkpt><trkpt lat="42.36515046724914" lon="13.502344688039456"><ele>927.0</ele><time>2026-05-03T07:23:26.999Z</time></trkpt><trkpt lat="42.36516320756192" lon="13.502437124200132"><ele>926.9999999999999</ele><time>2026-05-03T07:23:27.999Z</time></trkpt><trkpt lat="42.3651711619477" lon="13.502525766205789"><ele>926.9999999999999</ele><time>2026-05-03T07:23:28.999Z</time></trkpt><trkpt lat="42.36518706985768" lon="13.502614267656561"><ele>928.0</ele><time>2026-05-03T07:23:29.999Z</time></trkpt><trkpt lat="42.3652066477828" lon="13.502696936188512"><ele>929.0</ele><time>2026-05-03T07:23:30.999Z</time></trkpt><trkpt lat="42.365269166817214" lon="13.502853528015333"><ele>930.0</ele><time>2026-05-03T07:23:32.999Z</time></trkpt><trkpt lat="42.36529542859323" lon="13.50294744793727"><ele>931.0</ele><time>2026-05-03T07:23:33.999Z</time></trkpt><trkpt lat="42.36532619817357" lon="13.503028506185418"><ele>932.0</ele><time>2026-05-03T07:23:34.999Z</time></trkpt><trkpt lat="42.365374092874994" lon="13.503114448941762"><ele>933.0</ele><time>2026-05-03T07:23:35.999Z</time></trkpt><trkpt lat="42.365422999668574" lon="13.503203997737538"><ele>934.3333333333334</ele><time>2026-05-03T07:23:36.999Z</time></trkpt><trkpt lat="42.36547227637778" lon="13.503297011535654"><ele>935.6666666666667</ele><time>2026-05-03T07:23:37.999Z</time></trkpt><trkpt lat="42.36551396142183" lon="13.503369306551805"><ele>937.0</ele><time>2026-05-03T07:23:38.999Z</time></trkpt><trkpt lat="42.36557775617846" lon="13.503498505486764"><ele>938.3333333333334</ele><time>2026-05-03T07:23:40.999Z</time></trkpt><trkpt lat="42.36561493650075" lon="13.503572305902724"><ele>939.6666666666667</ele><time>2026-05-03T07:23:42Z</time></trkpt><trkpt lat="42.36565535498834" lon="13.503652841857168"><ele>941.0</ele><time>2026-05-03T07:23:43Z</time></trkpt><trkpt lat="42.365695592647576" lon="13.503737196627915"><ele>941.6666666666667</ele><time>2026-05-03T07:23:44Z</time></trkpt><trkpt lat="42.36572297434304" lon="13.503824919164026"><ele>942.3333333333334</ele><time>2026-05-03T07:23:45Z</time></trkpt><trkpt lat="42.36574618618307" lon="13.503908016199507"><ele>943.0</ele><time>2026-05-03T07:23:46Z</time></trkpt><trkpt lat="42.3657707775794" lon="13.504000620947554"><ele>943.6666666666667</ele><time>2026-05-03T07:23:47Z</time></trkpt><trkpt lat="42.3657947785376" lon="13.504088199336888"><ele>944.3333333333334</ele><time>2026-05-03T07:23:48Z</time></trkpt><trkpt lat="42.36581698362801" lon="13.504175683663208"><ele>945.0</ele><time>2026-05-03T07:23:49Z</time></trkpt><trkpt lat="42.36583524992449" lon="13.504335953617733"><ele>945.0</ele><time>2026-05-03T07:23:51Z</time></trkpt><trkpt lat="42.36583188687719" lon="13.504489109449914"><ele>945.0</ele><time>2026-05-03T07:23:53Z</time></trkpt><trkpt lat="42.36581648281287" lon="13.504663378128248"><ele>945.0</ele><time>2026-05-03T07:23:55Z</time></trkpt><trkpt lat="42.36580384741303" lon="13.504758780852397"><ele>945.0</ele><time>2026-05-03T07:23:56Z</time></trkpt><trkpt lat="42.36580039616687" lon="13.50484613407267"><ele>945.0</ele><time>2026-05-03T07:23:57Z</time></trkpt><trkpt lat="42.36581845370491" lon="13.50495022460699"><ele>945.1428571428571</ele><time>2026-05-03T07:23:58Z</time></trkpt><trkpt lat="42.36583808764881" lon="13.505047158595998"><ele>945.2857142857142</ele><time>2026-05-03T07:23:59Z</time></trkpt><trkpt lat="42.365857399987576" lon="13.5051472776637"><ele>945.4285714285714</ele><time>2026-05-03T07:24:00Z</time></trkpt><trkpt lat="42.3658817540134" lon="13.505239387965817"><ele>945.5714285714286</ele><time>2026-05-03T07:24:01Z</time></trkpt><trkpt lat="42.36590349293558" lon="13.50532683171552"><ele>945.7142857142857</ele><time>2026-05-03T07:24:02Z</time></trkpt><trkpt lat="42.36592214965485" lon="13.50541315548552"><ele>945.8571428571429</ele><time>2026-05-03T07:24:03Z</time></trkpt><trkpt lat="42.36594132428571" lon="13.505512159051511"><ele>946.0</ele><time>2026-05-03T07:24:04Z</time></trkpt><trkpt lat="42.365954709645656" lon="13.505616195110145"><ele>946.1999999999999</ele><time>2026-05-03T07:24:05Z</time></trkpt><trkpt lat="42.36596348381793" lon="13.50571016227221"><ele>946.3999999999999</ele><time>2026-05-03T07:24:06Z</time></trkpt><trkpt lat="42.365986717289445" lon="13.505861211512585"><ele>946.6</ele><time>2026-05-03T07:24:08Z</time></trkpt><trkpt lat="42.36601011081629" lon="13.506012363027486"><ele>946.8</ele><time>2026-05-03T07:24:10Z</time></trkpt><trkpt lat="42.36602405660688" lon="13.506175467023612"><ele>947.0</ele><time>2026-05-03T07:24:12Z</time></trkpt><trkpt lat="42.36602890289751" lon="13.506271017739511"><ele>947.4000000000001</ele><time>2026-05-03T07:24:13Z</time></trkpt><trkpt lat="42.36604025860637" lon="13.50638018284277"><ele>947.8000000000001</ele><time>2026-05-03T07:24:14Z</time></trkpt><trkpt lat="42.36606159199815" lon="13.506469099160451"><ele>948.2</ele><time>2026-05-03T07:24:15Z</time></trkpt><trkpt lat="42.36611356029064" lon="13.506577108625503"><ele>948.6</ele><time>2026-05-03T07:24:17Z</time></trkpt><trkpt lat="42.36617962254383" lon="13.506684706369208"><ele>949.0</ele><time>2026-05-03T07:24:19Z</time></trkpt><trkpt lat="42.366239382967244" lon="13.506820726843078"><ele>949.0</ele><time>2026-05-03T07:24:21Z</time></trkpt><trkpt lat="42.366317920352046" lon="13.506931358673246"><ele>949.0</ele><time>2026-05-03T07:24:23Z</time></trkpt><trkpt lat="42.366410940681696" lon="13.507038507239827"><ele>949.0</ele><time>2026-05-03T07:24:25Z</time></trkpt><trkpt lat="42.36648917495271" lon="13.507161366608326"><ele>949.0</ele><time>2026-05-03T07:24:27Z</time></trkpt><trkpt lat="42.366554221517276" lon="13.507264517550444"><ele>950.5714285714287</ele><time>2026-05-03T07:24:29Z</time></trkpt><trkpt lat="42.36659888582494" lon="13.507341064523407"><ele>952.1428571428571</ele><time>2026-05-03T07:24:32Z</time></trkpt><trkpt lat="42.366642157648215" lon="13.507420156770385"><ele>953.7142857142858</ele><time>2026-05-03T07:24:35Z</time></trkpt><trkpt lat="42.36669461755118" lon="13.507492001864476"><ele>955.2857142857143</ele><time>2026-05-03T07:24:36.999Z</time></trkpt><trkpt lat="42.36674729048485" lon="13.507578269166604"><ele>956.8571428571429</ele><time>2026-05-03T07:24:38.999Z</time></trkpt><trkpt lat="42.366705707562566" lon="13.507662729704546"><ele>958.4285714285714</ele><time>2026-05-03T07:24:42.999Z</time></trkpt><trkpt lat="42.3666399877755" lon="13.507698766111435"><ele>960.0</ele><time>2026-05-03T07:24:43.999Z</time></trkpt><trkpt lat="42.36656869836651" lon="13.507743594362845"><ele>960.0</ele><time>2026-05-03T07:24:44.999Z</time></trkpt><trkpt lat="42.36650200081588" lon="13.507800857921383"><ele>960.0</ele><time>2026-05-03T07:24:45.999Z</time></trkpt><trkpt lat="42.36642659544628" lon="13.507858468053925"><ele>960.0</ele><time>2026-05-03T07:24:46.999Z</time></trkpt><trkpt lat="42.36635571126363" lon="13.507907416690424"><ele>960.0</ele><time>2026-05-03T07:24:47.999Z</time></trkpt><trkpt lat="42.366285925534605" lon="13.507957619476132"><ele>960.0</ele><time>2026-05-03T07:24:48.999Z</time></trkpt><trkpt lat="42.36622271741091" lon="13.508002513061136"><ele>960.0</ele><time>2026-05-03T07:24:49.999Z</time></trkpt><trkpt lat="42.366161523344736" lon="13.508040956082418"><ele>958.8333333333334</ele><time>2026-05-03T07:24:50.999Z</time></trkpt><trkpt lat="42.36607421924351" lon="13.508130590024786"><ele>957.6666666666667</ele><time>2026-05-03T07:24:52.999Z</time></trkpt><trkpt lat="42.36603948164146" lon="13.508207557410763"><ele>956.5</ele><time>2026-05-03T07:24:53.999Z</time></trkpt><trkpt lat="42.365997710237934" lon="13.508295385226358"><ele>955.3333333333334</ele><time>2026-05-03T07:24:54.999Z</time></trkpt><trkpt lat="42.365950760570215" lon="13.508395515161741"><ele>954.1666666666667</ele><time>2026-05-03T07:24:55.999Z</time></trkpt><trkpt lat="42.36590989688149" lon="13.508481622797644"><ele>953.0</ele><time>2026-05-03T07:24:56.999Z</time></trkpt><trkpt lat="42.365825903527195" lon="13.508579128913743"><ele>953.0</ele><time>2026-05-03T07:24:58.999Z</time></trkpt><trkpt lat="42.36578188875456" lon="13.508643334376009"><ele>953.0</ele><time>2026-05-03T07:25:01.999Z</time></trkpt><trkpt lat="42.365759567050446" lon="13.508821043751578"><ele>953.0</ele><time>2026-05-03T07:25:03.999Z</time></trkpt><trkpt lat="42.36574112886562" lon="13.508929265467247"><ele>953.0</ele><time>2026-05-03T07:25:04.999Z</time></trkpt><trkpt lat="42.36570733694531" lon="13.50902162439157"><ele>953.0</ele><time>2026-05-03T07:25:05.999Z</time></trkpt><trkpt lat="42.36564131746734" lon="13.509134419197458"><ele>953.6666666666667</ele><time>2026-05-03T07:25:07.999Z</time></trkpt><trkpt lat="42.36560558716634" lon="13.509248861901375"><ele>954.3333333333334</ele><time>2026-05-03T07:25:09.999Z</time></trkpt><trkpt lat="42.36559707523171" lon="13.509335561881583"><ele>955.0</ele><time>2026-05-03T07:25:10.999Z</time></trkpt><trkpt lat="42.365597171898365" lon="13.509436865153763"><ele>955.6666666666667</ele><time>2026-05-03T07:25:11.999Z</time></trkpt><trkpt lat="42.36560712658853" lon="13.509552938537453"><ele>956.3333333333334</ele><time>2026-05-03T07:25:13.999Z</time></trkpt><trkpt lat="42.365631762764444" lon="13.509643612713042"><ele>957.0</ele><time>2026-05-03T07:25:15.999Z</time></trkpt><trkpt lat="42.36570040418281" lon="13.509739141467609"><ele>957.0</ele><time>2026-05-03T07:25:17.999Z</time></trkpt><trkpt lat="42.36575940123484" lon="13.509789647500702"><ele>957.0</ele><time>2026-05-03T07:25:18.999Z</time></trkpt><trkpt lat="42.36582013123258" lon="13.509828091063554"><ele>957.0</ele><time>2026-05-03T07:25:19.999Z</time></trkpt><trkpt lat="42.365877083266064" lon="13.509868763929557"><ele>957.0</ele><time>2026-05-03T07:25:20.999Z</time></trkpt><trkpt lat="42.36598600981078" lon="13.509914372029195"><ele>957.0</ele><time>2026-05-03T07:25:22.999Z</time></trkpt><trkpt lat="42.3660834280938" lon="13.509968514425061"><ele>957.0</ele><time>2026-05-03T07:25:24.999Z</time></trkpt><trkpt lat="42.36608274515526" lon="13.51008740896607"><ele>957.0</ele><time>2026-05-03T07:25:26.999Z</time></trkpt><trkpt lat="42.36603987909344" lon="13.51021125150748"><ele>957.0</ele><time>2026-05-03T07:25:28.999Z</time></trkpt><trkpt lat="42.36601013433944" lon="13.510293951695132"><ele>957.0</ele><time>2026-05-03T07:25:29.999Z</time></trkpt><trkpt lat="42.365989859449414" lon="13.510386701100193"><ele>957.0</ele><time>2026-05-03T07:25:30.999Z</time></trkpt><trkpt lat="42.36593950400346" lon="13.51054511560615"><ele>957.0</ele><time>2026-05-03T07:25:32.999Z</time></trkpt><trkpt lat="42.36589028620039" lon="13.510603684300166"><ele>957.0</ele><time>2026-05-03T07:25:33.999Z</time></trkpt><trkpt lat="42.36582551488663" lon="13.510652396923641"><ele>956.8333333333334</ele><time>2026-05-03T07:25:34.999Z</time></trkpt><trkpt lat="42.36576195967825" lon="13.510695479302445"><ele>956.6666666666667</ele><time>2026-05-03T07:25:35.999Z</time></trkpt><trkpt lat="42.36567566338942" lon="13.510802515094674"><ele>956.5</ele><time>2026-05-03T07:25:37.999Z</time></trkpt><trkpt lat="42.3656404395187" lon="13.510892289969066"><ele>956.3333333333334</ele><time>2026-05-03T07:25:38.999Z</time></trkpt><trkpt lat="42.36560411150105" lon="13.510989015047308"><ele>956.1666666666667</ele><time>2026-05-03T07:25:39.999Z</time></trkpt><trkpt lat="42.365573951756474" lon="13.511075970608692"><ele>956.0</ele><time>2026-05-03T07:25:40.999Z</time></trkpt><trkpt lat="42.36555944092643" lon="13.51116107266225"><ele>955.5999999999999</ele><time>2026-05-03T07:25:41.999Z</time></trkpt><trkpt lat="42.36555723208221" lon="13.51126505671403"><ele>955.1999999999999</ele><time>2026-05-03T07:25:42.999Z</time></trkpt><trkpt lat="42.36552942838191" lon="13.511451160867473"><ele>954.8000000000001</ele><time>2026-05-03T07:25:44.999Z</time></trkpt><trkpt lat="42.365490722644616" lon="13.511545210345117"><ele>954.4000000000001</ele><time>2026-05-03T07:25:45.999Z</time></trkpt><trkpt lat="42.36545816704347" lon="13.511647471522357"><ele>954.0</ele><time>2026-05-03T07:25:46.999Z</time></trkpt><trkpt lat="42.36543383768551" lon="13.511739550500007"><ele>954.0</ele><time>2026-05-03T07:25:48Z</time></trkpt><trkpt lat="42.3654112555312" lon="13.511822605406678"><ele>954.0</ele><time>2026-05-03T07:25:49Z</time></trkpt><trkpt lat="42.365386752050085" lon="13.511905376419298"><ele>954.0</ele><time>2026-05-03T07:25:50Z</time></trkpt><trkpt lat="42.3653729403358" lon="13.512049465505326"><ele>954.0</ele><time>2026-05-03T07:25:52Z</time></trkpt><trkpt lat="42.3653834134156" lon="13.512203369865627"><ele>954.0</ele><time>2026-05-03T07:25:54Z</time></trkpt><trkpt lat="42.365377935385716" lon="13.512329073060117"><ele>954.0</ele><time>2026-05-03T07:25:56Z</time></trkpt><trkpt lat="42.365418251123266" lon="13.51245463791115"><ele>954.6</ele><time>2026-05-03T07:25:58Z</time></trkpt><trkpt lat="42.36546784978997" lon="13.512629947798272"><ele>955.2</ele><time>2026-05-03T07:26:00Z</time></trkpt><trkpt lat="42.36549184403119" lon="13.512745908359422"><ele>955.8000000000001</ele><time>2026-05-03T07:26:01Z</time></trkpt><trkpt lat="42.365504778207494" lon="13.512868098317552"><ele>956.4000000000001</ele><time>2026-05-03T07:26:02Z</time></trkpt><trkpt lat="42.36551869324674" lon="13.512978884126413"><ele>957.0</ele><time>2026-05-03T07:26:03Z</time></trkpt><trkpt lat="42.36553002145394" lon="13.51306515743721"><ele>957.0</ele><time>2026-05-03T07:26:04Z</time></trkpt><trkpt lat="42.36554021143543" lon="13.513160741105184"><ele>957.0</ele><time>2026-05-03T07:26:06Z</time></trkpt><trkpt lat="42.365483609471944" lon="13.513237500146259"><ele>957.0</ele><time>2026-05-03T07:26:10Z</time></trkpt><trkpt lat="42.36541260096248" lon="13.51321834063643"><ele>957.0</ele><time>2026-05-03T07:26:12Z</time></trkpt><trkpt lat="42.36531991751667" lon="13.513102475505981"><ele>957.0</ele><time>2026-05-03T07:26:14Z</time></trkpt><trkpt lat="42.36527245622454" lon="13.513002392420969"><ele>957.0</ele><time>2026-05-03T07:26:15Z</time></trkpt><trkpt lat="42.36522637841888" lon="13.512903143599939"><ele>957.0</ele><time>2026-05-03T07:26:16Z</time></trkpt><trkpt lat="42.36516985260653" lon="13.512814531947988"><ele>957.0</ele><time>2026-05-03T07:26:17Z</time></trkpt><trkpt lat="42.3651156072247" lon="13.512736362790738"><ele>957.0</ele><time>2026-05-03T07:26:18Z</time></trkpt><trkpt lat="42.36506083812522" lon="13.512661408424318"><ele>957.0</ele><time>2026-05-03T07:26:19Z</time></trkpt><trkpt lat="42.365007193118736" lon="13.512590774151336"><ele>957.0</ele><time>2026-05-03T07:26:20Z</time></trkpt><trkpt lat="42.36495154773166" lon="13.512498939329081"><ele>957.0</ele><time>2026-05-03T07:26:21Z</time></trkpt><trkpt lat="42.36491286099173" lon="13.51241594782153"><ele>957.0</ele><time>2026-05-03T07:26:22Z</time></trkpt><trkpt lat="42.364868394632616" lon="13.51233578179821"><ele>957.0000000000001</ele><time>2026-05-03T07:26:23Z</time></trkpt><trkpt lat="42.364818731764394" lon="13.51226027310046"><ele>957.0</ele><time>2026-05-03T07:26:24Z</time></trkpt><trkpt lat="42.36476932985002" lon="13.512191443932853"><ele>957.0</ele><time>2026-05-03T07:26:25Z</time></trkpt><trkpt lat="42.36472081962436" lon="13.512121033481012"><ele>957.0000000000001</ele><time>2026-05-03T07:26:26Z</time></trkpt><trkpt lat="42.36466377714106" lon="13.51206040539869"><ele>957.0</ele><time>2026-05-03T07:26:27Z</time></trkpt><trkpt lat="42.3645950596986" lon="13.512004396593648"><ele>957.0</ele><time>2026-05-03T07:26:28Z</time></trkpt><trkpt lat="42.364529427559816" lon="13.51194665855044"><ele>955.1666666666666</ele><time>2026-05-03T07:26:29Z</time></trkpt><trkpt lat="42.36446701813924" lon="13.511875674491849"><ele>953.3333333333333</ele><time>2026-05-03T07:26:30Z</time></trkpt><trkpt lat="42.364409751519794" lon="13.511802486853078"><ele>951.5</ele><time>2026-05-03T07:26:31Z</time></trkpt><trkpt lat="42.3643518848251" lon="13.511739005757414"><ele>949.6666666666666</ele><time>2026-05-03T07:26:32Z</time></trkpt><trkpt lat="42.364299428348474" lon="13.511678387265631"><ele>947.8333333333333</ele><time>2026-05-03T07:26:33Z</time></trkpt><trkpt lat="42.36425149432279" lon="13.511617001436969"><ele>946.0</ele><time>2026-05-03T07:26:34Z</time></trkpt><trkpt lat="42.364166043515866" lon="13.511500037508963"><ele>945.9999999999999</ele><time>2026-05-03T07:26:36Z</time></trkpt><trkpt lat="42.364045506009916" lon="13.511446103133261"><ele>946.0</ele><time>2026-05-03T07:26:38Z</time></trkpt><trkpt lat="42.36397721133247" lon="13.51142080797022"><ele>946.0</ele><time>2026-05-03T07:26:39Z</time></trkpt><trkpt lat="42.36391032741485" lon="13.511390852084615"><ele>946.0</ele><time>2026-05-03T07:26:40Z</time></trkpt><trkpt lat="42.3638376387766" lon="13.511369861579384"><ele>945.9999999999999</ele><time>2026-05-03T07:26:41Z</time></trkpt><trkpt lat="42.36375877957877" lon="13.51135118798872"><ele>946.0</ele><time>2026-05-03T07:26:42Z</time></trkpt><trkpt lat="42.3636853149425" lon="13.511331713266916"><ele>946.1666666666666</ele><time>2026-05-03T07:26:43Z</time></trkpt><trkpt lat="42.36361969093472" lon="13.511310666606596"><ele>946.3333333333333</ele><time>2026-05-03T07:26:43.999Z</time></trkpt><trkpt lat="42.36349989330744" lon="13.51127239844901"><ele>946.5</ele><time>2026-05-03T07:26:45.999Z</time></trkpt><trkpt lat="42.36342849806579" lon="13.511257155941315"><ele>946.6666666666667</ele><time>2026-05-03T07:26:46.999Z</time></trkpt><trkpt lat="42.36335663849019" lon="13.51124568998325"><ele>946.8333333333334</ele><time>2026-05-03T07:26:47.999Z</time></trkpt><trkpt lat="42.36329007075399" lon="13.511235002251263"><ele>947.0</ele><time>2026-05-03T07:26:48.999Z</time></trkpt><trkpt lat="42.363183497904345" lon="13.511196741389886"><ele>945.8</ele><time>2026-05-03T07:26:50.999Z</time></trkpt><trkpt lat="42.36310187409875" lon="13.511070920683508"><ele>944.6</ele><time>2026-05-03T07:26:52.999Z</time></trkpt><trkpt lat="42.36304748390316" lon="13.510987122170283"><ele>943.3999999999999</ele><time>2026-05-03T07:26:53.999Z</time></trkpt><trkpt lat="42.36299030936849" lon="13.510934561379482"><ele>942.1999999999999</ele><time>2026-05-03T07:26:54.999Z</time></trkpt><trkpt lat="42.36289145507809" lon="13.510843251344086"><ele>941.0</ele><time>2026-05-03T07:26:56.999Z</time></trkpt><trkpt lat="42.36284541174033" lon="13.510767200091722"><ele>939.5000000000001</ele><time>2026-05-03T07:26:57.999Z</time></trkpt><trkpt lat="42.36279502514262" lon="13.510682550244596"><ele>938.0</ele><time>2026-05-03T07:26:58.999Z</time></trkpt><trkpt lat="42.36273151471217" lon="13.51060882686627"><ele>936.5</ele><time>2026-05-03T07:26:59.999Z</time></trkpt><trkpt lat="42.362672940572565" lon="13.510555725195443"><ele>935.0</ele><time>2026-05-03T07:27:00.999Z</time></trkpt><trkpt lat="42.362567922292314" lon="13.510501682351203"><ele>933.5000000000001</ele><time>2026-05-03T07:27:02.999Z</time></trkpt><trkpt lat="42.36250337170836" lon="13.51050754263935"><ele>932.0</ele><time>2026-05-03T07:27:03.999Z</time></trkpt><trkpt lat="42.362434772499526" lon="13.510525012097041"><ele>932.0</ele><time>2026-05-03T07:27:04.999Z</time></trkpt><trkpt lat="42.36231145326787" lon="13.51054039922669"><ele>932.0</ele><time>2026-05-03T07:27:06.999Z</time></trkpt><trkpt lat="42.362239043509035" lon="13.510557014924398"><ele>932.0</ele><time>2026-05-03T07:27:07.999Z</time></trkpt><trkpt lat="42.362165860215896" lon="13.510594612168562"><ele>932.0</ele><time>2026-05-03T07:27:08.999Z</time></trkpt><trkpt lat="42.36210013817535" lon="13.510627981657835"><ele>932.0</ele><time>2026-05-03T07:27:09.999Z</time></trkpt><trkpt lat="42.36199029048122" lon="13.510633974552675"><ele>930.4000000000001</ele><time>2026-05-03T07:27:11.999Z</time></trkpt><trkpt lat="42.36186770644512" lon="13.510631509872468"><ele>928.8000000000001</ele><time>2026-05-03T07:27:13.999Z</time></trkpt><trkpt lat="42.36173974750319" lon="13.510697748040265"><ele>927.2</ele><time>2026-05-03T07:27:15.999Z</time></trkpt><trkpt lat="42.36167700292295" lon="13.510726557420847"><ele>925.6</ele><time>2026-05-03T07:27:16.999Z</time></trkpt><trkpt lat="42.36155771293316" lon="13.510722976026472"><ele>924.0</ele><time>2026-05-03T07:27:18.999Z</time></trkpt><trkpt lat="42.36148780428818" lon="13.510713316427504"><ele>924.0</ele><time>2026-05-03T07:27:19.999Z</time></trkpt><trkpt lat="42.36141792469313" lon="13.510710962141363"><ele>924.0000000000001</ele><time>2026-05-03T07:27:20.999Z</time></trkpt><trkpt lat="42.36130342332879" lon="13.510699453408707"><ele>924.0000000000001</ele><time>2026-05-03T07:27:22.999Z</time></trkpt><trkpt lat="42.361185906006845" lon="13.510633509724917"><ele>924.0</ele><time>2026-05-03T07:27:24.999Z</time></trkpt><trkpt lat="42.36111987846387" lon="13.51060093017017"><ele>924.0</ele><time>2026-05-03T07:27:25.999Z</time></trkpt><trkpt lat="42.36103628297278" lon="13.510579182719415"><ele>923.1666666666666</ele><time>2026-05-03T07:27:26.999Z</time></trkpt><trkpt lat="42.360959291658936" lon="13.510576059538636"><ele>922.3333333333333</ele><time>2026-05-03T07:27:27.999Z</time></trkpt><trkpt lat="42.36089443191938" lon="13.510565321235157"><ele>921.5</ele><time>2026-05-03T07:27:28.999Z</time></trkpt><trkpt lat="42.360830854048324" lon="13.510538418289363"><ele>920.6666666666666</ele><time>2026-05-03T07:27:29.999Z</time></trkpt><trkpt lat="42.360730371420196" lon="13.510479227378424"><ele>919.8333333333333</ele><time>2026-05-03T07:27:31.999Z</time></trkpt><trkpt lat="42.36065088585432" lon="13.510412425512412"><ele>919.0</ele><time>2026-05-03T07:27:33.999Z</time></trkpt><trkpt lat="42.36057504333486" lon="13.510313283303757"><ele>916.4000000000001</ele><time>2026-05-03T07:27:35.999Z</time></trkpt><trkpt lat="42.36047996840881" lon="13.510242941444302"><ele>913.8000000000001</ele><time>2026-05-03T07:27:37.999Z</time></trkpt><trkpt lat="42.36040552603049" lon="13.510200467502823"><ele>911.1999999999999</ele><time>2026-05-03T07:27:39.999Z</time></trkpt><trkpt lat="42.360343066017215" lon="13.51015116477249"><ele>908.5999999999999</ele><time>2026-05-03T07:27:41.999Z</time></trkpt><trkpt lat="42.36027875376445" lon="13.510073549598264"><ele>906.0</ele><time>2026-05-03T07:27:43.999Z</time></trkpt><trkpt lat="42.360194501984736" lon="13.509960240271983"><ele>906.0</ele><time>2026-05-03T07:27:45.999Z</time></trkpt><trkpt lat="42.3601142999271" lon="13.509861669712233"><ele>905.9999999999999</ele><time>2026-05-03T07:27:47.999Z</time></trkpt><trkpt lat="42.360039192187706" lon="13.509773347239811"><ele>905.9999999999999</ele><time>2026-05-03T07:27:49.999Z</time></trkpt><trkpt lat="42.35996169284956" lon="13.509654381556736"><ele>906.0</ele><time>2026-05-03T07:27:51.999Z</time></trkpt><trkpt lat="42.35992239509455" lon="13.509511354527847"><ele>906.0</ele><time>2026-05-03T07:27:54Z</time></trkpt><trkpt lat="42.35990386045719" lon="13.50941586091896"><ele>905.8333333333334</ele><time>2026-05-03T07:27:55Z</time></trkpt><trkpt lat="42.359887364188545" lon="13.509327884580863"><ele>905.6666666666667</ele><time>2026-05-03T07:27:56Z</time></trkpt><trkpt lat="42.35985811863847" lon="13.50922479694709"><ele>905.5</ele><time>2026-05-03T07:27:57Z</time></trkpt><trkpt lat="42.359821023469905" lon="13.509114201303587"><ele>905.3333333333334</ele><time>2026-05-03T07:27:58Z</time></trkpt><trkpt lat="42.35979805275499" lon="13.508999468879178"><ele>905.1666666666667</ele><time>2026-05-03T07:27:59Z</time></trkpt><trkpt lat="42.359782718419766" lon="13.508870605757142"><ele>905.0</ele><time>2026-05-03T07:28:00Z</time></trkpt><trkpt lat="42.35976171486457" lon="13.508744868483257"><ele>905.1666666666667</ele><time>2026-05-03T07:28:01Z</time></trkpt><trkpt lat="42.35973416993632" lon="13.508634715757863"><ele>905.3333333333334</ele><time>2026-05-03T07:28:02Z</time></trkpt><trkpt lat="42.35971366251437" lon="13.508529991840922"><ele>905.5</ele><time>2026-05-03T07:28:03Z</time></trkpt><trkpt lat="42.35969977204006" lon="13.50842770082688"><ele>905.6666666666667</ele><time>2026-05-03T07:28:04Z</time></trkpt><trkpt lat="42.35967956518289" lon="13.508331476383358"><ele>905.8333333333334</ele><time>2026-05-03T07:28:05Z</time></trkpt><trkpt lat="42.35966333840047" lon="13.508223356052225"><ele>906.0</ele><time>2026-05-03T07:28:06Z</time></trkpt><trkpt lat="42.35965266726783" lon="13.508107784437145"><ele>904.0</ele><time>2026-05-03T07:28:07Z</time></trkpt><trkpt lat="42.3596322988414" lon="13.507992682255988"><ele>902.0</ele><time>2026-05-03T07:28:08Z</time></trkpt><trkpt lat="42.359605534667104" lon="13.507868667260182"><ele>900.0</ele><time>2026-05-03T07:28:09Z</time></trkpt><trkpt lat="42.3595829418339" lon="13.507746792593077"><ele>898.0</ele><time>2026-05-03T07:28:10Z</time></trkpt><trkpt lat="42.35956508956624" lon="13.507650131618496"><ele>896.0</ele><time>2026-05-03T07:28:11Z</time></trkpt><trkpt lat="42.359559196528885" lon="13.50755040513136"><ele>894.0</ele><time>2026-05-03T07:28:12Z</time></trkpt><trkpt lat="42.3595770767305" lon="13.507453894907936"><ele>892.8333333333334</ele><time>2026-05-03T07:28:13Z</time></trkpt><trkpt lat="42.359589537742416" lon="13.50736532290352"><ele>891.6666666666667</ele><time>2026-05-03T07:28:14Z</time></trkpt><trkpt lat="42.35954307465264" lon="13.507210534915396"><ele>890.5</ele><time>2026-05-03T07:28:16Z</time></trkpt><trkpt lat="42.359505466987265" lon="13.507141506260972"><ele>889.3333333333334</ele><time>2026-05-03T07:28:17Z</time></trkpt><trkpt lat="42.35946958820073" lon="13.50704786523388"><ele>888.1666666666667</ele><time>2026-05-03T07:28:19Z</time></trkpt><trkpt lat="42.35949136079818" lon="13.506928073780815"><ele>887.0</ele><time>2026-05-03T07:28:21Z</time></trkpt><trkpt lat="42.35950298063351" lon="13.506840370880468"><ele>885.8</ele><time>2026-05-03T07:28:22Z</time></trkpt><trkpt lat="42.35949333740315" lon="13.50670359149503"><ele>884.6</ele><time>2026-05-03T07:28:24Z</time></trkpt><trkpt lat="42.359434080930995" lon="13.506521279390087"><ele>883.3999999999999</ele><time>2026-05-03T07:28:26Z</time></trkpt><trkpt lat="42.359402547526685" lon="13.506411845131515"><ele>882.1999999999999</ele><time>2026-05-03T07:28:27Z</time></trkpt><trkpt lat="42.359386650599" lon="13.506327126067237"><ele>881.0</ele><time>2026-05-03T07:28:28Z</time></trkpt><trkpt lat="42.359322366007014" lon="13.506256789412419"><ele>881.0</ele><time>2026-05-03T07:28:31Z</time></trkpt><trkpt lat="42.35918940996303" lon="13.50633841023341"><ele>881.0</ele><time>2026-05-03T07:28:33Z</time></trkpt><trkpt lat="42.359089736273845" lon="13.506354942437333"><ele>881.0</ele><time>2026-05-03T07:28:34Z</time></trkpt><trkpt lat="42.35898446693718" lon="13.506295022444965"><ele>881.0</ele><time>2026-05-03T07:28:35Z</time></trkpt><trkpt lat="42.35887630484958" lon="13.506177226510344"><ele>883.5</ele><time>2026-05-03T07:28:35.999Z</time></trkpt><trkpt lat="42.35878597771099" lon="13.506029078694858"><ele>886.0</ele><time>2026-05-03T07:28:36.999Z</time></trkpt><trkpt lat="42.35870539479014" lon="13.50586244528451"><ele>888.5</ele><time>2026-05-03T07:28:37.999Z</time></trkpt><trkpt lat="42.35861784021074" lon="13.50569054552201"><ele>891.0</ele><time>2026-05-03T07:28:38.999Z</time></trkpt><trkpt lat="42.35851942269756" lon="13.505515654567578"><ele>886.0</ele><time>2026-05-03T07:28:39.999Z</time></trkpt><trkpt lat="42.35842150003058" lon="13.505340702595248"><ele>881.0</ele><time>2026-05-03T07:28:40.999Z</time></trkpt><trkpt lat="42.358322920857084" lon="13.505158970926516"><ele>876.0</ele><time>2026-05-03T07:28:41.999Z</time></trkpt><trkpt lat="42.35821516486464" lon="13.505007472068659"><ele>876.0</ele><time>2026-05-03T07:28:42.999Z</time></trkpt><trkpt lat="42.358082580184" lon="13.504881932899755"><ele>876.0</ele><time>2026-05-03T07:28:43.999Z</time></trkpt><trkpt lat="42.35794110490038" lon="13.504778548999186"><ele>876.0</ele><time>2026-05-03T07:28:44.999Z</time></trkpt><trkpt lat="42.35779735824768" lon="13.504674568293717"><ele>876.0</ele><time>2026-05-03T07:28:45.999Z</time></trkpt><trkpt lat="42.3576643732173" lon="13.504574445445957"><ele>876.0</ele><time>2026-05-03T07:28:46.999Z</time></trkpt><trkpt lat="42.357535758158264" lon="13.504505409382379"><ele>876.0</ele><time>2026-05-03T07:28:47.999Z</time></trkpt><trkpt lat="42.35739776982129" lon="13.50447575211991"><ele>876.0</ele><time>2026-05-03T07:28:48.999Z</time></trkpt><trkpt lat="42.357261518622884" lon="13.504471558585706"><ele>877.0</ele><time>2026-05-03T07:28:49.999Z</time></trkpt><trkpt lat="42.357128882026146" lon="13.504486515803682"><ele>878.0</ele><time>2026-05-03T07:28:50.999Z</time></trkpt><trkpt lat="42.35699963841042" lon="13.504517828447765"><ele>879.0</ele><time>2026-05-03T07:28:51.999Z</time></trkpt><trkpt lat="42.35688083576331" lon="13.504570624809135"><ele>880.0</ele><time>2026-05-03T07:28:52.999Z</time></trkpt><trkpt lat="42.356772354400384" lon="13.5046427114153"><ele>884.5</ele><time>2026-05-03T07:28:53.999Z</time></trkpt><trkpt lat="42.35667960974292" lon="13.504740519950959"><ele>889.0</ele><time>2026-05-03T07:28:54.999Z</time></trkpt><trkpt lat="42.35660273554399" lon="13.504854065276135"><ele>893.5</ele><time>2026-05-03T07:28:55.999Z</time></trkpt><trkpt lat="42.35654723509437" lon="13.504984875326224"><ele>898.0</ele><time>2026-05-03T07:28:56.999Z</time></trkpt><trkpt lat="42.356505723196435" lon="13.505126788706882"><ele>898.0</ele><time>2026-05-03T07:28:57.999Z</time></trkpt><trkpt lat="42.35647018838301" lon="13.505260286072996"><ele>898.0</ele><time>2026-05-03T07:28:58.999Z</time></trkpt><trkpt lat="42.35644046019633" lon="13.505366481587995"><ele>898.0</ele><time>2026-05-03T07:28:59.999Z</time></trkpt><trkpt lat="42.35639729974424" lon="13.505474609199995"><ele>898.0</ele><time>2026-05-03T07:29:01.999Z</time></trkpt><trkpt lat="42.35651109029902" lon="13.505614344539993"><ele>898.0</ele><time>2026-05-03T07:29:28.999Z</time></trkpt><trkpt lat="42.35655565868679" lon="13.50568040639654"><ele>899.9999999999999</ele><time>2026-05-03T07:29:29.999Z</time></trkpt><trkpt lat="42.356600421987984" lon="13.505744178221592"><ele>902.0</ele><time>2026-05-03T07:29:30.999Z</time></trkpt><trkpt lat="42.35664569927337" lon="13.505804236685657"><ele>904.0</ele><time>2026-05-03T07:29:31.999Z</time></trkpt><trkpt lat="42.356709162091285" lon="13.505844307564091"><ele>906.0</ele><time>2026-05-03T07:29:32.999Z</time></trkpt><trkpt lat="42.35676546357716" lon="13.505915157616702"><ele>907.9999999999999</ele><time>2026-05-03T07:29:33.999Z</time></trkpt><trkpt lat="42.35685224608627" lon="13.505979264217261"><ele>910.0</ele><time>2026-05-03T07:29:35.999Z</time></trkpt><trkpt lat="42.356920171526085" lon="13.50608627849571"><ele>910.0</ele><time>2026-05-03T07:29:37.999Z</time></trkpt><trkpt lat="42.357001063228985" lon="13.506208701620613"><ele>910.0</ele><time>2026-05-03T07:29:39.999Z</time></trkpt><trkpt lat="42.357002580243694" lon="13.506302665223043"><ele>910.0</ele><time>2026-05-03T07:29:40.999Z</time></trkpt><trkpt lat="42.35701509447694" lon="13.50645006236272"><ele>910.0</ele><time>2026-05-03T07:29:42.999Z</time></trkpt><trkpt lat="42.35700418562707" lon="13.506569416645158"><ele>910.0</ele><time>2026-05-03T07:29:44.999Z</time></trkpt><trkpt lat="42.356997988994074" lon="13.506663075701013"><ele>911.6666666666666</ele><time>2026-05-03T07:29:46.999Z</time></trkpt><trkpt lat="42.35701347879711" lon="13.506755750350028"><ele>913.3333333333333</ele><time>2026-05-03T07:29:48.999Z</time></trkpt><trkpt lat="42.357073120590705" lon="13.506802020524983"><ele>915.0</ele><time>2026-05-03T07:29:50.999Z</time></trkpt><trkpt lat="42.35718014558946" lon="13.506788489813417"><ele>916.6666666666667</ele><time>2026-05-03T07:29:52.999Z</time></trkpt><trkpt lat="42.3572472384821" lon="13.506734514112434"><ele>918.3333333333334</ele><time>2026-05-03T07:29:53.999Z</time></trkpt><trkpt lat="42.35730401491697" lon="13.506676270517087"><ele>920.0</ele><time>2026-05-03T07:29:54.999Z</time></trkpt><trkpt lat="42.357395442103694" lon="13.506626069860083"><ele>921.0</ele><time>2026-05-03T07:29:56.999Z</time></trkpt><trkpt lat="42.35747221679073" lon="13.506695673467588"><ele>922.0</ele><time>2026-05-03T07:30:00Z</time></trkpt><trkpt lat="42.35750983290207" lon="13.50686675264823"><ele>923.0</ele><time>2026-05-03T07:30:02Z</time></trkpt><trkpt lat="42.357521199006015" lon="13.50698405483672"><ele>924.0</ele><time>2026-05-03T07:30:03Z</time></trkpt><trkpt lat="42.3575285261509" lon="13.507101225521904"><ele>925.0</ele><time>2026-05-03T07:30:04Z</time></trkpt><trkpt lat="42.35753743996159" lon="13.507231620432622"><ele>925.8333333333333</ele><time>2026-05-03T07:30:05Z</time></trkpt><trkpt lat="42.35754892689424" lon="13.507359890286446"><ele>926.6666666666666</ele><time>2026-05-03T07:30:06Z</time></trkpt><trkpt lat="42.35755212221742" lon="13.507476465301117"><ele>927.5</ele><time>2026-05-03T07:30:07Z</time></trkpt><trkpt lat="42.35753906707658" lon="13.507583610832638"><ele>928.3333333333333</ele><time>2026-05-03T07:30:08Z</time></trkpt><trkpt lat="42.35751408756572" lon="13.507703835690663"><ele>929.1666666666666</ele><time>2026-05-03T07:30:09Z</time></trkpt><trkpt lat="42.357499553591374" lon="13.50781393324178"><ele>930.0</ele><time>2026-05-03T07:30:10Z</time></trkpt><trkpt lat="42.357504833252754" lon="13.507904118430359"><ele>931.3333333333334</ele><time>2026-05-03T07:30:11Z</time></trkpt><trkpt lat="42.35753784704748" lon="13.508097177655094"><ele>932.6666666666667</ele><time>2026-05-03T07:30:13Z</time></trkpt><trkpt lat="42.357547367044575" lon="13.50820046992219"><ele>934.0</ele><time>2026-05-03T07:30:14Z</time></trkpt><trkpt lat="42.357532406942376" lon="13.508296811240184"><ele>935.3333333333334</ele><time>2026-05-03T07:30:15Z</time></trkpt><trkpt lat="42.35752152204979" lon="13.508387513908726"><ele>936.6666666666667</ele><time>2026-05-03T07:30:16Z</time></trkpt><trkpt lat="42.35751279316479" lon="13.5084749191561"><ele>938.0</ele><time>2026-05-03T07:30:17Z</time></trkpt><trkpt lat="42.35751746913762" lon="13.508565754531885"><ele>938.0</ele><time>2026-05-03T07:30:18Z</time></trkpt><trkpt lat="42.3575063742848" lon="13.50866794882276"><ele>938.0</ele><time>2026-05-03T07:30:19Z</time></trkpt><trkpt lat="42.357476102339696" lon="13.508770904524555"><ele>938.0</ele><time>2026-05-03T07:30:20Z</time></trkpt><trkpt lat="42.3574560452379" lon="13.508923606112473"><ele>938.0</ele><time>2026-05-03T07:30:22Z</time></trkpt><trkpt lat="42.35745562597197" lon="13.509037383211503"><ele>938.0</ele><time>2026-05-03T07:30:25Z</time></trkpt><trkpt lat="42.35741412147379" lon="13.509179906097504"><ele>940.1428571428571</ele><time>2026-05-03T07:30:27Z</time></trkpt><trkpt lat="42.35739429084647" lon="13.509276902768072"><ele>942.2857142857142</ele><time>2026-05-03T07:30:28Z</time></trkpt><trkpt lat="42.35735641938777" lon="13.509364367387754"><ele>944.4285714285714</ele><time>2026-05-03T07:30:29.999Z</time></trkpt><trkpt lat="42.35731672272182" lon="13.509447660502273"><ele>946.5714285714286</ele><time>2026-05-03T07:30:37.999Z</time></trkpt><trkpt lat="42.35735913314277" lon="13.509359905762329"><ele>948.7142857142857</ele><time>2026-05-03T07:31:27.999Z</time></trkpt><trkpt lat="42.357355741186076" lon="13.509274225262432"><ele>950.8571428571429</ele><time>2026-05-03T07:31:40.999Z</time></trkpt><trkpt lat="42.35741060710748" lon="13.509222820149276"><ele>953.0</ele><time>2026-05-03T07:31:47.999Z</time></trkpt><trkpt lat="42.35742427856352" lon="13.509133568008792"><ele>953.0000000000001</ele><time>2026-05-03T07:31:49.999Z</time></trkpt><trkpt lat="42.357446298243666" lon="13.509049886079234"><ele>953.0</ele><time>2026-05-03T07:31:52.999Z</time></trkpt><trkpt lat="42.35755045804106" lon="13.509029227541404"><ele>953.0</ele><time>2026-05-03T07:31:56.999Z</time></trkpt><trkpt lat="42.35760458183505" lon="13.509088735441113"><ele>953.0</ele><time>2026-05-03T07:31:57.999Z</time></trkpt><trkpt lat="42.35765167991465" lon="13.509184512944003"><ele>953.0000000000001</ele><time>2026-05-03T07:31:58.999Z</time></trkpt><trkpt lat="42.35770619577971" lon="13.509287357194896"><ele>953.0</ele><time>2026-05-03T07:31:59.999Z</time></trkpt><trkpt lat="42.35776493957566" lon="13.509392649365443"><ele>953.0</ele><time>2026-05-03T07:32:00.999Z</time></trkpt><trkpt lat="42.357822943533826" lon="13.509493475092944"><ele>953.0</ele><time>2026-05-03T07:32:01.999Z</time></trkpt><trkpt lat="42.35787290747627" lon="13.509600486805365"><ele>953.0</ele><time>2026-05-03T07:32:02.999Z</time></trkpt><trkpt lat="42.3579081392454" lon="13.509721061017776"><ele>953.0</ele><time>2026-05-03T07:32:03.999Z</time></trkpt><trkpt lat="42.35793313966487" lon="13.509856949083842"><ele>953.0</ele><time>2026-05-03T07:32:04.999Z</time></trkpt><trkpt lat="42.35795800043173" lon="13.509997673888993"><ele>954.8333333333334</ele><time>2026-05-03T07:32:06Z</time></trkpt><trkpt lat="42.35797159107912" lon="13.510123192633754"><ele>956.6666666666667</ele><time>2026-05-03T07:32:07Z</time></trkpt><trkpt lat="42.35797155292172" lon="13.51024777851158"><ele>958.5</ele><time>2026-05-03T07:32:08Z</time></trkpt><trkpt lat="42.35796009804558" lon="13.51037512600405"><ele>960.3333333333333</ele><time>2026-05-03T07:32:09Z</time></trkpt><trkpt lat="42.35793714186" lon="13.510481625922315"><ele>962.1666666666666</ele><time>2026-05-03T07:32:10Z</time></trkpt><trkpt lat="42.357896485678864" lon="13.51055333754575"><ele>964.0</ele><time>2026-05-03T07:32:11Z</time></trkpt><trkpt lat="42.357832801266525" lon="13.510586111268575"><ele>964.3333333333333</ele><time>2026-05-03T07:32:12Z</time></trkpt><trkpt lat="42.357746176187725" lon="13.510569022366417"><ele>964.6666666666666</ele><time>2026-05-03T07:32:13Z</time></trkpt><trkpt lat="42.35767178130975" lon="13.510564801619273"><ele>965.0</ele><time>2026-05-03T07:32:14Z</time></trkpt><trkpt lat="42.35760592159195" lon="13.510582916148518"><ele>965.3333333333333</ele><time>2026-05-03T07:32:15Z</time></trkpt><trkpt lat="42.35753158733101" lon="13.510624678131288"><ele>965.6666666666666</ele><time>2026-05-03T07:32:17Z</time></trkpt><trkpt lat="42.35756972659056" lon="13.510797559504022"><ele>966.0</ele><time>2026-05-03T07:32:20Z</time></trkpt><trkpt lat="42.357629938103265" lon="13.51087697672517"><ele>966.0</ele><time>2026-05-03T07:32:21Z</time></trkpt><trkpt lat="42.357674845894365" lon="13.510980360102153"><ele>965.9999999999999</ele><time>2026-05-03T07:32:22Z</time></trkpt><trkpt lat="42.357724995185706" lon="13.511108265040837"><ele>965.9999999999999</ele><time>2026-05-03T07:32:23Z</time></trkpt><trkpt lat="42.357790367984286" lon="13.511240918281606"><ele>966.0</ele><time>2026-05-03T07:32:24Z</time></trkpt><trkpt lat="42.35782597218931" lon="13.511378006378962"><ele>966.0</ele><time>2026-05-03T07:32:25Z</time></trkpt><trkpt lat="42.35787040678709" lon="13.511503531548604"><ele>966.0</ele><time>2026-05-03T07:32:26Z</time></trkpt><trkpt lat="42.35792349700155" lon="13.511634935382826"><ele>966.0</ele><time>2026-05-03T07:32:27Z</time></trkpt><trkpt lat="42.35797527030731" lon="13.511772203685075"><ele>966.0</ele><time>2026-05-03T07:32:28Z</time></trkpt><trkpt lat="42.358024256752294" lon="13.511913813211144"><ele>966.0</ele><time>2026-05-03T07:32:29Z</time></trkpt><trkpt lat="42.35807404134335" lon="13.512055532060304"><ele>966.75</ele><time>2026-05-03T07:32:30Z</time></trkpt><trkpt lat="42.35812483229443" lon="13.512197218490165"><ele>967.5</ele><time>2026-05-03T07:32:31Z</time></trkpt><trkpt lat="42.35817804632092" lon="13.512340411318974"><ele>968.25</ele><time>2026-05-03T07:32:32Z</time></trkpt><trkpt lat="42.358230637684834" lon="13.512482508137369"><ele>969.0</ele><time>2026-05-03T07:32:33Z</time></trkpt><trkpt lat="42.35828191049412" lon="13.512625934866517"><ele>969.0</ele><time>2026-05-03T07:32:34Z</time></trkpt><trkpt lat="42.358340165758825" lon="13.512771348574661"><ele>969.0</ele><time>2026-05-03T07:32:35Z</time></trkpt><trkpt lat="42.358395827383596" lon="13.512914621940634"><ele>969.0</ele><time>2026-05-03T07:32:36Z</time></trkpt><trkpt lat="42.35845208974881" lon="13.513062307363409"><ele>969.0</ele><time>2026-05-03T07:32:37Z</time></trkpt><trkpt lat="42.35851086426704" lon="13.513211867697287"><ele>969.5</ele><time>2026-05-03T07:32:37.999Z</time></trkpt><trkpt lat="42.358568985664235" lon="13.51336460492846"><ele>970.0</ele><time>2026-05-03T07:32:38.999Z</time></trkpt><trkpt lat="42.35862865824168" lon="13.513519824197585"><ele>970.5</ele><time>2026-05-03T07:32:39.999Z</time></trkpt><trkpt lat="42.35868924672239" lon="13.513675345912102"><ele>971.0</ele><time>2026-05-03T07:32:40.999Z</time></trkpt><trkpt lat="42.3587503250697" lon="13.513832742000028"><ele>971.25</ele><time>2026-05-03T07:32:41.999Z</time></trkpt><trkpt lat="42.35881156120712" lon="13.513990719356446"><ele>971.5</ele><time>2026-05-03T07:32:42.999Z</time></trkpt><trkpt lat="42.35887329881075" lon="13.514140694064322"><ele>971.75</ele><time>2026-05-03T07:32:43.999Z</time></trkpt><trkpt lat="42.35893394450581" lon="13.51428353336848"><ele>972.0</ele><time>2026-05-03T07:32:44.999Z</time></trkpt><trkpt lat="42.35899534415524" lon="13.514421404747129"><ele>974.0</ele><time>2026-05-03T07:32:45.999Z</time></trkpt><trkpt lat="42.35905494878106" lon="13.514557578752958"><ele>976.0</ele><time>2026-05-03T07:32:46.999Z</time></trkpt><trkpt lat="42.35911201412677" lon="13.514690038073379"><ele>978.0</ele><time>2026-05-03T07:32:47.999Z</time></trkpt><trkpt lat="42.35916657302219" lon="13.514818230109503"><ele>980.0</ele><time>2026-05-03T07:32:48.999Z</time></trkpt><trkpt lat="42.35922326933985" lon="13.514931818032634"><ele>982.0</ele><time>2026-05-03T07:32:49.999Z</time></trkpt><trkpt lat="42.359284179937205" lon="13.515022211964288"><ele>982.4999999999999</ele><time>2026-05-03T07:32:50.999Z</time></trkpt><trkpt lat="42.35935293524643" lon="13.515069841385444"><ele>983.0</ele><time>2026-05-03T07:32:51.999Z</time></trkpt><trkpt lat="42.35941553903326" lon="13.515087159524283"><ele>983.5</ele><time>2026-05-03T07:32:52.999Z</time></trkpt><trkpt lat="42.359512871612665" lon="13.515073949029976"><ele>984.0</ele><time>2026-05-03T07:32:54.999Z</time></trkpt><trkpt lat="42.359586414636496" lon="13.51505191789231"><ele>984.4999999999999</ele><time>2026-05-03T07:32:57.999Z</time></trkpt><trkpt lat="42.35965400715344" lon="13.514995329347713"><ele>985.0</ele><time>2026-05-03T07:33:05.999Z</time></trkpt><trkpt lat="42.35958251891008" lon="13.515041998067085"><ele>984.9999999999999</ele><time>2026-05-03T07:33:10.999Z</time></trkpt><trkpt lat="42.359480508889085" lon="13.515061567331893"><ele>985.0</ele><time>2026-05-03T07:33:12.999Z</time></trkpt><trkpt lat="42.35940671262872" lon="13.515065054176686"><ele>985.0</ele><time>2026-05-03T07:33:13.999Z</time></trkpt><trkpt lat="42.359327874489445" lon="13.515029136731554"><ele>985.0</ele><time>2026-05-03T07:33:14.999Z</time></trkpt><trkpt lat="42.35925522732068" lon="13.5149611099035"><ele>984.9999999999999</ele><time>2026-05-03T07:33:15.999Z</time></trkpt><trkpt lat="42.359194748602164" lon="13.51485298731113"><ele>985.0</ele><time>2026-05-03T07:33:16.999Z</time></trkpt><trkpt lat="42.35914402979321" lon="13.514713870845338"><ele>985.0</ele><time>2026-05-03T07:33:17.999Z</time></trkpt><trkpt lat="42.35908899111841" lon="13.514591892276044"><ele>985.0</ele><time>2026-05-03T07:33:18.999Z</time></trkpt><trkpt lat="42.35902814926477" lon="13.51446421524944"><ele>985.0</ele><time>2026-05-03T07:33:19.999Z</time></trkpt><trkpt lat="42.35896970211782" lon="13.5143365027299"><ele>985.0</ele><time>2026-05-03T07:33:20.999Z</time></trkpt><trkpt lat="42.35891872704457" lon="13.514215068186568"><ele>985.0</ele><time>2026-05-03T07:33:21.999Z</time></trkpt><trkpt lat="42.35887896614011" lon="13.514105185079847"><ele>982.8333333333333</ele><time>2026-05-03T07:33:22.999Z</time></trkpt><trkpt lat="42.35883785713164" lon="13.513998996560003"><ele>980.6666666666666</ele><time>2026-05-03T07:33:23.999Z</time></trkpt><trkpt lat="42.3588016965224" lon="13.51391049989794"><ele>978.5</ele><time>2026-05-03T07:33:24.999Z</time></trkpt><trkpt lat="42.35875354448761" lon="13.513780625991483"><ele>976.3333333333333</ele><time>2026-05-03T07:33:26.999Z</time></trkpt><trkpt lat="42.35868707704863" lon="13.513761634618076"><ele>974.1666666666666</ele><time>2026-05-03T07:33:28.999Z</time></trkpt><trkpt lat="42.358651346103564" lon="13.513846712824476"><ele>972.0</ele><time>2026-05-03T07:33:30.999Z</time></trkpt><trkpt lat="42.358671040948146" lon="13.513938383717987"><ele>972.0</ele><time>2026-05-03T07:33:31.999Z</time></trkpt><trkpt lat="42.35879217568238" lon="13.513997613408115"><ele>972.0</ele><time>2026-05-03T07:33:32.999Z</time></trkpt><trkpt lat="42.35884364359583" lon="13.514122189225594"><ele>972.0</ele><time>2026-05-03T07:33:33.999Z</time></trkpt><trkpt lat="42.35890921515333" lon="13.514268495049457"><ele>972.0</ele><time>2026-05-03T07:33:34.999Z</time></trkpt><trkpt lat="42.35897642024883" lon="13.514418445250353"><ele>975.25</ele><time>2026-05-03T07:33:35.999Z</time></trkpt><trkpt lat="42.359043398029286" lon="13.514572796488531"><ele>978.5</ele><time>2026-05-03T07:33:36.999Z</time></trkpt><trkpt lat="42.35910651558955" lon="13.514723036699518"><ele>981.75</ele><time>2026-05-03T07:33:37.999Z</time></trkpt><trkpt lat="42.359164821318366" lon="13.514849617331038"><ele>985.0</ele><time>2026-05-03T07:33:38.999Z</time></trkpt><trkpt lat="42.3592221571442" lon="13.514963465887838"><ele>985.0</ele><time>2026-05-03T07:33:39.999Z</time></trkpt><trkpt lat="42.35927985319542" lon="13.515054736313822"><ele>985.0</ele><time>2026-05-03T07:33:40.999Z</time></trkpt><trkpt lat="42.359332369888364" lon="13.515137487224845"><ele>985.0</ele><time>2026-05-03T07:33:41.999Z</time></trkpt><trkpt lat="42.359374842537356" lon="13.515204411740957"><ele>985.0</ele><time>2026-05-03T07:33:42.999Z</time></trkpt><trkpt lat="42.359234055896074" lon="13.515531758461924"><ele>985.8333333333333</ele><time>2026-05-03T07:33:44.999Z</time></trkpt><trkpt lat="42.359166540022706" lon="13.515683064758534"><ele>986.6666666666666</ele><time>2026-05-03T07:33:46.999Z</time></trkpt><trkpt lat="42.359128438996116" lon="13.515773867005295"><ele>987.5</ele><time>2026-05-03T07:33:47.999Z</time></trkpt><trkpt lat="42.35910590262805" lon="13.515858503104027"><ele>988.3333333333333</ele><time>2026-05-03T07:33:48.999Z</time></trkpt><trkpt lat="42.35908528583283" lon="13.515962590309202"><ele>989.1666666666666</ele><time>2026-05-03T07:33:49.999Z</time></trkpt><trkpt lat="42.359064319935186" lon="13.516051086216484"><ele>990.0</ele><time>2026-05-03T07:33:50.999Z</time></trkpt><trkpt lat="42.35905459997427" lon="13.516200470434127"><ele>992.5</ele><time>2026-05-03T07:33:52.999Z</time></trkpt><trkpt lat="42.35905805216952" lon="13.516292788563154"><ele>995.0</ele><time>2026-05-03T07:33:53.999Z</time></trkpt><trkpt lat="42.359060153203394" lon="13.516383794967094"><ele>997.5</ele><time>2026-05-03T07:33:54.999Z</time></trkpt><trkpt lat="42.359058863922286" lon="13.516473850641171"><ele>1000.0</ele><time>2026-05-03T07:33:55.999Z</time></trkpt><trkpt lat="42.359047398595585" lon="13.516561332725583"><ele>1002.5</ele><time>2026-05-03T07:33:56.999Z</time></trkpt><trkpt lat="42.35901719523773" lon="13.516726296406096"><ele>1005.0</ele><time>2026-05-03T07:33:58.999Z</time></trkpt><trkpt lat="42.358989130597756" lon="13.516808462210049"><ele>1005.0</ele><time>2026-05-03T07:33:59.999Z</time></trkpt><trkpt lat="42.358957062766045" lon="13.516895177533303"><ele>1005.0</ele><time>2026-05-03T07:34:00.999Z</time></trkpt><trkpt lat="42.35891147960757" lon="13.516997735059997"><ele>1005.0</ele><time>2026-05-03T07:34:01.999Z</time></trkpt><trkpt lat="42.358855951879825" lon="13.517112564902368"><ele>1005.0</ele><time>2026-05-03T07:34:02.999Z</time></trkpt><trkpt lat="42.35879365558025" lon="13.517238387309558"><ele>1005.0</ele><time>2026-05-03T07:34:03.999Z</time></trkpt><trkpt lat="42.358739091913186" lon="13.517360972262518"><ele>1004.0</ele><time>2026-05-03T07:34:04.999Z</time></trkpt><trkpt lat="42.3586875215036" lon="13.517470023052168"><ele>1003.0</ele><time>2026-05-03T07:34:05.999Z</time></trkpt><trkpt lat="42.35864754678133" lon="13.517547387824767"><ele>1002.0</ele><time>2026-05-03T07:34:06.999Z</time></trkpt><trkpt lat="42.35858633456454" lon="13.517648137213678"><ele>1001.0</ele><time>2026-05-03T07:34:08.999Z</time></trkpt><trkpt lat="42.35859876877268" lon="13.517753660649857"><ele>1000.0</ele><time>2026-05-03T07:34:12Z</time></trkpt><trkpt lat="42.35866983340909" lon="13.517804204698658"><ele>999.0</ele><time>2026-05-03T07:34:14Z</time></trkpt><trkpt lat="42.35873036971649" lon="13.51774132998625"><ele>999.0</ele><time>2026-05-03T07:34:16Z</time></trkpt><trkpt lat="42.358788599905104" lon="13.517604197556622"><ele>999.0</ele><time>2026-05-03T07:34:18Z</time></trkpt><trkpt lat="42.358829065528205" lon="13.5175219507235"><ele>999.0</ele><time>2026-05-03T07:34:19Z</time></trkpt><trkpt lat="42.358875523166546" lon="13.51744338782465"><ele>999.0</ele><time>2026-05-03T07:34:20Z</time></trkpt><trkpt lat="42.35893055941157" lon="13.517364789024917"><ele>999.0</ele><time>2026-05-03T07:34:21Z</time></trkpt><trkpt lat="42.35899146214658" lon="13.51728908333428"><ele>999.0</ele><time>2026-05-03T07:34:22Z</time></trkpt><trkpt lat="42.359051851646235" lon="13.51721418170235"><ele>999.8571428571429</ele><time>2026-05-03T07:34:23Z</time></trkpt><trkpt lat="42.359108679857485" lon="13.517138878165282"><ele>1000.7142857142858</ele><time>2026-05-03T07:34:24Z</time></trkpt><trkpt lat="42.359155532010554" lon="13.517069651511155"><ele>1001.5714285714287</ele><time>2026-05-03T07:34:25Z</time></trkpt><trkpt lat="42.35919883991824" lon="13.517000615812739"><ele>1002.4285714285716</ele><time>2026-05-03T07:34:26Z</time></trkpt><trkpt lat="42.359245760665644" lon="13.516933544811828"><ele>1003.2857142857143</ele><time>2026-05-03T07:34:27Z</time></trkpt><trkpt lat="42.35929178856704" lon="13.516861656535907"><ele>1004.1428571428573</ele><time>2026-05-03T07:34:28Z</time></trkpt><trkpt lat="42.35933588259243" lon="13.516797752665441"><ele>1005.0000000000001</ele><time>2026-05-03T07:34:29Z</time></trkpt><trkpt lat="42.359390363674265" lon="13.516732929693426"><ele>1005.0000000000001</ele><time>2026-05-03T07:34:30Z</time></trkpt><trkpt lat="42.35944699756883" lon="13.516688149814485"><ele>1005.0</ele><time>2026-05-03T07:34:31Z</time></trkpt><trkpt lat="42.35950995483549" lon="13.516649961200075"><ele>1005.0000000000001</ele><time>2026-05-03T07:34:32Z</time></trkpt><trkpt lat="42.359575224210474" lon="13.516622072468122"><ele>1005.0000000000001</ele><time>2026-05-03T07:34:33Z</time></trkpt><trkpt lat="42.359641522824276" lon="13.516592843647091"><ele>1005.0</ele><time>2026-05-03T07:34:34Z</time></trkpt><trkpt lat="42.359706096372534" lon="13.516570974857464"><ele>1005.0000000000001</ele><time>2026-05-03T07:34:35Z</time></trkpt><trkpt lat="42.35977183113566" lon="13.516557364686163"><ele>1005.0000000000001</ele><time>2026-05-03T07:34:36Z</time></trkpt><trkpt lat="42.3598346015407" lon="13.516542562928695"><ele>1007.4285714285716</ele><time>2026-05-03T07:34:37Z</time></trkpt><trkpt lat="42.3598995752053" lon="13.516520587153067"><ele>1009.8571428571429</ele><time>2026-05-03T07:34:38Z</time></trkpt><trkpt lat="42.35996269653966" lon="13.51650315580685"><ele>1012.2857142857143</ele><time>2026-05-03T07:34:38.999Z</time></trkpt><trkpt lat="42.36003991657669" lon="13.516485935836927"><ele>1014.7142857142858</ele><time>2026-05-03T07:34:39.999Z</time></trkpt><trkpt lat="42.3601165564781" lon="13.516474310235788"><ele>1017.1428571428571</ele><time>2026-05-03T07:34:40.999Z</time></trkpt><trkpt lat="42.360193637081125" lon="13.516457962055314"><ele>1019.5714285714286</ele><time>2026-05-03T07:34:41.999Z</time></trkpt><trkpt lat="42.36026583985457" lon="13.516443641768081"><ele>1022.0</ele><time>2026-05-03T07:34:42.999Z</time></trkpt><trkpt lat="42.36033977313441" lon="13.516444153880855"><ele>1022.0000000000001</ele><time>2026-05-03T07:34:43.999Z</time></trkpt><trkpt lat="42.36041939446893" lon="13.516452705338779"><ele>1022.0</ele><time>2026-05-03T07:34:44.999Z</time></trkpt><trkpt lat="42.36049822790237" lon="13.516458525144772"><ele>1022.0</ele><time>2026-05-03T07:34:45.999Z</time></trkpt><trkpt lat="42.36058500147026" lon="13.516479572668942"><ele>1022.0</ele><time>2026-05-03T07:34:46.999Z</time></trkpt><trkpt lat="42.36067113843339" lon="13.5165062839708"><ele>1022.0000000000001</ele><time>2026-05-03T07:34:47.999Z</time></trkpt><trkpt lat="42.36075312710008" lon="13.516547496262948"><ele>1022.0</ele><time>2026-05-03T07:34:48.999Z</time></trkpt><trkpt lat="42.36083124912781" lon="13.516592833184935"><ele>1023.8</ele><time>2026-05-03T07:34:49.999Z</time></trkpt><trkpt lat="42.360914624257674" lon="13.516613034697002"><ele>1025.6</ele><time>2026-05-03T07:34:50.999Z</time></trkpt><trkpt lat="42.36100397346304" lon="13.516621920440835"><ele>1027.3999999999999</ele><time>2026-05-03T07:34:51.999Z</time></trkpt><trkpt lat="42.3611011640123" lon="13.516621240260308"><ele>1029.2</ele><time>2026-05-03T07:34:52.999Z</time></trkpt><trkpt lat="42.36120039786171" lon="13.516609307470477"><ele>1031.0</ele><time>2026-05-03T07:34:53.999Z</time></trkpt><trkpt lat="42.36129143309557" lon="13.516599586038637"><ele>1032.0</ele><time>2026-05-03T07:34:54.999Z</time></trkpt><trkpt lat="42.36137737002728" lon="13.516587074294984"><ele>1033.0</ele><time>2026-05-03T07:34:55.999Z</time></trkpt><trkpt lat="42.36146227590694" lon="13.516579282410213"><ele>1034.0</ele><time>2026-05-03T07:34:56.999Z</time></trkpt><trkpt lat="42.36155834766288" lon="13.516576574680885"><ele>1035.0</ele><time>2026-05-03T07:34:57.999Z</time></trkpt><trkpt lat="42.361654367648875" lon="13.51658054683039"><ele>1036.0</ele><time>2026-05-03T07:34:58.999Z</time></trkpt><trkpt lat="42.36173718976218" lon="13.516580116775593"><ele>1037.0</ele><time>2026-05-03T07:34:59.999Z</time></trkpt><trkpt lat="42.36181911047833" lon="13.516579398390126"><ele>1037.0</ele><time>2026-05-03T07:35:00.999Z</time></trkpt><trkpt lat="42.361899660789476" lon="13.516581264503065"><ele>1037.0</ele><time>2026-05-03T07:35:01.999Z</time></trkpt><trkpt lat="42.36198597503397" lon="13.516585877737885"><ele>1037.0</ele><time>2026-05-03T07:35:02.999Z</time></trkpt><trkpt lat="42.36207089702674" lon="13.516582323693585"><ele>1037.0</ele><time>2026-05-03T07:35:03.999Z</time></trkpt><trkpt lat="42.362157949741636" lon="13.516570017652311"><ele>1037.0</ele><time>2026-05-03T07:35:04.999Z</time></trkpt><trkpt lat="42.36224735437947" lon="13.516564976181854"><ele>1037.0</ele><time>2026-05-03T07:35:05.999Z</time></trkpt><trkpt lat="42.362339135356386" lon="13.516565689958858"><ele>1038.0</ele><time>2026-05-03T07:35:06.999Z</time></trkpt><trkpt lat="42.36242771229025" lon="13.516579924590424"><ele>1039.0</ele><time>2026-05-03T07:35:07.999Z</time></trkpt><trkpt lat="42.36252575385629" lon="13.51659979420937"><ele>1040.0</ele><time>2026-05-03T07:35:08.999Z</time></trkpt><trkpt lat="42.36262364101309" lon="13.516618850004713"><ele>1041.0</ele><time>2026-05-03T07:35:09.999Z</time></trkpt><trkpt lat="42.36271912131003" lon="13.516630887826695"><ele>1042.0</ele><time>2026-05-03T07:35:10.999Z</time></trkpt><trkpt lat="42.36280689305746" lon="13.516642916361976"><ele>1042.0</ele><time>2026-05-03T07:35:11.999Z</time></trkpt><trkpt lat="42.36289176691629" lon="13.51667736805114"><ele>1042.0</ele><time>2026-05-03T07:35:12.999Z</time></trkpt><trkpt lat="42.36297707713751" lon="13.516717458863077"><ele>1042.0</ele><time>2026-05-03T07:35:13.999Z</time></trkpt><trkpt lat="42.3630482764882" lon="13.51675474015549"><ele>1042.0</ele><time>2026-05-03T07:35:14.999Z</time></trkpt><trkpt lat="42.36311851155702" lon="13.516802665952058"><ele>1042.0</ele><time>2026-05-03T07:35:15.999Z</time></trkpt><trkpt lat="42.363190215034365" lon="13.516870587966205"><ele>1042.0</ele><time>2026-05-03T07:35:16.999Z</time></trkpt><trkpt lat="42.36326414394775" lon="13.51694287045805"><ele>1042.0</ele><time>2026-05-03T07:35:17.999Z</time></trkpt><trkpt lat="42.363337258486126" lon="13.517007685212615"><ele>1042.0</ele><time>2026-05-03T07:35:18.999Z</time></trkpt><trkpt lat="42.36341141218171" lon="13.517060464695158"><ele>1042.0</ele><time>2026-05-03T07:35:19.999Z</time></trkpt><trkpt lat="42.36350327687547" lon="13.517118397923582"><ele>1042.0</ele><time>2026-05-03T07:35:20.999Z</time></trkpt><trkpt lat="42.36358778385225" lon="13.517165854267622"><ele>1042.0</ele><time>2026-05-03T07:35:21.999Z</time></trkpt><trkpt lat="42.363658537978075" lon="13.517222447868935"><ele>1042.0</ele><time>2026-05-03T07:35:22.999Z</time></trkpt><trkpt lat="42.363724220238005" lon="13.517270731212799"><ele>1044.3333333333333</ele><time>2026-05-03T07:35:23.999Z</time></trkpt><trkpt lat="42.36379438870005" lon="13.517295524409633"><ele>1046.6666666666665</ele><time>2026-05-03T07:35:24.999Z</time></trkpt><trkpt lat="42.363867490044875" lon="13.51731946884134"><ele>1049.0</ele><time>2026-05-03T07:35:25.999Z</time></trkpt><trkpt lat="42.363934780174816" lon="13.517328956551795"><ele>1051.3333333333333</ele><time>2026-05-03T07:35:26.999Z</time></trkpt><trkpt lat="42.36405973075077" lon="13.517338029130855"><ele>1053.6666666666667</ele><time>2026-05-03T07:35:28.999Z</time></trkpt><trkpt lat="42.36412356831039" lon="13.517344546742391"><ele>1056.0</ele><time>2026-05-03T07:35:29.999Z</time></trkpt><trkpt lat="42.364198993012124" lon="13.517360666077899"><ele>1056.0</ele><time>2026-05-03T07:35:30.999Z</time></trkpt><trkpt lat="42.364269676951956" lon="13.517382834544051"><ele>1056.0</ele><time>2026-05-03T07:35:31.999Z</time></trkpt><trkpt lat="42.36434211174146" lon="13.517399931900233"><ele>1056.0</ele><time>2026-05-03T07:35:32.999Z</time></trkpt><trkpt lat="42.36440456311199" lon="13.5174176440682"><ele>1056.0</ele><time>2026-05-03T07:35:33.999Z</time></trkpt><trkpt lat="42.364473914467276" lon="13.517423789269992"><ele>1056.0</ele><time>2026-05-03T07:35:34.999Z</time></trkpt><trkpt lat="42.364594903431595" lon="13.517457906418137"><ele>1056.0</ele><time>2026-05-03T07:35:36.999Z</time></trkpt><trkpt lat="42.36465747772433" lon="13.51747480301454"><ele>1056.6666666666667</ele><time>2026-05-03T07:35:37.999Z</time></trkpt><trkpt lat="42.36477721925016" lon="13.51752041020298"><ele>1057.3333333333333</ele><time>2026-05-03T07:35:39.999Z</time></trkpt><trkpt lat="42.36484806697033" lon="13.517547905763108"><ele>1058.0</ele><time>2026-05-03T07:35:40.999Z</time></trkpt><trkpt lat="42.36491453217207" lon="13.51758724081859"><ele>1058.6666666666665</ele><time>2026-05-03T07:35:41.999Z</time></trkpt><trkpt lat="42.36498221448237" lon="13.517613936644983"><ele>1059.3333333333333</ele><time>2026-05-03T07:35:42.999Z</time></trkpt><trkpt lat="42.36505723086522" lon="13.517636633602686"><ele>1060.0</ele><time>2026-05-03T07:35:43.999Z</time></trkpt><trkpt lat="42.36518161832721" lon="13.517676806456592"><ele>1060.0</ele><time>2026-05-03T07:35:45.999Z</time></trkpt><trkpt lat="42.365293700871845" lon="13.517754695702374"><ele>1060.0</ele><time>2026-05-03T07:35:47.999Z</time></trkpt><trkpt lat="42.36539214673436" lon="13.517834788740526"><ele>1060.0</ele><time>2026-05-03T07:35:49.999Z</time></trkpt><trkpt lat="42.3654525862753" lon="13.517874305353734"><ele>1060.0</ele><time>2026-05-03T07:35:50.999Z</time></trkpt><trkpt lat="42.3655639928454" lon="13.517956471043096"><ele>1060.0</ele><time>2026-05-03T07:35:52.999Z</time></trkpt><trkpt lat="42.3656301944515" lon="13.517988670013205"><ele>1061.5</ele><time>2026-05-03T07:35:53.999Z</time></trkpt><trkpt lat="42.36569196531229" lon="13.518016248793346"><ele>1063.0</ele><time>2026-05-03T07:35:54.999Z</time></trkpt><trkpt lat="42.36576833789241" lon="13.51807067784852"><ele>1064.5</ele><time>2026-05-03T07:35:56.999Z</time></trkpt><trkpt lat="42.36580361365492" lon="13.518157375680316"><ele>1066.0</ele><time>2026-05-03T07:35:58.999Z</time></trkpt><trkpt lat="42.365758186443664" lon="13.51826190532365"><ele>1067.5</ele><time>2026-05-03T07:36:00.999Z</time></trkpt><trkpt lat="42.36567918707404" lon="13.518278796161894"><ele>1069.0</ele><time>2026-05-03T07:36:02.999Z</time></trkpt><trkpt lat="42.36559546343109" lon="13.51823538766339"><ele>1070.3333333333333</ele><time>2026-05-03T07:36:05.999Z</time></trkpt><trkpt lat="42.365500819170954" lon="13.518184895678091"><ele>1071.6666666666665</ele><time>2026-05-03T07:36:07.999Z</time></trkpt><trkpt lat="42.3654261363921" lon="13.518159433455251"><ele>1073.0</ele><time>2026-05-03T07:36:08.999Z</time></trkpt><trkpt lat="42.36535148192619" lon="13.518138580909142"><ele>1074.3333333333333</ele><time>2026-05-03T07:36:09.999Z</time></trkpt><trkpt lat="42.365266945502995" lon="13.518129606126514"><ele>1075.6666666666667</ele><time>2026-05-03T07:36:10.999Z</time></trkpt><trkpt lat="42.36518116448585" lon="13.518133344160258"><ele>1077.0</ele><time>2026-05-03T07:36:11.999Z</time></trkpt><trkpt lat="42.365087259395125" lon="13.518155165213079"><ele>1077.0</ele><time>2026-05-03T07:36:12.999Z</time></trkpt><trkpt lat="42.364994815298836" lon="13.518180652180789"><ele>1077.0</ele><time>2026-05-03T07:36:13.999Z</time></trkpt><trkpt lat="42.36490264215963" lon="13.518200467924034"><ele>1077.0</ele><time>2026-05-03T07:36:14.999Z</time></trkpt><trkpt lat="42.36481465731207" lon="13.518211166194307"><ele>1077.0</ele><time>2026-05-03T07:36:15.999Z</time></trkpt><trkpt lat="42.36475062638009" lon="13.518217643042332"><ele>1077.0</ele><time>2026-05-03T07:36:16.999Z</time></trkpt><trkpt lat="42.364656190489995" lon="13.518266547780797"><ele>1077.0</ele><time>2026-05-03T07:36:19Z</time></trkpt><trkpt lat="42.364630971747324" lon="13.518376194658627"><ele>1077.0</ele><time>2026-05-03T07:36:21Z</time></trkpt><trkpt lat="42.364702370307626" lon="13.518487642476527"><ele>1077.0</ele><time>2026-05-03T07:36:23Z</time></trkpt><trkpt lat="42.36477047141617" lon="13.518494317888768"><ele>1077.0</ele><time>2026-05-03T07:36:24Z</time></trkpt><trkpt lat="42.364856209362664" lon="13.51847332994168"><ele>1077.0</ele><time>2026-05-03T07:36:25Z</time></trkpt><trkpt lat="42.364945505624675" lon="13.51845939871581"><ele>1077.0</ele><time>2026-05-03T07:36:26Z</time></trkpt><trkpt lat="42.36501347192334" lon="13.518472142778348"><ele>1077.0</ele><time>2026-05-03T07:36:27Z</time></trkpt><trkpt lat="42.36507942275475" lon="13.51849763399485"><ele>1077.0</ele><time>2026-05-03T07:36:28Z</time></trkpt><trkpt lat="42.365198013832114" lon="13.518548035918563"><ele>1077.0</ele><time>2026-05-03T07:36:30Z</time></trkpt><trkpt lat="42.36531040893904" lon="13.51865356679213"><ele>1077.0</ele><time>2026-05-03T07:36:32Z</time></trkpt><trkpt lat="42.36537340338527" lon="13.518724397880746"><ele>1077.0</ele><time>2026-05-03T07:36:33Z</time></trkpt><trkpt lat="42.36542721878005" lon="13.51879586658716"><ele>1077.0</ele><time>2026-05-03T07:36:34Z</time></trkpt><trkpt lat="42.365483401739645" lon="13.518858937478441"><ele>1078.142857142857</ele><time>2026-05-03T07:36:35Z</time></trkpt><trkpt lat="42.36553886727904" lon="13.518917142993885"><ele>1079.2857142857142</ele><time>2026-05-03T07:36:36Z</time></trkpt><trkpt lat="42.365598145311026" lon="13.518972678110645"><ele>1080.4285714285716</ele><time>2026-05-03T07:36:37Z</time></trkpt><trkpt lat="42.36563924438216" lon="13.519043224033046"><ele>1081.5714285714284</ele><time>2026-05-03T07:36:38Z</time></trkpt><trkpt lat="42.36570124665291" lon="13.519074645367539"><ele>1082.7142857142858</ele><time>2026-05-03T07:36:39Z</time></trkpt><trkpt lat="42.36573263264062" lon="13.519149287617264"><ele>1083.857142857143</ele><time>2026-05-03T07:36:40Z</time></trkpt><trkpt lat="42.36578608143962" lon="13.519198125201969"><ele>1085.0</ele><time>2026-05-03T07:36:41Z</time></trkpt><trkpt lat="42.36581470174127" lon="13.519349925933088"><ele>1085.0</ele><time>2026-05-03T07:36:43Z</time></trkpt><trkpt lat="42.3658003344465" lon="13.519446606433394"><ele>1085.0</ele><time>2026-05-03T07:36:44Z</time></trkpt><trkpt lat="42.365794535253706" lon="13.519546706412427"><ele>1085.0</ele><time>2026-05-03T07:36:45Z</time></trkpt><trkpt lat="42.36580547697139" lon="13.519648977913821"><ele>1085.0</ele><time>2026-05-03T07:36:46Z</time></trkpt><trkpt lat="42.36581002249672" lon="13.519754141426397"><ele>1085.0</ele><time>2026-05-03T07:36:47Z</time></trkpt><trkpt lat="42.365811281407865" lon="13.519872593419022"><ele>1085.0</ele><time>2026-05-03T07:36:47.999Z</time></trkpt><trkpt lat="42.3657941770141" lon="13.519993484271449"><ele>1086.8333333333335</ele><time>2026-05-03T07:36:48.999Z</time></trkpt><trkpt lat="42.36579308328405" lon="13.520090662347723"><ele>1088.6666666666667</ele><time>2026-05-03T07:36:49.999Z</time></trkpt><trkpt lat="42.365792165552016" lon="13.520177492484684"><ele>1090.5</ele><time>2026-05-03T07:36:50.999Z</time></trkpt><trkpt lat="42.36579387552315" lon="13.520285566750923"><ele>1092.3333333333333</ele><time>2026-05-03T07:36:51.999Z</time></trkpt><trkpt lat="42.365811410596734" lon="13.520396734892545"><ele>1094.1666666666665</ele><time>2026-05-03T07:36:52.999Z</time></trkpt><trkpt lat="42.365825683674586" lon="13.52049485508156"><ele>1096.0</ele><time>2026-05-03T07:36:53.999Z</time></trkpt><trkpt lat="42.365840878962345" lon="13.520602026494453"><ele>1096.5</ele><time>2026-05-03T07:36:54.999Z</time></trkpt><trkpt lat="42.365866824886844" lon="13.520705165901838"><ele>1097.0</ele><time>2026-05-03T07:36:55.999Z</time></trkpt><trkpt lat="42.36586326089911" lon="13.520806159719813"><ele>1097.5</ele><time>2026-05-03T07:36:56.999Z</time></trkpt><trkpt lat="42.36586561629844" lon="13.520913563440152"><ele>1098.0</ele><time>2026-05-03T07:36:57.999Z</time></trkpt><trkpt lat="42.36586099733879" lon="13.52101773008759"><ele>1098.5</ele><time>2026-05-03T07:36:58.999Z</time></trkpt><trkpt lat="42.36585335638893" lon="13.52114399871664"><ele>1099.0</ele><time>2026-05-03T07:36:59.999Z</time></trkpt><trkpt lat="42.365840713890755" lon="13.521270658083502"><ele>1099.3333333333333</ele><time>2026-05-03T07:37:00.999Z</time></trkpt><trkpt lat="42.36582787228449" lon="13.521403697922068"><ele>1099.6666666666665</ele><time>2026-05-03T07:37:01.999Z</time></trkpt><trkpt lat="42.36581420107012" lon="13.521536152699948"><ele>1100.0</ele><time>2026-05-03T07:37:02.999Z</time></trkpt><trkpt lat="42.36579132613712" lon="13.521651974383202"><ele>1100.3333333333333</ele><time>2026-05-03T07:37:03.999Z</time></trkpt><trkpt lat="42.3657604377649" lon="13.521751524287332"><ele>1100.6666666666667</ele><time>2026-05-03T07:37:04.999Z</time></trkpt><trkpt lat="42.36574257442644" lon="13.521839651796167"><ele>1101.0</ele><time>2026-05-03T07:37:05.999Z</time></trkpt><trkpt lat="42.365740979330695" lon="13.521938679282872"><ele>1102.3999999999999</ele><time>2026-05-03T07:37:06.999Z</time></trkpt><trkpt lat="42.365752966862026" lon="13.522099542545336"><ele>1103.8</ele><time>2026-05-03T07:37:08.999Z</time></trkpt><trkpt lat="42.36574904048141" lon="13.522190813322554"><ele>1105.1999999999998</ele><time>2026-05-03T07:37:09.999Z</time></trkpt><trkpt lat="42.365731600225914" lon="13.522339690304575"><ele>1106.6</ele><time>2026-05-03T07:37:11.999Z</time></trkpt><trkpt lat="42.36569314369513" lon="13.522418844100585"><ele>1108.0</ele><time>2026-05-03T07:37:12.999Z</time></trkpt><trkpt lat="42.36561169663094" lon="13.522543933393573"><ele>1108.0</ele><time>2026-05-03T07:37:14.999Z</time></trkpt><trkpt lat="42.365580722370396" lon="13.522625255760389"><ele>1108.0</ele><time>2026-05-03T07:37:15.999Z</time></trkpt><trkpt lat="42.36552289198404" lon="13.522700685666342"><ele>1108.0</ele><time>2026-05-03T07:37:16.999Z</time></trkpt><trkpt lat="42.36548304538079" lon="13.522782341971984"><ele>1108.0</ele><time>2026-05-03T07:37:17.999Z</time></trkpt><trkpt lat="42.36543938485385" lon="13.522861719616197"><ele>1108.0</ele><time>2026-05-03T07:37:18.999Z</time></trkpt><trkpt lat="42.36537770534419" lon="13.522924462172389"><ele>1108.0</ele><time>2026-05-03T07:37:19.999Z</time></trkpt><trkpt lat="42.36532820128528" lon="13.523001845785256"><ele>1108.0</ele><time>2026-05-03T07:37:20.999Z</time></trkpt><trkpt lat="42.36527872152822" lon="13.523074159702357"><ele>1109.0</ele><time>2026-05-03T07:37:21.999Z</time></trkpt><trkpt lat="42.365231116185875" lon="13.523141756297944"><ele>1110.0</ele><time>2026-05-03T07:37:22.999Z</time></trkpt><trkpt lat="42.365168361258625" lon="13.52322900785129"><ele>1111.0</ele><time>2026-05-03T07:37:23.999Z</time></trkpt><trkpt lat="42.365115723904076" lon="13.523302192266145"><ele>1112.0</ele><time>2026-05-03T07:37:24.999Z</time></trkpt><trkpt lat="42.36505592764844" lon="13.523399615415558"><ele>1113.0</ele><time>2026-05-03T07:37:25.999Z</time></trkpt><trkpt lat="42.365003790357335" lon="13.523483550392838"><ele>1114.0</ele><time>2026-05-03T07:37:26.999Z</time></trkpt><trkpt lat="42.36494596447466" lon="13.5235657376507"><ele>1114.0</ele><time>2026-05-03T07:37:27.999Z</time></trkpt><trkpt lat="42.364895373533834" lon="13.523638680995424"><ele>1114.0</ele><time>2026-05-03T07:37:28.999Z</time></trkpt><trkpt lat="42.36480100154549" lon="13.523782187776401"><ele>1114.0</ele><time>2026-05-03T07:37:30.999Z</time></trkpt><trkpt lat="42.364759916151144" lon="13.523852164157303"><ele>1114.0</ele><time>2026-05-03T07:37:31.999Z</time></trkpt><trkpt lat="42.36470388474182" lon="13.523920554566123"><ele>1114.0</ele><time>2026-05-03T07:37:32.999Z</time></trkpt><trkpt lat="42.36466570078845" lon="13.524008035022202"><ele>1114.0</ele><time>2026-05-03T07:37:33.999Z</time></trkpt><trkpt lat="42.3646448119232" lon="13.524118518164688"><ele>1115.3333333333333</ele><time>2026-05-03T07:37:34.999Z</time></trkpt><trkpt lat="42.36460124215348" lon="13.524198779317926"><ele>1116.6666666666665</ele><time>2026-05-03T07:37:35.999Z</time></trkpt><trkpt lat="42.364570275166386" lon="13.524304393582847"><ele>1118.0</ele><time>2026-05-03T07:37:36.999Z</time></trkpt><trkpt lat="42.364555646912734" lon="13.524427345845735"><ele>1119.3333333333333</ele><time>2026-05-03T07:37:37.999Z</time></trkpt><trkpt lat="42.3645115728911" lon="13.524542458029009"><ele>1120.6666666666667</ele><time>2026-05-03T07:37:38.999Z</time></trkpt><trkpt lat="42.364501376852985" lon="13.524670216409172"><ele>1122.0</ele><time>2026-05-03T07:37:39.999Z</time></trkpt><trkpt lat="42.36448734836601" lon="13.52478849211932"><ele>1122.1666666666667</ele><time>2026-05-03T07:37:40.999Z</time></trkpt><trkpt lat="42.36448094732079" lon="13.524895042331472"><ele>1122.3333333333333</ele><time>2026-05-03T07:37:41.999Z</time></trkpt><trkpt lat="42.3644796918907" lon="13.524996500972195"><ele>1122.5</ele><time>2026-05-03T07:37:42.999Z</time></trkpt><trkpt lat="42.36449098097011" lon="13.525102809359304"><ele>1122.6666666666665</ele><time>2026-05-03T07:37:43.999Z</time></trkpt><trkpt lat="42.36450953162926" lon="13.525197077700081"><ele>1122.8333333333333</ele><time>2026-05-03T07:37:44.999Z</time></trkpt><trkpt lat="42.36453341068419" lon="13.525301489857023"><ele>1123.0</ele><time>2026-05-03T07:37:45.999Z</time></trkpt><trkpt lat="42.364549977208036" lon="13.52540048131165"><ele>1123.1666666666665</ele><time>2026-05-03T07:37:46.999Z</time></trkpt><trkpt lat="42.36457359632357" lon="13.525530921963332"><ele>1123.3333333333333</ele><time>2026-05-03T07:37:47.999Z</time></trkpt><trkpt lat="42.364587038243826" lon="13.525635289607921"><ele>1123.5</ele><time>2026-05-03T07:37:48.999Z</time></trkpt><trkpt lat="42.36457384358942" lon="13.525749725046184"><ele>1123.6666666666667</ele><time>2026-05-03T07:37:49.999Z</time></trkpt><trkpt lat="42.36457307692128" lon="13.525862577759824"><ele>1123.8333333333335</ele><time>2026-05-03T07:37:50.999Z</time></trkpt><trkpt lat="42.36456999903111" lon="13.525972011850522"><ele>1124.0</ele><time>2026-05-03T07:37:51.999Z</time></trkpt><trkpt lat="42.36456308680528" lon="13.526081967973898"><ele>1124.0</ele><time>2026-05-03T07:37:52.999Z</time></trkpt><trkpt lat="42.36454999526978" lon="13.526185459654238"><ele>1124.0</ele><time>2026-05-03T07:37:53.999Z</time></trkpt><trkpt lat="42.364534394353484" lon="13.526292948568434"><ele>1124.0</ele><time>2026-05-03T07:37:54.999Z</time></trkpt><trkpt lat="42.36451619096641" lon="13.526408831003044"><ele>1124.0</ele><time>2026-05-03T07:37:55.999Z</time></trkpt><trkpt lat="42.36450676603751" lon="13.526535865535408"><ele>1124.0</ele><time>2026-05-03T07:37:56.999Z</time></trkpt><trkpt lat="42.36450731097044" lon="13.526642471537372"><ele>1124.0</ele><time>2026-05-03T07:37:57.999Z</time></trkpt><trkpt lat="42.36451044046789" lon="13.526740167343664"><ele>1124.3333333333335</ele><time>2026-05-03T07:37:58.999Z</time></trkpt><trkpt lat="42.3645309528629" lon="13.526821911120107"><ele>1124.6666666666667</ele><time>2026-05-03T07:37:59.999Z</time></trkpt><trkpt lat="42.36453862564414" lon="13.526923405766633"><ele>1125.0</ele><time>2026-05-03T07:38:00.999Z</time></trkpt><trkpt lat="42.364544017512884" lon="13.52709277934151"><ele>1125.3333333333333</ele><time>2026-05-03T07:38:02.999Z</time></trkpt><trkpt lat="42.364563157617646" lon="13.52718171556868"><ele>1125.6666666666665</ele><time>2026-05-03T07:38:03.999Z</time></trkpt><trkpt lat="42.364574456865746" lon="13.52727267372042"><ele>1126.0</ele><time>2026-05-03T07:38:04.999Z</time></trkpt><trkpt lat="42.36459153481735" lon="13.527371038072866"><ele>1127.0</ele><time>2026-05-03T07:38:05.999Z</time></trkpt><trkpt lat="42.364614606472614" lon="13.527468850260746"><ele>1128.0</ele><time>2026-05-03T07:38:06.999Z</time></trkpt><trkpt lat="42.36462192396132" lon="13.527559467216584"><ele>1129.0</ele><time>2026-05-03T07:38:07.999Z</time></trkpt><trkpt lat="42.36460226831398" lon="13.527643146535123"><ele>1130.0</ele><time>2026-05-03T07:38:08.999Z</time></trkpt><trkpt lat="42.36459850709698" lon="13.527813029274926"><ele>1131.0</ele><time>2026-05-03T07:38:10.999Z</time></trkpt><trkpt lat="42.364592299275806" lon="13.527898468997618"><ele>1132.0</ele><time>2026-05-03T07:38:11.999Z</time></trkpt><trkpt lat="42.36458186361806" lon="13.527987803234204"><ele>1133.0</ele><time>2026-05-03T07:38:12.999Z</time></trkpt><trkpt lat="42.364567305254525" lon="13.528080615233012"><ele>1134.0</ele><time>2026-05-03T07:38:13.999Z</time></trkpt><trkpt lat="42.364549836075945" lon="13.528189893518583"><ele>1135.0</ele><time>2026-05-03T07:38:14.999Z</time></trkpt><trkpt lat="42.36453350510608" lon="13.528297438868341"><ele>1136.0</ele><time>2026-05-03T07:38:15.999Z</time></trkpt><trkpt lat="42.36451696351204" lon="13.528406371812702"><ele>1137.0</ele><time>2026-05-03T07:38:16.999Z</time></trkpt><trkpt lat="42.36450901808525" lon="13.528516304092875"><ele>1138.0</ele><time>2026-05-03T07:38:17.999Z</time></trkpt><trkpt lat="42.36451626064543" lon="13.528619798477491"><ele>1139.6666666666665</ele><time>2026-05-03T07:38:18.999Z</time></trkpt><trkpt lat="42.364509220062025" lon="13.528731209042581"><ele>1141.3333333333333</ele><time>2026-05-03T07:38:19.999Z</time></trkpt><trkpt lat="42.364522911441505" lon="13.528852219482754"><ele>1143.0</ele><time>2026-05-03T07:38:20.999Z</time></trkpt><trkpt lat="42.364540170087395" lon="13.528947114585728"><ele>1144.6666666666667</ele><time>2026-05-03T07:38:21.999Z</time></trkpt><trkpt lat="42.364530938028516" lon="13.529037015435103"><ele>1146.3333333333335</ele><time>2026-05-03T07:38:22.999Z</time></trkpt><trkpt lat="42.364524248396464" lon="13.529193148778724"><ele>1148.0</ele><time>2026-05-03T07:38:25Z</time></trkpt><trkpt lat="42.364540753681446" lon="13.529341722173589"><ele>1148.0</ele><time>2026-05-03T07:38:27Z</time></trkpt><trkpt lat="42.36458297568829" lon="13.529481057666658"><ele>1148.0</ele><time>2026-05-03T07:38:29Z</time></trkpt><trkpt lat="42.36465290130372" lon="13.529489128247562"><ele>1148.0</ele><time>2026-05-03T07:38:30Z</time></trkpt><trkpt lat="42.36474988258943" lon="13.529411142531234"><ele>1148.0</ele><time>2026-05-03T07:38:32Z</time></trkpt><trkpt lat="42.36478874447404" lon="13.529328912065376"><ele>1148.0</ele><time>2026-05-03T07:38:33Z</time></trkpt><trkpt lat="42.36480938198975" lon="13.529235857293278"><ele>1148.0</ele><time>2026-05-03T07:38:34Z</time></trkpt><trkpt lat="42.364854852290094" lon="13.529160388370578"><ele>1149.3333333333335</ele><time>2026-05-03T07:38:35Z</time></trkpt><trkpt lat="42.36489747499949" lon="13.529079287809148"><ele>1150.6666666666667</ele><time>2026-05-03T07:38:36Z</time></trkpt><trkpt lat="42.36495128442081" lon="13.529009821246072"><ele>1152.0</ele><time>2026-05-03T07:38:37Z</time></trkpt><trkpt lat="42.36501775484407" lon="13.528939573535675"><ele>1153.3333333333333</ele><time>2026-05-03T07:38:38Z</time></trkpt><trkpt lat="42.36508589128743" lon="13.528850267888123"><ele>1154.6666666666665</ele><time>2026-05-03T07:38:39Z</time></trkpt><trkpt lat="42.36518506027551" lon="13.528812010373523"><ele>1156.0</ele><time>2026-05-03T07:38:40Z</time></trkpt><trkpt lat="42.36527564834552" lon="13.52875337830684"><ele>1156.0</ele><time>2026-05-03T07:38:41Z</time></trkpt><trkpt lat="42.36534110201808" lon="13.528691576181624"><ele>1156.0</ele><time>2026-05-03T07:38:42Z</time></trkpt><trkpt lat="42.365434694408854" lon="13.528624936796119"><ele>1156.0</ele><time>2026-05-03T07:38:44Z</time></trkpt><trkpt lat="42.36550404698191" lon="13.528619436637978"><ele>1156.0</ele><time>2026-05-03T07:38:47Z</time></trkpt><trkpt lat="42.365546627890154" lon="13.52869884931152"><ele>1156.0</ele><time>2026-05-03T07:38:51Z</time></trkpt><trkpt lat="42.365502948188244" lon="13.528818487100455"><ele>1156.0</ele><time>2026-05-03T07:38:53Z</time></trkpt><trkpt lat="42.36539330586966" lon="13.528837294946264"><ele>1156.0</ele><time>2026-05-03T07:38:55Z</time></trkpt><trkpt lat="42.36529001088061" lon="13.52892023025667"><ele>1156.0</ele><time>2026-05-03T07:38:57Z</time></trkpt><trkpt lat="42.36522964989062" lon="13.528973884729625"><ele>1156.0</ele><time>2026-05-03T07:38:58Z</time></trkpt><trkpt lat="42.36517106507609" lon="13.529056646168737"><ele>1156.0</ele><time>2026-05-03T07:38:59Z</time></trkpt><trkpt lat="42.365122101534645" lon="13.529149070417485"><ele>1156.0</ele><time>2026-05-03T07:39:00Z</time></trkpt><trkpt lat="42.36508671801561" lon="13.529238391779485"><ele>1156.0</ele><time>2026-05-03T07:39:01Z</time></trkpt><trkpt lat="42.36506056741045" lon="13.529328691477565"><ele>1156.0</ele><time>2026-05-03T07:39:02Z</time></trkpt><trkpt lat="42.365056162140554" lon="13.529426009681927"><ele>1156.0</ele><time>2026-05-03T07:39:06.999Z</time></trkpt><trkpt lat="42.36505496419647" lon="13.529556150312542"><ele>1156.0</ele><time>2026-05-03T07:39:08.999Z</time></trkpt><trkpt lat="42.36507819956532" lon="13.529645308367662"><ele>1156.0</ele><time>2026-05-03T07:39:09.999Z</time></trkpt><trkpt lat="42.3650961323483" lon="13.529742959899057"><ele>1156.0</ele><time>2026-05-03T07:39:10.999Z</time></trkpt><trkpt lat="42.36513225403914" lon="13.529834027488937"><ele>1156.0</ele><time>2026-05-03T07:39:11.999Z</time></trkpt><trkpt lat="42.36518329877681" lon="13.52990237729557"><ele>1156.8333333333333</ele><time>2026-05-03T07:39:12.999Z</time></trkpt><trkpt lat="42.365243794841476" lon="13.529973141478107"><ele>1157.6666666666665</ele><time>2026-05-03T07:39:13.999Z</time></trkpt><trkpt lat="42.36529865242014" lon="13.530035139922525"><ele>1158.5</ele><time>2026-05-03T07:39:14.999Z</time></trkpt><trkpt lat="42.36535444625105" lon="13.530101941043448"><ele>1159.3333333333333</ele><time>2026-05-03T07:39:15.999Z</time></trkpt><trkpt lat="42.36540432701999" lon="13.530166460803287"><ele>1160.1666666666667</ele><time>2026-05-03T07:39:16.999Z</time></trkpt><trkpt lat="42.36546860635902" lon="13.530244646747974"><ele>1161.0</ele><time>2026-05-03T07:39:17.999Z</time></trkpt><trkpt lat="42.365525335406886" lon="13.530318187442704"><ele>1163.0</ele><time>2026-05-03T07:39:18.999Z</time></trkpt><trkpt lat="42.36557006726947" lon="13.530410503600054"><ele>1165.0</ele><time>2026-05-03T07:39:19.999Z</time></trkpt><trkpt lat="42.36558150816606" lon="13.530519413732838"><ele>1167.0</ele><time>2026-05-03T07:39:20.999Z</time></trkpt><trkpt lat="42.36561634618525" lon="13.530605804051158"><ele>1169.0</ele><time>2026-05-03T07:39:21.999Z</time></trkpt><trkpt lat="42.365620790320314" lon="13.53070249862299"><ele>1171.0</ele><time>2026-05-03T07:39:22.999Z</time></trkpt><trkpt lat="42.365628035724846" lon="13.530813190998895"><ele>1173.0</ele><time>2026-05-03T07:39:23.999Z</time></trkpt><trkpt lat="42.36564001156818" lon="13.530917318538958"><ele>1173.0</ele><time>2026-05-03T07:39:24.999Z</time></trkpt><trkpt lat="42.365657520129645" lon="13.53103312889469"><ele>1173.0</ele><time>2026-05-03T07:39:25.999Z</time></trkpt><trkpt lat="42.3656878328893" lon="13.531140569449464"><ele>1173.0</ele><time>2026-05-03T07:39:26.999Z</time></trkpt><trkpt lat="42.365733298411165" lon="13.531263106905142"><ele>1173.0</ele><time>2026-05-03T07:39:27.999Z</time></trkpt><trkpt lat="42.36577784714828" lon="13.531357194635666"><ele>1173.0</ele><time>2026-05-03T07:39:28.999Z</time></trkpt><trkpt lat="42.365828005847305" lon="13.531447603119075"><ele>1173.0</ele><time>2026-05-03T07:39:29.999Z</time></trkpt><trkpt lat="42.36586875476252" lon="13.531531740231364"><ele>1173.8333333333333</ele><time>2026-05-03T07:39:30.999Z</time></trkpt><trkpt lat="42.36590364740644" lon="13.531621253662385"><ele>1174.6666666666667</ele><time>2026-05-03T07:39:31.999Z</time></trkpt><trkpt lat="42.36593437730783" lon="13.53172358716499"><ele>1175.5</ele><time>2026-05-03T07:39:32.999Z</time></trkpt><trkpt lat="42.36596664106569" lon="13.53183528807287"><ele>1176.3333333333335</ele><time>2026-05-03T07:39:33.999Z</time></trkpt><trkpt lat="42.36599443950582" lon="13.531943333589224"><ele>1177.1666666666667</ele><time>2026-05-03T07:39:34.999Z</time></trkpt><trkpt lat="42.36601439438937" lon="13.532048214662735"><ele>1178.0</ele><time>2026-05-03T07:39:35.999Z</time></trkpt><trkpt lat="42.36601658116348" lon="13.532151267712486"><ele>1178.1666666666667</ele><time>2026-05-03T07:39:36.999Z</time></trkpt><trkpt lat="42.3660131824729" lon="13.532258162105585"><ele>1178.3333333333335</ele><time>2026-05-03T07:39:37.999Z</time></trkpt><trkpt lat="42.36598081168071" lon="13.532362615017"><ele>1178.5</ele><time>2026-05-03T07:39:38.999Z</time></trkpt><trkpt lat="42.36595774518201" lon="13.532459590096707"><ele>1178.6666666666667</ele><time>2026-05-03T07:39:39.999Z</time></trkpt><trkpt lat="42.36593890634006" lon="13.532547431178509"><ele>1178.8333333333333</ele><time>2026-05-03T07:39:40.999Z</time></trkpt><trkpt lat="42.36588861254191" lon="13.532628240837344"><ele>1179.0</ele><time>2026-05-03T07:39:41.999Z</time></trkpt><trkpt lat="42.36583399028489" lon="13.53270842306603"><ele>1179.0</ele><time>2026-05-03T07:39:42.999Z</time></trkpt><trkpt lat="42.36577831097545" lon="13.532787362964092"><ele>1179.0</ele><time>2026-05-03T07:39:43.999Z</time></trkpt><trkpt lat="42.36572182503892" lon="13.532855773876063"><ele>1179.0</ele><time>2026-05-03T07:39:44.999Z</time></trkpt><trkpt lat="42.36565706255839" lon="13.532916340637952"><ele>1179.0</ele><time>2026-05-03T07:39:45.999Z</time></trkpt><trkpt lat="42.36554866655706" lon="13.532973117055"><ele>1179.0</ele><time>2026-05-03T07:39:47.999Z</time></trkpt><trkpt lat="42.365478013028316" lon="13.533022217102753"><ele>1179.0</ele><time>2026-05-03T07:39:48.999Z</time></trkpt><trkpt lat="42.3654019298349" lon="13.533079696081655"><ele>1183.8</ele><time>2026-05-03T07:39:49.999Z</time></trkpt><trkpt lat="42.36532898851047" lon="13.533147151012518"><ele>1188.6000000000001</ele><time>2026-05-03T07:39:50.999Z</time></trkpt><trkpt lat="42.36525471503473" lon="13.53323388225425"><ele>1193.4</ele><time>2026-05-03T07:39:51.999Z</time></trkpt><trkpt lat="42.365191050539586" lon="13.533337015633181"><ele>1198.2</ele><time>2026-05-03T07:39:52.999Z</time></trkpt><trkpt lat="42.365134658239946" lon="13.533452326960614"><ele>1203.0</ele><time>2026-05-03T07:39:53.999Z</time></trkpt><trkpt lat="42.36509215413684" lon="13.533564277828097"><ele>1203.0</ele><time>2026-05-03T07:39:54.999Z</time></trkpt><trkpt lat="42.365056879598065" lon="13.533678969330472"><ele>1203.0</ele><time>2026-05-03T07:39:55.999Z</time></trkpt><trkpt lat="42.365035290811065" lon="13.533806504557989"><ele>1203.0</ele><time>2026-05-03T07:39:56.999Z</time></trkpt><trkpt lat="42.36502430361793" lon="13.533953886319049"><ele>1203.0</ele><time>2026-05-03T07:39:57.999Z</time></trkpt><trkpt lat="42.36501775319071" lon="13.534104436446679"><ele>1203.0</ele><time>2026-05-03T07:39:58.999Z</time></trkpt><trkpt lat="42.36500132903594" lon="13.534258118196448"><ele>1204.0</ele><time>2026-05-03T07:39:59.999Z</time></trkpt><trkpt lat="42.364984762323786" lon="13.534407366755797"><ele>1205.0</ele><time>2026-05-03T07:40:00.999Z</time></trkpt><trkpt lat="42.3649796100917" lon="13.534554087898433"><ele>1206.0</ele><time>2026-05-03T07:40:01.999Z</time></trkpt><trkpt lat="42.36498167725349" lon="13.534692475069665"><ele>1207.0</ele><time>2026-05-03T07:40:02.999Z</time></trkpt><trkpt lat="42.364976845110846" lon="13.534835392373495"><ele>1208.0</ele><time>2026-05-03T07:40:03.999Z</time></trkpt><trkpt lat="42.36496879961946" lon="13.53496961988192"><ele>1209.0</ele><time>2026-05-03T07:40:04.999Z</time></trkpt><trkpt lat="42.364968235892064" lon="13.535097785892328"><ele>1210.0</ele><time>2026-05-03T07:40:05.999Z</time></trkpt><trkpt lat="42.3649414070752" lon="13.535218251093058"><ele>1211.0</ele><time>2026-05-03T07:40:06.999Z</time></trkpt><trkpt lat="42.364920558316406" lon="13.535341313144023"><ele>1212.0</ele><time>2026-05-03T07:40:07.999Z</time></trkpt><trkpt lat="42.36489665036565" lon="13.535482432460071"><ele>1213.0</ele><time>2026-05-03T07:40:08.999Z</time></trkpt><trkpt lat="42.36486922618336" lon="13.535614445706857"><ele>1213.2</ele><time>2026-05-03T07:40:09.999Z</time></trkpt><trkpt lat="42.36485528696455" lon="13.535753451991535"><ele>1213.4</ele><time>2026-05-03T07:40:10.999Z</time></trkpt><trkpt lat="42.36482436205902" lon="13.53588101407178"><ele>1213.6000000000001</ele><time>2026-05-03T07:40:11.999Z</time></trkpt><trkpt lat="42.364792782781976" lon="13.536001488776288"><ele>1213.8</ele><time>2026-05-03T07:40:12.999Z</time></trkpt><trkpt lat="42.36476563631479" lon="13.536124983388385"><ele>1214.0</ele><time>2026-05-03T07:40:13.999Z</time></trkpt><trkpt lat="42.36473424184001" lon="13.536250332020218"><ele>1214.4</ele><time>2026-05-03T07:40:14.999Z</time></trkpt><trkpt lat="42.36470669018206" lon="13.536369002585621"><ele>1214.8000000000002</ele><time>2026-05-03T07:40:15.999Z</time></trkpt><trkpt lat="42.36468277522873" lon="13.53649384656108"><ele>1215.1999999999998</ele><time>2026-05-03T07:40:16.999Z</time></trkpt><trkpt lat="42.36467252898647" lon="13.536617138585274"><ele>1215.6</ele><time>2026-05-03T07:40:17.999Z</time></trkpt><trkpt lat="42.36463940731691" lon="13.536728007406817"><ele>1216.0</ele><time>2026-05-03T07:40:18.999Z</time></trkpt><trkpt lat="42.36461030574347" lon="13.536832675411564"><ele>1216.0</ele><time>2026-05-03T07:40:19.999Z</time></trkpt><trkpt lat="42.36456241084461" lon="13.536945132086556"><ele>1216.0</ele><time>2026-05-03T07:40:20.999Z</time></trkpt><trkpt lat="42.364516374779086" lon="13.537047884293811"><ele>1216.0</ele><time>2026-05-03T07:40:21.999Z</time></trkpt><trkpt lat="42.36446193514872" lon="13.537161436037122"><ele>1216.0</ele><time>2026-05-03T07:40:22.999Z</time></trkpt><trkpt lat="42.36440996853931" lon="13.537264914903927"><ele>1216.0</ele><time>2026-05-03T07:40:23.999Z</time></trkpt><trkpt lat="42.36436247485757" lon="13.537391609591618"><ele>1216.6</ele><time>2026-05-03T07:40:24.999Z</time></trkpt><trkpt lat="42.364301689366854" lon="13.537504273259005"><ele>1217.1999999999998</ele><time>2026-05-03T07:40:25.999Z</time></trkpt><trkpt lat="42.36423874461271" lon="13.53761977140085"><ele>1217.8000000000002</ele><time>2026-05-03T07:40:26.999Z</time></trkpt><trkpt lat="42.364177163097416" lon="13.537724657211342"><ele>1218.4</ele><time>2026-05-03T07:40:27.999Z</time></trkpt><trkpt lat="42.364124876936316" lon="13.537839326275193"><ele>1219.0</ele><time>2026-05-03T07:40:28.999Z</time></trkpt><trkpt lat="42.364071940973076" lon="13.537952405743773"><ele>1220.0</ele><time>2026-05-03T07:40:29.999Z</time></trkpt><trkpt lat="42.36401773937122" lon="13.538061908997134"><ele>1221.0</ele><time>2026-05-03T07:40:30.999Z</time></trkpt><trkpt lat="42.36394710184569" lon="13.538143307137398"><ele>1222.0</ele><time>2026-05-03T07:40:31.999Z</time></trkpt><trkpt lat="42.363878450605945" lon="13.538230676516445"><ele>1223.0</ele><time>2026-05-03T07:40:32.999Z</time></trkpt><trkpt lat="42.36381669552102" lon="13.538333973399693"><ele>1224.0</ele><time>2026-05-03T07:40:33.999Z</time></trkpt><trkpt lat="42.363731710832305" lon="13.538425331859939"><ele>1224.0</ele><time>2026-05-03T07:40:34.999Z</time></trkpt><trkpt lat="42.36365548589076" lon="13.5385235287419"><ele>1224.0</ele><time>2026-05-03T07:40:35.999Z</time></trkpt><trkpt lat="42.363570889000066" lon="13.538624845918262"><ele>1224.0</ele><time>2026-05-03T07:40:36.999Z</time></trkpt><trkpt lat="42.36349146173944" lon="13.538729210657804"><ele>1224.0</ele><time>2026-05-03T07:40:37.999Z</time></trkpt><trkpt lat="42.363406513052254" lon="13.538828010560886"><ele>1224.0</ele><time>2026-05-03T07:40:38.999Z</time></trkpt><trkpt lat="42.363328720427305" lon="13.538937300843813"><ele>1225.0</ele><time>2026-05-03T07:40:39.999Z</time></trkpt><trkpt lat="42.363249621655754" lon="13.539052991934982"><ele>1226.0</ele><time>2026-05-03T07:40:40.999Z</time></trkpt><trkpt lat="42.36316621016983" lon="13.539172705121642"><ele>1227.0</ele><time>2026-05-03T07:40:41.999Z</time></trkpt><trkpt lat="42.36308188493829" lon="13.539296371997727"><ele>1228.0</ele><time>2026-05-03T07:40:42.999Z</time></trkpt><trkpt lat="42.362994897291095" lon="13.53941812834795"><ele>1228.25</ele><time>2026-05-03T07:40:43.999Z</time></trkpt><trkpt lat="42.362913315003986" lon="13.539531831093852"><ele>1228.5</ele><time>2026-05-03T07:40:44.999Z</time></trkpt><trkpt lat="42.36282753896853" lon="13.539644611280426"><ele>1228.75</ele><time>2026-05-03T07:40:45.999Z</time></trkpt><trkpt lat="42.3627454312079" lon="13.539762247821056"><ele>1229.0</ele><time>2026-05-03T07:40:46.999Z</time></trkpt><trkpt lat="42.36266284215117" lon="13.539878638621154"><ele>1229.25</ele><time>2026-05-03T07:40:47.999Z</time></trkpt><trkpt lat="42.362585775048956" lon="13.539992765795704"><ele>1229.5</ele><time>2026-05-03T07:40:48.999Z</time></trkpt><trkpt lat="42.362526672639056" lon="13.540128478674866"><ele>1229.75</ele><time>2026-05-03T07:40:49.999Z</time></trkpt><trkpt lat="42.362472891082554" lon="13.540274393377727"><ele>1230.0</ele><time>2026-05-03T07:40:50.999Z</time></trkpt><trkpt lat="42.36241774261304" lon="13.540426009880694"><ele>1230.0</ele><time>2026-05-03T07:40:51.999Z</time></trkpt><trkpt lat="42.36237543390273" lon="13.540586114262084"><ele>1230.0</ele><time>2026-05-03T07:40:52.999Z</time></trkpt><trkpt lat="42.362331883332075" lon="13.540752318773638"><ele>1230.0</ele><time>2026-05-03T07:40:53.999Z</time></trkpt><trkpt lat="42.36228609075393" lon="13.540924145312946"><ele>1230.0</ele><time>2026-05-03T07:40:54.999Z</time></trkpt><trkpt lat="42.36224466619404" lon="13.541090194329154"><ele>1230.0</ele><time>2026-05-03T07:40:55.999Z</time></trkpt><trkpt lat="42.362202963984465" lon="13.541243555100111"><ele>1230.0</ele><time>2026-05-03T07:40:56.999Z</time></trkpt><trkpt lat="42.362155675178855" lon="13.541403127584898"><ele>1230.0</ele><time>2026-05-03T07:40:57.999Z</time></trkpt><trkpt lat="42.36211170802616" lon="13.541558242249598"><ele>1230.0</ele><time>2026-05-03T07:40:58.999Z</time></trkpt><trkpt lat="42.36206616034688" lon="13.541720993951134"><ele>1230.0</ele><time>2026-05-03T07:40:59.999Z</time></trkpt><trkpt lat="42.36201844302005" lon="13.541888706782686"><ele>1230.0</ele><time>2026-05-03T07:41:00.999Z</time></trkpt><trkpt lat="42.36197213304578" lon="13.542058271794483"><ele>1230.0</ele><time>2026-05-03T07:41:01.999Z</time></trkpt><trkpt lat="42.361925360389385" lon="13.542231134313198"><ele>1230.0</ele><time>2026-05-03T07:41:02.999Z</time></trkpt><trkpt lat="42.3618811760152" lon="13.542403962869967"><ele>1230.0</ele><time>2026-05-03T07:41:03.999Z</time></trkpt><trkpt lat="42.361829745915976" lon="13.542557160868274"><ele>1230.0</ele><time>2026-05-03T07:41:04.999Z</time></trkpt><trkpt lat="42.36179004588952" lon="13.542701129050629"><ele>1230.0</ele><time>2026-05-03T07:41:05.999Z</time></trkpt><trkpt lat="42.36176714920394" lon="13.542852900439225"><ele>1230.0</ele><time>2026-05-03T07:41:06.999Z</time></trkpt><trkpt lat="42.361765823325804" lon="13.543005207947246"><ele>1230.0</ele><time>2026-05-03T07:41:07.999Z</time></trkpt><trkpt lat="42.3617744842713" lon="13.543168150050187"><ele>1230.0</ele><time>2026-05-03T07:41:08.999Z</time></trkpt><trkpt lat="42.36175924917317" lon="13.543329209575202"><ele>1230.0</ele><time>2026-05-03T07:41:09.999Z</time></trkpt><trkpt lat="42.36176538276003" lon="13.543490650119528"><ele>1230.0</ele><time>2026-05-03T07:41:10.999Z</time></trkpt><trkpt lat="42.36174496923218" lon="13.543638914599523"><ele>1230.6</ele><time>2026-05-03T07:41:11.999Z</time></trkpt><trkpt lat="42.361694787074825" lon="13.543766466748318"><ele>1231.2</ele><time>2026-05-03T07:41:12.999Z</time></trkpt><trkpt lat="42.36166500988701" lon="13.543903231330145"><ele>1231.8</ele><time>2026-05-03T07:41:13.999Z</time></trkpt><trkpt lat="42.36162330308289" lon="13.544042557240696"><ele>1232.4</ele><time>2026-05-03T07:41:14.999Z</time></trkpt><trkpt lat="42.36159648781532" lon="13.544189870221981"><ele>1233.0</ele><time>2026-05-03T07:41:15.999Z</time></trkpt><trkpt lat="42.36156312260593" lon="13.544335202565986"><ele>1233.0</ele><time>2026-05-03T07:41:16.999Z</time></trkpt><trkpt lat="42.36154225739025" lon="13.544476712775857"><ele>1233.0</ele><time>2026-05-03T07:41:17.999Z</time></trkpt><trkpt lat="42.36153893961211" lon="13.544617072831997"><ele>1233.0</ele><time>2026-05-03T07:41:18.999Z</time></trkpt><trkpt lat="42.36151843013657" lon="13.544747597391632"><ele>1233.0</ele><time>2026-05-03T07:41:19.999Z</time></trkpt><trkpt lat="42.3615104101804" lon="13.544860615505094"><ele>1233.0</ele><time>2026-05-03T07:41:20.999Z</time></trkpt><trkpt lat="42.36151450757933" lon="13.544992314913571"><ele>1233.2857142857142</ele><time>2026-05-03T07:41:22.999Z</time></trkpt><trkpt lat="42.36152669628318" lon="13.545082360580986"><ele>1233.5714285714284</ele><time>2026-05-03T07:41:23.999Z</time></trkpt><trkpt lat="42.3615376973738" lon="13.545182682561263"><ele>1233.8571428571427</ele><time>2026-05-03T07:41:24.999Z</time></trkpt><trkpt lat="42.361536335975536" lon="13.545293985593348"><ele>1234.142857142857</ele><time>2026-05-03T07:41:25.999Z</time></trkpt><trkpt lat="42.36154082718886" lon="13.545390403457048"><ele>1234.4285714285713</ele><time>2026-05-03T07:41:26.999Z</time></trkpt><trkpt lat="42.361539554874305" lon="13.545478636853385"><ele>1234.7142857142856</ele><time>2026-05-03T07:41:27.999Z</time></trkpt><trkpt lat="42.36153195228315" lon="13.5455824136372"><ele>1235.0</ele><time>2026-05-03T07:41:28.999Z</time></trkpt><trkpt lat="42.36151157178089" lon="13.545696740388477"><ele>1235.0</ele><time>2026-05-03T07:41:29.999Z</time></trkpt><trkpt lat="42.36149077441034" lon="13.545792860533291"><ele>1235.0</ele><time>2026-05-03T07:41:30.999Z</time></trkpt><trkpt lat="42.361486508110126" lon="13.545902971896801"><ele>1235.0</ele><time>2026-05-03T07:41:31.999Z</time></trkpt><trkpt lat="42.36150354030356" lon="13.546005759537659"><ele>1235.0</ele><time>2026-05-03T07:41:32.999Z</time></trkpt><trkpt lat="42.36153591543613" lon="13.546101374105382"><ele>1235.0</ele><time>2026-05-03T07:41:33.999Z</time></trkpt><trkpt lat="42.361562678269294" lon="13.546198050612524"><ele>1235.0</ele><time>2026-05-03T07:41:34.999Z</time></trkpt><trkpt lat="42.361573693264134" lon="13.546285053618423"><ele>1234.5</ele><time>2026-05-03T07:41:35.999Z</time></trkpt><trkpt lat="42.36154881994486" lon="13.546446564407661"><ele>1234.0</ele><time>2026-05-03T07:41:37.999Z</time></trkpt><trkpt lat="42.36151389159184" lon="13.546587817435427"><ele>1233.5</ele><time>2026-05-03T07:41:39.999Z</time></trkpt><trkpt lat="42.36148070157186" lon="13.546709696827989"><ele>1233.0</ele><time>2026-05-03T07:41:41.999Z</time></trkpt><trkpt lat="42.36138567090606" lon="13.546815620034684"><ele>1233.1666666666667</ele><time>2026-05-03T07:41:43.999Z</time></trkpt><trkpt lat="42.36135085124519" lon="13.546912252153415"><ele>1233.3333333333333</ele><time>2026-05-03T07:41:44.999Z</time></trkpt><trkpt lat="42.36130616129155" lon="13.54701575173026"><ele>1233.5</ele><time>2026-05-03T07:41:45.999Z</time></trkpt><trkpt lat="42.361280322340434" lon="13.547107017601318"><ele>1233.6666666666665</ele><time>2026-05-03T07:41:46.999Z</time></trkpt><trkpt lat="42.361244209043676" lon="13.547184562910617"><ele>1233.8333333333333</ele><time>2026-05-03T07:41:47.999Z</time></trkpt><trkpt lat="42.36119290158491" lon="13.547315931497955"><ele>1234.0</ele><time>2026-05-03T07:41:49.999Z</time></trkpt><trkpt lat="42.36112300420879" lon="13.547465880841258"><ele>1232.5</ele><time>2026-05-03T07:41:51.999Z</time></trkpt><trkpt lat="42.36108870986671" lon="13.547539097973699"><ele>1231.0</ele><time>2026-05-03T07:41:52.999Z</time></trkpt><trkpt lat="42.36105257333525" lon="13.547621292060864"><ele>1229.5</ele><time>2026-05-03T07:41:53.999Z</time></trkpt><trkpt lat="42.36101205414129" lon="13.547728270090506"><ele>1228.0</ele><time>2026-05-03T07:41:54.999Z</time></trkpt><trkpt lat="42.36096484623514" lon="13.547837716739494"><ele>1226.5</ele><time>2026-05-03T07:41:55.999Z</time></trkpt><trkpt lat="42.360907679022816" lon="13.5479249426846"><ele>1225.0</ele><time>2026-05-03T07:41:56.999Z</time></trkpt><trkpt lat="42.360844314134624" lon="13.547998061868476"><ele>1225.0</ele><time>2026-05-03T07:41:57.999Z</time></trkpt><trkpt lat="42.36078073169058" lon="13.548076267955514"><ele>1225.0</ele><time>2026-05-03T07:41:58.999Z</time></trkpt><trkpt lat="42.36071634568733" lon="13.548170634576998"><ele>1225.0</ele><time>2026-05-03T07:41:59.999Z</time></trkpt><trkpt lat="42.360654050689014" lon="13.54828997037524"><ele>1225.0</ele><time>2026-05-03T07:42:00.999Z</time></trkpt><trkpt lat="42.36060387791804" lon="13.548414387080998"><ele>1225.0</ele><time>2026-05-03T07:42:01.999Z</time></trkpt><trkpt lat="42.360559500828856" lon="13.548563277988862"><ele>1223.6</ele><time>2026-05-03T07:42:02.999Z</time></trkpt><trkpt lat="42.36052599853778" lon="13.548713715493388"><ele>1222.2</ele><time>2026-05-03T07:42:03.999Z</time></trkpt><trkpt lat="42.36050354507678" lon="13.548858067944407"><ele>1220.8</ele><time>2026-05-03T07:42:04.999Z</time></trkpt><trkpt lat="42.36048488507936" lon="13.548971382019527"><ele>1219.4</ele><time>2026-05-03T07:42:05.999Z</time></trkpt><trkpt lat="42.36046608790681" lon="13.549086672397188"><ele>1218.0</ele><time>2026-05-03T07:42:06.999Z</time></trkpt><trkpt lat="42.36044978911608" lon="13.549194417920814"><ele>1218.0</ele><time>2026-05-03T07:42:07.999Z</time></trkpt><trkpt lat="42.36043048364121" lon="13.549322039915587"><ele>1218.0</ele><time>2026-05-03T07:42:08.999Z</time></trkpt><trkpt lat="42.36041367896122" lon="13.549457728573678"><ele>1218.0</ele><time>2026-05-03T07:42:09.999Z</time></trkpt><trkpt lat="42.36041080252168" lon="13.549585081506649"><ele>1218.0</ele><time>2026-05-03T07:42:10.999Z</time></trkpt><trkpt lat="42.360383231178105" lon="13.54971381441003"><ele>1218.0</ele><time>2026-05-03T07:42:11.999Z</time></trkpt><trkpt lat="42.36036939422623" lon="13.54984660663799"><ele>1217.4</ele><time>2026-05-03T07:42:12.999Z</time></trkpt><trkpt lat="42.36036012523415" lon="13.549984877676705"><ele>1216.8</ele><time>2026-05-03T07:42:13.999Z</time></trkpt><trkpt lat="42.360321942452465" lon="13.550112404679462"><ele>1216.2</ele><time>2026-05-03T07:42:14.999Z</time></trkpt><trkpt lat="42.36030981280102" lon="13.55025662259064"><ele>1215.6</ele><time>2026-05-03T07:42:15.999Z</time></trkpt><trkpt lat="42.360286677283845" lon="13.550391651443665"><ele>1215.0</ele><time>2026-05-03T07:42:16.999Z</time></trkpt><trkpt lat="42.36026016697171" lon="13.550527023037013"><ele>1214.6</ele><time>2026-05-03T07:42:17.999Z</time></trkpt><trkpt lat="42.36023268851931" lon="13.550668033435688"><ele>1214.2</ele><time>2026-05-03T07:42:18.999Z</time></trkpt><trkpt lat="42.36020352874743" lon="13.55081076900148"><ele>1213.8</ele><time>2026-05-03T07:42:19.999Z</time></trkpt><trkpt lat="42.36017286744239" lon="13.550949753869055"><ele>1213.4</ele><time>2026-05-03T07:42:20.999Z</time></trkpt><trkpt lat="42.36014074525852" lon="13.551088485526988"><ele>1213.0</ele><time>2026-05-03T07:42:21.999Z</time></trkpt><trkpt lat="42.360109560110864" lon="13.551216672273062"><ele>1212.8</ele><time>2026-05-03T07:42:22.999Z</time></trkpt><trkpt lat="42.360079445442395" lon="13.551362285686348"><ele>1212.6</ele><time>2026-05-03T07:42:23.999Z</time></trkpt><trkpt lat="42.36005023603256" lon="13.551503452746532"><ele>1212.4</ele><time>2026-05-03T07:42:24.999Z</time></trkpt><trkpt lat="42.36002298351725" lon="13.551636191634344"><ele>1212.2</ele><time>2026-05-03T07:42:25.999Z</time></trkpt><trkpt lat="42.35997844978194" lon="13.551744498295635"><ele>1212.0</ele><time>2026-05-03T07:42:26.999Z</time></trkpt><trkpt lat="42.35996017792613" lon="13.55186446728478"><ele>1212.0</ele><time>2026-05-03T07:42:27.999Z</time></trkpt><trkpt lat="42.35991653476319" lon="13.551974379556276"><ele>1212.0</ele><time>2026-05-03T07:42:28.999Z</time></trkpt><trkpt lat="42.35988083255694" lon="13.552098388240767"><ele>1212.0</ele><time>2026-05-03T07:42:29.999Z</time></trkpt><trkpt lat="42.35982945980239" lon="13.55220746503346"><ele>1212.0</ele><time>2026-05-03T07:42:30.999Z</time></trkpt><trkpt lat="42.359787352112136" lon="13.552304147471922"><ele>1212.0</ele><time>2026-05-03T07:42:31.999Z</time></trkpt><trkpt lat="42.35975036558813" lon="13.552412615722156"><ele>1211.8</ele><time>2026-05-03T07:42:32.999Z</time></trkpt><trkpt lat="42.35969790668189" lon="13.552518755405725"><ele>1211.6</ele><time>2026-05-03T07:42:33.999Z</time></trkpt><trkpt lat="42.359633159460685" lon="13.55263033892118"><ele>1211.3999999999999</ele><time>2026-05-03T07:42:34.999Z</time></trkpt><trkpt lat="42.35957625287799" lon="13.55275243799343"><ele>1211.2</ele><time>2026-05-03T07:42:35.999Z</time></trkpt><trkpt lat="42.359513021061886" lon="13.552869658261736"><ele>1211.0</ele><time>2026-05-03T07:42:36.999Z</time></trkpt><trkpt lat="42.359457292492934" lon="13.552994097845504"><ele>1211.0</ele><time>2026-05-03T07:42:37.999Z</time></trkpt><trkpt lat="42.35940128092169" lon="13.553121855836359"><ele>1211.0</ele><time>2026-05-03T07:42:38.999Z</time></trkpt><trkpt lat="42.35935187683119" lon="13.553259458514905"><ele>1211.0</ele><time>2026-05-03T07:42:39.999Z</time></trkpt><trkpt lat="42.359308860355334" lon="13.553399649315093"><ele>1211.0</ele><time>2026-05-03T07:42:40.999Z</time></trkpt><trkpt lat="42.3592707869352" lon="13.553540146692221"><ele>1211.0</ele><time>2026-05-03T07:42:41.999Z</time></trkpt><trkpt lat="42.359230844616555" lon="13.553684806338532"><ele>1211.25</ele><time>2026-05-03T07:42:42.999Z</time></trkpt><trkpt lat="42.359192895134164" lon="13.553830407865764"><ele>1211.5</ele><time>2026-05-03T07:42:43.999Z</time></trkpt><trkpt lat="42.35912717900292" lon="13.55395526030343"><ele>1211.75</ele><time>2026-05-03T07:42:44.999Z</time></trkpt><trkpt lat="42.3590793331652" lon="13.554094580581799"><ele>1212.0</ele><time>2026-05-03T07:42:45.999Z</time></trkpt><trkpt lat="42.359019437575505" lon="13.554219383290619"><ele>1212.0</ele><time>2026-05-03T07:42:46.999Z</time></trkpt><trkpt lat="42.35896873004787" lon="13.554341167397245"><ele>1212.0</ele><time>2026-05-03T07:42:47.999Z</time></trkpt><trkpt lat="42.358923129750416" lon="13.554452055531918"><ele>1212.0</ele><time>2026-05-03T07:42:48.999Z</time></trkpt><trkpt lat="42.35887705168447" lon="13.554561592996853"><ele>1212.0</ele><time>2026-05-03T07:42:49.999Z</time></trkpt><trkpt lat="42.35883427355022" lon="13.554673122336471"><ele>1212.0</ele><time>2026-05-03T07:42:50.999Z</time></trkpt><trkpt lat="42.35878541817839" lon="13.55478958469439"><ele>1212.8333333333333</ele><time>2026-05-03T07:42:51.999Z</time></trkpt><trkpt lat="42.35874776036464" lon="13.554894346359031"><ele>1213.6666666666667</ele><time>2026-05-03T07:42:52.999Z</time></trkpt><trkpt lat="42.35870816650773" lon="13.555010021499816"><ele>1214.5</ele><time>2026-05-03T07:42:53.999Z</time></trkpt><trkpt lat="42.35867058015313" lon="13.555118607135046"><ele>1215.3333333333335</ele><time>2026-05-03T07:42:54.999Z</time></trkpt><trkpt lat="42.358637953176306" lon="13.555214819437554"><ele>1216.1666666666667</ele><time>2026-05-03T07:42:55.999Z</time></trkpt><trkpt lat="42.358610637267915" lon="13.555317959459908"><ele>1217.0</ele><time>2026-05-03T07:42:56.999Z</time></trkpt><trkpt lat="42.35857745993495" lon="13.555429426990106"><ele>1217.0</ele><time>2026-05-03T07:42:57.999Z</time></trkpt><trkpt lat="42.35854588902412" lon="13.555539361498946"><ele>1217.0</ele><time>2026-05-03T07:42:58.999Z</time></trkpt><trkpt lat="42.35851191855784" lon="13.555655096329103"><ele>1217.0</ele><time>2026-05-03T07:42:59.999Z</time></trkpt><trkpt lat="42.35848015353977" lon="13.555767722372888"><ele>1217.0</ele><time>2026-05-03T07:43:00.999Z</time></trkpt><trkpt lat="42.35845242254805" lon="13.555870960151477"><ele>1217.0</ele><time>2026-05-03T07:43:01.999Z</time></trkpt><trkpt lat="42.35843836507539" lon="13.555970708670639"><ele>1217.0</ele><time>2026-05-03T07:43:02.999Z</time></trkpt><trkpt lat="42.358424610721514" lon="13.556076480392624"><ele>1217.0</ele><time>2026-05-03T07:43:03.999Z</time></trkpt><trkpt lat="42.358426245076004" lon="13.556200512014913"><ele>1217.0</ele><time>2026-05-03T07:43:04.999Z</time></trkpt><trkpt lat="42.35843400696009" lon="13.556327436478592"><ele>1217.0</ele><time>2026-05-03T07:43:05.999Z</time></trkpt><trkpt lat="42.35844364615262" lon="13.556442922993519"><ele>1217.0</ele><time>2026-05-03T07:43:06.999Z</time></trkpt><trkpt lat="42.35845367063144" lon="13.55654807006339"><ele>1217.0</ele><time>2026-05-03T07:43:07.999Z</time></trkpt><trkpt lat="42.35846645436486" lon="13.556648773641788"><ele>1217.0</ele><time>2026-05-03T07:43:08.999Z</time></trkpt><trkpt lat="42.35847557480161" lon="13.556742257427036"><ele>1216.142857142857</ele><time>2026-05-03T07:43:09.999Z</time></trkpt><trkpt lat="42.35848101707348" lon="13.556832907766477"><ele>1215.2857142857142</ele><time>2026-05-03T07:43:10.999Z</time></trkpt><trkpt lat="42.358489567637136" lon="13.556933815724953"><ele>1214.4285714285716</ele><time>2026-05-03T07:43:11.999Z</time></trkpt><trkpt lat="42.35851020509318" lon="13.557019909275143"><ele>1213.5714285714284</ele><time>2026-05-03T07:43:12.999Z</time></trkpt><trkpt lat="42.35853445336119" lon="13.557098627257705"><ele>1212.7142857142858</ele><time>2026-05-03T07:43:13.999Z</time></trkpt><trkpt lat="42.35857745779613" lon="13.557189511156656"><ele>1211.857142857143</ele><time>2026-05-03T07:43:14.999Z</time></trkpt><trkpt lat="42.3586050238272" lon="13.557295926696685"><ele>1211.0</ele><time>2026-05-03T07:43:15.999Z</time></trkpt><trkpt lat="42.35864061253534" lon="13.557402686847508"><ele>1211.0</ele><time>2026-05-03T07:43:16.999Z</time></trkpt><trkpt lat="42.358735713449455" lon="13.557475043865463"><ele>1211.0</ele><time>2026-05-03T07:43:17.999Z</time></trkpt><trkpt lat="42.35877055760162" lon="13.557584666396806"><ele>1211.0</ele><time>2026-05-03T07:43:18.999Z</time></trkpt><trkpt lat="42.35879766807752" lon="13.557697650726388"><ele>1211.0</ele><time>2026-05-03T07:43:19.999Z</time></trkpt><trkpt lat="42.35881112475101" lon="13.557821131464502"><ele>1211.0</ele><time>2026-05-03T07:43:20.999Z</time></trkpt><trkpt lat="42.358809612469145" lon="13.557944154157399"><ele>1210.8</ele><time>2026-05-03T07:43:21.999Z</time></trkpt><trkpt lat="42.358808959689085" lon="13.558072086597662"><ele>1210.6</ele><time>2026-05-03T07:43:22.999Z</time></trkpt><trkpt lat="42.358807424931086" lon="13.55820375351988"><ele>1210.4</ele><time>2026-05-03T07:43:23.999Z</time></trkpt><trkpt lat="42.358817939988775" lon="13.558328420070602"><ele>1210.2</ele><time>2026-05-03T07:43:24.999Z</time></trkpt><trkpt lat="42.35885016969576" lon="13.558461927888597"><ele>1210.0</ele><time>2026-05-03T07:43:25.999Z</time></trkpt><trkpt lat="42.35888358427802" lon="13.558587585944073"><ele>1208.4</ele><time>2026-05-03T07:43:26.999Z</time></trkpt><trkpt lat="42.35890884016005" lon="13.558712142783415"><ele>1206.8</ele><time>2026-05-03T07:43:27.999Z</time></trkpt><trkpt lat="42.3589341352489" lon="13.558834525005569"><ele>1205.2</ele><time>2026-05-03T07:43:28.999Z</time></trkpt><trkpt lat="42.358956391828016" lon="13.558951740174065"><ele>1203.6</ele><time>2026-05-03T07:43:29.999Z</time></trkpt><trkpt lat="42.35897877906572" lon="13.559070774520602"><ele>1202.0</ele><time>2026-05-03T07:43:30.999Z</time></trkpt><trkpt lat="42.35900095042438" lon="13.55918772401123"><ele>1202.0</ele><time>2026-05-03T07:43:31.999Z</time></trkpt><trkpt lat="42.359019858204924" lon="13.559302687586765"><ele>1202.0</ele><time>2026-05-03T07:43:32.999Z</time></trkpt><trkpt lat="42.35902559840568" lon="13.559416100946859"><ele>1202.0</ele><time>2026-05-03T07:43:33.999Z</time></trkpt><trkpt lat="42.359012989325926" lon="13.559534631796817"><ele>1202.0</ele><time>2026-05-03T07:43:34.999Z</time></trkpt><trkpt lat="42.35899454002896" lon="13.559647846907009"><ele>1202.0</ele><time>2026-05-03T07:43:35.999Z</time></trkpt><trkpt lat="42.35897805275583" lon="13.559760000270092"><ele>1202.0</ele><time>2026-05-03T07:43:36.999Z</time></trkpt><trkpt lat="42.358961794346634" lon="13.55988687141624"><ele>1202.0</ele><time>2026-05-03T07:43:37.999Z</time></trkpt><trkpt lat="42.35894393940066" lon="13.560015609066578"><ele>1202.0</ele><time>2026-05-03T07:43:38.999Z</time></trkpt><trkpt lat="42.358932713886276" lon="13.56012858769916"><ele>1202.0</ele><time>2026-05-03T07:43:39.999Z</time></trkpt><trkpt lat="42.35892348281526" lon="13.560260284561561"><ele>1202.0</ele><time>2026-05-03T07:43:40.999Z</time></trkpt><trkpt lat="42.358920384421104" lon="13.560396236655382"><ele>1202.0</ele><time>2026-05-03T07:43:41.999Z</time></trkpt><trkpt lat="42.358915218975305" lon="13.560524374907912"><ele>1201.8</ele><time>2026-05-03T07:43:42.999Z</time></trkpt><trkpt lat="42.35891256849098" lon="13.560660719993862"><ele>1201.6</ele><time>2026-05-03T07:43:43.999Z</time></trkpt><trkpt lat="42.358912469685286" lon="13.560798249500316"><ele>1201.3999999999999</ele><time>2026-05-03T07:43:44.999Z</time></trkpt><trkpt lat="42.35891184055558" lon="13.560933542720724"><ele>1201.2</ele><time>2026-05-03T07:43:45.999Z</time></trkpt><trkpt lat="42.35891009617662" lon="13.56108236357637"><ele>1201.0</ele><time>2026-05-03T07:43:46.999Z</time></trkpt><trkpt lat="42.358907247851754" lon="13.561231765919315"><ele>1200.3999999999999</ele><time>2026-05-03T07:43:47.999Z</time></trkpt><trkpt lat="42.35890390312535" lon="13.561374070167044"><ele>1199.8</ele><time>2026-05-03T07:43:48.999Z</time></trkpt><trkpt lat="42.3588994335053" lon="13.561512760275756"><ele>1199.1999999999998</ele><time>2026-05-03T07:43:49.999Z</time></trkpt><trkpt lat="42.358891951698084" lon="13.56164664539996"><ele>1198.6</ele><time>2026-05-03T07:43:50.999Z</time></trkpt><trkpt lat="42.35888754264126" lon="13.56176175780168"><ele>1198.0</ele><time>2026-05-03T07:43:51.999Z</time></trkpt><trkpt lat="42.35888134856675" lon="13.561892050228277"><ele>1198.0</ele><time>2026-05-03T07:43:52.999Z</time></trkpt><trkpt lat="42.358878611303375" lon="13.562027504027752"><ele>1198.0</ele><time>2026-05-03T07:43:53.999Z</time></trkpt><trkpt lat="42.358876754242296" lon="13.562159626792447"><ele>1198.0</ele><time>2026-05-03T07:43:54.999Z</time></trkpt><trkpt lat="42.35887202057822" lon="13.562281446070466"><ele>1198.0</ele><time>2026-05-03T07:43:55.999Z</time></trkpt><trkpt lat="42.35886791704631" lon="13.56239479003126"><ele>1198.0</ele><time>2026-05-03T07:43:56.999Z</time></trkpt><trkpt lat="42.358868217195635" lon="13.562515050328386"><ele>1198.0</ele><time>2026-05-03T07:43:57.999Z</time></trkpt><trkpt lat="42.35887158535386" lon="13.562636990360215"><ele>1198.0</ele><time>2026-05-03T07:43:58.999Z</time></trkpt><trkpt lat="42.35887770539222" lon="13.562774620106682"><ele>1198.0</ele><time>2026-05-03T07:43:59.999Z</time></trkpt><trkpt lat="42.35888593966685" lon="13.562899640049102"><ele>1198.0</ele><time>2026-05-03T07:44:00.999Z</time></trkpt><trkpt lat="42.3588989923367" lon="13.56303869401095"><ele>1198.0</ele><time>2026-05-03T07:44:01.999Z</time></trkpt><trkpt lat="42.35892084516603" lon="13.563190322435522"><ele>1196.4</ele><time>2026-05-03T07:44:02.999Z</time></trkpt><trkpt lat="42.3589458081742" lon="13.563318919366566"><ele>1194.8</ele><time>2026-05-03T07:44:03.999Z</time></trkpt><trkpt lat="42.35897082131332" lon="13.563440439887566"><ele>1193.2</ele><time>2026-05-03T07:44:04.999Z</time></trkpt><trkpt lat="42.358987729339766" lon="13.563556939749354"><ele>1191.6</ele><time>2026-05-03T07:44:05.999Z</time></trkpt><trkpt lat="42.358998852617695" lon="13.563682895844373"><ele>1190.0</ele><time>2026-05-03T07:44:06.999Z</time></trkpt><trkpt lat="42.35899432347194" lon="13.563791851712574"><ele>1189.2</ele><time>2026-05-03T07:44:07.999Z</time></trkpt><trkpt lat="42.35897820259877" lon="13.563912145541721"><ele>1188.4</ele><time>2026-05-03T07:44:08.999Z</time></trkpt><trkpt lat="42.35896630033481" lon="13.56403204414454"><ele>1187.6</ele><time>2026-05-03T07:44:09.999Z</time></trkpt><trkpt lat="42.35896779803752" lon="13.56416852910938"><ele>1186.8</ele><time>2026-05-03T07:44:10.999Z</time></trkpt><trkpt lat="42.358980558533844" lon="13.564302822321467"><ele>1186.0</ele><time>2026-05-03T07:44:11.999Z</time></trkpt><trkpt lat="42.35899527360215" lon="13.564417950667604"><ele>1186.0</ele><time>2026-05-03T07:44:12.999Z</time></trkpt><trkpt lat="42.359005036522085" lon="13.564523158687056"><ele>1186.0</ele><time>2026-05-03T07:44:13.999Z</time></trkpt><trkpt lat="42.358998151982966" lon="13.56462682934266"><ele>1186.0</ele><time>2026-05-03T07:44:14.999Z</time></trkpt><trkpt lat="42.35897390941075" lon="13.56476527770296"><ele>1186.0</ele><time>2026-05-03T07:44:15.999Z</time></trkpt><trkpt lat="42.35893021706012" lon="13.564894499844943"><ele>1186.0</ele><time>2026-05-03T07:44:16.999Z</time></trkpt><trkpt lat="42.358889646601575" lon="13.565031141859238"><ele>1187.25</ele><time>2026-05-03T07:44:17.999Z</time></trkpt><trkpt lat="42.358861039079834" lon="13.565179908589025"><ele>1188.5</ele><time>2026-05-03T07:44:18.999Z</time></trkpt><trkpt lat="42.35884154637353" lon="13.565325463369557"><ele>1189.75</ele><time>2026-05-03T07:44:19.999Z</time></trkpt><trkpt lat="42.35882541074343" lon="13.565482106702547"><ele>1191.0</ele><time>2026-05-03T07:44:20.999Z</time></trkpt><trkpt lat="42.358810333886304" lon="13.56564908442975"><ele>1191.0</ele><time>2026-05-03T07:44:21.999Z</time></trkpt><trkpt lat="42.358799890025196" lon="13.565825693628883"><ele>1191.0</ele><time>2026-05-03T07:44:22.999Z</time></trkpt><trkpt lat="42.358794963488656" lon="13.566011959253224"><ele>1191.0</ele><time>2026-05-03T07:44:23.999Z</time></trkpt><trkpt lat="42.358796730496366" lon="13.566202138698188"><ele>1191.0</ele><time>2026-05-03T07:44:24.999Z</time></trkpt><trkpt lat="42.358803514203906" lon="13.56640343641461"><ele>1191.0</ele><time>2026-05-03T07:44:25.999Z</time></trkpt><trkpt lat="42.3588154584742" lon="13.56660171649395"><ele>1191.0</ele><time>2026-05-03T07:44:26.999Z</time></trkpt><trkpt lat="42.35882099737248" lon="13.566791738610092"><ele>1191.0</ele><time>2026-05-03T07:44:27.999Z</time></trkpt><trkpt lat="42.35882081584239" lon="13.566975199774618"><ele>1191.0</ele><time>2026-05-03T07:44:28.999Z</time></trkpt><trkpt lat="42.3588122874583" lon="13.567158786220057"><ele>1191.0</ele><time>2026-05-03T07:44:29.999Z</time></trkpt><trkpt lat="42.35880177595346" lon="13.567335248838253"><ele>1191.0</ele><time>2026-05-03T07:44:30.999Z</time></trkpt><trkpt lat="42.35879575612983" lon="13.567517869240836"><ele>1191.0</ele><time>2026-05-03T07:44:31.999Z</time></trkpt><trkpt lat="42.35879391227159" lon="13.567701666545716"><ele>1191.0</ele><time>2026-05-03T07:44:32.999Z</time></trkpt><trkpt lat="42.358786739876635" lon="13.567887301777542"><ele>1191.0</ele><time>2026-05-03T07:44:33.999Z</time></trkpt><trkpt lat="42.35876747554861" lon="13.568073741102003"><ele>1191.0</ele><time>2026-05-03T07:44:34.999Z</time></trkpt><trkpt lat="42.358739986301835" lon="13.568273378746406"><ele>1191.0</ele><time>2026-05-03T07:44:35.999Z</time></trkpt><trkpt lat="42.35870854556091" lon="13.568472700688261"><ele>1191.0</ele><time>2026-05-03T07:44:36.999Z</time></trkpt><trkpt lat="42.35867820343026" lon="13.568659404976295"><ele>1189.25</ele><time>2026-05-03T07:44:37.999Z</time></trkpt><trkpt lat="42.3586513596319" lon="13.568838439102942"><ele>1187.5</ele><time>2026-05-03T07:44:38.999Z</time></trkpt><trkpt lat="42.35862042719085" lon="13.56900769767423"><ele>1185.75</ele><time>2026-05-03T07:44:39.999Z</time></trkpt><trkpt lat="42.35856754435727" lon="13.569157753753599"><ele>1184.0</ele><time>2026-05-03T07:44:40.999Z</time></trkpt><trkpt lat="42.35848481775257" lon="13.569292848682574"><ele>1184.0</ele><time>2026-05-03T07:44:42Z</time></trkpt><trkpt lat="42.358393258343234" lon="13.569426180202734"><ele>1184.0</ele><time>2026-05-03T07:44:43Z</time></trkpt><trkpt lat="42.35830163528103" lon="13.569561430774458"><ele>1184.0</ele><time>2026-05-03T07:44:44Z</time></trkpt><trkpt lat="42.358210900187466" lon="13.56970126655615"><ele>1184.0</ele><time>2026-05-03T07:44:45Z</time></trkpt><trkpt lat="42.35812383790155" lon="13.5698436973798"><ele>1184.5</ele><time>2026-05-03T07:44:46Z</time></trkpt><trkpt lat="42.35804070997611" lon="13.569992930819096"><ele>1185.0</ele><time>2026-05-03T07:44:47Z</time></trkpt><trkpt lat="42.35795545889101" lon="13.570145838633193"><ele>1185.5</ele><time>2026-05-03T07:44:48Z</time></trkpt><trkpt lat="42.357867442288516" lon="13.570297549168503"><ele>1186.0</ele><time>2026-05-03T07:44:49Z</time></trkpt><trkpt lat="42.35777543197129" lon="13.570452128521088"><ele>1186.0</ele><time>2026-05-03T07:44:50Z</time></trkpt><trkpt lat="42.35769554592212" lon="13.570619572561668"><ele>1186.0</ele><time>2026-05-03T07:44:51Z</time></trkpt><trkpt lat="42.357625106942166" lon="13.570799135456191"><ele>1186.0</ele><time>2026-05-03T07:44:52Z</time></trkpt><trkpt lat="42.35755013393385" lon="13.570976618040124"><ele>1186.0</ele><time>2026-05-03T07:44:53Z</time></trkpt><trkpt lat="42.35746619265" lon="13.571148955939835"><ele>1184.6666666666665</ele><time>2026-05-03T07:44:54Z</time></trkpt><trkpt lat="42.35737427816934" lon="13.57131551864395"><ele>1183.3333333333333</ele><time>2026-05-03T07:44:55Z</time></trkpt><trkpt lat="42.357276853298515" lon="13.571478938719448"><ele>1182.0</ele><time>2026-05-03T07:44:56Z</time></trkpt><trkpt lat="42.35717558042001" lon="13.571634278995697"><ele>1182.0</ele><time>2026-05-03T07:44:57Z</time></trkpt><trkpt lat="42.357078001714044" lon="13.571799457105708"><ele>1182.0</ele><time>2026-05-03T07:44:58Z</time></trkpt><trkpt lat="42.356990747286204" lon="13.571967361639595"><ele>1182.0</ele><time>2026-05-03T07:44:59Z</time></trkpt><trkpt lat="42.35690281895074" lon="13.57213361609099"><ele>1183.0</ele><time>2026-05-03T07:45:00Z</time></trkpt><trkpt lat="42.356807878303876" lon="13.572280861855676"><ele>1184.0</ele><time>2026-05-03T07:45:01Z</time></trkpt><trkpt lat="42.35670168395016" lon="13.572397583217048"><ele>1185.0</ele><time>2026-05-03T07:45:02Z</time></trkpt><trkpt lat="42.356601457730115" lon="13.572471678172835"><ele>1186.0</ele><time>2026-05-03T07:45:03Z</time></trkpt><trkpt lat="42.35652011512549" lon="13.572508106024241"><ele>1186.0</ele><time>2026-05-03T07:45:04Z</time></trkpt><trkpt lat="42.35644390458493" lon="13.572509806906632"><ele>1186.0</ele><time>2026-05-03T07:45:05Z</time></trkpt><trkpt lat="42.35635357693565" lon="13.572472875690371"><ele>1186.0</ele><time>2026-05-03T07:45:06Z</time></trkpt><trkpt lat="42.35625259490468" lon="13.57242173143735"><ele>1186.0</ele><time>2026-05-03T07:45:07Z</time></trkpt><trkpt lat="42.35614667145965" lon="13.572391945716141"><ele>1186.0</ele><time>2026-05-03T07:45:08Z</time></trkpt><trkpt lat="42.35603276614797" lon="13.572387967443273"><ele>1185.0</ele><time>2026-05-03T07:45:09Z</time></trkpt><trkpt lat="42.355920215517294" lon="13.572412779549447"><ele>1184.0</ele><time>2026-05-03T07:45:10Z</time></trkpt><trkpt lat="42.355808880065446" lon="13.57245873589602"><ele>1183.0</ele><time>2026-05-03T07:45:11Z</time></trkpt><trkpt lat="42.355693854943915" lon="13.57250316174938"><ele>1182.0</ele><time>2026-05-03T07:45:12Z</time></trkpt><trkpt lat="42.35556698622307" lon="13.572569133221041"><ele>1180.5</ele><time>2026-05-03T07:45:13Z</time></trkpt><trkpt lat="42.35543724233183" lon="13.572644238481695"><ele>1179.0</ele><time>2026-05-03T07:45:14Z</time></trkpt><trkpt lat="42.35530463857882" lon="13.572730263738965"><ele>1177.5</ele><time>2026-05-03T07:45:15Z</time></trkpt><trkpt lat="42.3551662088567" lon="13.572811350298723"><ele>1176.0</ele><time>2026-05-03T07:45:16Z</time></trkpt><trkpt lat="42.35504725809667" lon="13.572879176665491"><ele>1176.0</ele><time>2026-05-03T07:45:17Z</time></trkpt><trkpt lat="42.354941588978036" lon="13.572937429319126"><ele>1176.0</ele><time>2026-05-03T07:45:18Z</time></trkpt><trkpt lat="42.35483536240312" lon="13.57299477698362"><ele>1176.0</ele><time>2026-05-03T07:45:19Z</time></trkpt><trkpt lat="42.354725995875555" lon="13.573049836786636"><ele>1176.0</ele><time>2026-05-03T07:45:20Z</time></trkpt><trkpt lat="42.35461513772735" lon="13.573110524541987"><ele>1175.75</ele><time>2026-05-03T07:45:21Z</time></trkpt><trkpt lat="42.35450052690028" lon="13.573170745623226"><ele>1175.5</ele><time>2026-05-03T07:45:22Z</time></trkpt><trkpt lat="42.35438751473358" lon="13.573234595007873"><ele>1175.25</ele><time>2026-05-03T07:45:23Z</time></trkpt><trkpt lat="42.354274573260966" lon="13.573297150621835"><ele>1175.0</ele><time>2026-05-03T07:45:24Z</time></trkpt><trkpt lat="42.35416951004951" lon="13.57335687573388"><ele>1175.0</ele><time>2026-05-03T07:45:24.999Z</time></trkpt><trkpt lat="42.35407073726383" lon="13.573413583830707"><ele>1175.0</ele><time>2026-05-03T07:45:25.999Z</time></trkpt><trkpt lat="42.35398150229993" lon="13.573472813434082"><ele>1175.0</ele><time>2026-05-03T07:45:26.999Z</time></trkpt><trkpt lat="42.35389260586148" lon="13.573536888147013"><ele>1175.0</ele><time>2026-05-03T07:45:27.999Z</time></trkpt><trkpt lat="42.353800950116096" lon="13.573606652162328"><ele>1175.0</ele><time>2026-05-03T07:45:28.999Z</time></trkpt><trkpt lat="42.35370466910633" lon="13.573673944785535"><ele>1172.8</ele><time>2026-05-03T07:45:29.999Z</time></trkpt><trkpt lat="42.35360016252694" lon="13.573740518483053"><ele>1170.6</ele><time>2026-05-03T07:45:30.999Z</time></trkpt><trkpt lat="42.35349791201492" lon="13.573806965785252"><ele>1168.4</ele><time>2026-05-03T07:45:31.999Z</time></trkpt><trkpt lat="42.353395741847635" lon="13.573865202163445"><ele>1166.2</ele><time>2026-05-03T07:45:32.999Z</time></trkpt><trkpt lat="42.35330099580346" lon="13.573919338021462"><ele>1164.0</ele><time>2026-05-03T07:45:33.999Z</time></trkpt><trkpt lat="42.35321757818375" lon="13.573969847592025"><ele>1164.0</ele><time>2026-05-03T07:45:34.999Z</time></trkpt><trkpt lat="42.35313536813932" lon="13.574021363413166"><ele>1164.0</ele><time>2026-05-03T07:45:35.999Z</time></trkpt><trkpt lat="42.35305787864941" lon="13.574076487155232"><ele>1164.0</ele><time>2026-05-03T07:45:36.999Z</time></trkpt><trkpt lat="42.35298796413895" lon="13.574134517458635"><ele>1164.0</ele><time>2026-05-03T07:45:37.999Z</time></trkpt><trkpt lat="42.352924614485715" lon="13.57418898564704"><ele>1164.0</ele><time>2026-05-03T07:45:38.999Z</time></trkpt><trkpt lat="42.352853817970704" lon="13.574233423826747"><ele>1164.0</ele><time>2026-05-03T07:45:39.999Z</time></trkpt><trkpt lat="42.352772110506145" lon="13.574258534996007"><ele>1163.0</ele><time>2026-05-03T07:45:40.999Z</time></trkpt><trkpt lat="42.352689202732996" lon="13.574261070550032"><ele>1162.0</ele><time>2026-05-03T07:45:41.999Z</time></trkpt><trkpt lat="42.35261094531108" lon="13.574248038073994"><ele>1161.0</ele><time>2026-05-03T07:45:42.999Z</time></trkpt><trkpt lat="42.352529786302675" lon="13.574219724878535"><ele>1160.0</ele><time>2026-05-03T07:45:43.999Z</time></trkpt><trkpt lat="42.35244160804634" lon="13.574173773719254"><ele>1159.0</ele><time>2026-05-03T07:45:44.999Z</time></trkpt><trkpt lat="42.35235547414264" lon="13.574118421191994"><ele>1158.0</ele><time>2026-05-03T07:45:45.999Z</time></trkpt><trkpt lat="42.35227858881923" lon="13.5740609574698"><ele>1157.0</ele><time>2026-05-03T07:45:46.999Z</time></trkpt><trkpt lat="42.352203927732184" lon="13.574006396451056"><ele>1156.0</ele><time>2026-05-03T07:45:47.999Z</time></trkpt><trkpt lat="42.35213545542808" lon="13.573950850603731"><ele>1155.0</ele><time>2026-05-03T07:45:48.999Z</time></trkpt><trkpt lat="42.3520612841942" lon="13.573882408848187"><ele>1154.0</ele><time>2026-05-03T07:45:49.999Z</time></trkpt><trkpt lat="42.35197611247384" lon="13.57381263485638"><ele>1153.0</ele><time>2026-05-03T07:45:50.999Z</time></trkpt><trkpt lat="42.35188586140138" lon="13.573745184535111"><ele>1153.0</ele><time>2026-05-03T07:45:51.999Z</time></trkpt><trkpt lat="42.35179645649958" lon="13.573681534994602"><ele>1153.0</ele><time>2026-05-03T07:45:52.999Z</time></trkpt><trkpt lat="42.351707952763675" lon="13.573626499042618"><ele>1153.0</ele><time>2026-05-03T07:45:53.999Z</time></trkpt><trkpt lat="42.35162803105562" lon="13.573573417766188"><ele>1153.0</ele><time>2026-05-03T07:45:54.999Z</time></trkpt><trkpt lat="42.35154898212672" lon="13.573511649788962"><ele>1153.0</ele><time>2026-05-03T07:45:55.999Z</time></trkpt><trkpt lat="42.35147177049004" lon="13.573441124776698"><ele>1153.0</ele><time>2026-05-03T07:45:56.999Z</time></trkpt><trkpt lat="42.351391876075176" lon="13.573362733775607"><ele>1153.0</ele><time>2026-05-03T07:45:57.999Z</time></trkpt><trkpt lat="42.35131695642364" lon="13.573279012716158"><ele>1153.0</ele><time>2026-05-03T07:45:58.999Z</time></trkpt><trkpt lat="42.351246567999176" lon="13.573190327340436"><ele>1153.0</ele><time>2026-05-03T07:45:59.999Z</time></trkpt><trkpt lat="42.35117791488028" lon="13.573104774614958"><ele>1153.0</ele><time>2026-05-03T07:46:00.999Z</time></trkpt><trkpt lat="42.351110559756755" lon="13.573014858683543"><ele>1152.3333333333333</ele><time>2026-05-03T07:46:01.999Z</time></trkpt><trkpt lat="42.351050176243845" lon="13.572920991885972"><ele>1151.6666666666665</ele><time>2026-05-03T07:46:02.999Z</time></trkpt><trkpt lat="42.35099477812584" lon="13.572824994944748"><ele>1151.0</ele><time>2026-05-03T07:46:03.999Z</time></trkpt><trkpt lat="42.35093853767655" lon="13.572734086883985"><ele>1150.3333333333333</ele><time>2026-05-03T07:46:04.999Z</time></trkpt><trkpt lat="42.35087953290525" lon="13.572645873877093"><ele>1149.6666666666667</ele><time>2026-05-03T07:46:05.999Z</time></trkpt><trkpt lat="42.35081354012905" lon="13.572561867725462"><ele>1149.0</ele><time>2026-05-03T07:46:06.999Z</time></trkpt><trkpt lat="42.35073432581317" lon="13.572491156386807"><ele>1149.0</ele><time>2026-05-03T07:46:07.999Z</time></trkpt><trkpt lat="42.35063957718849" lon="13.57242559917016"><ele>1149.0</ele><time>2026-05-03T07:46:08.999Z</time></trkpt><trkpt lat="42.35055371384718" lon="13.572374088345033"><ele>1149.0</ele><time>2026-05-03T07:46:09.999Z</time></trkpt><trkpt lat="42.35047179920337" lon="13.572321887992377"><ele>1149.0</ele><time>2026-05-03T07:46:10.999Z</time></trkpt><trkpt lat="42.35039122803195" lon="13.572262260998878"><ele>1149.0</ele><time>2026-05-03T07:46:11.999Z</time></trkpt><trkpt lat="42.350309656201865" lon="13.572189741842712"><ele>1147.75</ele><time>2026-05-03T07:46:12.999Z</time></trkpt><trkpt lat="42.35021892406273" lon="13.572106081615518"><ele>1146.5</ele><time>2026-05-03T07:46:13.999Z</time></trkpt><trkpt lat="42.3501171382516" lon="13.572014894508259"><ele>1145.25</ele><time>2026-05-03T07:46:14.999Z</time></trkpt><trkpt lat="42.35001859408444" lon="13.571932798168701"><ele>1144.0</ele><time>2026-05-03T07:46:15.999Z</time></trkpt><trkpt lat="42.34992740976951" lon="13.57186082298463"><ele>1144.0</ele><time>2026-05-03T07:46:16.999Z</time></trkpt><trkpt lat="42.34984490640854" lon="13.571791463108056"><ele>1144.0</ele><time>2026-05-03T07:46:17.999Z</time></trkpt><trkpt lat="42.34977575590402" lon="13.571720745580489"><ele>1144.0</ele><time>2026-05-03T07:46:18.999Z</time></trkpt><trkpt lat="42.34972214930096" lon="13.571645453894831"><ele>1144.0</ele><time>2026-05-03T07:46:19.999Z</time></trkpt><trkpt lat="42.34967375135469" lon="13.571559018112895"><ele>1144.0</ele><time>2026-05-03T07:46:20.999Z</time></trkpt><trkpt lat="42.34961240449313" lon="13.571471094258355"><ele>1144.0</ele><time>2026-05-03T07:46:21.999Z</time></trkpt><trkpt lat="42.34953529625733" lon="13.571395464249994"><ele>1141.2</ele><time>2026-05-03T07:46:22.999Z</time></trkpt><trkpt lat="42.349442965202144" lon="13.571338505240668"><ele>1138.4</ele><time>2026-05-03T07:46:23.999Z</time></trkpt><trkpt lat="42.349347030399805" lon="13.57129938944057"><ele>1135.6</ele><time>2026-05-03T07:46:24.999Z</time></trkpt><trkpt lat="42.34924606577337" lon="13.571282307996059"><ele>1132.8</ele><time>2026-05-03T07:46:25.999Z</time></trkpt><trkpt lat="42.349155021042954" lon="13.571274673939751"><ele>1130.0</ele><time>2026-05-03T07:46:26.999Z</time></trkpt><trkpt lat="42.34907009739113" lon="13.571266652091094"><ele>1129.9999999999998</ele><time>2026-05-03T07:46:27.999Z</time></trkpt><trkpt lat="42.348993405858714" lon="13.57125633470344"><ele>1130.0</ele><time>2026-05-03T07:46:28.999Z</time></trkpt><trkpt lat="42.34891982201168" lon="13.571243777905583"><ele>1130.0</ele><time>2026-05-03T07:46:29.999Z</time></trkpt><trkpt lat="42.34883838058235" lon="13.571224335563626"><ele>1130.0</ele><time>2026-05-03T07:46:30.999Z</time></trkpt><trkpt lat="42.348768603459995" lon="13.571197088181957"><ele>1130.0</ele><time>2026-05-03T07:46:31.999Z</time></trkpt><trkpt lat="42.34870746476915" lon="13.571166428247643"><ele>1129.9999999999998</ele><time>2026-05-03T07:46:32.999Z</time></trkpt><trkpt lat="42.34864622147301" lon="13.571128102847647"><ele>1130.0</ele><time>2026-05-03T07:46:33.999Z</time></trkpt><trkpt lat="42.3485791415572" lon="13.571084328662584"><ele>1129.8333333333335</ele><time>2026-05-03T07:46:34.999Z</time></trkpt><trkpt lat="42.34850625878635" lon="13.57103517510037"><ele>1129.6666666666667</ele><time>2026-05-03T07:46:35.999Z</time></trkpt><trkpt lat="42.34843928316823" lon="13.570987980196898"><ele>1129.5</ele><time>2026-05-03T07:46:36.999Z</time></trkpt><trkpt lat="42.348361417531436" lon="13.57093441524025"><ele>1129.3333333333333</ele><time>2026-05-03T07:46:37.999Z</time></trkpt><trkpt lat="42.34828669296507" lon="13.570876599202702"><ele>1129.1666666666665</ele><time>2026-05-03T07:46:38.999Z</time></trkpt><trkpt lat="42.348218741930566" lon="13.570811836629934"><ele>1129.0</ele><time>2026-05-03T07:46:39.999Z</time></trkpt><trkpt lat="42.348156784469886" lon="13.570739001103954"><ele>1129.0</ele><time>2026-05-03T07:46:40.999Z</time></trkpt><trkpt lat="42.348099955458196" lon="13.57064219487479"><ele>1129.0</ele><time>2026-05-03T07:46:41.999Z</time></trkpt><trkpt lat="42.3480462280076" lon="13.570511354271842"><ele>1129.0</ele><time>2026-05-03T07:46:42.999Z</time></trkpt><trkpt lat="42.3479917757538" lon="13.570362290978023"><ele>1129.0</ele><time>2026-05-03T07:46:43.999Z</time></trkpt><trkpt lat="42.34793452996782" lon="13.570225888260074"><ele>1129.0</ele><time>2026-05-03T07:46:44.999Z</time></trkpt><trkpt lat="42.347869608983686" lon="13.570116531506496"><ele>1127.6666666666665</ele><time>2026-05-03T07:46:45.999Z</time></trkpt><trkpt lat="42.347799752226884" lon="13.570035695742751"><ele>1126.3333333333333</ele><time>2026-05-03T07:46:46.999Z</time></trkpt><trkpt lat="42.34773859852156" lon="13.569977795235221"><ele>1125.0</ele><time>2026-05-03T07:46:48Z</time></trkpt><trkpt lat="42.347682620768694" lon="13.569918316028057"><ele>1123.6666666666667</ele><time>2026-05-03T07:46:49Z</time></trkpt><trkpt lat="42.34762041696263" lon="13.569845441794534"><ele>1122.3333333333335</ele><time>2026-05-03T07:46:50Z</time></trkpt><trkpt lat="42.34755925825841" lon="13.569798104756652"><ele>1121.0</ele><time>2026-05-03T07:46:51Z</time></trkpt><trkpt lat="42.34745164001829" lon="13.56975049369733"><ele>1121.0</ele><time>2026-05-03T07:46:53Z</time></trkpt><trkpt lat="42.347322759657885" lon="13.569735604848638"><ele>1121.0</ele><time>2026-05-03T07:46:55Z</time></trkpt><trkpt lat="42.34723783253204" lon="13.569742132894442"><ele>1121.0</ele><time>2026-05-03T07:46:56Z</time></trkpt><trkpt lat="42.34714216073652" lon="13.569765927461004"><ele>1121.0</ele><time>2026-05-03T07:46:57Z</time></trkpt><trkpt lat="42.34704651922245" lon="13.569807851644327"><ele>1121.0</ele><time>2026-05-03T07:46:58Z</time></trkpt><trkpt lat="42.34695814771538" lon="13.569856560209523"><ele>1120.6</ele><time>2026-05-03T07:46:59Z</time></trkpt><trkpt lat="42.34686488849554" lon="13.569895896566777"><ele>1120.1999999999998</ele><time>2026-05-03T07:47:00Z</time></trkpt><trkpt lat="42.346775392146725" lon="13.569905995524838"><ele>1119.8000000000002</ele><time>2026-05-03T07:47:01Z</time></trkpt><trkpt lat="42.346681979902755" lon="13.56990625901319"><ele>1119.4</ele><time>2026-05-03T07:47:02Z</time></trkpt><trkpt lat="42.346584686194724" lon="13.569903667221892"><ele>1119.0</ele><time>2026-05-03T07:47:03Z</time></trkpt><trkpt lat="42.3464879119259" lon="13.56991641573359"><ele>1119.0</ele><time>2026-05-03T07:47:04Z</time></trkpt><trkpt lat="42.346400867095724" lon="13.569940117862796"><ele>1119.0</ele><time>2026-05-03T07:47:05Z</time></trkpt><trkpt lat="42.34632333258244" lon="13.56997164794845"><ele>1119.0</ele><time>2026-05-03T07:47:06Z</time></trkpt><trkpt lat="42.34624623273434" lon="13.57002406696084"><ele>1119.0</ele><time>2026-05-03T07:47:07Z</time></trkpt><trkpt lat="42.346171007374146" lon="13.570102790210582"><ele>1119.0</ele><time>2026-05-03T07:47:08Z</time></trkpt><trkpt lat="42.34610024015989" lon="13.570192593253294"><ele>1119.0</ele><time>2026-05-03T07:47:09Z</time></trkpt><trkpt lat="42.34603024399921" lon="13.570276973446607"><ele>1118.3333333333333</ele><time>2026-05-03T07:47:10Z</time></trkpt><trkpt lat="42.34596552608927" lon="13.570348341673714"><ele>1117.6666666666667</ele><time>2026-05-03T07:47:11Z</time></trkpt><trkpt lat="42.345901888081414" lon="13.570407937563203"><ele>1117.0</ele><time>2026-05-03T07:47:12Z</time></trkpt><trkpt lat="42.345849934482885" lon="13.570481226000135"><ele>1116.3333333333335</ele><time>2026-05-03T07:47:13Z</time></trkpt><trkpt lat="42.34580433789074" lon="13.570577924204049"><ele>1115.6666666666667</ele><time>2026-05-03T07:47:14Z</time></trkpt><trkpt lat="42.345772484177104" lon="13.570694334627305"><ele>1115.0</ele><time>2026-05-03T07:47:15Z</time></trkpt><trkpt lat="42.34575530176239" lon="13.570809319491804"><ele>1115.0</ele><time>2026-05-03T07:47:16Z</time></trkpt><trkpt lat="42.345742154912884" lon="13.570928714323685"><ele>1115.0</ele><time>2026-05-03T07:47:17Z</time></trkpt><trkpt lat="42.3457170254244" lon="13.571044934735966"><ele>1115.0</ele><time>2026-05-03T07:47:18Z</time></trkpt><trkpt lat="42.345667198111705" lon="13.571142719989192"><ele>1115.0</ele><time>2026-05-03T07:47:19Z</time></trkpt><trkpt lat="42.34559596643873" lon="13.571221910039576"><ele>1115.0</ele><time>2026-05-03T07:47:20Z</time></trkpt><trkpt lat="42.34549808718795" lon="13.571308515702398"><ele>1113.6</ele><time>2026-05-03T07:47:21Z</time></trkpt><trkpt lat="42.34540740143972" lon="13.571385966121747"><ele>1112.2</ele><time>2026-05-03T07:47:22Z</time></trkpt><trkpt lat="42.34531239421959" lon="13.571477240657153"><ele>1110.8</ele><time>2026-05-03T07:47:23Z</time></trkpt><trkpt lat="42.34522885335355" lon="13.5715762162004"><ele>1109.4</ele><time>2026-05-03T07:47:24Z</time></trkpt><trkpt lat="42.345167242275565" lon="13.57167411683297"><ele>1108.0</ele><time>2026-05-03T07:47:25Z</time></trkpt><trkpt lat="42.345123525053964" lon="13.57178543243793"><ele>1108.0</ele><time>2026-05-03T07:47:26Z</time></trkpt><trkpt lat="42.345091982765524" lon="13.571898896127589"><ele>1108.0</ele><time>2026-05-03T07:47:27Z</time></trkpt><trkpt lat="42.345062122511905" lon="13.572010355624242"><ele>1108.0</ele><time>2026-05-03T07:47:28Z</time></trkpt><trkpt lat="42.34503287476241" lon="13.572110723783936"><ele>1108.0</ele><time>2026-05-03T07:47:29Z</time></trkpt><trkpt lat="42.34499899798495" lon="13.57220795844448"><ele>1108.0</ele><time>2026-05-03T07:47:30Z</time></trkpt><trkpt lat="42.34495941369736" lon="13.572317972515696"><ele>1108.0</ele><time>2026-05-03T07:47:31Z</time></trkpt><trkpt lat="42.34490515549919" lon="13.57242293461364"><ele>1108.0</ele><time>2026-05-03T07:47:32Z</time></trkpt><trkpt lat="42.344842673846166" lon="13.572528628438809"><ele>1108.0</ele><time>2026-05-03T07:47:33Z</time></trkpt><trkpt lat="42.34476324383528" lon="13.572638317253983"><ele>1108.0</ele><time>2026-05-03T07:47:34Z</time></trkpt><trkpt lat="42.344673998177505" lon="13.572752608988027"><ele>1108.0</ele><time>2026-05-03T07:47:35Z</time></trkpt><trkpt lat="42.344572297445026" lon="13.572874547720108"><ele>1107.5</ele><time>2026-05-03T07:47:36Z</time></trkpt><trkpt lat="42.344461346642696" lon="13.572999781649035"><ele>1107.0</ele><time>2026-05-03T07:47:37Z</time></trkpt><trkpt lat="42.344348489529395" lon="13.573128787569901"><ele>1106.5</ele><time>2026-05-03T07:47:38Z</time></trkpt><trkpt lat="42.34423588646688" lon="13.573256494202804"><ele>1106.0</ele><time>2026-05-03T07:47:39Z</time></trkpt><trkpt lat="42.34412580446218" lon="13.573384229722777"><ele>1106.0</ele><time>2026-05-03T07:47:40Z</time></trkpt><trkpt lat="42.34402306512676" lon="13.573503964365507"><ele>1106.0</ele><time>2026-05-03T07:47:41Z</time></trkpt><trkpt lat="42.34392686635757" lon="13.573616054723828"><ele>1106.0</ele><time>2026-05-03T07:47:42Z</time></trkpt><trkpt lat="42.34383861437982" lon="13.57372319764941"><ele>1106.0</ele><time>2026-05-03T07:47:43Z</time></trkpt><trkpt lat="42.343750037496605" lon="13.573834598853846"><ele>1105.0</ele><time>2026-05-03T07:47:44Z</time></trkpt><trkpt lat="42.34367072389714" lon="13.573946737930703"><ele>1104.0</ele><time>2026-05-03T07:47:45Z</time></trkpt><trkpt lat="42.34359568292565" lon="13.574059850851576"><ele>1103.0</ele><time>2026-05-03T07:47:46Z</time></trkpt><trkpt lat="42.34352362370071" lon="13.574172701296408"><ele>1102.0</ele><time>2026-05-03T07:47:47Z</time></trkpt><trkpt lat="42.34345797681508" lon="13.574288466011424"><ele>1101.0</ele><time>2026-05-03T07:47:48Z</time></trkpt><trkpt lat="42.34338487313334" lon="13.574409422075899"><ele>1102.5</ele><time>2026-05-03T07:47:49Z</time></trkpt><trkpt lat="42.3433123038769" lon="13.574525928650763"><ele>1104.0</ele><time>2026-05-03T07:47:49.999Z</time></trkpt><trkpt lat="42.34323603210097" lon="13.574636251571388"><ele>1105.5</ele><time>2026-05-03T07:47:50.999Z</time></trkpt><trkpt lat="42.343152533796086" lon="13.57473859628867"><ele>1107.0</ele><time>2026-05-03T07:47:51.999Z</time></trkpt><trkpt lat="42.34306122117389" lon="13.574834107937152"><ele>1106.0</ele><time>2026-05-03T07:47:52.999Z</time></trkpt><trkpt lat="42.34296663188716" lon="13.574928981978482"><ele>1105.0</ele><time>2026-05-03T07:47:53.999Z</time></trkpt><trkpt lat="42.342870112359485" lon="13.575019017654471"><ele>1104.0</ele><time>2026-05-03T07:47:54.999Z</time></trkpt><trkpt lat="42.34278842776976" lon="13.57509916038295"><ele>1103.0</ele><time>2026-05-03T07:47:55.999Z</time></trkpt><trkpt lat="42.342694520973396" lon="13.575152504666397"><ele>1102.0</ele><time>2026-05-03T07:47:56.999Z</time></trkpt><trkpt lat="42.34262132468301" lon="13.575254051794328"><ele>1102.25</ele><time>2026-05-03T07:47:57.999Z</time></trkpt><trkpt lat="42.34254596356723" lon="13.575369284122106"><ele>1102.5</ele><time>2026-05-03T07:47:58.999Z</time></trkpt><trkpt lat="42.34246724025885" lon="13.575492880001798"><ele>1102.75</ele><time>2026-05-03T07:47:59.999Z</time></trkpt><trkpt lat="42.342384509888255" lon="13.575621885151108"><ele>1103.0</ele><time>2026-05-03T07:48:00.999Z</time></trkpt><trkpt lat="42.342299673992855" lon="13.57575248767035"><ele>1101.75</ele><time>2026-05-03T07:48:01.999Z</time></trkpt><trkpt lat="42.34221377391498" lon="13.575881607555733"><ele>1100.5</ele><time>2026-05-03T07:48:02.999Z</time></trkpt><trkpt lat="42.34212524454967" lon="13.576012292342167"><ele>1099.25</ele><time>2026-05-03T07:48:03.999Z</time></trkpt><trkpt lat="42.342034400343685" lon="13.576144707005172"><ele>1098.0</ele><time>2026-05-03T07:48:04.999Z</time></trkpt><trkpt lat="42.341945851496526" lon="13.576274440592572"><ele>1098.0</ele><time>2026-05-03T07:48:05.999Z</time></trkpt><trkpt lat="42.34185207821966" lon="13.576413724332864"><ele>1098.0</ele><time>2026-05-03T07:48:06.999Z</time></trkpt><trkpt lat="42.34175722680413" lon="13.576554609624036"><ele>1098.0</ele><time>2026-05-03T07:48:07.999Z</time></trkpt><trkpt lat="42.34166813814638" lon="13.576686935260788"><ele>1098.0</ele><time>2026-05-03T07:48:08.999Z</time></trkpt><trkpt lat="42.34158194947304" lon="13.576814860723417"><ele>1098.0</ele><time>2026-05-03T07:48:09.999Z</time></trkpt><trkpt lat="42.34149694775088" lon="13.576940510844924"><ele>1098.0</ele><time>2026-05-03T07:48:10.999Z</time></trkpt><trkpt lat="42.341413859547785" lon="13.577062520984446"><ele>1098.0</ele><time>2026-05-03T07:48:11.999Z</time></trkpt><trkpt lat="42.34134270922974" lon="13.577192140105339"><ele>1098.0</ele><time>2026-05-03T07:48:12.999Z</time></trkpt><trkpt lat="42.34124722557125" lon="13.577295111586164"><ele>1097.5</ele><time>2026-05-03T07:48:13.999Z</time></trkpt><trkpt lat="42.34116183470517" lon="13.577413375738994"><ele>1097.0</ele><time>2026-05-03T07:48:14.999Z</time></trkpt><trkpt lat="42.34108054931373" lon="13.577529632135432"><ele>1096.5</ele><time>2026-05-03T07:48:15.999Z</time></trkpt><trkpt lat="42.34100004295244" lon="13.57764477443237"><ele>1096.0</ele><time>2026-05-03T07:48:16.999Z</time></trkpt><trkpt lat="42.340922185161574" lon="13.57775612861312"><ele>1096.8</ele><time>2026-05-03T07:48:17.999Z</time></trkpt><trkpt lat="42.34085120456821" lon="13.577857023765024"><ele>1097.6</ele><time>2026-05-03T07:48:18.999Z</time></trkpt><trkpt lat="42.34078396494212" lon="13.577949200717256"><ele>1098.4</ele><time>2026-05-03T07:48:19.999Z</time></trkpt><trkpt lat="42.34071873519676" lon="13.578038622455681"><ele>1099.2</ele><time>2026-05-03T07:48:20.999Z</time></trkpt><trkpt lat="42.3406544342135" lon="13.578126770893041"><ele>1100.0</ele><time>2026-05-03T07:48:21.999Z</time></trkpt><trkpt lat="42.340594193292524" lon="13.578210480189712"><ele>1097.8</ele><time>2026-05-03T07:48:22.999Z</time></trkpt><trkpt lat="42.34052778146993" lon="13.578303132081615"><ele>1095.6</ele><time>2026-05-03T07:48:23.999Z</time></trkpt><trkpt lat="42.34046563314328" lon="13.578389835870928"><ele>1093.4</ele><time>2026-05-03T07:48:24.999Z</time></trkpt><trkpt lat="42.340403224599896" lon="13.578476611094901"><ele>1091.2</ele><time>2026-05-03T07:48:25.999Z</time></trkpt><trkpt lat="42.340340483941354" lon="13.578562671610323"><ele>1089.0</ele><time>2026-05-03T07:48:26.999Z</time></trkpt><trkpt lat="42.340270188128585" lon="13.578659095235643"><ele>1089.6000000000001</ele><time>2026-05-03T07:48:27.999Z</time></trkpt><trkpt lat="42.34020012716675" lon="13.578754970508843"><ele>1090.2</ele><time>2026-05-03T07:48:28.999Z</time></trkpt><trkpt lat="42.340134523402604" lon="13.578871151063979"><ele>1090.8000000000002</ele><time>2026-05-03T07:48:29.999Z</time></trkpt><trkpt lat="42.340052235500224" lon="13.578967391135206"><ele>1091.4</ele><time>2026-05-03T07:48:30.999Z</time></trkpt><trkpt lat="42.33995179603809" lon="13.579083122360531"><ele>1092.0</ele><time>2026-05-03T07:48:31.999Z</time></trkpt><trkpt lat="42.33984292981516" lon="13.579238157568847"><ele>1092.0</ele><time>2026-05-03T07:48:32.999Z</time></trkpt><trkpt lat="42.33974671189944" lon="13.579415857979619"><ele>1092.0</ele><time>2026-05-03T07:48:33.999Z</time></trkpt><trkpt lat="42.33964072152736" lon="13.579581848896591"><ele>1092.0</ele><time>2026-05-03T07:48:34.999Z</time></trkpt><trkpt lat="42.339532499098844" lon="13.579733870454808"><ele>1090.75</ele><time>2026-05-03T07:48:35.999Z</time></trkpt><trkpt lat="42.339441467651916" lon="13.57988828553936"><ele>1089.5</ele><time>2026-05-03T07:48:36.999Z</time></trkpt><trkpt lat="42.33935623644147" lon="13.580027758667422"><ele>1088.25</ele><time>2026-05-03T07:48:37.999Z</time></trkpt><trkpt lat="42.33927270117877" lon="13.580150262105718"><ele>1087.0</ele><time>2026-05-03T07:48:38.999Z</time></trkpt><trkpt lat="42.33919799192259" lon="13.580239095647402"><ele>1087.0</ele><time>2026-05-03T07:48:39.999Z</time></trkpt><trkpt lat="42.3391248679388" lon="13.580312417240162"><ele>1087.0</ele><time>2026-05-03T07:48:40.999Z</time></trkpt><trkpt lat="42.33903787850337" lon="13.580395127315109"><ele>1087.0</ele><time>2026-05-03T07:48:41.999Z</time></trkpt><trkpt lat="42.33894807546259" lon="13.580482208984838"><ele>1087.0</ele><time>2026-05-03T07:48:42.999Z</time></trkpt><trkpt lat="42.338861816505435" lon="13.580565854224142"><ele>1087.0</ele><time>2026-05-03T07:48:43.999Z</time></trkpt><trkpt lat="42.338783061591315" lon="13.5806417659443"><ele>1087.2857142857142</ele><time>2026-05-03T07:48:44.999Z</time></trkpt><trkpt lat="42.338713967212875" lon="13.58070547110175"><ele>1087.5714285714284</ele><time>2026-05-03T07:48:45.999Z</time></trkpt><trkpt lat="42.338644332809416" lon="13.580751746727952"><ele>1087.857142857143</ele><time>2026-05-03T07:48:46.999Z</time></trkpt><trkpt lat="42.338577805548745" lon="13.580779407979994"><ele>1088.142857142857</ele><time>2026-05-03T07:48:47.999Z</time></trkpt><trkpt lat="42.33851277702289" lon="13.580772882653893"><ele>1088.4285714285716</ele><time>2026-05-03T07:48:48.999Z</time></trkpt><trkpt lat="42.33844466641182" lon="13.580744437216588"><ele>1088.7142857142858</ele><time>2026-05-03T07:48:49.999Z</time></trkpt><trkpt lat="42.338379427394216" lon="13.580681319674161"><ele>1089.0</ele><time>2026-05-03T07:48:50.999Z</time></trkpt><trkpt lat="42.338300507450455" lon="13.580614663998238"><ele>1089.0</ele><time>2026-05-03T07:48:51.999Z</time></trkpt><trkpt lat="42.338212843057406" lon="13.58054854927446"><ele>1089.0</ele><time>2026-05-03T07:48:52.999Z</time></trkpt><trkpt lat="42.33815895740311" lon="13.580441849778667"><ele>1089.0</ele><time>2026-05-03T07:48:54Z</time></trkpt><trkpt lat="42.33809272036542" lon="13.580343898856395"><ele>1089.0</ele><time>2026-05-03T07:48:55Z</time></trkpt><trkpt lat="42.33801777765154" lon="13.580257427912485"><ele>1089.0</ele><time>2026-05-03T07:48:56Z</time></trkpt><trkpt lat="42.33797134630217" lon="13.580156320799263"><ele>1089.8333333333333</ele><time>2026-05-03T07:48:57Z</time></trkpt><trkpt lat="42.337934813396146" lon="13.580085034069896"><ele>1090.6666666666667</ele><time>2026-05-03T07:48:58Z</time></trkpt><trkpt lat="42.33786371136665" lon="13.57999753466292"><ele>1091.5</ele><time>2026-05-03T07:49:00Z</time></trkpt><trkpt lat="42.33781374558616" lon="13.579933052508796"><ele>1092.3333333333335</ele><time>2026-05-03T07:49:02Z</time></trkpt><trkpt lat="42.33774784163189" lon="13.579835737720215"><ele>1093.1666666666667</ele><time>2026-05-03T07:49:04Z</time></trkpt><trkpt lat="42.33768570124867" lon="13.579717195579992"><ele>1094.0</ele><time>2026-05-03T07:49:05Z</time></trkpt><trkpt lat="42.33760435797946" lon="13.5796098666641"><ele>1094.0</ele><time>2026-05-03T07:49:06Z</time></trkpt><trkpt lat="42.33751249602296" lon="13.579527149015313"><ele>1094.0</ele><time>2026-05-03T07:49:07Z</time></trkpt><trkpt lat="42.33740616284553" lon="13.579462905000005"><ele>1094.0</ele><time>2026-05-03T07:49:08Z</time></trkpt><trkpt lat="42.33728644559995" lon="13.579418426558407"><ele>1094.0</ele><time>2026-05-03T07:49:09Z</time></trkpt><trkpt lat="42.33715626125669" lon="13.57940728633245"><ele>1094.0</ele><time>2026-05-03T07:49:10Z</time></trkpt><trkpt lat="42.33702236179883" lon="13.579427619156467"><ele>1094.0</ele><time>2026-05-03T07:49:11Z</time></trkpt><trkpt lat="42.336873287921954" lon="13.57948159608547"><ele>1094.0</ele><time>2026-05-03T07:49:12Z</time></trkpt><trkpt lat="42.33671389780321" lon="13.57952121530604"><ele>1094.0</ele><time>2026-05-03T07:49:13Z</time></trkpt><trkpt lat="42.33655360742112" lon="13.579537257747635"><ele>1094.0</ele><time>2026-05-03T07:49:14Z</time></trkpt><trkpt lat="42.33639217971855" lon="13.57953360139159"><ele>1094.0</ele><time>2026-05-03T07:49:15Z</time></trkpt><trkpt lat="42.33622516809918" lon="13.579529689496109"><ele>1093.3333333333335</ele><time>2026-05-03T07:49:16Z</time></trkpt><trkpt lat="42.33605744749197" lon="13.579530380325577"><ele>1092.6666666666667</ele><time>2026-05-03T07:49:17Z</time></trkpt><trkpt lat="42.33589006323484" lon="13.579554572104392"><ele>1092.0</ele><time>2026-05-03T07:49:18Z</time></trkpt><trkpt lat="42.33572000087314" lon="13.57959084194285"><ele>1092.0</ele><time>2026-05-03T07:49:19Z</time></trkpt><trkpt lat="42.33555394889192" lon="13.579625358663929"><ele>1092.0</ele><time>2026-05-03T07:49:20Z</time></trkpt><trkpt lat="42.33539186012082" lon="13.579647545725832"><ele>1092.0</ele><time>2026-05-03T07:49:21Z</time></trkpt><trkpt lat="42.33523101432173" lon="13.579645367183364"><ele>1090.0</ele><time>2026-05-03T07:49:22Z</time></trkpt><trkpt lat="42.33507115822379" lon="13.579614912349673"><ele>1088.0</ele><time>2026-05-03T07:49:23Z</time></trkpt><trkpt lat="42.33492035972263" lon="13.579563808388487"><ele>1086.0</ele><time>2026-05-03T07:49:24Z</time></trkpt><trkpt lat="42.334767455650685" lon="13.57951197450942"><ele>1079.6666666666667</ele><time>2026-05-03T07:49:25Z</time></trkpt><trkpt lat="42.3346126849331" lon="13.579463050822033"><ele>1073.3333333333335</ele><time>2026-05-03T07:49:26Z</time></trkpt><trkpt lat="42.33445947494457" lon="13.5794141476307"><ele>1067.0</ele><time>2026-05-03T07:49:27Z</time></trkpt><trkpt lat="42.334300561496335" lon="13.579375534287582"><ele>1067.0</ele><time>2026-05-03T07:49:28Z</time></trkpt><trkpt lat="42.334142858230074" lon="13.579351579544904"><ele>1067.0</ele><time>2026-05-03T07:49:29Z</time></trkpt><trkpt lat="42.33399044508702" lon="13.579307660953614"><ele>1067.0</ele><time>2026-05-03T07:49:30Z</time></trkpt><trkpt lat="42.33384098646149" lon="13.579284431254862"><ele>1063.25</ele><time>2026-05-03T07:49:31Z</time></trkpt><trkpt lat="42.33370850146081" lon="13.579263839692507"><ele>1059.5</ele><time>2026-05-03T07:49:32Z</time></trkpt><trkpt lat="42.33358701785148" lon="13.579297258343676"><ele>1055.75</ele><time>2026-05-03T07:49:33Z</time></trkpt><trkpt lat="42.33347527304814" lon="13.579321186731237"><ele>1052.0</ele><time>2026-05-03T07:49:34Z</time></trkpt><trkpt lat="42.33337401120376" lon="13.579403688704451"><ele>1048.75</ele><time>2026-05-03T07:49:35Z</time></trkpt><trkpt lat="42.33328301322464" lon="13.579527387068365"><ele>1045.5</ele><time>2026-05-03T07:49:36Z</time></trkpt><trkpt lat="42.33319656456146" lon="13.579659692789152"><ele>1042.25</ele><time>2026-05-03T07:49:37Z</time></trkpt><trkpt lat="42.333099233813776" lon="13.579789602095925"><ele>1039.0</ele><time>2026-05-03T07:49:38Z</time></trkpt><trkpt lat="42.33298437728805" lon="13.579892421573655"><ele>1039.0</ele><time>2026-05-03T07:49:39Z</time></trkpt><trkpt lat="42.332854853040644" lon="13.57996469970787"><ele>1039.0</ele><time>2026-05-03T07:49:39.999Z</time></trkpt><trkpt lat="42.332716671506525" lon="13.580023494188652"><ele>1039.0</ele><time>2026-05-03T07:49:40.999Z</time></trkpt><trkpt lat="42.332579559072215" lon="13.580097855403864"><ele>1039.0</ele><time>2026-05-03T07:49:41.999Z</time></trkpt><trkpt lat="42.33244608950612" lon="13.580169951927259"><ele>1039.0</ele><time>2026-05-03T07:49:42.999Z</time></trkpt><trkpt lat="42.3323234758492" lon="13.580231044939836"><ele>1039.0</ele><time>2026-05-03T07:49:43.999Z</time></trkpt><trkpt lat="42.332218236676965" lon="13.580284408697961"><ele>1039.0</ele><time>2026-05-03T07:49:44.999Z</time></trkpt><trkpt lat="42.332129832502154" lon="13.580337434705703"><ele>1039.0</ele><time>2026-05-03T07:49:45.999Z</time></trkpt><trkpt lat="42.332057335977694" lon="13.580407285845743"><ele>1039.0</ele><time>2026-05-03T07:49:46.999Z</time></trkpt><trkpt lat="42.33199602772489" lon="13.580496505944009"><ele>1036.5</ele><time>2026-05-03T07:49:47.999Z</time></trkpt><trkpt lat="42.33194715203662" lon="13.580626389940514"><ele>1034.0</ele><time>2026-05-03T07:49:48.999Z</time></trkpt><trkpt lat="42.33192635810247" lon="13.58079695013117"><ele>1031.5</ele><time>2026-05-03T07:49:49.999Z</time></trkpt><trkpt lat="42.33192358074797" lon="13.580969100474546"><ele>1029.0</ele><time>2026-05-03T07:49:50.999Z</time></trkpt><trkpt lat="42.33195759142869" lon="13.581148721065604"><ele>1029.5</ele><time>2026-05-03T07:49:51.999Z</time></trkpt><trkpt lat="42.33202010635666" lon="13.581324309348602"><ele>1030.0</ele><time>2026-05-03T07:49:52.999Z</time></trkpt><trkpt lat="42.33207241909583" lon="13.581508208154618"><ele>1030.5</ele><time>2026-05-03T07:49:53.999Z</time></trkpt><trkpt lat="42.33208835083011" lon="13.58170827119886"><ele>1031.0</ele><time>2026-05-03T07:49:54.999Z</time></trkpt><trkpt lat="42.332075288960866" lon="13.581915251106322"><ele>1029.3333333333335</ele><time>2026-05-03T07:49:55.999Z</time></trkpt><trkpt lat="42.332054041091176" lon="13.58213095268849"><ele>1027.6666666666667</ele><time>2026-05-03T07:49:56.999Z</time></trkpt><trkpt lat="42.33205099197293" lon="13.58233735442417"><ele>1026.0</ele><time>2026-05-03T07:49:57.999Z</time></trkpt><trkpt lat="42.33207929536674" lon="13.582547981370391"><ele>1026.0</ele><time>2026-05-03T07:49:58.999Z</time></trkpt><trkpt lat="42.332130744301715" lon="13.582758820208989"><ele>1026.0</ele><time>2026-05-03T07:49:59.999Z</time></trkpt><trkpt lat="42.33218868423702" lon="13.582979841488841"><ele>1026.0</ele><time>2026-05-03T07:50:00.999Z</time></trkpt><trkpt lat="42.332242467597766" lon="13.583204913612944"><ele>1027.3333333333333</ele><time>2026-05-03T07:50:01.999Z</time></trkpt><trkpt lat="42.332288685186874" lon="13.583423792775974"><ele>1028.6666666666665</ele><time>2026-05-03T07:50:02.999Z</time></trkpt><trkpt lat="42.33233862107545" lon="13.583633632966375"><ele>1030.0</ele><time>2026-05-03T07:50:03.999Z</time></trkpt><trkpt lat="42.33239066003221" lon="13.583830041897674"><ele>1030.0</ele><time>2026-05-03T07:50:04.999Z</time></trkpt><trkpt lat="42.332434732379745" lon="13.584022499335255"><ele>1030.0</ele><time>2026-05-03T07:50:05.999Z</time></trkpt><trkpt lat="42.33246771425615" lon="13.584216003588985"><ele>1030.0</ele><time>2026-05-03T07:50:06.999Z</time></trkpt><trkpt lat="42.3324810841551" lon="13.584410534414173"><ele>1030.0</ele><time>2026-05-03T07:50:07.999Z</time></trkpt><trkpt lat="42.33247968992173" lon="13.584607761499193"><ele>1029.0</ele><time>2026-05-03T07:50:08.999Z</time></trkpt><trkpt lat="42.33246944330752" lon="13.584811207118772"><ele>1028.0</ele><time>2026-05-03T07:50:09.999Z</time></trkpt><trkpt lat="42.33246739644364" lon="13.58501376280833"><ele>1027.0</ele><time>2026-05-03T07:50:10.999Z</time></trkpt><trkpt lat="42.33246913467961" lon="13.585214135409993"><ele>1026.0</ele><time>2026-05-03T07:50:11.999Z</time></trkpt><trkpt lat="42.3324684354425" lon="13.585398782285452"><ele>1025.0</ele><time>2026-05-03T07:50:12.999Z</time></trkpt><trkpt lat="42.332458199543254" lon="13.58556448729463"><ele>1024.0</ele><time>2026-05-03T07:50:13.999Z</time></trkpt><trkpt lat="42.332425838894935" lon="13.585719889072651"><ele>1023.0</ele><time>2026-05-03T07:50:14.999Z</time></trkpt><trkpt lat="42.33236327199479" lon="13.585870575418221"><ele>1022.0</ele><time>2026-05-03T07:50:15.999Z</time></trkpt><trkpt lat="42.332284696502526" lon="13.586027618998589"><ele>1018.6666666666667</ele><time>2026-05-03T07:50:16.999Z</time></trkpt><trkpt lat="42.33220872624695" lon="13.586198039955308"><ele>1015.3333333333333</ele><time>2026-05-03T07:50:17.999Z</time></trkpt><trkpt lat="42.33212900612528" lon="13.58637790237487"><ele>1012.0</ele><time>2026-05-03T07:50:18.999Z</time></trkpt><trkpt lat="42.33204189605095" lon="13.586563331208481"><ele>1012.0</ele><time>2026-05-03T07:50:19.999Z</time></trkpt><trkpt lat="42.33195454629404" lon="13.586752401847471"><ele>1012.0</ele><time>2026-05-03T07:50:20.999Z</time></trkpt><trkpt lat="42.33186490540879" lon="13.586948801139659"><ele>1012.0</ele><time>2026-05-03T07:50:21.999Z</time></trkpt><trkpt lat="42.33177498206105" lon="13.587143399851238"><ele>1012.0</ele><time>2026-05-03T07:50:22.999Z</time></trkpt><trkpt lat="42.331687228711665" lon="13.587333238098736"><ele>1012.0</ele><time>2026-05-03T07:50:23.999Z</time></trkpt><trkpt lat="42.33160321424215" lon="13.5875195745541"><ele>1012.0</ele><time>2026-05-03T07:50:24.999Z</time></trkpt><trkpt lat="42.33152253473728" lon="13.587701109907965"><ele>1012.6666666666666</ele><time>2026-05-03T07:50:25.999Z</time></trkpt><trkpt lat="42.331441575819724" lon="13.587883094147298"><ele>1013.3333333333333</ele><time>2026-05-03T07:50:26.999Z</time></trkpt><trkpt lat="42.33136265378254" lon="13.588061636331478"><ele>1014.0</ele><time>2026-05-03T07:50:27.999Z</time></trkpt><trkpt lat="42.33128587707234" lon="13.588235530509282"><ele>1010.25</ele><time>2026-05-03T07:50:28.999Z</time></trkpt><trkpt lat="42.33121203700004" lon="13.588411267242499"><ele>1006.5</ele><time>2026-05-03T07:50:29.999Z</time></trkpt><trkpt lat="42.33114798991245" lon="13.588593689101177"><ele>1002.75</ele><time>2026-05-03T07:50:30.999Z</time></trkpt><trkpt lat="42.3310987531191" lon="13.588781236630883"><ele>999.0</ele><time>2026-05-03T07:50:31.999Z</time></trkpt><trkpt lat="42.33105189625268" lon="13.58896750623098"><ele>999.0</ele><time>2026-05-03T07:50:32.999Z</time></trkpt><trkpt lat="42.33100096483494" lon="13.589141463456237"><ele>999.0</ele><time>2026-05-03T07:50:33.999Z</time></trkpt><trkpt lat="42.33095110504194" lon="13.589299123707272"><ele>999.0</ele><time>2026-05-03T07:50:34.999Z</time></trkpt><trkpt lat="42.33090422510304" lon="13.589447955828858"><ele>999.0</ele><time>2026-05-03T07:50:35.999Z</time></trkpt><trkpt lat="42.33085783460794" lon="13.589591315123062"><ele>999.2</ele><time>2026-05-03T07:50:36.999Z</time></trkpt><trkpt lat="42.33079774248743" lon="13.589716179987922"><ele>999.4000000000001</ele><time>2026-05-03T07:50:37.999Z</time></trkpt><trkpt lat="42.330720975166074" lon="13.58982360189086"><ele>999.6</ele><time>2026-05-03T07:50:38.999Z</time></trkpt><trkpt lat="42.33062840041436" lon="13.5899012963381"><ele>999.8</ele><time>2026-05-03T07:50:39.999Z</time></trkpt><trkpt lat="42.3305254445945" lon="13.58995937111546"><ele>1000.0</ele><time>2026-05-03T07:50:40.999Z</time></trkpt><trkpt lat="42.33041298388428" lon="13.590018174795091"><ele>998.4</ele><time>2026-05-03T07:50:41.999Z</time></trkpt><trkpt lat="42.33030500505316" lon="13.590078005940919"><ele>996.8</ele><time>2026-05-03T07:50:42.999Z</time></trkpt><trkpt lat="42.33020704272299" lon="13.590121451972456"><ele>995.2</ele><time>2026-05-03T07:50:43.999Z</time></trkpt><trkpt lat="42.33012141445116" lon="13.590145290898292"><ele>993.6</ele><time>2026-05-03T07:50:44.999Z</time></trkpt><trkpt lat="42.33004032633115" lon="13.59016174132445"><ele>992.0</ele><time>2026-05-03T07:50:45.999Z</time></trkpt><trkpt lat="42.32996456167996" lon="13.590178181624909"><ele>992.0</ele><time>2026-05-03T07:50:46.999Z</time></trkpt><trkpt lat="42.32990379382055" lon="13.590204503805891"><ele>992.0</ele><time>2026-05-03T07:50:47.999Z</time></trkpt><trkpt lat="42.32979831769847" lon="13.590214133503352"><ele>992.0</ele><time>2026-05-03T07:50:49.999Z</time></trkpt><trkpt lat="42.32976603758152" lon="13.590403390533663"><ele>992.0</ele><time>2026-05-03T07:50:50.999Z</time></trkpt><trkpt lat="42.329709307164855" lon="13.590486903839356"><ele>992.0</ele><time>2026-05-03T07:50:51.999Z</time></trkpt><trkpt lat="42.32966099261904" lon="13.590553137450787"><ele>993.25</ele><time>2026-05-03T07:50:52.999Z</time></trkpt><trkpt lat="42.32977426690177" lon="13.590738165060642"><ele>994.5</ele><time>2026-05-03T07:50:57.999Z</time></trkpt><trkpt lat="42.32987138284523" lon="13.5907854028407"><ele>995.75</ele><time>2026-05-03T07:50:58.999Z</time></trkpt><trkpt lat="42.32997551646151" lon="13.590839890095904"><ele>997.0</ele><time>2026-05-03T07:51:00Z</time></trkpt><trkpt lat="42.33006867317463" lon="13.590895137383312"><ele>996.9999999999999</ele><time>2026-05-03T07:51:01Z</time></trkpt><trkpt lat="42.33014908417747" lon="13.590938432355387"><ele>997.0</ele><time>2026-05-03T07:51:02Z</time></trkpt><trkpt lat="42.33021770770866" lon="13.591007067607192"><ele>997.0</ele><time>2026-05-03T07:51:03Z</time></trkpt><trkpt lat="42.330284897848735" lon="13.591043875542143"><ele>997.0</ele><time>2026-05-03T07:51:04Z</time></trkpt><trkpt lat="42.33034556417905" lon="13.591112188396227"><ele>996.9999999999999</ele><time>2026-05-03T07:51:05Z</time></trkpt><trkpt lat="42.330409044137035" lon="13.591178228944413"><ele>997.0</ele><time>2026-05-03T07:51:06Z</time></trkpt><trkpt lat="42.33047913333079" lon="13.591249203719656"><ele>1001.0</ele><time>2026-05-03T07:51:07Z</time></trkpt><trkpt lat="42.330566058445875" lon="13.591338148982087"><ele>1005.0</ele><time>2026-05-03T07:51:08Z</time></trkpt><trkpt lat="42.33066733076246" lon="13.591438271951246"><ele>1009.0</ele><time>2026-05-03T07:51:09Z</time></trkpt><trkpt lat="42.33078036513932" lon="13.591551387839493"><ele>1013.0</ele><time>2026-05-03T07:51:10Z</time></trkpt><trkpt lat="42.33089507586193" lon="13.591663733395242"><ele>1013.0</ele><time>2026-05-03T07:51:11Z</time></trkpt><trkpt lat="42.330999275632045" lon="13.59178739674568"><ele>1013.0</ele><time>2026-05-03T07:51:12Z</time></trkpt><trkpt lat="42.33108022363122" lon="13.59193842931526"><ele>1013.0</ele><time>2026-05-03T07:51:13Z</time></trkpt><trkpt lat="42.331182214423315" lon="13.59205972130578"><ele>1013.0</ele><time>2026-05-03T07:51:14Z</time></trkpt><trkpt lat="42.33126622033026" lon="13.592198912755736"><ele>1014.5</ele><time>2026-05-03T07:51:15Z</time></trkpt><trkpt lat="42.3313441769563" lon="13.59235749809661"><ele>1016.0</ele><time>2026-05-03T07:51:16Z</time></trkpt><trkpt lat="42.331418850936494" lon="13.592516739533055"><ele>1017.5</ele><time>2026-05-03T07:51:17Z</time></trkpt><trkpt lat="42.33149916485086" lon="13.592674609456145"><ele>1019.0</ele><time>2026-05-03T07:51:18Z</time></trkpt><trkpt lat="42.331580407788095" lon="13.592827682947854"><ele>1022.5</ele><time>2026-05-03T07:51:19Z</time></trkpt><trkpt lat="42.33166075740917" lon="13.592978383362041"><ele>1026.0</ele><time>2026-05-03T07:51:20Z</time></trkpt><trkpt lat="42.33174121115879" lon="13.5931301743731"><ele>1029.5</ele><time>2026-05-03T07:51:21Z</time></trkpt><trkpt lat="42.33181721502058" lon="13.593278448467649"><ele>1033.0</ele><time>2026-05-03T07:51:22Z</time></trkpt><trkpt lat="42.3318863558658" lon="13.593420223665374"><ele>1033.0</ele><time>2026-05-03T07:51:23Z</time></trkpt><trkpt lat="42.33194992541943" lon="13.593538102378313"><ele>1033.0</ele><time>2026-05-03T07:51:24Z</time></trkpt><trkpt lat="42.332000290878526" lon="13.593644022402831"><ele>1033.0</ele><time>2026-05-03T07:51:25Z</time></trkpt><trkpt lat="42.33205084786533" lon="13.593733816012014"><ele>1033.0</ele><time>2026-05-03T07:51:26Z</time></trkpt><trkpt lat="42.332113429323265" lon="13.593861118588848"><ele>1033.0</ele><time>2026-05-03T07:51:28Z</time></trkpt><trkpt lat="42.3320180457055" lon="13.59398473590708"><ele>1034.25</ele><time>2026-05-03T07:51:31Z</time></trkpt><trkpt lat="42.33194954868337" lon="13.594161038660298"><ele>1035.5</ele><time>2026-05-03T07:51:33Z</time></trkpt><trkpt lat="42.33190810851583" lon="13.594287284063082"><ele>1036.75</ele><time>2026-05-03T07:51:34Z</time></trkpt><trkpt lat="42.331844652360154" lon="13.59440554248037"><ele>1038.0</ele><time>2026-05-03T07:51:35Z</time></trkpt><trkpt lat="42.331771831360605" lon="13.594505351044438"><ele>1038.0</ele><time>2026-05-03T07:51:36Z</time></trkpt><trkpt lat="42.33170874592967" lon="13.594593868015865"><ele>1038.0</ele><time>2026-05-03T07:51:37Z</time></trkpt><trkpt lat="42.33165825260041" lon="13.594674669108212"><ele>1038.0</ele><time>2026-05-03T07:51:38Z</time></trkpt><trkpt lat="42.33161952050786" lon="13.594744910436296"><ele>1038.0</ele><time>2026-05-03T07:51:39Z</time></trkpt><trkpt lat="42.33160123444986" lon="13.594868950678643"><ele>1038.0</ele><time>2026-05-03T07:51:41Z</time></trkpt><trkpt lat="42.3316531748456" lon="13.59494006814527"><ele>1038.0</ele><time>2026-05-03T07:51:42.999Z</time></trkpt><trkpt lat="42.33177189998054" lon="13.594972153008143"><ele>1038.0</ele><time>2026-05-03T07:51:44.999Z</time></trkpt><trkpt lat="42.33184691212859" lon="13.595020044857359"><ele>1038.0</ele><time>2026-05-03T07:51:46.999Z</time></trkpt><trkpt lat="42.331867004221834" lon="13.59518071868958"><ele>1038.0</ele><time>2026-05-03T07:51:48.999Z</time></trkpt><trkpt lat="42.331884160951276" lon="13.595273149889895"><ele>1038.0</ele><time>2026-05-03T07:51:49.999Z</time></trkpt><trkpt lat="42.33189647593553" lon="13.595376724695246"><ele>1038.0</ele><time>2026-05-03T07:51:50.999Z</time></trkpt><trkpt lat="42.3318913688619" lon="13.59547875868563"><ele>1038.0</ele><time>2026-05-03T07:51:51.999Z</time></trkpt><trkpt lat="42.33189355031712" lon="13.595565365345669"><ele>1037.5</ele><time>2026-05-03T07:51:52.999Z</time></trkpt><trkpt lat="42.33192566793753" lon="13.595695314905374"><ele>1037.0</ele><time>2026-05-03T07:51:54.999Z</time></trkpt><trkpt lat="42.331895641403456" lon="13.595833886878182"><ele>1036.5</ele><time>2026-05-03T07:51:56.999Z</time></trkpt><trkpt lat="42.33184855644705" lon="13.59589850970002"><ele>1036.0</ele><time>2026-05-03T07:51:57.999Z</time></trkpt><trkpt lat="42.331791940266" lon="13.595972854390256"><ele>1035.5</ele><time>2026-05-03T07:51:58.999Z</time></trkpt><trkpt lat="42.33173939879018" lon="13.59605364248503"><ele>1035.0</ele><time>2026-05-03T07:51:59.999Z</time></trkpt><trkpt lat="42.331689792844315" lon="13.59613224394836"><ele>1035.5</ele><time>2026-05-03T07:52:00.999Z</time></trkpt><trkpt lat="42.3316164846033" lon="13.596253586522746"><ele>1036.0</ele><time>2026-05-03T07:52:02.999Z</time></trkpt><trkpt lat="42.331522229725344" lon="13.596263088402813"><ele>1036.5</ele><time>2026-05-03T07:52:04.999Z</time></trkpt><trkpt lat="42.33142090725953" lon="13.596180233521046"><ele>1037.0</ele><time>2026-05-03T07:52:06.999Z</time></trkpt><trkpt lat="42.331300680516165" lon="13.596159814179499"><ele>1035.3333333333335</ele><time>2026-05-03T07:52:08.999Z</time></trkpt><trkpt lat="42.331226024800074" lon="13.596182989942799"><ele>1033.6666666666667</ele><time>2026-05-03T07:52:09.999Z</time></trkpt><trkpt lat="42.33114612167941" lon="13.596202985846526"><ele>1032.0</ele><time>2026-05-03T07:52:10.999Z</time></trkpt><trkpt lat="42.33106605959133" lon="13.596223367274657"><ele>1030.3333333333333</ele><time>2026-05-03T07:52:11.999Z</time></trkpt><trkpt lat="42.3309952765156" lon="13.59625537331708"><ele>1028.6666666666665</ele><time>2026-05-03T07:52:12.999Z</time></trkpt><trkpt lat="42.33094152715715" lon="13.596302961884074"><ele>1027.0</ele><time>2026-05-03T07:52:13.999Z</time></trkpt><trkpt lat="42.33088648432914" lon="13.596374012156451"><ele>1027.0</ele><time>2026-05-03T07:52:14.999Z</time></trkpt><trkpt lat="42.330839022465646" lon="13.596468581076984"><ele>1027.0</ele><time>2026-05-03T07:52:15.999Z</time></trkpt><trkpt lat="42.33078789068803" lon="13.596579044194938"><ele>1027.0</ele><time>2026-05-03T07:52:16.999Z</time></trkpt><trkpt lat="42.330741446902636" lon="13.596670596168916"><ele>1027.0</ele><time>2026-05-03T07:52:17.999Z</time></trkpt><trkpt lat="42.330706740395506" lon="13.596755125393953"><ele>1027.0</ele><time>2026-05-03T07:52:18.999Z</time></trkpt><trkpt lat="42.330690602315386" lon="13.596842713291133"><ele>1027.0</ele><time>2026-05-03T07:52:19.999Z</time></trkpt><trkpt lat="42.33068289801193" lon="13.596948325489622"><ele>1027.1666666666665</ele><time>2026-05-03T07:52:20.999Z</time></trkpt><trkpt lat="42.330670947455495" lon="13.597063777079077"><ele>1027.3333333333333</ele><time>2026-05-03T07:52:21.999Z</time></trkpt><trkpt lat="42.330661631393106" lon="13.597172947213558"><ele>1027.5</ele><time>2026-05-03T07:52:22.999Z</time></trkpt><trkpt lat="42.33065902279001" lon="13.597277259833543"><ele>1027.6666666666667</ele><time>2026-05-03T07:52:23.999Z</time></trkpt><trkpt lat="42.33064363508565" lon="13.597371380257783"><ele>1027.8333333333335</ele><time>2026-05-03T07:52:24.999Z</time></trkpt><trkpt lat="42.33056463406217" lon="13.597485097663949"><ele>1028.0</ele><time>2026-05-03T07:52:26.999Z</time></trkpt><trkpt lat="42.3304902641903" lon="13.597527945235822"><ele>1027.3333333333335</ele><time>2026-05-03T07:52:27.999Z</time></trkpt><trkpt lat="42.330424804441165" lon="13.597578421411786"><ele>1026.6666666666667</ele><time>2026-05-03T07:52:28.999Z</time></trkpt><trkpt lat="42.33036822135771" lon="13.597643454909917"><ele>1026.0</ele><time>2026-05-03T07:52:29.999Z</time></trkpt><trkpt lat="42.33031574389588" lon="13.597724247310115"><ele>1025.3333333333333</ele><time>2026-05-03T07:52:30.999Z</time></trkpt><trkpt lat="42.33026180515575" lon="13.597799513110239"><ele>1024.6666666666665</ele><time>2026-05-03T07:52:31.999Z</time></trkpt><trkpt lat="42.33020704606366" lon="13.59787199265477"><ele>1024.0</ele><time>2026-05-03T07:52:32.999Z</time></trkpt><trkpt lat="42.330151626086405" lon="13.597945382052835"><ele>1023.9999999999999</ele><time>2026-05-03T07:52:33.999Z</time></trkpt><trkpt lat="42.33002683690502" lon="13.598009591972131"><ele>1024.0</ele><time>2026-05-03T07:52:35.999Z</time></trkpt><trkpt lat="42.32994750414285" lon="13.598017858822523"><ele>1024.0</ele><time>2026-05-03T07:52:36.999Z</time></trkpt><trkpt lat="42.32988030086196" lon="13.598038437532454"><ele>1024.0</ele><time>2026-05-03T07:52:37.999Z</time></trkpt><trkpt lat="42.329812156668766" lon="13.598080358633585"><ele>1023.9999999999999</ele><time>2026-05-03T07:52:38.999Z</time></trkpt><trkpt lat="42.32975530336069" lon="13.598134453372925"><ele>1024.0</ele><time>2026-05-03T07:52:39.999Z</time></trkpt><trkpt lat="42.329701912579814" lon="13.598189406275349"><ele>1022.9999999999999</ele><time>2026-05-03T07:52:40.999Z</time></trkpt><trkpt lat="42.329640792555615" lon="13.598240710992277"><ele>1022.0</ele><time>2026-05-03T07:52:41.999Z</time></trkpt><trkpt lat="42.32957137151329" lon="13.598294067554829"><ele>1021.0</ele><time>2026-05-03T07:52:42.999Z</time></trkpt><trkpt lat="42.32950298723804" lon="13.598357420641142"><ele>1020.0</ele><time>2026-05-03T07:52:43.999Z</time></trkpt><trkpt lat="42.329444245865346" lon="13.598430636269997"><ele>1018.9999999999999</ele><time>2026-05-03T07:52:44.999Z</time></trkpt><trkpt lat="42.32939342238353" lon="13.598502681038182"><ele>1018.0</ele><time>2026-05-03T07:52:45.999Z</time></trkpt><trkpt lat="42.32932028828245" lon="13.598603110841966"><ele>1018.0</ele><time>2026-05-03T07:52:47.999Z</time></trkpt><trkpt lat="42.329202297709905" lon="13.598632697622405"><ele>1018.0</ele><time>2026-05-03T07:52:49.999Z</time></trkpt><trkpt lat="42.32913324379747" lon="13.59865043707507"><ele>1018.0</ele><time>2026-05-03T07:52:50.999Z</time></trkpt><trkpt lat="42.329032220694494" lon="13.598731060614195"><ele>1018.0</ele><time>2026-05-03T07:52:52.999Z</time></trkpt><trkpt lat="42.32898537234563" lon="13.598804715272019"><ele>1018.0</ele><time>2026-05-03T07:52:53.999Z</time></trkpt><trkpt lat="42.32893732862624" lon="13.598886451295936"><ele>1017.6666666666666</ele><time>2026-05-03T07:52:54.999Z</time></trkpt><trkpt lat="42.328880452865626" lon="13.598967005887477"><ele>1017.3333333333333</ele><time>2026-05-03T07:52:55.999Z</time></trkpt><trkpt lat="42.32881533123583" lon="13.599060559059703"><ele>1017.0</ele><time>2026-05-03T07:52:56.999Z</time></trkpt><trkpt lat="42.32874612727294" lon="13.599157265264381"><ele>1016.6666666666667</ele><time>2026-05-03T07:52:57.999Z</time></trkpt><trkpt lat="42.328694824941486" lon="13.599239635410253"><ele>1016.3333333333334</ele><time>2026-05-03T07:52:58.999Z</time></trkpt><trkpt lat="42.32865002402649" lon="13.59932558279857"><ele>1016.0</ele><time>2026-05-03T07:52:59.999Z</time></trkpt><trkpt lat="42.32861502054327" lon="13.599407838489402"><ele>1016.0</ele><time>2026-05-03T07:53:00.999Z</time></trkpt><trkpt lat="42.32857032570383" lon="13.599497779520183"><ele>1016.0</ele><time>2026-05-03T07:53:01.999Z</time></trkpt><trkpt lat="42.32852539339704" lon="13.59956114285961"><ele>1016.0</ele><time>2026-05-03T07:53:02.999Z</time></trkpt><trkpt lat="42.328471938961336" lon="13.59961200376372"><ele>1016.0</ele><time>2026-05-03T07:53:03.999Z</time></trkpt><trkpt lat="42.328408273524495" lon="13.59966904321601"><ele>1016.0</ele><time>2026-05-03T07:53:04.999Z</time></trkpt><trkpt lat="42.3283510094023" lon="13.599734323832022"><ele>1016.0</ele><time>2026-05-03T07:53:06Z</time></trkpt><trkpt lat="42.328294206502136" lon="13.59979468927797"><ele>1016.0</ele><time>2026-05-03T07:53:07Z</time></trkpt><trkpt lat="42.32823834568107" lon="13.59984638829025"><ele>1016.3333333333334</ele><time>2026-05-03T07:53:08Z</time></trkpt><trkpt lat="42.32818605930425" lon="13.59990726634114"><ele>1016.6666666666667</ele><time>2026-05-03T07:53:09Z</time></trkpt><trkpt lat="42.328129240008195" lon="13.599988002113683"><ele>1017.0</ele><time>2026-05-03T07:53:10Z</time></trkpt><trkpt lat="42.3280660357757" lon="13.600066463563223"><ele>1017.3333333333333</ele><time>2026-05-03T07:53:11Z</time></trkpt><trkpt lat="42.32802782892345" lon="13.600158486349647"><ele>1017.6666666666666</ele><time>2026-05-03T07:53:12Z</time></trkpt><trkpt lat="42.32799910809123" lon="13.600265611932699"><ele>1018.0</ele><time>2026-05-03T07:53:13Z</time></trkpt><trkpt lat="42.32795284697018" lon="13.60036677736701"><ele>1017.9999999999999</ele><time>2026-05-03T07:53:14Z</time></trkpt><trkpt lat="42.32788610457013" lon="13.600445665253357"><ele>1018.0</ele><time>2026-05-03T07:53:15Z</time></trkpt><trkpt lat="42.32781505104832" lon="13.600498307535949"><ele>1018.0</ele><time>2026-05-03T07:53:16Z</time></trkpt><trkpt lat="42.327738257111946" lon="13.600568167074808"><ele>1018.0</ele><time>2026-05-03T07:53:17Z</time></trkpt><trkpt lat="42.32768353270099" lon="13.600654036028793"><ele>1017.9999999999999</ele><time>2026-05-03T07:53:18Z</time></trkpt><trkpt lat="42.327627151054465" lon="13.60074517828605"><ele>1018.0</ele><time>2026-05-03T07:53:19Z</time></trkpt><trkpt lat="42.327571479433786" lon="13.600834831631248"><ele>1017.9999999999999</ele><time>2026-05-03T07:53:20Z</time></trkpt><trkpt lat="42.327528835457976" lon="13.600933143364125"><ele>1018.0</ele><time>2026-05-03T07:53:21Z</time></trkpt><trkpt lat="42.32749372113363" lon="13.601044455762823"><ele>1018.0</ele><time>2026-05-03T07:53:22Z</time></trkpt><trkpt lat="42.32744629451088" lon="13.601151490117953"><ele>1018.0</ele><time>2026-05-03T07:53:23Z</time></trkpt><trkpt lat="42.3273966842597" lon="13.601245895354626"><ele>1017.9999999999999</ele><time>2026-05-03T07:53:24Z</time></trkpt><trkpt lat="42.32734702566728" lon="13.60133155314846"><ele>1018.0</ele><time>2026-05-03T07:53:25Z</time></trkpt><trkpt lat="42.327292484050375" lon="13.601423242960605"><ele>1017.8333333333333</ele><time>2026-05-03T07:53:26Z</time></trkpt><trkpt lat="42.327237370613595" lon="13.601520520745625"><ele>1017.6666666666666</ele><time>2026-05-03T07:53:27Z</time></trkpt><trkpt lat="42.327195672623134" lon="13.601629583063376"><ele>1017.5</ele><time>2026-05-03T07:53:28Z</time></trkpt><trkpt lat="42.327163019193726" lon="13.601735790270448"><ele>1017.3333333333333</ele><time>2026-05-03T07:53:29Z</time></trkpt><trkpt lat="42.327111610371205" lon="13.60183712870698"><ele>1017.1666666666666</ele><time>2026-05-03T07:53:30Z</time></trkpt><trkpt lat="42.32705018921528" lon="13.601927352227678"><ele>1017.0</ele><time>2026-05-03T07:53:31Z</time></trkpt><trkpt lat="42.327008953732566" lon="13.60202623309197"><ele>1016.2</ele><time>2026-05-03T07:53:32Z</time></trkpt><trkpt lat="42.326955158038" lon="13.602227295302441"><ele>1015.4000000000001</ele><time>2026-05-03T07:53:34Z</time></trkpt><trkpt lat="42.32691980234131" lon="13.60233158488214"><ele>1014.5999999999999</ele><time>2026-05-03T07:53:35Z</time></trkpt><trkpt lat="42.32689348190643" lon="13.602449838731099"><ele>1013.8</ele><time>2026-05-03T07:53:36Z</time></trkpt><trkpt lat="42.326876784116635" lon="13.602572417739552"><ele>1013.0</ele><time>2026-05-03T07:53:37Z</time></trkpt><trkpt lat="42.32685708300477" lon="13.602686910896118"><ele>1013.0000000000001</ele><time>2026-05-03T07:53:38Z</time></trkpt><trkpt lat="42.32682177055435" lon="13.602788759619076"><ele>1013.0</ele><time>2026-05-03T07:53:39Z</time></trkpt><trkpt lat="42.326770282505734" lon="13.60287924864742"><ele>1013.0</ele><time>2026-05-03T07:53:40Z</time></trkpt><trkpt lat="42.32671019201561" lon="13.60297358176301"><ele>1013.0</ele><time>2026-05-03T07:53:41Z</time></trkpt><trkpt lat="42.32666708658676" lon="13.603067612592321"><ele>1013.0000000000001</ele><time>2026-05-03T07:53:42Z</time></trkpt><trkpt lat="42.326625273721234" lon="13.603157223587205"><ele>1013.0</ele><time>2026-05-03T07:53:43Z</time></trkpt><trkpt lat="42.326569976475064" lon="13.603243712254713"><ele>1012.8333333333334</ele><time>2026-05-03T07:53:44Z</time></trkpt><trkpt lat="42.326507274791936" lon="13.603316057703239"><ele>1012.6666666666667</ele><time>2026-05-03T07:53:45Z</time></trkpt><trkpt lat="42.32644475852434" lon="13.603390549698753"><ele>1012.5</ele><time>2026-05-03T07:53:46Z</time></trkpt><trkpt lat="42.32638190798339" lon="13.603471121224725"><ele>1012.3333333333333</ele><time>2026-05-03T07:53:47Z</time></trkpt><trkpt lat="42.3263174977792" lon="13.603549411244964"><ele>1012.1666666666666</ele><time>2026-05-03T07:53:48Z</time></trkpt><trkpt lat="42.32626073692838" lon="13.603618426416213"><ele>1012.0</ele><time>2026-05-03T07:53:49Z</time></trkpt><trkpt lat="42.3262096351386" lon="13.603687627221392"><ele>1012.0000000000001</ele><time>2026-05-03T07:53:50Z</time></trkpt><trkpt lat="42.32616821765954" lon="13.603752021851017"><ele>1012.0</ele><time>2026-05-03T07:53:50.999Z</time></trkpt><trkpt lat="42.326118905533924" lon="13.60382006237169"><ele>1012.0000000000001</ele><time>2026-05-03T07:53:51.999Z</time></trkpt><trkpt lat="42.32607335477031" lon="13.603883562000556"><ele>1012.0000000000001</ele><time>2026-05-03T07:53:52.999Z</time></trkpt><trkpt lat="42.32602224595856" lon="13.60394262318768"><ele>1012.0</ele><time>2026-05-03T07:53:53.999Z</time></trkpt><trkpt lat="42.32597196112188" lon="13.604004855752299"><ele>1012.0000000000001</ele><time>2026-05-03T07:53:54.999Z</time></trkpt><trkpt lat="42.32592506625847" lon="13.60407610027238"><ele>1012.0000000000001</ele><time>2026-05-03T07:53:55.999Z</time></trkpt><trkpt lat="42.32588332192705" lon="13.60415388562258"><ele>1012.0000000000001</ele><time>2026-05-03T07:53:56.999Z</time></trkpt><trkpt lat="42.32584332657137" lon="13.604237842253367"><ele>1012.0</ele><time>2026-05-03T07:53:57.999Z</time></trkpt><trkpt lat="42.32581088029853" lon="13.604326840243052"><ele>1012.0000000000001</ele><time>2026-05-03T07:53:58.999Z</time></trkpt><trkpt lat="42.325781691607524" lon="13.60440466850221"><ele>1012.0000000000001</ele><time>2026-05-03T07:53:59.999Z</time></trkpt><trkpt lat="42.32573929078403" lon="13.604472082415759"><ele>1012.0</ele><time>2026-05-03T07:54:00.999Z</time></trkpt><trkpt lat="42.32567919403789" lon="13.604527833156645"><ele>1012.0000000000001</ele><time>2026-05-03T07:54:01.999Z</time></trkpt><trkpt lat="42.32562256231942" lon="13.604578355186181"><ele>1012.0000000000001</ele><time>2026-05-03T07:54:02.999Z</time></trkpt><trkpt lat="42.325578032023834" lon="13.60465850514869"><ele>1011.8333333333333</ele><time>2026-05-03T07:54:03.999Z</time></trkpt><trkpt lat="42.325529671390306" lon="13.604752811957914"><ele>1011.6666666666666</ele><time>2026-05-03T07:54:04.999Z</time></trkpt><trkpt lat="42.32548441486095" lon="13.604850553794195"><ele>1011.5</ele><time>2026-05-03T07:54:05.999Z</time></trkpt><trkpt lat="42.3254445357348" lon="13.604961614286415"><ele>1011.3333333333333</ele><time>2026-05-03T07:54:06.999Z</time></trkpt><trkpt lat="42.325403199106724" lon="13.605053044737739"><ele>1011.1666666666666</ele><time>2026-05-03T07:54:07.999Z</time></trkpt><trkpt lat="42.32535061439311" lon="13.605127547681482"><ele>1011.0</ele><time>2026-05-03T07:54:08.999Z</time></trkpt><trkpt lat="42.32529742890812" lon="13.605197846603254"><ele>1011.0</ele><time>2026-05-03T07:54:09.999Z</time></trkpt><trkpt lat="42.32525002771556" lon="13.605275032389633"><ele>1011.0</ele><time>2026-05-03T07:54:10.999Z</time></trkpt><trkpt lat="42.325211030883864" lon="13.605358089419253"><ele>1011.0</ele><time>2026-05-03T07:54:11.999Z</time></trkpt><trkpt lat="42.325180551133826" lon="13.605446500201664"><ele>1011.0</ele><time>2026-05-03T07:54:12.999Z</time></trkpt><trkpt lat="42.325142846406195" lon="13.605552484686509"><ele>1011.0</ele><time>2026-05-03T07:54:13.999Z</time></trkpt><trkpt lat="42.325112155658374" lon="13.60564909070529"><ele>1011.0</ele><time>2026-05-03T07:54:14.999Z</time></trkpt><trkpt lat="42.325078160491195" lon="13.605752343800548"><ele>1010.0</ele><time>2026-05-03T07:54:15.999Z</time></trkpt><trkpt lat="42.325042559138446" lon="13.605858207259816"><ele>1009.0</ele><time>2026-05-03T07:54:16.999Z</time></trkpt><trkpt lat="42.32501364976635" lon="13.605953817980364"><ele>1008.0</ele><time>2026-05-03T07:54:17.999Z</time></trkpt><trkpt lat="42.32499643870867" lon="13.606041888950706"><ele>1007.0</ele><time>2026-05-03T07:54:18.999Z</time></trkpt><trkpt lat="42.32499942849744" lon="13.606197103219689"><ele>1006.0</ele><time>2026-05-03T07:54:20.999Z</time></trkpt><trkpt lat="42.32498682769551" lon="13.606301902715488"><ele>1005.0</ele><time>2026-05-03T07:54:22.999Z</time></trkpt><trkpt lat="42.324904160672176" lon="13.606405151990273"><ele>1005.0</ele><time>2026-05-03T07:54:24.999Z</time></trkpt><trkpt lat="42.324843106603794" lon="13.606461430168043"><ele>1005.0</ele><time>2026-05-03T07:54:25.999Z</time></trkpt><trkpt lat="42.324779414150804" lon="13.606514007483508"><ele>1005.0</ele><time>2026-05-03T07:54:26.999Z</time></trkpt><trkpt lat="42.32472970649587" lon="13.606567946694206"><ele>1005.0</ele><time>2026-05-03T07:54:27.999Z</time></trkpt><trkpt lat="42.3246566581928" lon="13.60669068379295"><ele>1005.0</ele><time>2026-05-03T07:54:29.999Z</time></trkpt><trkpt lat="42.32461433998037" lon="13.606759977303891"><ele>1005.0</ele><time>2026-05-03T07:54:30.999Z</time></trkpt><trkpt lat="42.324514420587015" lon="13.606825167249593"><ele>1004.2</ele><time>2026-05-03T07:54:32.999Z</time></trkpt><trkpt lat="42.324405733331425" lon="13.606895825380251"><ele>1003.4</ele><time>2026-05-03T07:54:34.999Z</time></trkpt><trkpt lat="42.32431953675701" lon="13.606971599984577"><ele>1002.5999999999999</ele><time>2026-05-03T07:54:36.999Z</time></trkpt><trkpt lat="42.32423385524705" lon="13.607023362732603"><ele>1001.8</ele><time>2026-05-03T07:54:38.999Z</time></trkpt><trkpt lat="42.32417024397468" lon="13.607130174414044"><ele>1001.0</ele><time>2026-05-03T07:54:40.999Z</time></trkpt><trkpt lat="42.32407936800572" lon="13.607248393047373"><ele>999.3333333333334</ele><time>2026-05-03T07:54:42.999Z</time></trkpt><trkpt lat="42.324037017188175" lon="13.607316978222403"><ele>997.6666666666667</ele><time>2026-05-03T07:54:43.999Z</time></trkpt><trkpt lat="42.32398335555498" lon="13.607395169153088"><ele>996.0</ele><time>2026-05-03T07:54:44.999Z</time></trkpt><trkpt lat="42.32393604502535" lon="13.607467897346032"><ele>994.3333333333333</ele><time>2026-05-03T07:54:45.999Z</time></trkpt><trkpt lat="42.32388883598678" lon="13.607527850823967"><ele>992.6666666666666</ele><time>2026-05-03T07:54:46.999Z</time></trkpt><trkpt lat="42.32386753724121" lon="13.607677221647302"><ele>991.0</ele><time>2026-05-03T07:54:48.999Z</time></trkpt><trkpt lat="42.32385483564155" lon="13.607811260761851"><ele>990.6666666666666</ele><time>2026-05-03T07:54:50.999Z</time></trkpt><trkpt lat="42.323823049075344" lon="13.607892782362226"><ele>990.3333333333333</ele><time>2026-05-03T07:54:51.999Z</time></trkpt><trkpt lat="42.32376197829476" lon="13.6080406997263"><ele>990.0</ele><time>2026-05-03T07:54:53.999Z</time></trkpt><trkpt lat="42.3237317400765" lon="13.608122003249813"><ele>989.6666666666667</ele><time>2026-05-03T07:54:54.999Z</time></trkpt><trkpt lat="42.323695303395894" lon="13.60819394190903"><ele>989.3333333333334</ele><time>2026-05-03T07:54:55.999Z</time></trkpt><trkpt lat="42.32364382656224" lon="13.60831980967148"><ele>989.0</ele><time>2026-05-03T07:54:57.999Z</time></trkpt><trkpt lat="42.32357827525245" lon="13.608436750206476"><ele>989.0000000000001</ele><time>2026-05-03T07:54:59.999Z</time></trkpt><trkpt lat="42.32355143478961" lon="13.608561058130723"><ele>989.0</ele><time>2026-05-03T07:55:01.999Z</time></trkpt><trkpt lat="42.32351890074297" lon="13.60864164435464"><ele>989.0</ele><time>2026-05-03T07:55:02.999Z</time></trkpt><trkpt lat="42.3234868280161" lon="13.608734110198682"><ele>989.0</ele><time>2026-05-03T07:55:03.999Z</time></trkpt><trkpt lat="42.323447470197074" lon="13.608835577366834"><ele>989.0000000000001</ele><time>2026-05-03T07:55:04.999Z</time></trkpt><trkpt lat="42.323401845508094" lon="13.608939799364977"><ele>989.0</ele><time>2026-05-03T07:55:05.999Z</time></trkpt><trkpt lat="42.32334667924893" lon="13.609030893944285"><ele>987.0000000000001</ele><time>2026-05-03T07:55:06.999Z</time></trkpt><trkpt lat="42.32328526696958" lon="13.609127020030385"><ele>985.0</ele><time>2026-05-03T07:55:07.999Z</time></trkpt><trkpt lat="42.32323596255617" lon="13.609228064289951"><ele>983.0</ele><time>2026-05-03T07:55:08.999Z</time></trkpt><trkpt lat="42.323193637041335" lon="13.609324350157232"><ele>981.0</ele><time>2026-05-03T07:55:09.999Z</time></trkpt><trkpt lat="42.323151010446914" lon="13.609423572088104"><ele>979.0000000000001</ele><time>2026-05-03T07:55:10.999Z</time></trkpt><trkpt lat="42.32311102882396" lon="13.609522710754879"><ele>977.0</ele><time>2026-05-03T07:55:12Z</time></trkpt><trkpt lat="42.32307446802599" lon="13.609602350228787"><ele>976.8333333333334</ele><time>2026-05-03T07:55:13Z</time></trkpt><trkpt lat="42.323031941969404" lon="13.609670626700106"><ele>976.6666666666667</ele><time>2026-05-03T07:55:14Z</time></trkpt><trkpt lat="42.32298448887719" lon="13.609741916041264"><ele>976.5</ele><time>2026-05-03T07:55:15Z</time></trkpt><trkpt lat="42.322935851688435" lon="13.609827707536462"><ele>976.3333333333333</ele><time>2026-05-03T07:55:16Z</time></trkpt><trkpt lat="42.32289060195563" lon="13.609913865014553"><ele>976.1666666666666</ele><time>2026-05-03T07:55:17Z</time></trkpt><trkpt lat="42.32284165798057" lon="13.610003540625287"><ele>976.0</ele><time>2026-05-03T07:55:18Z</time></trkpt><trkpt lat="42.322789123797435" lon="13.610088192807165"><ele>976.0</ele><time>2026-05-03T07:55:19Z</time></trkpt><trkpt lat="42.32273586720846" lon="13.610177167858694"><ele>975.9999999999999</ele><time>2026-05-03T07:55:20Z</time></trkpt><trkpt lat="42.32267049642726" lon="13.610319003866856"><ele>975.9999999999999</ele><time>2026-05-03T07:55:22Z</time></trkpt><trkpt lat="42.32263488875322" lon="13.610418300424657"><ele>976.0</ele><time>2026-05-03T07:55:23Z</time></trkpt><trkpt lat="42.32259763393836" lon="13.610528421488103"><ele>976.0</ele><time>2026-05-03T07:55:24Z</time></trkpt><trkpt lat="42.322560960371504" lon="13.610617622598479"><ele>974.1666666666666</ele><time>2026-05-03T07:55:25Z</time></trkpt><trkpt lat="42.32251583240554" lon="13.610689883750174"><ele>972.3333333333333</ele><time>2026-05-03T07:55:26Z</time></trkpt><trkpt lat="42.32244792955087" lon="13.61077241012142"><ele>970.5</ele><time>2026-05-03T07:55:27Z</time></trkpt><trkpt lat="42.322390671719475" lon="13.610845026221508"><ele>968.6666666666667</ele><time>2026-05-03T07:55:28Z</time></trkpt><trkpt lat="42.322330214314086" lon="13.610926246081624"><ele>966.8333333333334</ele><time>2026-05-03T07:55:29Z</time></trkpt><trkpt lat="42.32228230876223" lon="13.61098940163624"><ele>965.0</ele><time>2026-05-03T07:55:30Z</time></trkpt><trkpt lat="42.32223369542321" lon="13.611049059307794"><ele>965.5000000000001</ele><time>2026-05-03T07:55:31Z</time></trkpt><trkpt lat="42.32218550202803" lon="13.61111363546294"><ele>966.0</ele><time>2026-05-03T07:55:32Z</time></trkpt><trkpt lat="42.322143287565076" lon="13.61118601905311"><ele>966.5</ele><time>2026-05-03T07:55:33Z</time></trkpt><trkpt lat="42.32210014558485" lon="13.611251105259345"><ele>967.0</ele><time>2026-05-03T07:55:34Z</time></trkpt><trkpt lat="42.32199894689579" lon="13.611327640654551"><ele>967.5000000000001</ele><time>2026-05-03T07:55:36Z</time></trkpt><trkpt lat="42.3219042874285" lon="13.611373734049604"><ele>968.0</ele><time>2026-05-03T07:55:38Z</time></trkpt><trkpt lat="42.32182860460962" lon="13.611525540899368"><ele>966.0000000000001</ele><time>2026-05-03T07:55:40Z</time></trkpt><trkpt lat="42.32177212619485" lon="13.611613489873145"><ele>964.0</ele><time>2026-05-03T07:55:41Z</time></trkpt><trkpt lat="42.32171744844808" lon="13.611688979295854"><ele>962.0</ele><time>2026-05-03T07:55:42Z</time></trkpt><trkpt lat="42.321671461258234" lon="13.611758909148753"><ele>960.0</ele><time>2026-05-03T07:55:43Z</time></trkpt><trkpt lat="42.32161349231752" lon="13.611919907936374"><ele>958.0000000000001</ele><time>2026-05-03T07:55:45Z</time></trkpt><trkpt lat="42.321599855809296" lon="13.61202792068811"><ele>956.0</ele><time>2026-05-03T07:55:46Z</time></trkpt><trkpt lat="42.32157675189561" lon="13.612153608065999"><ele>955.1666666666667</ele><time>2026-05-03T07:55:46.999Z</time></trkpt><trkpt lat="42.32154437360054" lon="13.612261649058373"><ele>954.3333333333334</ele><time>2026-05-03T07:55:47.999Z</time></trkpt><trkpt lat="42.321507836071476" lon="13.61236092326141"><ele>953.5</ele><time>2026-05-03T07:55:48.999Z</time></trkpt><trkpt lat="42.32146784450454" lon="13.61243241736305"><ele>952.6666666666667</ele><time>2026-05-03T07:55:49.999Z</time></trkpt><trkpt lat="42.32141907140297" lon="13.612495646496022"><ele>951.8333333333334</ele><time>2026-05-03T07:55:50.999Z</time></trkpt><trkpt lat="42.32136251496875" lon="13.612577788097617"><ele>951.0</ele><time>2026-05-03T07:55:51.999Z</time></trkpt><trkpt lat="42.321318297812645" lon="13.612645799210307"><ele>950.0</ele><time>2026-05-03T07:55:52.999Z</time></trkpt><trkpt lat="42.32124791044209" lon="13.612774177752009"><ele>948.9999999999999</ele><time>2026-05-03T07:55:54.999Z</time></trkpt><trkpt lat="42.32121531118339" lon="13.612849456531285"><ele>947.9999999999999</ele><time>2026-05-03T07:55:55.999Z</time></trkpt><trkpt lat="42.32115434994405" lon="13.612969082398546"><ele>947.0</ele><time>2026-05-03T07:55:57.999Z</time></trkpt><trkpt lat="42.32110656722663" lon="13.613046458887927"><ele>946.0</ele><time>2026-05-03T07:55:59.999Z</time></trkpt><trkpt lat="42.32101800329692" lon="13.613141012812944"><ele>945.9999999999999</ele><time>2026-05-03T07:56:01.999Z</time></trkpt><trkpt lat="42.32096292166635" lon="13.613213325352604"><ele>946.0</ele><time>2026-05-03T07:56:02.999Z</time></trkpt><trkpt lat="42.320906459646416" lon="13.613297546957009"><ele>946.0</ele><time>2026-05-03T07:56:03.999Z</time></trkpt><trkpt lat="42.320846268036085" lon="13.613365658775017"><ele>946.0</ele><time>2026-05-03T07:56:04.999Z</time></trkpt><trkpt lat="42.3207605050324" lon="13.613419275712106"><ele>945.9999999999999</ele><time>2026-05-03T07:56:06.999Z</time></trkpt><trkpt lat="42.32066805471118" lon="13.613329786111658"><ele>946.0</ele><time>2026-05-03T07:56:09.999Z</time></trkpt><trkpt lat="42.32061406882007" lon="13.61325037694361"><ele>946.0</ele><time>2026-05-03T07:56:10.999Z</time></trkpt><trkpt lat="42.320569591868676" lon="13.613172890062174"><ele>945.9999999999999</ele><time>2026-05-03T07:56:11.999Z</time></trkpt><trkpt lat="42.32051460320413" lon="13.613088655789037"><ele>945.9999999999999</ele><time>2026-05-03T07:56:13.999Z</time></trkpt><trkpt lat="42.320455690035715" lon="13.61318985033842"><ele>946.0</ele><time>2026-05-03T07:56:22.999Z</time></trkpt><trkpt lat="42.32042980607384" lon="13.613356372922203"><ele>946.0</ele><time>2026-05-03T07:56:24.999Z</time></trkpt><trkpt lat="42.32035431195618" lon="13.613484849297663"><ele>946.4999999999999</ele><time>2026-05-03T07:56:26.999Z</time></trkpt><trkpt lat="42.320285874117864" lon="13.613582738212274"><ele>947.0</ele><time>2026-05-03T07:56:27.999Z</time></trkpt><trkpt lat="42.320230081395415" lon="13.61370292293625"><ele>947.5</ele><time>2026-05-03T07:56:28.999Z</time></trkpt><trkpt lat="42.32020271012156" lon="13.613797586964164"><ele>948.0</ele><time>2026-05-03T07:56:29.999Z</time></trkpt><trkpt lat="42.32018157023028" lon="13.613888215542284"><ele>948.4999999999999</ele><time>2026-05-03T07:56:30.999Z</time></trkpt><trkpt lat="42.32017434768064" lon="13.613978640288401"><ele>949.0</ele><time>2026-05-03T07:56:31.999Z</time></trkpt><trkpt lat="42.320163693240374" lon="13.614081519593055"><ele>948.9999999999999</ele><time>2026-05-03T07:56:32.999Z</time></trkpt><trkpt lat="42.32013487714129" lon="13.614199022337232"><ele>949.0</ele><time>2026-05-03T07:56:33.999Z</time></trkpt><trkpt lat="42.32008658708094" lon="13.61431054200035"><ele>949.0</ele><time>2026-05-03T07:56:34.999Z</time></trkpt><trkpt lat="42.320026724465805" lon="13.614388899360588"><ele>949.0</ele><time>2026-05-03T07:56:35.999Z</time></trkpt><trkpt lat="42.31995691422676" lon="13.614462353678263"><ele>948.9999999999999</ele><time>2026-05-03T07:56:36.999Z</time></trkpt><trkpt lat="42.31990408459635" lon="13.614525950524973"><ele>949.0</ele><time>2026-05-03T07:56:37.999Z</time></trkpt><trkpt lat="42.319859839527645" lon="13.614620474721228"><ele>948.6</ele><time>2026-05-03T07:56:38.999Z</time></trkpt><trkpt lat="42.319820330968874" lon="13.614702241531777"><ele>948.2</ele><time>2026-05-03T07:56:39.999Z</time></trkpt><trkpt lat="42.31976505650576" lon="13.614804932212053"><ele>947.8000000000001</ele><time>2026-05-03T07:56:40.999Z</time></trkpt><trkpt lat="42.319711850277415" lon="13.614924712730136"><ele>947.4000000000001</ele><time>2026-05-03T07:56:41.999Z</time></trkpt><trkpt lat="42.31965627589216" lon="13.615027697912623"><ele>947.0</ele><time>2026-05-03T07:56:42.999Z</time></trkpt><trkpt lat="42.31959263046379" lon="13.615127002879989"><ele>948.3333333333334</ele><time>2026-05-03T07:56:43.999Z</time></trkpt><trkpt lat="42.31955339753658" lon="13.615220174812155"><ele>949.6666666666667</ele><time>2026-05-03T07:56:44.999Z</time></trkpt><trkpt lat="42.31952217445714" lon="13.615308652494562"><ele>951.0</ele><time>2026-05-03T07:56:45.999Z</time></trkpt><trkpt lat="42.319486326988034" lon="13.615390666887533"><ele>952.3333333333333</ele><time>2026-05-03T07:56:46.999Z</time></trkpt><trkpt lat="42.319433474330964" lon="13.61546523218601"><ele>953.6666666666666</ele><time>2026-05-03T07:56:47.999Z</time></trkpt><trkpt lat="42.31936707462008" lon="13.615531407970572"><ele>955.0</ele><time>2026-05-03T07:56:48.999Z</time></trkpt><trkpt lat="42.31930201576909" lon="13.615602245050662"><ele>955.0</ele><time>2026-05-03T07:56:49.999Z</time></trkpt><trkpt lat="42.319256710095665" lon="13.615667723972877"><ele>955.0</ele><time>2026-05-03T07:56:50.999Z</time></trkpt><trkpt lat="42.319211665157944" lon="13.615747374361936"><ele>955.0</ele><time>2026-05-03T07:56:51.999Z</time></trkpt><trkpt lat="42.319147892133145" lon="13.61587697489172"><ele>955.0</ele><time>2026-05-03T07:56:53.999Z</time></trkpt><trkpt lat="42.319142092547345" lon="13.616013031504268"><ele>955.0</ele><time>2026-05-03T07:56:55.999Z</time></trkpt><trkpt lat="42.31909273304931" lon="13.616162586883451"><ele>954.8</ele><time>2026-05-03T07:56:57.999Z</time></trkpt><trkpt lat="42.319019668722504" lon="13.616311022286474"><ele>954.6</ele><time>2026-05-03T07:56:59.999Z</time></trkpt><trkpt lat="42.31899619322108" lon="13.616392303530082"><ele>954.4000000000001</ele><time>2026-05-03T07:57:00.999Z</time></trkpt><trkpt lat="42.31896089797243" lon="13.61646344779266"><ele>954.2</ele><time>2026-05-03T07:57:01.999Z</time></trkpt><trkpt lat="42.31887336337029" lon="13.616571809803963"><ele>954.0</ele><time>2026-05-03T07:57:03.999Z</time></trkpt><trkpt lat="42.318820017285745" lon="13.616651321037194"><ele>955.0</ele><time>2026-05-03T07:57:04.999Z</time></trkpt><trkpt lat="42.31875885683823" lon="13.616714604507704"><ele>956.0000000000001</ele><time>2026-05-03T07:57:05.999Z</time></trkpt><trkpt lat="42.31865794419299" lon="13.616793212127222"><ele>957.0000000000001</ele><time>2026-05-03T07:57:07.999Z</time></trkpt><trkpt lat="42.31858630377485" lon="13.616876409117666"><ele>958.0</ele><time>2026-05-03T07:57:09.999Z</time></trkpt><trkpt lat="42.3185424410778" lon="13.616993440041075"><ele>959.0</ele><time>2026-05-03T07:57:11.999Z</time></trkpt><trkpt lat="42.318489402686644" lon="13.61705530984874"><ele>959.0000000000001</ele><time>2026-05-03T07:57:12.999Z</time></trkpt><trkpt lat="42.318430557444806" lon="13.617113666889335"><ele>959.0</ele><time>2026-05-03T07:57:13.999Z</time></trkpt><trkpt lat="42.318375614364214" lon="13.617166527705134"><ele>959.0</ele><time>2026-05-03T07:57:14.999Z</time></trkpt><trkpt lat="42.31826162265844" lon="13.617239068039984"><ele>959.0</ele><time>2026-05-03T07:57:16.999Z</time></trkpt><trkpt lat="42.31820373157106" lon="13.617298908767088"><ele>959.0000000000001</ele><time>2026-05-03T07:57:18Z</time></trkpt><trkpt lat="42.31814637857022" lon="13.617368611877328"><ele>959.0</ele><time>2026-05-03T07:57:19Z</time></trkpt><trkpt lat="42.31808409265962" lon="13.617431348404194"><ele>961.0000000000001</ele><time>2026-05-03T07:57:20Z</time></trkpt><trkpt lat="42.318017948165355" lon="13.617471719119967"><ele>963.0</ele><time>2026-05-03T07:57:21Z</time></trkpt><trkpt lat="42.317952102296466" lon="13.617511111139065"><ele>965.0</ele><time>2026-05-03T07:57:22Z</time></trkpt><trkpt lat="42.31788494661426" lon="13.617563539953057"><ele>967.0</ele><time>2026-05-03T07:57:23Z</time></trkpt><trkpt lat="42.31782481956867" lon="13.617629366636823"><ele>969.0000000000001</ele><time>2026-05-03T07:57:24Z</time></trkpt><trkpt lat="42.31776254288728" lon="13.61769698863596"><ele>971.0</ele><time>2026-05-03T07:57:25Z</time></trkpt><trkpt lat="42.31769047893082" lon="13.61776659189091"><ele>969.5000000000001</ele><time>2026-05-03T07:57:25.999Z</time></trkpt><trkpt lat="42.31761780451761" lon="13.617831199316607"><ele>968.0</ele><time>2026-05-03T07:57:27Z</time></trkpt><trkpt lat="42.31755237654052" lon="13.617891005376707"><ele>966.5</ele><time>2026-05-03T07:57:28Z</time></trkpt><trkpt lat="42.317499382182646" lon="13.617966401335373"><ele>965.0</ele><time>2026-05-03T07:57:29Z</time></trkpt><trkpt lat="42.31744355736218" lon="13.618029884591992"><ele>963.5000000000001</ele><time>2026-05-03T07:57:30Z</time></trkpt><trkpt lat="42.31736418817823" lon="13.618091565430392"><ele>962.0</ele><time>2026-05-03T07:57:31Z</time></trkpt><trkpt lat="42.3172900517054" lon="13.618159017449477"><ele>965.2</ele><time>2026-05-03T07:57:32Z</time></trkpt><trkpt lat="42.3172095902942" lon="13.61823963172821"><ele>968.4000000000001</ele><time>2026-05-03T07:57:33Z</time></trkpt><trkpt lat="42.317140835022066" lon="13.618312991304359"><ele>971.5999999999999</ele><time>2026-05-03T07:57:33.999Z</time></trkpt><trkpt lat="42.317071697887066" lon="13.618380718692167"><ele>974.8</ele><time>2026-05-03T07:57:34.999Z</time></trkpt><trkpt lat="42.317002061644516" lon="13.618455448195927"><ele>978.0</ele><time>2026-05-03T07:57:35.999Z</time></trkpt><trkpt lat="42.316932352016764" lon="13.618535242885905"><ele>978.0</ele><time>2026-05-03T07:57:36.999Z</time></trkpt><trkpt lat="42.31687551855045" lon="13.618604997493716"><ele>978.0000000000001</ele><time>2026-05-03T07:57:37.999Z</time></trkpt><trkpt lat="42.316812451871215" lon="13.61866018779462"><ele>978.0</ele><time>2026-05-03T07:57:38.999Z</time></trkpt><trkpt lat="42.3167487226344" lon="13.618698552419396"><ele>978.0</ele><time>2026-05-03T07:57:39.999Z</time></trkpt><trkpt lat="42.31668885660401" lon="13.618738221735638"><ele>978.0000000000001</ele><time>2026-05-03T07:57:40.999Z</time></trkpt><trkpt lat="42.31662903924576" lon="13.618795639790198"><ele>978.0</ele><time>2026-05-03T07:57:41.999Z</time></trkpt><trkpt lat="42.31657365909976" lon="13.61885577369375"><ele>978.0</ele><time>2026-05-03T07:57:42.999Z</time></trkpt><trkpt lat="42.316509942819984" lon="13.618910184401333"><ele>978.6666666666666</ele><time>2026-05-03T07:57:43.999Z</time></trkpt><trkpt lat="42.31644797133253" lon="13.618967238148569"><ele>979.3333333333333</ele><time>2026-05-03T07:57:44.999Z</time></trkpt><trkpt lat="42.316388187874814" lon="13.6190291602248"><ele>980.0</ele><time>2026-05-03T07:57:45.999Z</time></trkpt><trkpt lat="42.31633251447048" lon="13.61907485644707"><ele>980.6666666666666</ele><time>2026-05-03T07:57:46.999Z</time></trkpt><trkpt lat="42.31627053940455" lon="13.619198268536827"><ele>981.3333333333333</ele><time>2026-05-03T07:57:48.999Z</time></trkpt><trkpt lat="42.31624459745886" lon="13.619282961987876"><ele>982.0</ele><time>2026-05-03T07:57:49.999Z</time></trkpt><trkpt lat="42.316236234698785" lon="13.619370508633859"><ele>982.0</ele><time>2026-05-03T07:57:50.999Z</time></trkpt><trkpt lat="42.31621624398015" lon="13.619458887563328"><ele>982.0</ele><time>2026-05-03T07:57:51.999Z</time></trkpt><trkpt lat="42.31619611306187" lon="13.619595524585222"><ele>982.0</ele><time>2026-05-03T07:57:53.999Z</time></trkpt><trkpt lat="42.31619504417832" lon="13.61968701508509"><ele>982.0</ele><time>2026-05-03T07:57:54.999Z</time></trkpt><trkpt lat="42.3161600635494" lon="13.619817684301056"><ele>982.0</ele><time>2026-05-03T07:57:56.999Z</time></trkpt><trkpt lat="42.31605245600322" lon="13.619852531657068"><ele>981.4000000000001</ele><time>2026-05-03T07:57:58.999Z</time></trkpt><trkpt lat="42.31596448892242" lon="13.619930510267993"><ele>980.8000000000001</ele><time>2026-05-03T07:58:00.999Z</time></trkpt><trkpt lat="42.31588715225532" lon="13.620060361127319"><ele>980.2</ele><time>2026-05-03T07:58:02.999Z</time></trkpt><trkpt lat="42.31583130656331" lon="13.620130023400403"><ele>979.6</ele><time>2026-05-03T07:58:03.999Z</time></trkpt><trkpt lat="42.3157755834261" lon="13.620197025357154"><ele>979.0</ele><time>2026-05-03T07:58:04.999Z</time></trkpt><trkpt lat="42.31573203942612" lon="13.620280867269049"><ele>979.2</ele><time>2026-05-03T07:58:05.999Z</time></trkpt><trkpt lat="42.31569658589781" lon="13.620355227393047"><ele>979.4000000000001</ele><time>2026-05-03T07:58:06.999Z</time></trkpt><trkpt lat="42.3156200138842" lon="13.620463324979838"><ele>979.6</ele><time>2026-05-03T07:58:08.999Z</time></trkpt><trkpt lat="42.31553981484988" lon="13.620470540374429"><ele>979.8</ele><time>2026-05-03T07:58:10.999Z</time></trkpt><trkpt lat="42.31545385577314" lon="13.620463389515088"><ele>980.0</ele><time>2026-05-03T07:58:12.999Z</time></trkpt><trkpt lat="42.3153758894413" lon="13.62056377682907"><ele>980.0000000000001</ele><time>2026-05-03T07:58:14.999Z</time></trkpt><trkpt lat="42.31531357952925" lon="13.620649617866542"><ele>980.0</ele><time>2026-05-03T07:58:16.999Z</time></trkpt><trkpt lat="42.31525648958903" lon="13.620727446318462"><ele>980.0</ele><time>2026-05-03T07:58:18.999Z</time></trkpt><trkpt lat="42.31517854481884" lon="13.62081599229855"><ele>980.0</ele><time>2026-05-03T07:58:20.999Z</time></trkpt><trkpt lat="42.3151162650517" lon="13.620872215553428"><ele>980.0000000000001</ele><time>2026-05-03T07:58:21.999Z</time></trkpt><trkpt lat="42.31505281464889" lon="13.620934019007903"><ele>980.0</ele><time>2026-05-03T07:58:22.999Z</time></trkpt><trkpt lat="42.3149826171426" lon="13.62098693733453"><ele>980.0000000000001</ele><time>2026-05-03T07:58:23.999Z</time></trkpt><trkpt lat="42.3148975918956" lon="13.621037509917915"><ele>980.0</ele><time>2026-05-03T07:58:24.999Z</time></trkpt><trkpt lat="42.314816744677906" lon="13.621078378647127"><ele>980.0</ele><time>2026-05-03T07:58:25.999Z</time></trkpt><trkpt lat="42.31475522545906" lon="13.621107661885164"><ele>980.0</ele><time>2026-05-03T07:58:26.999Z</time></trkpt><trkpt lat="42.314688822129106" lon="13.62114446783794"><ele>980.0000000000001</ele><time>2026-05-03T07:58:27.999Z</time></trkpt><trkpt lat="42.31461600513961" lon="13.621204116206833"><ele>980.0</ele><time>2026-05-03T07:58:28.999Z</time></trkpt><trkpt lat="42.314550100250024" lon="13.621252926835613"><ele>980.1666666666667</ele><time>2026-05-03T07:58:29.999Z</time></trkpt><trkpt lat="42.314488914867866" lon="13.6212998013695"><ele>980.3333333333334</ele><time>2026-05-03T07:58:30.999Z</time></trkpt><trkpt lat="42.31443497583618" lon="13.621354910567206"><ele>980.5</ele><time>2026-05-03T07:58:31.999Z</time></trkpt><trkpt lat="42.314382574684764" lon="13.621403746453833"><ele>980.6666666666667</ele><time>2026-05-03T07:58:32.999Z</time></trkpt><trkpt lat="42.3142896328642" lon="13.621491682856927"><ele>980.8333333333334</ele><time>2026-05-03T07:58:34.999Z</time></trkpt><trkpt lat="42.31418738168185" lon="13.621558888020669"><ele>981.0</ele><time>2026-05-03T07:58:36.999Z</time></trkpt><trkpt lat="42.314130562780505" lon="13.621601201391389"><ele>981.0</ele><time>2026-05-03T07:58:37.999Z</time></trkpt><trkpt lat="42.31403769214907" lon="13.621685279604243"><ele>980.9999999999999</ele><time>2026-05-03T07:58:39.999Z</time></trkpt><trkpt lat="42.31397882848976" lon="13.621763868840004"><ele>980.9999999999999</ele><time>2026-05-03T07:58:41.999Z</time></trkpt><trkpt lat="42.313887618792954" lon="13.621749044733262"><ele>981.0</ele><time>2026-05-03T07:58:44.999Z</time></trkpt><trkpt lat="42.31379073671129" lon="13.621692446855066"><ele>981.0</ele><time>2026-05-03T07:58:46.999Z</time></trkpt><trkpt lat="42.31368730643754" lon="13.621716876760974"><ele>981.5</ele><time>2026-05-03T07:58:48.999Z</time></trkpt><trkpt lat="42.31359631117191" lon="13.621801421518978"><ele>982.0</ele><time>2026-05-03T07:58:50.999Z</time></trkpt><trkpt lat="42.313500843192664" lon="13.62188876538771"><ele>982.5</ele><time>2026-05-03T07:58:52.999Z</time></trkpt><trkpt lat="42.31340728160224" lon="13.621963182367656"><ele>983.0</ele><time>2026-05-03T07:58:54.999Z</time></trkpt><trkpt lat="42.31331883019013" lon="13.622066557544745"><ele>983.0</ele><time>2026-05-03T07:58:56.999Z</time></trkpt><trkpt lat="42.31324765142718" lon="13.622182529157511"><ele>983.0</ele><time>2026-05-03T07:58:58.999Z</time></trkpt><trkpt lat="42.31316794544465" lon="13.62232128610582"><ele>983.0</ele><time>2026-05-03T07:59:00.999Z</time></trkpt><trkpt lat="42.31312217492028" lon="13.622389789765489"><ele>983.0</ele><time>2026-05-03T07:59:01.999Z</time></trkpt><trkpt lat="42.313068433514765" lon="13.622460107975451"><ele>983.0</ele><time>2026-05-03T07:59:02.999Z</time></trkpt><trkpt lat="42.313013509106064" lon="13.622517945089177"><ele>984.3333333333334</ele><time>2026-05-03T07:59:03.999Z</time></trkpt><trkpt lat="42.31296153315069" lon="13.62258042669503"><ele>985.6666666666667</ele><time>2026-05-03T07:59:04.999Z</time></trkpt><trkpt lat="42.31290579360345" lon="13.622651940731993"><ele>987.0</ele><time>2026-05-03T07:59:05.999Z</time></trkpt><trkpt lat="42.3128556006394" lon="13.622717772161254"><ele>988.3333333333333</ele><time>2026-05-03T07:59:06.999Z</time></trkpt><trkpt lat="42.312813276444736" lon="13.622792802319813"><ele>989.6666666666666</ele><time>2026-05-03T07:59:07.999Z</time></trkpt><trkpt lat="42.31273741690525" lon="13.622922870685178"><ele>991.0</ele><time>2026-05-03T07:59:09.999Z</time></trkpt><trkpt lat="42.31266685571213" lon="13.623052332309184"><ele>991.0000000000001</ele><time>2026-05-03T07:59:11.999Z</time></trkpt><trkpt lat="42.31264596427311" lon="13.623137476170012"><ele>991.0</ele><time>2026-05-03T07:59:12.999Z</time></trkpt><trkpt lat="42.31261103026301" lon="13.62320848040508"><ele>991.0000000000001</ele><time>2026-05-03T07:59:13.999Z</time></trkpt><trkpt lat="42.3125589280158" lon="13.623266662688001"><ele>991.0000000000001</ele><time>2026-05-03T07:59:14.999Z</time></trkpt><trkpt lat="42.31250857874307" lon="13.623324272575157"><ele>991.0</ele><time>2026-05-03T07:59:15.999Z</time></trkpt><trkpt lat="42.31245395665823" lon="13.623382823430447"><ele>991.0000000000001</ele><time>2026-05-03T07:59:16.999Z</time></trkpt><trkpt lat="42.312396615171615" lon="13.623472289802748"><ele>991.0000000000001</ele><time>2026-05-03T07:59:18.999Z</time></trkpt><trkpt lat="42.31234906362626" lon="13.623601439769077"><ele>990.1999999999999</ele><time>2026-05-03T07:59:20.999Z</time></trkpt><trkpt lat="42.31227062075859" lon="13.623741329966375"><ele>989.3999999999999</ele><time>2026-05-03T07:59:22.999Z</time></trkpt><trkpt lat="42.31222833322933" lon="13.623810929727416"><ele>988.6</ele><time>2026-05-03T07:59:23.999Z</time></trkpt><trkpt lat="42.31216397904537" lon="13.623931675886537"><ele>987.8</ele><time>2026-05-03T07:59:25.999Z</time></trkpt><trkpt lat="42.31209114449577" lon="13.624074502198443"><ele>987.0</ele><time>2026-05-03T07:59:27.999Z</time></trkpt><trkpt lat="42.31204737673549" lon="13.624142481756252"><ele>988.0</ele><time>2026-05-03T07:59:28.999Z</time></trkpt><trkpt lat="42.3120063779253" lon="13.624218094962364"><ele>989.0</ele><time>2026-05-03T07:59:29.999Z</time></trkpt><trkpt lat="42.31196950040213" lon="13.624302757100905"><ele>990.0</ele><time>2026-05-03T07:59:30.999Z</time></trkpt><trkpt lat="42.31193617405982" lon="13.624375646679974"><ele>991.0</ele><time>2026-05-03T07:59:31.999Z</time></trkpt><trkpt lat="42.31189733765341" lon="13.624454901141286"><ele>992.0</ele><time>2026-05-03T07:59:32.999Z</time></trkpt><trkpt lat="42.31185863276496" lon="13.624541322760699"><ele>993.0</ele><time>2026-05-03T07:59:33.999Z</time></trkpt><trkpt lat="42.3118173709099" lon="13.624630900597506"><ele>994.0</ele><time>2026-05-03T07:59:34.999Z</time></trkpt><trkpt lat="42.31177579298562" lon="13.624722239876911"><ele>994.0</ele><time>2026-05-03T07:59:35.999Z</time></trkpt><trkpt lat="42.3117340525059" lon="13.624791136695519"><ele>994.0</ele><time>2026-05-03T07:59:36.999Z</time></trkpt><trkpt lat="42.31168053492879" lon="13.624859653414017"><ele>994.0</ele><time>2026-05-03T07:59:37.999Z</time></trkpt><trkpt lat="42.311617503804655" lon="13.624920519209608"><ele>994.0</ele><time>2026-05-03T07:59:38.999Z</time></trkpt><trkpt lat="42.311553933481854" lon="13.624982745237526"><ele>994.0</ele><time>2026-05-03T07:59:39.999Z</time></trkpt><trkpt lat="42.31149922757537" lon="13.62505204319032"><ele>994.0</ele><time>2026-05-03T07:59:40.999Z</time></trkpt><trkpt lat="42.31145043809335" lon="13.62513559921898"><ele>994.0</ele><time>2026-05-03T07:59:41.999Z</time></trkpt><trkpt lat="42.31140185332802" lon="13.625220237241875"><ele>996.9999999999999</ele><time>2026-05-03T07:59:42.999Z</time></trkpt><trkpt lat="42.31136067428884" lon="13.625295090407082"><ele>1000.0</ele><time>2026-05-03T07:59:43.999Z</time></trkpt><trkpt lat="42.31131034643233" lon="13.6253911346101"><ele>1003.0</ele><time>2026-05-03T07:59:44.999Z</time></trkpt><trkpt lat="42.311254153750646" lon="13.625479358449992"><ele>1006.0</ele><time>2026-05-03T07:59:45.999Z</time></trkpt><trkpt lat="42.31121805786677" lon="13.625580783714708"><ele>1008.9999999999999</ele><time>2026-05-03T07:59:46.999Z</time></trkpt><trkpt lat="42.31117960611102" lon="13.625666632572592"><ele>1012.0</ele><time>2026-05-03T07:59:47.999Z</time></trkpt><trkpt lat="42.311142887845335" lon="13.625742990091915"><ele>1012.0000000000001</ele><time>2026-05-03T07:59:48.999Z</time></trkpt><trkpt lat="42.311099656678586" lon="13.625830057763324"><ele>1012.0</ele><time>2026-05-03T07:59:49.999Z</time></trkpt><trkpt lat="42.31105405945445" lon="13.62591976603676"><ele>1012.0000000000001</ele><time>2026-05-03T07:59:50.999Z</time></trkpt><trkpt lat="42.3110147272837" lon="13.625994486991106"><ele>1012.0000000000001</ele><time>2026-05-03T07:59:51.999Z</time></trkpt><trkpt lat="42.31098160851348" lon="13.62607591644241"><ele>1012.0</ele><time>2026-05-03T07:59:52.999Z</time></trkpt><trkpt lat="42.31094811807256" lon="13.626158681936857"><ele>1012.0000000000001</ele><time>2026-05-03T07:59:53.999Z</time></trkpt><trkpt lat="42.31090718696673" lon="13.626253708846836"><ele>1012.0000000000001</ele><time>2026-05-03T07:59:54.999Z</time></trkpt><trkpt lat="42.31086349451233" lon="13.6263606246476"><ele>1010.5714285714287</ele><time>2026-05-03T07:59:55.999Z</time></trkpt><trkpt lat="42.31082463920887" lon="13.62645498353744"><ele>1009.1428571428571</ele><time>2026-05-03T07:59:56.999Z</time></trkpt><trkpt lat="42.310787961523374" lon="13.626532505560842"><ele>1007.7142857142858</ele><time>2026-05-03T07:59:57.999Z</time></trkpt><trkpt lat="42.31074526319613" lon="13.626596450203305"><ele>1006.2857142857143</ele><time>2026-05-03T07:59:58.999Z</time></trkpt><trkpt lat="42.31070382024517" lon="13.626670516226357"><ele>1004.8571428571429</ele><time>2026-05-03T07:59:59.999Z</time></trkpt><trkpt lat="42.31066005913544" lon="13.6267530380507"><ele>1003.4285714285714</ele><time>2026-05-03T08:00:00.999Z</time></trkpt><trkpt lat="42.31061553907115" lon="13.626830196505573"><ele>1002.0</ele><time>2026-05-03T08:00:01.999Z</time></trkpt><trkpt lat="42.3105603296907" lon="13.626902904154887"><ele>1002.7142857142858</ele><time>2026-05-03T08:00:02.999Z</time></trkpt><trkpt lat="42.31051133373258" lon="13.626974174495492"><ele>1003.4285714285713</ele><time>2026-05-03T08:00:03.999Z</time></trkpt><trkpt lat="42.31046846210619" lon="13.62705565709968"><ele>1004.1428571428571</ele><time>2026-05-03T08:00:04.999Z</time></trkpt><trkpt lat="42.310435735824676" lon="13.627143300512664"><ele>1004.8571428571429</ele><time>2026-05-03T08:00:05.999Z</time></trkpt><trkpt lat="42.310395742889725" lon="13.627232739366393"><ele>1005.5714285714287</ele><time>2026-05-03T08:00:06.999Z</time></trkpt><trkpt lat="42.310358174546145" lon="13.62732068025984"><ele>1006.2857142857142</ele><time>2026-05-03T08:00:07.999Z</time></trkpt><trkpt lat="42.310327371840756" lon="13.627409669837315"><ele>1007.0</ele><time>2026-05-03T08:00:08.999Z</time></trkpt><trkpt lat="42.31025903759892" lon="13.627552408601694"><ele>1007.0000000000001</ele><time>2026-05-03T08:00:10.999Z</time></trkpt><trkpt lat="42.31017353526896" lon="13.627663588265047"><ele>1007.0</ele><time>2026-05-03T08:00:12.999Z</time></trkpt><trkpt lat="42.31008685306759" lon="13.627760519166024"><ele>1007.0</ele><time>2026-05-03T08:00:14.999Z</time></trkpt><trkpt lat="42.310051508019114" lon="13.62783260054514"><ele>1007.0</ele><time>2026-05-03T08:00:15.999Z</time></trkpt><trkpt lat="42.31001069797913" lon="13.62791894251096"><ele>1007.0000000000001</ele><time>2026-05-03T08:00:16.999Z</time></trkpt><trkpt lat="42.30998079749665" lon="13.627998021353278"><ele>1007.0</ele><time>2026-05-03T08:00:17.999Z</time></trkpt><trkpt lat="42.309945077541634" lon="13.62807857057128"><ele>1007.8571428571429</ele><time>2026-05-03T08:00:18.999Z</time></trkpt><trkpt lat="42.3099139251558" lon="13.628160634075586"><ele>1008.7142857142858</ele><time>2026-05-03T08:00:19.999Z</time></trkpt><trkpt lat="42.30987859793966" lon="13.628246660286848"><ele>1009.5714285714287</ele><time>2026-05-03T08:00:20.999Z</time></trkpt><trkpt lat="42.30984040748557" lon="13.6283207054016"><ele>1010.4285714285714</ele><time>2026-05-03T08:00:21.999Z</time></trkpt><trkpt lat="42.30980319378886" lon="13.62839356815632"><ele>1011.2857142857144</ele><time>2026-05-03T08:00:22.999Z</time></trkpt><trkpt lat="42.309766839671504" lon="13.628471393929086"><ele>1012.1428571428572</ele><time>2026-05-03T08:00:23.999Z</time></trkpt><trkpt lat="42.309724954984596" lon="13.628556750813454"><ele>1013.0</ele><time>2026-05-03T08:00:24.999Z</time></trkpt><trkpt lat="42.30968115054385" lon="13.628643981458122"><ele>1013.0</ele><time>2026-05-03T08:00:25.999Z</time></trkpt><trkpt lat="42.309639146081594" lon="13.628730796259717"><ele>1013.0</ele><time>2026-05-03T08:00:26.999Z</time></trkpt><trkpt lat="42.30960328741678" lon="13.6288065156896"><ele>1013.0</ele><time>2026-05-03T08:00:27.999Z</time></trkpt><trkpt lat="42.309529554132794" lon="13.628941386480927"><ele>1013.0</ele><time>2026-05-03T08:00:29.999Z</time></trkpt><trkpt lat="42.30949223988574" lon="13.629115471515627"><ele>1013.0</ele><time>2026-05-03T08:00:31.999Z</time></trkpt><trkpt lat="42.30946582184676" lon="13.629194981328235"><ele>1013.0</ele><time>2026-05-03T08:00:32.999Z</time></trkpt><trkpt lat="42.30938918769764" lon="13.629332636509325"><ele>1013.0</ele><time>2026-05-03T08:00:34.999Z</time></trkpt><trkpt lat="42.30930475630166" lon="13.629449855428371"><ele>1013.0</ele><time>2026-05-03T08:00:36.999Z</time></trkpt><trkpt lat="42.30925802369003" lon="13.62951975458331"><ele>1013.0</ele><time>2026-05-03T08:00:37.999Z</time></trkpt><trkpt lat="42.30920787206762" lon="13.629600174192632"><ele>1013.0</ele><time>2026-05-03T08:00:38.999Z</time></trkpt><trkpt lat="42.30915645786887" lon="13.629681500407163"><ele>1012.5000000000001</ele><time>2026-05-03T08:00:39.999Z</time></trkpt><trkpt lat="42.30910738122573" lon="13.629765882932954"><ele>1012.0</ele><time>2026-05-03T08:00:40.999Z</time></trkpt><trkpt lat="42.30905605670716" lon="13.62983646892054"><ele>1011.5</ele><time>2026-05-03T08:00:41.999Z</time></trkpt><trkpt lat="42.30901215449155" lon="13.629907002540344"><ele>1011.0</ele><time>2026-05-03T08:00:42.999Z</time></trkpt><trkpt lat="42.30894624328698" lon="13.630019382645386"><ele>1010.5000000000001</ele><time>2026-05-03T08:00:44.999Z</time></trkpt><trkpt lat="42.30893850788523" lon="13.630104390121899"><ele>1010.0</ele><time>2026-05-03T08:00:45.999Z</time></trkpt><trkpt lat="42.308917948117035" lon="13.630212557529628"><ele>1009.8</ele><time>2026-05-03T08:00:46.999Z</time></trkpt><trkpt lat="42.30889521585286" lon="13.630317099631098"><ele>1009.6</ele><time>2026-05-03T08:00:47.999Z</time></trkpt><trkpt lat="42.308867925648" lon="13.630432660033478"><ele>1009.4000000000001</ele><time>2026-05-03T08:00:48.999Z</time></trkpt><trkpt lat="42.30884499383241" lon="13.6305254019254"><ele>1009.2</ele><time>2026-05-03T08:00:49.999Z</time></trkpt><trkpt lat="42.30883224290117" lon="13.630681530814003"><ele>1009.0</ele><time>2026-05-03T08:00:51.999Z</time></trkpt><trkpt lat="42.308857195619645" lon="13.630820024512975"><ele>1009.0</ele><time>2026-05-03T08:00:53.999Z</time></trkpt><trkpt lat="42.3088929787055" lon="13.630972161508573"><ele>1009.0000000000001</ele><time>2026-05-03T08:00:55.999Z</time></trkpt><trkpt lat="42.30891400635695" lon="13.631056426775434"><ele>1009.0000000000001</ele><time>2026-05-03T08:00:56.999Z</time></trkpt><trkpt lat="42.308942351738715" lon="13.63113442120267"><ele>1009.0</ele><time>2026-05-03T08:00:57.999Z</time></trkpt><trkpt lat="42.308937582981606" lon="13.631260266853772"><ele>1009.0</ele><time>2026-05-03T08:00:59.999Z</time></trkpt><trkpt lat="42.30888063749714" lon="13.631404414148577"><ele>1007.5714285714287</ele><time>2026-05-03T08:01:01.999Z</time></trkpt><trkpt lat="42.30885093548482" lon="13.63150326409182"><ele>1006.1428571428571</ele><time>2026-05-03T08:01:02.999Z</time></trkpt><trkpt lat="42.308818745218346" lon="13.631597764259805"><ele>1004.7142857142858</ele><time>2026-05-03T08:01:03.999Z</time></trkpt><trkpt lat="42.30880488711695" lon="13.631687823960554"><ele>1003.2857142857143</ele><time>2026-05-03T08:01:04.999Z</time></trkpt><trkpt lat="42.3087892487753" lon="13.631778615936932"><ele>1001.8571428571429</ele><time>2026-05-03T08:01:05.999Z</time></trkpt><trkpt lat="42.30877155303493" lon="13.631877755971894"><ele>1000.4285714285714</ele><time>2026-05-03T08:01:06.999Z</time></trkpt><trkpt lat="42.30874936168413" lon="13.63196356466578"><ele>999.0</ele><time>2026-05-03T08:01:07.999Z</time></trkpt><trkpt lat="42.3087190492424" lon="13.632048052468395"><ele>998.7142857142858</ele><time>2026-05-03T08:01:08.999Z</time></trkpt><trkpt lat="42.30869055667206" lon="13.632129414274749"><ele>998.4285714285716</ele><time>2026-05-03T08:01:09.999Z</time></trkpt><trkpt lat="42.30865939104844" lon="13.63221783198095"><ele>998.1428571428571</ele><time>2026-05-03T08:01:10.999Z</time></trkpt><trkpt lat="42.30862860398851" lon="13.632302498476651"><ele>997.8571428571429</ele><time>2026-05-03T08:01:11.999Z</time></trkpt><trkpt lat="42.30859090838127" lon="13.632381052739913"><ele>997.5714285714286</ele><time>2026-05-03T08:01:12.999Z</time></trkpt><trkpt lat="42.3085548680748" lon="13.632468012610074"><ele>997.2857142857142</ele><time>2026-05-03T08:01:13.999Z</time></trkpt><trkpt lat="42.30850584836709" lon="13.632555386899284"><ele>996.9999999999999</ele><time>2026-05-03T08:01:14.999Z</time></trkpt><trkpt lat="42.30845598860826" lon="13.632649941766434"><ele>996.9999999999999</ele><time>2026-05-03T08:01:15.999Z</time></trkpt><trkpt lat="42.30840275687269" lon="13.632745837288807"><ele>997.0</ele><time>2026-05-03T08:01:16.999Z</time></trkpt><trkpt lat="42.308362440968075" lon="13.632839243867263"><ele>997.0</ele><time>2026-05-03T08:01:17.999Z</time></trkpt><trkpt lat="42.30831793001762" lon="13.632922022628968"><ele>997.0</ele><time>2026-05-03T08:01:18.999Z</time></trkpt><trkpt lat="42.30827333908002" lon="13.633017082786907"><ele>996.9999999999999</ele><time>2026-05-03T08:01:19.999Z</time></trkpt><trkpt lat="42.30821889585737" lon="13.633125535416381"><ele>997.0</ele><time>2026-05-03T08:01:20.999Z</time></trkpt><trkpt lat="42.308170903183026" lon="13.633234154711266"><ele>997.3333333333333</ele><time>2026-05-03T08:01:21.999Z</time></trkpt><trkpt lat="42.308121809769396" lon="13.633331596737971"><ele>997.6666666666666</ele><time>2026-05-03T08:01:22.999Z</time></trkpt><trkpt lat="42.308075743014946" lon="13.63345359597128"><ele>998.0</ele><time>2026-05-03T08:01:23.999Z</time></trkpt><trkpt lat="42.30802013480043" lon="13.633553489484852"><ele>998.3333333333333</ele><time>2026-05-03T08:01:24.999Z</time></trkpt><trkpt lat="42.307977426262504" lon="13.63364464137634"><ele>998.6666666666666</ele><time>2026-05-03T08:01:25.999Z</time></trkpt><trkpt lat="42.30795291512439" lon="13.63372404284335"><ele>999.0</ele><time>2026-05-03T08:01:26.999Z</time></trkpt><trkpt lat="42.307903881092585" lon="13.633868290957919"><ele>996.8000000000001</ele><time>2026-05-03T08:01:28.999Z</time></trkpt><trkpt lat="42.307798711812886" lon="13.633983777124229"><ele>994.6000000000001</ele><time>2026-05-03T08:01:30.999Z</time></trkpt><trkpt lat="42.30773341681892" lon="13.63400159607111"><ele>992.4</ele><time>2026-05-03T08:01:31.999Z</time></trkpt><trkpt lat="42.307670417413384" lon="13.634027404395109"><ele>990.2</ele><time>2026-05-03T08:01:32.999Z</time></trkpt><trkpt lat="42.30757092505692" lon="13.634108912776583"><ele>988.0</ele><time>2026-05-03T08:01:34.999Z</time></trkpt><trkpt lat="42.30748554944453" lon="13.634251589220135"><ele>988.0</ele><time>2026-05-03T08:01:36.999Z</time></trkpt><trkpt lat="42.307421528247296" lon="13.63436395585282"><ele>988.0</ele><time>2026-05-03T08:01:37.999Z</time></trkpt><trkpt lat="42.30735762445215" lon="13.634447952869921"><ele>988.0</ele><time>2026-05-03T08:01:38.999Z</time></trkpt><trkpt lat="42.3072915786917" lon="13.634538000434771"><ele>988.0</ele><time>2026-05-03T08:01:39.999Z</time></trkpt><trkpt lat="42.30723001638838" lon="13.634631973804924"><ele>988.0</ele><time>2026-05-03T08:01:40.999Z</time></trkpt><trkpt lat="42.30716377854688" lon="13.634737285032177"><ele>987.25</ele><time>2026-05-03T08:01:41.999Z</time></trkpt><trkpt lat="42.30709908627393" lon="13.634857303588824"><ele>986.5</ele><time>2026-05-03T08:01:42.999Z</time></trkpt><trkpt lat="42.30703612802484" lon="13.634985294318058"><ele>985.75</ele><time>2026-05-03T08:01:43.999Z</time></trkpt><trkpt lat="42.306983804848485" lon="13.635119439231682"><ele>985.0</ele><time>2026-05-03T08:01:44.999Z</time></trkpt><trkpt lat="42.30691688761074" lon="13.635253441312885"><ele>984.2</ele><time>2026-05-03T08:01:45.999Z</time></trkpt><trkpt lat="42.3068513695749" lon="13.63538981050208"><ele>983.4</ele><time>2026-05-03T08:01:46.999Z</time></trkpt><trkpt lat="42.30678533357222" lon="13.63550878949098"><ele>982.5999999999999</ele><time>2026-05-03T08:01:47.999Z</time></trkpt><trkpt lat="42.306724549597924" lon="13.635617310967575"><ele>981.8</ele><time>2026-05-03T08:01:48.999Z</time></trkpt><trkpt lat="42.30666617231777" lon="13.635713052546194"><ele>981.0</ele><time>2026-05-03T08:01:49.999Z</time></trkpt><trkpt lat="42.3066126455675" lon="13.635796028853933"><ele>981.0</ele><time>2026-05-03T08:01:50.999Z</time></trkpt><trkpt lat="42.306567502478515" lon="13.635879542914186"><ele>981.0</ele><time>2026-05-03T08:01:51.999Z</time></trkpt><trkpt lat="42.306529605765796" lon="13.635972854226637"><ele>981.0</ele><time>2026-05-03T08:01:52.999Z</time></trkpt><trkpt lat="42.306485642595234" lon="13.636071070723354"><ele>981.0</ele><time>2026-05-03T08:01:53.999Z</time></trkpt><trkpt lat="42.30642964383434" lon="13.636175474452306"><ele>981.0</ele><time>2026-05-03T08:01:54.999Z</time></trkpt><trkpt lat="42.306372947885606" lon="13.636286171211776"><ele>981.0</ele><time>2026-05-03T08:01:55.999Z</time></trkpt><trkpt lat="42.3063252291877" lon="13.636392758248892"><ele>980.4</ele><time>2026-05-03T08:01:56.999Z</time></trkpt><trkpt lat="42.30627879287945" lon="13.63650285986895"><ele>979.8</ele><time>2026-05-03T08:01:57.999Z</time></trkpt><trkpt lat="42.30624589311991" lon="13.63660743107878"><ele>979.1999999999999</ele><time>2026-05-03T08:01:58.999Z</time></trkpt><trkpt lat="42.30621537298395" lon="13.636718922462752"><ele>978.5999999999999</ele><time>2026-05-03T08:01:59.999Z</time></trkpt><trkpt lat="42.30618656741476" lon="13.636835032430117"><ele>978.0</ele><time>2026-05-03T08:02:00.999Z</time></trkpt><trkpt lat="42.30614939360219" lon="13.636951782427014"><ele>977.0</ele><time>2026-05-03T08:02:01.999Z</time></trkpt><trkpt lat="42.30610865778542" lon="13.637071080880403"><ele>976.0</ele><time>2026-05-03T08:02:02.999Z</time></trkpt><trkpt lat="42.30607299148029" lon="13.637195378575212"><ele>975.0</ele><time>2026-05-03T08:02:03.999Z</time></trkpt><trkpt lat="42.3060410704883" lon="13.637313049786071"><ele>974.0</ele><time>2026-05-03T08:02:04.999Z</time></trkpt><trkpt lat="42.3060148349882" lon="13.63740909716271"><ele>973.0</ele><time>2026-05-03T08:02:05.999Z</time></trkpt><trkpt lat="42.30598608424066" lon="13.637526087772853"><ele>972.9999999999999</ele><time>2026-05-03T08:02:06.999Z</time></trkpt><trkpt lat="42.30595515927066" lon="13.637625933888936"><ele>973.0</ele><time>2026-05-03T08:02:07.999Z</time></trkpt><trkpt lat="42.30591938361994" lon="13.637727921038916"><ele>973.0</ele><time>2026-05-03T08:02:08.999Z</time></trkpt><trkpt lat="42.30588724079638" lon="13.63783827355573"><ele>973.0</ele><time>2026-05-03T08:02:09.999Z</time></trkpt><trkpt lat="42.305861294349555" lon="13.637941083043915"><ele>972.9999999999999</ele><time>2026-05-03T08:02:10.999Z</time></trkpt><trkpt lat="42.30583654011651" lon="13.638035836741384"><ele>973.0</ele><time>2026-05-03T08:02:11.999Z</time></trkpt><trkpt lat="42.30581970855556" lon="13.638134114368572"><ele>972.4285714285714</ele><time>2026-05-03T08:02:12.999Z</time></trkpt><trkpt lat="42.30581679489587" lon="13.638231759791356"><ele>971.8571428571429</ele><time>2026-05-03T08:02:13.999Z</time></trkpt><trkpt lat="42.30581235292905" lon="13.638324311448438"><ele>971.2857142857142</ele><time>2026-05-03T08:02:14.999Z</time></trkpt><trkpt lat="42.30580158450047" lon="13.638409359251396"><ele>970.7142857142857</ele><time>2026-05-03T08:02:15.999Z</time></trkpt><trkpt lat="42.30577936310921" lon="13.638492931416897"><ele>970.1428571428571</ele><time>2026-05-03T08:02:16.999Z</time></trkpt><trkpt lat="42.30573791504455" lon="13.638573267243268"><ele>969.5714285714284</ele><time>2026-05-03T08:02:17.999Z</time></trkpt><trkpt lat="42.305690094636354" lon="13.63864826999902"><ele>968.9999999999999</ele><time>2026-05-03T08:02:18.999Z</time></trkpt><trkpt lat="42.3056641041272" lon="13.638725998287699"><ele>968.8333333333334</ele><time>2026-05-03T08:02:19.999Z</time></trkpt><trkpt lat="42.30565041032117" lon="13.638818467259187"><ele>968.6666666666667</ele><time>2026-05-03T08:02:20.999Z</time></trkpt><trkpt lat="42.30563934091165" lon="13.638907838361883"><ele>968.5</ele><time>2026-05-03T08:02:21.999Z</time></trkpt><trkpt lat="42.30563155853134" lon="13.638996050145717"><ele>968.3333333333334</ele><time>2026-05-03T08:02:22.999Z</time></trkpt><trkpt lat="42.305618859860395" lon="13.63907957107139"><ele>968.1666666666667</ele><time>2026-05-03T08:02:23.999Z</time></trkpt><trkpt lat="42.305565047808585" lon="13.639236700873925"><ele>968.0</ele><time>2026-05-03T08:02:25.999Z</time></trkpt><trkpt lat="42.30552015664348" lon="13.639309824386899"><ele>968.0</ele><time>2026-05-03T08:02:26.999Z</time></trkpt><trkpt lat="42.30545253787313" lon="13.639448701223014"><ele>968.0</ele><time>2026-05-03T08:02:29Z</time></trkpt><trkpt lat="42.305394663396754" lon="13.639594725195467"><ele>968.0</ele><time>2026-05-03T08:02:31Z</time></trkpt><trkpt lat="42.30535901213004" lon="13.639759470284254"><ele>968.0</ele><time>2026-05-03T08:02:33Z</time></trkpt><trkpt lat="42.30533337858673" lon="13.63984573056225"><ele>968.0</ele><time>2026-05-03T08:02:34Z</time></trkpt><trkpt lat="42.30530531901797" lon="13.639929408679645"><ele>965.6666666666667</ele><time>2026-05-03T08:02:35Z</time></trkpt><trkpt lat="42.30527577505112" lon="13.640008758942788"><ele>963.3333333333334</ele><time>2026-05-03T08:02:36Z</time></trkpt><trkpt lat="42.30525411953304" lon="13.640093994071485"><ele>961.0</ele><time>2026-05-03T08:02:37Z</time></trkpt><trkpt lat="42.30523847318148" lon="13.640185889438442"><ele>958.6666666666667</ele><time>2026-05-03T08:02:38Z</time></trkpt><trkpt lat="42.30522518394098" lon="13.640271551252832"><ele>956.3333333333334</ele><time>2026-05-03T08:02:39Z</time></trkpt><trkpt lat="42.30520889517849" lon="13.640355052503736"><ele>954.0</ele><time>2026-05-03T08:02:40Z</time></trkpt><trkpt lat="42.305159069267816" lon="13.64051382324433"><ele>951.6</ele><time>2026-05-03T08:02:42Z</time></trkpt><trkpt lat="42.305128571675674" lon="13.640591746244368"><ele>949.2</ele><time>2026-05-03T08:02:43Z</time></trkpt><trkpt lat="42.305093222642505" lon="13.640664085525367"><ele>946.8000000000001</ele><time>2026-05-03T08:02:44Z</time></trkpt><trkpt lat="42.30501378778357" lon="13.640785074466944"><ele>944.4000000000001</ele><time>2026-05-03T08:02:46Z</time></trkpt><trkpt lat="42.3049610300807" lon="13.640923546270136"><ele>942.0</ele><time>2026-05-03T08:02:48Z</time></trkpt><trkpt lat="42.30497718558039" lon="13.6410831659584"><ele>940.6</ele><time>2026-05-03T08:02:50Z</time></trkpt><trkpt lat="42.30497127790767" lon="13.641181253530549"><ele>939.2</ele><time>2026-05-03T08:02:51Z</time></trkpt><trkpt lat="42.30495787902063" lon="13.641341635117291"><ele>937.8</ele><time>2026-05-03T08:02:53Z</time></trkpt><trkpt lat="42.30489120608208" lon="13.641486178672611"><ele>936.4</ele><time>2026-05-03T08:02:55Z</time></trkpt><trkpt lat="42.304854355120355" lon="13.641635975957996"><ele>935.0</ele><time>2026-05-03T08:02:57Z</time></trkpt><trkpt lat="42.30482653305377" lon="13.641793929201443"><ele>935.0</ele><time>2026-05-03T08:02:59Z</time></trkpt><trkpt lat="42.30480473537023" lon="13.641941988328194"><ele>935.0</ele><time>2026-05-03T08:03:01Z</time></trkpt><trkpt lat="42.30475876355995" lon="13.642065546817456"><ele>935.0</ele><time>2026-05-03T08:03:03Z</time></trkpt><trkpt lat="42.304673988604755" lon="13.64214145134248"><ele>935.0</ele><time>2026-05-03T08:03:05Z</time></trkpt><trkpt lat="42.3045690188461" lon="13.642245527434259"><ele>935.0</ele><time>2026-05-03T08:03:07Z</time></trkpt><trkpt lat="42.30447786119829" lon="13.642363920269064"><ele>933.0000000000001</ele><time>2026-05-03T08:03:09Z</time></trkpt><trkpt lat="42.30442672000277" lon="13.642439784298016"><ele>931.0</ele><time>2026-05-03T08:03:10Z</time></trkpt><trkpt lat="42.30437564843155" lon="13.642522915377768"><ele>929.0</ele><time>2026-05-03T08:03:11Z</time></trkpt><trkpt lat="42.30432760097322" lon="13.642591686973658"><ele>927.0</ele><time>2026-05-03T08:03:12Z</time></trkpt><trkpt lat="42.304284405152444" lon="13.642655133340584"><ele>925.0000000000001</ele><time>2026-05-03T08:03:13Z</time></trkpt><trkpt lat="42.304199532434424" lon="13.642773964242817"><ele>923.0</ele><time>2026-05-03T08:03:15Z</time></trkpt><trkpt lat="42.30409568588832" lon="13.642833615358652"><ele>923.0000000000001</ele><time>2026-05-03T08:03:17Z</time></trkpt><trkpt lat="42.304014555814454" lon="13.642847772063524"><ele>923.0</ele><time>2026-05-03T08:03:19Z</time></trkpt><trkpt lat="42.303938184788336" lon="13.642830462499173"><ele>923.0</ele><time>2026-05-03T08:03:21Z</time></trkpt><trkpt lat="42.30386409941451" lon="13.642753552470765"><ele>923.0</ele><time>2026-05-03T08:03:23Z</time></trkpt><trkpt lat="42.30379465500266" lon="13.642720993902804"><ele>923.0000000000001</ele><time>2026-05-03T08:03:27Z</time></trkpt><trkpt lat="42.30384506798958" lon="13.642789579061509"><ele>923.0</ele><time>2026-05-03T08:03:36Z</time></trkpt><trkpt lat="42.30389480662233" lon="13.642847756274444"><ele>919.8</ele><time>2026-05-03T08:03:39Z</time></trkpt><trkpt lat="42.30380153447746" lon="13.642908272434083"><ele>916.5999999999999</ele><time>2026-05-03T08:03:43Z</time></trkpt><trkpt lat="42.30371121036259" lon="13.64296062821117"><ele>913.4000000000001</ele><time>2026-05-03T08:03:45Z</time></trkpt><trkpt lat="42.30362573755364" lon="13.642985288831838"><ele>910.2</ele><time>2026-05-03T08:03:47Z</time></trkpt><trkpt lat="42.30354725588654" lon="13.643004544169392"><ele>907.0</ele><time>2026-05-03T08:04:24Z</time></trkpt><trkpt lat="42.303463512022944" lon="13.643028981664127"><ele>906.9999999999999</ele><time>2026-05-03T08:04:27Z</time></trkpt><trkpt lat="42.303386360143975" lon="13.643036456243133"><ele>907.0</ele><time>2026-05-03T08:04:29Z</time></trkpt><trkpt lat="42.30330337945395" lon="13.643061405088648"><ele>907.0</ele><time>2026-05-03T08:04:31Z</time></trkpt><trkpt lat="42.30321064474079" lon="13.643093183450835"><ele>907.0</ele><time>2026-05-03T08:04:33Z</time></trkpt><trkpt lat="42.30313664934776" lon="13.643119148739641"><ele>906.9999999999999</ele><time>2026-05-03T08:04:35Z</time></trkpt><trkpt lat="42.30306411795074" lon="13.643144600315594"><ele>907.0</ele><time>2026-05-03T08:04:37Z</time></trkpt><trkpt lat="42.30296390101573" lon="13.643175775676387"><ele>903.8</ele><time>2026-05-03T08:04:40Z</time></trkpt><trkpt lat="42.302889434458955" lon="13.643184693368648"><ele>900.6</ele><time>2026-05-03T08:04:42Z</time></trkpt><trkpt lat="42.30280537345529" lon="13.643182481280144"><ele>897.3999999999999</ele><time>2026-05-03T08:04:44Z</time></trkpt><trkpt lat="42.302696615906015" lon="13.643162951709146"><ele>894.1999999999999</ele><time>2026-05-03T08:04:46Z</time></trkpt><trkpt lat="42.30259323240807" lon="13.643125663451528"><ele>891.0</ele><time>2026-05-03T08:04:48Z</time></trkpt><trkpt lat="42.302489983171974" lon="13.643117241045058"><ele>891.0</ele><time>2026-05-03T08:04:50Z</time></trkpt><trkpt lat="42.30238907262724" lon="13.64308095053566"><ele>890.9999999999999</ele><time>2026-05-03T08:04:52Z</time></trkpt><trkpt lat="42.30230335613378" lon="13.643082287537647"><ele>890.9999999999999</ele><time>2026-05-03T08:04:54Z</time></trkpt><trkpt lat="42.30220682564616" lon="13.643124684179693"><ele>891.0</ele><time>2026-05-03T08:04:56Z</time></trkpt><trkpt lat="42.30211567349229" lon="13.64318211456505"><ele>891.0</ele><time>2026-05-03T08:04:58Z</time></trkpt><trkpt lat="42.30201368251175" lon="13.643249900393846"><ele>889.3333333333334</ele><time>2026-05-03T08:05:00Z</time></trkpt><trkpt lat="42.301897637042984" lon="13.643315547163695"><ele>887.6666666666667</ele><time>2026-05-03T08:05:02Z</time></trkpt><trkpt lat="42.30183063522197" lon="13.643327172935706"><ele>886.0</ele><time>2026-05-03T08:05:03Z</time></trkpt><trkpt lat="42.30176472847689" lon="13.643319700080077"><ele>884.3333333333334</ele><time>2026-05-03T08:05:04Z</time></trkpt><trkpt lat="42.30169007809361" lon="13.643350884964544"><ele>882.6666666666667</ele><time>2026-05-03T08:05:05Z</time></trkpt><trkpt lat="42.30161830260321" lon="13.643374715948637"><ele>881.0</ele><time>2026-05-03T08:05:06Z</time></trkpt><trkpt lat="42.30154341591775" lon="13.643395370854167"><ele>881.0</ele><time>2026-05-03T08:05:07Z</time></trkpt><trkpt lat="42.301417594890665" lon="13.643412343009397"><ele>880.9999999999999</ele><time>2026-05-03T08:05:09Z</time></trkpt><trkpt lat="42.301355115214726" lon="13.643453555707602"><ele>880.9999999999999</ele><time>2026-05-03T08:05:10Z</time></trkpt><trkpt lat="42.301288041378" lon="13.643463523721133"><ele>881.0</ele><time>2026-05-03T08:05:11Z</time></trkpt><trkpt lat="42.30117186924068" lon="13.643511547706316"><ele>881.0</ele><time>2026-05-03T08:05:13Z</time></trkpt><trkpt lat="42.301055385491125" lon="13.643574696725448"><ele>879.8333333333334</ele><time>2026-05-03T08:05:15Z</time></trkpt><trkpt lat="42.30097794803375" lon="13.643588159059146"><ele>878.6666666666667</ele><time>2026-05-03T08:05:16Z</time></trkpt><trkpt lat="42.300894694498304" lon="13.643621049559268"><ele>877.5</ele><time>2026-05-03T08:05:17Z</time></trkpt><trkpt lat="42.300814182657106" lon="13.643676202478995"><ele>876.3333333333333</ele><time>2026-05-03T08:05:18Z</time></trkpt><trkpt lat="42.300739611739424" lon="13.643701103631743"><ele>875.1666666666666</ele><time>2026-05-03T08:05:19Z</time></trkpt><trkpt lat="42.300663921427564" lon="13.643711703283964"><ele>874.0</ele><time>2026-05-03T08:05:20Z</time></trkpt><trkpt lat="42.300595898280875" lon="13.643737668165198"><ele>872.7142857142857</ele><time>2026-05-03T08:05:21Z</time></trkpt><trkpt lat="42.30053043101809" lon="13.643762657465546"><ele>871.4285714285714</ele><time>2026-05-03T08:05:22Z</time></trkpt><trkpt lat="42.30046068271631" lon="13.643789280870378"><ele>870.1428571428571</ele><time>2026-05-03T08:05:23Z</time></trkpt><trkpt lat="42.300398719521624" lon="13.643811744927607"><ele>868.8571428571429</ele><time>2026-05-03T08:05:24Z</time></trkpt><trkpt lat="42.300326236205116" lon="13.643851611699295"><ele>867.5714285714287</ele><time>2026-05-03T08:05:25Z</time></trkpt><trkpt lat="42.300256880367115" lon="13.643866819376225"><ele>866.2857142857143</ele><time>2026-05-03T08:05:26Z</time></trkpt><trkpt lat="42.30019009364363" lon="13.643854126090712"><ele>865.0</ele><time>2026-05-03T08:05:27Z</time></trkpt><trkpt lat="42.30012469591461" lon="13.643865039345199"><ele>864.9999999999999</ele><time>2026-05-03T08:05:28Z</time></trkpt><trkpt lat="42.30005446765629" lon="13.643873179644295"><ele>865.0</ele><time>2026-05-03T08:05:29Z</time></trkpt><trkpt lat="42.29997541690822" lon="13.643864343420821"><ele>865.0</ele><time>2026-05-03T08:05:30Z</time></trkpt><trkpt lat="42.29989856635257" lon="13.643842183842612"><ele>865.0</ele><time>2026-05-03T08:05:31Z</time></trkpt><trkpt lat="42.29982949894183" lon="13.64383489641417"><ele>864.9999999999999</ele><time>2026-05-03T08:05:32Z</time></trkpt><trkpt lat="42.299718446028024" lon="13.643818354842248"><ele>865.0</ele><time>2026-05-03T08:05:34Z</time></trkpt><trkpt lat="42.29961655683736" lon="13.643736078067189"><ele>864.2</ele><time>2026-05-03T08:05:36Z</time></trkpt><trkpt lat="42.299524590235634" lon="13.643675223025067"><ele>863.4</ele><time>2026-05-03T08:05:37Z</time></trkpt><trkpt lat="42.29943713133121" lon="13.643592732481089"><ele>862.5999999999999</ele><time>2026-05-03T08:05:38Z</time></trkpt><trkpt lat="42.29934093810009" lon="13.643507885360618"><ele>861.8</ele><time>2026-05-03T08:05:39Z</time></trkpt><trkpt lat="42.29924130334767" lon="13.643422269172811"><ele>861.0</ele><time>2026-05-03T08:05:40Z</time></trkpt><trkpt lat="42.299136391799344" lon="13.643328463185151"><ele>859.75</ele><time>2026-05-03T08:05:41Z</time></trkpt><trkpt lat="42.29903040852858" lon="13.643227633308204"><ele>858.5</ele><time>2026-05-03T08:05:42Z</time></trkpt><trkpt lat="42.29892317626835" lon="13.643126521196942"><ele>857.25</ele><time>2026-05-03T08:05:43Z</time></trkpt><trkpt lat="42.29882255887643" lon="13.643027217286539"><ele>856.0</ele><time>2026-05-03T08:05:44Z</time></trkpt><trkpt lat="42.298726697084845" lon="13.642924170391316"><ele>854.25</ele><time>2026-05-03T08:05:45Z</time></trkpt><trkpt lat="42.29864342294588" lon="13.642805736099548"><ele>852.5</ele><time>2026-05-03T08:05:46Z</time></trkpt><trkpt lat="42.29855835360003" lon="13.642685135685953"><ele>850.75</ele><time>2026-05-03T08:05:47Z</time></trkpt><trkpt lat="42.29848136111149" lon="13.642555296038385"><ele>849.0</ele><time>2026-05-03T08:05:48Z</time></trkpt><trkpt lat="42.2984020151309" lon="13.642421674216399"><ele>847.5</ele><time>2026-05-03T08:05:49Z</time></trkpt><trkpt lat="42.298316928763676" lon="13.642290577734638"><ele>846.0</ele><time>2026-05-03T08:05:50Z</time></trkpt><trkpt lat="42.29822761961556" lon="13.642164881995521"><ele>844.5</ele><time>2026-05-03T08:05:51Z</time></trkpt><trkpt lat="42.298138137728735" lon="13.642036548467335"><ele>843.0</ele><time>2026-05-03T08:05:52Z</time></trkpt><trkpt lat="42.29804759793047" lon="13.641911415064676"><ele>840.5999999999999</ele><time>2026-05-03T08:05:53Z</time></trkpt><trkpt lat="42.297961358979634" lon="13.641799943020832"><ele>838.1999999999999</ele><time>2026-05-03T08:05:54Z</time></trkpt><trkpt lat="42.297894164450895" lon="13.641710262524471"><ele>835.8</ele><time>2026-05-03T08:05:55Z</time></trkpt><trkpt lat="42.29786206218493" lon="13.641628543249068"><ele>833.4</ele><time>2026-05-03T08:05:56Z</time></trkpt><trkpt lat="42.297823618173396" lon="13.641549130947837"><ele>831.0</ele><time>2026-05-03T08:05:58Z</time></trkpt><trkpt lat="42.29774141332131" lon="13.641472336949922"><ele>831.0</ele><time>2026-05-03T08:06:02Z</time></trkpt><trkpt lat="42.297480246796184" lon="13.641643156910067"><ele>831.0</ele><time>2026-05-03T08:06:03Z</time></trkpt><trkpt lat="42.29740597667236" lon="13.641638516379624"><ele>831.0</ele><time>2026-05-03T08:06:04Z</time></trkpt><trkpt lat="42.29733392737067" lon="13.641642615568268"><ele>831.0</ele><time>2026-05-03T08:06:05Z</time></trkpt><trkpt lat="42.297269635973166" lon="13.64163933598471"><ele>829.7142857142857</ele><time>2026-05-03T08:06:06Z</time></trkpt><trkpt lat="42.29720229589613" lon="13.641633531229232"><ele>828.4285714285714</ele><time>2026-05-03T08:06:07Z</time></trkpt><trkpt lat="42.29713579555386" lon="13.641614380713069"><ele>827.1428571428571</ele><time>2026-05-03T08:06:08Z</time></trkpt><trkpt lat="42.29706616708332" lon="13.641597436060538"><ele>825.8571428571429</ele><time>2026-05-03T08:06:09Z</time></trkpt><trkpt lat="42.296989563745555" lon="13.641584019248771"><ele>824.5714285714286</ele><time>2026-05-03T08:06:10Z</time></trkpt><trkpt lat="42.29691429844395" lon="13.641569733821036"><ele>823.2857142857142</ele><time>2026-05-03T08:06:11Z</time></trkpt><trkpt lat="42.29684455692993" lon="13.641554125299399"><ele>822.0</ele><time>2026-05-03T08:06:12Z</time></trkpt><trkpt lat="42.296783148993725" lon="13.641531864348224"><ele>822.0</ele><time>2026-05-03T08:06:13Z</time></trkpt><trkpt lat="42.29666432109307" lon="13.64153200245814"><ele>822.0</ele><time>2026-05-03T08:06:15Z</time></trkpt><trkpt lat="42.29660236801322" lon="13.641551113293165"><ele>822.0</ele><time>2026-05-03T08:06:16Z</time></trkpt><trkpt lat="42.29652892502773" lon="13.641571460449416"><ele>822.0</ele><time>2026-05-03T08:06:17Z</time></trkpt><trkpt lat="42.29645461932846" lon="13.641579492619911"><ele>822.0</ele><time>2026-05-03T08:06:18Z</time></trkpt><trkpt lat="42.29637961335193" lon="13.64157293924444"><ele>822.0</ele><time>2026-05-03T08:06:19Z</time></trkpt><trkpt lat="42.29630781800403" lon="13.641560929993435"><ele>820.7142857142857</ele><time>2026-05-03T08:06:20Z</time></trkpt><trkpt lat="42.2962394375708" lon="13.641551830649991"><ele>819.4285714285713</ele><time>2026-05-03T08:06:21Z</time></trkpt><trkpt lat="42.29616767706876" lon="13.641536084539078"><ele>818.1428571428571</ele><time>2026-05-03T08:06:22Z</time></trkpt><trkpt lat="42.29609867617281" lon="13.641511164216134"><ele>816.8571428571429</ele><time>2026-05-03T08:06:23Z</time></trkpt><trkpt lat="42.29603563802581" lon="13.641483864157557"><ele>815.5714285714286</ele><time>2026-05-03T08:06:24Z</time></trkpt><trkpt lat="42.295974062132885" lon="13.64144958667525"><ele>814.2857142857143</ele><time>2026-05-03T08:06:25Z</time></trkpt><trkpt lat="42.29591463162661" lon="13.641410234546367"><ele>813.0</ele><time>2026-05-03T08:06:26Z</time></trkpt><trkpt lat="42.29585479792477" lon="13.641371981574036"><ele>813.0</ele><time>2026-05-03T08:06:27Z</time></trkpt><trkpt lat="42.2957830354978" lon="13.64133815566603"><ele>813.0</ele><time>2026-05-03T08:06:28Z</time></trkpt><trkpt lat="42.295709766816024" lon="13.641320503610833"><ele>813.0</ele><time>2026-05-03T08:06:29Z</time></trkpt><trkpt lat="42.295627594603666" lon="13.641306861410374"><ele>813.0</ele><time>2026-05-03T08:06:30Z</time></trkpt><trkpt lat="42.29554319708814" lon="13.641301084472603"><ele>813.0</ele><time>2026-05-03T08:06:31Z</time></trkpt><trkpt lat="42.29546884249675" lon="13.641295743043676"><ele>813.0</ele><time>2026-05-03T08:06:32Z</time></trkpt><trkpt lat="42.29539352045448" lon="13.641289232264402"><ele>811.5</ele><time>2026-05-03T08:06:33Z</time></trkpt><trkpt lat="42.295312343010885" lon="13.641279251713806"><ele>810.0</ele><time>2026-05-03T08:06:34Z</time></trkpt><trkpt lat="42.295230610164964" lon="13.641264477846617"><ele>808.5</ele><time>2026-05-03T08:06:35Z</time></trkpt><trkpt lat="42.29515028361" lon="13.641257173820796"><ele>807.0</ele><time>2026-05-03T08:06:36Z</time></trkpt><trkpt lat="42.295066550134386" lon="13.641254322842459"><ele>805.5</ele><time>2026-05-03T08:06:37Z</time></trkpt><trkpt lat="42.29498884976677" lon="13.641257908337803"><ele>804.0</ele><time>2026-05-03T08:06:38Z</time></trkpt><trkpt lat="42.29491802823883" lon="13.641262220796891"><ele>804.0</ele><time>2026-05-03T08:06:39Z</time></trkpt><trkpt lat="42.29485406512035" lon="13.641267464276224"><ele>804.0</ele><time>2026-05-03T08:06:40Z</time></trkpt><trkpt lat="42.29478981592866" lon="13.641255344748352"><ele>804.0</ele><time>2026-05-03T08:06:41Z</time></trkpt><trkpt lat="42.294726724326765" lon="13.641236094908614"><ele>804.0</ele><time>2026-05-03T08:06:42Z</time></trkpt><trkpt lat="42.29466664380444" lon="13.641210053668027"><ele>804.0</ele><time>2026-05-03T08:06:43Z</time></trkpt><trkpt lat="42.29460380850457" lon="13.641175941051705"><ele>804.0</ele><time>2026-05-03T08:06:44Z</time></trkpt><trkpt lat="42.29454624439554" lon="13.641139081868412"><ele>804.0</ele><time>2026-05-03T08:06:45Z</time></trkpt><trkpt lat="42.2944556949364" lon="13.641095423107444"><ele>802.8000000000001</ele><time>2026-05-03T08:06:47Z</time></trkpt><trkpt lat="42.294374625566086" lon="13.641095552403057"><ele>801.6</ele><time>2026-05-03T08:06:50Z</time></trkpt><trkpt lat="42.294293099639994" lon="13.641176785772668"><ele>800.4</ele><time>2026-05-03T08:06:52Z</time></trkpt><trkpt lat="42.294215996890244" lon="13.641269656303454"><ele>799.2</ele><time>2026-05-03T08:06:53Z</time></trkpt><trkpt lat="42.2941171896991" lon="13.64138196596244"><ele>798.0</ele><time>2026-05-03T08:06:54Z</time></trkpt><trkpt lat="42.294007298774886" lon="13.64149179898556"><ele>798.0</ele><time>2026-05-03T08:06:55Z</time></trkpt><trkpt lat="42.29390295822428" lon="13.641612010436205"><ele>798.0</ele><time>2026-05-03T08:06:56Z</time></trkpt><trkpt lat="42.293813581547894" lon="13.641757157054663"><ele>798.0</ele><time>2026-05-03T08:06:57Z</time></trkpt><trkpt lat="42.293734748967296" lon="13.641900894146511"><ele>798.0</ele><time>2026-05-03T08:06:58Z</time></trkpt><trkpt lat="42.29367978935422" lon="13.642062353843443"><ele>798.0</ele><time>2026-05-03T08:06:59Z</time></trkpt><trkpt lat="42.29363512637207" lon="13.642202028522352"><ele>798.0</ele><time>2026-05-03T08:07:00Z</time></trkpt><trkpt lat="42.293570250619325" lon="13.642313194354955"><ele>798.0</ele><time>2026-05-03T08:07:01Z</time></trkpt><trkpt lat="42.29346908673759" lon="13.64238311080595"><ele>798.0</ele><time>2026-05-03T08:07:02Z</time></trkpt><trkpt lat="42.29334817283916" lon="13.642439840827974"><ele>798.0</ele><time>2026-05-03T08:07:03Z</time></trkpt><trkpt lat="42.293208550167556" lon="13.642480090011892"><ele>798.0</ele><time>2026-05-03T08:07:04Z</time></trkpt><trkpt lat="42.29308032744149" lon="13.642546668188455"><ele>798.0</ele><time>2026-05-03T08:07:05Z</time></trkpt><trkpt lat="42.292959760033504" lon="13.642608635265377"><ele>798.0</ele><time>2026-05-03T08:07:06Z</time></trkpt><trkpt lat="42.292840487719474" lon="13.642670005993851"><ele>797.75</ele><time>2026-05-03T08:07:07Z</time></trkpt><trkpt lat="42.29272349013362" lon="13.642730362983878"><ele>797.5</ele><time>2026-05-03T08:07:08Z</time></trkpt><trkpt lat="42.29260714574555" lon="13.642790383013416"><ele>797.25</ele><time>2026-05-03T08:07:09Z</time></trkpt><trkpt lat="42.292490658351014" lon="13.642850476836642"><ele>797.0</ele><time>2026-05-03T08:07:10Z</time></trkpt><trkpt lat="42.292374712943584" lon="13.642908567573881"><ele>797.0</ele><time>2026-05-03T08:07:11Z</time></trkpt><trkpt lat="42.29225737239134" lon="13.642966674800016"><ele>797.0</ele><time>2026-05-03T08:07:12Z</time></trkpt><trkpt lat="42.29213920671583" lon="13.643020928997208"><ele>797.0</ele><time>2026-05-03T08:07:13Z</time></trkpt><trkpt lat="42.29202082285784" lon="13.643069205490214"><ele>797.0</ele><time>2026-05-03T08:07:14Z</time></trkpt><trkpt lat="42.291906256135064" lon="13.64310913321622"><ele>796.6</ele><time>2026-05-03T08:07:15Z</time></trkpt><trkpt lat="42.291795613292486" lon="13.643140018658938"><ele>796.2</ele><time>2026-05-03T08:07:16Z</time></trkpt><trkpt lat="42.29167989480867" lon="13.643163519751809"><ele>795.8</ele><time>2026-05-03T08:07:17Z</time></trkpt><trkpt lat="42.291573052853984" lon="13.64316697160919"><ele>795.4</ele><time>2026-05-03T08:07:18Z</time></trkpt><trkpt lat="42.29147692412565" lon="13.643140627254388"><ele>795.0</ele><time>2026-05-03T08:07:19Z</time></trkpt><trkpt lat="42.291386451710196" lon="13.643073845873523"><ele>794.0</ele><time>2026-05-03T08:07:20Z</time></trkpt><trkpt lat="42.291286604180684" lon="13.643032999834872"><ele>793.0</ele><time>2026-05-03T08:07:21Z</time></trkpt><trkpt lat="42.29117955238823" lon="13.643019928639593"><ele>792.0</ele><time>2026-05-03T08:07:22Z</time></trkpt><trkpt lat="42.2910572772805" lon="13.643041685575787"><ele>791.0</ele><time>2026-05-03T08:07:23Z</time></trkpt><trkpt lat="42.29093482320735" lon="13.643073556112455"><ele>791.0</ele><time>2026-05-03T08:07:24Z</time></trkpt><trkpt lat="42.290805955962" lon="13.64310802220127"><ele>791.0</ele><time>2026-05-03T08:07:25Z</time></trkpt><trkpt lat="42.29067544636115" lon="13.64314292751462"><ele>791.0</ele><time>2026-05-03T08:07:26Z</time></trkpt><trkpt lat="42.290548295276125" lon="13.643170562131836"><ele>791.0</ele><time>2026-05-03T08:07:27Z</time></trkpt><trkpt lat="42.29042883286097" lon="13.643183206491916"><ele>790.0</ele><time>2026-05-03T08:07:28Z</time></trkpt><trkpt lat="42.29031326076764" lon="13.643191600311418"><ele>789.0</ele><time>2026-05-03T08:07:29Z</time></trkpt><trkpt lat="42.29020220588777" lon="13.643201585998703"><ele>788.0</ele><time>2026-05-03T08:07:30Z</time></trkpt><trkpt lat="42.29009458294402" lon="13.643215032126875"><ele>787.0</ele><time>2026-05-03T08:07:31Z</time></trkpt><trkpt lat="42.28999089782139" lon="13.64322994775567"><ele>786.0</ele><time>2026-05-03T08:07:32Z</time></trkpt><trkpt lat="42.28989159233233" lon="13.643253382658429"><ele>786.0</ele><time>2026-05-03T08:07:33Z</time></trkpt><trkpt lat="42.289805140350694" lon="13.643305688107741"><ele>786.0</ele><time>2026-05-03T08:07:34Z</time></trkpt><trkpt lat="42.289735768025785" lon="13.64336428596067"><ele>786.0</ele><time>2026-05-03T08:07:35Z</time></trkpt><trkpt lat="42.28967973317925" lon="13.643448001378596"><ele>786.0</ele><time>2026-05-03T08:07:36Z</time></trkpt><trkpt lat="42.28969169409043" lon="13.643581548799872"><ele>786.0</ele><time>2026-05-03T08:07:37Z</time></trkpt><trkpt lat="42.28972247971588" lon="13.643709872722503"><ele>787.25</ele><time>2026-05-03T08:07:38Z</time></trkpt><trkpt lat="42.28976042661575" lon="13.643847985990336"><ele>788.5</ele><time>2026-05-03T08:07:39Z</time></trkpt><trkpt lat="42.28979756894726" lon="13.644013767313256"><ele>789.75</ele><time>2026-05-03T08:07:40Z</time></trkpt><trkpt lat="42.28980684627608" lon="13.64420530047424"><ele>791.0</ele><time>2026-05-03T08:07:41Z</time></trkpt><trkpt lat="42.28984568360288" lon="13.644404184670243"><ele>792.3333333333334</ele><time>2026-05-03T08:07:42Z</time></trkpt><trkpt lat="42.2898653297217" lon="13.644613775137584"><ele>793.6666666666667</ele><time>2026-05-03T08:07:43Z</time></trkpt><trkpt lat="42.28990026423109" lon="13.644811889315687"><ele>795.0</ele><time>2026-05-03T08:07:44Z</time></trkpt><trkpt lat="42.289951630617296" lon="13.645003765610394"><ele>795.0</ele><time>2026-05-03T08:07:45Z</time></trkpt><trkpt lat="42.29001257977508" lon="13.64519828716462"><ele>795.0</ele><time>2026-05-03T08:07:46Z</time></trkpt><trkpt lat="42.29006751939212" lon="13.64538336390786"><ele>795.0</ele><time>2026-05-03T08:07:47Z</time></trkpt><trkpt lat="42.290084728373536" lon="13.64555725560282"><ele>795.0</ele><time>2026-05-03T08:07:48Z</time></trkpt><trkpt lat="42.29008991817169" lon="13.645708401455046"><ele>795.25</ele><time>2026-05-03T08:07:49Z</time></trkpt><trkpt lat="42.290083496741886" lon="13.645860412196178"><ele>795.5</ele><time>2026-05-03T08:07:50Z</time></trkpt><trkpt lat="42.290086072044986" lon="13.64602517625631"><ele>795.75</ele><time>2026-05-03T08:07:51Z</time></trkpt><trkpt lat="42.29004308868016" lon="13.64619015564874"><ele>796.0</ele><time>2026-05-03T08:07:52Z</time></trkpt><trkpt lat="42.2899978281781" lon="13.64636015979821"><ele>794.75</ele><time>2026-05-03T08:07:53Z</time></trkpt><trkpt lat="42.28992279689497" lon="13.646514388662007"><ele>793.5</ele><time>2026-05-03T08:07:54Z</time></trkpt><trkpt lat="42.2898312326607" lon="13.646662815985303"><ele>792.25</ele><time>2026-05-03T08:07:55Z</time></trkpt><trkpt lat="42.289742252437925" lon="13.646822056379099"><ele>791.0</ele><time>2026-05-03T08:07:56Z</time></trkpt><trkpt lat="42.28966328460916" lon="13.64699977974988"><ele>791.0</ele><time>2026-05-03T08:07:57Z</time></trkpt><trkpt lat="42.289616307791086" lon="13.647197039726967"><ele>791.0</ele><time>2026-05-03T08:07:58Z</time></trkpt><trkpt lat="42.28957342196535" lon="13.647378769853065"><ele>791.0</ele><time>2026-05-03T08:07:59Z</time></trkpt><trkpt lat="42.28952350099509" lon="13.64754361025947"><ele>791.0</ele><time>2026-05-03T08:08:00Z</time></trkpt><trkpt lat="42.28947596165248" lon="13.647695998221375"><ele>792.25</ele><time>2026-05-03T08:08:01Z</time></trkpt><trkpt lat="42.28940177917849" lon="13.647828738097614"><ele>793.5</ele><time>2026-05-03T08:08:02Z</time></trkpt><trkpt lat="42.28930967949612" lon="13.647966934700419"><ele>794.75</ele><time>2026-05-03T08:08:03Z</time></trkpt><trkpt lat="42.28920737555774" lon="13.648112009478556"><ele>796.0</ele><time>2026-05-03T08:08:04Z</time></trkpt><trkpt lat="42.289098748730574" lon="13.648263793819652"><ele>796.0</ele><time>2026-05-03T08:08:05Z</time></trkpt><trkpt lat="42.28898439031395" lon="13.648421275188058"><ele>796.0</ele><time>2026-05-03T08:08:06Z</time></trkpt><trkpt lat="42.28886578940099" lon="13.648577548716396"><ele>796.0</ele><time>2026-05-03T08:08:07Z</time></trkpt><trkpt lat="42.28873712483884" lon="13.648731021800748"><ele>793.3333333333333</ele><time>2026-05-03T08:08:08Z</time></trkpt><trkpt lat="42.288595683457984" lon="13.648873274527206"><ele>790.6666666666667</ele><time>2026-05-03T08:08:09Z</time></trkpt><trkpt lat="42.2884505048901" lon="13.649018113832843"><ele>788.0</ele><time>2026-05-03T08:08:10Z</time></trkpt><trkpt lat="42.28831635170821" lon="13.64917298431112"><ele>788.0</ele><time>2026-05-03T08:08:11Z</time></trkpt><trkpt lat="42.2881717476072" lon="13.649293424811903"><ele>788.0</ele><time>2026-05-03T08:08:12Z</time></trkpt><trkpt lat="42.288047859681605" lon="13.64943016580864"><ele>788.0</ele><time>2026-05-03T08:08:13Z</time></trkpt><trkpt lat="42.28794288198334" lon="13.649582792512943"><ele>785.3333333333334</ele><time>2026-05-03T08:08:14Z</time></trkpt><trkpt lat="42.287857436084344" lon="13.649750169037986"><ele>782.6666666666667</ele><time>2026-05-03T08:08:15Z</time></trkpt><trkpt lat="42.28777915974842" lon="13.649934827950226"><ele>780.0</ele><time>2026-05-03T08:08:16Z</time></trkpt><trkpt lat="42.28770431412434" lon="13.650128502394159"><ele>781.6666666666667</ele><time>2026-05-03T08:08:17Z</time></trkpt><trkpt lat="42.28763798428919" lon="13.65032192166853"><ele>783.3333333333334</ele><time>2026-05-03T08:08:18Z</time></trkpt><trkpt lat="42.2875780943926" lon="13.650517979135943"><ele>785.0</ele><time>2026-05-03T08:08:19Z</time></trkpt><trkpt lat="42.28752899401296" lon="13.65072034857413"><ele>785.0</ele><time>2026-05-03T08:08:20Z</time></trkpt><trkpt lat="42.2874887930748" lon="13.650924310384688"><ele>785.0</ele><time>2026-05-03T08:08:21Z</time></trkpt><trkpt lat="42.2874621233238" lon="13.651134447549593"><ele>785.0</ele><time>2026-05-03T08:08:22Z</time></trkpt><trkpt lat="42.287447837139126" lon="13.651333887731267"><ele>785.75</ele><time>2026-05-03T08:08:23Z</time></trkpt><trkpt lat="42.287453095317005" lon="13.65152371361393"><ele>786.5</ele><time>2026-05-03T08:08:24Z</time></trkpt><trkpt lat="42.28748395770911" lon="13.651708531880939"><ele>787.25</ele><time>2026-05-03T08:08:25Z</time></trkpt><trkpt lat="42.2875117059569" lon="13.651884185836876"><ele>788.0</ele><time>2026-05-03T08:08:26Z</time></trkpt><trkpt lat="42.287514022517776" lon="13.652036129953126"><ele>789.0</ele><time>2026-05-03T08:08:27Z</time></trkpt><trkpt lat="42.28748342200077" lon="13.652167500121944"><ele>790.0</ele><time>2026-05-03T08:08:28Z</time></trkpt><trkpt lat="42.28742059956749" lon="13.652276605762447"><ele>791.0</ele><time>2026-05-03T08:08:29Z</time></trkpt><trkpt lat="42.28734921560938" lon="13.65239263677815"><ele>792.0</ele><time>2026-05-03T08:08:30Z</time></trkpt><trkpt lat="42.28727638815911" lon="13.652518079144173"><ele>793.0</ele><time>2026-05-03T08:08:31Z</time></trkpt><trkpt lat="42.2872013239331" lon="13.652654759408966"><ele>789.75</ele><time>2026-05-03T08:08:32Z</time></trkpt><trkpt lat="42.287132589490774" lon="13.65279939468525"><ele>786.5</ele><time>2026-05-03T08:08:33Z</time></trkpt><trkpt lat="42.28708311827175" lon="13.652967373831167"><ele>783.25</ele><time>2026-05-03T08:08:34Z</time></trkpt><trkpt lat="42.28705361135576" lon="13.653150472920734"><ele>780.0</ele><time>2026-05-03T08:08:35Z</time></trkpt><trkpt lat="42.28702618307171" lon="13.653328182144154"><ele>780.0</ele><time>2026-05-03T08:08:36Z</time></trkpt><trkpt lat="42.287002877508066" lon="13.653505213392723"><ele>780.0</ele><time>2026-05-03T08:08:37Z</time></trkpt><trkpt lat="42.286972967756036" lon="13.653674924086049"><ele>780.0</ele><time>2026-05-03T08:08:38Z</time></trkpt><trkpt lat="42.28693760493457" lon="13.653841079881403"><ele>780.0</ele><time>2026-05-03T08:08:39Z</time></trkpt><trkpt lat="42.286900409026494" lon="13.653984957922768"><ele>781.4</ele><time>2026-05-03T08:08:40Z</time></trkpt><trkpt lat="42.286860386515215" lon="13.654104254976865"><ele>782.8</ele><time>2026-05-03T08:08:41Z</time></trkpt><trkpt lat="42.28680700304486" lon="13.654191579957905"><ele>784.2</ele><time>2026-05-03T08:08:42Z</time></trkpt><trkpt lat="42.28675058682278" lon="13.654274997886947"><ele>785.6</ele><time>2026-05-03T08:08:43Z</time></trkpt><trkpt lat="42.28668097187649" lon="13.654357411246854"><ele>787.0</ele><time>2026-05-03T08:08:44Z</time></trkpt><trkpt lat="42.28661044589675" lon="13.654454567776432"><ele>788.0</ele><time>2026-05-03T08:08:45Z</time></trkpt><trkpt lat="42.28654824575407" lon="13.654568840495998"><ele>789.0</ele><time>2026-05-03T08:08:46Z</time></trkpt><trkpt lat="42.286488269731045" lon="13.654672358506755"><ele>790.0</ele><time>2026-05-03T08:08:47Z</time></trkpt><trkpt lat="42.28641872007559" lon="13.654765829397434"><ele>791.0</ele><time>2026-05-03T08:08:48Z</time></trkpt><trkpt lat="42.28635239829976" lon="13.654853500568379"><ele>792.0</ele><time>2026-05-03T08:08:49Z</time></trkpt><trkpt lat="42.286298408002736" lon="13.654935532753147"><ele>790.5</ele><time>2026-05-03T08:08:50Z</time></trkpt><trkpt lat="42.28625447737656" lon="13.655006020835739"><ele>789.0</ele><time>2026-05-03T08:08:51Z</time></trkpt><trkpt lat="42.28621349029317" lon="13.655113782013567"><ele>787.5</ele><time>2026-05-03T08:08:53Z</time></trkpt><trkpt lat="42.28620497390068" lon="13.655203818938052"><ele>786.0</ele><time>2026-05-03T08:08:56Z</time></trkpt><trkpt lat="42.28624903632678" lon="13.655296326781787"><ele>784.5</ele><time>2026-05-03T08:08:59Z</time></trkpt><trkpt lat="42.28632968179813" lon="13.655344766621555"><ele>783.0</ele><time>2026-05-03T08:09:01Z</time></trkpt><trkpt lat="42.28639679837751" lon="13.65543476762521"><ele>783.0</ele><time>2026-05-03T08:09:03Z</time></trkpt><trkpt lat="42.28639312759764" lon="13.655600647926871"><ele>783.0</ele><time>2026-05-03T08:09:05Z</time></trkpt><trkpt lat="42.286399334738576" lon="13.655726327407066"><ele>783.0</ele><time>2026-05-03T08:09:06Z</time></trkpt><trkpt lat="42.286370423697434" lon="13.65586979820341"><ele>783.0</ele><time>2026-05-03T08:09:07Z</time></trkpt><trkpt lat="42.28636029532211" lon="13.656015420181031"><ele>783.0</ele><time>2026-05-03T08:09:08Z</time></trkpt><trkpt lat="42.286350696651226" lon="13.656150608073316"><ele>783.8</ele><time>2026-05-03T08:09:09Z</time></trkpt><trkpt lat="42.28634366573564" lon="13.656270684449828"><ele>784.5999999999999</ele><time>2026-05-03T08:09:10Z</time></trkpt><trkpt lat="42.286343147250655" lon="13.656376612392936"><ele>785.4000000000001</ele><time>2026-05-03T08:09:11Z</time></trkpt><trkpt lat="42.28638639716986" lon="13.656510257508746"><ele>786.2</ele><time>2026-05-03T08:09:13Z</time></trkpt><trkpt lat="42.286458138936865" lon="13.65658440466768"><ele>787.0</ele><time>2026-05-03T08:09:15Z</time></trkpt><trkpt lat="42.2863268258834" lon="13.656746819981754"><ele>786.9999999999999</ele><time>2026-05-03T08:09:20Z</time></trkpt><trkpt lat="42.28622933948401" lon="13.656802513145708"><ele>787.0</ele><time>2026-05-03T08:09:22Z</time></trkpt><trkpt lat="42.28615188133619" lon="13.656844070308024"><ele>787.0</ele><time>2026-05-03T08:09:24Z</time></trkpt><trkpt lat="42.28607437828941" lon="13.656862942739806"><ele>787.0</ele><time>2026-05-03T08:09:27Z</time></trkpt><trkpt lat="42.28603683949688" lon="13.656936123352653"><ele>786.9999999999999</ele><time>2026-05-03T08:09:31Z</time></trkpt><trkpt lat="42.286115967065754" lon="13.656897316559633"><ele>787.0</ele><time>2026-05-03T08:09:45Z</time></trkpt><trkpt lat="42.28619666898057" lon="13.656846045437325"><ele>787.0</ele><time>2026-05-03T08:09:47Z</time></trkpt><trkpt lat="42.2863098636987" lon="13.656782173264435"><ele>787.0</ele><time>2026-05-03T08:09:49Z</time></trkpt><trkpt lat="42.28640190818959" lon="13.656696716028005"><ele>787.0</ele><time>2026-05-03T08:09:51Z</time></trkpt><trkpt lat="42.28644858744248" lon="13.656629073195822"><ele>787.0</ele><time>2026-05-03T08:09:54.001Z</time></trkpt><trkpt lat="42.28655593067488" lon="13.656608241551291"><ele>787.0</ele><time>2026-05-03T08:09:57Z</time></trkpt><trkpt lat="42.2866483738708" lon="13.656652203694495"><ele>790.6</ele><time>2026-05-03T08:09:59Z</time></trkpt><trkpt lat="42.28668827114001" lon="13.65676683281547"><ele>794.2</ele><time>2026-05-03T08:10:01Z</time></trkpt><trkpt lat="42.286634569149015" lon="13.656881375006733"><ele>797.8</ele><time>2026-05-03T08:10:03Z</time></trkpt><trkpt lat="42.28655558399061" lon="13.657012058610574"><ele>801.4</ele><time>2026-05-03T08:10:05Z</time></trkpt><trkpt lat="42.28651818369641" lon="13.657090391945864"><ele>805.0</ele><time>2026-05-03T08:10:06Z</time></trkpt><trkpt lat="42.2864792984197" lon="13.657162565522768"><ele>803.4999999999999</ele><time>2026-05-03T08:10:07Z</time></trkpt><trkpt lat="42.28643381313362" lon="13.65723568865048"><ele>802.0</ele><time>2026-05-03T08:10:08Z</time></trkpt><trkpt lat="42.28638283492949" lon="13.657303132906796"><ele>800.5</ele><time>2026-05-03T08:10:09Z</time></trkpt><trkpt lat="42.28633819038438" lon="13.657381036064585"><ele>799.0</ele><time>2026-05-03T08:10:10Z</time></trkpt><trkpt lat="42.2862933504857" lon="13.65746138447659"><ele>797.4999999999999</ele><time>2026-05-03T08:10:11Z</time></trkpt><trkpt lat="42.28624670629273" lon="13.657532679072162"><ele>796.0</ele><time>2026-05-03T08:10:12Z</time></trkpt><trkpt lat="42.28616882538972" lon="13.657649827384754"><ele>796.0</ele><time>2026-05-03T08:10:14Z</time></trkpt><trkpt lat="42.28609313739851" lon="13.657740394874132"><ele>796.0</ele><time>2026-05-03T08:10:16Z</time></trkpt><trkpt lat="42.28602316285844" lon="13.657842944116005"><ele>796.0</ele><time>2026-05-03T08:10:18Z</time></trkpt><trkpt lat="42.28596249159588" lon="13.657957963224677"><ele>796.0</ele><time>2026-05-03T08:10:20Z</time></trkpt><trkpt lat="42.28588459081921" lon="13.658081659728188"><ele>796.0</ele><time>2026-05-03T08:10:22Z</time></trkpt><trkpt lat="42.28583665942811" lon="13.658143365769334"><ele>794.5999999999999</ele><time>2026-05-03T08:10:23Z</time></trkpt><trkpt lat="42.28579057254882" lon="13.658207356657591"><ele>793.2</ele><time>2026-05-03T08:10:24Z</time></trkpt><trkpt lat="42.285714767472804" lon="13.658326194892137"><ele>791.8</ele><time>2026-05-03T08:10:26Z</time></trkpt><trkpt lat="42.285651917887044" lon="13.658442704905257"><ele>790.4000000000001</ele><time>2026-05-03T08:10:28Z</time></trkpt><trkpt lat="42.28557792501009" lon="13.658469398282781"><ele>789.0</ele><time>2026-05-03T08:10:29Z</time></trkpt><trkpt lat="42.28550429892371" lon="13.658583099905497"><ele>791.25</ele><time>2026-05-03T08:10:31Z</time></trkpt><trkpt lat="42.28543400409625" lon="13.658705374508552"><ele>793.5</ele><time>2026-05-03T08:10:33Z</time></trkpt><trkpt lat="42.28536588550859" lon="13.658826884690612"><ele>795.75</ele><time>2026-05-03T08:10:35Z</time></trkpt><trkpt lat="42.2852933758066" lon="13.658951302542839"><ele>798.0</ele><time>2026-05-03T08:10:37Z</time></trkpt><trkpt lat="42.285207745702756" lon="13.659046611567586"><ele>798.0</ele><time>2026-05-03T08:10:39Z</time></trkpt><trkpt lat="42.2851178227475" lon="13.659155224529178"><ele>798.0</ele><time>2026-05-03T08:10:41Z</time></trkpt><trkpt lat="42.28503553404621" lon="13.659265023797895"><ele>798.0</ele><time>2026-05-03T08:10:43Z</time></trkpt><trkpt lat="42.28495289809235" lon="13.659398697480148"><ele>798.0</ele><time>2026-05-03T08:10:45Z</time></trkpt><trkpt lat="42.28491644623191" lon="13.659476983963424"><ele>798.0</ele><time>2026-05-03T08:10:46Z</time></trkpt><trkpt lat="42.2848689510464" lon="13.659617074973536"><ele>797.5</ele><time>2026-05-03T08:10:48Z</time></trkpt><trkpt lat="42.28485807020929" lon="13.659780836736111"><ele>797.0</ele><time>2026-05-03T08:10:50Z</time></trkpt><trkpt lat="42.284874963506624" lon="13.659888421094186"><ele>796.5</ele><time>2026-05-03T08:10:51Z</time></trkpt><trkpt lat="42.284837644018474" lon="13.659976995851478"><ele>796.0</ele><time>2026-05-03T08:10:52Z</time></trkpt><trkpt lat="42.2847956790539" lon="13.66006071411032"><ele>795.5</ele><time>2026-05-03T08:10:53Z</time></trkpt><trkpt lat="42.28473379521879" lon="13.66012571002123"><ele>795.0</ele><time>2026-05-03T08:10:54Z</time></trkpt><trkpt lat="42.28463797025762" lon="13.660151209969486"><ele>795.0</ele><time>2026-05-03T08:10:55Z</time></trkpt><trkpt lat="42.28456280050459" lon="13.660238920092711"><ele>795.0</ele><time>2026-05-03T08:10:56Z</time></trkpt><trkpt lat="42.284470968367046" lon="13.660330282864395"><ele>795.0</ele><time>2026-05-03T08:10:57Z</time></trkpt><trkpt lat="42.28436753338368" lon="13.660409707113796"><ele>795.0</ele><time>2026-05-03T08:10:58Z</time></trkpt><trkpt lat="42.284277347947636" lon="13.660493004999438"><ele>795.0</ele><time>2026-05-03T08:10:59Z</time></trkpt><trkpt lat="42.28418465980237" lon="13.660594048356018"><ele>794.5</ele><time>2026-05-03T08:11:00Z</time></trkpt><trkpt lat="42.2840999588071" lon="13.66070551609367"><ele>794.0</ele><time>2026-05-03T08:11:01Z</time></trkpt><trkpt lat="42.284025173075875" lon="13.660831568682719"><ele>793.5</ele><time>2026-05-03T08:11:02Z</time></trkpt><trkpt lat="42.28396115039269" lon="13.660969258778449"><ele>793.0</ele><time>2026-05-03T08:11:03Z</time></trkpt><trkpt lat="42.283901897392965" lon="13.661109369114563"><ele>797.5</ele><time>2026-05-03T08:11:04Z</time></trkpt><trkpt lat="42.28384427611028" lon="13.661249258625812"><ele>802.0</ele><time>2026-05-03T08:11:05Z</time></trkpt><trkpt lat="42.28378609692514" lon="13.66139049672866"><ele>806.5</ele><time>2026-05-03T08:11:06Z</time></trkpt><trkpt lat="42.28372815729925" lon="13.661531152956796"><ele>811.0</ele><time>2026-05-03T08:11:07Z</time></trkpt><trkpt lat="42.283726179279434" lon="13.661722427782571"><ele>811.0</ele><time>2026-05-03T08:11:08Z</time></trkpt><trkpt lat="42.28367820748833" lon="13.661882309633414"><ele>811.0</ele><time>2026-05-03T08:11:09Z</time></trkpt><trkpt lat="42.28363081396727" lon="13.662039277223892"><ele>811.0</ele><time>2026-05-03T08:11:10Z</time></trkpt><trkpt lat="42.28358096805335" lon="13.662194115579364"><ele>811.0</ele><time>2026-05-03T08:11:11Z</time></trkpt><trkpt lat="42.28352616985142" lon="13.662346840261666"><ele>815.75</ele><time>2026-05-03T08:11:12Z</time></trkpt><trkpt lat="42.283469458437736" lon="13.662495658018859"><ele>820.5</ele><time>2026-05-03T08:11:13Z</time></trkpt><trkpt lat="42.28341822347406" lon="13.662637780352194"><ele>825.25</ele><time>2026-05-03T08:11:14Z</time></trkpt><trkpt lat="42.283371567267416" lon="13.662772094357885"><ele>830.0</ele><time>2026-05-03T08:11:15Z</time></trkpt><trkpt lat="42.28332455396165" lon="13.662908695380596"><ele>827.0</ele><time>2026-05-03T08:11:16Z</time></trkpt><trkpt lat="42.283277561493264" lon="13.663036070719919"><ele>824.0</ele><time>2026-05-03T08:11:17Z</time></trkpt><trkpt lat="42.28322225987939" lon="13.663164671884203"><ele>821.0</ele><time>2026-05-03T08:11:18Z</time></trkpt><trkpt lat="42.28316850379677" lon="13.663288970475694"><ele>818.0</ele><time>2026-05-03T08:11:19Z</time></trkpt><trkpt lat="42.283108594157135" lon="13.663410299339597"><ele>815.0</ele><time>2026-05-03T08:11:20Z</time></trkpt><trkpt lat="42.283054693607" lon="13.663535398992783"><ele>817.6</ele><time>2026-05-03T08:11:21Z</time></trkpt><trkpt lat="42.28300364809072" lon="13.663652719587457"><ele>820.2</ele><time>2026-05-03T08:11:22Z</time></trkpt><trkpt lat="42.28294919656013" lon="13.663778073177658"><ele>822.8</ele><time>2026-05-03T08:11:23Z</time></trkpt><trkpt lat="42.28289136720549" lon="13.663908158323702"><ele>825.4</ele><time>2026-05-03T08:11:24Z</time></trkpt><trkpt lat="42.28283383770912" lon="13.664039335686347"><ele>828.0</ele><time>2026-05-03T08:11:25Z</time></trkpt><trkpt lat="42.282775864896536" lon="13.664168544263365"><ele>828.0</ele><time>2026-05-03T08:11:26Z</time></trkpt><trkpt lat="42.28271718115197" lon="13.664298003912753"><ele>828.0</ele><time>2026-05-03T08:11:27Z</time></trkpt><trkpt lat="42.28266215815502" lon="13.664434324999194"><ele>828.0</ele><time>2026-05-03T08:11:28Z</time></trkpt><trkpt lat="42.28260716169414" lon="13.664564851287679"><ele>828.0</ele><time>2026-05-03T08:11:29Z</time></trkpt><trkpt lat="42.28255252006107" lon="13.664693719677176"><ele>828.0</ele><time>2026-05-03T08:11:30Z</time></trkpt><trkpt lat="42.28249912228907" lon="13.664827040476627"><ele>827.8</ele><time>2026-05-03T08:11:31Z</time></trkpt><trkpt lat="42.28244195965262" lon="13.664963331988497"><ele>827.5999999999999</ele><time>2026-05-03T08:11:32Z</time></trkpt><trkpt lat="42.28238517723488" lon="13.66509571051647"><ele>827.4000000000001</ele><time>2026-05-03T08:11:33Z</time></trkpt><trkpt lat="42.28233203130175" lon="13.665219801513917"><ele>827.2</ele><time>2026-05-03T08:11:34Z</time></trkpt><trkpt lat="42.28227758026925" lon="13.6653371301911"><ele>827.0</ele><time>2026-05-03T08:11:35Z</time></trkpt><trkpt lat="42.28222399373563" lon="13.665465834859624"><ele>827.0</ele><time>2026-05-03T08:11:36Z</time></trkpt><trkpt lat="42.28216457632552" lon="13.66559920541378"><ele>827.0</ele><time>2026-05-03T08:11:37Z</time></trkpt><trkpt lat="42.282108910544274" lon="13.665734762087487"><ele>827.0</ele><time>2026-05-03T08:11:38Z</time></trkpt><trkpt lat="42.282052295645826" lon="13.665869585785227"><ele>827.0</ele><time>2026-05-03T08:11:39Z</time></trkpt><trkpt lat="42.28199659284627" lon="13.666005387480782"><ele>830.75</ele><time>2026-05-03T08:11:40Z</time></trkpt><trkpt lat="42.281939529464985" lon="13.666140743362337"><ele>834.5</ele><time>2026-05-03T08:11:41Z</time></trkpt><trkpt lat="42.28188090172937" lon="13.66627531613682"><ele>838.25</ele><time>2026-05-03T08:11:42Z</time></trkpt><trkpt lat="42.28182514103503" lon="13.66641238212311"><ele>842.0</ele><time>2026-05-03T08:11:43Z</time></trkpt><trkpt lat="42.281769208671655" lon="13.666549335966621"><ele>842.0</ele><time>2026-05-03T08:11:44Z</time></trkpt><trkpt lat="42.281715102433154" lon="13.666675210424026"><ele>842.0</ele><time>2026-05-03T08:11:45Z</time></trkpt><trkpt lat="42.28166013912386" lon="13.666798176353641"><ele>842.0</ele><time>2026-05-03T08:11:46Z</time></trkpt><trkpt lat="42.28160086419492" lon="13.666922760315197"><ele>842.0</ele><time>2026-05-03T08:11:47Z</time></trkpt><trkpt lat="42.281542991939524" lon="13.667040935185184"><ele>842.0</ele><time>2026-05-03T08:11:48Z</time></trkpt><trkpt lat="42.28148329839192" lon="13.667157115096279"><ele>842.2</ele><time>2026-05-03T08:11:49Z</time></trkpt><trkpt lat="42.281428142325574" lon="13.667286620666907"><ele>842.4000000000001</ele><time>2026-05-03T08:11:50Z</time></trkpt><trkpt lat="42.281379050954634" lon="13.667418476892518"><ele>842.5999999999999</ele><time>2026-05-03T08:11:51Z</time></trkpt><trkpt lat="42.2813285475293" lon="13.667543995303525"><ele>842.8</ele><time>2026-05-03T08:11:52Z</time></trkpt><trkpt lat="42.28127399221085" lon="13.667666351897251"><ele>843.0</ele><time>2026-05-03T08:11:53Z</time></trkpt><trkpt lat="42.281219492223954" lon="13.667788914201772"><ele>843.0</ele><time>2026-05-03T08:11:54Z</time></trkpt><trkpt lat="42.28115870166111" lon="13.66791387121128"><ele>843.0</ele><time>2026-05-03T08:11:55Z</time></trkpt><trkpt lat="42.281101397671506" lon="13.668030393035671"><ele>843.0</ele><time>2026-05-03T08:11:56Z</time></trkpt><trkpt lat="42.2810428183394" lon="13.668154964685993"><ele>843.0</ele><time>2026-05-03T08:11:57Z</time></trkpt><trkpt lat="42.28098274258775" lon="13.668272572384604"><ele>843.0</ele><time>2026-05-03T08:11:58Z</time></trkpt><trkpt lat="42.28092639878869" lon="13.668377685886755"><ele>843.0</ele><time>2026-05-03T08:11:59Z</time></trkpt><trkpt lat="42.28086966244962" lon="13.668480118181854"><ele>843.0</ele><time>2026-05-03T08:12:00.001Z</time></trkpt><trkpt lat="42.28081058263342" lon="13.668584150938774"><ele>843.0</ele><time>2026-05-03T08:12:01.001Z</time></trkpt><trkpt lat="42.280742995026834" lon="13.66869085202833"><ele>843.0</ele><time>2026-05-03T08:12:02.001Z</time></trkpt><trkpt lat="42.280668545822685" lon="13.668803570766254"><ele>843.0</ele><time>2026-05-03T08:12:03.001Z</time></trkpt><trkpt lat="42.28059990780563" lon="13.668905738691452"><ele>841.4</ele><time>2026-05-03T08:12:04.001Z</time></trkpt><trkpt lat="42.28052861645704" lon="13.66901602721815"><ele>839.8</ele><time>2026-05-03T08:12:05.001Z</time></trkpt><trkpt lat="42.28045440916854" lon="13.669115961739735"><ele>838.2</ele><time>2026-05-03T08:12:06.001Z</time></trkpt><trkpt lat="42.28038204129827" lon="13.669225621455976"><ele>836.6</ele><time>2026-05-03T08:12:07.001Z</time></trkpt><trkpt lat="42.280309212136764" lon="13.66933748397126"><ele>835.0</ele><time>2026-05-03T08:12:08.001Z</time></trkpt><trkpt lat="42.280236479963165" lon="13.669451860522711"><ele>839.0</ele><time>2026-05-03T08:12:09.001Z</time></trkpt><trkpt lat="42.28015993858999" lon="13.669568760207136"><ele>843.0</ele><time>2026-05-03T08:12:10.001Z</time></trkpt><trkpt lat="42.280080861205015" lon="13.669684228471153"><ele>847.0</ele><time>2026-05-03T08:12:11.001Z</time></trkpt><trkpt lat="42.28000377573958" lon="13.669799407551574"><ele>851.0</ele><time>2026-05-03T08:12:12.001Z</time></trkpt><trkpt lat="42.27992691972159" lon="13.669914776587365"><ele>851.0</ele><time>2026-05-03T08:12:13.001Z</time></trkpt><trkpt lat="42.279851895754035" lon="13.670032549043043"><ele>851.0</ele><time>2026-05-03T08:12:14.001Z</time></trkpt><trkpt lat="42.27977552817832" lon="13.670144723362776"><ele>851.0</ele><time>2026-05-03T08:12:15.001Z</time></trkpt><trkpt lat="42.27970532662759" lon="13.670253257197375"><ele>851.0</ele><time>2026-05-03T08:12:16.001Z</time></trkpt><trkpt lat="42.279635887686524" lon="13.670361618371741"><ele>851.0</ele><time>2026-05-03T08:12:17.001Z</time></trkpt><trkpt lat="42.27956347110967" lon="13.670469907195692"><ele>849.4</ele><time>2026-05-03T08:12:18.001Z</time></trkpt><trkpt lat="42.27948891498398" lon="13.670579110473291"><ele>847.8</ele><time>2026-05-03T08:12:19Z</time></trkpt><trkpt lat="42.27941396539057" lon="13.670688620668146"><ele>846.1999999999999</ele><time>2026-05-03T08:12:20Z</time></trkpt><trkpt lat="42.27933940211625" lon="13.670798650347034"><ele>844.5999999999999</ele><time>2026-05-03T08:12:21Z</time></trkpt><trkpt lat="42.27926637911953" lon="13.670896855958492"><ele>843.0</ele><time>2026-05-03T08:12:22Z</time></trkpt><trkpt lat="42.279192264716244" lon="13.67100752810127"><ele>841.8</ele><time>2026-05-03T08:12:23Z</time></trkpt><trkpt lat="42.27911882555693" lon="13.671110167143722"><ele>840.5999999999999</ele><time>2026-05-03T08:12:24Z</time></trkpt><trkpt lat="42.27904320262638" lon="13.671219850378376"><ele>839.4000000000001</ele><time>2026-05-03T08:12:25Z</time></trkpt><trkpt lat="42.27896736428964" lon="13.671328552450413"><ele>838.2</ele><time>2026-05-03T08:12:26Z</time></trkpt><trkpt lat="42.27889209440755" lon="13.671435323525834"><ele>837.0</ele><time>2026-05-03T08:12:27Z</time></trkpt><trkpt lat="42.27881549119826" lon="13.671543181416592"><ele>837.0</ele><time>2026-05-03T08:12:28Z</time></trkpt><trkpt lat="42.27874113181067" lon="13.671654920859257"><ele>837.0</ele><time>2026-05-03T08:12:29Z</time></trkpt><trkpt lat="42.278662546332114" lon="13.671766788557754"><ele>837.0</ele><time>2026-05-03T08:12:30Z</time></trkpt><trkpt lat="42.27858620410709" lon="13.671884544128014"><ele>837.0</ele><time>2026-05-03T08:12:31Z</time></trkpt><trkpt lat="42.27851076308653" lon="13.672001130387034"><ele>840.0</ele><time>2026-05-03T08:12:32Z</time></trkpt><trkpt lat="42.278438212261236" lon="13.6721210684058"><ele>843.0</ele><time>2026-05-03T08:12:33Z</time></trkpt><trkpt lat="42.278365808924654" lon="13.672237742420494"><ele>846.0</ele><time>2026-05-03T08:12:34Z</time></trkpt><trkpt lat="42.27829584967115" lon="13.672356036865125"><ele>849.0</ele><time>2026-05-03T08:12:35Z</time></trkpt><trkpt lat="42.27822626362654" lon="13.672463904052794"><ele>852.0</ele><time>2026-05-03T08:12:36Z</time></trkpt><trkpt lat="42.278153400752856" lon="13.672571966587808"><ele>849.8</ele><time>2026-05-03T08:12:37Z</time></trkpt><trkpt lat="42.27808159634788" lon="13.672676439460961"><ele>847.6</ele><time>2026-05-03T08:12:38Z</time></trkpt><trkpt lat="42.278005363112044" lon="13.672791000980748"><ele>845.4</ele><time>2026-05-03T08:12:39Z</time></trkpt><trkpt lat="42.277929665448674" lon="13.672900443547983"><ele>843.1999999999999</ele><time>2026-05-03T08:12:40Z</time></trkpt><trkpt lat="42.27785654643957" lon="13.673010383801584"><ele>841.0</ele><time>2026-05-03T08:12:41Z</time></trkpt><trkpt lat="42.2777787487927" lon="13.673123586719608"><ele>841.0</ele><time>2026-05-03T08:12:42Z</time></trkpt><trkpt lat="42.277700685760756" lon="13.67323662508548"><ele>841.0</ele><time>2026-05-03T08:12:43Z</time></trkpt><trkpt lat="42.27762210222891" lon="13.673349319915223"><ele>841.0</ele><time>2026-05-03T08:12:44Z</time></trkpt><trkpt lat="42.277543854002005" lon="13.673458518625544"><ele>841.0</ele><time>2026-05-03T08:12:45Z</time></trkpt><trkpt lat="42.27746324590353" lon="13.673568071400217"><ele>840.5</ele><time>2026-05-03T08:12:46Z</time></trkpt><trkpt lat="42.27738817817284" lon="13.6736761856522"><ele>840.0</ele><time>2026-05-03T08:12:47Z</time></trkpt><trkpt lat="42.277310910144834" lon="13.673788551541929"><ele>839.5</ele><time>2026-05-03T08:12:48Z</time></trkpt><trkpt lat="42.27723442690158" lon="13.6739004438803"><ele>839.0</ele><time>2026-05-03T08:12:49Z</time></trkpt><trkpt lat="42.27715953324494" lon="13.674017014858304"><ele>839.0</ele><time>2026-05-03T08:12:50Z</time></trkpt><trkpt lat="42.27708489918125" lon="13.674134320275824"><ele>839.0</ele><time>2026-05-03T08:12:51Z</time></trkpt><trkpt lat="42.27700901326678" lon="13.67424811727293"><ele>839.0</ele><time>2026-05-03T08:12:52Z</time></trkpt><trkpt lat="42.27693431394414" lon="13.674365459566896"><ele>839.0</ele><time>2026-05-03T08:12:53Z</time></trkpt><trkpt lat="42.27685878058006" lon="13.67448202975143"><ele>841.6</ele><time>2026-05-03T08:12:54Z</time></trkpt><trkpt lat="42.27678557049059" lon="13.674593357979344"><ele>844.2</ele><time>2026-05-03T08:12:55Z</time></trkpt><trkpt lat="42.27671213764586" lon="13.674694723900343"><ele>846.8000000000001</ele><time>2026-05-03T08:12:56Z</time></trkpt><trkpt lat="42.276642730677246" lon="13.674788059200983"><ele>849.4000000000001</ele><time>2026-05-03T08:12:57Z</time></trkpt><trkpt lat="42.27657342693258" lon="13.674881552694213"><ele>852.0</ele><time>2026-05-03T08:12:58Z</time></trkpt><trkpt lat="42.27649971821975" lon="13.674980205730774"><ele>851.0</ele><time>2026-05-03T08:12:59Z</time></trkpt><trkpt lat="42.2764219448417" lon="13.67508736732436"><ele>850.0</ele><time>2026-05-03T08:13:00Z</time></trkpt><trkpt lat="42.27634342912237" lon="13.675194790946504"><ele>849.0</ele><time>2026-05-03T08:13:01Z</time></trkpt><trkpt lat="42.27625884463127" lon="13.675298526969561"><ele>848.0</ele><time>2026-05-03T08:13:02Z</time></trkpt><trkpt lat="42.27617813361665" lon="13.675408528623318"><ele>848.0</ele><time>2026-05-03T08:13:03Z</time></trkpt><trkpt lat="42.27609581007152" lon="13.675517290705866"><ele>848.0</ele><time>2026-05-03T08:13:04Z</time></trkpt><trkpt lat="42.27601547212052" lon="13.675627351159692"><ele>848.0</ele><time>2026-05-03T08:13:05Z</time></trkpt><trkpt lat="42.275933665536265" lon="13.675733885905986"><ele>848.0</ele><time>2026-05-03T08:13:06Z</time></trkpt><trkpt lat="42.27584895800427" lon="13.675840566319787"><ele>848.0</ele><time>2026-05-03T08:13:07Z</time></trkpt><trkpt lat="42.27576464894442" lon="13.675947659171822"><ele>848.0</ele><time>2026-05-03T08:13:08Z</time></trkpt><trkpt lat="42.27568166540964" lon="13.676057552870342"><ele>848.0</ele><time>2026-05-03T08:13:09Z</time></trkpt><trkpt lat="42.27560089773864" lon="13.676169950202787"><ele>848.0</ele><time>2026-05-03T08:13:10Z</time></trkpt><trkpt lat="42.27552657016395" lon="13.67627006532561"><ele>847.5999999999999</ele><time>2026-05-03T08:13:11Z</time></trkpt><trkpt lat="42.27545514233188" lon="13.676362066263376"><ele>847.1999999999999</ele><time>2026-05-03T08:13:12Z</time></trkpt><trkpt lat="42.27539072887459" lon="13.67644607233255"><ele>846.8</ele><time>2026-05-03T08:13:13Z</time></trkpt><trkpt lat="42.27532644198012" lon="13.676532214378565"><ele>846.4</ele><time>2026-05-03T08:13:14Z</time></trkpt><trkpt lat="42.27526371811346" lon="13.6766141144648"><ele>846.0</ele><time>2026-05-03T08:13:15Z</time></trkpt><trkpt lat="42.275193331645056" lon="13.676710603775238"><ele>846.0</ele><time>2026-05-03T08:13:16Z</time></trkpt><trkpt lat="42.275118626425424" lon="13.676802517525374"><ele>846.0</ele><time>2026-05-03T08:13:17Z</time></trkpt><trkpt lat="42.27505241402415" lon="13.676901728580368"><ele>846.0</ele><time>2026-05-03T08:13:18Z</time></trkpt><trkpt lat="42.27498297014037" lon="13.677002350719587"><ele>846.0</ele><time>2026-05-03T08:13:19Z</time></trkpt><trkpt lat="42.27490927884676" lon="13.677098016814584"><ele>846.0</ele><time>2026-05-03T08:13:20Z</time></trkpt><trkpt lat="42.27484122814662" lon="13.677191558544262"><ele>846.5999999999999</ele><time>2026-05-03T08:13:21Z</time></trkpt><trkpt lat="42.274774736963664" lon="13.677295549601157"><ele>847.2</ele><time>2026-05-03T08:13:22Z</time></trkpt><trkpt lat="42.274705751348144" lon="13.677390357896066"><ele>847.8</ele><time>2026-05-03T08:13:23Z</time></trkpt><trkpt lat="42.27464069982474" lon="13.677473444366411"><ele>848.4000000000001</ele><time>2026-05-03T08:13:24Z</time></trkpt><trkpt lat="42.2745687096579" lon="13.677558526472657"><ele>849.0</ele><time>2026-05-03T08:13:25Z</time></trkpt><trkpt lat="42.27450368732888" lon="13.677637266728837"><ele>849.0</ele><time>2026-05-03T08:13:26Z</time></trkpt><trkpt lat="42.274429371422" lon="13.677731168633159"><ele>849.0</ele><time>2026-05-03T08:13:27Z</time></trkpt><trkpt lat="42.27435733182782" lon="13.67781956729726"><ele>849.0</ele><time>2026-05-03T08:13:28Z</time></trkpt><trkpt lat="42.274285355070226" lon="13.677905990587885"><ele>849.0</ele><time>2026-05-03T08:13:29Z</time></trkpt><trkpt lat="42.27421911381202" lon="13.67798846443258"><ele>849.0</ele><time>2026-05-03T08:13:30Z</time></trkpt><trkpt lat="42.274147691018115" lon="13.678081919789255"><ele>849.6</ele><time>2026-05-03T08:13:31Z</time></trkpt><trkpt lat="42.274077222592986" lon="13.67816762661935"><ele>850.2</ele><time>2026-05-03T08:13:32Z</time></trkpt><trkpt lat="42.27400814807061" lon="13.678261887064108"><ele>850.8000000000001</ele><time>2026-05-03T08:13:33Z</time></trkpt><trkpt lat="42.2739407331356" lon="13.67835667402213"><ele>851.4000000000001</ele><time>2026-05-03T08:13:34Z</time></trkpt><trkpt lat="42.27386554866177" lon="13.678457648133836"><ele>852.0</ele><time>2026-05-03T08:13:35Z</time></trkpt><trkpt lat="42.27379274120203" lon="13.678561262633083"><ele>855.25</ele><time>2026-05-03T08:13:36Z</time></trkpt><trkpt lat="42.27371657870213" lon="13.67867255311969"><ele>858.5</ele><time>2026-05-03T08:13:37Z</time></trkpt><trkpt lat="42.27364448684117" lon="13.678784600526983"><ele>861.75</ele><time>2026-05-03T08:13:38Z</time></trkpt><trkpt lat="42.27356492743816" lon="13.678900521575997"><ele>865.0</ele><time>2026-05-03T08:13:39Z</time></trkpt><trkpt lat="42.27348589773782" lon="13.679022534030251"><ele>865.0</ele><time>2026-05-03T08:13:40Z</time></trkpt><trkpt lat="42.27340966245618" lon="13.679143887045512"><ele>865.0</ele><time>2026-05-03T08:13:41Z</time></trkpt><trkpt lat="42.27333872666253" lon="13.679271708921414"><ele>865.0</ele><time>2026-05-03T08:13:42Z</time></trkpt><trkpt lat="42.27327069406904" lon="13.67940436466882"><ele>865.0</ele><time>2026-05-03T08:13:43Z</time></trkpt><trkpt lat="42.273208752993156" lon="13.679541429065205"><ele>868.0</ele><time>2026-05-03T08:13:44Z</time></trkpt><trkpt lat="42.273155180213614" lon="13.679681933037962"><ele>871.0</ele><time>2026-05-03T08:13:45Z</time></trkpt><trkpt lat="42.27310511210369" lon="13.67982127124399"><ele>874.0</ele><time>2026-05-03T08:13:46Z</time></trkpt><trkpt lat="42.27305579326922" lon="13.679955879203325"><ele>877.0</ele><time>2026-05-03T08:13:47Z</time></trkpt><trkpt lat="42.27301002903912" lon="13.680094160453836"><ele>873.5</ele><time>2026-05-03T08:13:48Z</time></trkpt><trkpt lat="42.27296341552232" lon="13.680240822327207"><ele>870.0</ele><time>2026-05-03T08:13:49Z</time></trkpt><trkpt lat="42.272912636285824" lon="13.680384629735828"><ele>866.5</ele><time>2026-05-03T08:13:50Z</time></trkpt><trkpt lat="42.272856132196495" lon="13.680530656453062"><ele>863.0</ele><time>2026-05-03T08:13:51Z</time></trkpt><trkpt lat="42.272798186730014" lon="13.680680707800718"><ele>863.0</ele><time>2026-05-03T08:13:52Z</time></trkpt><trkpt lat="42.27273877957507" lon="13.680830406376124"><ele>863.0</ele><time>2026-05-03T08:13:53Z</time></trkpt><trkpt lat="42.27268005132863" lon="13.680982722828412"><ele>863.0</ele><time>2026-05-03T08:13:54Z</time></trkpt><trkpt lat="42.272623155124215" lon="13.681132658524549"><ele>863.0</ele><time>2026-05-03T08:13:55Z</time></trkpt><trkpt lat="42.27256430425325" lon="13.681274521295464"><ele>865.75</ele><time>2026-05-03T08:13:56Z</time></trkpt><trkpt lat="42.27250798882253" lon="13.68141080044944"><ele>868.5</ele><time>2026-05-03T08:13:57Z</time></trkpt><trkpt lat="42.272457749051185" lon="13.68154120942955"><ele>871.25</ele><time>2026-05-03T08:13:58Z</time></trkpt><trkpt lat="42.27240397736937" lon="13.681674544666167"><ele>874.0</ele><time>2026-05-03T08:13:59Z</time></trkpt><trkpt lat="42.272348068959325" lon="13.681816830061736"><ele>871.25</ele><time>2026-05-03T08:14:00Z</time></trkpt><trkpt lat="42.27229177159586" lon="13.68195813468445"><ele>868.5</ele><time>2026-05-03T08:14:01Z</time></trkpt><trkpt lat="42.272238487118955" lon="13.682098165862048"><ele>865.75</ele><time>2026-05-03T08:14:02Z</time></trkpt><trkpt lat="42.27218725222155" lon="13.682236056742429"><ele>863.0</ele><time>2026-05-03T08:14:03Z</time></trkpt><trkpt lat="42.27213634481891" lon="13.682369374837755"><ele>863.0</ele><time>2026-05-03T08:14:04Z</time></trkpt><trkpt lat="42.27208168328045" lon="13.682499919669235"><ele>863.0</ele><time>2026-05-03T08:14:05Z</time></trkpt><trkpt lat="42.272034395093364" lon="13.682627071548342"><ele>863.0</ele><time>2026-05-03T08:14:06.001Z</time></trkpt><trkpt lat="42.271985492657336" lon="13.682748299377705"><ele>863.0</ele><time>2026-05-03T08:14:07.001Z</time></trkpt><trkpt lat="42.2719392643341" lon="13.682869406163938"><ele>863.0</ele><time>2026-05-03T08:14:08.001Z</time></trkpt><trkpt lat="42.271893097904915" lon="13.682986846876142"><ele>864.8</ele><time>2026-05-03T08:14:09.001Z</time></trkpt><trkpt lat="42.271847794664005" lon="13.683113043520507"><ele>866.5999999999999</ele><time>2026-05-03T08:14:10.001Z</time></trkpt><trkpt lat="42.27180508275851" lon="13.683234569728869"><ele>868.4000000000001</ele><time>2026-05-03T08:14:11.001Z</time></trkpt><trkpt lat="42.27177088651254" lon="13.683354530917141"><ele>870.2</ele><time>2026-05-03T08:14:12.001Z</time></trkpt><trkpt lat="42.271741265118564" lon="13.683472699895074"><ele>872.0</ele><time>2026-05-03T08:14:13.001Z</time></trkpt><trkpt lat="42.27170760083581" lon="13.683597256196217"><ele>874.8333333333334</ele><time>2026-05-03T08:14:14.001Z</time></trkpt><trkpt lat="42.27167348918508" lon="13.683715365818495"><ele>877.6666666666667</ele><time>2026-05-03T08:14:15.001Z</time></trkpt><trkpt lat="42.271644090082056" lon="13.683809280414126"><ele>880.5</ele><time>2026-05-03T08:14:16.001Z</time></trkpt><trkpt lat="42.27159296737756" lon="13.683963746233308"><ele>883.3333333333333</ele><time>2026-05-03T08:14:18.001Z</time></trkpt><trkpt lat="42.27156155827207" lon="13.684056692758606"><ele>886.1666666666666</ele><time>2026-05-03T08:14:19.001Z</time></trkpt><trkpt lat="42.27152682621758" lon="13.684138867521705"><ele>889.0</ele><time>2026-05-03T08:14:20.001Z</time></trkpt><trkpt lat="42.27148939834319" lon="13.684215459609845"><ele>888.9999999999999</ele><time>2026-05-03T08:14:21.001Z</time></trkpt><trkpt lat="42.27144745488396" lon="13.684285851195888"><ele>889.0</ele><time>2026-05-03T08:14:22.001Z</time></trkpt><trkpt lat="42.271401916820814" lon="13.684373878325319"><ele>889.0</ele><time>2026-05-03T08:14:23Z</time></trkpt><trkpt lat="42.271349642404395" lon="13.684451239519115"><ele>889.0</ele><time>2026-05-03T08:14:24Z</time></trkpt><trkpt lat="42.27128901278358" lon="13.684539057031888"><ele>888.9999999999999</ele><time>2026-05-03T08:14:25Z</time></trkpt><trkpt lat="42.27124357342954" lon="13.684611033945657"><ele>889.0</ele><time>2026-05-03T08:14:26Z</time></trkpt><trkpt lat="42.271200181564865" lon="13.684682470056972"><ele>888.4000000000001</ele><time>2026-05-03T08:14:27Z</time></trkpt><trkpt lat="42.27115164095723" lon="13.68476984473647"><ele>887.8000000000001</ele><time>2026-05-03T08:14:28Z</time></trkpt><trkpt lat="42.271092021436935" lon="13.684869879698605"><ele>887.1999999999999</ele><time>2026-05-03T08:14:29Z</time></trkpt><trkpt lat="42.27103994595177" lon="13.68496575056126"><ele>886.5999999999999</ele><time>2026-05-03T08:14:30Z</time></trkpt><trkpt lat="42.27097862597508" lon="13.685068365824016"><ele>886.0</ele><time>2026-05-03T08:14:31Z</time></trkpt><trkpt lat="42.27092475896576" lon="13.685163334959311"><ele>885.9999999999999</ele><time>2026-05-03T08:14:32Z</time></trkpt><trkpt lat="42.27088573341066" lon="13.685238582263656"><ele>886.0</ele><time>2026-05-03T08:14:33Z</time></trkpt><trkpt lat="42.27085302324104" lon="13.685322049830187"><ele>886.0</ele><time>2026-05-03T08:14:34Z</time></trkpt><trkpt lat="42.27081260732897" lon="13.685417923773088"><ele>886.0</ele><time>2026-05-03T08:14:35Z</time></trkpt><trkpt lat="42.27078123552102" lon="13.685494069893187"><ele>885.9999999999999</ele><time>2026-05-03T08:14:36Z</time></trkpt><trkpt lat="42.270735684260934" lon="13.68558883444861"><ele>886.0</ele><time>2026-05-03T08:14:37Z</time></trkpt><trkpt lat="42.270700861948896" lon="13.685698858907386"><ele>887.6666666666666</ele><time>2026-05-03T08:14:38Z</time></trkpt><trkpt lat="42.27066867003202" lon="13.685795476191863"><ele>889.3333333333333</ele><time>2026-05-03T08:14:39Z</time></trkpt><trkpt lat="42.270642465543595" lon="13.685897728957071"><ele>891.0</ele><time>2026-05-03T08:14:40Z</time></trkpt><trkpt lat="42.270615654301174" lon="13.6860018355061"><ele>892.6666666666667</ele><time>2026-05-03T08:14:41Z</time></trkpt><trkpt lat="42.27060528314865" lon="13.686119498770905"><ele>894.3333333333334</ele><time>2026-05-03T08:14:42Z</time></trkpt><trkpt lat="42.270606623411005" lon="13.686241053498481"><ele>896.0</ele><time>2026-05-03T08:14:43Z</time></trkpt><trkpt lat="42.27061854045145" lon="13.686359053752971"><ele>899.5000000000001</ele><time>2026-05-03T08:14:44Z</time></trkpt><trkpt lat="42.270632074334735" lon="13.68647852739956"><ele>903.0</ele><time>2026-05-03T08:14:45Z</time></trkpt><trkpt lat="42.27065411708451" lon="13.68660973292329"><ele>906.5</ele><time>2026-05-03T08:14:46Z</time></trkpt><trkpt lat="42.270678052679784" lon="13.686720038652501"><ele>910.0</ele><time>2026-05-03T08:14:47Z</time></trkpt><trkpt lat="42.270718381079206" lon="13.686825146048252"><ele>913.5000000000001</ele><time>2026-05-03T08:14:48Z</time></trkpt><trkpt lat="42.27074993642231" lon="13.686924464496162"><ele>917.0</ele><time>2026-05-03T08:14:49Z</time></trkpt><trkpt lat="42.270779190380004" lon="13.687053546314006"><ele>918.4000000000001</ele><time>2026-05-03T08:14:50Z</time></trkpt><trkpt lat="42.27079349200484" lon="13.687201468350636"><ele>919.8000000000001</ele><time>2026-05-03T08:14:51Z</time></trkpt><trkpt lat="42.2707909845537" lon="13.687338889141335"><ele>921.2</ele><time>2026-05-03T08:14:52Z</time></trkpt><trkpt lat="42.27078206990938" lon="13.68745936432667"><ele>922.6</ele><time>2026-05-03T08:14:53Z</time></trkpt><trkpt lat="42.27076434479468" lon="13.68757217711736"><ele>924.0</ele><time>2026-05-03T08:14:54Z</time></trkpt><trkpt lat="42.27074711666331" lon="13.687694609998433"><ele>923.2</ele><time>2026-05-03T08:14:55Z</time></trkpt><trkpt lat="42.27073790307456" lon="13.68782281840016"><ele>922.4000000000001</ele><time>2026-05-03T08:14:56Z</time></trkpt><trkpt lat="42.270721791890196" lon="13.687955770315591"><ele>921.6</ele><time>2026-05-03T08:14:57Z</time></trkpt><trkpt lat="42.2707264213407" lon="13.688044395211788"><ele>920.8</ele><time>2026-05-03T08:14:58Z</time></trkpt><trkpt lat="42.27076635472057" lon="13.688149485900716"><ele>920.0</ele><time>2026-05-03T08:15:00Z</time></trkpt><trkpt lat="42.270854034647506" lon="13.688218267991248"><ele>920.0000000000001</ele><time>2026-05-03T08:15:02Z</time></trkpt><trkpt lat="42.27096378465626" lon="13.688162525753851"><ele>920.0</ele><time>2026-05-03T08:15:04Z</time></trkpt><trkpt lat="42.2709957178392" lon="13.688082507325387"><ele>920.0</ele><time>2026-05-03T08:15:05Z</time></trkpt><trkpt lat="42.271011135651634" lon="13.687987877598411"><ele>920.0</ele><time>2026-05-03T08:15:06Z</time></trkpt><trkpt lat="42.271024176311535" lon="13.687893440027112"><ele>920.0000000000001</ele><time>2026-05-03T08:15:07Z</time></trkpt><trkpt lat="42.271036341699414" lon="13.687808891090766"><ele>920.0</ele><time>2026-05-03T08:15:08Z</time></trkpt><trkpt lat="42.27104986164901" lon="13.68771422195416"><ele>920.6666666666667</ele><time>2026-05-03T08:15:09Z</time></trkpt><trkpt lat="42.27106978829951" lon="13.687603739832218"><ele>921.3333333333334</ele><time>2026-05-03T08:15:10Z</time></trkpt><trkpt lat="42.271089659744845" lon="13.68747438006757"><ele>922.0</ele><time>2026-05-03T08:15:11Z</time></trkpt><trkpt lat="42.27111852759097" lon="13.687352333525874"><ele>922.6666666666667</ele><time>2026-05-03T08:15:12Z</time></trkpt><trkpt lat="42.27114991557123" lon="13.687233658424246"><ele>923.3333333333334</ele><time>2026-05-03T08:15:13Z</time></trkpt><trkpt lat="42.271179638805194" lon="13.687136217103708"><ele>924.0</ele><time>2026-05-03T08:15:14Z</time></trkpt><trkpt lat="42.27121545714916" lon="13.687047208492023"><ele>922.6</ele><time>2026-05-03T08:15:15Z</time></trkpt><trkpt lat="42.27128534042461" lon="13.686919424907083"><ele>921.2</ele><time>2026-05-03T08:15:17Z</time></trkpt><trkpt lat="42.271371202172375" lon="13.686827388982028"><ele>919.8000000000001</ele><time>2026-05-03T08:15:19Z</time></trkpt><trkpt lat="42.27144915107251" lon="13.686885141158788"><ele>918.4000000000001</ele><time>2026-05-03T08:15:21Z</time></trkpt><trkpt lat="42.271465933680616" lon="13.687039560227456"><ele>917.0</ele><time>2026-05-03T08:15:23Z</time></trkpt><trkpt lat="42.27144980188922" lon="13.687127533554882"><ele>917.5000000000001</ele><time>2026-05-03T08:15:24Z</time></trkpt><trkpt lat="42.27139018492354" lon="13.687269710909659"><ele>918.0</ele><time>2026-05-03T08:15:26Z</time></trkpt><trkpt lat="42.27136274178605" lon="13.687354716224437"><ele>918.5</ele><time>2026-05-03T08:15:27Z</time></trkpt><trkpt lat="42.27135837561592" lon="13.687443815542933"><ele>919.0</ele><time>2026-05-03T08:15:28Z</time></trkpt><trkpt lat="42.271365464189024" lon="13.687554358175102"><ele>919.5000000000001</ele><time>2026-05-03T08:15:29Z</time></trkpt><trkpt lat="42.27137411632772" lon="13.687663727084342"><ele>920.0</ele><time>2026-05-03T08:15:30Z</time></trkpt><trkpt lat="42.271391119451444" lon="13.687778108006722"><ele>919.9999999999999</ele><time>2026-05-03T08:15:31Z</time></trkpt><trkpt lat="42.27140807710563" lon="13.687887405303131"><ele>920.0</ele><time>2026-05-03T08:15:32Z</time></trkpt><trkpt lat="42.27143358454632" lon="13.687985381328291"><ele>919.9999999999999</ele><time>2026-05-03T08:15:33Z</time></trkpt><trkpt lat="42.271468626710764" lon="13.688073935090275"><ele>919.9999999999999</ele><time>2026-05-03T08:15:34Z</time></trkpt><trkpt lat="42.27151690007674" lon="13.688146212451393"><ele>920.0</ele><time>2026-05-03T08:15:35Z</time></trkpt><trkpt lat="42.27156867668952" lon="13.688204674028652"><ele>919.9999999999999</ele><time>2026-05-03T08:15:36Z</time></trkpt><trkpt lat="42.271625114627824" lon="13.68825384591499"><ele>919.9999999999999</ele><time>2026-05-03T08:15:37Z</time></trkpt><trkpt lat="42.27168922711023" lon="13.688293410629269"><ele>923.142857142857</ele><time>2026-05-03T08:15:38Z</time></trkpt><trkpt lat="42.27176085466269" lon="13.68831513791711"><ele>926.2857142857142</ele><time>2026-05-03T08:15:39Z</time></trkpt><trkpt lat="42.27182253903175" lon="13.688333519241148"><ele>929.4285714285714</ele><time>2026-05-03T08:15:40Z</time></trkpt><trkpt lat="42.2718872722651" lon="13.688351631541959"><ele>932.5714285714286</ele><time>2026-05-03T08:15:41Z</time></trkpt><trkpt lat="42.27195186974168" lon="13.688384016265454"><ele>935.7142857142858</ele><time>2026-05-03T08:15:42Z</time></trkpt><trkpt lat="42.272018323396544" lon="13.688420788612241"><ele>938.857142857143</ele><time>2026-05-03T08:15:43Z</time></trkpt><trkpt lat="42.272088504230574" lon="13.688456053025565"><ele>942.0000000000001</ele><time>2026-05-03T08:15:44Z</time></trkpt><trkpt lat="42.2721719720758" lon="13.688492461778836"><ele>942.0</ele><time>2026-05-03T08:15:45Z</time></trkpt><trkpt lat="42.272259009739436" lon="13.688533941527139"><ele>942.0</ele><time>2026-05-03T08:15:46Z</time></trkpt><trkpt lat="42.2723496109437" lon="13.688574999780716"><ele>942.0</ele><time>2026-05-03T08:15:47Z</time></trkpt><trkpt lat="42.27243819966142" lon="13.68862130944294"><ele>942.0</ele><time>2026-05-03T08:15:48Z</time></trkpt><trkpt lat="42.272529411393606" lon="13.68868106563989"><ele>942.0</ele><time>2026-05-03T08:15:49Z</time></trkpt><trkpt lat="42.27261527675127" lon="13.688742676125194"><ele>940.8</ele><time>2026-05-03T08:15:50Z</time></trkpt><trkpt lat="42.27270047016542" lon="13.688808819231001"><ele>939.6</ele><time>2026-05-03T08:15:51Z</time></trkpt><trkpt lat="42.272785732675246" lon="13.688880711421625"><ele>938.3999999999999</ele><time>2026-05-03T08:15:52Z</time></trkpt><trkpt lat="42.27287300121995" lon="13.688959141790825"><ele>937.1999999999999</ele><time>2026-05-03T08:15:53Z</time></trkpt><trkpt lat="42.27295949019537" lon="13.689041121961106"><ele>936.0</ele><time>2026-05-03T08:15:54Z</time></trkpt><trkpt lat="42.27304245547369" lon="13.689120435568285"><ele>936.1666666666666</ele><time>2026-05-03T08:15:55Z</time></trkpt><trkpt lat="42.27311737304547" lon="13.689206618922906"><ele>936.3333333333333</ele><time>2026-05-03T08:15:56Z</time></trkpt><trkpt lat="42.27319012599878" lon="13.689281990406057"><ele>936.5</ele><time>2026-05-03T08:15:57Z</time></trkpt><trkpt lat="42.273262130604664" lon="13.689359013180697"><ele>936.6666666666666</ele><time>2026-05-03T08:15:58Z</time></trkpt><trkpt lat="42.27332581113348" lon="13.68942040578189"><ele>936.8333333333333</ele><time>2026-05-03T08:15:59Z</time></trkpt><trkpt lat="42.27339169968897" lon="13.68947682653039"><ele>937.0</ele><time>2026-05-03T08:16:00Z</time></trkpt><trkpt lat="42.27346706888307" lon="13.68951265980765"><ele>936.9999999999999</ele><time>2026-05-03T08:16:01Z</time></trkpt><trkpt lat="42.273547539720184" lon="13.689521916644315"><ele>937.0</ele><time>2026-05-03T08:16:02Z</time></trkpt><trkpt lat="42.27363383633688" lon="13.689519247564029"><ele>937.0</ele><time>2026-05-03T08:16:03Z</time></trkpt><trkpt lat="42.27371932557752" lon="13.689507669120832"><ele>937.0</ele><time>2026-05-03T08:16:04Z</time></trkpt><trkpt lat="42.273789117156305" lon="13.68947989777003"><ele>936.9999999999999</ele><time>2026-05-03T08:16:05Z</time></trkpt><trkpt lat="42.273860962151616" lon="13.689445977665986"><ele>937.0</ele><time>2026-05-03T08:16:06Z</time></trkpt><trkpt lat="42.27392195578701" lon="13.689404773642181"><ele>940.6666666666666</ele><time>2026-05-03T08:16:07Z</time></trkpt><trkpt lat="42.273988978897435" lon="13.689347801518547"><ele>944.3333333333333</ele><time>2026-05-03T08:16:08Z</time></trkpt><trkpt lat="42.2740538841793" lon="13.689279072962488"><ele>948.0</ele><time>2026-05-03T08:16:09Z</time></trkpt><trkpt lat="42.27411884742997" lon="13.68921319693957"><ele>951.6666666666667</ele><time>2026-05-03T08:16:10Z</time></trkpt><trkpt lat="42.27419120984856" lon="13.689143407583185"><ele>955.3333333333334</ele><time>2026-05-03T08:16:11Z</time></trkpt><trkpt lat="42.2742605552368" lon="13.689077417157588"><ele>959.0</ele><time>2026-05-03T08:16:12Z</time></trkpt><trkpt lat="42.274331471146965" lon="13.689013012126054"><ele>959.0000000000001</ele><time>2026-05-03T08:16:13Z</time></trkpt><trkpt lat="42.274399848406404" lon="13.68896537254507"><ele>959.0</ele><time>2026-05-03T08:16:14Z</time></trkpt><trkpt lat="42.27447554275661" lon="13.68891103365133"><ele>959.0</ele><time>2026-05-03T08:16:15Z</time></trkpt><trkpt lat="42.274552613723394" lon="13.68886451009486"><ele>959.0</ele><time>2026-05-03T08:16:16Z</time></trkpt><trkpt lat="42.27462861670262" lon="13.688824752525942"><ele>959.0000000000001</ele><time>2026-05-03T08:16:17Z</time></trkpt><trkpt lat="42.274709818088695" lon="13.688789568759551"><ele>959.0</ele><time>2026-05-03T08:16:18Z</time></trkpt><trkpt lat="42.274789540788944" lon="13.688752092913832"><ele>958.6</ele><time>2026-05-03T08:16:19Z</time></trkpt><trkpt lat="42.27487156601018" lon="13.688714862000541"><ele>958.2</ele><time>2026-05-03T08:16:20Z</time></trkpt><trkpt lat="42.27495830581024" lon="13.688666911641615"><ele>957.8000000000001</ele><time>2026-05-03T08:16:21Z</time></trkpt><trkpt lat="42.275059597237195" lon="13.688610870652589"><ele>957.4000000000001</ele><time>2026-05-03T08:16:22Z</time></trkpt><trkpt lat="42.275156717784654" lon="13.688550185662042"><ele>957.0</ele><time>2026-05-03T08:16:23Z</time></trkpt><trkpt lat="42.2752535977084" lon="13.688493526945068"><ele>958.0</ele><time>2026-05-03T08:16:24Z</time></trkpt><trkpt lat="42.27534933382543" lon="13.688443087606394"><ele>959.0</ele><time>2026-05-03T08:16:25Z</time></trkpt><trkpt lat="42.275446542524904" lon="13.688398239608935"><ele>960.0</ele><time>2026-05-03T08:16:26Z</time></trkpt><trkpt lat="42.27554619363495" lon="13.68835418255541"><ele>961.0</ele><time>2026-05-03T08:16:27Z</time></trkpt><trkpt lat="42.27564389077117" lon="13.68831696731122"><ele>962.0</ele><time>2026-05-03T08:16:28Z</time></trkpt><trkpt lat="42.27574230292893" lon="13.688283362448173"><ele>962.0</ele><time>2026-05-03T08:16:29Z</time></trkpt><trkpt lat="42.27583642188081" lon="13.688236230722175"><ele>962.0</ele><time>2026-05-03T08:16:30Z</time></trkpt><trkpt lat="42.275926591416734" lon="13.688175055477771"><ele>962.0</ele><time>2026-05-03T08:16:31Z</time></trkpt><trkpt lat="42.27601953994691" lon="13.688102810892943"><ele>962.0</ele><time>2026-05-03T08:16:32Z</time></trkpt><trkpt lat="42.276113920944404" lon="13.68802391889523"><ele>962.0</ele><time>2026-05-03T08:16:33Z</time></trkpt><trkpt lat="42.276208618453055" lon="13.6879506504703"><ele>962.0</ele><time>2026-05-03T08:16:34Z</time></trkpt><trkpt lat="42.276300985266445" lon="13.687883290530142"><ele>962.0</ele><time>2026-05-03T08:16:35Z</time></trkpt><trkpt lat="42.27639516550703" lon="13.687813621800553"><ele>962.0</ele><time>2026-05-03T08:16:36Z</time></trkpt><trkpt lat="42.27648916056002" lon="13.687742840828925"><ele>962.0</ele><time>2026-05-03T08:16:37Z</time></trkpt><trkpt lat="42.276586705872035" lon="13.687667114451656"><ele>962.0</ele><time>2026-05-03T08:16:38Z</time></trkpt><trkpt lat="42.27668310512258" lon="13.687595667273301"><ele>963.4000000000001</ele><time>2026-05-03T08:16:39Z</time></trkpt><trkpt lat="42.27677848642887" lon="13.687526534193607"><ele>964.8000000000001</ele><time>2026-05-03T08:16:40Z</time></trkpt><trkpt lat="42.27687374041291" lon="13.687461221927892"><ele>966.2</ele><time>2026-05-03T08:16:41Z</time></trkpt><trkpt lat="42.27696841651203" lon="13.68739791403219"><ele>967.6</ele><time>2026-05-03T08:16:42Z</time></trkpt><trkpt lat="42.277058753525694" lon="13.687342729305488"><ele>969.0</ele><time>2026-05-03T08:16:43Z</time></trkpt><trkpt lat="42.27714694608739" lon="13.687291159213617"><ele>969.0</ele><time>2026-05-03T08:16:44Z</time></trkpt><trkpt lat="42.2772372852008" lon="13.68723438926691"><ele>969.0</ele><time>2026-05-03T08:16:45Z</time></trkpt><trkpt lat="42.27732222505576" lon="13.687177224353068"><ele>969.0</ele><time>2026-05-03T08:16:46Z</time></trkpt><trkpt lat="42.277401822810845" lon="13.6871190247033"><ele>969.0</ele><time>2026-05-03T08:16:47Z</time></trkpt><trkpt lat="42.27746740884207" lon="13.687057815030412"><ele>969.0</ele><time>2026-05-03T08:16:48Z</time></trkpt><trkpt lat="42.2775310222245" lon="13.686985739274702"><ele>969.0</ele><time>2026-05-03T08:16:49Z</time></trkpt><trkpt lat="42.27758711562262" lon="13.686923069901358"><ele>968.0</ele><time>2026-05-03T08:16:50Z</time></trkpt><trkpt lat="42.277669878469744" lon="13.686856094143286"><ele>967.0000000000001</ele><time>2026-05-03T08:16:52Z</time></trkpt><trkpt lat="42.27771607839007" lon="13.68696770600491"><ele>966.0000000000001</ele><time>2026-05-03T08:17:05Z</time></trkpt><trkpt lat="42.27771944034974" lon="13.687105110991844"><ele>965.0</ele><time>2026-05-03T08:17:07Z</time></trkpt><trkpt lat="42.27773809006168" lon="13.687243162741888"><ele>964.0</ele><time>2026-05-03T08:17:09Z</time></trkpt><trkpt lat="42.27775879037624" lon="13.687372172473196"><ele>963.9999999999999</ele><time>2026-05-03T08:17:11Z</time></trkpt><trkpt lat="42.27770077255768" lon="13.687509565898537"><ele>964.0</ele><time>2026-05-03T08:17:13Z</time></trkpt><trkpt lat="42.277662306685556" lon="13.687593432917947"><ele>964.0</ele><time>2026-05-03T08:17:14Z</time></trkpt><trkpt lat="42.277644131285086" lon="13.687688649366859"><ele>964.0</ele><time>2026-05-03T08:17:15Z</time></trkpt><trkpt lat="42.277624500856106" lon="13.687774505110838"><ele>963.9999999999999</ele><time>2026-05-03T08:17:16Z</time></trkpt><trkpt lat="42.27758122251627" lon="13.687914924975832"><ele>964.0</ele><time>2026-05-03T08:17:18Z</time></trkpt><trkpt lat="42.27749547963488" lon="13.688041147879208"><ele>963.2857142857143</ele><time>2026-05-03T08:17:20Z</time></trkpt><trkpt lat="42.277450604278684" lon="13.6881122628982"><ele>962.5714285714287</ele><time>2026-05-03T08:17:21Z</time></trkpt><trkpt lat="42.277421470704475" lon="13.688188811749571"><ele>961.8571428571429</ele><time>2026-05-03T08:17:22Z</time></trkpt><trkpt lat="42.27739855828703" lon="13.688293009102098"><ele>961.1428571428571</ele><time>2026-05-03T08:17:24Z</time></trkpt><trkpt lat="42.277456304773104" lon="13.688343940084973"><ele>960.4285714285714</ele><time>2026-05-03T08:17:26Z</time></trkpt><trkpt lat="42.27751653398511" lon="13.688370384021445"><ele>959.7142857142858</ele><time>2026-05-03T08:17:27Z</time></trkpt><trkpt lat="42.27758954437175" lon="13.688384659576434"><ele>959.0</ele><time>2026-05-03T08:17:28Z</time></trkpt><trkpt lat="42.27766451665726" lon="13.688384764164258"><ele>959.0000000000001</ele><time>2026-05-03T08:17:29Z</time></trkpt><trkpt lat="42.27773302956039" lon="13.688393963791379"><ele>959.0</ele><time>2026-05-03T08:17:30Z</time></trkpt><trkpt lat="42.27779770757585" lon="13.688424704485914"><ele>959.0</ele><time>2026-05-03T08:17:31Z</time></trkpt><trkpt lat="42.2778645096692" lon="13.688474417310433"><ele>959.0</ele><time>2026-05-03T08:17:32Z</time></trkpt><trkpt lat="42.27794074717131" lon="13.688524041255189"><ele>959.0000000000001</ele><time>2026-05-03T08:17:33Z</time></trkpt><trkpt lat="42.27801952873468" lon="13.688557431932136"><ele>959.0</ele><time>2026-05-03T08:17:34Z</time></trkpt><trkpt lat="42.27809737193874" lon="13.688577523844936"><ele>958.3333333333334</ele><time>2026-05-03T08:17:35Z</time></trkpt><trkpt lat="42.278180710429034" lon="13.688594765764318"><ele>957.6666666666667</ele><time>2026-05-03T08:17:36Z</time></trkpt><trkpt lat="42.278255456716195" lon="13.688624700911298"><ele>957.0</ele><time>2026-05-03T08:17:37Z</time></trkpt><trkpt lat="42.27832204638661" lon="13.688670324126916"><ele>956.3333333333333</ele><time>2026-05-03T08:17:38Z</time></trkpt><trkpt lat="42.27839081202298" lon="13.688718756108791"><ele>955.6666666666666</ele><time>2026-05-03T08:17:39Z</time></trkpt><trkpt lat="42.27845536497515" lon="13.688772171964358"><ele>955.0</ele><time>2026-05-03T08:17:40Z</time></trkpt><trkpt lat="42.27851956402069" lon="13.688837807962779"><ele>955.0</ele><time>2026-05-03T08:17:41Z</time></trkpt><trkpt lat="42.278586024032364" lon="13.688924868144188"><ele>955.0</ele><time>2026-05-03T08:17:42Z</time></trkpt><trkpt lat="42.2786511414884" lon="13.689031391688783"><ele>955.0</ele><time>2026-05-03T08:17:43Z</time></trkpt><trkpt lat="42.27871042320306" lon="13.68912543991245"><ele>955.0</ele><time>2026-05-03T08:17:44Z</time></trkpt><trkpt lat="42.27877597175461" lon="13.689215039823285"><ele>955.0</ele><time>2026-05-03T08:17:45Z</time></trkpt><trkpt lat="42.278837538868494" lon="13.689306725909422"><ele>954.9999999999999</ele><time>2026-05-03T08:17:46Z</time></trkpt><trkpt lat="42.27890854971101" lon="13.689390438327587"><ele>955.0</ele><time>2026-05-03T08:17:47Z</time></trkpt><trkpt lat="42.27897536090236" lon="13.68947177437526"><ele>955.0</ele><time>2026-05-03T08:17:48Z</time></trkpt><trkpt lat="42.27903699065273" lon="13.689548581692982"><ele>955.0</ele><time>2026-05-03T08:17:49Z</time></trkpt><trkpt lat="42.27908828887794" lon="13.68962662155889"><ele>954.9999999999999</ele><time>2026-05-03T08:17:50Z</time></trkpt><trkpt lat="42.279149465448945" lon="13.689713030553426"><ele>955.0</ele><time>2026-05-03T08:17:51Z</time></trkpt><trkpt lat="42.27921831267466" lon="13.689782057677835"><ele>955.6666666666666</ele><time>2026-05-03T08:17:52Z</time></trkpt><trkpt lat="42.279292958021905" lon="13.689827897843594"><ele>956.3333333333333</ele><time>2026-05-03T08:17:53Z</time></trkpt><trkpt lat="42.27937370624473" lon="13.689843855795898"><ele>957.0</ele><time>2026-05-03T08:17:54Z</time></trkpt><trkpt lat="42.279450426939356" lon="13.689840811835154"><ele>957.6666666666667</ele><time>2026-05-03T08:17:55Z</time></trkpt><trkpt lat="42.27951939708544" lon="13.689838289302182"><ele>958.3333333333334</ele><time>2026-05-03T08:17:56Z</time></trkpt><trkpt lat="42.27962288254442" lon="13.689913216852952"><ele>959.0</ele><time>2026-05-03T08:17:58Z</time></trkpt><trkpt lat="42.279668091848066" lon="13.68999497734787"><ele>959.0000000000001</ele><time>2026-05-03T08:17:59Z</time></trkpt><trkpt lat="42.279707702807414" lon="13.690070646061427"><ele>959.0</ele><time>2026-05-03T08:18:00Z</time></trkpt><trkpt lat="42.279748613358926" lon="13.69014103987666"><ele>959.0</ele><time>2026-05-03T08:18:01Z</time></trkpt><trkpt lat="42.279863301848074" lon="13.690225947399398"><ele>959.0</ele><time>2026-05-03T08:18:03Z</time></trkpt><trkpt lat="42.27993297018236" lon="13.690259948194962"><ele>959.0000000000001</ele><time>2026-05-03T08:18:04Z</time></trkpt><trkpt lat="42.2799942470816" lon="13.690287254467398"><ele>959.0</ele><time>2026-05-03T08:18:05Z</time></trkpt><trkpt lat="42.280127838709426" lon="13.690294688386388"><ele>959.4285714285714</ele><time>2026-05-03T08:18:07Z</time></trkpt><trkpt lat="42.28020244125675" lon="13.69030399474917"><ele>959.8571428571429</ele><time>2026-05-03T08:18:08Z</time></trkpt><trkpt lat="42.28027944118753" lon="13.6903274637968"><ele>960.2857142857142</ele><time>2026-05-03T08:18:09Z</time></trkpt><trkpt lat="42.28034211791052" lon="13.690357861886032"><ele>960.7142857142857</ele><time>2026-05-03T08:18:10Z</time></trkpt><trkpt lat="42.280399671215775" lon="13.690412506624114"><ele>961.1428571428571</ele><time>2026-05-03T08:18:11Z</time></trkpt><trkpt lat="42.28044277242789" lon="13.690484949147105"><ele>961.5714285714284</ele><time>2026-05-03T08:18:12Z</time></trkpt><trkpt lat="42.28047959224713" lon="13.69057515003409"><ele>961.9999999999999</ele><time>2026-05-03T08:18:13Z</time></trkpt><trkpt lat="42.280516053670986" lon="13.690666464205401"><ele>962.0000000000001</ele><time>2026-05-03T08:18:14Z</time></trkpt><trkpt lat="42.28053818460689" lon="13.690769644056795"><ele>962.0</ele><time>2026-05-03T08:18:15Z</time></trkpt><trkpt lat="42.28054893501797" lon="13.690868211418161"><ele>962.0</ele><time>2026-05-03T08:18:16Z</time></trkpt><trkpt lat="42.280552593670556" lon="13.690979382481931"><ele>962.0</ele><time>2026-05-03T08:18:17Z</time></trkpt><trkpt lat="42.28055305292624" lon="13.691094688443108"><ele>962.0000000000001</ele><time>2026-05-03T08:18:18Z</time></trkpt><trkpt lat="42.280544411361724" lon="13.691212122497001"><ele>962.0</ele><time>2026-05-03T08:18:19Z</time></trkpt><trkpt lat="42.28052998667735" lon="13.691322842543777"><ele>962.5000000000001</ele><time>2026-05-03T08:18:20Z</time></trkpt><trkpt lat="42.28051100425062" lon="13.691439502302899"><ele>963.0</ele><time>2026-05-03T08:18:21Z</time></trkpt><trkpt lat="42.28049175487911" lon="13.691543145925174"><ele>963.5</ele><time>2026-05-03T08:18:22Z</time></trkpt><trkpt lat="42.280469855817856" lon="13.691630503362568"><ele>964.0</ele><time>2026-05-03T08:18:23Z</time></trkpt><trkpt lat="42.28043684075592" lon="13.691722286203284"><ele>964.5000000000001</ele><time>2026-05-03T08:18:24Z</time></trkpt><trkpt lat="42.280395691816715" lon="13.69182071993443"><ele>965.0</ele><time>2026-05-03T08:18:25Z</time></trkpt><trkpt lat="42.28035286356011" lon="13.69193354129697"><ele>967.6</ele><time>2026-05-03T08:18:26Z</time></trkpt><trkpt lat="42.28032215844978" lon="13.692053824940452"><ele>970.2</ele><time>2026-05-03T08:18:27Z</time></trkpt><trkpt lat="42.28028480968047" lon="13.692172642590265"><ele>972.8</ele><time>2026-05-03T08:18:28Z</time></trkpt><trkpt lat="42.28024489460896" lon="13.69228666379372"><ele>975.4</ele><time>2026-05-03T08:18:29Z</time></trkpt><trkpt lat="42.28019834076874" lon="13.692400429520983"><ele>978.0</ele><time>2026-05-03T08:18:30Z</time></trkpt><trkpt lat="42.28015710583505" lon="13.692519149576913"><ele>978.0</ele><time>2026-05-03T08:18:31Z</time></trkpt><trkpt lat="42.280109127486824" lon="13.692621387005794"><ele>978.0</ele><time>2026-05-03T08:18:32Z</time></trkpt><trkpt lat="42.28007719066762" lon="13.692708638209886"><ele>978.0</ele><time>2026-05-03T08:18:33Z</time></trkpt><trkpt lat="42.28004856963171" lon="13.692807536896533"><ele>978.0</ele><time>2026-05-03T08:18:34Z</time></trkpt><trkpt lat="42.28000915811719" lon="13.692974028069429"><ele>978.0</ele><time>2026-05-03T08:18:36Z</time></trkpt><trkpt lat="42.28002051165816" lon="13.693068205078363"><ele>978.0</ele><time>2026-05-03T08:18:37Z</time></trkpt><trkpt lat="42.28003412571737" lon="13.693169233773423"><ele>978.6666666666666</ele><time>2026-05-03T08:18:38Z</time></trkpt><trkpt lat="42.28005312728924" lon="13.693301392960244"><ele>979.3333333333333</ele><time>2026-05-03T08:18:40Z</time></trkpt><trkpt lat="42.28006468527093" lon="13.693444841557078"><ele>980.0</ele><time>2026-05-03T08:18:42Z</time></trkpt><trkpt lat="42.28007042308635" lon="13.693545680905633"><ele>980.6666666666666</ele><time>2026-05-03T08:18:43Z</time></trkpt><trkpt lat="42.28006971855305" lon="13.693653559984995"><ele>981.3333333333333</ele><time>2026-05-03T08:18:44Z</time></trkpt><trkpt lat="42.28006485973096" lon="13.693760158247064"><ele>982.0</ele><time>2026-05-03T08:18:45Z</time></trkpt><trkpt lat="42.280065851742584" lon="13.693862681387975"><ele>981.9999999999999</ele><time>2026-05-03T08:18:46Z</time></trkpt><trkpt lat="42.28006977750043" lon="13.693970275728681"><ele>982.0</ele><time>2026-05-03T08:18:47Z</time></trkpt><trkpt lat="42.28007267155143" lon="13.694070975302415"><ele>982.0</ele><time>2026-05-03T08:18:48Z</time></trkpt><trkpt lat="42.28006812309784" lon="13.694156965266748"><ele>982.0</ele><time>2026-05-03T08:18:49Z</time></trkpt><trkpt lat="42.28005871972963" lon="13.694251253333476"><ele>981.9999999999999</ele><time>2026-05-03T08:18:50Z</time></trkpt><trkpt lat="42.28004691286792" lon="13.69437272522616"><ele>982.0</ele><time>2026-05-03T08:18:51Z</time></trkpt><trkpt lat="42.28004498411165" lon="13.69449241714273"><ele>981.2857142857142</ele><time>2026-05-03T08:18:52Z</time></trkpt><trkpt lat="42.28004292049081" lon="13.694599276423219"><ele>980.5714285714284</ele><time>2026-05-03T08:18:53Z</time></trkpt><trkpt lat="42.28003610587537" lon="13.694689887054679"><ele>979.8571428571429</ele><time>2026-05-03T08:18:54Z</time></trkpt><trkpt lat="42.28002299474249" lon="13.694777966940618"><ele>979.1428571428571</ele><time>2026-05-03T08:18:55Z</time></trkpt><trkpt lat="42.28000185838495" lon="13.694866162138515"><ele>978.4285714285714</ele><time>2026-05-03T08:18:56Z</time></trkpt><trkpt lat="42.279982770631975" lon="13.694952917111863"><ele>977.7142857142858</ele><time>2026-05-03T08:18:57Z</time></trkpt><trkpt lat="42.27997731549814" lon="13.695049176773656"><ele>977.0000000000001</ele><time>2026-05-03T08:18:58Z</time></trkpt><trkpt lat="42.27998973349753" lon="13.695144660748655"><ele>977.0</ele><time>2026-05-03T08:18:59Z</time></trkpt><trkpt lat="42.28001416842725" lon="13.695238941316145"><ele>977.0</ele><time>2026-05-03T08:19:00Z</time></trkpt><trkpt lat="42.2800482125307" lon="13.695328639641469"><ele>977.0</ele><time>2026-05-03T08:19:01Z</time></trkpt><trkpt lat="42.28007997547668" lon="13.695411264230225"><ele>977.0</ele><time>2026-05-03T08:19:02Z</time></trkpt><trkpt lat="42.280156403109316" lon="13.695528515652374"><ele>977.0</ele><time>2026-05-03T08:19:04Z</time></trkpt><trkpt lat="42.28025628205427" lon="13.695610968635982"><ele>975.8333333333334</ele><time>2026-05-03T08:19:06Z</time></trkpt><trkpt lat="42.280322604940686" lon="13.695665404696388"><ele>974.6666666666667</ele><time>2026-05-03T08:19:07Z</time></trkpt><trkpt lat="42.2803737402326" lon="13.69572225690924"><ele>973.5</ele><time>2026-05-03T08:19:08Z</time></trkpt><trkpt lat="42.28045912614133" lon="13.69582275473523"><ele>972.3333333333333</ele><time>2026-05-03T08:19:10Z</time></trkpt><trkpt lat="42.28051749542509" lon="13.695860149197559"><ele>971.1666666666666</ele><time>2026-05-03T08:19:11Z</time></trkpt><trkpt lat="42.28058210740698" lon="13.695911004556232"><ele>970.0</ele><time>2026-05-03T08:19:12Z</time></trkpt><trkpt lat="42.280646337798174" lon="13.695952445468674"><ele>972.6666666666666</ele><time>2026-05-03T08:19:13Z</time></trkpt><trkpt lat="42.28076106389779" lon="13.695964478904921"><ele>975.3333333333333</ele><time>2026-05-03T08:19:15Z</time></trkpt><trkpt lat="42.28083069176825" lon="13.695940500270554"><ele>978.0</ele><time>2026-05-03T08:19:16Z</time></trkpt><trkpt lat="42.28089984253484" lon="13.695921918235097"><ele>980.6666666666667</ele><time>2026-05-03T08:19:17Z</time></trkpt><trkpt lat="42.28097442698209" lon="13.695912337268664"><ele>983.3333333333334</ele><time>2026-05-03T08:19:18Z</time></trkpt><trkpt lat="42.28103608205828" lon="13.695881149804137"><ele>986.0</ele><time>2026-05-03T08:19:19Z</time></trkpt><trkpt lat="42.28110658807025" lon="13.695843915144534"><ele>986.0000000000001</ele><time>2026-05-03T08:19:20Z</time></trkpt><trkpt lat="42.28117501438818" lon="13.695795458006998"><ele>986.0</ele><time>2026-05-03T08:19:21Z</time></trkpt><trkpt lat="42.281241066901714" lon="13.695748971030705"><ele>986.0</ele><time>2026-05-03T08:19:22Z</time></trkpt><trkpt lat="42.281307422308466" lon="13.695730233606112"><ele>986.0</ele><time>2026-05-03T08:19:23Z</time></trkpt><trkpt lat="42.28138780927767" lon="13.695776196292838"><ele>986.0000000000001</ele><time>2026-05-03T08:19:25Z</time></trkpt><trkpt lat="42.28142178901687" lon="13.695911065959463"><ele>986.0</ele><time>2026-05-03T08:19:27Z</time></trkpt><trkpt lat="42.281452189809634" lon="13.69599826660131"><ele>986.3333333333334</ele><time>2026-05-03T08:19:28Z</time></trkpt><trkpt lat="42.28149437835407" lon="13.696085288806152"><ele>986.6666666666667</ele><time>2026-05-03T08:19:29Z</time></trkpt><trkpt lat="42.281538219377175" lon="13.696161386945285"><ele>987.0</ele><time>2026-05-03T08:19:30Z</time></trkpt><trkpt lat="42.28157922253951" lon="13.696235762484937"><ele>987.3333333333333</ele><time>2026-05-03T08:19:31Z</time></trkpt><trkpt lat="42.28163849386019" lon="13.696356701491288"><ele>987.6666666666666</ele><time>2026-05-03T08:19:33Z</time></trkpt><trkpt lat="42.28172536565754" lon="13.696476217863877"><ele>988.0</ele><time>2026-05-03T08:19:35Z</time></trkpt><trkpt lat="42.28181868918941" lon="13.696582240359733"><ele>988.4</ele><time>2026-05-03T08:19:37Z</time></trkpt><trkpt lat="42.281909788956916" lon="13.69669352963456"><ele>988.8</ele><time>2026-05-03T08:19:39Z</time></trkpt><trkpt lat="42.28198865764622" lon="13.69679746229638"><ele>989.2</ele><time>2026-05-03T08:19:41Z</time></trkpt><trkpt lat="42.2820497036763" lon="13.696892824966657"><ele>989.6</ele><time>2026-05-03T08:19:43Z</time></trkpt><trkpt lat="42.28212256103904" lon="13.69687745225396"><ele>990.0</ele><time>2026-05-03T08:19:45Z</time></trkpt><trkpt lat="42.28215417499499" lon="13.696750448483636"><ele>990.0</ele><time>2026-05-03T08:19:47Z</time></trkpt><trkpt lat="42.28208845892319" lon="13.696631454998881"><ele>990.0</ele><time>2026-05-03T08:19:49Z</time></trkpt><trkpt lat="42.28205144007011" lon="13.696558356799114"><ele>990.0</ele><time>2026-05-03T08:19:50Z</time></trkpt><trkpt lat="42.28205093964442" lon="13.696425379121326"><ele>990.0</ele><time>2026-05-03T08:19:52Z</time></trkpt><trkpt lat="42.282130615145796" lon="13.69631020576852"><ele>990.0</ele><time>2026-05-03T08:19:54Z</time></trkpt><trkpt lat="42.28222454158446" lon="13.696195966952827"><ele>990.0</ele><time>2026-05-03T08:19:56Z</time></trkpt><trkpt lat="42.282258845915614" lon="13.696124481771848"><ele>990.0</ele><time>2026-05-03T08:19:57Z</time></trkpt><trkpt lat="42.28228706220398" lon="13.69597777661415"><ele>990.0</ele><time>2026-05-03T08:19:59Z</time></trkpt><trkpt lat="42.282297123503916" lon="13.695891572550321"><ele>990.0</ele><time>2026-05-03T08:20:00Z</time></trkpt><trkpt lat="42.282304381548784" lon="13.695796342265622"><ele>990.0</ele><time>2026-05-03T08:20:01Z</time></trkpt><trkpt lat="42.28230895969444" lon="13.695683900670142"><ele>990.0</ele><time>2026-05-03T08:20:02Z</time></trkpt><trkpt lat="42.28231155233846" lon="13.695581075762098"><ele>986.3333333333334</ele><time>2026-05-03T08:20:03Z</time></trkpt><trkpt lat="42.28230591414945" lon="13.695484211720274"><ele>982.6666666666667</ele><time>2026-05-03T08:20:04Z</time></trkpt><trkpt lat="42.28230750236191" lon="13.695387492199425"><ele>979.0</ele><time>2026-05-03T08:20:05Z</time></trkpt><trkpt lat="42.282316212927405" lon="13.695280813478643"><ele>975.3333333333334</ele><time>2026-05-03T08:20:06Z</time></trkpt><trkpt lat="42.28232511761218" lon="13.695164356902994"><ele>971.6666666666667</ele><time>2026-05-03T08:20:07Z</time></trkpt><trkpt lat="42.28233236225283" lon="13.69505254222328"><ele>968.0</ele><time>2026-05-03T08:20:08Z</time></trkpt><trkpt lat="42.282335042656314" lon="13.694946551087892"><ele>967.5000000000001</ele><time>2026-05-03T08:20:09Z</time></trkpt><trkpt lat="42.28233438050991" lon="13.694842038919163"><ele>967.0</ele><time>2026-05-03T08:20:10Z</time></trkpt><trkpt lat="42.28232246355056" lon="13.694738154815917"><ele>966.5</ele><time>2026-05-03T08:20:11Z</time></trkpt><trkpt lat="42.28230851910597" lon="13.694634834910827"><ele>966.0</ele><time>2026-05-03T08:20:12Z</time></trkpt><trkpt lat="42.28229466039935" lon="13.694541423132717"><ele>965.5000000000001</ele><time>2026-05-03T08:20:13Z</time></trkpt><trkpt lat="42.28227724896948" lon="13.69444955659188"><ele>965.0</ele><time>2026-05-03T08:20:14Z</time></trkpt><trkpt lat="42.282250747756144" lon="13.694344559296042"><ele>963.8571428571429</ele><time>2026-05-03T08:20:15Z</time></trkpt><trkpt lat="42.28223643680444" lon="13.694252983624619"><ele>962.7142857142858</ele><time>2026-05-03T08:20:16Z</time></trkpt><trkpt lat="42.28222686815524" lon="13.694144472663396"><ele>961.5714285714287</ele><time>2026-05-03T08:20:17Z</time></trkpt><trkpt lat="42.2822337653615" lon="13.694052018027083"><ele>960.4285714285714</ele><time>2026-05-03T08:20:18Z</time></trkpt><trkpt lat="42.28224485469725" lon="13.693953935102046"><ele>959.2857142857144</ele><time>2026-05-03T08:20:19Z</time></trkpt><trkpt lat="42.282258839847565" lon="13.693859453638835"><ele>958.1428571428572</ele><time>2026-05-03T08:20:20Z</time></trkpt><trkpt lat="42.282286255912936" lon="13.69377799462918"><ele>957.0</ele><time>2026-05-03T08:20:21Z</time></trkpt><trkpt lat="42.28231636692489" lon="13.69370254221944"><ele>956.1666666666666</ele><time>2026-05-03T08:20:22Z</time></trkpt><trkpt lat="42.282347603205224" lon="13.69356656500551"><ele>955.3333333333333</ele><time>2026-05-03T08:20:24Z</time></trkpt><trkpt lat="42.28236319732855" lon="13.693394776941464"><ele>954.5</ele><time>2026-05-03T08:20:26Z</time></trkpt><trkpt lat="42.28237269946338" lon="13.693307380719299"><ele>953.6666666666666</ele><time>2026-05-03T08:20:27Z</time></trkpt><trkpt lat="42.28238183097545" lon="13.693211303962393"><ele>952.8333333333333</ele><time>2026-05-03T08:20:28Z</time></trkpt><trkpt lat="42.28239169383492" lon="13.693112184681956"><ele>952.0</ele><time>2026-05-03T08:20:29Z</time></trkpt><trkpt lat="42.282404762393426" lon="13.69301661873133"><ele>952.0</ele><time>2026-05-03T08:20:30Z</time></trkpt><trkpt lat="42.28242577369492" lon="13.692928823459834"><ele>952.0</ele><time>2026-05-03T08:20:31Z</time></trkpt><trkpt lat="42.28248039900505" lon="13.69275798301173"><ele>952.0</ele><time>2026-05-03T08:20:33Z</time></trkpt><trkpt lat="42.28251916428061" lon="13.692659273413096"><ele>952.0</ele><time>2026-05-03T08:20:34Z</time></trkpt><trkpt lat="42.282554516033635" lon="13.6925559640814"><ele>952.0</ele><time>2026-05-03T08:20:35Z</time></trkpt><trkpt lat="42.28258525907152" lon="13.69245689157766"><ele>952.9999999999999</ele><time>2026-05-03T08:20:36Z</time></trkpt><trkpt lat="42.28262055122958" lon="13.692361297310491"><ele>954.0</ele><time>2026-05-03T08:20:37Z</time></trkpt><trkpt lat="42.28266110996941" lon="13.692270941016673"><ele>955.0</ele><time>2026-05-03T08:20:38Z</time></trkpt><trkpt lat="42.28270588980537" lon="13.692184012441263"><ele>956.0</ele><time>2026-05-03T08:20:39Z</time></trkpt><trkpt lat="42.282754608164176" lon="13.692099516774336"><ele>956.9999999999999</ele><time>2026-05-03T08:20:40Z</time></trkpt><trkpt lat="42.28280462809432" lon="13.69202211362316"><ele>958.0</ele><time>2026-05-03T08:20:41Z</time></trkpt><trkpt lat="42.28285216246474" lon="13.69194195587131"><ele>960.6666666666666</ele><time>2026-05-03T08:20:42Z</time></trkpt><trkpt lat="42.282899083461" lon="13.691862177284076"><ele>963.3333333333333</ele><time>2026-05-03T08:20:43Z</time></trkpt><trkpt lat="42.28298010533882" lon="13.69171991979624"><ele>966.0</ele><time>2026-05-03T08:20:45Z</time></trkpt><trkpt lat="42.28303335590396" lon="13.691654701993274"><ele>968.6666666666667</ele><time>2026-05-03T08:20:46Z</time></trkpt><trkpt lat="42.28309508795577" lon="13.691591306069716"><ele>971.3333333333334</ele><time>2026-05-03T08:20:47Z</time></trkpt><trkpt lat="42.28316737697754" lon="13.691529219986796"><ele>974.0</ele><time>2026-05-03T08:20:48Z</time></trkpt><trkpt lat="42.283236605757814" lon="13.691477024819356"><ele>968.1666666666667</ele><time>2026-05-03T08:20:49Z</time></trkpt><trkpt lat="42.28331224924551" lon="13.691428226983552"><ele>962.3333333333334</ele><time>2026-05-03T08:20:50Z</time></trkpt><trkpt lat="42.283383455359505" lon="13.691379459451323"><ele>956.5</ele><time>2026-05-03T08:20:51Z</time></trkpt><trkpt lat="42.283455697642424" lon="13.69133526416571"><ele>950.6666666666667</ele><time>2026-05-03T08:20:52Z</time></trkpt><trkpt lat="42.28353312492458" lon="13.691287553871652"><ele>944.8333333333334</ele><time>2026-05-03T08:20:53Z</time></trkpt><trkpt lat="42.283612015897006" lon="13.691232424724767"><ele>939.0</ele><time>2026-05-03T08:20:54Z</time></trkpt><trkpt lat="42.283685151241386" lon="13.691184405433198"><ele>939.0</ele><time>2026-05-03T08:20:55Z</time></trkpt><trkpt lat="42.283761193499956" lon="13.691129814163446"><ele>939.0</ele><time>2026-05-03T08:20:56Z</time></trkpt><trkpt lat="42.28383490267198" lon="13.69107716232935"><ele>939.0</ele><time>2026-05-03T08:20:57Z</time></trkpt><trkpt lat="42.28390541020317" lon="13.691029085890392"><ele>939.0</ele><time>2026-05-03T08:20:58Z</time></trkpt><trkpt lat="42.28398054117647" lon="13.690979813453595"><ele>939.0</ele><time>2026-05-03T08:20:59Z</time></trkpt><trkpt lat="42.28404827626368" lon="13.690937719734773"><ele>939.0</ele><time>2026-05-03T08:21:00Z</time></trkpt><trkpt lat="42.28411905956439" lon="13.690898081133435"><ele>939.5714285714287</ele><time>2026-05-03T08:21:01Z</time></trkpt><trkpt lat="42.2841909714802" lon="13.690883104199552"><ele>940.1428571428571</ele><time>2026-05-03T08:21:02Z</time></trkpt><trkpt lat="42.28426271108904" lon="13.690891130191776"><ele>940.7142857142858</ele><time>2026-05-03T08:21:03Z</time></trkpt><trkpt lat="42.284327179674236" lon="13.69091551662856"><ele>941.2857142857143</ele><time>2026-05-03T08:21:04Z</time></trkpt><trkpt lat="42.284390592661225" lon="13.690952026354859"><ele>941.8571428571429</ele><time>2026-05-03T08:21:05Z</time></trkpt><trkpt lat="42.284465108509366" lon="13.690990869934517"><ele>942.4285714285714</ele><time>2026-05-03T08:21:06Z</time></trkpt><trkpt lat="42.28454263309814" lon="13.691023702139699"><ele>943.0</ele><time>2026-05-03T08:21:07Z</time></trkpt><trkpt lat="42.28461289286585" lon="13.691046820952364"><ele>943.0</ele><time>2026-05-03T08:21:08Z</time></trkpt><trkpt lat="42.28469907082476" lon="13.691077778302498"><ele>943.0</ele><time>2026-05-03T08:21:09Z</time></trkpt><trkpt lat="42.284788512999306" lon="13.691110849207247"><ele>943.0</ele><time>2026-05-03T08:21:10Z</time></trkpt><trkpt lat="42.28487871630357" lon="13.691140285745343"><ele>943.0</ele><time>2026-05-03T08:21:11Z</time></trkpt><trkpt lat="42.28497590820807" lon="13.69117351758452"><ele>943.0</ele><time>2026-05-03T08:21:12Z</time></trkpt><trkpt lat="42.285070733581406" lon="13.691204790477853"><ele>937.3333333333333</ele><time>2026-05-03T08:21:13Z</time></trkpt><trkpt lat="42.285161837268966" lon="13.691230825517883"><ele>931.6666666666666</ele><time>2026-05-03T08:21:14Z</time></trkpt><trkpt lat="42.28525211922017" lon="13.691251261504997"><ele>926.0</ele><time>2026-05-03T08:21:15Z</time></trkpt><trkpt lat="42.28534628082436" lon="13.691271192591497"><ele>920.3333333333333</ele><time>2026-05-03T08:21:16Z</time></trkpt><trkpt lat="42.28543364091519" lon="13.69128195812358"><ele>914.6666666666666</ele><time>2026-05-03T08:21:17Z</time></trkpt><trkpt lat="42.28550977021447" lon="13.691284601380675"><ele>909.0</ele><time>2026-05-03T08:21:18Z</time></trkpt><trkpt lat="42.28559518595027" lon="13.691278630322428"><ele>909.4000000000001</ele><time>2026-05-03T08:21:19Z</time></trkpt><trkpt lat="42.285687065065105" lon="13.691264585431814"><ele>909.8000000000001</ele><time>2026-05-03T08:21:20Z</time></trkpt><trkpt lat="42.28578256173923" lon="13.691247831976202"><ele>910.1999999999999</ele><time>2026-05-03T08:21:21Z</time></trkpt><trkpt lat="42.285885055391894" lon="13.691222356891585"><ele>910.5999999999999</ele><time>2026-05-03T08:21:22Z</time></trkpt><trkpt lat="42.285985196027056" lon="13.691195628471494"><ele>911.0</ele><time>2026-05-03T08:21:23Z</time></trkpt><trkpt lat="42.286088439490456" lon="13.691171611236927"><ele>911.0</ele><time>2026-05-03T08:21:24Z</time></trkpt><trkpt lat="42.28619238357282" lon="13.691142397820661"><ele>910.9999999999999</ele><time>2026-05-03T08:21:25Z</time></trkpt><trkpt lat="42.286296437854965" lon="13.691114574709127"><ele>910.9999999999999</ele><time>2026-05-03T08:21:26Z</time></trkpt><trkpt lat="42.28639833429001" lon="13.691086666326516"><ele>911.0</ele><time>2026-05-03T08:21:27Z</time></trkpt><trkpt lat="42.28649983365519" lon="13.691062431136672"><ele>911.0</ele><time>2026-05-03T08:21:28Z</time></trkpt><trkpt lat="42.28659908847873" lon="13.691045198042971"><ele>916.5999999999999</ele><time>2026-05-03T08:21:29Z</time></trkpt><trkpt lat="42.28669644704149" lon="13.691024204208034"><ele>922.1999999999999</ele><time>2026-05-03T08:21:30Z</time></trkpt><trkpt lat="42.28678994367147" lon="13.691000806254316"><ele>927.8000000000001</ele><time>2026-05-03T08:21:31Z</time></trkpt><trkpt lat="42.286883718200194" lon="13.690975667085501"><ele>933.4000000000001</ele><time>2026-05-03T08:21:32Z</time></trkpt><trkpt lat="42.28697758852578" lon="13.690942486922047"><ele>939.0</ele><time>2026-05-03T08:21:33Z</time></trkpt><trkpt lat="42.28707080739609" lon="13.690908088701594"><ele>939.0</ele><time>2026-05-03T08:21:34Z</time></trkpt><trkpt lat="42.28716413335828" lon="13.690870912786542"><ele>939.0</ele><time>2026-05-03T08:21:35Z</time></trkpt><trkpt lat="42.28725363291148" lon="13.690828321855316"><ele>939.0</ele><time>2026-05-03T08:21:36Z</time></trkpt><trkpt lat="42.287340135535196" lon="13.690787996906318"><ele>939.0</ele><time>2026-05-03T08:21:37Z</time></trkpt><trkpt lat="42.28741840242597" lon="13.69075148542199"><ele>939.0</ele><time>2026-05-03T08:21:38Z</time></trkpt><trkpt lat="42.2874884320197" lon="13.69072537103198"><ele>939.0</ele><time>2026-05-03T08:21:39Z</time></trkpt><trkpt lat="42.28756610753905" lon="13.690693402034086"><ele>936.3333333333334</ele><time>2026-05-03T08:21:40Z</time></trkpt><trkpt lat="42.28763801663633" lon="13.690673490270346"><ele>933.6666666666667</ele><time>2026-05-03T08:21:41Z</time></trkpt><trkpt lat="42.287715125959146" lon="13.69065205683653"><ele>931.0</ele><time>2026-05-03T08:21:42Z</time></trkpt><trkpt lat="42.28780464383567" lon="13.690628360441943"><ele>928.3333333333334</ele><time>2026-05-03T08:21:43Z</time></trkpt><trkpt lat="42.287879368541155" lon="13.690606812027193"><ele>925.6666666666667</ele><time>2026-05-03T08:21:44Z</time></trkpt><trkpt lat="42.28794240438023" lon="13.690576825464479"><ele>923.0</ele><time>2026-05-03T08:21:45Z</time></trkpt><trkpt lat="42.288020778220805" lon="13.690538211505618"><ele>920.1666666666667</ele><time>2026-05-03T08:21:46Z</time></trkpt><trkpt lat="42.28809728501096" lon="13.690497649262536"><ele>917.3333333333334</ele><time>2026-05-03T08:21:47Z</time></trkpt><trkpt lat="42.288175334781755" lon="13.690455157689884"><ele>914.5</ele><time>2026-05-03T08:21:48Z</time></trkpt><trkpt lat="42.28825110970554" lon="13.69041862003631"><ele>911.6666666666667</ele><time>2026-05-03T08:21:49Z</time></trkpt><trkpt lat="42.28832795079283" lon="13.690386115544456"><ele>908.8333333333334</ele><time>2026-05-03T08:21:50Z</time></trkpt><trkpt lat="42.28840119810855" lon="13.690360353395528"><ele>906.0</ele><time>2026-05-03T08:21:51Z</time></trkpt><trkpt lat="42.28847483606378" lon="13.690350782279802"><ele>906.0</ele><time>2026-05-03T08:21:52Z</time></trkpt><trkpt lat="42.288556097872714" lon="13.690350949752334"><ele>905.9999999999999</ele><time>2026-05-03T08:21:53Z</time></trkpt><trkpt lat="42.288627696175055" lon="13.690365948390248"><ele>905.9999999999999</ele><time>2026-05-03T08:21:54Z</time></trkpt><trkpt lat="42.288688894984816" lon="13.690391261686964"><ele>906.0</ele><time>2026-05-03T08:21:55Z</time></trkpt><trkpt lat="42.28880486569698" lon="13.690449919715727"><ele>906.0</ele><time>2026-05-03T08:21:57Z</time></trkpt><trkpt lat="42.28891311404776" lon="13.690512906580024"><ele>905.2857142857142</ele><time>2026-05-03T08:21:59Z</time></trkpt><trkpt lat="42.289034482469575" lon="13.690545815598751"><ele>904.5714285714286</ele><time>2026-05-03T08:22:01Z</time></trkpt><trkpt lat="42.28909985858506" lon="13.690550493252637"><ele>903.8571428571429</ele><time>2026-05-03T08:22:02Z</time></trkpt><trkpt lat="42.28916401497764" lon="13.690549686460123"><ele>903.1428571428571</ele><time>2026-05-03T08:22:03Z</time></trkpt><trkpt lat="42.28922902227432" lon="13.690537090560886"><ele>902.4285714285716</ele><time>2026-05-03T08:22:04Z</time></trkpt><trkpt lat="42.28929420796627" lon="13.690521469218357"><ele>901.7142857142858</ele><time>2026-05-03T08:22:05Z</time></trkpt><trkpt lat="42.28935658726844" lon="13.690504435049995"><ele>901.0</ele><time>2026-05-03T08:22:06Z</time></trkpt><trkpt lat="42.28941884596459" lon="13.690491693605829"><ele>900.9999999999999</ele><time>2026-05-03T08:22:07Z</time></trkpt><trkpt lat="42.28954833537073" lon="13.690486201594833"><ele>901.0</ele><time>2026-05-03T08:22:09Z</time></trkpt><trkpt lat="42.28961785590023" lon="13.69050415541612"><ele>901.0</ele><time>2026-05-03T08:22:10Z</time></trkpt><trkpt lat="42.289700930836034" lon="13.690527436315175"><ele>901.0</ele><time>2026-05-03T08:22:11Z</time></trkpt><trkpt lat="42.28976646910622" lon="13.69056521814207"><ele>900.9999999999999</ele><time>2026-05-03T08:22:12Z</time></trkpt><trkpt lat="42.28983875918436" lon="13.690585215867758"><ele>901.0</ele><time>2026-05-03T08:22:13Z</time></trkpt><trkpt lat="42.28991271861783" lon="13.690608081141127"><ele>900.4285714285714</ele><time>2026-05-03T08:22:14Z</time></trkpt><trkpt lat="42.28998634173677" lon="13.690627364788936"><ele>899.8571428571429</ele><time>2026-05-03T08:22:15Z</time></trkpt><trkpt lat="42.29005821962302" lon="13.690630882095917"><ele>899.2857142857143</ele><time>2026-05-03T08:22:16Z</time></trkpt><trkpt lat="42.29014161643788" lon="13.690628603200885"><ele>898.7142857142858</ele><time>2026-05-03T08:22:17Z</time></trkpt><trkpt lat="42.29020837793181" lon="13.690619890840761"><ele>898.1428571428571</ele><time>2026-05-03T08:22:18Z</time></trkpt><trkpt lat="42.29027628368781" lon="13.690603272555636"><ele>897.5714285714287</ele><time>2026-05-03T08:22:19Z</time></trkpt><trkpt lat="42.290354986946134" lon="13.690581144366543"><ele>897.0</ele><time>2026-05-03T08:22:20Z</time></trkpt><trkpt lat="42.29042020823081" lon="13.690557379500257"><ele>897.0</ele><time>2026-05-03T08:22:21Z</time></trkpt><trkpt lat="42.29048246843079" lon="13.690531216100878"><ele>897.0</ele><time>2026-05-03T08:22:22Z</time></trkpt><trkpt lat="42.290550071399295" lon="13.690514321466043"><ele>897.0</ele><time>2026-05-03T08:22:23Z</time></trkpt><trkpt lat="42.29061726304104" lon="13.690508370578161"><ele>897.0</ele><time>2026-05-03T08:22:24Z</time></trkpt><trkpt lat="42.290690989460586" lon="13.690504139232509"><ele>897.0</ele><time>2026-05-03T08:22:25Z</time></trkpt><trkpt lat="42.29076252603677" lon="13.690508795258564"><ele>897.0</ele><time>2026-05-03T08:22:26Z</time></trkpt><trkpt lat="42.290829654632034" lon="13.690519851501776"><ele>897.0</ele><time>2026-05-03T08:22:27Z</time></trkpt><trkpt lat="42.2909004263281" lon="13.690526728408306"><ele>895.5714285714286</ele><time>2026-05-03T08:22:28Z</time></trkpt><trkpt lat="42.29096924927542" lon="13.690526760887503"><ele>894.1428571428571</ele><time>2026-05-03T08:22:29Z</time></trkpt><trkpt lat="42.291038590720035" lon="13.690517151935305"><ele>892.7142857142857</ele><time>2026-05-03T08:22:30Z</time></trkpt><trkpt lat="42.291106159679" lon="13.690497542782879"><ele>891.2857142857142</ele><time>2026-05-03T08:22:31Z</time></trkpt><trkpt lat="42.29117709191424" lon="13.690466950695047"><ele>889.8571428571429</ele><time>2026-05-03T08:22:32Z</time></trkpt><trkpt lat="42.291254101649116" lon="13.690426461026817"><ele>888.4285714285713</ele><time>2026-05-03T08:22:33Z</time></trkpt><trkpt lat="42.29132493836432" lon="13.690375028056343"><ele>887.0</ele><time>2026-05-03T08:22:34Z</time></trkpt><trkpt lat="42.29138733375786" lon="13.690301939788759"><ele>885.0</ele><time>2026-05-03T08:22:35Z</time></trkpt><trkpt lat="42.29144990801149" lon="13.690234111820569"><ele>883.0</ele><time>2026-05-03T08:22:36Z</time></trkpt><trkpt lat="42.29155057799364" lon="13.690138156225224"><ele>881.0</ele><time>2026-05-03T08:22:38Z</time></trkpt><trkpt lat="42.2916369997486" lon="13.690030885151502"><ele>879.0</ele><time>2026-05-03T08:22:40Z</time></trkpt><trkpt lat="42.291712242411016" lon="13.689917781999938"><ele>877.0</ele><time>2026-05-03T08:22:42Z</time></trkpt><trkpt lat="42.29183668590493" lon="13.689835485571164"><ele>876.9999999999999</ele><time>2026-05-03T08:22:44Z</time></trkpt><trkpt lat="42.291910413105455" lon="13.68980533784164"><ele>877.0</ele><time>2026-05-03T08:22:45Z</time></trkpt><trkpt lat="42.2919891162796" lon="13.6897641102804"><ele>877.0</ele><time>2026-05-03T08:22:46Z</time></trkpt><trkpt lat="42.2920537508454" lon="13.68972452178793"><ele>877.0</ele><time>2026-05-03T08:22:47Z</time></trkpt><trkpt lat="42.29211175028936" lon="13.689678941583455"><ele>876.9999999999999</ele><time>2026-05-03T08:22:48Z</time></trkpt><trkpt lat="42.292160186832" lon="13.689615669204361"><ele>877.0</ele><time>2026-05-03T08:22:49Z</time></trkpt><trkpt lat="42.29221475524506" lon="13.689530081327922"><ele>875.4000000000001</ele><time>2026-05-03T08:22:50Z</time></trkpt><trkpt lat="42.29226734290039" lon="13.689439840622017"><ele>873.8000000000001</ele><time>2026-05-03T08:22:51Z</time></trkpt><trkpt lat="42.29232519571859" lon="13.689342493927656"><ele>872.2</ele><time>2026-05-03T08:22:52Z</time></trkpt><trkpt lat="42.292393930091684" lon="13.689238948188196"><ele>870.6</ele><time>2026-05-03T08:22:53Z</time></trkpt><trkpt lat="42.29246009952158" lon="13.689143277595615"><ele>869.0</ele><time>2026-05-03T08:22:54Z</time></trkpt><trkpt lat="42.29252453470239" lon="13.689053624626618"><ele>869.0000000000001</ele><time>2026-05-03T08:22:55Z</time></trkpt><trkpt lat="42.292597322536146" lon="13.688977295908938"><ele>869.0</ele><time>2026-05-03T08:22:56Z</time></trkpt><trkpt lat="42.292661757985776" lon="13.688921557557531"><ele>869.0</ele><time>2026-05-03T08:22:57Z</time></trkpt><trkpt lat="42.292721731278306" lon="13.68887385447326"><ele>869.0</ele><time>2026-05-03T08:22:58Z</time></trkpt><trkpt lat="42.292780206156145" lon="13.688820842413095"><ele>869.0000000000001</ele><time>2026-05-03T08:22:59Z</time></trkpt><trkpt lat="42.29289220344299" lon="13.688760355333253"><ele>869.0</ele><time>2026-05-03T08:23:01Z</time></trkpt><trkpt lat="42.292998641994075" lon="13.688701565626541"><ele>869.0000000000001</ele><time>2026-05-03T08:23:03Z</time></trkpt><trkpt lat="42.29305491554493" lon="13.688661752088024"><ele>869.0</ele><time>2026-05-03T08:23:04Z</time></trkpt><trkpt lat="42.29311067251878" lon="13.688620330341038"><ele>869.0</ele><time>2026-05-03T08:23:05Z</time></trkpt><trkpt lat="42.29322202886198" lon="13.68858282623824"><ele>869.0</ele><time>2026-05-03T08:23:07Z</time></trkpt><trkpt lat="42.2933339630671" lon="13.68857211165731"><ele>869.0000000000001</ele><time>2026-05-03T08:23:09Z</time></trkpt><trkpt lat="42.293414808425" lon="13.688563342308857"><ele>869.0</ele><time>2026-05-03T08:23:11Z</time></trkpt><trkpt lat="42.293436298135546" lon="13.688682801479201"><ele>869.0</ele><time>2026-05-03T08:23:17Z</time></trkpt><trkpt lat="42.293396164133235" lon="13.688751486068988"><ele>869.0000000000001</ele><time>2026-05-03T08:23:18Z</time></trkpt><trkpt lat="42.293306777495054" lon="13.688807793900624"><ele>869.0000000000001</ele><time>2026-05-03T08:23:19Z</time></trkpt><trkpt lat="42.29322990045312" lon="13.688888352921682"><ele>869.0</ele><time>2026-05-03T08:23:20Z</time></trkpt><trkpt lat="42.29315155703386" lon="13.68900487438645"><ele>869.0</ele><time>2026-05-03T08:23:21Z</time></trkpt><trkpt lat="42.293081273839405" lon="13.689128658675331"><ele>869.0</ele><time>2026-05-03T08:23:22Z</time></trkpt><trkpt lat="42.29300736337097" lon="13.689256747171502"><ele>869.0</ele><time>2026-05-03T08:23:23Z</time></trkpt><trkpt lat="42.292936764189605" lon="13.689387201672108"><ele>869.0</ele><time>2026-05-03T08:23:24Z</time></trkpt><trkpt lat="42.29287416190805" lon="13.689522480999727"><ele>869.0</ele><time>2026-05-03T08:23:25Z</time></trkpt><trkpt lat="42.29281490096733" lon="13.689659952360376"><ele>866.5</ele><time>2026-05-03T08:23:26Z</time></trkpt><trkpt lat="42.2927543057188" lon="13.68979441892506"><ele>864.0</ele><time>2026-05-03T08:23:27Z</time></trkpt><trkpt lat="42.292696684054654" lon="13.68992453743671"><ele>861.5</ele><time>2026-05-03T08:23:28Z</time></trkpt><trkpt lat="42.29264370209902" lon="13.690057681328692"><ele>859.0</ele><time>2026-05-03T08:23:29Z</time></trkpt><trkpt lat="42.2925895349196" lon="13.690196403253264"><ele>858.4000000000001</ele><time>2026-05-03T08:23:30Z</time></trkpt><trkpt lat="42.29251860587173" lon="13.690319769262137"><ele>857.8000000000001</ele><time>2026-05-03T08:23:31Z</time></trkpt><trkpt lat="42.292488949094015" lon="13.690469413806818"><ele>857.1999999999999</ele><time>2026-05-03T08:23:32Z</time></trkpt><trkpt lat="42.29245711709965" lon="13.690611472035842"><ele>856.5999999999999</ele><time>2026-05-03T08:23:33Z</time></trkpt><trkpt lat="42.29244740398188" lon="13.690757389754651"><ele>856.0</ele><time>2026-05-03T08:23:34Z</time></trkpt><trkpt lat="42.29242518681704" lon="13.690896823615212"><ele>856.0</ele><time>2026-05-03T08:23:35Z</time></trkpt><trkpt lat="42.292411119116956" lon="13.691035038663912"><ele>855.9999999999999</ele><time>2026-05-03T08:23:36Z</time></trkpt><trkpt lat="42.29238594432336" lon="13.691166126517455"><ele>855.9999999999999</ele><time>2026-05-03T08:23:37Z</time></trkpt><trkpt lat="42.2923517467022" lon="13.69130695416938"><ele>856.0</ele><time>2026-05-03T08:23:38Z</time></trkpt><trkpt lat="42.29230464173266" lon="13.691459917758495"><ele>856.0</ele><time>2026-05-03T08:23:39Z</time></trkpt><trkpt lat="42.29224377209837" lon="13.691614308622748"><ele>857.5</ele><time>2026-05-03T08:23:40Z</time></trkpt><trkpt lat="42.29216246537862" lon="13.691756875793379"><ele>859.0</ele><time>2026-05-03T08:23:41Z</time></trkpt><trkpt lat="42.29206927673284" lon="13.691883843977013"><ele>860.5</ele><time>2026-05-03T08:23:42Z</time></trkpt><trkpt lat="42.291957585008454" lon="13.692013798500202"><ele>862.0</ele><time>2026-05-03T08:23:43Z</time></trkpt><trkpt lat="42.291848744899696" lon="13.692140541189302"><ele>862.0</ele><time>2026-05-03T08:23:44Z</time></trkpt><trkpt lat="42.29173290046637" lon="13.692266725425041"><ele>862.0</ele><time>2026-05-03T08:23:45Z</time></trkpt><trkpt lat="42.29160255716405" lon="13.692395770380328"><ele>862.0</ele><time>2026-05-03T08:23:46Z</time></trkpt><trkpt lat="42.29147950805842" lon="13.69252250271866"><ele>862.0</ele><time>2026-05-03T08:23:47Z</time></trkpt><trkpt lat="42.291359545835135" lon="13.692649204906763"><ele>862.0</ele><time>2026-05-03T08:23:48Z</time></trkpt><trkpt lat="42.29125766018741" lon="13.692792427469783"><ele>862.0</ele><time>2026-05-03T08:23:49Z</time></trkpt><trkpt lat="42.29118666824234" lon="13.692933311265207"><ele>862.0</ele><time>2026-05-03T08:23:50Z</time></trkpt><trkpt lat="42.29114524699378" lon="13.693029495373445"><ele>861.9999999999999</ele><time>2026-05-03T08:23:51Z</time></trkpt><trkpt lat="42.29110085996514" lon="13.693136369487336"><ele>862.0</ele><time>2026-05-03T08:23:54Z</time></trkpt><trkpt lat="42.29104548393774" lon="13.693199676862838"><ele>862.0</ele><time>2026-05-03T08:24:08Z</time></trkpt><trkpt lat="42.29097704587876" lon="13.693320613651201"><ele>862.0</ele><time>2026-05-03T08:24:10Z</time></trkpt><trkpt lat="42.290920900589974" lon="13.69337783016232"><ele>861.9999999999999</ele><time>2026-05-03T08:24:11Z</time></trkpt><trkpt lat="42.290866706674535" lon="13.69344246637113"><ele>862.0</ele><time>2026-05-03T08:24:12Z</time></trkpt><trkpt lat="42.29081578075619" lon="13.693498975481871"><ele>861.9999999999999</ele><time>2026-05-03T08:24:13Z</time></trkpt><trkpt lat="42.2907581562369" lon="13.693544246222185"><ele>862.0</ele><time>2026-05-03T08:24:21Z</time></trkpt><trkpt lat="42.29084509129334" lon="13.693488514313565"><ele>862.0</ele><time>2026-05-03T08:24:45Z</time></trkpt><trkpt lat="42.29090375503207" lon="13.693411583796625"><ele>862.0</ele><time>2026-05-03T08:24:46Z</time></trkpt><trkpt lat="42.29097723425725" lon="13.693324991041003"><ele>861.9999999999999</ele><time>2026-05-03T08:24:47Z</time></trkpt><trkpt lat="42.29103618745656" lon="13.693251833161515"><ele>862.0</ele><time>2026-05-03T08:24:48Z</time></trkpt><trkpt lat="42.29108150706362" lon="13.6931896552426"><ele>862.0</ele><time>2026-05-03T08:24:49Z</time></trkpt><trkpt lat="42.291159812479286" lon="13.693102922304472"><ele>862.0</ele><time>2026-05-03T08:24:51Z</time></trkpt><trkpt lat="42.2911329249099" lon="13.69299071925586"><ele>862.0</ele><time>2026-05-03T08:24:54Z</time></trkpt><trkpt lat="42.291023091033026" lon="13.692970484037414"><ele>862.0</ele><time>2026-05-03T08:24:56Z</time></trkpt><trkpt lat="42.29095180607588" lon="13.692995272211995"><ele>862.0</ele><time>2026-05-03T08:24:57Z</time></trkpt><trkpt lat="42.29087877547277" lon="13.693044236279027"><ele>861.9999999999999</ele><time>2026-05-03T08:24:58Z</time></trkpt><trkpt lat="42.29080635529847" lon="13.693093730507412"><ele>862.0</ele><time>2026-05-03T08:24:59Z</time></trkpt><trkpt lat="42.29073330869179" lon="13.693131475277944"><ele>862.0</ele><time>2026-05-03T08:25:00Z</time></trkpt><trkpt lat="42.29066399227291" lon="13.693147604065175"><ele>862.0</ele><time>2026-05-03T08:25:01Z</time></trkpt><trkpt lat="42.290601006890896" lon="13.693143038944127"><ele>861.9999999999999</ele><time>2026-05-03T08:25:02Z</time></trkpt><trkpt lat="42.290478261913364" lon="13.693154021979534"><ele>862.0</ele><time>2026-05-03T08:25:04Z</time></trkpt><trkpt lat="42.29036353468146" lon="13.693229886212192"><ele>860.8571428571429</ele><time>2026-05-03T08:25:06Z</time></trkpt><trkpt lat="42.29030379439458" lon="13.69327325111258"><ele>859.7142857142857</ele><time>2026-05-03T08:25:07Z</time></trkpt><trkpt lat="42.29024706480227" lon="13.693316317250996"><ele>858.5714285714286</ele><time>2026-05-03T08:25:08Z</time></trkpt><trkpt lat="42.290182283811944" lon="13.69336610352097"><ele>857.4285714285714</ele><time>2026-05-03T08:25:09Z</time></trkpt><trkpt lat="42.29011414151274" lon="13.693417283833032"><ele>856.2857142857142</ele><time>2026-05-03T08:25:10Z</time></trkpt><trkpt lat="42.290047557474864" lon="13.693468601197516"><ele>855.1428571428571</ele><time>2026-05-03T08:25:11Z</time></trkpt><trkpt lat="42.289985760038036" lon="13.693519717221083"><ele>854.0</ele><time>2026-05-03T08:25:12Z</time></trkpt><trkpt lat="42.289923491311406" lon="13.693575343751927"><ele>853.7142857142857</ele><time>2026-05-03T08:25:13Z</time></trkpt><trkpt lat="42.289863446446816" lon="13.693627546992163"><ele>853.4285714285714</ele><time>2026-05-03T08:25:14Z</time></trkpt><trkpt lat="42.289799259315174" lon="13.69368441430919"><ele>853.1428571428571</ele><time>2026-05-03T08:25:15Z</time></trkpt><trkpt lat="42.28973942949318" lon="13.693745055654164"><ele>852.8571428571429</ele><time>2026-05-03T08:25:16Z</time></trkpt><trkpt lat="42.28967499177028" lon="13.6938051017272"><ele>852.5714285714286</ele><time>2026-05-03T08:25:17Z</time></trkpt><trkpt lat="42.28962033447682" lon="13.693869553365802"><ele>852.2857142857142</ele><time>2026-05-03T08:25:18Z</time></trkpt><trkpt lat="42.28958163342024" lon="13.693950285015543"><ele>852.0</ele><time>2026-05-03T08:25:19Z</time></trkpt><trkpt lat="42.2895491364249" lon="13.694048613780309"><ele>849.4000000000001</ele><time>2026-05-03T08:25:20Z</time></trkpt><trkpt lat="42.28950484841227" lon="13.694149874468472"><ele>846.8000000000001</ele><time>2026-05-03T08:25:21Z</time></trkpt><trkpt lat="42.2894637342477" lon="13.694261411852526"><ele>844.2</ele><time>2026-05-03T08:25:22Z</time></trkpt><trkpt lat="42.28941923567504" lon="13.694367618861115"><ele>841.6</ele><time>2026-05-03T08:25:23Z</time></trkpt><trkpt lat="42.289366343910324" lon="13.694488604975946"><ele>839.0</ele><time>2026-05-03T08:25:24Z</time></trkpt><trkpt lat="42.289315788635996" lon="13.694600675210857"><ele>838.0</ele><time>2026-05-03T08:25:25Z</time></trkpt><trkpt lat="42.28926297438067" lon="13.694701840773536"><ele>837.0</ele><time>2026-05-03T08:25:26Z</time></trkpt><trkpt lat="42.28920613346359" lon="13.694804305638291"><ele>836.0</ele><time>2026-05-03T08:25:27Z</time></trkpt><trkpt lat="42.28915035456268" lon="13.69492372197687"><ele>835.0</ele><time>2026-05-03T08:25:28Z</time></trkpt><trkpt lat="42.28909431312079" lon="13.69503664929559"><ele>834.0</ele><time>2026-05-03T08:25:29Z</time></trkpt><trkpt lat="42.289043056187325" lon="13.695139727399003"><ele>834.0</ele><time>2026-05-03T08:25:30Z</time></trkpt><trkpt lat="42.288990477429444" lon="13.695240062849553"><ele>834.0</ele><time>2026-05-03T08:25:31Z</time></trkpt><trkpt lat="42.28893732686783" lon="13.69533414190479"><ele>834.0</ele><time>2026-05-03T08:25:32Z</time></trkpt><trkpt lat="42.28888955382386" lon="13.695429020068115"><ele>834.0</ele><time>2026-05-03T08:25:33Z</time></trkpt><trkpt lat="42.288853585493904" lon="13.695526455353411"><ele>834.0</ele><time>2026-05-03T08:25:34Z</time></trkpt><trkpt lat="42.28883390365049" lon="13.6956304200191"><ele>834.0</ele><time>2026-05-03T08:25:35Z</time></trkpt><trkpt lat="42.28878716011869" lon="13.695730633176606"><ele>831.5</ele><time>2026-05-03T08:25:36Z</time></trkpt><trkpt lat="42.28874099707652" lon="13.695814661916055"><ele>829.0</ele><time>2026-05-03T08:25:37Z</time></trkpt><trkpt lat="42.28869346860771" lon="13.695883090298373"><ele>826.5</ele><time>2026-05-03T08:25:38Z</time></trkpt><trkpt lat="42.28864145578114" lon="13.695944589169725"><ele>824.0</ele><time>2026-05-03T08:25:39Z</time></trkpt><trkpt lat="42.288582493224844" lon="13.695985556567102"><ele>821.5</ele><time>2026-05-03T08:25:40Z</time></trkpt><trkpt lat="42.288464373672774" lon="13.696009769771262"><ele>819.0</ele><time>2026-05-03T08:25:42Z</time></trkpt><trkpt lat="42.28840279517597" lon="13.696035795574957"><ele>819.0</ele><time>2026-05-03T08:25:43Z</time></trkpt><trkpt lat="42.28833139928702" lon="13.696083033671112"><ele>819.0</ele><time>2026-05-03T08:25:44Z</time></trkpt><trkpt lat="42.28826584289631" lon="13.696138918760862"><ele>819.0</ele><time>2026-05-03T08:25:45Z</time></trkpt><trkpt lat="42.28820629118411" lon="13.696200088778138"><ele>819.0</ele><time>2026-05-03T08:25:46Z</time></trkpt><trkpt lat="42.28815385902768" lon="13.696261274092938"><ele>819.0</ele><time>2026-05-03T08:25:47Z</time></trkpt><trkpt lat="42.28810353503198" lon="13.696318232568949"><ele>819.0</ele><time>2026-05-03T08:25:48Z</time></trkpt><trkpt lat="42.28805131686383" lon="13.6963809124747"><ele>819.0</ele><time>2026-05-03T08:25:49Z</time></trkpt><trkpt lat="42.2880015054365" lon="13.696441568007296"><ele>816.3333333333334</ele><time>2026-05-03T08:25:50Z</time></trkpt><trkpt lat="42.28795080159035" lon="13.696501513619358"><ele>813.6666666666667</ele><time>2026-05-03T08:25:51Z</time></trkpt><trkpt lat="42.287869466168274" lon="13.696607480579168"><ele>811.0</ele><time>2026-05-03T08:25:53Z</time></trkpt><trkpt lat="42.28778889251524" lon="13.696705785284113"><ele>808.3333333333334</ele><time>2026-05-03T08:25:55Z</time></trkpt><trkpt lat="42.2877261695422" lon="13.696742543870473"><ele>805.6666666666667</ele><time>2026-05-03T08:25:56Z</time></trkpt><trkpt lat="42.287669126891174" lon="13.696780611530432"><ele>803.0</ele><time>2026-05-03T08:25:57Z</time></trkpt><trkpt lat="42.28762800761057" lon="13.696848945126671"><ele>802.5714285714286</ele><time>2026-05-03T08:25:58Z</time></trkpt><trkpt lat="42.287601899348566" lon="13.696932719783366"><ele>802.1428571428571</ele><time>2026-05-03T08:25:59Z</time></trkpt><trkpt lat="42.287586633146866" lon="13.697015764604851"><ele>801.7142857142858</ele><time>2026-05-03T08:26:00Z</time></trkpt><trkpt lat="42.287585212813966" lon="13.697111934215622"><ele>801.2857142857142</ele><time>2026-05-03T08:26:01Z</time></trkpt><trkpt lat="42.28758907002498" lon="13.697216067922575"><ele>800.8571428571429</ele><time>2026-05-03T08:26:02Z</time></trkpt><trkpt lat="42.28758813574418" lon="13.69732553378064"><ele>800.4285714285714</ele><time>2026-05-03T08:26:03Z</time></trkpt><trkpt lat="42.28757132545275" lon="13.697423302833306"><ele>800.0</ele><time>2026-05-03T08:26:04Z</time></trkpt><trkpt lat="42.28753558753595" lon="13.697516135410782"><ele>800.0</ele><time>2026-05-03T08:26:05Z</time></trkpt><trkpt lat="42.287487960814005" lon="13.697617367268252"><ele>800.0</ele><time>2026-05-03T08:26:06Z</time></trkpt><trkpt lat="42.287431263831614" lon="13.697713090372863"><ele>800.0</ele><time>2026-05-03T08:26:07Z</time></trkpt><trkpt lat="42.287378564192174" lon="13.697819541217152"><ele>800.0</ele><time>2026-05-03T08:26:08Z</time></trkpt><trkpt lat="42.287334334393194" lon="13.697950618515648"><ele>800.0</ele><time>2026-05-03T08:26:09Z</time></trkpt><trkpt lat="42.28730259390561" lon="13.698077555093318"><ele>799.8</ele><time>2026-05-03T08:26:10Z</time></trkpt><trkpt lat="42.28728244862246" lon="13.698205910126042"><ele>799.6</ele><time>2026-05-03T08:26:11Z</time></trkpt><trkpt lat="42.28727470601158" lon="13.698315233219848"><ele>799.4000000000001</ele><time>2026-05-03T08:26:12Z</time></trkpt><trkpt lat="42.28727633553653" lon="13.698436964943612"><ele>799.2</ele><time>2026-05-03T08:26:14Z</time></trkpt><trkpt lat="42.28729652133819" lon="13.69855193208802"><ele>799.0</ele><time>2026-05-03T08:26:18Z</time></trkpt><trkpt lat="42.28732142378278" lon="13.698724619415719"><ele>798.4999999999999</ele><time>2026-05-03T08:26:20Z</time></trkpt><trkpt lat="42.28731459829725" lon="13.69883346986323"><ele>798.0</ele><time>2026-05-03T08:26:21Z</time></trkpt><trkpt lat="42.28728893090312" lon="13.698945943972817"><ele>797.5</ele><time>2026-05-03T08:26:22Z</time></trkpt><trkpt lat="42.28725619218788" lon="13.699059153266589"><ele>797.0</ele><time>2026-05-03T08:26:23Z</time></trkpt><trkpt lat="42.28722944572964" lon="13.699167764873494"><ele>796.4999999999999</ele><time>2026-05-03T08:26:24Z</time></trkpt><trkpt lat="42.287214812257815" lon="13.699260703711419"><ele>796.0</ele><time>2026-05-03T08:26:25Z</time></trkpt><trkpt lat="42.28722320563959" lon="13.699379264321779"><ele>795.4999999999999</ele><time>2026-05-03T08:26:27Z</time></trkpt><trkpt lat="42.28726158451458" lon="13.699474041348955"><ele>795.0</ele><time>2026-05-03T08:26:29Z</time></trkpt><trkpt lat="42.28733181075614" lon="13.699578482395603"><ele>794.5</ele><time>2026-05-03T08:26:31Z</time></trkpt><trkpt lat="42.28740189592642" lon="13.699698655227406"><ele>794.0</ele><time>2026-05-03T08:26:33Z</time></trkpt><trkpt lat="42.28739272514964" lon="13.699796091870878"><ele>793.4999999999999</ele><time>2026-05-03T08:26:35Z</time></trkpt><trkpt lat="42.28737754618838" lon="13.699883767408451"><ele>793.0</ele><time>2026-05-03T08:26:37Z</time></trkpt><trkpt lat="42.28737426574972" lon="13.700050984167882"><ele>792.9999999999999</ele><time>2026-05-03T08:26:39Z</time></trkpt><trkpt lat="42.287369443970746" lon="13.700191421719056"><ele>793.0</ele><time>2026-05-03T08:26:41Z</time></trkpt><trkpt lat="42.28733178587625" lon="13.700274394382019"><ele>793.0</ele><time>2026-05-03T08:26:43Z</time></trkpt><trkpt lat="42.287267446495505" lon="13.700383682793285"><ele>793.0</ele><time>2026-05-03T08:26:45Z</time></trkpt><trkpt lat="42.28723049161874" lon="13.700479510232032"><ele>792.9999999999999</ele><time>2026-05-03T08:26:46Z</time></trkpt><trkpt lat="42.287193074835486" lon="13.700582378919282"><ele>793.0</ele><time>2026-05-03T08:26:47Z</time></trkpt><trkpt lat="42.287154576212345" lon="13.700701359334445"><ele>791.5714285714287</ele><time>2026-05-03T08:26:48Z</time></trkpt><trkpt lat="42.28713227762047" lon="13.700810510230102"><ele>790.1428571428571</ele><time>2026-05-03T08:26:49Z</time></trkpt><trkpt lat="42.287121684642415" lon="13.70090872638781"><ele>788.7142857142858</ele><time>2026-05-03T08:26:50Z</time></trkpt><trkpt lat="42.28712396255306" lon="13.700997402628623"><ele>787.2857142857143</ele><time>2026-05-03T08:26:51Z</time></trkpt><trkpt lat="42.28713264560789" lon="13.701091212369981"><ele>785.8571428571429</ele><time>2026-05-03T08:26:52Z</time></trkpt><trkpt lat="42.28714094445441" lon="13.701188927124972"><ele>784.4285714285714</ele><time>2026-05-03T08:26:53Z</time></trkpt><trkpt lat="42.287143296269406" lon="13.701301675936564"><ele>783.0</ele><time>2026-05-03T08:26:54Z</time></trkpt><trkpt lat="42.28713575192201" lon="13.701415484611278"><ele>783.0</ele><time>2026-05-03T08:26:55Z</time></trkpt><trkpt lat="42.28712434255275" lon="13.701526419372007"><ele>783.0</ele><time>2026-05-03T08:26:56Z</time></trkpt><trkpt lat="42.28710898794751" lon="13.701637572071327"><ele>783.0</ele><time>2026-05-03T08:26:57Z</time></trkpt><trkpt lat="42.28708540097246" lon="13.701743078862346"><ele>783.0</ele><time>2026-05-03T08:26:58Z</time></trkpt><trkpt lat="42.28704660171085" lon="13.701848253984016"><ele>783.0</ele><time>2026-05-03T08:26:59Z</time></trkpt><trkpt lat="42.28700037609979" lon="13.701955150969374"><ele>783.0</ele><time>2026-05-03T08:27:00Z</time></trkpt><trkpt lat="42.2869477654642" lon="13.702068744502363"><ele>782.8</ele><time>2026-05-03T08:27:01Z</time></trkpt><trkpt lat="42.2868967224563" lon="13.702182119200408"><ele>782.5999999999999</ele><time>2026-05-03T08:27:02Z</time></trkpt><trkpt lat="42.28684707287691" lon="13.702303101542542"><ele>782.4000000000001</ele><time>2026-05-03T08:27:03Z</time></trkpt><trkpt lat="42.28680174523094" lon="13.702425854207627"><ele>782.2</ele><time>2026-05-03T08:27:04Z</time></trkpt><trkpt lat="42.28676314152537" lon="13.70255160575504"><ele>782.0</ele><time>2026-05-03T08:27:05Z</time></trkpt><trkpt lat="42.28672707577444" lon="13.702677449793246"><ele>782.8</ele><time>2026-05-03T08:27:06Z</time></trkpt><trkpt lat="42.28668450205392" lon="13.702794118262204"><ele>783.6</ele><time>2026-05-03T08:27:07Z</time></trkpt><trkpt lat="42.28663413549503" lon="13.702909205834128"><ele>784.4</ele><time>2026-05-03T08:27:08Z</time></trkpt><trkpt lat="42.286578591559504" lon="13.703016665061888"><ele>785.1999999999999</ele><time>2026-05-03T08:27:09Z</time></trkpt><trkpt lat="42.28652762371593" lon="13.703124057457421"><ele>786.0</ele><time>2026-05-03T08:27:10Z</time></trkpt><trkpt lat="42.286482662391826" lon="13.703237022754081"><ele>786.0</ele><time>2026-05-03T08:27:11Z</time></trkpt><trkpt lat="42.28644308072349" lon="13.703354346287774"><ele>786.0</ele><time>2026-05-03T08:27:12Z</time></trkpt><trkpt lat="42.28640424814106" lon="13.703482475945805"><ele>786.0</ele><time>2026-05-03T08:27:13Z</time></trkpt><trkpt lat="42.286372064283015" lon="13.703604086512664"><ele>786.0</ele><time>2026-05-03T08:27:14Z</time></trkpt><trkpt lat="42.286343497599674" lon="13.703707100992581"><ele>786.0</ele><time>2026-05-03T08:27:15Z</time></trkpt><trkpt lat="42.28630278854772" lon="13.703825570679008"><ele>784.3333333333334</ele><time>2026-05-03T08:27:17Z</time></trkpt><trkpt lat="42.28623544047038" lon="13.703870724419362"><ele>782.6666666666667</ele><time>2026-05-03T08:27:19Z</time></trkpt><trkpt lat="42.28612310339074" lon="13.703858283467499"><ele>781.0</ele><time>2026-05-03T08:27:21Z</time></trkpt><trkpt lat="42.28603569205286" lon="13.703831605532514"><ele>779.3333333333334</ele><time>2026-05-03T08:27:22Z</time></trkpt><trkpt lat="42.285942964647894" lon="13.70380882730241"><ele>777.6666666666667</ele><time>2026-05-03T08:27:23Z</time></trkpt><trkpt lat="42.285875010753834" lon="13.703790577969878"><ele>776.0</ele><time>2026-05-03T08:27:24Z</time></trkpt><trkpt lat="42.28580588869364" lon="13.703777161851084"><ele>776.0</ele><time>2026-05-03T08:27:25Z</time></trkpt><trkpt lat="42.28574071758646" lon="13.703770966423502"><ele>776.0</ele><time>2026-05-03T08:27:26Z</time></trkpt><trkpt lat="42.285668770106746" lon="13.70377018205431"><ele>776.0</ele><time>2026-05-03T08:27:27Z</time></trkpt><trkpt lat="42.285605589226044" lon="13.703783367965938"><ele>776.0</ele><time>2026-05-03T08:27:28Z</time></trkpt><trkpt lat="42.28554747151121" lon="13.703825291155244"><ele>776.0</ele><time>2026-05-03T08:27:29Z</time></trkpt><trkpt lat="42.285499632874696" lon="13.703905746260652"><ele>776.0</ele><time>2026-05-03T08:27:30Z</time></trkpt><trkpt lat="42.28545578514883" lon="13.703987887904708"><ele>776.0</ele><time>2026-05-03T08:27:31Z</time></trkpt><trkpt lat="42.28541147090213" lon="13.70405964896695"><ele>778.3333333333334</ele><time>2026-05-03T08:27:32Z</time></trkpt><trkpt lat="42.285364178773094" lon="13.704140421693717"><ele>780.6666666666667</ele><time>2026-05-03T08:27:33Z</time></trkpt><trkpt lat="42.28531042575727" lon="13.704232417222546"><ele>783.0</ele><time>2026-05-03T08:27:34Z</time></trkpt><trkpt lat="42.28525641721977" lon="13.704329901819836"><ele>785.3333333333333</ele><time>2026-05-03T08:27:35Z</time></trkpt><trkpt lat="42.28521154488361" lon="13.704437383477293"><ele>787.6666666666666</ele><time>2026-05-03T08:27:36Z</time></trkpt><trkpt lat="42.285177477622284" lon="13.704540038851547"><ele>790.0</ele><time>2026-05-03T08:27:37Z</time></trkpt><trkpt lat="42.28515371545597" lon="13.704636782743131"><ele>789.9999999999999</ele><time>2026-05-03T08:27:38Z</time></trkpt><trkpt lat="42.28513367985859" lon="13.704723850002777"><ele>790.0</ele><time>2026-05-03T08:27:39Z</time></trkpt><trkpt lat="42.28510716325251" lon="13.704836685860698"><ele>790.0</ele><time>2026-05-03T08:27:40Z</time></trkpt><trkpt lat="42.28507575737168" lon="13.704945351633844"><ele>790.0</ele><time>2026-05-03T08:27:41Z</time></trkpt><trkpt lat="42.28504692134501" lon="13.705067207880512"><ele>789.9999999999999</ele><time>2026-05-03T08:27:42Z</time></trkpt><trkpt lat="42.285021571151994" lon="13.70520197097625"><ele>790.0</ele><time>2026-05-03T08:27:43Z</time></trkpt><trkpt lat="42.28498717420063" lon="13.705335960236669"><ele>789.0</ele><time>2026-05-03T08:27:44Z</time></trkpt><trkpt lat="42.28494562174675" lon="13.70546203966101"><ele>788.0</ele><time>2026-05-03T08:27:45Z</time></trkpt><trkpt lat="42.284899101612396" lon="13.705568885669386"><ele>787.0</ele><time>2026-05-03T08:27:46Z</time></trkpt><trkpt lat="42.28485628906708" lon="13.705684358840724"><ele>786.0</ele><time>2026-05-03T08:27:47Z</time></trkpt><trkpt lat="42.284825721266216" lon="13.705815008425215"><ele>785.0</ele><time>2026-05-03T08:27:48Z</time></trkpt><trkpt lat="42.28478911506094" lon="13.705928843779823"><ele>785.0000000000001</ele><time>2026-05-03T08:27:49Z</time></trkpt><trkpt lat="42.284764416403256" lon="13.706049650528211"><ele>785.0</ele><time>2026-05-03T08:27:50Z</time></trkpt><trkpt lat="42.2847360438073" lon="13.706179340603585"><ele>785.0</ele><time>2026-05-03T08:27:51Z</time></trkpt><trkpt lat="42.284701415003184" lon="13.706280358819749"><ele>785.0</ele><time>2026-05-03T08:27:52Z</time></trkpt><trkpt lat="42.28466024891238" lon="13.70638702985117"><ele>785.0000000000001</ele><time>2026-05-03T08:27:53Z</time></trkpt><trkpt lat="42.284610835130636" lon="13.70647016781714"><ele>785.0</ele><time>2026-05-03T08:27:54Z</time></trkpt><trkpt lat="42.28456324189647" lon="13.70658716761507"><ele>789.0</ele><time>2026-05-03T08:27:55Z</time></trkpt><trkpt lat="42.28450124931694" lon="13.70669310737559"><ele>793.0</ele><time>2026-05-03T08:27:56Z</time></trkpt><trkpt lat="42.28444006009789" lon="13.706784473622644"><ele>797.0</ele><time>2026-05-03T08:27:57Z</time></trkpt><trkpt lat="42.28437366368726" lon="13.70686995851848"><ele>801.0</ele><time>2026-05-03T08:27:58Z</time></trkpt><trkpt lat="42.28429851876597" lon="13.706952435865935"><ele>805.0</ele><time>2026-05-03T08:27:59Z</time></trkpt><trkpt lat="42.28423852951319" lon="13.7070211691973"><ele>805.0</ele><time>2026-05-03T08:28:00Z</time></trkpt><trkpt lat="42.28416766504712" lon="13.707115823834664"><ele>805.0</ele><time>2026-05-03T08:28:01Z</time></trkpt><trkpt lat="42.28409337487125" lon="13.707210899248732"><ele>805.0</ele><time>2026-05-03T08:28:02Z</time></trkpt><trkpt lat="42.28401451830409" lon="13.7073129044903"><ele>805.0</ele><time>2026-05-03T08:28:03Z</time></trkpt><trkpt lat="42.283931729515494" lon="13.70742785807375"><ele>805.0</ele><time>2026-05-03T08:28:04Z</time></trkpt><trkpt lat="42.28385526481173" lon="13.707536243627338"><ele>807.6</ele><time>2026-05-03T08:28:05Z</time></trkpt><trkpt lat="42.28377844196546" lon="13.707649065977948"><ele>810.2</ele><time>2026-05-03T08:28:06Z</time></trkpt><trkpt lat="42.283715126538404" lon="13.70776799009291"><ele>812.8</ele><time>2026-05-03T08:28:07Z</time></trkpt><trkpt lat="42.28364912012974" lon="13.707892274418873"><ele>815.4</ele><time>2026-05-03T08:28:08Z</time></trkpt><trkpt lat="42.283600896930636" lon="13.708004594554927"><ele>818.0</ele><time>2026-05-03T08:28:09Z</time></trkpt><trkpt lat="42.283548183128616" lon="13.70811124403458"><ele>818.0</ele><time>2026-05-03T08:28:10Z</time></trkpt><trkpt lat="42.28347956384492" lon="13.708200788716455"><ele>818.0</ele><time>2026-05-03T08:28:11Z</time></trkpt><trkpt lat="42.28341702659356" lon="13.708284315037368"><ele>818.0</ele><time>2026-05-03T08:28:12Z</time></trkpt><trkpt lat="42.283348703785094" lon="13.70836633572522"><ele>818.0</ele><time>2026-05-03T08:28:13Z</time></trkpt><trkpt lat="42.28328213540438" lon="13.70844767916286"><ele>818.0</ele><time>2026-05-03T08:28:14Z</time></trkpt><trkpt lat="42.28320961892" lon="13.708537409695953"><ele>818.5000000000001</ele><time>2026-05-03T08:28:15Z</time></trkpt><trkpt lat="42.28313561939384" lon="13.708623048352253"><ele>819.0</ele><time>2026-05-03T08:28:16Z</time></trkpt><trkpt lat="42.28306128122044" lon="13.70869935277028"><ele>819.5</ele><time>2026-05-03T08:28:17Z</time></trkpt><trkpt lat="42.2829878259614" lon="13.708769149578435"><ele>820.0</ele><time>2026-05-03T08:28:18Z</time></trkpt><trkpt lat="42.282926495467954" lon="13.708822675898837"><ele>820.5000000000001</ele><time>2026-05-03T08:28:19Z</time></trkpt><trkpt lat="42.28285536203367" lon="13.708847909857672"><ele>821.0</ele><time>2026-05-03T08:28:20Z</time></trkpt><trkpt lat="42.282780784078696" lon="13.708851531993773"><ele>821.0</ele><time>2026-05-03T08:28:21Z</time></trkpt><trkpt lat="42.28270897720335" lon="13.70887752975603"><ele>821.0</ele><time>2026-05-03T08:28:22Z</time></trkpt><trkpt lat="42.28263453469394" lon="13.708936158837503"><ele>821.0</ele><time>2026-05-03T08:28:23Z</time></trkpt><trkpt lat="42.28254368137663" lon="13.709006146375106"><ele>821.0</ele><time>2026-05-03T08:28:24Z</time></trkpt><trkpt lat="42.2824548975247" lon="13.709073304201889"><ele>821.0</ele><time>2026-05-03T08:28:25Z</time></trkpt><trkpt lat="42.282365798560605" lon="13.709143207012474"><ele>821.0000000000001</ele><time>2026-05-03T08:28:26Z</time></trkpt><trkpt lat="42.282277068365325" lon="13.7092042358642"><ele>821.0</ele><time>2026-05-03T08:28:27Z</time></trkpt><trkpt lat="42.2821858528157" lon="13.70927127174907"><ele>821.0</ele><time>2026-05-03T08:28:28Z</time></trkpt><trkpt lat="42.28211174656218" lon="13.70932728037733"><ele>821.0</ele><time>2026-05-03T08:28:29Z</time></trkpt><trkpt lat="42.28204458005474" lon="13.709375879367169"><ele>821.0000000000001</ele><time>2026-05-03T08:28:30Z</time></trkpt><trkpt lat="42.281974614014345" lon="13.709417918108885"><ele>821.0</ele><time>2026-05-03T08:28:31Z</time></trkpt><trkpt lat="42.28190895834182" lon="13.709468662519555"><ele>821.1666666666667</ele><time>2026-05-03T08:28:32Z</time></trkpt><trkpt lat="42.281835892248836" lon="13.709524140703849"><ele>821.3333333333334</ele><time>2026-05-03T08:28:33Z</time></trkpt><trkpt lat="42.28176170094181" lon="13.709553517201513"><ele>821.5</ele><time>2026-05-03T08:28:34Z</time></trkpt><trkpt lat="42.28167926655546" lon="13.70958815436251"><ele>821.6666666666667</ele><time>2026-05-03T08:28:35Z</time></trkpt><trkpt lat="42.281600308956236" lon="13.709634147554548"><ele>821.8333333333334</ele><time>2026-05-03T08:28:36Z</time></trkpt><trkpt lat="42.2815333272657" lon="13.70970589003644"><ele>822.0</ele><time>2026-05-03T08:28:37Z</time></trkpt><trkpt lat="42.2814677069039" lon="13.709785136567048"><ele>825.5</ele><time>2026-05-03T08:28:38Z</time></trkpt><trkpt lat="42.28139707241977" lon="13.709839637669775"><ele>829.0</ele><time>2026-05-03T08:28:39Z</time></trkpt><trkpt lat="42.28132621392064" lon="13.709876452932004"><ele>832.5</ele><time>2026-05-03T08:28:40Z</time></trkpt><trkpt lat="42.28125573857052" lon="13.70990998955355"><ele>836.0</ele><time>2026-05-03T08:28:41Z</time></trkpt><trkpt lat="42.281180566533536" lon="13.70993631973093"><ele>839.5</ele><time>2026-05-03T08:28:42Z</time></trkpt><trkpt lat="42.28111057875801" lon="13.709950341092446"><ele>843.0</ele><time>2026-05-03T08:28:43Z</time></trkpt><trkpt lat="42.2810387336026" lon="13.709972884945136"><ele>843.0</ele><time>2026-05-03T08:28:44Z</time></trkpt><trkpt lat="42.280954970262165" lon="13.710000296177318"><ele>843.0</ele><time>2026-05-03T08:28:45Z</time></trkpt><trkpt lat="42.28088425461859" lon="13.710036270263984"><ele>843.0</ele><time>2026-05-03T08:28:46.001Z</time></trkpt><trkpt lat="42.280814140312295" lon="13.710074460611468"><ele>843.0</ele><time>2026-05-03T08:28:47.001Z</time></trkpt><trkpt lat="42.280680843744584" lon="13.710115818246459"><ele>843.0</ele><time>2026-05-03T08:28:49.001Z</time></trkpt><trkpt lat="42.28060084756855" lon="13.710122423853301"><ele>844.8333333333334</ele><time>2026-05-03T08:28:50.001Z</time></trkpt><trkpt lat="42.28051407185923" lon="13.710130522793387"><ele>846.6666666666667</ele><time>2026-05-03T08:28:51.001Z</time></trkpt><trkpt lat="42.28043072580374" lon="13.71014370761434"><ele>848.5</ele><time>2026-05-03T08:28:52.001Z</time></trkpt><trkpt lat="42.2803454097968" lon="13.710139317815866"><ele>850.3333333333334</ele><time>2026-05-03T08:28:53.001Z</time></trkpt><trkpt lat="42.280268450300824" lon="13.71013286829716"><ele>852.1666666666667</ele><time>2026-05-03T08:28:54.001Z</time></trkpt><trkpt lat="42.280200276780405" lon="13.710129084554817"><ele>854.0</ele><time>2026-05-03T08:28:55.001Z</time></trkpt><trkpt lat="42.28013308821851" lon="13.710142170178123"><ele>854.0000000000001</ele><time>2026-05-03T08:28:56.001Z</time></trkpt><trkpt lat="42.28005599071147" lon="13.710185890771514"><ele>854.0</ele><time>2026-05-03T08:28:57.001Z</time></trkpt><trkpt lat="42.27997813078663" lon="13.710215029992861"><ele>854.0</ele><time>2026-05-03T08:28:58.001Z</time></trkpt><trkpt lat="42.27989657173805" lon="13.710222025734094"><ele>854.0</ele><time>2026-05-03T08:28:59.001Z</time></trkpt><trkpt lat="42.27980758221245" lon="13.710216423663187"><ele>854.0000000000001</ele><time>2026-05-03T08:29:00.001Z</time></trkpt><trkpt lat="42.27972328269506" lon="13.710221372209272"><ele>854.0</ele><time>2026-05-03T08:29:01Z</time></trkpt><trkpt lat="42.279629501959406" lon="13.710220819379392"><ele>855.1666666666667</ele><time>2026-05-03T08:29:02Z</time></trkpt><trkpt lat="42.27953979521284" lon="13.710207326394743"><ele>856.3333333333334</ele><time>2026-05-03T08:29:03Z</time></trkpt><trkpt lat="42.27943913455855" lon="13.710192254449291"><ele>857.5</ele><time>2026-05-03T08:29:04Z</time></trkpt><trkpt lat="42.27933492416969" lon="13.71020062379209"><ele>858.6666666666667</ele><time>2026-05-03T08:29:05Z</time></trkpt><trkpt lat="42.27925891641877" lon="13.710201849191362"><ele>859.8333333333334</ele><time>2026-05-03T08:29:06Z</time></trkpt><trkpt lat="42.27919104665736" lon="13.71017013678724"><ele>861.0</ele><time>2026-05-03T08:29:07Z</time></trkpt><trkpt lat="42.27912536469935" lon="13.710120646239867"><ele>861.0</ele><time>2026-05-03T08:29:08Z</time></trkpt><trkpt lat="42.27905577039144" lon="13.710086709486957"><ele>860.9999999999999</ele><time>2026-05-03T08:29:09Z</time></trkpt><trkpt lat="42.278966607231446" lon="13.71007700675053"><ele>860.9999999999999</ele><time>2026-05-03T08:29:10Z</time></trkpt><trkpt lat="42.278858110500906" lon="13.710087584696009"><ele>861.0</ele><time>2026-05-03T08:29:11Z</time></trkpt><trkpt lat="42.27875639954971" lon="13.710111277084437"><ele>861.0</ele><time>2026-05-03T08:29:12Z</time></trkpt><trkpt lat="42.278641621000794" lon="13.710133342790632"><ele>861.5</ele><time>2026-05-03T08:29:13Z</time></trkpt><trkpt lat="42.27854385920956" lon="13.71015425178936"><ele>862.0</ele><time>2026-05-03T08:29:14Z</time></trkpt><trkpt lat="42.278462330520526" lon="13.710159902225895"><ele>862.5</ele><time>2026-05-03T08:29:15Z</time></trkpt><trkpt lat="42.278377703139135" lon="13.710163748826952"><ele>863.0</ele><time>2026-05-03T08:29:16Z</time></trkpt><trkpt lat="42.27829029651028" lon="13.710182894214745"><ele>863.5</ele><time>2026-05-03T08:29:17Z</time></trkpt><trkpt lat="42.278203851254936" lon="13.71022166382971"><ele>864.0</ele><time>2026-05-03T08:29:18Z</time></trkpt><trkpt lat="42.2781171805135" lon="13.710258764480239"><ele>866.6666666666666</ele><time>2026-05-03T08:29:19Z</time></trkpt><trkpt lat="42.27802658523903" lon="13.710281167737135"><ele>869.3333333333333</ele><time>2026-05-03T08:29:20Z</time></trkpt><trkpt lat="42.277939081448366" lon="13.710306242389567"><ele>872.0</ele><time>2026-05-03T08:29:21Z</time></trkpt><trkpt lat="42.27786714164026" lon="13.710324435140285"><ele>874.6666666666666</ele><time>2026-05-03T08:29:22Z</time></trkpt><trkpt lat="42.27779132176089" lon="13.710317720148879"><ele>877.3333333333333</ele><time>2026-05-03T08:29:23Z</time></trkpt><trkpt lat="42.277721186870245" lon="13.710316880178576"><ele>880.0</ele><time>2026-05-03T08:29:24Z</time></trkpt><trkpt lat="42.27765021868914" lon="13.71033715203417"><ele>879.9999999999999</ele><time>2026-05-03T08:29:25Z</time></trkpt><trkpt lat="42.27757807921772" lon="13.710353706312496"><ele>880.0</ele><time>2026-05-03T08:29:26Z</time></trkpt><trkpt lat="42.277501477022696" lon="13.710373294626216"><ele>880.0</ele><time>2026-05-03T08:29:27Z</time></trkpt><trkpt lat="42.2774211556133" lon="13.710398674619011"><ele>880.0</ele><time>2026-05-03T08:29:28Z</time></trkpt><trkpt lat="42.27734522963519" lon="13.710496228930017"><ele>879.9999999999999</ele><time>2026-05-03T08:29:30Z</time></trkpt><trkpt lat="42.27729257186579" lon="13.710571701417706"><ele>880.0</ele><time>2026-05-03T08:29:32Z</time></trkpt><trkpt lat="42.2771896721028" lon="13.710608714986519"><ele>879.0</ele><time>2026-05-03T08:29:35Z</time></trkpt><trkpt lat="42.27709025460078" lon="13.710624156283375"><ele>878.0</ele><time>2026-05-03T08:29:37Z</time></trkpt><trkpt lat="42.2769800606122" lon="13.710656196296092"><ele>877.0</ele><time>2026-05-03T08:29:39Z</time></trkpt><trkpt lat="42.276885682377575" lon="13.710702859394319"><ele>876.0</ele><time>2026-05-03T08:29:41Z</time></trkpt><trkpt lat="42.27678519696917" lon="13.710750291163789"><ele>875.0</ele><time>2026-05-03T08:29:43Z</time></trkpt><trkpt lat="42.276690606617144" lon="13.7107716796226"><ele>875.0</ele><time>2026-05-03T08:29:45Z</time></trkpt><trkpt lat="42.27657800113737" lon="13.710743959977389"><ele>875.0</ele><time>2026-05-03T08:29:47Z</time></trkpt><trkpt lat="42.27647115170893" lon="13.710710829083055"><ele>875.0</ele><time>2026-05-03T08:29:49Z</time></trkpt><trkpt lat="42.27635816795067" lon="13.710703711322147"><ele>875.0</ele><time>2026-05-03T08:29:51Z</time></trkpt><trkpt lat="42.27624817973392" lon="13.71068471103412"><ele>875.0</ele><time>2026-05-03T08:29:53Z</time></trkpt><trkpt lat="42.27614960615297" lon="13.710769906636783"><ele>873.4</ele><time>2026-05-03T08:29:55Z</time></trkpt><trkpt lat="42.2760475356099" lon="13.710891735641592"><ele>871.8</ele><time>2026-05-03T08:29:57Z</time></trkpt><trkpt lat="42.275991441509476" lon="13.710943033222105"><ele>870.2</ele><time>2026-05-03T08:29:58Z</time></trkpt><trkpt lat="42.27591897978929" lon="13.710985996125464"><ele>868.6</ele><time>2026-05-03T08:29:59Z</time></trkpt><trkpt lat="42.27583089329963" lon="13.711017515650296"><ele>867.0</ele><time>2026-05-03T08:30:00Z</time></trkpt><trkpt lat="42.27573620602289" lon="13.711048345137998"><ele>867.0</ele><time>2026-05-03T08:30:01Z</time></trkpt><trkpt lat="42.2756527999086" lon="13.711074004506292"><ele>867.0</ele><time>2026-05-03T08:30:02Z</time></trkpt><trkpt lat="42.27558215134919" lon="13.711097945020272"><ele>867.0</ele><time>2026-05-03T08:30:03Z</time></trkpt><trkpt lat="42.27551935100352" lon="13.711137281625936"><ele>867.0</ele><time>2026-05-03T08:30:04Z</time></trkpt><trkpt lat="42.275444301169216" lon="13.71118928012451"><ele>867.0</ele><time>2026-05-03T08:30:05Z</time></trkpt><trkpt lat="42.27534650717911" lon="13.711241110842455"><ele>867.0</ele><time>2026-05-03T08:30:06Z</time></trkpt><trkpt lat="42.27525390397265" lon="13.711295432139888"><ele>868.2</ele><time>2026-05-03T08:30:07Z</time></trkpt><trkpt lat="42.275166278566694" lon="13.711361273790903"><ele>869.4000000000001</ele><time>2026-05-03T08:30:08Z</time></trkpt><trkpt lat="42.27508580690501" lon="13.711443189377194"><ele>870.5999999999999</ele><time>2026-05-03T08:30:09Z</time></trkpt><trkpt lat="42.275006854544124" lon="13.711540510641072"><ele>871.8</ele><time>2026-05-03T08:30:10Z</time></trkpt><trkpt lat="42.27493349136322" lon="13.711636802026693"><ele>873.0</ele><time>2026-05-03T08:30:11Z</time></trkpt><trkpt lat="42.27485798709426" lon="13.711722362914267"><ele>873.0</ele><time>2026-05-03T08:30:12Z</time></trkpt><trkpt lat="42.27478514728099" lon="13.711809397269514"><ele>873.0</ele><time>2026-05-03T08:30:13Z</time></trkpt><trkpt lat="42.27472715077927" lon="13.711883527253784"><ele>873.0</ele><time>2026-05-03T08:30:14Z</time></trkpt><trkpt lat="42.274669153183375" lon="13.71193365495057"><ele>873.0</ele><time>2026-05-03T08:30:15Z</time></trkpt><trkpt lat="42.27460786058412" lon="13.711979779072532"><ele>873.0</ele><time>2026-05-03T08:30:16Z</time></trkpt><trkpt lat="42.274545873182106" lon="13.71204324954589"><ele>873.0</ele><time>2026-05-03T08:30:17Z</time></trkpt><trkpt lat="42.274472928796506" lon="13.712111295011264"><ele>873.1666666666666</ele><time>2026-05-03T08:30:18Z</time></trkpt><trkpt lat="42.27440649230688" lon="13.712169444129541"><ele>873.3333333333333</ele><time>2026-05-03T08:30:19Z</time></trkpt><trkpt lat="42.274344145154146" lon="13.712206205698697"><ele>873.5</ele><time>2026-05-03T08:30:20Z</time></trkpt><trkpt lat="42.27426014082621" lon="13.712242273952125"><ele>873.6666666666666</ele><time>2026-05-03T08:30:22Z</time></trkpt><trkpt lat="42.274173608214035" lon="13.712196244174676"><ele>873.8333333333333</ele><time>2026-05-03T08:30:25Z</time></trkpt><trkpt lat="42.27409277201595" lon="13.712241900236371"><ele>874.0</ele><time>2026-05-03T08:30:27Z</time></trkpt><trkpt lat="42.27402025250854" lon="13.712372910614395"><ele>873.9999999999999</ele><time>2026-05-03T08:30:29Z</time></trkpt><trkpt lat="42.273976777907414" lon="13.712474003979388"><ele>874.0</ele><time>2026-05-03T08:30:30Z</time></trkpt><trkpt lat="42.27394397939902" lon="13.712548985555166"><ele>874.0</ele><time>2026-05-03T08:30:31Z</time></trkpt><trkpt lat="42.27388661801104" lon="13.712597519695006"><ele>874.0</ele><time>2026-05-03T08:30:33Z</time></trkpt><trkpt lat="42.27386036938543" lon="13.71249778097213"><ele>873.9999999999999</ele><time>2026-05-03T08:30:50Z</time></trkpt><trkpt lat="42.27385481905756" lon="13.712337536619494"><ele>874.0</ele><time>2026-05-03T08:30:52.001Z</time></trkpt><trkpt lat="42.27384756013091" lon="13.712241400279115"><ele>874.9999999999999</ele><time>2026-05-03T08:30:53.001Z</time></trkpt><trkpt lat="42.273832372631595" lon="13.712132076964817"><ele>876.0</ele><time>2026-05-03T08:30:54.001Z</time></trkpt><trkpt lat="42.2738139829838" lon="13.712028511120153"><ele>877.0</ele><time>2026-05-03T08:30:55.001Z</time></trkpt><trkpt lat="42.27379176875139" lon="13.711929159891566"><ele>878.0</ele><time>2026-05-03T08:30:56.001Z</time></trkpt><trkpt lat="42.27376085552814" lon="13.711837313875442"><ele>878.9999999999999</ele><time>2026-05-03T08:30:57.001Z</time></trkpt><trkpt lat="42.27372621907468" lon="13.711735516519912"><ele>880.0</ele><time>2026-05-03T08:30:58Z</time></trkpt><trkpt lat="42.27369012191816" lon="13.7116276998981"><ele>879.9999999999999</ele><time>2026-05-03T08:30:59Z</time></trkpt><trkpt lat="42.27365518407164" lon="13.711517049651269"><ele>880.0</ele><time>2026-05-03T08:31:00Z</time></trkpt><trkpt lat="42.273614897480776" lon="13.711410214769943"><ele>880.0</ele><time>2026-05-03T08:31:01Z</time></trkpt><trkpt lat="42.27357457909368" lon="13.711300636511076"><ele>880.0</ele><time>2026-05-03T08:31:02Z</time></trkpt><trkpt lat="42.273545947730135" lon="13.711212121464767"><ele>879.9999999999999</ele><time>2026-05-03T08:31:03Z</time></trkpt><trkpt lat="42.27348297954422" lon="13.711094707311059"><ele>880.0</ele><time>2026-05-03T08:31:05Z</time></trkpt><trkpt lat="42.273447287113335" lon="13.711024114623124"><ele>879.3333333333333</ele><time>2026-05-03T08:31:06Z</time></trkpt><trkpt lat="42.27341421380318" lon="13.710943914013022"><ele>878.6666666666666</ele><time>2026-05-03T08:31:07Z</time></trkpt><trkpt lat="42.2733789962213" lon="13.710857780062645"><ele>878.0</ele><time>2026-05-03T08:31:08Z</time></trkpt><trkpt lat="42.27333866087214" lon="13.710769895943198"><ele>877.3333333333333</ele><time>2026-05-03T08:31:09Z</time></trkpt><trkpt lat="42.27329570500891" lon="13.710689387855513"><ele>876.6666666666666</ele><time>2026-05-03T08:31:10Z</time></trkpt><trkpt lat="42.27326306692959" lon="13.710615635375351"><ele>876.0</ele><time>2026-05-03T08:31:11Z</time></trkpt><trkpt lat="42.27318827825152" lon="13.710503575585037"><ele>877.1666666666666</ele><time>2026-05-03T08:31:13Z</time></trkpt><trkpt lat="42.27309872399582" lon="13.710411150628726"><ele>878.3333333333333</ele><time>2026-05-03T08:31:15Z</time></trkpt><trkpt lat="42.27303921533581" lon="13.710378430880665"><ele>879.5</ele><time>2026-05-03T08:31:16Z</time></trkpt><trkpt lat="42.27297351269937" lon="13.710365921328568"><ele>880.6666666666666</ele><time>2026-05-03T08:31:17Z</time></trkpt><trkpt lat="42.272897013328766" lon="13.710367972426395"><ele>881.8333333333333</ele><time>2026-05-03T08:31:18Z</time></trkpt><trkpt lat="42.272812130702825" lon="13.71038628243597"><ele>883.0</ele><time>2026-05-03T08:31:19Z</time></trkpt><trkpt lat="42.272728774843664" lon="13.71040805661453"><ele>882.9999999999999</ele><time>2026-05-03T08:31:20Z</time></trkpt><trkpt lat="42.272636678410066" lon="13.710434440702736"><ele>883.0</ele><time>2026-05-03T08:31:21Z</time></trkpt><trkpt lat="42.272551015374226" lon="13.710448372481626"><ele>883.0</ele><time>2026-05-03T08:31:22Z</time></trkpt><trkpt lat="42.27244900156668" lon="13.710436737542942"><ele>883.0</ele><time>2026-05-03T08:31:24Z</time></trkpt><trkpt lat="42.27239852834662" lon="13.710358291581583"><ele>882.9999999999999</ele><time>2026-05-03T08:31:27Z</time></trkpt><trkpt lat="42.272370678586555" lon="13.710256081247577"><ele>883.0</ele><time>2026-05-03T08:31:29Z</time></trkpt><trkpt lat="42.27232181208596" lon="13.710120886893453"><ele>882.0</ele><time>2026-05-03T08:31:31Z</time></trkpt><trkpt lat="42.272220158611766" lon="13.7100525237693"><ele>881.0</ele><time>2026-05-03T08:31:33Z</time></trkpt><trkpt lat="42.272112874639944" lon="13.710019989176464"><ele>880.0</ele><time>2026-05-03T08:31:35Z</time></trkpt><trkpt lat="42.27202451986075" lon="13.709924284710882"><ele>879.0</ele><time>2026-05-03T08:31:37Z</time></trkpt><trkpt lat="42.27193572222547" lon="13.709790955323042"><ele>879.0</ele><time>2026-05-03T08:31:39Z</time></trkpt><trkpt lat="42.27188353644883" lon="13.709711864283149"><ele>879.0</ele><time>2026-05-03T08:31:40Z</time></trkpt><trkpt lat="42.27183387824007" lon="13.709630855758443"><ele>879.0</ele><time>2026-05-03T08:31:41Z</time></trkpt><trkpt lat="42.27179401845998" lon="13.709538348237476"><ele>879.0</ele><time>2026-05-03T08:31:42Z</time></trkpt><trkpt lat="42.271768524529975" lon="13.709443201503083"><ele>879.0</ele><time>2026-05-03T08:31:43Z</time></trkpt><trkpt lat="42.27174763734788" lon="13.709342392593909"><ele>879.0</ele><time>2026-05-03T08:31:44Z</time></trkpt><trkpt lat="42.27173571140198" lon="13.709246649178516"><ele>878.8333333333334</ele><time>2026-05-03T08:31:45Z</time></trkpt><trkpt lat="42.27171914857103" lon="13.709149695213176"><ele>878.6666666666667</ele><time>2026-05-03T08:31:46Z</time></trkpt><trkpt lat="42.271676939812686" lon="13.708993542737543"><ele>878.5</ele><time>2026-05-03T08:31:48Z</time></trkpt><trkpt lat="42.27165821032659" lon="13.708908583626155"><ele>878.3333333333334</ele><time>2026-05-03T08:31:49Z</time></trkpt><trkpt lat="42.271644417023914" lon="13.708818507316712"><ele>878.1666666666667</ele><time>2026-05-03T08:31:50Z</time></trkpt><trkpt lat="42.27162852904164" lon="13.708725470190878"><ele>878.0</ele><time>2026-05-03T08:31:51Z</time></trkpt><trkpt lat="42.27161228653677" lon="13.708640547967086"><ele>877.5000000000001</ele><time>2026-05-03T08:31:52Z</time></trkpt><trkpt lat="42.271601428699896" lon="13.708542231008725"><ele>877.0</ele><time>2026-05-03T08:31:53Z</time></trkpt><trkpt lat="42.27159960869314" lon="13.708440400233386"><ele>876.5</ele><time>2026-05-03T08:31:54Z</time></trkpt><trkpt lat="42.27160242199599" lon="13.70834330357397"><ele>876.0</ele><time>2026-05-03T08:31:55Z</time></trkpt><trkpt lat="42.27159738759211" lon="13.708251386293405"><ele>875.5000000000001</ele><time>2026-05-03T08:31:56Z</time></trkpt><trkpt lat="42.271580129546074" lon="13.70812103929927"><ele>875.0</ele><time>2026-05-03T08:31:58Z</time></trkpt><trkpt lat="42.27157441483224" lon="13.708031557973298"><ele>875.0</ele><time>2026-05-03T08:32:30Z</time></trkpt><trkpt lat="42.27158781777318" lon="13.707945205299076"><ele>875.0</ele><time>2026-05-03T08:35:20Z</time></trkpt><trkpt lat="42.271572855172955" lon="13.70779342387575"><ele>875.0</ele><time>2026-05-03T08:35:22Z</time></trkpt><trkpt lat="42.27155946021909" lon="13.707642941481595"><ele>875.0</ele><time>2026-05-03T08:35:24Z</time></trkpt><trkpt lat="42.27156622726137" lon="13.707478197890856"><ele>875.0</ele><time>2026-05-03T08:35:26Z</time></trkpt><trkpt lat="42.27160082561835" lon="13.707336158494645"><ele>874.0</ele><time>2026-05-03T08:35:28Z</time></trkpt><trkpt lat="42.27162462737339" lon="13.707206342652782"><ele>873.0</ele><time>2026-05-03T08:35:30Z</time></trkpt><trkpt lat="42.271638890035895" lon="13.707096693182397"><ele>872.0</ele><time>2026-05-03T08:35:32Z</time></trkpt><trkpt lat="42.27163997841193" lon="13.707006383437704"><ele>871.0</ele><time>2026-05-03T08:35:42Z</time></trkpt><trkpt lat="42.271659436684374" lon="13.706861598115601"><ele>870.0</ele><time>2026-05-03T08:35:44Z</time></trkpt><trkpt lat="42.271675122432555" lon="13.70670917948901"><ele>868.2</ele><time>2026-05-03T08:35:46Z</time></trkpt><trkpt lat="42.27169083044161" lon="13.706574751912132"><ele>866.4</ele><time>2026-05-03T08:35:48Z</time></trkpt><trkpt lat="42.271713019728836" lon="13.706417955931645"><ele>864.5999999999999</ele><time>2026-05-03T08:35:50Z</time></trkpt><trkpt lat="42.271722380979995" lon="13.706277393616892"><ele>862.8</ele><time>2026-05-03T08:35:52Z</time></trkpt><trkpt lat="42.27172662078741" lon="13.706151876540789"><ele>861.0</ele><time>2026-05-03T08:35:54Z</time></trkpt><trkpt lat="42.27171989027758" lon="13.70601811696055"><ele>859.5999999999999</ele><time>2026-05-03T08:35:56Z</time></trkpt><trkpt lat="42.271724097868415" lon="13.705873417335274"><ele>858.1999999999999</ele><time>2026-05-03T08:35:58Z</time></trkpt><trkpt lat="42.27171143920961" lon="13.705723641859908"><ele>856.8000000000001</ele><time>2026-05-03T08:36:00Z</time></trkpt><trkpt lat="42.271700969331064" lon="13.70557615177931"><ele>855.4000000000001</ele><time>2026-05-03T08:36:02Z</time></trkpt><trkpt lat="42.27166722665907" lon="13.705425539776867"><ele>854.0</ele><time>2026-05-03T08:36:04Z</time></trkpt><trkpt lat="42.271629576430286" lon="13.705293886652106"><ele>853.0</ele><time>2026-05-03T08:36:06Z</time></trkpt><trkpt lat="42.2715775690975" lon="13.705187939804128"><ele>852.0000000000001</ele><time>2026-05-03T08:36:08Z</time></trkpt><trkpt lat="42.27148785117762" lon="13.705130577121988"><ele>851.0</ele><time>2026-05-03T08:36:10Z</time></trkpt><trkpt lat="42.271385780938715" lon="13.70507655767013"><ele>850.0</ele><time>2026-05-03T08:36:12Z</time></trkpt><trkpt lat="42.27134200537575" lon="13.705015249096364"><ele>849.0</ele><time>2026-05-03T08:36:13Z</time></trkpt><trkpt lat="42.27125960407755" lon="13.704932728188426"><ele>848.0</ele><time>2026-05-03T08:36:15Z</time></trkpt><trkpt lat="42.271171165822246" lon="13.704849642670261"><ele>847.0</ele><time>2026-05-03T08:36:17Z</time></trkpt><trkpt lat="42.2711321210978" lon="13.704778951663148"><ele>846.0</ele><time>2026-05-03T08:36:18Z</time></trkpt><trkpt lat="42.271067865476304" lon="13.704668479994979"><ele>845.0</ele><time>2026-05-03T08:36:20Z</time></trkpt><trkpt lat="42.27100943017804" lon="13.704536596386342"><ele>844.0</ele><time>2026-05-03T08:36:22Z</time></trkpt><trkpt lat="42.27094263867507" lon="13.70438314982681"><ele>842.8333333333333</ele><time>2026-05-03T08:36:24Z</time></trkpt><trkpt lat="42.27091146547468" lon="13.704301237814999"><ele>841.6666666666666</ele><time>2026-05-03T08:36:25Z</time></trkpt><trkpt lat="42.27088233934393" lon="13.70421353728749"><ele>840.5</ele><time>2026-05-03T08:36:26Z</time></trkpt><trkpt lat="42.270849619718184" lon="13.704132976538022"><ele>839.3333333333333</ele><time>2026-05-03T08:36:27Z</time></trkpt><trkpt lat="42.270808457982824" lon="13.704068325295921"><ele>838.1666666666666</ele><time>2026-05-03T08:36:28Z</time></trkpt><trkpt lat="42.270714242585306" lon="13.704017168052449"><ele>837.0</ele><time>2026-05-03T08:36:30Z</time></trkpt><trkpt lat="42.27060011801439" lon="13.704000907064334"><ele>836.6666666666666</ele><time>2026-05-03T08:36:32Z</time></trkpt><trkpt lat="42.27050846195808" lon="13.70395963786756"><ele>836.3333333333333</ele><time>2026-05-03T08:36:34Z</time></trkpt><trkpt lat="42.27041239847267" lon="13.703953443742078"><ele>836.0</ele><time>2026-05-03T08:36:36Z</time></trkpt><trkpt lat="42.27034417383884" lon="13.7039598458125"><ele>835.6666666666666</ele><time>2026-05-03T08:36:36.999Z</time></trkpt><trkpt lat="42.270263294634944" lon="13.703961655279807"><ele>835.3333333333333</ele><time>2026-05-03T08:36:37.999Z</time></trkpt><trkpt lat="42.27018127913341" lon="13.703963567807591"><ele>835.0</ele><time>2026-05-03T08:36:38.999Z</time></trkpt><trkpt lat="42.27011240391342" lon="13.703963702836237"><ele>835.0</ele><time>2026-05-03T08:36:39.999Z</time></trkpt><trkpt lat="42.270017677122375" lon="13.703931686815208"><ele>835.0</ele><time>2026-05-03T08:36:41.999Z</time></trkpt><trkpt lat="42.26997179575207" lon="13.703808426250541"><ele>835.0</ele><time>2026-05-03T08:36:43.999Z</time></trkpt><trkpt lat="42.26990110241529" lon="13.70372147377524"><ele>835.0</ele><time>2026-05-03T08:36:45.999Z</time></trkpt><trkpt lat="42.26978036117012" lon="13.70365416701344"><ele>835.0</ele><time>2026-05-03T08:36:47.999Z</time></trkpt><trkpt lat="42.26970681811955" lon="13.703617641437205"><ele>833.3333333333333</ele><time>2026-05-03T08:36:48.999Z</time></trkpt><trkpt lat="42.26961675922341" lon="13.70357406510373"><ele>831.6666666666666</ele><time>2026-05-03T08:36:49.999Z</time></trkpt><trkpt lat="42.26953463062435" lon="13.703540479437162"><ele>830.0</ele><time>2026-05-03T08:36:50.999Z</time></trkpt><trkpt lat="42.269452941718036" lon="13.703512302602576"><ele>828.3333333333333</ele><time>2026-05-03T08:36:51.999Z</time></trkpt><trkpt lat="42.26937962497217" lon="13.703492727368745"><ele>826.6666666666666</ele><time>2026-05-03T08:36:52.999Z</time></trkpt><trkpt lat="42.26931441969028" lon="13.703472521421492"><ele>825.0</ele><time>2026-05-03T08:36:53.999Z</time></trkpt><trkpt lat="42.269253042055" lon="13.703452769020899"><ele>825.0</ele><time>2026-05-03T08:36:54.999Z</time></trkpt><trkpt lat="42.26914669474417" lon="13.703374934846158"><ele>825.0</ele><time>2026-05-03T08:36:56.999Z</time></trkpt><trkpt lat="42.26909222600333" lon="13.703317433797478"><ele>825.0</ele><time>2026-05-03T08:36:57.999Z</time></trkpt><trkpt lat="42.268974221701235" lon="13.703250824131604"><ele>825.0</ele><time>2026-05-03T08:36:59.999Z</time></trkpt><trkpt lat="42.26885905836416" lon="13.70318470057177"><ele>825.0</ele><time>2026-05-03T08:37:01.999Z</time></trkpt><trkpt lat="42.26874695572019" lon="13.703140806012753"><ele>823.4</ele><time>2026-05-03T08:37:03.999Z</time></trkpt><trkpt lat="42.2686566165495" lon="13.703139691383416"><ele>821.8</ele><time>2026-05-03T08:37:05.999Z</time></trkpt><trkpt lat="42.26866222577437" lon="13.703263433023439"><ele>820.2</ele><time>2026-05-03T08:37:14.999Z</time></trkpt><trkpt lat="42.26861730467975" lon="13.70334651081281"><ele>818.6</ele><time>2026-05-03T08:37:16.999Z</time></trkpt><trkpt lat="42.26850703105377" lon="13.703446520914483"><ele>817.0</ele><time>2026-05-03T08:37:18.999Z</time></trkpt><trkpt lat="42.26844974504973" lon="13.703530218405923"><ele>817.4999999999999</ele><time>2026-05-03T08:37:19.999Z</time></trkpt><trkpt lat="42.26839863496547" lon="13.703624612145466"><ele>818.0</ele><time>2026-05-03T08:37:20.999Z</time></trkpt><trkpt lat="42.268357557529164" lon="13.703713959069013"><ele>818.5</ele><time>2026-05-03T08:37:21.999Z</time></trkpt><trkpt lat="42.26831918993015" lon="13.703785231972477"><ele>819.0</ele><time>2026-05-03T08:37:22.999Z</time></trkpt><trkpt lat="42.2682573106408" lon="13.703897598398228"><ele>819.4999999999999</ele><time>2026-05-03T08:37:24.999Z</time></trkpt><trkpt lat="42.268194212185506" lon="13.704026203063083"><ele>820.0</ele><time>2026-05-03T08:37:26.999Z</time></trkpt><trkpt lat="42.26813905629504" lon="13.70416424701548"><ele>819.9999999999999</ele><time>2026-05-03T08:37:29Z</time></trkpt><trkpt lat="42.26812366524229" lon="13.704257085993675"><ele>820.0</ele><time>2026-05-03T08:37:30Z</time></trkpt><trkpt lat="42.268105093304" lon="13.704349776800152"><ele>820.0</ele><time>2026-05-03T08:37:31Z</time></trkpt><trkpt lat="42.268077027513584" lon="13.704438978761017"><ele>820.0</ele><time>2026-05-03T08:37:32Z</time></trkpt><trkpt lat="42.26804677498691" lon="13.704530492824961"><ele>819.9999999999999</ele><time>2026-05-03T08:37:33Z</time></trkpt><trkpt lat="42.26802286359374" lon="13.70461228827896"><ele>820.0</ele><time>2026-05-03T08:37:34Z</time></trkpt><trkpt lat="42.268000864547204" lon="13.704768569796785"><ele>821.2</ele><time>2026-05-03T08:37:36Z</time></trkpt><trkpt lat="42.267986211801016" lon="13.70489813766083"><ele>822.4</ele><time>2026-05-03T08:37:38Z</time></trkpt><trkpt lat="42.26792943107342" lon="13.70483498593235"><ele>823.5999999999999</ele><time>2026-05-03T08:37:53Z</time></trkpt><trkpt lat="42.26792732566094" lon="13.704684900790944"><ele>824.8</ele><time>2026-05-03T08:37:55Z</time></trkpt><trkpt lat="42.26791950953655" lon="13.70458894792157"><ele>826.0</ele><time>2026-05-03T08:37:57Z</time></trkpt><trkpt lat="42.26790264451561" lon="13.704435780905794"><ele>824.4999999999999</ele><time>2026-05-03T08:37:59Z</time></trkpt><trkpt lat="42.26788293767673" lon="13.704301567958009"><ele>823.0</ele><time>2026-05-03T08:38:01Z</time></trkpt><trkpt lat="42.26784289559035" lon="13.704202809065416"><ele>821.5</ele><time>2026-05-03T08:38:03Z</time></trkpt><trkpt lat="42.26777067660952" lon="13.704148657710038"><ele>820.0</ele><time>2026-05-03T08:38:05Z</time></trkpt><trkpt lat="42.26769145349772" lon="13.704149119066344"><ele>818.4999999999999</ele><time>2026-05-03T08:38:07Z</time></trkpt><trkpt lat="42.26759940169007" lon="13.70414573244993"><ele>817.0</ele><time>2026-05-03T08:38:09Z</time></trkpt><trkpt lat="42.26751042672114" lon="13.704069245313068"><ele>817.0</ele><time>2026-05-03T08:38:11Z</time></trkpt><trkpt lat="42.267455018697845" lon="13.703994399646323"><ele>817.0</ele><time>2026-05-03T08:38:12Z</time></trkpt><trkpt lat="42.267380818789654" lon="13.70390522459764"><ele>817.0</ele><time>2026-05-03T08:38:13Z</time></trkpt><trkpt lat="42.267298264764506" lon="13.703821798691632"><ele>817.0</ele><time>2026-05-03T08:38:14Z</time></trkpt><trkpt lat="42.26722659815665" lon="13.703733194974962"><ele>817.0</ele><time>2026-05-03T08:38:15Z</time></trkpt><trkpt lat="42.267167370293315" lon="13.703661542042559"><ele>817.6666666666666</ele><time>2026-05-03T08:38:16Z</time></trkpt><trkpt lat="42.26711073469404" lon="13.7035938250244"><ele>818.3333333333333</ele><time>2026-05-03T08:38:17Z</time></trkpt><trkpt lat="42.26705277976793" lon="13.703522069721954"><ele>819.0</ele><time>2026-05-03T08:38:18Z</time></trkpt><trkpt lat="42.26699876289749" lon="13.703453698906605"><ele>819.6666666666667</ele><time>2026-05-03T08:38:19Z</time></trkpt><trkpt lat="42.266935964261364" lon="13.70337199967041"><ele>820.3333333333334</ele><time>2026-05-03T08:38:20Z</time></trkpt><trkpt lat="42.266872904472606" lon="13.70328699895517"><ele>821.0</ele><time>2026-05-03T08:38:21Z</time></trkpt><trkpt lat="42.26681996221278" lon="13.703202539015619"><ele>819.1999999999999</ele><time>2026-05-03T08:38:22Z</time></trkpt><trkpt lat="42.266772691045084" lon="13.703113146554344"><ele>817.4</ele><time>2026-05-03T08:38:23Z</time></trkpt><trkpt lat="42.266716500431706" lon="13.702983179482326"><ele>815.6</ele><time>2026-05-03T08:38:25Z</time></trkpt><trkpt lat="42.26664284115086" lon="13.702912736895794"><ele>813.8</ele><time>2026-05-03T08:38:27Z</time></trkpt><trkpt lat="42.266553035058486" lon="13.702935355163632"><ele>812.0</ele><time>2026-05-03T08:38:29Z</time></trkpt><trkpt lat="42.266436027225154" lon="13.703010642311586"><ele>811.0000000000001</ele><time>2026-05-03T08:38:31Z</time></trkpt><trkpt lat="42.26636095630361" lon="13.70305927103801"><ele>810.0</ele><time>2026-05-03T08:38:32Z</time></trkpt><trkpt lat="42.266281365601564" lon="13.703123830697097"><ele>809.0</ele><time>2026-05-03T08:38:33Z</time></trkpt><trkpt lat="42.266202700502184" lon="13.703186857135718"><ele>808.0</ele><time>2026-05-03T08:38:34Z</time></trkpt><trkpt lat="42.26612263749991" lon="13.703250972527213"><ele>807.0000000000001</ele><time>2026-05-03T08:38:35Z</time></trkpt><trkpt lat="42.266051038306436" lon="13.703301753501568"><ele>806.0</ele><time>2026-05-03T08:38:36Z</time></trkpt><trkpt lat="42.2659789175121" lon="13.70335488119692"><ele>806.0</ele><time>2026-05-03T08:38:37Z</time></trkpt><trkpt lat="42.26589913111109" lon="13.703405158780615"><ele>806.0</ele><time>2026-05-03T08:38:38Z</time></trkpt><trkpt lat="42.26582033616044" lon="13.703437104527916"><ele>806.0</ele><time>2026-05-03T08:38:39Z</time></trkpt><trkpt lat="42.26572655743233" lon="13.703451032200425"><ele>806.0</ele><time>2026-05-03T08:38:40Z</time></trkpt><trkpt lat="42.26562019155946" lon="13.703452804757479"><ele>806.0</ele><time>2026-05-03T08:38:41Z</time></trkpt><trkpt lat="42.26551077366588" lon="13.703453390041265"><ele>805.8</ele><time>2026-05-03T08:38:42Z</time></trkpt><trkpt lat="42.265405713518824" lon="13.70345403878975"><ele>805.5999999999999</ele><time>2026-05-03T08:38:43Z</time></trkpt><trkpt lat="42.26529404665322" lon="13.703456097192184"><ele>805.4</ele><time>2026-05-03T08:38:44Z</time></trkpt><trkpt lat="42.265188126683114" lon="13.703465644411898"><ele>805.2</ele><time>2026-05-03T08:38:45Z</time></trkpt><trkpt lat="42.26508387086884" lon="13.703472031882102"><ele>805.0</ele><time>2026-05-03T08:38:46Z</time></trkpt><trkpt lat="42.26498149528764" lon="13.703481266886527"><ele>804.9999999999999</ele><time>2026-05-03T08:38:47Z</time></trkpt><trkpt lat="42.26489450665561" lon="13.703488089001267"><ele>805.0</ele><time>2026-05-03T08:38:48Z</time></trkpt><trkpt lat="42.264805866676454" lon="13.703483570953509"><ele>805.0</ele><time>2026-05-03T08:38:49Z</time></trkpt><trkpt lat="42.26472007992786" lon="13.703463793280449"><ele>805.0</ele><time>2026-05-03T08:38:50Z</time></trkpt><trkpt lat="42.2646218377381" lon="13.703430660936121"><ele>804.9999999999999</ele><time>2026-05-03T08:38:51Z</time></trkpt><trkpt lat="42.26454115230728" lon="13.703395937219668"><ele>805.0</ele><time>2026-05-03T08:38:52Z</time></trkpt><trkpt lat="42.264449670231265" lon="13.703351554014613"><ele>805.3333333333333</ele><time>2026-05-03T08:38:53Z</time></trkpt><trkpt lat="42.26436195458201" lon="13.703308553938276"><ele>805.6666666666666</ele><time>2026-05-03T08:38:54Z</time></trkpt><trkpt lat="42.26428383327681" lon="13.703263037802161"><ele>806.0</ele><time>2026-05-03T08:38:55Z</time></trkpt><trkpt lat="42.26420437596263" lon="13.70320470634374"><ele>806.3333333333333</ele><time>2026-05-03T08:38:56Z</time></trkpt><trkpt lat="42.26413297400933" lon="13.703144410825939"><ele>806.6666666666666</ele><time>2026-05-03T08:38:57Z</time></trkpt><trkpt lat="42.26406913100466" lon="13.703083318991274"><ele>807.0</ele><time>2026-05-03T08:38:58Z</time></trkpt><trkpt lat="42.264019152143575" lon="13.703019971426794"><ele>807.0</ele><time>2026-05-03T08:38:59Z</time></trkpt><trkpt lat="42.263947207454805" lon="13.702879704342694"><ele>807.0</ele><time>2026-05-03T08:39:01Z</time></trkpt><trkpt lat="42.26391651573407" lon="13.70279437500715"><ele>807.0</ele><time>2026-05-03T08:39:02Z</time></trkpt><trkpt lat="42.263882551133335" lon="13.702703124978227"><ele>807.0</ele><time>2026-05-03T08:39:03Z</time></trkpt><trkpt lat="42.26384314869788" lon="13.702609808131747"><ele>807.0</ele><time>2026-05-03T08:39:04Z</time></trkpt><trkpt lat="42.263806989992034" lon="13.70251113429165"><ele>807.0</ele><time>2026-05-03T08:39:05Z</time></trkpt><trkpt lat="42.26377687066361" lon="13.702418258760408"><ele>806.6666666666666</ele><time>2026-05-03T08:39:06Z</time></trkpt><trkpt lat="42.26374733495526" lon="13.702322939487605"><ele>806.3333333333333</ele><time>2026-05-03T08:39:07Z</time></trkpt><trkpt lat="42.263718009802574" lon="13.702229181269825"><ele>806.0</ele><time>2026-05-03T08:39:08Z</time></trkpt><trkpt lat="42.26369143575348" lon="13.702150054497476"><ele>805.6666666666666</ele><time>2026-05-03T08:39:09Z</time></trkpt><trkpt lat="42.26361399795578" lon="13.70202064412038"><ele>805.3333333333333</ele><time>2026-05-03T08:39:11Z</time></trkpt><trkpt lat="42.26356187103427" lon="13.7019577777135"><ele>805.0</ele><time>2026-05-03T08:39:12Z</time></trkpt><trkpt lat="42.26351118836253" lon="13.701879745936008"><ele>804.6</ele><time>2026-05-03T08:39:13Z</time></trkpt><trkpt lat="42.26346332976292" lon="13.701791146648032"><ele>804.2</ele><time>2026-05-03T08:39:14Z</time></trkpt><trkpt lat="42.26342013447697" lon="13.70171245435815"><ele>803.8</ele><time>2026-05-03T08:39:15Z</time></trkpt><trkpt lat="42.26332215870691" lon="13.701644410142174"><ele>803.4</ele><time>2026-05-03T08:39:16.999Z</time></trkpt><trkpt lat="42.2631969490939" lon="13.701666735787086"><ele>803.0</ele><time>2026-05-03T08:39:18.999Z</time></trkpt><trkpt lat="42.26312642730038" lon="13.701686284090316"><ele>806.8</ele><time>2026-05-03T08:39:19.999Z</time></trkpt><trkpt lat="42.26304336293633" lon="13.701689228580634"><ele>810.5999999999999</ele><time>2026-05-03T08:39:20.999Z</time></trkpt><trkpt lat="42.26296164636262" lon="13.701698155883056"><ele>814.4000000000001</ele><time>2026-05-03T08:39:21.999Z</time></trkpt><trkpt lat="42.26287614881726" lon="13.701742675291996"><ele>818.2</ele><time>2026-05-03T08:39:22.999Z</time></trkpt><trkpt lat="42.26279291570516" lon="13.701817899430612"><ele>822.0</ele><time>2026-05-03T08:39:23.999Z</time></trkpt><trkpt lat="42.26270256535578" lon="13.701907913237894"><ele>824.2</ele><time>2026-05-03T08:39:24.999Z</time></trkpt><trkpt lat="42.262604544656966" lon="13.701995672014656"><ele>826.4000000000001</ele><time>2026-05-03T08:39:25.999Z</time></trkpt><trkpt lat="42.262511316894155" lon="13.702058445350099"><ele>828.5999999999999</ele><time>2026-05-03T08:39:26.999Z</time></trkpt><trkpt lat="42.26241510835427" lon="13.702123785634027"><ele>830.8</ele><time>2026-05-03T08:39:27.999Z</time></trkpt><trkpt lat="42.262315064089954" lon="13.70218712011458"><ele>833.0</ele><time>2026-05-03T08:39:28.999Z</time></trkpt><trkpt lat="42.26221003661465" lon="13.702243224815952"><ele>833.0</ele><time>2026-05-03T08:39:29.999Z</time></trkpt><trkpt lat="42.26210464644794" lon="13.702325239512229"><ele>833.0</ele><time>2026-05-03T08:39:30.999Z</time></trkpt><trkpt lat="42.26199996809811" lon="13.702426180591708"><ele>833.0</ele><time>2026-05-03T08:39:31.999Z</time></trkpt><trkpt lat="42.26189544125313" lon="13.70254383974256"><ele>833.0</ele><time>2026-05-03T08:39:32.999Z</time></trkpt><trkpt lat="42.26179231471282" lon="13.70265207117739"><ele>832.25</ele><time>2026-05-03T08:39:33.999Z</time></trkpt><trkpt lat="42.26168792096181" lon="13.70275599525481"><ele>831.5</ele><time>2026-05-03T08:39:34.999Z</time></trkpt><trkpt lat="42.261592978108375" lon="13.702842770865212"><ele>830.75</ele><time>2026-05-03T08:39:35.999Z</time></trkpt><trkpt lat="42.261509874370184" lon="13.702909706553566"><ele>830.0</ele><time>2026-05-03T08:39:36.999Z</time></trkpt><trkpt lat="42.26139247641855" lon="13.702996354034202"><ele>830.0</ele><time>2026-05-03T08:39:37.999Z</time></trkpt><trkpt lat="42.26126793367227" lon="13.703077232452005"><ele>830.0</ele><time>2026-05-03T08:39:38.999Z</time></trkpt><trkpt lat="42.26114683374714" lon="13.703154380923534"><ele>830.0</ele><time>2026-05-03T08:39:40Z</time></trkpt><trkpt lat="42.261027144089546" lon="13.703237668735683"><ele>830.0</ele><time>2026-05-03T08:39:41Z</time></trkpt><trkpt lat="42.26090828799742" lon="13.703302626463804"><ele>830.0</ele><time>2026-05-03T08:39:42Z</time></trkpt><trkpt lat="42.26078881820567" lon="13.70336747043702"><ele>830.0</ele><time>2026-05-03T08:39:43Z</time></trkpt><trkpt lat="42.260669174912444" lon="13.703426560653767"><ele>830.0</ele><time>2026-05-03T08:39:44Z</time></trkpt><trkpt lat="42.26054820770098" lon="13.703464268639893"><ele>830.0</ele><time>2026-05-03T08:39:45Z</time></trkpt><trkpt lat="42.260423350528484" lon="13.703492701276096"><ele>830.0</ele><time>2026-05-03T08:39:46Z</time></trkpt><trkpt lat="42.26030375124539" lon="13.703523166966436"><ele>830.0</ele><time>2026-05-03T08:39:47Z</time></trkpt><trkpt lat="42.260191918092154" lon="13.703552608765731"><ele>830.0</ele><time>2026-05-03T08:39:48Z</time></trkpt><trkpt lat="42.260106118356845" lon="13.703565182268527"><ele>830.0</ele><time>2026-05-03T08:39:49Z</time></trkpt><trkpt lat="42.26000544181405" lon="13.703561092332935"><ele>830.0</ele><time>2026-05-03T08:39:51Z</time></trkpt><trkpt lat="42.259956154775864" lon="13.703487978677714"><ele>830.0</ele><time>2026-05-03T08:39:53Z</time></trkpt><trkpt lat="42.25992276751202" lon="13.703286054984423"><ele>830.0</ele><time>2026-05-03T08:39:55Z</time></trkpt><trkpt lat="42.25990278199171" lon="13.703141918215932"><ele>830.0</ele><time>2026-05-03T08:39:56Z</time></trkpt><trkpt lat="42.259889795128984" lon="13.702984286522316"><ele>830.0</ele><time>2026-05-03T08:39:57Z</time></trkpt><trkpt lat="42.25988173307422" lon="13.702820085072355"><ele>831.4</ele><time>2026-05-03T08:39:58Z</time></trkpt><trkpt lat="42.25987096402124" lon="13.702662565201997"><ele>832.8</ele><time>2026-05-03T08:39:59Z</time></trkpt><trkpt lat="42.259860155474364" lon="13.702522092536858"><ele>834.2</ele><time>2026-05-03T08:40:00Z</time></trkpt><trkpt lat="42.259855711810545" lon="13.702391866170192"><ele>835.6</ele><time>2026-05-03T08:40:01Z</time></trkpt><trkpt lat="42.259861926579774" lon="13.702247434511877"><ele>837.0</ele><time>2026-05-03T08:40:02Z</time></trkpt><trkpt lat="42.259884797887054" lon="13.702095722757596"><ele>837.0</ele><time>2026-05-03T08:40:03Z</time></trkpt><trkpt lat="42.259907506858454" lon="13.701943977028863"><ele>837.0</ele><time>2026-05-03T08:40:04Z</time></trkpt><trkpt lat="42.25991873414543" lon="13.701811672113106"><ele>837.0</ele><time>2026-05-03T08:40:05Z</time></trkpt><trkpt lat="42.2599171290321" lon="13.701698342240377"><ele>837.0</ele><time>2026-05-03T08:40:06Z</time></trkpt><trkpt lat="42.25989988027322" lon="13.701598279565761"><ele>837.0</ele><time>2026-05-03T08:40:07Z</time></trkpt><trkpt lat="42.25986272835068" lon="13.701503468248308"><ele>835.8</ele><time>2026-05-03T08:40:08Z</time></trkpt><trkpt lat="42.25980914626437" lon="13.701409883929992"><ele>834.6</ele><time>2026-05-03T08:40:09Z</time></trkpt><trkpt lat="42.259733066869515" lon="13.701339892862036"><ele>833.4</ele><time>2026-05-03T08:40:10Z</time></trkpt><trkpt lat="42.25963238798449" lon="13.701287625824826"><ele>832.1999999999999</ele><time>2026-05-03T08:40:11Z</time></trkpt><trkpt lat="42.25951231548771" lon="13.701234883530592"><ele>831.0</ele><time>2026-05-03T08:40:12Z</time></trkpt><trkpt lat="42.2593885705785" lon="13.701159696554893"><ele>836.0</ele><time>2026-05-03T08:40:13Z</time></trkpt><trkpt lat="42.259267594225385" lon="13.701078693244147"><ele>841.0</ele><time>2026-05-03T08:40:14Z</time></trkpt><trkpt lat="42.25914751387898" lon="13.701000643368141"><ele>846.0</ele><time>2026-05-03T08:40:15Z</time></trkpt><trkpt lat="42.25901346105957" lon="13.70093063259331"><ele>851.0</ele><time>2026-05-03T08:40:16Z</time></trkpt><trkpt lat="42.25886500061612" lon="13.70086235485795"><ele>851.0</ele><time>2026-05-03T08:40:17Z</time></trkpt><trkpt lat="42.25871622636153" lon="13.700796087737514"><ele>851.0</ele><time>2026-05-03T08:40:18Z</time></trkpt><trkpt lat="42.25856295921608" lon="13.70072581208784"><ele>851.0</ele><time>2026-05-03T08:40:19Z</time></trkpt><trkpt lat="42.258419815763865" lon="13.700664361476006"><ele>851.0</ele><time>2026-05-03T08:40:20Z</time></trkpt><trkpt lat="42.25828541140779" lon="13.700612606849859"><ele>851.0</ele><time>2026-05-03T08:40:21Z</time></trkpt><trkpt lat="42.258163320329146" lon="13.700576819227344"><ele>851.0</ele><time>2026-05-03T08:40:22Z</time></trkpt><trkpt lat="42.25805364321331" lon="13.700557233725187"><ele>851.0</ele><time>2026-05-03T08:40:23Z</time></trkpt><trkpt lat="42.25794189823201" lon="13.70054908317339"><ele>852.5999999999999</ele><time>2026-05-03T08:40:24Z</time></trkpt><trkpt lat="42.25783647565569" lon="13.70054662825452"><ele>854.2</ele><time>2026-05-03T08:40:25Z</time></trkpt><trkpt lat="42.25772971516494" lon="13.700563286578102"><ele>855.8000000000001</ele><time>2026-05-03T08:40:26Z</time></trkpt><trkpt lat="42.25762678590236" lon="13.700600330705718"><ele>857.4000000000001</ele><time>2026-05-03T08:40:27Z</time></trkpt><trkpt lat="42.25752680988809" lon="13.700655978257043"><ele>859.0</ele><time>2026-05-03T08:40:28Z</time></trkpt><trkpt lat="42.257434508083925" lon="13.700716353838564"><ele>858.9999999999999</ele><time>2026-05-03T08:40:29Z</time></trkpt><trkpt lat="42.257358771253976" lon="13.700768984217213"><ele>859.0</ele><time>2026-05-03T08:40:30Z</time></trkpt><trkpt lat="42.25729402027027" lon="13.700805541023193"><ele>859.0</ele><time>2026-05-03T08:40:31Z</time></trkpt><trkpt lat="42.257201191546905" lon="13.700849275312223"><ele>859.0</ele><time>2026-05-03T08:40:33Z</time></trkpt><trkpt lat="42.25714546679059" lon="13.700785937628646"><ele>858.9999999999999</ele><time>2026-05-03T08:40:35Z</time></trkpt><trkpt lat="42.25715590813304" lon="13.700629050585317"><ele>859.0</ele><time>2026-05-03T08:40:37Z</time></trkpt><trkpt lat="42.25714468016586" lon="13.70054017078923"><ele>858.1666666666666</ele><time>2026-05-03T08:40:38Z</time></trkpt><trkpt lat="42.25711599232915" lon="13.700463822714557"><ele>857.3333333333333</ele><time>2026-05-03T08:40:39Z</time></trkpt><trkpt lat="42.25707937858457" lon="13.700321457554036"><ele>856.5</ele><time>2026-05-03T08:40:41Z</time></trkpt><trkpt lat="42.257045389083586" lon="13.700203373380317"><ele>855.6666666666667</ele><time>2026-05-03T08:40:43Z</time></trkpt><trkpt lat="42.256969319407816" lon="13.700135297934937"><ele>854.8333333333334</ele><time>2026-05-03T08:40:45Z</time></trkpt><trkpt lat="42.25689984986227" lon="13.700156357051362"><ele>854.0</ele><time>2026-05-03T08:40:46Z</time></trkpt><trkpt lat="42.25681459767126" lon="13.700215176778537"><ele>853.6</ele><time>2026-05-03T08:40:47Z</time></trkpt><trkpt lat="42.25671051055277" lon="13.700270002875298"><ele>853.2</ele><time>2026-05-03T08:40:48Z</time></trkpt><trkpt lat="42.25660285610756" lon="13.700302750043253"><ele>852.8000000000001</ele><time>2026-05-03T08:40:49Z</time></trkpt><trkpt lat="42.2565015485195" lon="13.700342670337907"><ele>852.4000000000001</ele><time>2026-05-03T08:40:50Z</time></trkpt><trkpt lat="42.256401484714814" lon="13.70039223898934"><ele>852.0</ele><time>2026-05-03T08:40:51Z</time></trkpt><trkpt lat="42.256301926927144" lon="13.700453374286344"><ele>852.0</ele><time>2026-05-03T08:40:52Z</time></trkpt><trkpt lat="42.25620530765528" lon="13.700527334802663"><ele>852.0</ele><time>2026-05-03T08:40:53Z</time></trkpt><trkpt lat="42.25610524360131" lon="13.700605654224749"><ele>852.0</ele><time>2026-05-03T08:40:54Z</time></trkpt><trkpt lat="42.25600445411209" lon="13.70067990345732"><ele>852.0</ele><time>2026-05-03T08:40:55Z</time></trkpt><trkpt lat="42.25590805208727" lon="13.700755891855781"><ele>852.0</ele><time>2026-05-03T08:40:56Z</time></trkpt><trkpt lat="42.255815007683694" lon="13.700825325289264"><ele>852.0</ele><time>2026-05-03T08:40:57Z</time></trkpt><trkpt lat="42.25572120809788" lon="13.700884248150508"><ele>852.0</ele><time>2026-05-03T08:40:58Z</time></trkpt><trkpt lat="42.25562713925171" lon="13.700946905051445"><ele>852.0</ele><time>2026-05-03T08:40:59Z</time></trkpt><trkpt lat="42.255535628262734" lon="13.701008106283536"><ele>852.0</ele><time>2026-05-03T08:41:00Z</time></trkpt><trkpt lat="42.25544081708663" lon="13.701073799251756"><ele>853.8</ele><time>2026-05-03T08:41:01Z</time></trkpt><trkpt lat="42.25534484787028" lon="13.701137438574213"><ele>855.6</ele><time>2026-05-03T08:41:02Z</time></trkpt><trkpt lat="42.25524479151611" lon="13.701189230164628"><ele>857.3999999999999</ele><time>2026-05-03T08:41:03Z</time></trkpt><trkpt lat="42.255138601498416" lon="13.701221860425294"><ele>859.1999999999999</ele><time>2026-05-03T08:41:04Z</time></trkpt><trkpt lat="42.25502111068252" lon="13.701246143390629"><ele>861.0</ele><time>2026-05-03T08:41:05Z</time></trkpt><trkpt lat="42.254897456061755" lon="13.701278089053272"><ele>858.25</ele><time>2026-05-03T08:41:06Z</time></trkpt><trkpt lat="42.25477555883538" lon="13.701299787985286"><ele>855.5</ele><time>2026-05-03T08:41:07Z</time></trkpt><trkpt lat="42.25465595781936" lon="13.70131618919955"><ele>852.75</ele><time>2026-05-03T08:41:08Z</time></trkpt><trkpt lat="42.25454508953965" lon="13.701321678886105"><ele>850.0</ele><time>2026-05-03T08:41:09Z</time></trkpt><trkpt lat="42.25443715153969" lon="13.701323845558518"><ele>850.0</ele><time>2026-05-03T08:41:10Z</time></trkpt><trkpt lat="42.2543327479959" lon="13.701314614452338"><ele>850.0</ele><time>2026-05-03T08:41:11Z</time></trkpt><trkpt lat="42.25422345692635" lon="13.701301723602871"><ele>850.0</ele><time>2026-05-03T08:41:12Z</time></trkpt><trkpt lat="42.254109359144934" lon="13.701298954565216"><ele>850.0</ele><time>2026-05-03T08:41:13Z</time></trkpt><trkpt lat="42.25400319760029" lon="13.70130175037617"><ele>850.0</ele><time>2026-05-03T08:41:14Z</time></trkpt><trkpt lat="42.25391549131655" lon="13.701298056575625"><ele>847.1428571428571</ele><time>2026-05-03T08:41:15Z</time></trkpt><trkpt lat="42.25383521005102" lon="13.701303820639827"><ele>844.2857142857142</ele><time>2026-05-03T08:41:16Z</time></trkpt><trkpt lat="42.253760818169134" lon="13.70134317243074"><ele>841.4285714285714</ele><time>2026-05-03T08:41:17Z</time></trkpt><trkpt lat="42.253694710994765" lon="13.701400964443822"><ele>838.5714285714286</ele><time>2026-05-03T08:41:18Z</time></trkpt><trkpt lat="42.25363406290404" lon="13.701446796052245"><ele>835.7142857142858</ele><time>2026-05-03T08:41:19Z</time></trkpt><trkpt lat="42.25357070241828" lon="13.7014791635739"><ele>832.8571428571429</ele><time>2026-05-03T08:41:20Z</time></trkpt><trkpt lat="42.25350804270653" lon="13.701501924625967"><ele>830.0</ele><time>2026-05-03T08:41:20.999Z</time></trkpt><trkpt lat="42.25339030555124" lon="13.701561788284588"><ele>830.0</ele><time>2026-05-03T08:41:22.999Z</time></trkpt><trkpt lat="42.253335387678234" lon="13.701612286864973"><ele>830.0</ele><time>2026-05-03T08:41:23.999Z</time></trkpt><trkpt lat="42.25326996755933" lon="13.701674595395993"><ele>830.0</ele><time>2026-05-03T08:41:24.999Z</time></trkpt><trkpt lat="42.25319548933331" lon="13.701748333591155"><ele>830.0</ele><time>2026-05-03T08:41:25.999Z</time></trkpt><trkpt lat="42.25310861307937" lon="13.70183338405067"><ele>830.0</ele><time>2026-05-03T08:41:26.999Z</time></trkpt><trkpt lat="42.253011978399556" lon="13.701916309447979"><ele>828.25</ele><time>2026-05-03T08:41:28Z</time></trkpt><trkpt lat="42.25290482690471" lon="13.702007773292"><ele>826.5</ele><time>2026-05-03T08:41:28.999Z</time></trkpt><trkpt lat="42.25279944804102" lon="13.702109722612294"><ele>824.75</ele><time>2026-05-03T08:41:30Z</time></trkpt><trkpt lat="42.25269683604778" lon="13.702205013665823"><ele>823.0</ele><time>2026-05-03T08:41:31Z</time></trkpt><trkpt lat="42.25259384404932" lon="13.70229732231847"><ele>823.0</ele><time>2026-05-03T08:41:32Z</time></trkpt><trkpt lat="42.25249627987957" lon="13.70238661568435"><ele>823.0</ele><time>2026-05-03T08:41:33Z</time></trkpt><trkpt lat="42.252402375843424" lon="13.702479278620904"><ele>823.0</ele><time>2026-05-03T08:41:34Z</time></trkpt><trkpt lat="42.252310893199606" lon="13.702567988892909"><ele>823.0</ele><time>2026-05-03T08:41:35Z</time></trkpt><trkpt lat="42.25222141450706" lon="13.70265404065714"><ele>822.5999999999999</ele><time>2026-05-03T08:41:36Z</time></trkpt><trkpt lat="42.252135033826676" lon="13.702732429947343"><ele>822.1999999999999</ele><time>2026-05-03T08:41:37Z</time></trkpt><trkpt lat="42.25204267149527" lon="13.702806686269973"><ele>821.8</ele><time>2026-05-03T08:41:38Z</time></trkpt><trkpt lat="42.25195937176472" lon="13.702867044659385"><ele>821.4</ele><time>2026-05-03T08:41:39Z</time></trkpt><trkpt lat="42.2518783782406" lon="13.702913226354184"><ele>821.0</ele><time>2026-05-03T08:41:40Z</time></trkpt><trkpt lat="42.25179024762861" lon="13.702946000459887"><ele>821.0</ele><time>2026-05-03T08:41:41Z</time></trkpt><trkpt lat="42.25169469932328" lon="13.702971059826389"><ele>821.0</ele><time>2026-05-03T08:41:42Z</time></trkpt><trkpt lat="42.25158671846482" lon="13.702990834732594"><ele>821.0</ele><time>2026-05-03T08:41:43Z</time></trkpt><trkpt lat="42.25148130263866" lon="13.70300782422043"><ele>821.0</ele><time>2026-05-03T08:41:44Z</time></trkpt><trkpt lat="42.251381022330506" lon="13.703019047211187"><ele>821.0</ele><time>2026-05-03T08:41:45Z</time></trkpt><trkpt lat="42.25130172790284" lon="13.703024572752343"><ele>819.6666666666667</ele><time>2026-05-03T08:41:46Z</time></trkpt><trkpt lat="42.25123045520867" lon="13.703028505370286"><ele>818.3333333333334</ele><time>2026-05-03T08:41:47Z</time></trkpt><trkpt lat="42.25116554355009" lon="13.70302352787369"><ele>817.0</ele><time>2026-05-03T08:41:48Z</time></trkpt><trkpt lat="42.251041504916046" lon="13.703046080506324"><ele>815.6666666666667</ele><time>2026-05-03T08:41:50Z</time></trkpt><trkpt lat="42.250968697336795" lon="13.703086649920067"><ele>814.3333333333334</ele><time>2026-05-03T08:41:51Z</time></trkpt><trkpt lat="42.25088919387403" lon="13.703146716079091"><ele>813.0</ele><time>2026-05-03T08:41:52Z</time></trkpt><trkpt lat="42.250801244475404" lon="13.703223728243724"><ele>813.0</ele><time>2026-05-03T08:41:53Z</time></trkpt><trkpt lat="42.25070099957046" lon="13.70330728340096"><ele>813.0</ele><time>2026-05-03T08:41:54Z</time></trkpt><trkpt lat="42.25059261003362" lon="13.703394908206434"><ele>813.0</ele><time>2026-05-03T08:41:55Z</time></trkpt><trkpt lat="42.250489088418455" lon="13.70348351464846"><ele>813.0</ele><time>2026-05-03T08:41:56Z</time></trkpt><trkpt lat="42.250397271244104" lon="13.70357282625095"><ele>812.0</ele><time>2026-05-03T08:41:57Z</time></trkpt><trkpt lat="42.250320942022704" lon="13.703668005657432"><ele>811.0</ele><time>2026-05-03T08:41:58Z</time></trkpt><trkpt lat="42.25024852503837" lon="13.703777729729048"><ele>810.0</ele><time>2026-05-03T08:41:59Z</time></trkpt><trkpt lat="42.25016983577319" lon="13.70388908103088"><ele>809.0</ele><time>2026-05-03T08:42:00Z</time></trkpt><trkpt lat="42.25008499604642" lon="13.703991521768986"><ele>808.0</ele><time>2026-05-03T08:42:01Z</time></trkpt><trkpt lat="42.24999078098158" lon="13.704071523728764"><ele>808.0</ele><time>2026-05-03T08:42:02Z</time></trkpt><trkpt lat="42.24988057038517" lon="13.70412802273224"><ele>808.0</ele><time>2026-05-03T08:42:03Z</time></trkpt><trkpt lat="42.24977917432061" lon="13.704201484789117"><ele>808.0</ele><time>2026-05-03T08:42:04Z</time></trkpt><trkpt lat="42.24968522635439" lon="13.704280814859684"><ele>808.0</ele><time>2026-05-03T08:42:05Z</time></trkpt><trkpt lat="42.249598847655236" lon="13.704377936027479"><ele>807.8</ele><time>2026-05-03T08:42:06Z</time></trkpt><trkpt lat="42.249525193663224" lon="13.70448733848929"><ele>807.5999999999999</ele><time>2026-05-03T08:42:07Z</time></trkpt><trkpt lat="42.24947493004743" lon="13.704579274659373"><ele>807.4000000000001</ele><time>2026-05-03T08:42:08Z</time></trkpt><trkpt lat="42.24944018272668" lon="13.7046521388828"><ele>807.2</ele><time>2026-05-03T08:42:09Z</time></trkpt><trkpt lat="42.24930378115966" lon="13.704666148698577"><ele>807.0</ele><time>2026-05-03T08:42:10Z</time></trkpt><trkpt lat="42.24928016987361" lon="13.704756883704347"><ele>807.0</ele><time>2026-05-03T08:42:12Z</time></trkpt><trkpt lat="42.24925675799725" lon="13.704846852470546"><ele>807.0</ele><time>2026-05-03T08:42:16Z</time></trkpt><trkpt lat="42.24929722268923" lon="13.704675810796425"><ele>807.0</ele><time>2026-05-03T08:42:19Z</time></trkpt><trkpt lat="42.24931487309951" lon="13.704579570493225"><ele>807.0</ele><time>2026-05-03T08:42:20Z</time></trkpt><trkpt lat="42.24950612389346" lon="13.7045141761398"><ele>807.0</ele><time>2026-05-03T08:42:21Z</time></trkpt><trkpt lat="42.24956919168301" lon="13.704415126605177"><ele>807.0</ele><time>2026-05-03T08:42:22Z</time></trkpt><trkpt lat="42.24963296320632" lon="13.704333450589374"><ele>807.0</ele><time>2026-05-03T08:42:23Z</time></trkpt><trkpt lat="42.2496974281789" lon="13.704263609970734"><ele>807.0</ele><time>2026-05-03T08:42:24Z</time></trkpt><trkpt lat="42.24976414818671" lon="13.704206529101018"><ele>807.0</ele><time>2026-05-03T08:42:25Z</time></trkpt><trkpt lat="42.249821014450035" lon="13.70416041194589"><ele>807.0</ele><time>2026-05-03T08:42:26Z</time></trkpt><trkpt lat="42.24990742571961" lon="13.704114414103161"><ele>807.2</ele><time>2026-05-03T08:42:28Z</time></trkpt><trkpt lat="42.249977091819844" lon="13.704157852619943"><ele>807.4000000000001</ele><time>2026-05-03T08:42:30Z</time></trkpt><trkpt lat="42.2500088196864" lon="13.704245117085222"><ele>807.5999999999999</ele><time>2026-05-03T08:42:32Z</time></trkpt><trkpt lat="42.24998717285783" lon="13.704359143580147"><ele>807.8</ele><time>2026-05-03T08:42:35Z</time></trkpt><trkpt lat="42.24992251136278" lon="13.704468943234458"><ele>808.0</ele><time>2026-05-03T08:42:37Z</time></trkpt><trkpt lat="42.249867999718404" lon="13.704623312584054"><ele>807.8333333333333</ele><time>2026-05-03T08:42:39Z</time></trkpt><trkpt lat="42.2498466358686" lon="13.704709489825122"><ele>807.6666666666666</ele><time>2026-05-03T08:42:40Z</time></trkpt><trkpt lat="42.24982250782659" lon="13.704814686335126"><ele>807.5</ele><time>2026-05-03T08:42:41Z</time></trkpt><trkpt lat="42.24979703638849" lon="13.704905066565564"><ele>807.3333333333333</ele><time>2026-05-03T08:42:42Z</time></trkpt><trkpt lat="42.249780161041016" lon="13.704998507316642"><ele>807.1666666666666</ele><time>2026-05-03T08:42:43Z</time></trkpt><trkpt lat="42.24973422821891" lon="13.705133470324155"><ele>807.0</ele><time>2026-05-03T08:42:45Z</time></trkpt><trkpt lat="42.24967412221345" lon="13.705253141425242"><ele>810.2</ele><time>2026-05-03T08:42:47Z</time></trkpt><trkpt lat="42.249620962698785" lon="13.705327135302438"><ele>813.4000000000001</ele><time>2026-05-03T08:42:48Z</time></trkpt><trkpt lat="42.24954608495557" lon="13.705409382328073"><ele>816.5999999999999</ele><time>2026-05-03T08:42:49Z</time></trkpt><trkpt lat="42.24946368609846" lon="13.705489498937684"><ele>819.8</ele><time>2026-05-03T08:42:50Z</time></trkpt><trkpt lat="42.24938894352959" lon="13.705563021372104"><ele>823.0</ele><time>2026-05-03T08:42:51Z</time></trkpt><trkpt lat="42.249310571830094" lon="13.705633250993042"><ele>823.0</ele><time>2026-05-03T08:42:52Z</time></trkpt><trkpt lat="42.249229322365665" lon="13.705690463007404"><ele>823.0</ele><time>2026-05-03T08:42:53Z</time></trkpt><trkpt lat="42.249143937097244" lon="13.705737194277008"><ele>823.0</ele><time>2026-05-03T08:42:54Z</time></trkpt><trkpt lat="42.24907839521986" lon="13.705788939825393"><ele>823.0</ele><time>2026-05-03T08:42:55Z</time></trkpt><trkpt lat="42.2490041762616" lon="13.705860744671948"><ele>823.0</ele><time>2026-05-03T08:42:56Z</time></trkpt><trkpt lat="42.24892381776025" lon="13.70593884794216"><ele>822.2</ele><time>2026-05-03T08:42:57Z</time></trkpt><trkpt lat="42.24883519201173" lon="13.706021936822589"><ele>821.4</ele><time>2026-05-03T08:42:58Z</time></trkpt><trkpt lat="42.2487667769939" lon="13.706079473116773"><ele>820.6</ele><time>2026-05-03T08:42:59Z</time></trkpt><trkpt lat="42.24867629933252" lon="13.706158787025121"><ele>819.8000000000001</ele><time>2026-05-03T08:43:00Z</time></trkpt><trkpt lat="42.24859503759726" lon="13.706234505922705"><ele>819.0</ele><time>2026-05-03T08:43:01Z</time></trkpt><trkpt lat="42.24852560550112" lon="13.706306206440086"><ele>821.1666666666666</ele><time>2026-05-03T08:43:02Z</time></trkpt><trkpt lat="42.24847177582782" lon="13.706357745020163"><ele>823.3333333333333</ele><time>2026-05-03T08:43:03Z</time></trkpt><trkpt lat="42.24839377866154" lon="13.706430703472542"><ele>825.5</ele><time>2026-05-03T08:43:05Z</time></trkpt><trkpt lat="42.24833601283455" lon="13.706554386887493"><ele>827.6666666666666</ele><time>2026-05-03T08:43:07Z</time></trkpt><trkpt lat="42.24831083813178" lon="13.706641466127843"><ele>829.8333333333333</ele><time>2026-05-03T08:43:08Z</time></trkpt><trkpt lat="42.248285207753206" lon="13.706729872916664"><ele>832.0</ele><time>2026-05-03T08:43:09Z</time></trkpt><trkpt lat="42.24826081919168" lon="13.706811817555655"><ele>831.9999999999999</ele><time>2026-05-03T08:43:10Z</time></trkpt><trkpt lat="42.248271871894566" lon="13.706978529175224"><ele>832.0</ele><time>2026-05-03T08:43:12Z</time></trkpt><trkpt lat="42.24829009440602" lon="13.707063830050275"><ele>832.0</ele><time>2026-05-03T08:43:13Z</time></trkpt><trkpt lat="42.248306426502204" lon="13.707178213267552"><ele>832.0</ele><time>2026-05-03T08:43:15Z</time></trkpt><trkpt lat="42.24829949046508" lon="13.707288783075864"><ele>831.9999999999999</ele><time>2026-05-03T08:43:18Z</time></trkpt><trkpt lat="42.248282653404125" lon="13.707403129556774"><ele>832.0</ele><time>2026-05-03T08:43:20Z</time></trkpt><trkpt lat="42.24825845259786" lon="13.707535782556212"><ele>832.0</ele><time>2026-05-03T08:43:22Z</time></trkpt><trkpt lat="42.248224177780614" lon="13.707683414382151"><ele>832.0</ele><time>2026-05-03T08:43:24Z</time></trkpt><trkpt lat="42.248176877075394" lon="13.707834126728356"><ele>832.0</ele><time>2026-05-03T08:43:26Z</time></trkpt><trkpt lat="42.24812823610787" lon="13.7079654282577"><ele>832.0</ele><time>2026-05-03T08:43:28Z</time></trkpt><trkpt lat="42.248078307273126" lon="13.708099962235195"><ele>829.2</ele><time>2026-05-03T08:43:30Z</time></trkpt><trkpt lat="42.24801248753337" lon="13.708216456393385"><ele>826.4000000000001</ele><time>2026-05-03T08:43:32Z</time></trkpt><trkpt lat="42.24791542360748" lon="13.70830044892731"><ele>823.5999999999999</ele><time>2026-05-03T08:43:34Z</time></trkpt><trkpt lat="42.24784173963909" lon="13.708347731784409"><ele>820.8</ele><time>2026-05-03T08:43:35Z</time></trkpt><trkpt lat="42.24776157726332" lon="13.70840106764197"><ele>818.0</ele><time>2026-05-03T08:43:36Z</time></trkpt><trkpt lat="42.24769248723142" lon="13.708452927573541"><ele>818.0000000000001</ele><time>2026-05-03T08:43:37Z</time></trkpt><trkpt lat="42.247635549836446" lon="13.708509716539547"><ele>818.0</ele><time>2026-05-03T08:43:38Z</time></trkpt><trkpt lat="42.24754518501682" lon="13.70859711493599"><ele>818.0</ele><time>2026-05-03T08:43:40Z</time></trkpt><trkpt lat="42.24747993345245" lon="13.708634682303114"><ele>818.0</ele><time>2026-05-03T08:43:43Z</time></trkpt><trkpt lat="42.247416381930684" lon="13.708639045932562"><ele>818.0000000000001</ele><time>2026-05-03T08:43:46Z</time></trkpt><trkpt lat="42.24734605434662" lon="13.708596685772877"><ele>818.0</ele><time>2026-05-03T08:43:48Z</time></trkpt><trkpt lat="42.24729185897854" lon="13.708502889757249"><ele>818.0000000000001</ele><time>2026-05-03T08:43:50Z</time></trkpt><trkpt lat="42.24730741895212" lon="13.708412847820656"><ele>818.0</ele><time>2026-05-03T08:43:51Z</time></trkpt><trkpt lat="42.24726040018665" lon="13.70833465909051"><ele>818.0</ele><time>2026-05-03T08:43:53Z</time></trkpt><trkpt lat="42.247208363348356" lon="13.708216363785839"><ele>818.0</ele><time>2026-05-03T08:44:34Z</time></trkpt><trkpt lat="42.24720391243263" lon="13.708129789205817"><ele>818.0000000000001</ele><time>2026-05-03T08:44:35Z</time></trkpt><trkpt lat="42.2472005623393" lon="13.708032310854565"><ele>818.0</ele><time>2026-05-03T08:44:36Z</time></trkpt><trkpt lat="42.24718917995586" lon="13.707922721910208"><ele>816.0000000000001</ele><time>2026-05-03T08:44:37Z</time></trkpt><trkpt lat="42.24718127685611" lon="13.707800957796028"><ele>814.0</ele><time>2026-05-03T08:44:38Z</time></trkpt><trkpt lat="42.24717381768025" lon="13.707677768433117"><ele>812.0</ele><time>2026-05-03T08:44:39Z</time></trkpt><trkpt lat="42.24716900028462" lon="13.707559488825588"><ele>810.0</ele><time>2026-05-03T08:44:40Z</time></trkpt><trkpt lat="42.24717309172753" lon="13.707452593735262"><ele>808.0000000000001</ele><time>2026-05-03T08:44:41Z</time></trkpt><trkpt lat="42.247143389422085" lon="13.707353546980993"><ele>806.0</ele><time>2026-05-03T08:44:42Z</time></trkpt><trkpt lat="42.24705596292658" lon="13.707331268275853"><ele>806.0000000000001</ele><time>2026-05-03T08:44:43Z</time></trkpt><trkpt lat="42.247032693450535" lon="13.707226936253305"><ele>806.0</ele><time>2026-05-03T08:44:45Z</time></trkpt><trkpt lat="42.24695167697792" lon="13.70711448583397"><ele>806.0</ele><time>2026-05-03T08:44:49Z</time></trkpt><trkpt lat="42.246867013832144" lon="13.707118257954582"><ele>806.0</ele><time>2026-05-03T08:44:50Z</time></trkpt><trkpt lat="42.246789657101175" lon="13.707127385695316"><ele>806.0000000000001</ele><time>2026-05-03T08:44:51Z</time></trkpt><trkpt lat="42.246702591606045" lon="13.707127385691331"><ele>806.0</ele><time>2026-05-03T08:44:53Z</time></trkpt><trkpt lat="42.24662242108288" lon="13.70707914118929"><ele>806.0</ele><time>2026-05-03T08:44:56Z</time></trkpt><trkpt lat="42.24654584113504" lon="13.707051038360909"><ele>806.0</ele><time>2026-05-03T08:44:58Z</time></trkpt><trkpt lat="42.24644955232697" lon="13.707108721529915"><ele>806.0</ele><time>2026-05-03T08:45:00Z</time></trkpt><trkpt lat="42.24635249744439" lon="13.707063817446246"><ele>806.0</ele><time>2026-05-03T08:45:02Z</time></trkpt><trkpt lat="42.246240879749934" lon="13.707040273343992"><ele>806.0</ele><time>2026-05-03T08:45:04Z</time></trkpt><trkpt lat="42.246169813882716" lon="13.707031323311588"><ele>803.4</ele><time>2026-05-03T08:45:06Z</time></trkpt><trkpt lat="42.24610856539052" lon="13.707093092949211"><ele>800.8</ele><time>2026-05-03T08:45:11Z</time></trkpt><trkpt lat="42.24610576622901" lon="13.707196996953986"><ele>798.1999999999999</ele><time>2026-05-03T08:45:12Z</time></trkpt><trkpt lat="42.24613706365004" lon="13.707352680947327"><ele>795.5999999999999</ele><time>2026-05-03T08:45:13Z</time></trkpt><trkpt lat="42.24613977442277" lon="13.707501909695244"><ele>793.0</ele><time>2026-05-03T08:45:14Z</time></trkpt><trkpt lat="42.24612494799175" lon="13.7076618921018"><ele>792.25</ele><time>2026-05-03T08:45:15Z</time></trkpt><trkpt lat="42.24611581527393" lon="13.707829474214881"><ele>791.5</ele><time>2026-05-03T08:45:16Z</time></trkpt><trkpt lat="42.24610801654357" lon="13.707999688678761"><ele>790.75</ele><time>2026-05-03T08:45:17Z</time></trkpt><trkpt lat="42.24609788260186" lon="13.708170052419304"><ele>790.0</ele><time>2026-05-03T08:45:18Z</time></trkpt><trkpt lat="42.24608347075013" lon="13.708346521803906"><ele>790.0</ele><time>2026-05-03T08:45:19Z</time></trkpt><trkpt lat="42.24606457933465" lon="13.70852440306506"><ele>790.0</ele><time>2026-05-03T08:45:20Z</time></trkpt><trkpt lat="42.24604577916179" lon="13.708700345380961"><ele>790.0</ele><time>2026-05-03T08:45:21Z</time></trkpt><trkpt lat="42.24603145100777" lon="13.708865927599591"><ele>790.0</ele><time>2026-05-03T08:45:22Z</time></trkpt><trkpt lat="42.24602291369015" lon="13.709022689523245"><ele>789.0</ele><time>2026-05-03T08:45:23Z</time></trkpt><trkpt lat="42.24602240563895" lon="13.709170101787194"><ele>788.0</ele><time>2026-05-03T08:45:24Z</time></trkpt><trkpt lat="42.24603843625697" lon="13.709308244899253"><ele>787.0</ele><time>2026-05-03T08:45:25Z</time></trkpt><trkpt lat="42.24590022640907" lon="13.709510837505965"><ele>786.0</ele><time>2026-05-03T08:45:26Z</time></trkpt><trkpt lat="42.245968460030305" lon="13.709662180957062"><ele>785.75</ele><time>2026-05-03T08:45:27Z</time></trkpt><trkpt lat="42.24604645340202" lon="13.709779347214814"><ele>785.5</ele><time>2026-05-03T08:45:28Z</time></trkpt><trkpt lat="42.24621936153461" lon="13.709804828144359"><ele>785.25</ele><time>2026-05-03T08:45:29Z</time></trkpt><trkpt lat="42.24631784183516" lon="13.709918432721787"><ele>785.0</ele><time>2026-05-03T08:45:30Z</time></trkpt><trkpt lat="42.24642852499037" lon="13.71000686664279"><ele>785.75</ele><time>2026-05-03T08:45:31Z</time></trkpt><trkpt lat="42.24655043677708" lon="13.710066265701409"><ele>786.5</ele><time>2026-05-03T08:45:32Z</time></trkpt><trkpt lat="42.24666327590296" lon="13.710131868937934"><ele>787.25</ele><time>2026-05-03T08:45:33.001Z</time></trkpt><trkpt lat="42.24678577851987" lon="13.710150740830816"><ele>788.0</ele><time>2026-05-03T08:45:34.001Z</time></trkpt><trkpt lat="42.246920933584775" lon="13.71013039782553"><ele>788.0</ele><time>2026-05-03T08:45:35.001Z</time></trkpt><trkpt lat="42.24706183620683" lon="13.710084090255599"><ele>788.0</ele><time>2026-05-03T08:45:36.001Z</time></trkpt><trkpt lat="42.24720115168339" lon="13.710034270657859"><ele>788.0</ele><time>2026-05-03T08:45:37.001Z</time></trkpt><trkpt lat="42.24734145402553" lon="13.70998626737637"><ele>788.0</ele><time>2026-05-03T08:45:38.001Z</time></trkpt><trkpt lat="42.247481767447596" lon="13.709942859431015"><ele>786.75</ele><time>2026-05-03T08:45:39Z</time></trkpt><trkpt lat="42.24762226821817" lon="13.709908526736713"><ele>785.5</ele><time>2026-05-03T08:45:40Z</time></trkpt><trkpt lat="42.24776190987551" lon="13.709884514964484"><ele>784.25</ele><time>2026-05-03T08:45:41Z</time></trkpt><trkpt lat="42.247899183777065" lon="13.709898534215814"><ele>783.0</ele><time>2026-05-03T08:45:42Z</time></trkpt><trkpt lat="42.2480157118014" lon="13.70995912268471"><ele>783.0</ele><time>2026-05-03T08:45:43Z</time></trkpt><trkpt lat="42.24810034809367" lon="13.710055281241674"><ele>783.0</ele><time>2026-05-03T08:45:44Z</time></trkpt><trkpt lat="42.248153582370335" lon="13.710179443616179"><ele>783.0</ele><time>2026-05-03T08:45:45Z</time></trkpt><trkpt lat="42.24817178758757" lon="13.710329090323818"><ele>783.0</ele><time>2026-05-03T08:45:46Z</time></trkpt><trkpt lat="42.24813808310596" lon="13.710485660202227"><ele>779.0</ele><time>2026-05-03T08:45:47Z</time></trkpt><trkpt lat="42.24809535421812" lon="13.710644688485615"><ele>775.0</ele><time>2026-05-03T08:45:48Z</time></trkpt><trkpt lat="42.248042075452595" lon="13.710812275544734"><ele>771.0</ele><time>2026-05-03T08:45:49Z</time></trkpt><trkpt lat="42.24800100463663" lon="13.710995352253127"><ele>767.0</ele><time>2026-05-03T08:45:50Z</time></trkpt><trkpt lat="42.24793077542023" lon="13.71116539258659"><ele>766.25</ele><time>2026-05-03T08:45:51Z</time></trkpt><trkpt lat="42.24787824141407" lon="13.711338080532643"><ele>765.5</ele><time>2026-05-03T08:45:52Z</time></trkpt><trkpt lat="42.24784382642719" lon="13.711506683072509"><ele>764.75</ele><time>2026-05-03T08:45:53Z</time></trkpt><trkpt lat="42.247795392442015" lon="13.7116600756208"><ele>764.0</ele><time>2026-05-03T08:45:54Z</time></trkpt><trkpt lat="42.247754943350785" lon="13.711804636913644"><ele>764.6</ele><time>2026-05-03T08:45:55Z</time></trkpt><trkpt lat="42.24771417968383" lon="13.711923840441715"><ele>765.2</ele><time>2026-05-03T08:45:56Z</time></trkpt><trkpt lat="42.24768748047339" lon="13.71203120896562"><ele>765.8000000000001</ele><time>2026-05-03T08:45:57Z</time></trkpt><trkpt lat="42.247729362037084" lon="13.71217972928975"><ele>766.4000000000001</ele><time>2026-05-03T08:45:58Z</time></trkpt><trkpt lat="42.247741150469935" lon="13.71230729217984"><ele>767.0</ele><time>2026-05-03T08:45:59Z</time></trkpt><trkpt lat="42.247738508585456" lon="13.712443280012772"><ele>767.0</ele><time>2026-05-03T08:46:00Z</time></trkpt><trkpt lat="42.24772234139519" lon="13.712571595585487"><ele>767.0</ele><time>2026-05-03T08:46:01Z</time></trkpt><trkpt lat="42.24771260603567" lon="13.712687609875601"><ele>767.0</ele><time>2026-05-03T08:46:02Z</time></trkpt><trkpt lat="42.24771031059126" lon="13.712821340573754"><ele>767.0</ele><time>2026-05-03T08:46:03Z</time></trkpt><trkpt lat="42.24768735462082" lon="13.712969268978377"><ele>767.0</ele><time>2026-05-03T08:46:04Z</time></trkpt><trkpt lat="42.247707878735916" lon="13.71313089161715"><ele>767.25</ele><time>2026-05-03T08:46:05Z</time></trkpt><trkpt lat="42.24768641666572" lon="13.713297212548586"><ele>767.5</ele><time>2026-05-03T08:46:06Z</time></trkpt><trkpt lat="42.24765893897506" lon="13.713455269374512"><ele>767.75</ele><time>2026-05-03T08:46:07Z</time></trkpt><trkpt lat="42.24764231991953" lon="13.713603725272684"><ele>768.0</ele><time>2026-05-03T08:46:08Z</time></trkpt><trkpt lat="42.247637505056986" lon="13.713744064973584"><ele>767.5999999999999</ele><time>2026-05-03T08:46:09Z</time></trkpt><trkpt lat="42.24764365384515" lon="13.713874645520066"><ele>767.1999999999999</ele><time>2026-05-03T08:46:10Z</time></trkpt><trkpt lat="42.24762823619154" lon="13.714016248775446"><ele>766.8</ele><time>2026-05-03T08:46:11Z</time></trkpt><trkpt lat="42.24765603334414" lon="13.714168029254543"><ele>766.4</ele><time>2026-05-03T08:46:12Z</time></trkpt><trkpt lat="42.2476957326242" lon="13.714325855290202"><ele>766.0</ele><time>2026-05-03T08:46:13Z</time></trkpt><trkpt lat="42.24774425666963" lon="13.714480431286319"><ele>764.0</ele><time>2026-05-03T08:46:14Z</time></trkpt><trkpt lat="42.24780078986231" lon="13.714632254104067"><ele>762.0</ele><time>2026-05-03T08:46:15Z</time></trkpt><trkpt lat="42.24784999891854" lon="13.71478739639821"><ele>760.0</ele><time>2026-05-03T08:46:16Z</time></trkpt><trkpt lat="42.2479236036073" lon="13.71492884473528"><ele>758.0</ele><time>2026-05-03T08:46:17Z</time></trkpt><trkpt lat="42.24798640174299" lon="13.715065892669019"><ele>758.0</ele><time>2026-05-03T08:46:18Z</time></trkpt><trkpt lat="42.24803784947962" lon="13.715188996891467"><ele>758.0</ele><time>2026-05-03T08:46:19Z</time></trkpt><trkpt lat="42.2480839011805" lon="13.715297848020914"><ele>758.0</ele><time>2026-05-03T08:46:20Z</time></trkpt><trkpt lat="42.248130100122076" lon="13.71539306652699"><ele>758.0</ele><time>2026-05-03T08:46:21Z</time></trkpt><trkpt lat="42.248209735099856" lon="13.715464611484636"><ele>758.0</ele><time>2026-05-03T08:46:22Z</time></trkpt><trkpt lat="42.24827740325918" lon="13.715539256626023"><ele>760.5</ele><time>2026-05-03T08:46:23Z</time></trkpt><trkpt lat="42.24835528570846" lon="13.715611704729291"><ele>763.0</ele><time>2026-05-03T08:46:24Z</time></trkpt><trkpt lat="42.24845454311022" lon="13.7156802765502"><ele>765.5</ele><time>2026-05-03T08:46:25Z</time></trkpt><trkpt lat="42.248556169871264" lon="13.715786579452374"><ele>768.0</ele><time>2026-05-03T08:46:26Z</time></trkpt><trkpt lat="42.248667771628206" lon="13.715902896180344"><ele>768.0</ele><time>2026-05-03T08:46:27Z</time></trkpt><trkpt lat="42.24878758373986" lon="13.716003806130265"><ele>768.0</ele><time>2026-05-03T08:46:28Z</time></trkpt><trkpt lat="42.24889053448447" lon="13.716099404509862"><ele>768.0</ele><time>2026-05-03T08:46:29Z</time></trkpt><trkpt lat="42.24899699574744" lon="13.716187083497054"><ele>768.0</ele><time>2026-05-03T08:46:30Z</time></trkpt><trkpt lat="42.24910831713988" lon="13.71626229778516"><ele>767.5</ele><time>2026-05-03T08:46:31Z</time></trkpt><trkpt lat="42.24920464861342" lon="13.716335832498576"><ele>767.0</ele><time>2026-05-03T08:46:32Z</time></trkpt><trkpt lat="42.249280777429966" lon="13.716400558006473"><ele>766.5</ele><time>2026-05-03T08:46:33Z</time></trkpt><trkpt lat="42.24933993751664" lon="13.7164616716699"><ele>766.0</ele><time>2026-05-03T08:46:34Z</time></trkpt><trkpt lat="42.2493733513129" lon="13.716539944847304"><ele>765.5</ele><time>2026-05-03T08:46:35Z</time></trkpt><trkpt lat="42.24935367955479" lon="13.716678974839244"><ele>765.0</ele><time>2026-05-03T08:46:36Z</time></trkpt><trkpt lat="42.24938100794111" lon="13.716821663291956"><ele>764.0</ele><time>2026-05-03T08:46:37Z</time></trkpt><trkpt lat="42.24942562194403" lon="13.716965402131986"><ele>763.0</ele><time>2026-05-03T08:46:38Z</time></trkpt><trkpt lat="42.24951493016132" lon="13.717092980409111"><ele>762.0</ele><time>2026-05-03T08:46:39Z</time></trkpt><trkpt lat="42.249601160390945" lon="13.71722005283017"><ele>761.0</ele><time>2026-05-03T08:46:40Z</time></trkpt><trkpt lat="42.249707271404816" lon="13.717330773967097"><ele>764.0</ele><time>2026-05-03T08:46:41Z</time></trkpt><trkpt lat="42.24981143564729" lon="13.71744034244698"><ele>767.0</ele><time>2026-05-03T08:46:42Z</time></trkpt><trkpt lat="42.2498725824806" lon="13.717579187802713"><ele>770.0</ele><time>2026-05-03T08:46:43Z</time></trkpt><trkpt lat="42.249909177958486" lon="13.717734076148847"><ele>773.0</ele><time>2026-05-03T08:46:44Z</time></trkpt><trkpt lat="42.24996424575975" lon="13.717879391960977"><ele>773.0</ele><time>2026-05-03T08:46:45Z</time></trkpt><trkpt lat="42.25003395743253" lon="13.718001226666663"><ele>773.0</ele><time>2026-05-03T08:46:46Z</time></trkpt><trkpt lat="42.2501087497063" lon="13.718117418534039"><ele>773.0</ele><time>2026-05-03T08:46:47Z</time></trkpt><trkpt lat="42.25018526137823" lon="13.718242653963049"><ele>773.0</ele><time>2026-05-03T08:46:48Z</time></trkpt><trkpt lat="42.25026966773124" lon="13.718375306608621"><ele>773.0</ele><time>2026-05-03T08:46:49Z</time></trkpt><trkpt lat="42.250357896578514" lon="13.718494258278003"><ele>773.0</ele><time>2026-05-03T08:46:50Z</time></trkpt><trkpt lat="42.250454202274156" lon="13.718604174553688"><ele>773.0</ele><time>2026-05-03T08:46:51Z</time></trkpt><trkpt lat="42.25055595330689" lon="13.71870465080078"><ele>773.0</ele><time>2026-05-03T08:46:52Z</time></trkpt><trkpt lat="42.25065975512996" lon="13.718780106260947"><ele>773.0</ele><time>2026-05-03T08:46:53Z</time></trkpt><trkpt lat="42.25077411118829" lon="13.7188236877037"><ele>773.0</ele><time>2026-05-03T08:46:54Z</time></trkpt><trkpt lat="42.2508984620619" lon="13.718861183577399"><ele>773.0</ele><time>2026-05-03T08:46:55Z</time></trkpt><trkpt lat="42.25102433895512" lon="13.718922337546752"><ele>773.0</ele><time>2026-05-03T08:46:56Z</time></trkpt><trkpt lat="42.25114530896274" lon="13.718994943130893"><ele>773.0</ele><time>2026-05-03T08:46:57Z</time></trkpt><trkpt lat="42.251236351186925" lon="13.71910935353896"><ele>773.0</ele><time>2026-05-03T08:46:58Z</time></trkpt><trkpt lat="42.251334539892085" lon="13.719216574966001"><ele>773.0</ele><time>2026-05-03T08:46:59Z</time></trkpt><trkpt lat="42.25140879151705" lon="13.719370948905375"><ele>773.0</ele><time>2026-05-03T08:47:00Z</time></trkpt><trkpt lat="42.2515183681101" lon="13.719491095641354"><ele>774.75</ele><time>2026-05-03T08:47:01Z</time></trkpt><trkpt lat="42.25163324936104" lon="13.719610555875489"><ele>776.5</ele><time>2026-05-03T08:47:02Z</time></trkpt><trkpt lat="42.25176048482069" lon="13.719712227930934"><ele>778.25</ele><time>2026-05-03T08:47:03Z</time></trkpt><trkpt lat="42.25188188903065" lon="13.719815413047822"><ele>780.0</ele><time>2026-05-03T08:47:04Z</time></trkpt><trkpt lat="42.25199312937693" lon="13.719918215678895"><ele>780.0</ele><time>2026-05-03T08:47:05Z</time></trkpt><trkpt lat="42.252097251547724" lon="13.7200136874293"><ele>780.0</ele><time>2026-05-03T08:47:06Z</time></trkpt><trkpt lat="42.25219338446618" lon="13.720105637619234"><ele>780.0</ele><time>2026-05-03T08:47:07Z</time></trkpt><trkpt lat="42.25228656741394" lon="13.720196243498204"><ele>780.0</ele><time>2026-05-03T08:47:08Z</time></trkpt><trkpt lat="42.25237913616511" lon="13.720284682503692"><ele>779.25</ele><time>2026-05-03T08:47:09Z</time></trkpt><trkpt lat="42.25247092155143" lon="13.720377616214174"><ele>778.5</ele><time>2026-05-03T08:47:10Z</time></trkpt><trkpt lat="42.25256639305585" lon="13.720466615707299"><ele>777.75</ele><time>2026-05-03T08:47:11Z</time></trkpt><trkpt lat="42.252667932516204" lon="13.72055491671777"><ele>777.0</ele><time>2026-05-03T08:47:12Z</time></trkpt><trkpt lat="42.25278232237629" lon="13.72063642461469"><ele>777.0</ele><time>2026-05-03T08:47:13Z</time></trkpt><trkpt lat="42.25290710335705" lon="13.720698157329544"><ele>777.0</ele><time>2026-05-03T08:47:14Z</time></trkpt><trkpt lat="42.25302950641721" lon="13.72076091123381"><ele>777.0</ele><time>2026-05-03T08:47:15Z</time></trkpt><trkpt lat="42.25314969424133" lon="13.720825948638948"><ele>777.0</ele><time>2026-05-03T08:47:16Z</time></trkpt><trkpt lat="42.25325768842762" lon="13.72088296131407"><ele>777.5</ele><time>2026-05-03T08:47:17Z</time></trkpt><trkpt lat="42.253348806544686" lon="13.720913336523607"><ele>778.0</ele><time>2026-05-03T08:47:18Z</time></trkpt><trkpt lat="42.25342449683969" lon="13.720935789724578"><ele>778.5</ele><time>2026-05-03T08:47:19Z</time></trkpt><trkpt lat="42.253499257607686" lon="13.720965902199543"><ele>779.0</ele><time>2026-05-03T08:47:20Z</time></trkpt><trkpt lat="42.2535682373306" lon="13.72102525166449"><ele>779.5</ele><time>2026-05-03T08:47:21Z</time></trkpt><trkpt lat="42.25359776925166" lon="13.721133125457609"><ele>780.0</ele><time>2026-05-03T08:47:22Z</time></trkpt><trkpt lat="42.253637219709184" lon="13.721247594280744"><ele>780.0</ele><time>2026-05-03T08:47:23Z</time></trkpt><trkpt lat="42.253671112132956" lon="13.721357307196453"><ele>780.0</ele><time>2026-05-03T08:47:24Z</time></trkpt><trkpt lat="42.25369164752765" lon="13.721466311734726"><ele>780.0</ele><time>2026-05-03T08:47:25Z</time></trkpt><trkpt lat="42.25368880547817" lon="13.72157061591652"><ele>780.0</ele><time>2026-05-03T08:47:26Z</time></trkpt><trkpt lat="42.25364518688795" lon="13.721653597825757"><ele>780.0</ele><time>2026-05-03T08:47:27Z</time></trkpt><trkpt lat="42.253581310515195" lon="13.721748527603774"><ele>780.0</ele><time>2026-05-03T08:47:28Z</time></trkpt><trkpt lat="42.25350161228952" lon="13.721872642128897"><ele>781.0</ele><time>2026-05-03T08:47:29Z</time></trkpt><trkpt lat="42.253422730046154" lon="13.722021199521702"><ele>782.0</ele><time>2026-05-03T08:47:30Z</time></trkpt><trkpt lat="42.25336363141464" lon="13.72216550769029"><ele>783.0</ele><time>2026-05-03T08:47:31Z</time></trkpt><trkpt lat="42.253346830034985" lon="13.722293680016836"><ele>784.0</ele><time>2026-05-03T08:47:32Z</time></trkpt><trkpt lat="42.25336021976592" lon="13.722389058471293"><ele>785.0</ele><time>2026-05-03T08:47:33Z</time></trkpt><trkpt lat="42.253393824335646" lon="13.722494488672403"><ele>785.0</ele><time>2026-05-03T08:47:34Z</time></trkpt><trkpt lat="42.25342627956384" lon="13.722618289756243"><ele>785.0</ele><time>2026-05-03T08:47:35Z</time></trkpt><trkpt lat="42.25346789240268" lon="13.722756670314546"><ele>785.0</ele><time>2026-05-03T08:47:36Z</time></trkpt><trkpt lat="42.25353123100618" lon="13.722902312811126"><ele>785.0</ele><time>2026-05-03T08:47:37Z</time></trkpt><trkpt lat="42.25358870826511" lon="13.723049156968084"><ele>786.0</ele><time>2026-05-03T08:47:38Z</time></trkpt><trkpt lat="42.25363798361875" lon="13.723178962176421"><ele>787.0</ele><time>2026-05-03T08:47:39.001Z</time></trkpt><trkpt lat="42.253686689974785" lon="13.723307268724659"><ele>788.0</ele><time>2026-05-03T08:47:40.001Z</time></trkpt><trkpt lat="42.253731783704275" lon="13.723426966370456"><ele>789.0</ele><time>2026-05-03T08:47:41.001Z</time></trkpt><trkpt lat="42.253771799792766" lon="13.723543710156752"><ele>790.0</ele><time>2026-05-03T08:47:42.001Z</time></trkpt><trkpt lat="42.25380320474796" lon="13.723640098459274"><ele>790.4285714285714</ele><time>2026-05-03T08:47:43.001Z</time></trkpt><trkpt lat="42.25383145409807" lon="13.723730471675108"><ele>790.8571428571429</ele><time>2026-05-03T08:47:44.001Z</time></trkpt><trkpt lat="42.253859431022605" lon="13.723827524281242"><ele>791.2857142857143</ele><time>2026-05-03T08:47:45.001Z</time></trkpt><trkpt lat="42.253885087531174" lon="13.723919335581165"><ele>791.7142857142858</ele><time>2026-05-03T08:47:46.001Z</time></trkpt><trkpt lat="42.25391364180821" lon="13.724004828574117"><ele>792.1428571428571</ele><time>2026-05-03T08:47:47.001Z</time></trkpt><trkpt lat="42.253950367030825" lon="13.724085531731523"><ele>792.5714285714287</ele><time>2026-05-03T08:47:48.001Z</time></trkpt><trkpt lat="42.254016865787584" lon="13.724133925057886"><ele>793.0</ele><time>2026-05-03T08:47:49.001Z</time></trkpt><trkpt lat="42.25407645100393" lon="13.724175030588095"><ele>790.75</ele><time>2026-05-03T08:47:50.001Z</time></trkpt><trkpt lat="42.25419437869433" lon="13.724213590332159"><ele>788.5</ele><time>2026-05-03T08:47:52.001Z</time></trkpt><trkpt lat="42.254312554545706" lon="13.724185454774183"><ele>786.25</ele><time>2026-05-03T08:47:54.001Z</time></trkpt><trkpt lat="42.254424004444665" lon="13.724186463792645"><ele>784.0</ele><time>2026-05-03T08:47:56.001Z</time></trkpt><trkpt lat="42.25453885285137" lon="13.724178300907694"><ele>784.0</ele><time>2026-05-03T08:47:58Z</time></trkpt><trkpt lat="42.25464967974695" lon="13.724160422725502"><ele>784.0</ele><time>2026-05-03T08:48:00Z</time></trkpt><trkpt lat="42.254741915013966" lon="13.724144169761589"><ele>784.0</ele><time>2026-05-03T08:48:01Z</time></trkpt><trkpt lat="42.254819199580204" lon="13.7241401757375"><ele>784.0</ele><time>2026-05-03T08:48:02Z</time></trkpt><trkpt lat="42.25490566434923" lon="13.724135987053819"><ele>784.0</ele><time>2026-05-03T08:48:03Z</time></trkpt><trkpt lat="42.25531957871086" lon="13.724995916673148"><ele>780.9999999999999</ele><time>2026-05-03T08:48:11Z</time></trkpt><trkpt lat="42.25533555512619" lon="13.725088168529483"><ele>778.0</ele><time>2026-05-03T08:48:12Z</time></trkpt><trkpt lat="42.25535113353826" lon="13.725176546864954"><ele>775.0</ele><time>2026-05-03T08:48:13Z</time></trkpt><trkpt lat="42.255377181266866" lon="13.725289111594574"><ele>772.0</ele><time>2026-05-03T08:48:14Z</time></trkpt><trkpt lat="42.25540551978219" lon="13.725387278482915"><ele>769.0</ele><time>2026-05-03T08:48:15Z</time></trkpt><trkpt lat="42.25543310155841" lon="13.725484190469398"><ele>766.0</ele><time>2026-05-03T08:48:16Z</time></trkpt><trkpt lat="42.255462635397876" lon="13.72558223596338"><ele>765.8333333333334</ele><time>2026-05-03T08:48:17Z</time></trkpt><trkpt lat="42.255494118601284" lon="13.725687942806035"><ele>765.6666666666667</ele><time>2026-05-03T08:48:18Z</time></trkpt><trkpt lat="42.2555307486453" lon="13.725802409260071"><ele>765.5</ele><time>2026-05-03T08:48:19Z</time></trkpt><trkpt lat="42.25556133217846" lon="13.725900789121802"><ele>765.3333333333334</ele><time>2026-05-03T08:48:20Z</time></trkpt><trkpt lat="42.25559488062113" lon="13.72599681910035"><ele>765.1666666666666</ele><time>2026-05-03T08:48:21Z</time></trkpt><trkpt lat="42.2556314027147" lon="13.726108111880956"><ele>765.0</ele><time>2026-05-03T08:48:22Z</time></trkpt><trkpt lat="42.2556719133055" lon="13.726226415123078"><ele>765.0</ele><time>2026-05-03T08:48:23Z</time></trkpt><trkpt lat="42.25570668948602" lon="13.726335551663913"><ele>765.0</ele><time>2026-05-03T08:48:24Z</time></trkpt><trkpt lat="42.255728097386886" lon="13.726435494633394"><ele>765.0</ele><time>2026-05-03T08:48:25Z</time></trkpt><trkpt lat="42.25572907588514" lon="13.726524377347541"><ele>765.0</ele><time>2026-05-03T08:48:26Z</time></trkpt><trkpt lat="42.25567741725404" lon="13.726654698033496"><ele>765.0</ele><time>2026-05-03T08:48:28Z</time></trkpt><trkpt lat="42.255586635838014" lon="13.726768560582595"><ele>762.4</ele><time>2026-05-03T08:48:30Z</time></trkpt><trkpt lat="42.25549870334791" lon="13.726844827022571"><ele>759.8</ele><time>2026-05-03T08:48:32Z</time></trkpt><trkpt lat="42.25547536719275" lon="13.72700775110724"><ele>757.2</ele><time>2026-05-03T08:48:34Z</time></trkpt><trkpt lat="42.255484357164" lon="13.72712345117772"><ele>754.6</ele><time>2026-05-03T08:48:35Z</time></trkpt><trkpt lat="42.2554774863187" lon="13.72723964345189"><ele>752.0</ele><time>2026-05-03T08:48:36Z</time></trkpt><trkpt lat="42.25545894213075" lon="13.727333589843397"><ele>752.4000000000001</ele><time>2026-05-03T08:48:37Z</time></trkpt><trkpt lat="42.25543722786571" lon="13.727424195817482"><ele>752.8000000000001</ele><time>2026-05-03T08:48:38Z</time></trkpt><trkpt lat="42.25546077258116" lon="13.727561521350342"><ele>753.2</ele><time>2026-05-03T08:48:40Z</time></trkpt><trkpt lat="42.255542918039836" lon="13.727605989151193"><ele>753.6</ele><time>2026-05-03T08:48:42Z</time></trkpt><trkpt lat="42.25563330415382" lon="13.727566749974525"><ele>754.0</ele><time>2026-05-03T08:48:44Z</time></trkpt><trkpt lat="42.25574570440606" lon="13.727532907466319"><ele>754.0</ele><time>2026-05-03T08:48:46Z</time></trkpt><trkpt lat="42.255862696457456" lon="13.727571843016438"><ele>754.0</ele><time>2026-05-03T08:48:48Z</time></trkpt><trkpt lat="42.25592292372223" lon="13.727606589203594"><ele>754.0</ele><time>2026-05-03T08:48:49Z</time></trkpt><trkpt lat="42.25598314195324" lon="13.727642778600897"><ele>754.0</ele><time>2026-05-03T08:48:50Z</time></trkpt><trkpt lat="42.25609690945697" lon="13.727709714310498"><ele>754.0</ele><time>2026-05-03T08:48:52Z</time></trkpt><trkpt lat="42.25615567916065" lon="13.727756863133306"><ele>754.0</ele><time>2026-05-03T08:48:53Z</time></trkpt><trkpt lat="42.25621127347446" lon="13.72780740774265"><ele>750.9999999999999</ele><time>2026-05-03T08:48:54Z</time></trkpt><trkpt lat="42.256268821808774" lon="13.727860771730182"><ele>748.0</ele><time>2026-05-03T08:48:55Z</time></trkpt><trkpt lat="42.25632865985357" lon="13.72790954834049"><ele>745.0</ele><time>2026-05-03T08:48:56Z</time></trkpt><trkpt lat="42.256394454596986" lon="13.727963588263039"><ele>742.0</ele><time>2026-05-03T08:48:57Z</time></trkpt><trkpt lat="42.256458026263275" lon="13.728014773027637"><ele>739.0</ele><time>2026-05-03T08:48:58Z</time></trkpt><trkpt lat="42.256517171098025" lon="13.728071377484968"><ele>735.9999999999999</ele><time>2026-05-03T08:48:59Z</time></trkpt><trkpt lat="42.25657449899469" lon="13.728121758125912"><ele>733.0</ele><time>2026-05-03T08:49:00Z</time></trkpt><trkpt lat="42.256630839022804" lon="13.728164860209377"><ele>733.0</ele><time>2026-05-03T08:49:01Z</time></trkpt><trkpt lat="42.256687350944176" lon="13.728203882218622"><ele>733.0</ele><time>2026-05-03T08:49:02Z</time></trkpt><trkpt lat="42.25677687901515" lon="13.72829406513228"><ele>733.0</ele><time>2026-05-03T08:49:04Z</time></trkpt><trkpt lat="42.256862263957736" lon="13.728395565977694"><ele>733.0</ele><time>2026-05-03T08:49:06Z</time></trkpt><trkpt lat="42.25690518032257" lon="13.72845827874106"><ele>733.0</ele><time>2026-05-03T08:49:07Z</time></trkpt><trkpt lat="42.25698464502229" lon="13.728559243095756"><ele>722.25</ele><time>2026-05-03T08:49:09Z</time></trkpt><trkpt lat="42.25708356957713" lon="13.72866124319728"><ele>711.5</ele><time>2026-05-03T08:49:11Z</time></trkpt><trkpt lat="42.25717126179654" lon="13.72876748595784"><ele>700.75</ele><time>2026-05-03T08:49:13Z</time></trkpt><trkpt lat="42.25721900023148" lon="13.728906303345198"><ele>690.0</ele><time>2026-05-03T08:49:15Z</time></trkpt><trkpt lat="42.25727050447057" lon="13.729059440572938"><ele>689.0</ele><time>2026-05-03T08:49:17Z</time></trkpt><trkpt lat="42.25731859305595" lon="13.729174194610232"><ele>688.0</ele><time>2026-05-03T08:49:19Z</time></trkpt><trkpt lat="42.257380657932316" lon="13.729289949762535"><ele>687.0</ele><time>2026-05-03T08:49:21Z</time></trkpt><trkpt lat="42.25743795796071" lon="13.72938730351373"><ele>686.0</ele><time>2026-05-03T08:49:23Z</time></trkpt><trkpt lat="42.257532587835954" lon="13.729460716954236"><ele>685.0</ele><time>2026-05-03T08:49:25Z</time></trkpt><trkpt lat="42.25762810592326" lon="13.729489365631105"><ele>685.0</ele><time>2026-05-03T08:49:27Z</time></trkpt><trkpt lat="42.257734332318144" lon="13.729505394248624"><ele>685.0</ele><time>2026-05-03T08:49:29Z</time></trkpt><trkpt lat="42.25779985239358" lon="13.729517384869899"><ele>685.0</ele><time>2026-05-03T08:49:30Z</time></trkpt><trkpt lat="42.25786661526762" lon="13.729538375676336"><ele>685.0</ele><time>2026-05-03T08:49:31Z</time></trkpt><trkpt lat="42.257988298188195" lon="13.729570451509234"><ele>685.0</ele><time>2026-05-03T08:49:33Z</time></trkpt><trkpt lat="42.25810274527035" lon="13.72960346465999"><ele>686.0</ele><time>2026-05-03T08:49:35Z</time></trkpt><trkpt lat="42.258213084134745" lon="13.729639314480655"><ele>687.0</ele><time>2026-05-03T08:49:37Z</time></trkpt><trkpt lat="42.25831631480253" lon="13.72969215504102"><ele>688.0</ele><time>2026-05-03T08:49:39Z</time></trkpt><trkpt lat="42.25837706716955" lon="13.729734294224942"><ele>689.0</ele><time>2026-05-03T08:49:40Z</time></trkpt><trkpt lat="42.25844022673542" lon="13.729777337776733"><ele>690.0</ele><time>2026-05-03T08:49:41Z</time></trkpt><trkpt lat="42.25850121963523" lon="13.729822803919863"><ele>691.0</ele><time>2026-05-03T08:49:42Z</time></trkpt><trkpt lat="42.258561486643096" lon="13.729861559287361"><ele>690.9999999999999</ele><time>2026-05-03T08:49:43Z</time></trkpt><trkpt lat="42.25861928913659" lon="13.729901197821754"><ele>691.0</ele><time>2026-05-03T08:49:44Z</time></trkpt><trkpt lat="42.25867726845396" lon="13.729938849791576"><ele>691.0</ele><time>2026-05-03T08:49:45.001Z</time></trkpt><trkpt lat="42.258737564809906" lon="13.729971809901675"><ele>691.0</ele><time>2026-05-03T08:49:46.001Z</time></trkpt><trkpt lat="42.2588477987101" lon="13.73003009793752"><ele>691.0</ele><time>2026-05-03T08:49:48.001Z</time></trkpt><trkpt lat="42.258910832778156" lon="13.730057341662322"><ele>690.9999999999999</ele><time>2026-05-03T08:49:49.001Z</time></trkpt><trkpt lat="42.2589722085501" lon="13.73008877865451"><ele>691.0</ele><time>2026-05-03T08:49:50.001Z</time></trkpt><trkpt lat="42.25903473371234" lon="13.730113237265368"><ele>692.3333333333334</ele><time>2026-05-03T08:49:51.001Z</time></trkpt><trkpt lat="42.259112868595295" lon="13.730147403517583"><ele>693.6666666666667</ele><time>2026-05-03T08:49:52.001Z</time></trkpt><trkpt lat="42.259182641910314" lon="13.730180159832704"><ele>695.0</ele><time>2026-05-03T08:49:53.001Z</time></trkpt><trkpt lat="42.25925275252937" lon="13.730204042178483"><ele>696.3333333333334</ele><time>2026-05-03T08:49:54.001Z</time></trkpt><trkpt lat="42.259313060895856" lon="13.730231577727794"><ele>697.6666666666666</ele><time>2026-05-03T08:49:55.001Z</time></trkpt><trkpt lat="42.25939166567204" lon="13.730264322482144"><ele>699.0</ele><time>2026-05-03T08:49:56.001Z</time></trkpt><trkpt lat="42.25946280608196" lon="13.730297903428928"><ele>693.2</ele><time>2026-05-03T08:49:57.001Z</time></trkpt><trkpt lat="42.259527633083714" lon="13.730330715766948"><ele>687.4000000000001</ele><time>2026-05-03T08:49:58.001Z</time></trkpt><trkpt lat="42.25964398029032" lon="13.730393570585035"><ele>681.6</ele><time>2026-05-03T08:50:00.001Z</time></trkpt><trkpt lat="42.2597623228574" lon="13.730454264484198"><ele>675.8</ele><time>2026-05-03T08:50:02.001Z</time></trkpt><trkpt lat="42.25987485414824" lon="13.730508446644151"><ele>670.0</ele><time>2026-05-03T08:50:04Z</time></trkpt><trkpt lat="42.259977598228865" lon="13.730563279817174"><ele>670.0</ele><time>2026-05-03T08:50:06Z</time></trkpt><trkpt lat="42.26008049766838" lon="13.730626954818607"><ele>670.0</ele><time>2026-05-03T08:50:08Z</time></trkpt><trkpt lat="42.26018020329046" lon="13.730690480706347"><ele>670.0</ele><time>2026-05-03T08:50:10Z</time></trkpt><trkpt lat="42.26027275866375" lon="13.730774772145887"><ele>670.0</ele><time>2026-05-03T08:50:12Z</time></trkpt><trkpt lat="42.260350944683914" lon="13.730823875017018"><ele>670.0</ele><time>2026-05-03T08:50:14Z</time></trkpt><trkpt lat="42.260442499994525" lon="13.730894879309364"><ele>670.0</ele><time>2026-05-03T08:50:16Z</time></trkpt><trkpt lat="42.260547651711136" lon="13.7309802018625"><ele>670.0</ele><time>2026-05-03T08:50:18Z</time></trkpt><trkpt lat="42.26064829973824" lon="13.731076853834107"><ele>670.0</ele><time>2026-05-03T08:50:20Z</time></trkpt><trkpt lat="42.26070990928391" lon="13.731126795775527"><ele>670.0</ele><time>2026-05-03T08:50:21Z</time></trkpt><trkpt lat="42.2607675880236" lon="13.731183446448872"><ele>670.0</ele><time>2026-05-03T08:50:22Z</time></trkpt><trkpt lat="42.2608189465054" lon="13.731237532758023"><ele>666.4</ele><time>2026-05-03T08:50:23Z</time></trkpt><trkpt lat="42.26089163591484" lon="13.731360026848387"><ele>662.8</ele><time>2026-05-03T08:50:25Z</time></trkpt><trkpt lat="42.26093611113202" lon="13.731491482579044"><ele>659.2</ele><time>2026-05-03T08:50:27Z</time></trkpt><trkpt lat="42.260993849658966" lon="13.731646990706588"><ele>655.6</ele><time>2026-05-03T08:50:29Z</time></trkpt><trkpt lat="42.261033889077204" lon="13.731730301136077"><ele>652.0</ele><time>2026-05-03T08:50:30Z</time></trkpt><trkpt lat="42.261080036793814" lon="13.731797909558551"><ele>652.0</ele><time>2026-05-03T08:50:31Z</time></trkpt><trkpt lat="42.26112132486666" lon="13.731864145923605"><ele>652.0</ele><time>2026-05-03T08:50:32Z</time></trkpt><trkpt lat="42.26120363683021" lon="13.731958175518184"><ele>652.0</ele><time>2026-05-03T08:50:34Z</time></trkpt><trkpt lat="42.26130620133727" lon="13.731980966784153"><ele>652.0</ele><time>2026-05-03T08:50:36Z</time></trkpt><trkpt lat="42.26137026636133" lon="13.731982438742437"><ele>652.0</ele><time>2026-05-03T08:50:37Z</time></trkpt><trkpt lat="42.26147889171342" lon="13.732009240543093"><ele>651.4000000000001</ele><time>2026-05-03T08:50:39Z</time></trkpt><trkpt lat="42.261566328986845" lon="13.732125910725381"><ele>650.8000000000001</ele><time>2026-05-03T08:50:41Z</time></trkpt><trkpt lat="42.26159671423094" lon="13.732207173389595"><ele>650.2</ele><time>2026-05-03T08:50:42Z</time></trkpt><trkpt lat="42.261625545470906" lon="13.732356122170644"><ele>649.6</ele><time>2026-05-03T08:50:44Z</time></trkpt><trkpt lat="42.26161777334034" lon="13.732514048840299"><ele>649.0</ele><time>2026-05-03T08:50:46Z</time></trkpt><trkpt lat="42.26160930008669" lon="13.732599244208323"><ele>649.0</ele><time>2026-05-03T08:50:47Z</time></trkpt><trkpt lat="42.26159878264048" lon="13.73269393411913"><ele>649.0</ele><time>2026-05-03T08:50:48Z</time></trkpt><trkpt lat="42.26159793362658" lon="13.732783591143056"><ele>649.0</ele><time>2026-05-03T08:50:49Z</time></trkpt><trkpt lat="42.2616217959768" lon="13.732949109095392"><ele>649.0</ele><time>2026-05-03T08:50:51Z</time></trkpt><trkpt lat="42.261635911194716" lon="13.733034247141"><ele>649.0</ele><time>2026-05-03T08:50:52Z</time></trkpt><trkpt lat="42.26164608363018" lon="13.733138303759405"><ele>649.0</ele><time>2026-05-03T08:50:53Z</time></trkpt><trkpt lat="42.261658155766284" lon="13.733252353403241"><ele>646.5</ele><time>2026-05-03T08:50:54Z</time></trkpt><trkpt lat="42.2616698314576" lon="13.73336025418048"><ele>644.0</ele><time>2026-05-03T08:50:55Z</time></trkpt><trkpt lat="42.2616868936572" lon="13.733471348811053"><ele>641.5</ele><time>2026-05-03T08:50:56Z</time></trkpt><trkpt lat="42.261711861265155" lon="13.733576198672084"><ele>639.0</ele><time>2026-05-03T08:50:57Z</time></trkpt><trkpt lat="42.26173693143456" lon="13.733672685842782"><ele>636.5</ele><time>2026-05-03T08:50:58Z</time></trkpt><trkpt lat="42.26175684970362" lon="13.733761357514558"><ele>634.0</ele><time>2026-05-03T08:50:59Z</time></trkpt><trkpt lat="42.26177030308815" lon="13.733851547319883"><ele>633.1666666666667</ele><time>2026-05-03T08:51:00Z</time></trkpt><trkpt lat="42.26177463181199" lon="13.73395177159511"><ele>632.3333333333334</ele><time>2026-05-03T08:51:01Z</time></trkpt><trkpt lat="42.261773160756896" lon="13.734040549450217"><ele>631.5</ele><time>2026-05-03T08:51:02Z</time></trkpt><trkpt lat="42.26176655755976" lon="13.734129900692862"><ele>630.6666666666666</ele><time>2026-05-03T08:51:03Z</time></trkpt><trkpt lat="42.2617440451448" lon="13.734288025664398"><ele>629.8333333333333</ele><time>2026-05-03T08:51:05Z</time></trkpt><trkpt lat="42.26171484836185" lon="13.734377389898091"><ele>629.0</ele><time>2026-05-03T08:51:06Z</time></trkpt><trkpt lat="42.26168088248717" lon="13.73446510031028"><ele>629.0</ele><time>2026-05-03T08:51:07Z</time></trkpt><trkpt lat="42.26164544223661" lon="13.734560029928753"><ele>629.0</ele><time>2026-05-03T08:51:08Z</time></trkpt><trkpt lat="42.26160298540188" lon="13.734671807612443"><ele>629.0</ele><time>2026-05-03T08:51:09Z</time></trkpt><trkpt lat="42.26154735664788" lon="13.734775663139889"><ele>629.0</ele><time>2026-05-03T08:51:10Z</time></trkpt><trkpt lat="42.26148920157298" lon="13.734852539883287"><ele>629.0</ele><time>2026-05-03T08:51:11Z</time></trkpt><trkpt lat="42.261429871687945" lon="13.734915732870386"><ele>629.0</ele><time>2026-05-03T08:51:12Z</time></trkpt><trkpt lat="42.26137171323868" lon="13.734985712321823"><ele>625.3333333333333</ele><time>2026-05-03T08:51:13Z</time></trkpt><trkpt lat="42.26131760726938" lon="13.735060241699884"><ele>621.6666666666666</ele><time>2026-05-03T08:51:14Z</time></trkpt><trkpt lat="42.26126649491689" lon="13.735132057862279"><ele>618.0</ele><time>2026-05-03T08:51:15Z</time></trkpt><trkpt lat="42.261199630615494" lon="13.735250744680563"><ele>614.3333333333334</ele><time>2026-05-03T08:51:17Z</time></trkpt><trkpt lat="42.26117009220484" lon="13.735384529939036"><ele>610.6666666666667</ele><time>2026-05-03T08:51:19Z</time></trkpt><trkpt lat="42.2611509557379" lon="13.735481225332949"><ele>607.0</ele><time>2026-05-03T08:51:20Z</time></trkpt><trkpt lat="42.26112427378031" lon="13.735579121619232"><ele>606.4</ele><time>2026-05-03T08:51:21Z</time></trkpt><trkpt lat="42.261101595578566" lon="13.735661887587234"><ele>605.8000000000001</ele><time>2026-05-03T08:51:22Z</time></trkpt><trkpt lat="42.261076299551526" lon="13.735808952857761"><ele>605.2</ele><time>2026-05-03T08:51:24Z</time></trkpt><trkpt lat="42.26104720638503" lon="13.735954705072123"><ele>604.6</ele><time>2026-05-03T08:51:26Z</time></trkpt><trkpt lat="42.261024609491" lon="13.736107057521656"><ele>604.0</ele><time>2026-05-03T08:51:28Z</time></trkpt><trkpt lat="42.261000687273544" lon="13.736223707714837"><ele>602.6666666666667</ele><time>2026-05-03T08:51:30Z</time></trkpt><trkpt lat="42.26097226135753" lon="13.736319975993664"><ele>601.3333333333334</ele><time>2026-05-03T08:51:32Z</time></trkpt><trkpt lat="42.26098807695774" lon="13.73641974858945"><ele>600.0</ele><time>2026-05-03T08:51:35Z</time></trkpt><trkpt lat="42.261060647012414" lon="13.736480741264291"><ele>598.6666666666666</ele><time>2026-05-03T08:51:37Z</time></trkpt><trkpt lat="42.26111782717433" lon="13.73653642677419"><ele>597.3333333333333</ele><time>2026-05-03T08:51:38Z</time></trkpt><trkpt lat="42.26116780518707" lon="13.7365966261228"><ele>596.0</ele><time>2026-05-03T08:51:39Z</time></trkpt><trkpt lat="42.261256869482224" lon="13.736706978062777"><ele>596.0</ele><time>2026-05-03T08:51:41Z</time></trkpt><trkpt lat="42.2613493960615" lon="13.736811047012326"><ele>596.0</ele><time>2026-05-03T08:51:43Z</time></trkpt><trkpt lat="42.26144109232864" lon="13.736895820931627"><ele>596.0</ele><time>2026-05-03T08:51:45Z</time></trkpt><trkpt lat="42.26154671759996" lon="13.736954817628815"><ele>596.0</ele><time>2026-05-03T08:51:47Z</time></trkpt><trkpt lat="42.261663833909225" lon="13.736985678983187"><ele>592.25</ele><time>2026-05-03T08:51:49Z</time></trkpt><trkpt lat="42.26177491430903" lon="13.737016280791273"><ele>588.5</ele><time>2026-05-03T08:51:51Z</time></trkpt><trkpt lat="42.2618917600895" lon="13.737059991954242"><ele>584.75</ele><time>2026-05-03T08:51:53Z</time></trkpt><trkpt lat="42.26199721781341" lon="13.737109773009898"><ele>581.0</ele><time>2026-05-03T08:51:55Z</time></trkpt><trkpt lat="42.26209967157737" lon="13.737194291259925"><ele>581.0</ele><time>2026-05-03T08:51:57Z</time></trkpt><trkpt lat="42.26221369441281" lon="13.73728429471451"><ele>581.0</ele><time>2026-05-03T08:51:59Z</time></trkpt><trkpt lat="42.26227109493122" lon="13.737329429271409"><ele>581.0</ele><time>2026-05-03T08:52:00Z</time></trkpt><trkpt lat="42.262332141488564" lon="13.737373488465659"><ele>581.0</ele><time>2026-05-03T08:52:01Z</time></trkpt><trkpt lat="42.26239644702447" lon="13.737417822502326"><ele>581.0</ele><time>2026-05-03T08:52:02Z</time></trkpt><trkpt lat="42.26245818462053" lon="13.737463986486254"><ele>581.0</ele><time>2026-05-03T08:52:03Z</time></trkpt><trkpt lat="42.26256127682509" lon="13.737526468610161"><ele>581.8333333333333</ele><time>2026-05-03T08:52:05Z</time></trkpt><trkpt lat="42.26268528764163" lon="13.737556028865535"><ele>582.6666666666666</ele><time>2026-05-03T08:52:07Z</time></trkpt><trkpt lat="42.262760333867476" lon="13.737565233164423"><ele>583.5</ele><time>2026-05-03T08:52:08Z</time></trkpt><trkpt lat="42.26284449311941" lon="13.737577075965797"><ele>584.3333333333334</ele><time>2026-05-03T08:52:09Z</time></trkpt><trkpt lat="42.26290787748227" lon="13.737596137620224"><ele>585.1666666666667</ele><time>2026-05-03T08:52:10Z</time></trkpt><trkpt lat="42.26298115815708" lon="13.73762223515581"><ele>586.0</ele><time>2026-05-03T08:52:11Z</time></trkpt><trkpt lat="42.26306369234177" lon="13.737641230781792"><ele>586.5</ele><time>2026-05-03T08:52:12Z</time></trkpt><trkpt lat="42.26313461768687" lon="13.73765769325989"><ele>587.0</ele><time>2026-05-03T08:52:13Z</time></trkpt><trkpt lat="42.26325231485063" lon="13.737692151823016"><ele>587.5</ele><time>2026-05-03T08:52:15Z</time></trkpt><trkpt lat="42.26331473062977" lon="13.737707710599725"><ele>588.0</ele><time>2026-05-03T08:52:16Z</time></trkpt><trkpt lat="42.263418119757" lon="13.737733672792665"><ele>588.5</ele><time>2026-05-03T08:52:18Z</time></trkpt><trkpt lat="42.2634999421798" lon="13.737744314519613"><ele>589.0</ele><time>2026-05-03T08:52:20Z</time></trkpt><trkpt lat="42.26357487162733" lon="13.737693362086413"><ele>589.0</ele><time>2026-05-03T08:52:24Z</time></trkpt><trkpt lat="42.26369844864214" lon="13.737644284095323"><ele>589.0</ele><time>2026-05-03T08:52:26Z</time></trkpt><trkpt lat="42.26377550391797" lon="13.737633053484421"><ele>589.0</ele><time>2026-05-03T08:52:27Z</time></trkpt><trkpt lat="42.26383889410839" lon="13.737621454908052"><ele>589.0</ele><time>2026-05-03T08:52:28Z</time></trkpt><trkpt lat="42.26392081195382" lon="13.737559805571829"><ele>589.0</ele><time>2026-05-03T08:52:30Z</time></trkpt><trkpt lat="42.26401581842704" lon="13.737508303625493"><ele>589.0</ele><time>2026-05-03T08:52:32Z</time></trkpt><trkpt lat="42.26394794370176" lon="13.737541657604766"><ele>589.0</ele><time>2026-05-03T08:53:10Z</time></trkpt><trkpt lat="42.26384915924874" lon="13.737594792048771"><ele>589.0</ele><time>2026-05-03T08:53:12Z</time></trkpt><trkpt lat="42.26378220384863" lon="13.737623424158254"><ele>589.0</ele><time>2026-05-03T08:53:13Z</time></trkpt><trkpt lat="42.263687030602455" lon="13.737643450865477"><ele>589.0</ele><time>2026-05-03T08:53:14Z</time></trkpt><trkpt lat="42.263599926360136" lon="13.737900359164449"><ele>581.75</ele><time>2026-05-03T08:53:16Z</time></trkpt><trkpt lat="42.26368384001122" lon="13.737903890166809"><ele>574.5</ele><time>2026-05-03T08:53:35Z</time></trkpt><trkpt lat="42.26378400245392" lon="13.73790810491008"><ele>567.25</ele><time>2026-05-03T08:53:37Z</time></trkpt><trkpt lat="42.26387740304031" lon="13.7379120350905"><ele>560.0</ele><time>2026-05-03T08:53:39Z</time></trkpt><trkpt lat="42.26404163774719" lon="13.737758820628708"><ele>559.0</ele><time>2026-05-03T08:53:42Z</time></trkpt><trkpt lat="42.26412641359009" lon="13.737786914768417"><ele>558.0</ele><time>2026-05-03T08:53:44Z</time></trkpt><trkpt lat="42.26420393465332" lon="13.737840683175296"><ele>557.0</ele><time>2026-05-03T08:53:46Z</time></trkpt><trkpt lat="42.26429367375135" lon="13.738075346737999"><ele>556.0</ele><time>2026-05-03T08:53:48Z</time></trkpt><trkpt lat="42.26441350413599" lon="13.738080389195902"><ele>556.0</ele><time>2026-05-03T08:53:50Z</time></trkpt><trkpt lat="42.264492711637764" lon="13.738083722241383"><ele>556.0</ele><time>2026-05-03T08:53:51Z</time></trkpt><trkpt lat="42.26456352229873" lon="13.738086701950113"><ele>556.0</ele><time>2026-05-03T08:53:52Z</time></trkpt><trkpt lat="42.2646650357989" lon="13.738090973633291"><ele>556.0</ele><time>2026-05-03T08:53:54Z</time></trkpt><trkpt lat="42.26477239528171" lon="13.73809549131438"><ele>556.0</ele><time>2026-05-03T08:53:56Z</time></trkpt><trkpt lat="42.26483780846079" lon="13.738098243899284"><ele>556.0</ele><time>2026-05-03T08:53:58Z</time></trkpt><trkpt lat="42.26487682931552" lon="13.73802051789989"><ele>555.0</ele><time>2026-05-03T08:54:00Z</time></trkpt><trkpt lat="42.264998629023296" lon="13.738084276714984"><ele>554.0</ele><time>2026-05-03T08:54:06Z</time></trkpt><trkpt lat="42.26510773895118" lon="13.738117700677074"><ele>553.0</ele><time>2026-05-03T08:54:07Z</time></trkpt><trkpt lat="42.26523551445552" lon="13.738136796515207"><ele>552.0</ele><time>2026-05-03T08:54:08Z</time></trkpt><trkpt lat="42.26536484670657" lon="13.738136108506856"><ele>552.0</ele><time>2026-05-03T08:54:09Z</time></trkpt><trkpt lat="42.265503566197346" lon="13.738135494996905"><ele>552.0</ele><time>2026-05-03T08:54:10Z</time></trkpt><trkpt lat="42.26564923051599" lon="13.738139280971538"><ele>552.0</ele><time>2026-05-03T08:54:11Z</time></trkpt><trkpt lat="42.26580284496872" lon="13.738145042168657"><ele>552.0</ele><time>2026-05-03T08:54:12Z</time></trkpt><trkpt lat="42.26595068970128" lon="13.738151276029603"><ele>551.5</ele><time>2026-05-03T08:54:13Z</time></trkpt><trkpt lat="42.2660976357026" lon="13.738158589946055"><ele>551.0</ele><time>2026-05-03T08:54:14Z</time></trkpt><trkpt lat="42.266244995270796" lon="13.73816673558877"><ele>550.5</ele><time>2026-05-03T08:54:15Z</time></trkpt><trkpt lat="42.26639071593861" lon="13.738177014136612"><ele>550.0</ele><time>2026-05-03T08:54:16Z</time></trkpt><trkpt lat="42.26654135219935" lon="13.738189280601372"><ele>549.0</ele><time>2026-05-03T08:54:17Z</time></trkpt><trkpt lat="42.266691091811204" lon="13.738191588291881"><ele>548.0</ele><time>2026-05-03T08:54:18Z</time></trkpt><trkpt lat="42.26683964854479" lon="13.738198651941513"><ele>547.0</ele><time>2026-05-03T08:54:19Z</time></trkpt><trkpt lat="42.266990623908676" lon="13.73821024693678"><ele>547.0</ele><time>2026-05-03T08:54:20Z</time></trkpt><trkpt lat="42.267142971498764" lon="13.738213802738935"><ele>547.0</ele><time>2026-05-03T08:54:21Z</time></trkpt><trkpt lat="42.26729930033657" lon="13.738215614298163"><ele>547.0</ele><time>2026-05-03T08:54:22Z</time></trkpt><trkpt lat="42.26745770583848" lon="13.738222245706712"><ele>545.6666666666667</ele><time>2026-05-03T08:54:23Z</time></trkpt><trkpt lat="42.26762095219642" lon="13.738231822466046"><ele>544.3333333333334</ele><time>2026-05-03T08:54:24Z</time></trkpt><trkpt lat="42.26778584287666" lon="13.738237470508029"><ele>543.0</ele><time>2026-05-03T08:54:25Z</time></trkpt><trkpt lat="42.26795420493282" lon="13.738240532257052"><ele>541.75</ele><time>2026-05-03T08:54:26Z</time></trkpt><trkpt lat="42.26811987204116" lon="13.738247110041932"><ele>540.5</ele><time>2026-05-03T08:54:27Z</time></trkpt><trkpt lat="42.26826574025022" lon="13.738255229105944"><ele>539.25</ele><time>2026-05-03T08:54:28Z</time></trkpt><trkpt lat="42.26837302180037" lon="13.73824978820749"><ele>538.0</ele><time>2026-05-03T08:54:29Z</time></trkpt><trkpt lat="42.26845127124201" lon="13.738260649338367"><ele>538.0</ele><time>2026-05-03T08:54:30Z</time></trkpt><trkpt lat="42.26854473984061" lon="13.738302676625283"><ele>538.0</ele><time>2026-05-03T08:54:32Z</time></trkpt><trkpt lat="42.26864627875264" lon="13.738340842762357"><ele>538.0</ele><time>2026-05-03T08:54:34Z</time></trkpt><trkpt lat="42.26871245273082" lon="13.738357868462518"><ele>538.0</ele><time>2026-05-03T08:54:35Z</time></trkpt><trkpt lat="42.26878268881303" lon="13.738376247965892"><ele>538.0</ele><time>2026-05-03T08:54:36Z</time></trkpt><trkpt lat="42.26885515137908" lon="13.738363556549544"><ele>538.0</ele><time>2026-05-03T08:54:37Z</time></trkpt><trkpt lat="42.26893725579245" lon="13.738367003390078"><ele>538.3333333333334</ele><time>2026-05-03T08:54:38Z</time></trkpt><trkpt lat="42.26902249222952" lon="13.738370581699467"><ele>538.6666666666667</ele><time>2026-05-03T08:54:39Z</time></trkpt><trkpt lat="42.26909924448228" lon="13.738373813275919"><ele>539.0</ele><time>2026-05-03T08:54:40Z</time></trkpt><trkpt lat="42.26917220957776" lon="13.73837687642639"><ele>539.3333333333334</ele><time>2026-05-03T08:54:41Z</time></trkpt><trkpt lat="42.26928246816353" lon="13.738381513466281"><ele>539.6666666666666</ele><time>2026-05-03T08:54:43Z</time></trkpt><trkpt lat="42.26937953432927" lon="13.738385595995297"><ele>540.0</ele><time>2026-05-03T08:54:45Z</time></trkpt><trkpt lat="42.2694187695447" lon="13.738848087266504"><ele>537.6666666666666</ele><time>2026-05-03T08:54:48Z</time></trkpt><trkpt lat="42.26940639662317" lon="13.738963986904686"><ele>535.3333333333334</ele><time>2026-05-03T08:54:50Z</time></trkpt><trkpt lat="42.269367977593205" lon="13.739111119015126"><ele>533.0</ele><time>2026-05-03T08:54:52Z</time></trkpt><trkpt lat="42.2693576962507" lon="13.739197146501828"><ele>530.6666666666667</ele><time>2026-05-03T08:54:53Z</time></trkpt><trkpt lat="42.269350459702444" lon="13.739289230234519"><ele>528.3333333333334</ele><time>2026-05-03T08:54:54Z</time></trkpt><trkpt lat="42.26933964368393" lon="13.739380570281195"><ele>526.0</ele><time>2026-05-03T08:54:55Z</time></trkpt><trkpt lat="42.26932537175531" lon="13.739468256142843"><ele>524.8571428571429</ele><time>2026-05-03T08:54:56Z</time></trkpt><trkpt lat="42.26930870201466" lon="13.73955377291062"><ele>523.7142857142857</ele><time>2026-05-03T08:54:57Z</time></trkpt><trkpt lat="42.269290751627196" lon="13.7396424565855"><ele>522.5714285714286</ele><time>2026-05-03T08:54:58Z</time></trkpt><trkpt lat="42.269274772184254" lon="13.739731352486771"><ele>521.4285714285714</ele><time>2026-05-03T08:54:59Z</time></trkpt><trkpt lat="42.269253514956915" lon="13.73981378632858"><ele>520.2857142857142</ele><time>2026-05-03T08:55:00Z</time></trkpt><trkpt lat="42.26923164813106" lon="13.73989781972733"><ele>519.1428571428571</ele><time>2026-05-03T08:55:01Z</time></trkpt><trkpt lat="42.269215338691936" lon="13.739994706538603"><ele>518.0</ele><time>2026-05-03T08:55:02Z</time></trkpt><trkpt lat="42.26920960112785" lon="13.740084641463037"><ele>514.6</ele><time>2026-05-03T08:55:03Z</time></trkpt><trkpt lat="42.269198733497454" lon="13.740219706076472"><ele>511.19999999999993</ele><time>2026-05-03T08:55:05Z</time></trkpt><trkpt lat="42.26913727292302" lon="13.740294220701566"><ele>507.8</ele><time>2026-05-03T08:55:07Z</time></trkpt><trkpt lat="42.269050751432154" lon="13.740382996952114"><ele>504.4</ele><time>2026-05-03T08:55:09Z</time></trkpt><trkpt lat="42.268940018388854" lon="13.740472874015929"><ele>501.0</ele><time>2026-05-03T08:55:11Z</time></trkpt><trkpt lat="42.26882714541185" lon="13.740535440439702"><ele>501.0</ele><time>2026-05-03T08:55:13Z</time></trkpt><trkpt lat="42.26873160019008" lon="13.740591623175643"><ele>501.0</ele><time>2026-05-03T08:55:15Z</time></trkpt><trkpt lat="42.26864817847926" lon="13.740593420530058"><ele>501.0</ele><time>2026-05-03T08:55:17Z</time></trkpt><trkpt lat="42.268601524096944" lon="13.74053459341953"><ele>501.0</ele><time>2026-05-03T08:55:19Z</time></trkpt><trkpt lat="42.26856968039307" lon="13.740413971591378"><ele>501.0</ele><time>2026-05-03T08:55:21Z</time></trkpt><trkpt lat="42.26857250802618" lon="13.740326795801348"><ele>501.0</ele><time>2026-05-03T08:55:23Z</time></trkpt><trkpt lat="42.268554327590095" lon="13.740225466142654"><ele>501.0</ele><time>2026-05-03T08:55:38Z</time></trkpt><trkpt lat="42.26853071436399" lon="13.740102339980421"><ele>501.0</ele><time>2026-05-03T08:55:40Z</time></trkpt><trkpt lat="42.268451835867786" lon="13.740044234662317"><ele>501.0</ele><time>2026-05-03T08:55:42Z</time></trkpt><trkpt lat="42.26835024288047" lon="13.740091195866727"><ele>501.0</ele><time>2026-05-03T08:55:44Z</time></trkpt><trkpt lat="42.268317271334865" lon="13.740190060223682"><ele>501.0</ele><time>2026-05-03T08:55:46Z</time></trkpt><trkpt lat="42.26825574610673" lon="13.74029313441243"><ele>501.0</ele><time>2026-05-03T08:55:48Z</time></trkpt><trkpt lat="42.26816063420997" lon="13.740380542481322"><ele>501.0</ele><time>2026-05-03T08:55:50Z</time></trkpt><trkpt lat="42.26809331342961" lon="13.740410149576281"><ele>501.0</ele><time>2026-05-03T08:55:51Z</time></trkpt><trkpt lat="42.26801648993769" lon="13.740440165371982"><ele>501.0</ele><time>2026-05-03T08:55:52Z</time></trkpt><trkpt lat="42.26793873922849" lon="13.740461901194895"><ele>501.0</ele><time>2026-05-03T08:55:53Z</time></trkpt><trkpt lat="42.267862103073874" lon="13.740489554890317"><ele>501.0</ele><time>2026-05-03T08:55:54Z</time></trkpt><trkpt lat="42.26775663689463" lon="13.740513410474557"><ele>499.4</ele><time>2026-05-03T08:55:56Z</time></trkpt><trkpt lat="42.26765771630859" lon="13.740473492133733"><ele>497.8</ele><time>2026-05-03T08:55:58Z</time></trkpt><trkpt lat="42.26755825302528" lon="13.74045068240562"><ele>496.19999999999993</ele><time>2026-05-03T08:56:00Z</time></trkpt><trkpt lat="42.2674488581137" lon="13.74037760739074"><ele>494.59999999999997</ele><time>2026-05-03T08:56:02Z</time></trkpt><trkpt lat="42.267392887487524" lon="13.740329218178022"><ele>493.0</ele><time>2026-05-03T08:56:03Z</time></trkpt><trkpt lat="42.26732597064981" lon="13.740284112252892"><ele>491.59999999999997</ele><time>2026-05-03T08:56:04Z</time></trkpt><trkpt lat="42.267257123121134" lon="13.740235683538527"><ele>490.19999999999993</ele><time>2026-05-03T08:56:05Z</time></trkpt><trkpt lat="42.26719638925392" lon="13.740202307272671"><ele>488.8</ele><time>2026-05-03T08:56:06Z</time></trkpt><trkpt lat="42.26708740848036" lon="13.740210486242091"><ele>487.4</ele><time>2026-05-03T08:56:08Z</time></trkpt><trkpt lat="42.26699160800242" lon="13.740217755454703"><ele>486.0</ele><time>2026-05-03T08:56:10Z</time></trkpt><trkpt lat="42.2668640224399" lon="13.740164079853988"><ele>486.0</ele><time>2026-05-03T08:56:12Z</time></trkpt><trkpt lat="42.26678257967185" lon="13.740158825652502"><ele>486.0</ele><time>2026-05-03T08:56:13Z</time></trkpt><trkpt lat="42.26671177507248" lon="13.740179360001013"><ele>486.0</ele><time>2026-05-03T08:56:14Z</time></trkpt><trkpt lat="42.266638262129725" lon="13.740200315177361"><ele>486.0</ele><time>2026-05-03T08:56:15Z</time></trkpt><trkpt lat="42.266556200532236" lon="13.74021033125537"><ele>486.0</ele><time>2026-05-03T08:56:16Z</time></trkpt><trkpt lat="42.266470486568736" lon="13.740227526011605"><ele>486.0</ele><time>2026-05-03T08:56:17Z</time></trkpt><trkpt lat="42.26638553789707" lon="13.740257326931532"><ele>486.1666666666667</ele><time>2026-05-03T08:56:18Z</time></trkpt><trkpt lat="42.26630722349887" lon="13.740272296476803"><ele>486.33333333333337</ele><time>2026-05-03T08:56:19Z</time></trkpt><trkpt lat="42.266218069289025" lon="13.740336582892864"><ele>486.5</ele><time>2026-05-03T08:56:21Z</time></trkpt><trkpt lat="42.266143129281716" lon="13.740448938592044"><ele>486.6666666666667</ele><time>2026-05-03T08:56:23Z</time></trkpt><trkpt lat="42.26609291605433" lon="13.740514789231188"><ele>486.83333333333337</ele><time>2026-05-03T08:56:24Z</time></trkpt><trkpt lat="42.26603692752644" lon="13.740578826908722"><ele>487.0</ele><time>2026-05-03T08:56:25Z</time></trkpt><trkpt lat="42.26597530003828" lon="13.740632108578742"><ele>487.0</ele><time>2026-05-03T08:56:26Z</time></trkpt><trkpt lat="42.265915011253085" lon="13.740683832412016"><ele>487.0</ele><time>2026-05-03T08:56:27Z</time></trkpt><trkpt lat="42.26585897854268" lon="13.74075144639608"><ele>487.0</ele><time>2026-05-03T08:56:28Z</time></trkpt><trkpt lat="42.2658025460593" lon="13.740818790361372"><ele>487.0</ele><time>2026-05-03T08:56:29Z</time></trkpt><trkpt lat="42.2657454239548" lon="13.740878223883962"><ele>487.0</ele><time>2026-05-03T08:56:30Z</time></trkpt><trkpt lat="42.26567933383063" lon="13.74092182005685"><ele>487.0</ele><time>2026-05-03T08:56:31Z</time></trkpt><trkpt lat="42.26560663041606" lon="13.740955291941374"><ele>487.0</ele><time>2026-05-03T08:56:32Z</time></trkpt><trkpt lat="42.26552696014797" lon="13.74097589612378"><ele>487.00000000000006</ele><time>2026-05-03T08:56:33Z</time></trkpt><trkpt lat="42.26545289786982" lon="13.740990055528831"><ele>487.0</ele><time>2026-05-03T08:56:34Z</time></trkpt><trkpt lat="42.26538645151797" lon="13.741003949351501"><ele>487.0</ele><time>2026-05-03T08:56:35Z</time></trkpt><trkpt lat="42.265321334180946" lon="13.741010814821605"><ele>487.0</ele><time>2026-05-03T08:56:36Z</time></trkpt><trkpt lat="42.265243760541146" lon="13.741009184061395"><ele>487.00000000000006</ele><time>2026-05-03T08:56:37Z</time></trkpt><trkpt lat="42.26515778272296" lon="13.740997644207352"><ele>487.0</ele><time>2026-05-03T08:56:38Z</time></trkpt><trkpt lat="42.26506596538969" lon="13.740977180714767"><ele>487.00000000000006</ele><time>2026-05-03T08:56:39Z</time></trkpt><trkpt lat="42.26496991551336" lon="13.740954420418454"><ele>487.0</ele><time>2026-05-03T08:56:40Z</time></trkpt><trkpt lat="42.26487965333682" lon="13.740946605200703"><ele>487.0</ele><time>2026-05-03T08:56:41Z</time></trkpt><trkpt lat="42.264798417412514" lon="13.740966275869464"><ele>487.0</ele><time>2026-05-03T08:56:42Z</time></trkpt><trkpt lat="42.26471320228583" lon="13.741000563544924"><ele>487.00000000000006</ele><time>2026-05-03T08:56:43Z</time></trkpt><trkpt lat="42.2646313254954" lon="13.741049639864224"><ele>487.0</ele><time>2026-05-03T08:56:44Z</time></trkpt><trkpt lat="42.264560104504106" lon="13.741099508591399"><ele>484.83333333333337</ele><time>2026-05-03T08:56:45Z</time></trkpt><trkpt lat="42.26448837614055" lon="13.741143720888397"><ele>482.6666666666667</ele><time>2026-05-03T08:56:46Z</time></trkpt><trkpt lat="42.26440660372991" lon="13.741178806161347"><ele>480.5</ele><time>2026-05-03T08:56:47Z</time></trkpt><trkpt lat="42.26432751271802" lon="13.741199758462448"><ele>478.33333333333337</ele><time>2026-05-03T08:56:48Z</time></trkpt><trkpt lat="42.26425077134288" lon="13.741218390486377"><ele>476.1666666666667</ele><time>2026-05-03T08:56:49Z</time></trkpt><trkpt lat="42.264175896442396" lon="13.741240513290672"><ele>474.0</ele><time>2026-05-03T08:56:50Z</time></trkpt><trkpt lat="42.26409034200814" lon="13.741249494413148"><ele>474.0</ele><time>2026-05-03T08:56:51Z</time></trkpt><trkpt lat="42.26400202445958" lon="13.741239650516992"><ele>474.0</ele><time>2026-05-03T08:56:52Z</time></trkpt><trkpt lat="42.26390524304807" lon="13.741236067151698"><ele>474.0</ele><time>2026-05-03T08:56:53Z</time></trkpt><trkpt lat="42.263802071862536" lon="13.741236941407974"><ele>474.0</ele><time>2026-05-03T08:56:54Z</time></trkpt><trkpt lat="42.26370686393636" lon="13.741243279922701"><ele>474.0</ele><time>2026-05-03T08:56:55Z</time></trkpt><trkpt lat="42.26363025204584" lon="13.741242763556196"><ele>474.0</ele><time>2026-05-03T08:56:56Z</time></trkpt><trkpt lat="42.26355133457955" lon="13.741253292774598"><ele>474.0</ele><time>2026-05-03T08:56:58Z</time></trkpt><trkpt lat="42.26351068265697" lon="13.74134161682465"><ele>474.0</ele><time>2026-05-03T08:57:00Z</time></trkpt><trkpt lat="42.26344458590569" lon="13.741431996347206"><ele>474.0</ele><time>2026-05-03T08:57:02Z</time></trkpt><trkpt lat="42.263376776748274" lon="13.74150925319506"><ele>474.0</ele><time>2026-05-03T08:57:04Z</time></trkpt><trkpt lat="42.26336218071389" lon="13.741627639743893"><ele>474.0</ele><time>2026-05-03T08:57:06Z</time></trkpt><trkpt lat="42.2633123681443" lon="13.741707573836774"><ele>474.0</ele><time>2026-05-03T08:57:08Z</time></trkpt><trkpt lat="42.263203543336175" lon="13.741748931742856"><ele>474.0</ele><time>2026-05-03T08:57:10Z</time></trkpt><trkpt lat="42.26312055483069" lon="13.741816208539385"><ele>474.0</ele><time>2026-05-03T08:57:12Z</time></trkpt><trkpt lat="42.26314558759414" lon="13.741929197210636"><ele>474.0</ele><time>2026-05-03T08:57:14Z</time></trkpt><trkpt lat="42.2631766323652" lon="13.742043477353263"><ele>474.0</ele><time>2026-05-03T08:57:16Z</time></trkpt><trkpt lat="42.263150617192224" lon="13.742147718682894"><ele>472.0</ele><time>2026-05-03T08:57:18Z</time></trkpt><trkpt lat="42.26305263115529" lon="13.742193904258633"><ele>470.0</ele><time>2026-05-03T08:57:20Z</time></trkpt><trkpt lat="42.26300975390977" lon="13.742313095300057"><ele>468.0</ele><time>2026-05-03T08:57:22Z</time></trkpt><trkpt lat="42.263048491823355" lon="13.742486273785069"><ele>466.0</ele><time>2026-05-03T08:57:24Z</time></trkpt><trkpt lat="42.263053151719866" lon="13.74257467081607"><ele>464.0</ele><time>2026-05-03T08:57:25Z</time></trkpt><trkpt lat="42.26303674166022" lon="13.74271652455171"><ele>462.8333333333333</ele><time>2026-05-03T08:57:27Z</time></trkpt><trkpt lat="42.262951087898415" lon="13.742776717208146"><ele>461.66666666666663</ele><time>2026-05-03T08:57:29Z</time></trkpt><trkpt lat="42.2628852281691" lon="13.742793369159404"><ele>460.5</ele><time>2026-05-03T08:57:30Z</time></trkpt><trkpt lat="42.26281596021114" lon="13.742815378573045"><ele>459.33333333333337</ele><time>2026-05-03T08:57:31Z</time></trkpt><trkpt lat="42.2627450825236" lon="13.742864164089317"><ele>458.1666666666667</ele><time>2026-05-03T08:57:32Z</time></trkpt><trkpt lat="42.262671505185146" lon="13.742928702181938"><ele>457.0</ele><time>2026-05-03T08:57:33Z</time></trkpt><trkpt lat="42.26260580052756" lon="13.742981452205877"><ele>457.0</ele><time>2026-05-03T08:57:34Z</time></trkpt><trkpt lat="42.262542238482936" lon="13.743027862889715"><ele>457.00000000000006</ele><time>2026-05-03T08:57:35Z</time></trkpt><trkpt lat="42.262429871625386" lon="13.7430800719488"><ele>457.00000000000006</ele><time>2026-05-03T08:57:37Z</time></trkpt><trkpt lat="42.26232429476797" lon="13.743110671713668"><ele>457.0</ele><time>2026-05-03T08:57:39Z</time></trkpt><trkpt lat="42.26225117884043" lon="13.743265131824055"><ele>457.0</ele><time>2026-05-03T08:57:41Z</time></trkpt><trkpt lat="42.26222119706435" lon="13.743360442912964"><ele>457.00000000000006</ele><time>2026-05-03T08:57:42Z</time></trkpt><trkpt lat="42.26219589265989" lon="13.74345186697976"><ele>457.0</ele><time>2026-05-03T08:57:43Z</time></trkpt><trkpt lat="42.26215318804873" lon="13.743577669492945"><ele>457.0</ele><time>2026-05-03T08:57:45Z</time></trkpt><trkpt lat="42.26210083229487" lon="13.743625403631984"><ele>457.0</ele><time>2026-05-03T08:57:47Z</time></trkpt><trkpt lat="42.26212714147926" lon="13.74370972280403"><ele>457.00000000000006</ele><time>2026-05-03T08:57:50Z</time></trkpt><trkpt lat="42.26216950674983" lon="13.743784658321571"><ele>457.0</ele><time>2026-05-03T08:57:51Z</time></trkpt><trkpt lat="42.26222567422942" lon="13.743871208292562"><ele>457.0</ele><time>2026-05-03T08:57:52Z</time></trkpt><trkpt lat="42.26227179827655" lon="13.743942105938455"><ele>457.00000000000006</ele><time>2026-05-03T08:57:53Z</time></trkpt><trkpt lat="42.26238346370182" lon="13.743987499905161"><ele>457.00000000000006</ele><time>2026-05-03T08:57:55Z</time></trkpt><trkpt lat="42.26247061113076" lon="13.74398281094049"><ele>457.0</ele><time>2026-05-03T08:57:56Z</time></trkpt><trkpt lat="42.262574675134715" lon="13.743973729015341"><ele>457.0</ele><time>2026-05-03T08:57:57Z</time></trkpt><trkpt lat="42.26268031282891" lon="13.743964364576643"><ele>456.20000000000005</ele><time>2026-05-03T08:57:58Z</time></trkpt><trkpt lat="42.26278918228381" lon="13.743950995758404"><ele>455.40000000000003</ele><time>2026-05-03T08:57:59Z</time></trkpt><trkpt lat="42.26290254333477" lon="13.743936268242983"><ele>454.59999999999997</ele><time>2026-05-03T08:58:00Z</time></trkpt><trkpt lat="42.26301591004822" lon="13.74392893394907"><ele>453.79999999999995</ele><time>2026-05-03T08:58:01Z</time></trkpt><trkpt lat="42.26312736741505" lon="13.743918113937688"><ele>453.0</ele><time>2026-05-03T08:58:02Z</time></trkpt><trkpt lat="42.2632419661189" lon="13.743905191818705"><ele>452.25</ele><time>2026-05-03T08:58:03Z</time></trkpt><trkpt lat="42.26335918029083" lon="13.743899125661049"><ele>451.5</ele><time>2026-05-03T08:58:04Z</time></trkpt><trkpt lat="42.2634773314198" lon="13.74390994410983"><ele>450.75</ele><time>2026-05-03T08:58:05Z</time></trkpt><trkpt lat="42.263596752401845" lon="13.743929781156194"><ele>450.0</ele><time>2026-05-03T08:58:06Z</time></trkpt><trkpt lat="42.26370949132177" lon="13.743958864987654"><ele>450.0</ele><time>2026-05-03T08:58:07Z</time></trkpt><trkpt lat="42.26381959500585" lon="13.74398781008996"><ele>450.0</ele><time>2026-05-03T08:58:08Z</time></trkpt><trkpt lat="42.26393268756539" lon="13.744012500453682"><ele>450.0</ele><time>2026-05-03T08:58:09Z</time></trkpt><trkpt lat="42.26404015795254" lon="13.744023908259084"><ele>450.0</ele><time>2026-05-03T08:58:10Z</time></trkpt><trkpt lat="42.26415265560957" lon="13.744048051255039"><ele>450.0</ele><time>2026-05-03T08:58:11Z</time></trkpt><trkpt lat="42.26425625881014" lon="13.744070506862942"><ele>449.6</ele><time>2026-05-03T08:58:12Z</time></trkpt><trkpt lat="42.2643540437144" lon="13.744089247938062"><ele>449.2</ele><time>2026-05-03T08:58:13Z</time></trkpt><trkpt lat="42.26444497143826" lon="13.744097041539225"><ele>448.79999999999995</ele><time>2026-05-03T08:58:14Z</time></trkpt><trkpt lat="42.264539216342484" lon="13.744090397351979"><ele>448.4</ele><time>2026-05-03T08:58:15Z</time></trkpt><trkpt lat="42.264632250364336" lon="13.74406731785836"><ele>448.0</ele><time>2026-05-03T08:58:16Z</time></trkpt><trkpt lat="42.26472278356709" lon="13.744027433228133"><ele>448.0</ele><time>2026-05-03T08:58:17Z</time></trkpt><trkpt lat="42.26480905194555" lon="13.743976505104778"><ele>447.99999999999994</ele><time>2026-05-03T08:58:18Z</time></trkpt><trkpt lat="42.264892824758526" lon="13.743904743675545"><ele>447.99999999999994</ele><time>2026-05-03T08:58:19Z</time></trkpt><trkpt lat="42.26497719863303" lon="13.743827441576853"><ele>448.0</ele><time>2026-05-03T08:58:20Z</time></trkpt><trkpt lat="42.265065850160816" lon="13.743752453882792"><ele>448.0</ele><time>2026-05-03T08:58:21Z</time></trkpt><trkpt lat="42.26515547883934" lon="13.743695518493164"><ele>448.0</ele><time>2026-05-03T08:58:22Z</time></trkpt><trkpt lat="42.26524443484629" lon="13.743644982592114"><ele>447.99999999999994</ele><time>2026-05-03T08:58:23Z</time></trkpt><trkpt lat="42.26533098679991" lon="13.743593613554438"><ele>447.99999999999994</ele><time>2026-05-03T08:58:24Z</time></trkpt><trkpt lat="42.2654249092131" lon="13.74355144816116"><ele>448.0</ele><time>2026-05-03T08:58:25Z</time></trkpt><trkpt lat="42.26552596189735" lon="13.743529936323954"><ele>448.0</ele><time>2026-05-03T08:58:26Z</time></trkpt><trkpt lat="42.265625886984694" lon="13.743520238051193"><ele>448.0</ele><time>2026-05-03T08:58:27Z</time></trkpt><trkpt lat="42.26572651079387" lon="13.743525620025007"><ele>447.99999999999994</ele><time>2026-05-03T08:58:28Z</time></trkpt><trkpt lat="42.26583068876209" lon="13.743531305545487"><ele>447.99999999999994</ele><time>2026-05-03T08:58:29Z</time></trkpt><trkpt lat="42.26593844504735" lon="13.74352350811602"><ele>448.0</ele><time>2026-05-03T08:58:30Z</time></trkpt><trkpt lat="42.266040054949336" lon="13.743508798500011"><ele>448.0</ele><time>2026-05-03T08:58:31Z</time></trkpt><trkpt lat="42.26613864106714" lon="13.743505731486566"><ele>448.0</ele><time>2026-05-03T08:58:32Z</time></trkpt><trkpt lat="42.26624139950792" lon="13.743523835441932"><ele>447.99999999999994</ele><time>2026-05-03T08:58:33Z</time></trkpt><trkpt lat="42.26634745228842" lon="13.743555516086271"><ele>447.99999999999994</ele><time>2026-05-03T08:58:34Z</time></trkpt><trkpt lat="42.26645702963226" lon="13.743583829077938"><ele>448.0</ele><time>2026-05-03T08:58:35Z</time></trkpt><trkpt lat="42.26655999946798" lon="13.743595383755922"><ele>448.0</ele><time>2026-05-03T08:58:36Z</time></trkpt><trkpt lat="42.266655715426026" lon="13.743599129050297"><ele>447.59999999999997</ele><time>2026-05-03T08:58:37Z</time></trkpt><trkpt lat="42.26674378890118" lon="13.74359461655161"><ele>447.19999999999993</ele><time>2026-05-03T08:58:38Z</time></trkpt><trkpt lat="42.26682996413544" lon="13.74358318182109"><ele>446.8</ele><time>2026-05-03T08:58:39Z</time></trkpt><trkpt lat="42.26692181223829" lon="13.743558149192854"><ele>446.4</ele><time>2026-05-03T08:58:40Z</time></trkpt><trkpt lat="42.267010157497424" lon="13.743510201644156"><ele>446.0</ele><time>2026-05-03T08:58:41Z</time></trkpt><trkpt lat="42.26710117676414" lon="13.743458467116783"><ele>446.0</ele><time>2026-05-03T08:58:42Z</time></trkpt><trkpt lat="42.26718604247926" lon="13.743420786628832"><ele>446.0</ele><time>2026-05-03T08:58:43Z</time></trkpt><trkpt lat="42.26726256743196" lon="13.743397379787458"><ele>446.0</ele><time>2026-05-03T08:58:44Z</time></trkpt><trkpt lat="42.26733591079095" lon="13.743392472967676"><ele>446.0</ele><time>2026-05-03T08:58:45Z</time></trkpt><trkpt lat="42.26740861775928" lon="13.74338398104729"><ele>446.0</ele><time>2026-05-03T08:58:46Z</time></trkpt><trkpt lat="42.26747531066833" lon="13.743367632217884"><ele>446.0</ele><time>2026-05-03T08:58:47Z</time></trkpt><trkpt lat="42.267539051440316" lon="13.743356396049759"><ele>446.0</ele><time>2026-05-03T08:58:48Z</time></trkpt><trkpt lat="42.26761223804393" lon="13.743360012493513"><ele>444.6</ele><time>2026-05-03T08:58:49Z</time></trkpt><trkpt lat="42.26769211440397" lon="13.743378018828773"><ele>443.20000000000005</ele><time>2026-05-03T08:58:50Z</time></trkpt><trkpt lat="42.267779708351966" lon="13.74340523477285"><ele>441.79999999999995</ele><time>2026-05-03T08:58:51Z</time></trkpt><trkpt lat="42.26786651701839" lon="13.743446039732229"><ele>440.4</ele><time>2026-05-03T08:58:52Z</time></trkpt><trkpt lat="42.2679476469157" lon="13.743494790677095"><ele>439.0</ele><time>2026-05-03T08:58:53Z</time></trkpt><trkpt lat="42.26803965766929" lon="13.743561307881357"><ele>440.0</ele><time>2026-05-03T08:58:54Z</time></trkpt><trkpt lat="42.268123707531096" lon="13.743627878656417"><ele>441.0</ele><time>2026-05-03T08:58:55Z</time></trkpt><trkpt lat="42.268208609452884" lon="13.743687629711111"><ele>442.0</ele><time>2026-05-03T08:58:56Z</time></trkpt><trkpt lat="42.26828374098744" lon="13.743728203926338"><ele>443.0</ele><time>2026-05-03T08:58:57Z</time></trkpt><trkpt lat="42.2683522371714" lon="13.743757340100132"><ele>444.0</ele><time>2026-05-03T08:58:58Z</time></trkpt><trkpt lat="42.26848222769404" lon="13.743760540508069"><ele>444.0</ele><time>2026-05-03T08:59:00Z</time></trkpt><trkpt lat="42.268553032372886" lon="13.74376193215217"><ele>444.0</ele><time>2026-05-03T08:59:01Z</time></trkpt><trkpt lat="42.26863019548273" lon="13.743784113802342"><ele>444.0</ele><time>2026-05-03T08:59:02Z</time></trkpt><trkpt lat="42.26869663677685" lon="13.743796637717542"><ele>444.0</ele><time>2026-05-03T08:59:03Z</time></trkpt><trkpt lat="42.26876100678629" lon="13.743775342941467"><ele>444.0</ele><time>2026-05-03T08:59:04Z</time></trkpt><trkpt lat="42.26882219177435" lon="13.743728022943822"><ele>444.0</ele><time>2026-05-03T08:59:05Z</time></trkpt><trkpt lat="42.268875019468645" lon="13.743669749584145"><ele>444.0</ele><time>2026-05-03T08:59:06Z</time></trkpt><trkpt lat="42.26893984837881" lon="13.743607441645144"><ele>443.6</ele><time>2026-05-03T08:59:07Z</time></trkpt><trkpt lat="42.2689907527903" lon="13.743554795929612"><ele>443.2</ele><time>2026-05-03T08:59:08Z</time></trkpt><trkpt lat="42.26905109465144" lon="13.74342598250151"><ele>442.80000000000007</ele><time>2026-05-03T08:59:10Z</time></trkpt><trkpt lat="42.26909591870909" lon="13.743277973086778"><ele>442.40000000000003</ele><time>2026-05-03T08:59:12Z</time></trkpt><trkpt lat="42.2691837341954" lon="13.743230651868949"><ele>442.0</ele><time>2026-05-03T08:59:14Z</time></trkpt><trkpt lat="42.26930026404739" lon="13.74321229140983"><ele>441.00000000000006</ele><time>2026-05-03T08:59:16Z</time></trkpt><trkpt lat="42.2693651336428" lon="13.7432108677767"><ele>440.0</ele><time>2026-05-03T08:59:17Z</time></trkpt><trkpt lat="42.26943975705528" lon="13.743214962443586"><ele>439.0</ele><time>2026-05-03T08:59:18Z</time></trkpt><trkpt lat="42.26950609309247" lon="13.743221337635305"><ele>438.0</ele><time>2026-05-03T08:59:19Z</time></trkpt><trkpt lat="42.26957027063786" lon="13.74323565154091"><ele>437.0</ele><time>2026-05-03T08:59:20Z</time></trkpt><trkpt lat="42.2696382522457" lon="13.743269654290133"><ele>436.00000000000006</ele><time>2026-05-03T08:59:21Z</time></trkpt><trkpt lat="42.269708761445564" lon="13.743303721277652"><ele>435.0</ele><time>2026-05-03T08:59:22Z</time></trkpt><trkpt lat="42.26977535288752" lon="13.743340797331086"><ele>434.8333333333333</ele><time>2026-05-03T08:59:23Z</time></trkpt><trkpt lat="42.26984824840891" lon="13.743380790888187"><ele>434.66666666666663</ele><time>2026-05-03T08:59:24Z</time></trkpt><trkpt lat="42.26992043388594" lon="13.743436327808599"><ele>434.5</ele><time>2026-05-03T08:59:25Z</time></trkpt><trkpt lat="42.26998650742624" lon="13.743507301477196"><ele>434.3333333333333</ele><time>2026-05-03T08:59:26Z</time></trkpt><trkpt lat="42.27004938920897" lon="13.743576115240637"><ele>434.16666666666663</ele><time>2026-05-03T08:59:27Z</time></trkpt><trkpt lat="42.270107331181634" lon="13.743623049205867"><ele>434.0</ele><time>2026-05-03T08:59:28Z</time></trkpt><trkpt lat="42.27017097572017" lon="13.74365975081367"><ele>433.14285714285717</ele><time>2026-05-03T08:59:29Z</time></trkpt><trkpt lat="42.27024268423644" lon="13.743708728230288"><ele>432.2857142857143</ele><time>2026-05-03T08:59:30Z</time></trkpt><trkpt lat="42.2703144732532" lon="13.743764461389867"><ele>431.42857142857144</ele><time>2026-05-03T08:59:31Z</time></trkpt><trkpt lat="42.27038101691987" lon="13.74381083045469"><ele>430.57142857142856</ele><time>2026-05-03T08:59:32Z</time></trkpt><trkpt lat="42.270438191396266" lon="13.743849224503586"><ele>429.7142857142857</ele><time>2026-05-03T08:59:33Z</time></trkpt><trkpt lat="42.2705007366153" lon="13.743872471934504"><ele>428.8571428571429</ele><time>2026-05-03T08:59:34Z</time></trkpt><trkpt lat="42.27057276064579" lon="13.74388515756956"><ele>428.0</ele><time>2026-05-03T08:59:35Z</time></trkpt><trkpt lat="42.27065347512006" lon="13.743918183627974"><ele>427.8333333333333</ele><time>2026-05-03T08:59:36Z</time></trkpt><trkpt lat="42.27073054252039" lon="13.743950003394964"><ele>427.66666666666663</ele><time>2026-05-03T08:59:37Z</time></trkpt><trkpt lat="42.27079656814316" lon="13.743985106001238"><ele>427.5</ele><time>2026-05-03T08:59:38Z</time></trkpt><trkpt lat="42.270881517310784" lon="13.744080211854948"><ele>427.33333333333337</ele><time>2026-05-03T08:59:40Z</time></trkpt><trkpt lat="42.27093025796851" lon="13.744168029509842"><ele>427.1666666666667</ele><time>2026-05-03T08:59:43Z</time></trkpt><trkpt lat="42.27087875617813" lon="13.744264029812003"><ele>427.0</ele><time>2026-05-03T08:59:45Z</time></trkpt><trkpt lat="42.27092232167979" lon="13.744364040358695"><ele>426.50000000000006</ele><time>2026-05-03T08:59:47Z</time></trkpt><trkpt lat="42.27093392637803" lon="13.744453018879296"><ele>426.0</ele><time>2026-05-03T08:59:48Z</time></trkpt><trkpt lat="42.270972000886026" lon="13.744559606543312"><ele>425.5</ele><time>2026-05-03T08:59:49Z</time></trkpt><trkpt lat="42.27102414658927" lon="13.744658445875897"><ele>425.0</ele><time>2026-05-03T08:59:50Z</time></trkpt><trkpt lat="42.27107889902395" lon="13.744762604930742"><ele>424.50000000000006</ele><time>2026-05-03T08:59:51Z</time></trkpt><trkpt lat="42.27113255708735" lon="13.744875782463698"><ele>424.0</ele><time>2026-05-03T08:59:52Z</time></trkpt><trkpt lat="42.271183198706225" lon="13.745011306461192"><ele>424.00000000000006</ele><time>2026-05-03T08:59:53Z</time></trkpt><trkpt lat="42.27124031229208" lon="13.745125353876976"><ele>424.0</ele><time>2026-05-03T08:59:54Z</time></trkpt><trkpt lat="42.27128964822512" lon="13.745223870266257"><ele>424.0</ele><time>2026-05-03T08:59:55Z</time></trkpt><trkpt lat="42.27133552345187" lon="13.74531547643833"><ele>424.0</ele><time>2026-05-03T08:59:56Z</time></trkpt><trkpt lat="42.271373889740865" lon="13.745414088164933"><ele>424.00000000000006</ele><time>2026-05-03T08:59:57Z</time></trkpt><trkpt lat="42.27140066711552" lon="13.745520826632248"><ele>424.0</ele><time>2026-05-03T08:59:58Z</time></trkpt><trkpt lat="42.27141456894629" lon="13.745617669709016"><ele>423.83333333333337</ele><time>2026-05-03T08:59:59Z</time></trkpt><trkpt lat="42.27142665505342" lon="13.74570986218642"><ele>423.6666666666667</ele><time>2026-05-03T09:00:00Z</time></trkpt><trkpt lat="42.271434014317784" lon="13.745818363195859"><ele>423.5</ele><time>2026-05-03T09:00:01Z</time></trkpt><trkpt lat="42.27146150693627" lon="13.745937026574092"><ele>423.33333333333337</ele><time>2026-05-03T09:00:02Z</time></trkpt><trkpt lat="42.27148284973359" lon="13.746064370794006"><ele>423.1666666666667</ele><time>2026-05-03T09:00:03Z</time></trkpt><trkpt lat="42.271495311919395" lon="13.746190620012257"><ele>423.0</ele><time>2026-05-03T09:00:04Z</time></trkpt><trkpt lat="42.27154424095846" lon="13.746305049744565"><ele>423.0</ele><time>2026-05-03T09:00:05Z</time></trkpt><trkpt lat="42.271585431276115" lon="13.746427674669084"><ele>423.0</ele><time>2026-05-03T09:00:06Z</time></trkpt><trkpt lat="42.27164032059888" lon="13.746555621441193"><ele>423.0</ele><time>2026-05-03T09:00:07Z</time></trkpt><trkpt lat="42.27169163630743" lon="13.746689671641285"><ele>423.0</ele><time>2026-05-03T09:00:08Z</time></trkpt><trkpt lat="42.27175659167392" lon="13.746797790879294"><ele>423.0</ele><time>2026-05-03T09:00:09Z</time></trkpt><trkpt lat="42.2718116657545" lon="13.746908131801751"><ele>424.59999999999997</ele><time>2026-05-03T09:00:10Z</time></trkpt><trkpt lat="42.2718718691576" lon="13.747013238897896"><ele>426.2</ele><time>2026-05-03T09:00:11Z</time></trkpt><trkpt lat="42.27191629171885" lon="13.74713273471795"><ele>427.8</ele><time>2026-05-03T09:00:12Z</time></trkpt><trkpt lat="42.27198505056195" lon="13.747223474522835"><ele>429.4</ele><time>2026-05-03T09:00:13Z</time></trkpt><trkpt lat="42.27203935197221" lon="13.747326615104495"><ele>431.0</ele><time>2026-05-03T09:00:14Z</time></trkpt><trkpt lat="42.27208457634187" lon="13.747441215491977"><ele>431.0</ele><time>2026-05-03T09:00:15Z</time></trkpt><trkpt lat="42.27214417386564" lon="13.747549318389364"><ele>431.0</ele><time>2026-05-03T09:00:16Z</time></trkpt><trkpt lat="42.27220922608554" lon="13.74764017934066"><ele>431.0</ele><time>2026-05-03T09:00:17Z</time></trkpt><trkpt lat="42.272264847061734" lon="13.74772686159502"><ele>431.0</ele><time>2026-05-03T09:00:18Z</time></trkpt><trkpt lat="42.272306974327996" lon="13.747810157061547"><ele>431.0</ele><time>2026-05-03T09:00:19Z</time></trkpt><trkpt lat="42.27240602031992" lon="13.747869065590496"><ele>430.0</ele><time>2026-05-03T09:00:21Z</time></trkpt><trkpt lat="42.27251652552019" lon="13.74794933865365"><ele>429.0</ele><time>2026-05-03T09:00:23Z</time></trkpt><trkpt lat="42.272581136067416" lon="13.748006745904357"><ele>428.0</ele><time>2026-05-03T09:00:24Z</time></trkpt><trkpt lat="42.27265701887863" lon="13.748081415724478"><ele>427.0</ele><time>2026-05-03T09:00:25Z</time></trkpt><trkpt lat="42.272736157339345" lon="13.748168450078438"><ele>426.0</ele><time>2026-05-03T09:00:26Z</time></trkpt><trkpt lat="42.27280997807922" lon="13.748254439885944"><ele>426.0</ele><time>2026-05-03T09:00:27Z</time></trkpt><trkpt lat="42.27287859506155" lon="13.748344992576717"><ele>426.0</ele><time>2026-05-03T09:00:28Z</time></trkpt><trkpt lat="42.272934957423885" lon="13.74846241623084"><ele>426.0</ele><time>2026-05-03T09:00:29Z</time></trkpt><trkpt lat="42.273012835609194" lon="13.748552519881036"><ele>426.0</ele><time>2026-05-03T09:00:30Z</time></trkpt><trkpt lat="42.2730786002863" lon="13.748663449015208"><ele>426.0</ele><time>2026-05-03T09:00:31Z</time></trkpt><trkpt lat="42.27315099026424" lon="13.748755405670382"><ele>424.6</ele><time>2026-05-03T09:00:32Z</time></trkpt><trkpt lat="42.27322613004166" lon="13.748848651751244"><ele>423.20000000000005</ele><time>2026-05-03T09:00:33Z</time></trkpt><trkpt lat="42.27330336108796" lon="13.748937977532862"><ele>421.79999999999995</ele><time>2026-05-03T09:00:34Z</time></trkpt><trkpt lat="42.27338196960912" lon="13.749025673410705"><ele>420.4</ele><time>2026-05-03T09:00:35Z</time></trkpt><trkpt lat="42.27345379372206" lon="13.749101969860567"><ele>419.0</ele><time>2026-05-03T09:00:36Z</time></trkpt><trkpt lat="42.27353560892406" lon="13.749182265713358"><ele>419.0</ele><time>2026-05-03T09:00:37Z</time></trkpt><trkpt lat="42.27362301870489" lon="13.749244496712459"><ele>419.0</ele><time>2026-05-03T09:00:38Z</time></trkpt><trkpt lat="42.27371314028242" lon="13.749304405620345"><ele>419.0</ele><time>2026-05-03T09:00:39Z</time></trkpt><trkpt lat="42.27379153847467" lon="13.749358238409652"><ele>419.0</ele><time>2026-05-03T09:00:40Z</time></trkpt><trkpt lat="42.273847277025304" lon="13.749425068467518"><ele>419.0</ele><time>2026-05-03T09:00:41Z</time></trkpt><trkpt lat="42.2739160509106" lon="13.749523854480719"><ele>419.0</ele><time>2026-05-03T09:00:43Z</time></trkpt><trkpt lat="42.2739239458843" lon="13.749655002768407"><ele>419.0</ele><time>2026-05-03T09:00:45Z</time></trkpt><trkpt lat="42.27388191328392" lon="13.749812747092461"><ele>419.0</ele><time>2026-05-03T09:00:47Z</time></trkpt><trkpt lat="42.27384316888463" lon="13.749919542563413"><ele>419.0</ele><time>2026-05-03T09:00:48Z</time></trkpt><trkpt lat="42.27381382840255" lon="13.750040547478998"><ele>419.0</ele><time>2026-05-03T09:00:49Z</time></trkpt><trkpt lat="42.273752117950636" lon="13.750147436767287"><ele>419.0</ele><time>2026-05-03T09:00:50Z</time></trkpt><trkpt lat="42.273703446240965" lon="13.750266309005827"><ele>419.0</ele><time>2026-05-03T09:00:51Z</time></trkpt><trkpt lat="42.27365854185606" lon="13.750379110990318"><ele>419.0</ele><time>2026-05-03T09:00:52Z</time></trkpt><trkpt lat="42.273634530790446" lon="13.750483071414804"><ele>419.0</ele><time>2026-05-03T09:00:53Z</time></trkpt><trkpt lat="42.27360342189604" lon="13.750626007457527"><ele>419.0</ele><time>2026-05-03T09:00:55Z</time></trkpt><trkpt lat="42.273632598481136" lon="13.750767438307387"><ele>419.0</ele><time>2026-05-03T09:00:57Z</time></trkpt><trkpt lat="42.273645830849425" lon="13.750859905518867"><ele>419.0</ele><time>2026-05-03T09:00:58Z</time></trkpt><trkpt lat="42.27369538500076" lon="13.750941626266075"><ele>419.0</ele><time>2026-05-03T09:00:59Z</time></trkpt><trkpt lat="42.27375923208643" lon="13.751072234059215"><ele>419.0</ele><time>2026-05-03T09:01:01Z</time></trkpt><trkpt lat="42.27385237622723" lon="13.751179217294181"><ele>419.0</ele><time>2026-05-03T09:01:03Z</time></trkpt><trkpt lat="42.273976797493404" lon="13.751216606047157"><ele>418.4</ele><time>2026-05-03T09:01:05Z</time></trkpt><trkpt lat="42.27405314532409" lon="13.75119431603774"><ele>417.79999999999995</ele><time>2026-05-03T09:01:06Z</time></trkpt><trkpt lat="42.274134448288024" lon="13.751153186843464"><ele>417.20000000000005</ele><time>2026-05-03T09:01:07Z</time></trkpt><trkpt lat="42.2742184470664" lon="13.751093378921597"><ele>416.6</ele><time>2026-05-03T09:01:08Z</time></trkpt><trkpt lat="42.274309238336194" lon="13.75105230607626"><ele>416.0</ele><time>2026-05-03T09:01:09Z</time></trkpt><trkpt lat="42.274408793064794" lon="13.751028676674537"><ele>415.99999999999994</ele><time>2026-05-03T09:01:10Z</time></trkpt><trkpt lat="42.27449561746584" lon="13.751002399858159"><ele>416.0</ele><time>2026-05-03T09:01:11Z</time></trkpt><trkpt lat="42.2745886773424" lon="13.750970756508112"><ele>416.0</ele><time>2026-05-03T09:01:12Z</time></trkpt><trkpt lat="42.27466768345638" lon="13.750958112614857"><ele>416.0</ele><time>2026-05-03T09:01:13Z</time></trkpt><trkpt lat="42.274750720280515" lon="13.750970383808918"><ele>415.99999999999994</ele><time>2026-05-03T09:01:14Z</time></trkpt><trkpt lat="42.2748403488614" lon="13.75096708372281"><ele>416.0</ele><time>2026-05-03T09:01:15Z</time></trkpt><trkpt lat="42.27493750535032" lon="13.750969247693103"><ele>415.20000000000005</ele><time>2026-05-03T09:01:16Z</time></trkpt><trkpt lat="42.27503760084336" lon="13.750972581434345"><ele>414.40000000000003</ele><time>2026-05-03T09:01:17Z</time></trkpt><trkpt lat="42.275132929746384" lon="13.75097878013289"><ele>413.6</ele><time>2026-05-03T09:01:18Z</time></trkpt><trkpt lat="42.27522712892398" lon="13.750985453011987"><ele>412.8</ele><time>2026-05-03T09:01:19Z</time></trkpt><trkpt lat="42.27531996923361" lon="13.750992589251183"><ele>412.0</ele><time>2026-05-03T09:01:20Z</time></trkpt><trkpt lat="42.27541587236813" lon="13.750999960910313"><ele>412.0</ele><time>2026-05-03T09:01:21Z</time></trkpt><trkpt lat="42.27550561703289" lon="13.751006859196108"><ele>412.0</ele><time>2026-05-03T09:01:22Z</time></trkpt><trkpt lat="42.2756019305199" lon="13.75099296738015"><ele>412.0</ele><time>2026-05-03T09:01:23Z</time></trkpt><trkpt lat="42.27569647002475" lon="13.751019217502872"><ele>412.0</ele><time>2026-05-03T09:01:24Z</time></trkpt><trkpt lat="42.27578602298052" lon="13.75102425744454"><ele>412.0</ele><time>2026-05-03T09:01:25Z</time></trkpt><trkpt lat="42.27587649214811" lon="13.751008799765936"><ele>410.83333333333337</ele><time>2026-05-03T09:01:26Z</time></trkpt><trkpt lat="42.2759589172604" lon="13.751045733511756"><ele>409.6666666666667</ele><time>2026-05-03T09:01:27Z</time></trkpt><trkpt lat="42.27603671855288" lon="13.751077378607269"><ele>408.5</ele><time>2026-05-03T09:01:28Z</time></trkpt><trkpt lat="42.27610395231482" lon="13.751123393081727"><ele>407.33333333333337</ele><time>2026-05-03T09:01:29Z</time></trkpt><trkpt lat="42.276157558197966" lon="13.751186514300489"><ele>406.1666666666667</ele><time>2026-05-03T09:01:30Z</time></trkpt><trkpt lat="42.27621520619149" lon="13.751273150728187"><ele>405.0</ele><time>2026-05-03T09:01:31Z</time></trkpt><trkpt lat="42.276280202745" lon="13.751362450643892"><ele>405.0</ele><time>2026-05-03T09:01:32Z</time></trkpt><trkpt lat="42.27634475739235" lon="13.751447161261407"><ele>405.0</ele><time>2026-05-03T09:01:33Z</time></trkpt><trkpt lat="42.276423767099466" lon="13.751508625001248"><ele>405.0</ele><time>2026-05-03T09:01:34Z</time></trkpt><trkpt lat="42.27649467993707" lon="13.751573438650384"><ele>405.0</ele><time>2026-05-03T09:01:35Z</time></trkpt><trkpt lat="42.27657355508173" lon="13.751621724912622"><ele>405.0</ele><time>2026-05-03T09:01:36Z</time></trkpt><trkpt lat="42.27666149717268" lon="13.751654596099211"><ele>405.0</ele><time>2026-05-03T09:01:37Z</time></trkpt><trkpt lat="42.2767592244364" lon="13.75168335229805"><ele>404.5</ele><time>2026-05-03T09:01:38Z</time></trkpt><trkpt lat="42.27685402925251" lon="13.751706445979535"><ele>404.0</ele><time>2026-05-03T09:01:39Z</time></trkpt><trkpt lat="42.276933392756675" lon="13.751738800900142"><ele>403.5</ele><time>2026-05-03T09:01:40Z</time></trkpt><trkpt lat="42.27700103754477" lon="13.75175508697433"><ele>403.0</ele><time>2026-05-03T09:01:41Z</time></trkpt><trkpt lat="42.277079941598096" lon="13.751763432143434"><ele>402.5</ele><time>2026-05-03T09:01:42Z</time></trkpt><trkpt lat="42.27717858741019" lon="13.751779797466067"><ele>402.0</ele><time>2026-05-03T09:01:43Z</time></trkpt><trkpt lat="42.27727718952558" lon="13.751818678296285"><ele>401.8</ele><time>2026-05-03T09:01:44Z</time></trkpt><trkpt lat="42.27736328119034" lon="13.75182397470832"><ele>401.6</ele><time>2026-05-03T09:01:45Z</time></trkpt><trkpt lat="42.277427444411295" lon="13.751844106859853"><ele>401.40000000000003</ele><time>2026-05-03T09:01:46Z</time></trkpt><trkpt lat="42.27750845785428" lon="13.751902050809319"><ele>401.20000000000005</ele><time>2026-05-03T09:01:48Z</time></trkpt><trkpt lat="42.27763134538553" lon="13.751989824849785"><ele>401.0</ele><time>2026-05-03T09:01:50Z</time></trkpt><trkpt lat="42.27771879405897" lon="13.752013669025185"><ele>401.25</ele><time>2026-05-03T09:01:51Z</time></trkpt><trkpt lat="42.27783678020835" lon="13.7520413314628"><ele>401.5</ele><time>2026-05-03T09:01:52Z</time></trkpt><trkpt lat="42.277964369830286" lon="13.752085568907807"><ele>401.75</ele><time>2026-05-03T09:01:53Z</time></trkpt><trkpt lat="42.2780801174036" lon="13.752135714241465"><ele>402.0</ele><time>2026-05-03T09:01:54Z</time></trkpt><trkpt lat="42.27820065940263" lon="13.75217176195765"><ele>402.0</ele><time>2026-05-03T09:01:55Z</time></trkpt><trkpt lat="42.27832917472278" lon="13.752185481577184"><ele>402.0</ele><time>2026-05-03T09:01:56Z</time></trkpt><trkpt lat="42.278466028402626" lon="13.752189345651487"><ele>402.0</ele><time>2026-05-03T09:01:57Z</time></trkpt><trkpt lat="42.278606630095986" lon="13.752195166978838"><ele>402.0</ele><time>2026-05-03T09:01:58Z</time></trkpt><trkpt lat="42.27875048724828" lon="13.752202618036673"><ele>402.0</ele><time>2026-05-03T09:01:59Z</time></trkpt><trkpt lat="42.27889311976648" lon="13.752208292204546"><ele>402.0</ele><time>2026-05-03T09:02:00Z</time></trkpt><trkpt lat="42.2790385337886" lon="13.75220670551119"><ele>402.0</ele><time>2026-05-03T09:02:01Z</time></trkpt><trkpt lat="42.27918582354189" lon="13.752200172583457"><ele>402.0</ele><time>2026-05-03T09:02:02Z</time></trkpt><trkpt lat="42.27933511826631" lon="13.752195579866624"><ele>401.0</ele><time>2026-05-03T09:02:03Z</time></trkpt><trkpt lat="42.27947920899914" lon="13.752191437575597"><ele>400.0</ele><time>2026-05-03T09:02:04Z</time></trkpt><trkpt lat="42.27962467542376" lon="13.75218015311843"><ele>399.0</ele><time>2026-05-03T09:02:05Z</time></trkpt><trkpt lat="42.27977319246911" lon="13.752170996328545"><ele>398.0</ele><time>2026-05-03T09:02:06Z</time></trkpt><trkpt lat="42.27991795527143" lon="13.752166144545305"><ele>396.25</ele><time>2026-05-03T09:02:07Z</time></trkpt><trkpt lat="42.2800634218896" lon="13.752167707508825"><ele>394.5</ele><time>2026-05-03T09:02:08Z</time></trkpt><trkpt lat="42.28020583230318" lon="13.75218398498718"><ele>392.75</ele><time>2026-05-03T09:02:09Z</time></trkpt><trkpt lat="42.28034502499193" lon="13.752212611053189"><ele>391.0</ele><time>2026-05-03T09:02:10Z</time></trkpt><trkpt lat="42.2804787956271" lon="13.752255051309172"><ele>390.5</ele><time>2026-05-03T09:02:11Z</time></trkpt><trkpt lat="42.28060797725562" lon="13.752311742086935"><ele>390.0</ele><time>2026-05-03T09:02:12Z</time></trkpt><trkpt lat="42.28073568469574" lon="13.752381045970887"><ele>389.5</ele><time>2026-05-03T09:02:13Z</time></trkpt><trkpt lat="42.28085955109189" lon="13.752463125952168"><ele>389.0</ele><time>2026-05-03T09:02:14Z</time></trkpt><trkpt lat="42.28098000230209" lon="13.752561860869418"><ele>389.0</ele><time>2026-05-03T09:02:15Z</time></trkpt><trkpt lat="42.28109606481942" lon="13.752673731288478"><ele>389.0</ele><time>2026-05-03T09:02:16Z</time></trkpt><trkpt lat="42.28120750889086" lon="13.752789528832919"><ele>389.0</ele><time>2026-05-03T09:02:17Z</time></trkpt><trkpt lat="42.28132077162883" lon="13.752915586647442"><ele>389.0</ele><time>2026-05-03T09:02:18Z</time></trkpt><trkpt lat="42.28143876755964" lon="13.753045127298918"><ele>389.0</ele><time>2026-05-03T09:02:19Z</time></trkpt><trkpt lat="42.28154802504674" lon="13.753203170480454"><ele>389.0</ele><time>2026-05-03T09:02:20Z</time></trkpt><trkpt lat="42.281672984408445" lon="13.753347374139347"><ele>389.0</ele><time>2026-05-03T09:02:21Z</time></trkpt><trkpt lat="42.28180869881618" lon="13.753475742505776"><ele>393.66666666666663</ele><time>2026-05-03T09:02:22Z</time></trkpt><trkpt lat="42.281931827208744" lon="13.753612261106138"><ele>398.33333333333337</ele><time>2026-05-03T09:02:23Z</time></trkpt><trkpt lat="42.28206287190365" lon="13.753736171227212"><ele>403.0</ele><time>2026-05-03T09:02:24Z</time></trkpt><trkpt lat="42.28220690459764" lon="13.753840540841944"><ele>399.0</ele><time>2026-05-03T09:02:25Z</time></trkpt><trkpt lat="42.28235456205036" lon="13.753938762282397"><ele>395.0</ele><time>2026-05-03T09:02:26Z</time></trkpt><trkpt lat="42.28250507802205" lon="13.754035972897313"><ele>391.0</ele><time>2026-05-03T09:02:27Z</time></trkpt><trkpt lat="42.28265635661671" lon="13.754129895303224"><ele>391.0</ele><time>2026-05-03T09:02:28Z</time></trkpt><trkpt lat="42.28280756457042" lon="13.754221469747574"><ele>391.0</ele><time>2026-05-03T09:02:29Z</time></trkpt><trkpt lat="42.28294751765747" lon="13.754301040675688"><ele>391.0</ele><time>2026-05-03T09:02:30Z</time></trkpt><trkpt lat="42.283073270806106" lon="13.754371017303036"><ele>390.20000000000005</ele><time>2026-05-03T09:02:31Z</time></trkpt><trkpt lat="42.28318561917993" lon="13.754430147116004"><ele>389.40000000000003</ele><time>2026-05-03T09:02:32Z</time></trkpt><trkpt lat="42.28328137769326" lon="13.754476893599767"><ele>388.6</ele><time>2026-05-03T09:02:33Z</time></trkpt><trkpt lat="42.283364230466205" lon="13.754519336981762"><ele>387.8</ele><time>2026-05-03T09:02:34Z</time></trkpt><trkpt lat="42.283433996776616" lon="13.754550441662936"><ele>387.0</ele><time>2026-05-03T09:02:35Z</time></trkpt><trkpt lat="42.28354398684232" lon="13.754578898316197"><ele>387.0</ele><time>2026-05-03T09:02:37Z</time></trkpt><trkpt lat="42.28361858477065" lon="13.75454915938409"><ele>387.0</ele><time>2026-05-03T09:02:40Z</time></trkpt><trkpt lat="42.283598977839084" lon="13.754339405467933"><ele>387.0</ele><time>2026-05-03T09:02:42Z</time></trkpt><trkpt lat="42.28356057440069" lon="13.7542102775908"><ele>387.0</ele><time>2026-05-03T09:02:43Z</time></trkpt><trkpt lat="42.28353238775501" lon="13.754039974821557"><ele>386.5</ele><time>2026-05-03T09:02:44Z</time></trkpt><trkpt lat="42.28351340450587" lon="13.753865607006915"><ele>386.0</ele><time>2026-05-03T09:02:45Z</time></trkpt><trkpt lat="42.28348821767251" lon="13.75368339455265"><ele>385.5</ele><time>2026-05-03T09:02:46Z</time></trkpt><trkpt lat="42.28346152316543" lon="13.753485224347164"><ele>385.0</ele><time>2026-05-03T09:02:47Z</time></trkpt><trkpt lat="42.28343611837489" lon="13.753280340625155"><ele>385.0</ele><time>2026-05-03T09:02:48Z</time></trkpt><trkpt lat="42.28341534895041" lon="13.753074969485267"><ele>385.0</ele><time>2026-05-03T09:02:49Z</time></trkpt><trkpt lat="42.2834012543827" lon="13.752863666997165"><ele>385.0</ele><time>2026-05-03T09:02:50Z</time></trkpt><trkpt lat="42.28339590327458" lon="13.752658267753633"><ele>385.25</ele><time>2026-05-03T09:02:51Z</time></trkpt><trkpt lat="42.2833933728511" lon="13.752497446714814"><ele>385.5</ele><time>2026-05-03T09:02:52Z</time></trkpt><trkpt lat="42.28339295804068" lon="13.75238142363089"><ele>385.75</ele><time>2026-05-03T09:02:53Z</time></trkpt><trkpt lat="42.283406044120014" lon="13.752241250469455"><ele>386.0</ele><time>2026-05-03T09:02:55Z</time></trkpt><trkpt lat="42.283655847518325" lon="13.752254320488262"><ele>386.0</ele><time>2026-05-03T09:02:58Z</time></trkpt><trkpt lat="42.28377752341817" lon="13.752271516108046"><ele>386.0</ele><time>2026-05-03T09:02:59Z</time></trkpt><trkpt lat="42.28390347599593" lon="13.752299616358206"><ele>386.0</ele><time>2026-05-03T09:03:00Z</time></trkpt><trkpt lat="42.284029872023076" lon="13.752320744382587"><ele>386.0</ele><time>2026-05-03T09:03:01Z</time></trkpt><trkpt lat="42.28416027843059" lon="13.75235403516335"><ele>385.5</ele><time>2026-05-03T09:03:02Z</time></trkpt><trkpt lat="42.284285579617375" lon="13.752397606846548"><ele>385.0</ele><time>2026-05-03T09:03:03Z</time></trkpt><trkpt lat="42.28439807564482" lon="13.752431581091617"><ele>384.5</ele><time>2026-05-03T09:03:04Z</time></trkpt><trkpt lat="42.28450723468997" lon="13.752467394506931"><ele>384.0</ele><time>2026-05-03T09:03:05Z</time></trkpt><trkpt lat="42.28461774976786" lon="13.752514163680214"><ele>384.0</ele><time>2026-05-03T09:03:06Z</time></trkpt><trkpt lat="42.284730248747984" lon="13.752563857317806"><ele>384.0</ele><time>2026-05-03T09:03:07Z</time></trkpt><trkpt lat="42.28484482028734" lon="13.752618486028718"><ele>384.0</ele><time>2026-05-03T09:03:08Z</time></trkpt><trkpt lat="42.284960671721386" lon="13.752671405233997"><ele>384.0</ele><time>2026-05-03T09:03:09Z</time></trkpt><trkpt lat="42.285074862612454" lon="13.752734470689537"><ele>383.5</ele><time>2026-05-03T09:03:10Z</time></trkpt><trkpt lat="42.28518612157005" lon="13.752796162309647"><ele>383.0</ele><time>2026-05-03T09:03:11Z</time></trkpt><trkpt lat="42.28530171343591" lon="13.752845208260469"><ele>382.5</ele><time>2026-05-03T09:03:12Z</time></trkpt><trkpt lat="42.28541778365098" lon="13.752891350992192"><ele>382.0</ele><time>2026-05-03T09:03:13Z</time></trkpt><trkpt lat="42.2855340918275" lon="13.752934422296455"><ele>381.6</ele><time>2026-05-03T09:03:14Z</time></trkpt><trkpt lat="42.285651097496704" lon="13.752972898409109"><ele>381.20000000000005</ele><time>2026-05-03T09:03:15Z</time></trkpt><trkpt lat="42.28575954990287" lon="13.753009534878045"><ele>380.8</ele><time>2026-05-03T09:03:16Z</time></trkpt><trkpt lat="42.28585938811316" lon="13.753046422429511"><ele>380.4</ele><time>2026-05-03T09:03:17Z</time></trkpt><trkpt lat="42.285953273962264" lon="13.753078867693905"><ele>380.0</ele><time>2026-05-03T09:03:18Z</time></trkpt><trkpt lat="42.28603455888907" lon="13.753105067591283"><ele>380.0</ele><time>2026-05-03T09:03:19Z</time></trkpt><trkpt lat="42.28614037747392" lon="13.75313549506773"><ele>380.0</ele><time>2026-05-03T09:03:21Z</time></trkpt><trkpt lat="42.28621226317237" lon="13.753166483318807"><ele>380.0</ele><time>2026-05-03T09:03:24Z</time></trkpt><trkpt lat="42.28636559070083" lon="13.753182224660996"><ele>380.0</ele><time>2026-05-03T09:03:26Z</time></trkpt><trkpt lat="42.28647468921045" lon="13.753218764224785"><ele>379.5</ele><time>2026-05-03T09:03:27Z</time></trkpt><trkpt lat="42.28659140692653" lon="13.753252780740944"><ele>379.0</ele><time>2026-05-03T09:03:28Z</time></trkpt><trkpt lat="42.28670229416859" lon="13.753304935160658"><ele>378.5</ele><time>2026-05-03T09:03:29Z</time></trkpt><trkpt lat="42.28682655738305" lon="13.753311290888822"><ele>378.0</ele><time>2026-05-03T09:03:30Z</time></trkpt><trkpt lat="42.28695405467483" lon="13.753339412494503"><ele>378.0</ele><time>2026-05-03T09:03:31Z</time></trkpt><trkpt lat="42.28708369819031" lon="13.75338228005172"><ele>378.0</ele><time>2026-05-03T09:03:32Z</time></trkpt><trkpt lat="42.28721149657544" lon="13.75344957402011"><ele>378.0</ele><time>2026-05-03T09:03:33Z</time></trkpt><trkpt lat="42.28733379095145" lon="13.753526386419908"><ele>378.0</ele><time>2026-05-03T09:03:34Z</time></trkpt><trkpt lat="42.28745016330218" lon="13.753599760957693"><ele>377.4</ele><time>2026-05-03T09:03:35Z</time></trkpt><trkpt lat="42.28755429375165" lon="13.753665673909422"><ele>376.79999999999995</ele><time>2026-05-03T09:03:36Z</time></trkpt><trkpt lat="42.28763915622268" lon="13.753727372712266"><ele>376.2</ele><time>2026-05-03T09:03:37Z</time></trkpt><trkpt lat="42.28770982535526" lon="13.753778868377625"><ele>375.6</ele><time>2026-05-03T09:03:38Z</time></trkpt><trkpt lat="42.28782143497674" lon="13.753825017778363"><ele>375.0</ele><time>2026-05-03T09:03:40Z</time></trkpt><trkpt lat="42.28788115980552" lon="13.753793281146086"><ele>375.0</ele><time>2026-05-03T09:03:41Z</time></trkpt><trkpt lat="42.2879247293345" lon="13.753700951252954"><ele>375.0</ele><time>2026-05-03T09:03:42Z</time></trkpt><trkpt lat="42.287974374779566" lon="13.753619601140777"><ele>375.0</ele><time>2026-05-03T09:03:43Z</time></trkpt><trkpt lat="42.28803044393609" lon="13.753533764362967"><ele>375.0</ele><time>2026-05-03T09:03:44Z</time></trkpt><trkpt lat="42.28809902664511" lon="13.753442377557842"><ele>375.0</ele><time>2026-05-03T09:03:45Z</time></trkpt><trkpt lat="42.28818067828479" lon="13.753345531280202"><ele>375.0</ele><time>2026-05-03T09:03:46Z</time></trkpt><trkpt lat="42.28825943220671" lon="13.753247686374584"><ele>374.8</ele><time>2026-05-03T09:03:47Z</time></trkpt><trkpt lat="42.28832406300349" lon="13.753155694932657"><ele>374.6</ele><time>2026-05-03T09:03:48Z</time></trkpt><trkpt lat="42.288388626876056" lon="13.753055327052863"><ele>374.4</ele><time>2026-05-03T09:03:49Z</time></trkpt><trkpt lat="42.288446456710965" lon="13.75296145659792"><ele>374.2</ele><time>2026-05-03T09:03:50Z</time></trkpt><trkpt lat="42.2885046999688" lon="13.752869669646044"><ele>374.0</ele><time>2026-05-03T09:03:51Z</time></trkpt><trkpt lat="42.28856129136318" lon="13.752773273863149"><ele>374.6</ele><time>2026-05-03T09:03:52Z</time></trkpt><trkpt lat="42.28861954809397" lon="13.752672008477038"><ele>375.2</ele><time>2026-05-03T09:03:53Z</time></trkpt><trkpt lat="42.28868341346644" lon="13.752567158650743"><ele>375.8</ele><time>2026-05-03T09:03:54Z</time></trkpt><trkpt lat="42.28874826783798" lon="13.752458312857426"><ele>376.40000000000003</ele><time>2026-05-03T09:03:55Z</time></trkpt><trkpt lat="42.288809587249624" lon="13.752340559721217"><ele>377.0</ele><time>2026-05-03T09:03:56Z</time></trkpt><trkpt lat="42.288866927265346" lon="13.75221756457787"><ele>377.0</ele><time>2026-05-03T09:03:57Z</time></trkpt><trkpt lat="42.288922945248736" lon="13.752094029517224"><ele>377.0</ele><time>2026-05-03T09:03:58Z</time></trkpt><trkpt lat="42.288978730824375" lon="13.751974901390296"><ele>377.0</ele><time>2026-05-03T09:03:59Z</time></trkpt><trkpt lat="42.28903615041775" lon="13.751852297098088"><ele>377.0</ele><time>2026-05-03T09:04:00Z</time></trkpt><trkpt lat="42.289089239264946" lon="13.751734823802146"><ele>377.0</ele><time>2026-05-03T09:04:01Z</time></trkpt><trkpt lat="42.28914702684998" lon="13.751614019592575"><ele>378.0</ele><time>2026-05-03T09:04:02Z</time></trkpt><trkpt lat="42.28920669299634" lon="13.75148940412059"><ele>379.0</ele><time>2026-05-03T09:04:03Z</time></trkpt><trkpt lat="42.289250722247914" lon="13.75135833558599"><ele>380.0</ele><time>2026-05-03T09:04:04Z</time></trkpt><trkpt lat="42.28929800716759" lon="13.751225521603104"><ele>381.0</ele><time>2026-05-03T09:04:05Z</time></trkpt><trkpt lat="42.28935064496752" lon="13.751095338262875"><ele>382.0</ele><time>2026-05-03T09:04:06Z</time></trkpt><trkpt lat="42.28940443769823" lon="13.750969896855006"><ele>382.0</ele><time>2026-05-03T09:04:07Z</time></trkpt><trkpt lat="42.289451516841794" lon="13.750843892916732"><ele>382.0</ele><time>2026-05-03T09:04:08Z</time></trkpt><trkpt lat="42.28949770262364" lon="13.7507202067627"><ele>382.0</ele><time>2026-05-03T09:04:09Z</time></trkpt><trkpt lat="42.28955089843968" lon="13.750609632424737"><ele>382.0</ele><time>2026-05-03T09:04:10Z</time></trkpt><trkpt lat="42.28961604304605" lon="13.75049607515641"><ele>382.0</ele><time>2026-05-03T09:04:11Z</time></trkpt><trkpt lat="42.28968911402103" lon="13.750390319662841"><ele>382.0</ele><time>2026-05-03T09:04:12Z</time></trkpt><trkpt lat="42.28975635314041" lon="13.750285922865192"><ele>382.0</ele><time>2026-05-03T09:04:13Z</time></trkpt><trkpt lat="42.289825669791554" lon="13.750179776744012"><ele>382.0</ele><time>2026-05-03T09:04:14Z</time></trkpt><trkpt lat="42.289889688126955" lon="13.750068740636898"><ele>382.0</ele><time>2026-05-03T09:04:15Z</time></trkpt><trkpt lat="42.289945142991115" lon="13.749949007501653"><ele>382.0</ele><time>2026-05-03T09:04:16Z</time></trkpt><trkpt lat="42.290002289280224" lon="13.749825139748866"><ele>381.8</ele><time>2026-05-03T09:04:17Z</time></trkpt><trkpt lat="42.290055289238836" lon="13.74969718100443"><ele>381.6</ele><time>2026-05-03T09:04:18Z</time></trkpt><trkpt lat="42.29010737684974" lon="13.7495676053247"><ele>381.40000000000003</ele><time>2026-05-03T09:04:19Z</time></trkpt><trkpt lat="42.29015788130443" lon="13.749429356793462"><ele>381.20000000000005</ele><time>2026-05-03T09:04:20Z</time></trkpt><trkpt lat="42.2902032564176" lon="13.749308304764716"><ele>381.0</ele><time>2026-05-03T09:04:21Z</time></trkpt><trkpt lat="42.29026442409465" lon="13.749205471527679"><ele>381.0</ele><time>2026-05-03T09:04:22Z</time></trkpt><trkpt lat="42.29033564122428" lon="13.749103860156412"><ele>381.0</ele><time>2026-05-03T09:04:23Z</time></trkpt><trkpt lat="42.29041266986817" lon="13.748988797030554"><ele>381.0</ele><time>2026-05-03T09:04:24Z</time></trkpt><trkpt lat="42.29048796235012" lon="13.748875746514925"><ele>381.0</ele><time>2026-05-03T09:04:25Z</time></trkpt><trkpt lat="42.290559228225376" lon="13.748759305227605"><ele>381.0</ele><time>2026-05-03T09:04:26Z</time></trkpt><trkpt lat="42.29061910128777" lon="13.748655799014292"><ele>381.0</ele><time>2026-05-03T09:04:27Z</time></trkpt><trkpt lat="42.290667421048234" lon="13.748564282655341"><ele>381.0</ele><time>2026-05-03T09:04:28Z</time></trkpt><trkpt lat="42.29073153206825" lon="13.748463444295504"><ele>381.0</ele><time>2026-05-03T09:04:29Z</time></trkpt><trkpt lat="42.290800328820225" lon="13.74835716029868"><ele>381.0</ele><time>2026-05-03T09:04:30Z</time></trkpt><trkpt lat="42.29086811238228" lon="13.748242661443296"><ele>381.0</ele><time>2026-05-03T09:04:31Z</time></trkpt><trkpt lat="42.29093624093534" lon="13.748130419662791"><ele>381.20000000000005</ele><time>2026-05-03T09:04:32Z</time></trkpt><trkpt lat="42.29099558970994" lon="13.748024037242134"><ele>381.40000000000003</ele><time>2026-05-03T09:04:33Z</time></trkpt><trkpt lat="42.291053601055594" lon="13.74791927230714"><ele>381.6</ele><time>2026-05-03T09:04:34Z</time></trkpt><trkpt lat="42.29111421870341" lon="13.747813583534766"><ele>381.8</ele><time>2026-05-03T09:04:35Z</time></trkpt><trkpt lat="42.29118327453274" lon="13.747698123085662"><ele>382.0</ele><time>2026-05-03T09:04:36Z</time></trkpt><trkpt lat="42.29124591569633" lon="13.74758104938998"><ele>382.40000000000003</ele><time>2026-05-03T09:04:37Z</time></trkpt><trkpt lat="42.29130673789059" lon="13.747461157083709"><ele>382.8</ele><time>2026-05-03T09:04:38Z</time></trkpt><trkpt lat="42.291364519278225" lon="13.74735166238961"><ele>383.2</ele><time>2026-05-03T09:04:39Z</time></trkpt><trkpt lat="42.29142590879629" lon="13.747242717016288"><ele>383.6</ele><time>2026-05-03T09:04:40Z</time></trkpt><trkpt lat="42.29148852145787" lon="13.74714670187506"><ele>384.0</ele><time>2026-05-03T09:04:41Z</time></trkpt><trkpt lat="42.29155441030196" lon="13.747058630566938"><ele>384.1666666666667</ele><time>2026-05-03T09:04:42Z</time></trkpt><trkpt lat="42.29160744645469" lon="13.746981428059561"><ele>384.33333333333337</ele><time>2026-05-03T09:04:43Z</time></trkpt><trkpt lat="42.2916528740256" lon="13.746896725825556"><ele>384.5</ele><time>2026-05-03T09:04:44Z</time></trkpt><trkpt lat="42.29169003054487" lon="13.746811121323898"><ele>384.6666666666667</ele><time>2026-05-03T09:04:45Z</time></trkpt><trkpt lat="42.2917264987801" lon="13.746732383502835"><ele>384.83333333333337</ele><time>2026-05-03T09:04:46Z</time></trkpt><trkpt lat="42.29180441141968" lon="13.746620462580438"><ele>385.0</ele><time>2026-05-03T09:04:48Z</time></trkpt><trkpt lat="42.291851527260356" lon="13.746545336341828"><ele>385.4</ele><time>2026-05-03T09:04:50Z</time></trkpt><trkpt lat="42.29195635434005" lon="13.746661695360293"><ele>385.8</ele><time>2026-05-03T09:04:52Z</time></trkpt><trkpt lat="42.29201838876456" lon="13.746730128449911"><ele>386.20000000000005</ele><time>2026-05-03T09:04:53Z</time></trkpt><trkpt lat="42.292094741502105" lon="13.746792374341538"><ele>386.6</ele><time>2026-05-03T09:04:54Z</time></trkpt><trkpt lat="42.29217742236255" lon="13.74684923014072"><ele>387.0</ele><time>2026-05-03T09:04:55Z</time></trkpt><trkpt lat="42.29227080072734" lon="13.7469126437396"><ele>386.0</ele><time>2026-05-03T09:04:56Z</time></trkpt><trkpt lat="42.29236673365109" lon="13.746976394878919"><ele>385.0</ele><time>2026-05-03T09:04:57Z</time></trkpt><trkpt lat="42.29245843783752" lon="13.74703927808631"><ele>384.0</ele><time>2026-05-03T09:04:58Z</time></trkpt><trkpt lat="42.29255087829869" lon="13.747093894868529"><ele>383.0</ele><time>2026-05-03T09:04:59Z</time></trkpt><trkpt lat="42.29264079178531" lon="13.74714459388755"><ele>382.0</ele><time>2026-05-03T09:05:00Z</time></trkpt><trkpt lat="42.292725402746655" lon="13.747190361579952"><ele>382.0</ele><time>2026-05-03T09:05:01Z</time></trkpt><trkpt lat="42.29281270344769" lon="13.747234387148954"><ele>382.0</ele><time>2026-05-03T09:05:02Z</time></trkpt><trkpt lat="42.29290572724046" lon="13.747267292346088"><ele>382.0</ele><time>2026-05-03T09:05:03Z</time></trkpt><trkpt lat="42.29299683673566" lon="13.747307078419519"><ele>382.0</ele><time>2026-05-03T09:05:04Z</time></trkpt><trkpt lat="42.29308606402047" lon="13.747349062750818"><ele>382.0</ele><time>2026-05-03T09:05:05Z</time></trkpt><trkpt lat="42.29316649250765" lon="13.747388648161296"><ele>383.0</ele><time>2026-05-03T09:05:06Z</time></trkpt><trkpt lat="42.29324296186047" lon="13.747439982970599"><ele>384.0</ele><time>2026-05-03T09:05:07Z</time></trkpt><trkpt lat="42.29332540476387" lon="13.747501796680908"><ele>385.0</ele><time>2026-05-03T09:05:08Z</time></trkpt><trkpt lat="42.293414124027464" lon="13.747564123581917"><ele>386.0</ele><time>2026-05-03T09:05:09Z</time></trkpt><trkpt lat="42.29350761255548" lon="13.74762960479959"><ele>387.0</ele><time>2026-05-03T09:05:10Z</time></trkpt><trkpt lat="42.29360811021019" lon="13.747692161231065"><ele>387.0</ele><time>2026-05-03T09:05:11Z</time></trkpt><trkpt lat="42.29371054297802" lon="13.747751210403214"><ele>387.0</ele><time>2026-05-03T09:05:12Z</time></trkpt><trkpt lat="42.29381109211145" lon="13.747806694094077"><ele>387.0</ele><time>2026-05-03T09:05:13Z</time></trkpt><trkpt lat="42.29390914281552" lon="13.747858124439677"><ele>387.0</ele><time>2026-05-03T09:05:14Z</time></trkpt><trkpt lat="42.2940080381676" lon="13.747906274722407"><ele>387.0</ele><time>2026-05-03T09:05:15Z</time></trkpt><trkpt lat="42.2941121784388" lon="13.747954681921906"><ele>387.0</ele><time>2026-05-03T09:05:16Z</time></trkpt><trkpt lat="42.29421589366359" lon="13.748005215461681"><ele>387.0</ele><time>2026-05-03T09:05:17Z</time></trkpt><trkpt lat="42.29432828730055" lon="13.748067669318178"><ele>387.0</ele><time>2026-05-03T09:05:18Z</time></trkpt><trkpt lat="42.294443584584016" lon="13.748132063010742"><ele>387.0</ele><time>2026-05-03T09:05:19Z</time></trkpt><trkpt lat="42.294557233515825" lon="13.748199276477804"><ele>387.0</ele><time>2026-05-03T09:05:20Z</time></trkpt><trkpt lat="42.294667912116324" lon="13.748274065779285"><ele>387.0</ele><time>2026-05-03T09:05:21Z</time></trkpt><trkpt lat="42.29478125818817" lon="13.748341399420035"><ele>387.0</ele><time>2026-05-03T09:05:22Z</time></trkpt><trkpt lat="42.29488659216812" lon="13.748406780079737"><ele>387.0</ele><time>2026-05-03T09:05:23Z</time></trkpt><trkpt lat="42.29498285399664" lon="13.748467186968997"><ele>388.3333333333333</ele><time>2026-05-03T09:05:24Z</time></trkpt><trkpt lat="42.295066713954824" lon="13.748526533429688"><ele>389.66666666666663</ele><time>2026-05-03T09:05:25Z</time></trkpt><trkpt lat="42.29511144173335" lon="13.748598847896712"><ele>391.0</ele><time>2026-05-03T09:05:26Z</time></trkpt><trkpt lat="42.295157782042956" lon="13.74866032674593"><ele>392.3333333333333</ele><time>2026-05-03T09:05:34Z</time></trkpt><trkpt lat="42.29523499986857" lon="13.748743537049423"><ele>393.66666666666663</ele><time>2026-05-03T09:05:41Z</time></trkpt><trkpt lat="42.29530662201962" lon="13.748754908745413"><ele>395.0</ele><time>2026-05-03T09:05:42Z</time></trkpt><trkpt lat="42.29539183097365" lon="13.74879852639033"><ele>395.4</ele><time>2026-05-03T09:05:43Z</time></trkpt><trkpt lat="42.29549708893187" lon="13.748837176861954"><ele>395.8</ele><time>2026-05-03T09:05:44Z</time></trkpt><trkpt lat="42.295605957111185" lon="13.748880068255657"><ele>396.20000000000005</ele><time>2026-05-03T09:05:45Z</time></trkpt><trkpt lat="42.29570457887566" lon="13.748926188285157"><ele>396.6</ele><time>2026-05-03T09:05:46Z</time></trkpt><trkpt lat="42.29580108419849" lon="13.748976567772182"><ele>397.0</ele><time>2026-05-03T09:05:47Z</time></trkpt><trkpt lat="42.295893664835184" lon="13.74904581752107"><ele>400.0</ele><time>2026-05-03T09:05:48Z</time></trkpt><trkpt lat="42.29597750601402" lon="13.749139392081059"><ele>403.0</ele><time>2026-05-03T09:05:49Z</time></trkpt><trkpt lat="42.29606233473545" lon="13.74926042896124"><ele>406.0</ele><time>2026-05-03T09:05:50Z</time></trkpt><trkpt lat="42.296147263969054" lon="13.74938551062018"><ele>409.0</ele><time>2026-05-03T09:05:51Z</time></trkpt><trkpt lat="42.29623321618735" lon="13.749491283836095"><ele>411.5</ele><time>2026-05-03T09:05:52Z</time></trkpt><trkpt lat="42.29633194112171" lon="13.749564515623582"><ele>414.0</ele><time>2026-05-03T09:05:53Z</time></trkpt><trkpt lat="42.29644830266924" lon="13.749633024118054"><ele>416.5</ele><time>2026-05-03T09:05:54Z</time></trkpt><trkpt lat="42.29657262505535" lon="13.749709273404935"><ele>419.0</ele><time>2026-05-03T09:05:55Z</time></trkpt><trkpt lat="42.29668436629275" lon="13.749797467306482"><ele>419.8333333333333</ele><time>2026-05-03T09:05:56Z</time></trkpt><trkpt lat="42.296775565771256" lon="13.749891121076123"><ele>420.66666666666663</ele><time>2026-05-03T09:05:57Z</time></trkpt><trkpt lat="42.29685306055702" lon="13.749977887594959"><ele>421.5</ele><time>2026-05-03T09:05:58Z</time></trkpt><trkpt lat="42.29691397323091" lon="13.750050228302616"><ele>422.33333333333337</ele><time>2026-05-03T09:05:59Z</time></trkpt><trkpt lat="42.29695983397818" lon="13.750118411818308"><ele>423.1666666666667</ele><time>2026-05-03T09:06:00Z</time></trkpt><trkpt lat="42.29699896746799" lon="13.750186108783575"><ele>424.0</ele><time>2026-05-03T09:06:01Z</time></trkpt><trkpt lat="42.2971007188951" lon="13.75029059511679"><ele>424.2</ele><time>2026-05-03T09:06:03Z</time></trkpt><trkpt lat="42.29718149347739" lon="13.75032967550371"><ele>424.4</ele><time>2026-05-03T09:06:04Z</time></trkpt><trkpt lat="42.29726651909348" lon="13.750377047231384"><ele>424.6</ele><time>2026-05-03T09:06:05Z</time></trkpt><trkpt lat="42.29734075178298" lon="13.750425909355558"><ele>424.8</ele><time>2026-05-03T09:06:06Z</time></trkpt><trkpt lat="42.29742707280582" lon="13.750473288837247"><ele>425.0</ele><time>2026-05-03T09:06:08Z</time></trkpt><trkpt lat="42.29767506579941" lon="13.750136299329151"><ele>425.49999999999994</ele><time>2026-05-03T09:06:24Z</time></trkpt><trkpt lat="42.29773774412639" lon="13.750094756819973"><ele>426.0</ele><time>2026-05-03T09:06:25Z</time></trkpt><trkpt lat="42.297809072607315" lon="13.750062844521242"><ele>426.5</ele><time>2026-05-03T09:06:26Z</time></trkpt><trkpt lat="42.297886285776976" lon="13.750036066813477"><ele>427.0</ele><time>2026-05-03T09:06:27Z</time></trkpt><trkpt lat="42.297974018389134" lon="13.750013642259862"><ele>427.49999999999994</ele><time>2026-05-03T09:06:28Z</time></trkpt><trkpt lat="42.298076993666754" lon="13.75000086025858"><ele>428.0</ele><time>2026-05-03T09:06:29Z</time></trkpt><trkpt lat="42.298185834156236" lon="13.750000974438544"><ele>428.3333333333333</ele><time>2026-05-03T09:06:30Z</time></trkpt><trkpt lat="42.29827938867874" lon="13.750004483747134"><ele>428.66666666666663</ele><time>2026-05-03T09:06:31Z</time></trkpt><trkpt lat="42.29836078797982" lon="13.750012736300626"><ele>429.0</ele><time>2026-05-03T09:06:32Z</time></trkpt><trkpt lat="42.29842983894245" lon="13.750026725829244"><ele>429.33333333333337</ele><time>2026-05-03T09:06:33Z</time></trkpt><trkpt lat="42.29849753269837" lon="13.75002163407766"><ele>429.6666666666667</ele><time>2026-05-03T09:06:34Z</time></trkpt><trkpt lat="42.298583426952774" lon="13.750001655156709"><ele>430.0</ele><time>2026-05-03T09:06:35Z</time></trkpt><trkpt lat="42.29868819042881" lon="13.749978601918208"><ele>430.0</ele><time>2026-05-03T09:06:36Z</time></trkpt><trkpt lat="42.29878990402892" lon="13.74995963696276"><ele>430.0</ele><time>2026-05-03T09:06:37Z</time></trkpt><trkpt lat="42.298903092354415" lon="13.749935441377122"><ele>430.0</ele><time>2026-05-03T09:06:38Z</time></trkpt><trkpt lat="42.29900914383895" lon="13.74991535581231"><ele>430.0</ele><time>2026-05-03T09:06:39Z</time></trkpt><trkpt lat="42.29911720452187" lon="13.749892951970129"><ele>430.0</ele><time>2026-05-03T09:06:40Z</time></trkpt><trkpt lat="42.29922240238947" lon="13.749873306657257"><ele>429.50000000000006</ele><time>2026-05-03T09:06:41Z</time></trkpt><trkpt lat="42.2993237783722" lon="13.749856867160876"><ele>429.0</ele><time>2026-05-03T09:06:42Z</time></trkpt><trkpt lat="42.299419057537655" lon="13.749848865809861"><ele>428.5</ele><time>2026-05-03T09:06:43Z</time></trkpt><trkpt lat="42.29950507521604" lon="13.74985245979126"><ele>428.0</ele><time>2026-05-03T09:06:44Z</time></trkpt><trkpt lat="42.29957893740953" lon="13.749853142561912"><ele>427.50000000000006</ele><time>2026-05-03T09:06:45Z</time></trkpt><trkpt lat="42.299654543722596" lon="13.74983057905358"><ele>427.0</ele><time>2026-05-03T09:06:46Z</time></trkpt><trkpt lat="42.29975074347116" lon="13.749781390281555"><ele>426.0</ele><time>2026-05-03T09:06:47Z</time></trkpt><trkpt lat="42.29985094980909" lon="13.749723004893987"><ele>425.0</ele><time>2026-05-03T09:06:48Z</time></trkpt><trkpt lat="42.29995551848941" lon="13.749664827300297"><ele>424.0</ele><time>2026-05-03T09:06:49Z</time></trkpt><trkpt lat="42.30007056073549" lon="13.749620400096836"><ele>423.0</ele><time>2026-05-03T09:06:50Z</time></trkpt><trkpt lat="42.30017973204371" lon="13.749589382205707"><ele>423.0</ele><time>2026-05-03T09:06:51Z</time></trkpt><trkpt lat="42.30028123944465" lon="13.749560758804108"><ele>423.0</ele><time>2026-05-03T09:06:52Z</time></trkpt><trkpt lat="42.30038357579515" lon="13.749533706771267"><ele>423.0</ele><time>2026-05-03T09:06:53Z</time></trkpt><trkpt lat="42.300479215145316" lon="13.74949988784413"><ele>423.0</ele><time>2026-05-03T09:06:54Z</time></trkpt><trkpt lat="42.30057327747772" lon="13.749462911309273"><ele>423.0</ele><time>2026-05-03T09:06:55Z</time></trkpt><trkpt lat="42.30067445887454" lon="13.749426500506237"><ele>421.5</ele><time>2026-05-03T09:06:56Z</time></trkpt><trkpt lat="42.300779470388406" lon="13.749401648121777"><ele>420.0</ele><time>2026-05-03T09:06:57Z</time></trkpt><trkpt lat="42.30089535016788" lon="13.749379986752238"><ele>418.5</ele><time>2026-05-03T09:06:58Z</time></trkpt><trkpt lat="42.30101485704725" lon="13.749358572458165"><ele>417.0</ele><time>2026-05-03T09:06:59Z</time></trkpt><trkpt lat="42.301129480779196" lon="13.749331290650337"><ele>419.3333333333333</ele><time>2026-05-03T09:07:00Z</time></trkpt><trkpt lat="42.301225688117064" lon="13.749293149390825"><ele>421.66666666666663</ele><time>2026-05-03T09:07:01Z</time></trkpt><trkpt lat="42.30130764265458" lon="13.749241637859864"><ele>424.0</ele><time>2026-05-03T09:07:02Z</time></trkpt><trkpt lat="42.301369177446446" lon="13.749186484548181"><ele>426.3333333333333</ele><time>2026-05-03T09:07:03Z</time></trkpt><trkpt lat="42.30141768491001" lon="13.749122404379001"><ele>428.66666666666663</ele><time>2026-05-03T09:07:04Z</time></trkpt><trkpt lat="42.30146629880724" lon="13.749037496542016"><ele>431.0</ele><time>2026-05-03T09:07:05Z</time></trkpt><trkpt lat="42.30152326548902" lon="13.748925729823561"><ele>431.0</ele><time>2026-05-03T09:07:06Z</time></trkpt><trkpt lat="42.301587871004024" lon="13.748806503129138"><ele>431.0</ele><time>2026-05-03T09:07:07Z</time></trkpt><trkpt lat="42.30165937563583" lon="13.748705947680559"><ele>431.0</ele><time>2026-05-03T09:07:08Z</time></trkpt><trkpt lat="42.30173728704118" lon="13.748617307269248"><ele>431.0</ele><time>2026-05-03T09:07:09Z</time></trkpt><trkpt lat="42.30181631828071" lon="13.748518870218577"><ele>431.0</ele><time>2026-05-03T09:07:10Z</time></trkpt><trkpt lat="42.30188761763615" lon="13.748428674568935"><ele>434.8</ele><time>2026-05-03T09:07:11Z</time></trkpt><trkpt lat="42.30196752061093" lon="13.748363133227237"><ele>438.6</ele><time>2026-05-03T09:07:12Z</time></trkpt><trkpt lat="42.302054960779046" lon="13.748305647908028"><ele>442.4</ele><time>2026-05-03T09:07:13Z</time></trkpt><trkpt lat="42.30213642934921" lon="13.748254229340304"><ele>446.2</ele><time>2026-05-03T09:07:14Z</time></trkpt><trkpt lat="42.30221885878772" lon="13.748189482552782"><ele>450.0</ele><time>2026-05-03T09:07:15Z</time></trkpt><trkpt lat="42.30230401828659" lon="13.74811549681486"><ele>450.0</ele><time>2026-05-03T09:07:16Z</time></trkpt><trkpt lat="42.30240268860403" lon="13.74803764612199"><ele>450.0</ele><time>2026-05-03T09:07:17Z</time></trkpt><trkpt lat="42.302504181939725" lon="13.74797386000626"><ele>450.0</ele><time>2026-05-03T09:07:18Z</time></trkpt><trkpt lat="42.302594444054904" lon="13.747919252897562"><ele>450.0</ele><time>2026-05-03T09:07:19Z</time></trkpt><trkpt lat="42.30266851877052" lon="13.747888973723109"><ele>450.0</ele><time>2026-05-03T09:07:20Z</time></trkpt><trkpt lat="42.302753327147066" lon="13.747869566321677"><ele>450.0</ele><time>2026-05-03T09:07:21Z</time></trkpt><trkpt lat="42.30284511013824" lon="13.747856307093699"><ele>450.0</ele><time>2026-05-03T09:07:22Z</time></trkpt><trkpt lat="42.30294871089635" lon="13.747862321690608"><ele>450.0</ele><time>2026-05-03T09:07:23Z</time></trkpt><trkpt lat="42.303065131844455" lon="13.747873704159959"><ele>450.0</ele><time>2026-05-03T09:07:24Z</time></trkpt><trkpt lat="42.30317428481525" lon="13.747889440799543"><ele>450.0</ele><time>2026-05-03T09:07:25Z</time></trkpt><trkpt lat="42.30327420510777" lon="13.74790783766374"><ele>451.2</ele><time>2026-05-03T09:07:26Z</time></trkpt><trkpt lat="42.30337365916815" lon="13.747936105145095"><ele>452.4</ele><time>2026-05-03T09:07:27Z</time></trkpt><trkpt lat="42.30347848630029" lon="13.747961321154287"><ele>453.6</ele><time>2026-05-03T09:07:28Z</time></trkpt><trkpt lat="42.30358314395984" lon="13.747979404169332"><ele>454.8</ele><time>2026-05-03T09:07:29Z</time></trkpt><trkpt lat="42.303684526630384" lon="13.748000060450472"><ele>456.0</ele><time>2026-05-03T09:07:30Z</time></trkpt><trkpt lat="42.303776845821716" lon="13.74802232307155"><ele>456.0</ele><time>2026-05-03T09:07:31Z</time></trkpt><trkpt lat="42.30386618457508" lon="13.74804168314516"><ele>456.0</ele><time>2026-05-03T09:07:32Z</time></trkpt><trkpt lat="42.30395017182595" lon="13.748064496329887"><ele>456.0</ele><time>2026-05-03T09:07:33Z</time></trkpt><trkpt lat="42.30403301261244" lon="13.748093731269774"><ele>456.0</ele><time>2026-05-03T09:07:34Z</time></trkpt><trkpt lat="42.30411710756909" lon="13.748139062028146"><ele>456.0</ele><time>2026-05-03T09:07:35Z</time></trkpt><trkpt lat="42.30419900434087" lon="13.748201657895118"><ele>456.0</ele><time>2026-05-03T09:07:36Z</time></trkpt><trkpt lat="42.3042964088111" lon="13.748262856485793"><ele>458.6666666666667</ele><time>2026-05-03T09:07:37Z</time></trkpt><trkpt lat="42.30438803813524" lon="13.748308975961367"><ele>461.33333333333337</ele><time>2026-05-03T09:07:38Z</time></trkpt><trkpt lat="42.30446779794952" lon="13.748354132669379"><ele>464.0</ele><time>2026-05-03T09:07:39Z</time></trkpt><trkpt lat="42.30455761521877" lon="13.748392466672286"><ele>466.6666666666667</ele><time>2026-05-03T09:07:40Z</time></trkpt><trkpt lat="42.3046390761017" lon="13.748410208002044"><ele>469.33333333333337</ele><time>2026-05-03T09:07:41Z</time></trkpt><trkpt lat="42.30471345918216" lon="13.748416252469196"><ele>472.0</ele><time>2026-05-03T09:07:42Z</time></trkpt><trkpt lat="42.30478906149972" lon="13.748401739420036"><ele>474.50000000000006</ele><time>2026-05-03T09:07:43Z</time></trkpt><trkpt lat="42.30486049407141" lon="13.74836935300236"><ele>477.0</ele><time>2026-05-03T09:07:44Z</time></trkpt><trkpt lat="42.304948330788235" lon="13.748340227552283"><ele>479.5</ele><time>2026-05-03T09:07:45Z</time></trkpt><trkpt lat="42.30502668685175" lon="13.748321391207748"><ele>482.0</ele><time>2026-05-03T09:07:46Z</time></trkpt><trkpt lat="42.30510525227285" lon="13.748328813119125"><ele>484.50000000000006</ele><time>2026-05-03T09:07:47Z</time></trkpt><trkpt lat="42.30520867574528" lon="13.748418770372018"><ele>487.0</ele><time>2026-05-03T09:07:49Z</time></trkpt><trkpt lat="42.305325106711834" lon="13.748487694872308"><ele>487.00000000000006</ele><time>2026-05-03T09:07:51Z</time></trkpt><trkpt lat="42.3053987166741" lon="13.748492112244922"><ele>487.0</ele><time>2026-05-03T09:07:52Z</time></trkpt><trkpt lat="42.305463834162495" lon="13.74848722898464"><ele>487.0</ele><time>2026-05-03T09:07:53Z</time></trkpt><trkpt lat="42.30559212128691" lon="13.748486612446518"><ele>487.0</ele><time>2026-05-03T09:07:55Z</time></trkpt><trkpt lat="42.3056728959878" lon="13.748484072872804"><ele>487.00000000000006</ele><time>2026-05-03T09:07:56Z</time></trkpt><trkpt lat="42.30575068014967" lon="13.74846487528885"><ele>487.0</ele><time>2026-05-03T09:07:57Z</time></trkpt><trkpt lat="42.3058250546913" lon="13.748423070859586"><ele>488.00000000000006</ele><time>2026-05-03T09:07:58Z</time></trkpt><trkpt lat="42.305897815420714" lon="13.748370501661624"><ele>489.0</ele><time>2026-05-03T09:07:59Z</time></trkpt><trkpt lat="42.30596867746695" lon="13.748325697321453"><ele>490.0</ele><time>2026-05-03T09:08:00Z</time></trkpt><trkpt lat="42.30604356459029" lon="13.748285998880428"><ele>491.0</ele><time>2026-05-03T09:08:01Z</time></trkpt><trkpt lat="42.30612562418259" lon="13.748248771368344"><ele>492.00000000000006</ele><time>2026-05-03T09:08:02Z</time></trkpt><trkpt lat="42.306220854054914" lon="13.748222962007478"><ele>493.0</ele><time>2026-05-03T09:08:03Z</time></trkpt><trkpt lat="42.30631067398866" lon="13.748189936174173"><ele>493.0</ele><time>2026-05-03T09:08:04Z</time></trkpt><trkpt lat="42.30640552616877" lon="13.748148299145113"><ele>492.99999999999994</ele><time>2026-05-03T09:08:05Z</time></trkpt><trkpt lat="42.30650052868919" lon="13.748100089534478"><ele>492.99999999999994</ele><time>2026-05-03T09:08:06Z</time></trkpt><trkpt lat="42.30659041593033" lon="13.748048591050912"><ele>493.0</ele><time>2026-05-03T09:08:07Z</time></trkpt><trkpt lat="42.30668095766853" lon="13.748003442238078"><ele>493.0</ele><time>2026-05-03T09:08:08Z</time></trkpt><trkpt lat="42.306771471111944" lon="13.747968633563644"><ele>492.57142857142856</ele><time>2026-05-03T09:08:09Z</time></trkpt><trkpt lat="42.30684113572761" lon="13.74794836247501"><ele>492.14285714285717</ele><time>2026-05-03T09:08:10Z</time></trkpt><trkpt lat="42.30692382384704" lon="13.74794055130641"><ele>491.7142857142857</ele><time>2026-05-03T09:08:11Z</time></trkpt><trkpt lat="42.307008117491264" lon="13.747935608225777"><ele>491.2857142857143</ele><time>2026-05-03T09:08:12Z</time></trkpt><trkpt lat="42.307077207192066" lon="13.747914665476697"><ele>490.8571428571429</ele><time>2026-05-03T09:08:13Z</time></trkpt><trkpt lat="42.30714597990228" lon="13.747902929938071"><ele>490.42857142857144</ele><time>2026-05-03T09:08:14Z</time></trkpt><trkpt lat="42.30721294226457" lon="13.74790879005602"><ele>490.0</ele><time>2026-05-03T09:08:15Z</time></trkpt><trkpt lat="42.307279390168375" lon="13.747916977525847"><ele>489.2</ele><time>2026-05-03T09:08:16Z</time></trkpt><trkpt lat="42.30740348544427" lon="13.747914758236458"><ele>488.4</ele><time>2026-05-03T09:08:18Z</time></trkpt><trkpt lat="42.30753017207379" lon="13.747912456956442"><ele>487.6</ele><time>2026-05-03T09:08:20Z</time></trkpt><trkpt lat="42.30760049805155" lon="13.747907437775144"><ele>486.8</ele><time>2026-05-03T09:08:21Z</time></trkpt><trkpt lat="42.30767849252542" lon="13.747902383082229"><ele>486.0</ele><time>2026-05-03T09:08:22Z</time></trkpt><trkpt lat="42.307766714730114" lon="13.747892776529829"><ele>486.0</ele><time>2026-05-03T09:08:23Z</time></trkpt><trkpt lat="42.307847439958174" lon="13.747891761352124"><ele>486.0</ele><time>2026-05-03T09:08:24Z</time></trkpt><trkpt lat="42.30793363205242" lon="13.747881049146892"><ele>486.0</ele><time>2026-05-03T09:08:25Z</time></trkpt><trkpt lat="42.30801495396603" lon="13.747873026936173"><ele>486.0</ele><time>2026-05-03T09:08:26Z</time></trkpt><trkpt lat="42.30810904127256" lon="13.747862966853587"><ele>486.0</ele><time>2026-05-03T09:08:27Z</time></trkpt><trkpt lat="42.30818785795572" lon="13.747859852677935"><ele>486.0</ele><time>2026-05-03T09:08:28Z</time></trkpt><trkpt lat="42.308255954028695" lon="13.74785350198269"><ele>486.1666666666667</ele><time>2026-05-03T09:08:29Z</time></trkpt><trkpt lat="42.308330766778106" lon="13.747826612920113"><ele>486.33333333333337</ele><time>2026-05-03T09:08:30Z</time></trkpt><trkpt lat="42.308410187593104" lon="13.747795467039309"><ele>486.5</ele><time>2026-05-03T09:08:31Z</time></trkpt><trkpt lat="42.308486816302825" lon="13.747781447201218"><ele>486.6666666666667</ele><time>2026-05-03T09:08:32Z</time></trkpt><trkpt lat="42.308556634431945" lon="13.747781401983286"><ele>486.83333333333337</ele><time>2026-05-03T09:08:33Z</time></trkpt><trkpt lat="42.308632665352235" lon="13.74778935921321"><ele>487.0</ele><time>2026-05-03T09:08:34Z</time></trkpt><trkpt lat="42.30871020335643" lon="13.747789052160787"><ele>487.00000000000006</ele><time>2026-05-03T09:08:35Z</time></trkpt><trkpt lat="42.30878556018158" lon="13.747782333213925"><ele>487.0</ele><time>2026-05-03T09:08:36Z</time></trkpt><trkpt lat="42.30885048531508" lon="13.747774183152169"><ele>487.0</ele><time>2026-05-03T09:08:37Z</time></trkpt><trkpt lat="42.30893058940355" lon="13.747715829051401"><ele>487.0</ele><time>2026-05-03T09:08:39Z</time></trkpt><trkpt lat="42.308961360773345" lon="13.747578591102675"><ele>487.00000000000006</ele><time>2026-05-03T09:08:40.999Z</time></trkpt><trkpt lat="42.30897540617158" lon="13.747491523731355"><ele>487.0</ele><time>2026-05-03T09:08:42Z</time></trkpt><trkpt lat="42.308988583489075" lon="13.747391819703054"><ele>488.33333333333337</ele><time>2026-05-03T09:08:43Z</time></trkpt><trkpt lat="42.30901372822083" lon="13.747302990366915"><ele>489.6666666666667</ele><time>2026-05-03T09:08:44Z</time></trkpt><trkpt lat="42.309062126438576" lon="13.747212082039255"><ele>491.0</ele><time>2026-05-03T09:08:45Z</time></trkpt><trkpt lat="42.30912396536608" lon="13.747131422180395"><ele>492.33333333333337</ele><time>2026-05-03T09:08:46Z</time></trkpt><trkpt lat="42.309183162971166" lon="13.74704126782444"><ele>493.6666666666667</ele><time>2026-05-03T09:08:47Z</time></trkpt><trkpt lat="42.309238330533425" lon="13.746943037595567"><ele>495.0</ele><time>2026-05-03T09:08:48Z</time></trkpt><trkpt lat="42.309294506237485" lon="13.746842522290518"><ele>498.6666666666667</ele><time>2026-05-03T09:08:49Z</time></trkpt><trkpt lat="42.30935090061181" lon="13.746754515495264"><ele>502.33333333333337</ele><time>2026-05-03T09:08:50Z</time></trkpt><trkpt lat="42.309408321675484" lon="13.746669076377312"><ele>506.0</ele><time>2026-05-03T09:08:51Z</time></trkpt><trkpt lat="42.30946564312504" lon="13.746591876705969"><ele>509.6666666666667</ele><time>2026-05-03T09:08:52Z</time></trkpt><trkpt lat="42.309522055474595" lon="13.746523300961341"><ele>513.3333333333334</ele><time>2026-05-03T09:08:53Z</time></trkpt><trkpt lat="42.309579940747824" lon="13.746464628800837"><ele>517.0</ele><time>2026-05-03T09:08:54Z</time></trkpt><trkpt lat="42.30965690367756" lon="13.746411263767936"><ele>516.8000000000001</ele><time>2026-05-03T09:08:56Z</time></trkpt><trkpt lat="42.309756772858684" lon="13.746498578626422"><ele>516.6</ele><time>2026-05-03T09:08:59Z</time></trkpt><trkpt lat="42.30987149818719" lon="13.74659521690524"><ele>516.4000000000001</ele><time>2026-05-03T09:09:01Z</time></trkpt><trkpt lat="42.30993212577749" lon="13.74664222798162"><ele>516.2</ele><time>2026-05-03T09:09:02Z</time></trkpt><trkpt lat="42.31004299002726" lon="13.746720159515606"><ele>516.0</ele><time>2026-05-03T09:09:04Z</time></trkpt><trkpt lat="42.31010492666745" lon="13.746762450402729"><ele>516.0</ele><time>2026-05-03T09:09:05Z</time></trkpt><trkpt lat="42.310170316483365" lon="13.746797696230393"><ele>516.0</ele><time>2026-05-03T09:09:06Z</time></trkpt><trkpt lat="42.31024077464924" lon="13.746840570279193"><ele>516.0</ele><time>2026-05-03T09:09:07Z</time></trkpt><trkpt lat="42.310319835583584" lon="13.746882188058407"><ele>516.0</ele><time>2026-05-03T09:09:08Z</time></trkpt><trkpt lat="42.310407302324585" lon="13.746925491713581"><ele>516.0</ele><time>2026-05-03T09:09:09Z</time></trkpt><trkpt lat="42.31049634872653" lon="13.746971929124642"><ele>516.0</ele><time>2026-05-03T09:09:10Z</time></trkpt><trkpt lat="42.31057749847171" lon="13.747017318377848"><ele>512.5</ele><time>2026-05-03T09:09:11Z</time></trkpt><trkpt lat="42.3106525948504" lon="13.747053604687087"><ele>509.0</ele><time>2026-05-03T09:09:12Z</time></trkpt><trkpt lat="42.31073814334709" lon="13.747097724357124"><ele>505.5</ele><time>2026-05-03T09:09:13Z</time></trkpt><trkpt lat="42.31082659883234" lon="13.747147017348093"><ele>502.0</ele><time>2026-05-03T09:09:14Z</time></trkpt><trkpt lat="42.31090792228462" lon="13.7471867548754"><ele>498.5</ele><time>2026-05-03T09:09:15Z</time></trkpt><trkpt lat="42.31097685801243" lon="13.747218666237092"><ele>495.0</ele><time>2026-05-03T09:09:16Z</time></trkpt><trkpt lat="42.311042778210414" lon="13.747251683929502"><ele>495.0</ele><time>2026-05-03T09:09:17Z</time></trkpt><trkpt lat="42.31111225045893" lon="13.747287197349076"><ele>495.0</ele><time>2026-05-03T09:09:18Z</time></trkpt><trkpt lat="42.311185649462" lon="13.747320368779741"><ele>495.0</ele><time>2026-05-03T09:09:19Z</time></trkpt><trkpt lat="42.3112632349522" lon="13.74735777363649"><ele>495.0</ele><time>2026-05-03T09:09:20Z</time></trkpt><trkpt lat="42.31134441410816" lon="13.747397455155497"><ele>495.0</ele><time>2026-05-03T09:09:21Z</time></trkpt><trkpt lat="42.311429189916595" lon="13.747442719617974"><ele>495.0</ele><time>2026-05-03T09:09:22Z</time></trkpt><trkpt lat="42.311508786324524" lon="13.74748132602391"><ele>497.0</ele><time>2026-05-03T09:09:23Z</time></trkpt><trkpt lat="42.31159498924952" lon="13.747525169790904"><ele>499.0</ele><time>2026-05-03T09:09:24Z</time></trkpt><trkpt lat="42.3116819190505" lon="13.74757102751647"><ele>501.0</ele><time>2026-05-03T09:09:25Z</time></trkpt><trkpt lat="42.31177059537693" lon="13.74762145158631"><ele>503.0</ele><time>2026-05-03T09:09:26Z</time></trkpt><trkpt lat="42.311849169360244" lon="13.74766467399977"><ele>505.0</ele><time>2026-05-03T09:09:27Z</time></trkpt><trkpt lat="42.31192911012235" lon="13.747707847490666"><ele>500.1666666666667</ele><time>2026-05-03T09:09:28Z</time></trkpt><trkpt lat="42.3120075598179" lon="13.747746691568258"><ele>495.33333333333337</ele><time>2026-05-03T09:09:29Z</time></trkpt><trkpt lat="42.31207994117856" lon="13.747781549157763"><ele>490.5</ele><time>2026-05-03T09:09:30Z</time></trkpt><trkpt lat="42.312156078779985" lon="13.74781806448233"><ele>485.66666666666663</ele><time>2026-05-03T09:09:31Z</time></trkpt><trkpt lat="42.31223299968324" lon="13.747854401928128"><ele>480.8333333333333</ele><time>2026-05-03T09:09:32Z</time></trkpt><trkpt lat="42.312307042161486" lon="13.747890969959572"><ele>476.0</ele><time>2026-05-03T09:09:33Z</time></trkpt><trkpt lat="42.312386362364556" lon="13.747927885350665"><ele>475.66666666666663</ele><time>2026-05-03T09:09:34Z</time></trkpt><trkpt lat="42.3124618659889" lon="13.747964369451184"><ele>475.3333333333333</ele><time>2026-05-03T09:09:35Z</time></trkpt><trkpt lat="42.31254590419553" lon="13.748004683955282"><ele>475.0</ele><time>2026-05-03T09:09:36Z</time></trkpt><trkpt lat="42.312616434516954" lon="13.748045028340421"><ele>474.66666666666663</ele><time>2026-05-03T09:09:37Z</time></trkpt><trkpt lat="42.312685730671994" lon="13.74807961961895"><ele>474.3333333333333</ele><time>2026-05-03T09:09:38Z</time></trkpt><trkpt lat="42.31275065148678" lon="13.748115247754427"><ele>474.0</ele><time>2026-05-03T09:09:39Z</time></trkpt><trkpt lat="42.31281542088498" lon="13.748152504618059"><ele>474.0</ele><time>2026-05-03T09:09:40Z</time></trkpt><trkpt lat="42.31288682155467" lon="13.748193401978797"><ele>474.0</ele><time>2026-05-03T09:09:41Z</time></trkpt><trkpt lat="42.31296018938688" lon="13.748239870701989"><ele>474.0</ele><time>2026-05-03T09:09:42Z</time></trkpt><trkpt lat="42.31303268751228" lon="13.748285624859033"><ele>474.0</ele><time>2026-05-03T09:09:43Z</time></trkpt><trkpt lat="42.31311371377262" lon="13.748328405051364"><ele>474.0</ele><time>2026-05-03T09:09:44Z</time></trkpt><trkpt lat="42.31319950334475" lon="13.748366570986745"><ele>474.0</ele><time>2026-05-03T09:09:45Z</time></trkpt><trkpt lat="42.313277352280785" lon="13.748404106648284"><ele>473.6666666666667</ele><time>2026-05-03T09:09:46Z</time></trkpt><trkpt lat="42.31336146791427" lon="13.74844372644104"><ele>473.33333333333337</ele><time>2026-05-03T09:09:47Z</time></trkpt><trkpt lat="42.313437824328155" lon="13.74848437958845"><ele>473.0</ele><time>2026-05-03T09:09:48Z</time></trkpt><trkpt lat="42.31351421400924" lon="13.748524943578257"><ele>472.6666666666667</ele><time>2026-05-03T09:09:49Z</time></trkpt><trkpt lat="42.31358020645432" lon="13.748564963794808"><ele>472.33333333333337</ele><time>2026-05-03T09:09:50Z</time></trkpt><trkpt lat="42.31365014256953" lon="13.7485923297884"><ele>472.0</ele><time>2026-05-03T09:09:51Z</time></trkpt><trkpt lat="42.31376822256035" lon="13.748613528383936"><ele>468.1666666666667</ele><time>2026-05-03T09:09:53Z</time></trkpt><trkpt lat="42.31383759428909" lon="13.748605030451717"><ele>464.33333333333337</ele><time>2026-05-03T09:09:54Z</time></trkpt><trkpt lat="42.31392499365732" lon="13.748592435811842"><ele>460.5</ele><time>2026-05-03T09:09:55Z</time></trkpt><trkpt lat="42.314016958773166" lon="13.748589029905592"><ele>456.66666666666663</ele><time>2026-05-03T09:09:56Z</time></trkpt><trkpt lat="42.314116605487605" lon="13.748586238391363"><ele>452.8333333333333</ele><time>2026-05-03T09:09:57Z</time></trkpt><trkpt lat="42.31421606852824" lon="13.748586481440006"><ele>449.0</ele><time>2026-05-03T09:09:58Z</time></trkpt><trkpt lat="42.3143198341105" lon="13.748592755853315"><ele>448.99999999999994</ele><time>2026-05-03T09:09:59Z</time></trkpt><trkpt lat="42.31442135544766" lon="13.748603801174298"><ele>449.0</ele><time>2026-05-03T09:10:00Z</time></trkpt><trkpt lat="42.314516618569684" lon="13.748605290232163"><ele>449.0</ele><time>2026-05-03T09:10:01Z</time></trkpt><trkpt lat="42.31460447658822" lon="13.748599404144848"><ele>449.0</ele><time>2026-05-03T09:10:02Z</time></trkpt><trkpt lat="42.31467510820207" lon="13.748600825681264"><ele>448.99999999999994</ele><time>2026-05-03T09:10:03Z</time></trkpt><trkpt lat="42.31474856426196" lon="13.74860563524036"><ele>449.0</ele><time>2026-05-03T09:10:04Z</time></trkpt><trkpt lat="42.314833398831546" lon="13.748612612211462"><ele>448.79999999999995</ele><time>2026-05-03T09:10:05Z</time></trkpt><trkpt lat="42.31492569678469" lon="13.748619837112484"><ele>448.59999999999997</ele><time>2026-05-03T09:10:06Z</time></trkpt><trkpt lat="42.315027528832886" lon="13.7486199155828"><ele>448.4</ele><time>2026-05-03T09:10:07Z</time></trkpt><trkpt lat="42.31512857687754" lon="13.748620897688097"><ele>448.2</ele><time>2026-05-03T09:10:08Z</time></trkpt><trkpt lat="42.31521860390613" lon="13.748628948933911"><ele>448.0</ele><time>2026-05-03T09:10:09Z</time></trkpt><trkpt lat="42.31530383611716" lon="13.74863162518878"><ele>448.00000000000006</ele><time>2026-05-03T09:10:10Z</time></trkpt><trkpt lat="42.315375906935735" lon="13.748625582191343"><ele>448.0</ele><time>2026-05-03T09:10:11Z</time></trkpt><trkpt lat="42.31546591020059" lon="13.74862352966615"><ele>448.0</ele><time>2026-05-03T09:10:12Z</time></trkpt><trkpt lat="42.315558458721874" lon="13.74861655962675"><ele>448.0</ele><time>2026-05-03T09:10:13Z</time></trkpt><trkpt lat="42.315652231824544" lon="13.74860876924264"><ele>448.00000000000006</ele><time>2026-05-03T09:10:14Z</time></trkpt><trkpt lat="42.31574391180916" lon="13.748596082756233"><ele>448.0</ele><time>2026-05-03T09:10:15Z</time></trkpt><trkpt lat="42.315831530009895" lon="13.748596081564884"><ele>448.59999999999997</ele><time>2026-05-03T09:10:16Z</time></trkpt><trkpt lat="42.31592916252435" lon="13.748612082422849"><ele>449.19999999999993</ele><time>2026-05-03T09:10:17Z</time></trkpt><trkpt lat="42.31603077950376" lon="13.74863349541382"><ele>449.8</ele><time>2026-05-03T09:10:18Z</time></trkpt><trkpt lat="42.3161300404096" lon="13.748644774697247"><ele>450.4</ele><time>2026-05-03T09:10:19Z</time></trkpt><trkpt lat="42.31622475177875" lon="13.748649265042467"><ele>451.0</ele><time>2026-05-03T09:10:20Z</time></trkpt><trkpt lat="42.31630934342838" lon="13.748654928482992"><ele>451.0</ele><time>2026-05-03T09:10:21Z</time></trkpt><trkpt lat="42.316376104861114" lon="13.74867006748512"><ele>451.0</ele><time>2026-05-03T09:10:22Z</time></trkpt><trkpt lat="42.31643276957608" lon="13.748707577619077"><ele>451.0</ele><time>2026-05-03T09:10:23Z</time></trkpt><trkpt lat="42.31648937102265" lon="13.748757417204223"><ele>451.0</ele><time>2026-05-03T09:10:24Z</time></trkpt><trkpt lat="42.316548101135325" lon="13.748815321425191"><ele>451.0</ele><time>2026-05-03T09:10:25Z</time></trkpt><trkpt lat="42.316612222757556" lon="13.74888000655421"><ele>451.0</ele><time>2026-05-03T09:10:26Z</time></trkpt><trkpt lat="42.316672749346445" lon="13.748950764136344"><ele>451.0</ele><time>2026-05-03T09:10:27Z</time></trkpt><trkpt lat="42.31673326620874" lon="13.749031518962333"><ele>450.20000000000005</ele><time>2026-05-03T09:10:28Z</time></trkpt><trkpt lat="42.316801839012925" lon="13.74912914909207"><ele>449.40000000000003</ele><time>2026-05-03T09:10:29Z</time></trkpt><trkpt lat="42.31686353300936" lon="13.749211767751675"><ele>448.6</ele><time>2026-05-03T09:10:30Z</time></trkpt><trkpt lat="42.31692940583783" lon="13.749285674059594"><ele>447.8</ele><time>2026-05-03T09:10:31Z</time></trkpt><trkpt lat="42.316988487205705" lon="13.749340703316298"><ele>447.0</ele><time>2026-05-03T09:10:32Z</time></trkpt><trkpt lat="42.31710024283904" lon="13.749422880029327"><ele>447.0</ele><time>2026-05-03T09:10:34Z</time></trkpt><trkpt lat="42.31716965140303" lon="13.749485949819595"><ele>447.00000000000006</ele><time>2026-05-03T09:10:35Z</time></trkpt><trkpt lat="42.31725376046504" lon="13.749542281490264"><ele>447.00000000000006</ele><time>2026-05-03T09:10:36Z</time></trkpt><trkpt lat="42.317341926141886" lon="13.749609662154585"><ele>447.0</ele><time>2026-05-03T09:10:37Z</time></trkpt><trkpt lat="42.31742052809125" lon="13.749677592017756"><ele>447.0</ele><time>2026-05-03T09:10:38Z</time></trkpt><trkpt lat="42.31749023667088" lon="13.749733030158657"><ele>448.20000000000005</ele><time>2026-05-03T09:10:39Z</time></trkpt><trkpt lat="42.31759250394799" lon="13.749793463534743"><ele>449.40000000000003</ele><time>2026-05-03T09:10:41Z</time></trkpt><trkpt lat="42.317664898151" lon="13.749795302484705"><ele>450.59999999999997</ele><time>2026-05-03T09:10:43Z</time></trkpt><trkpt lat="42.31773205840357" lon="13.749893518413826"><ele>451.79999999999995</ele><time>2026-05-03T09:10:46Z</time></trkpt><trkpt lat="42.317835031568926" lon="13.749973422389367"><ele>453.0</ele><time>2026-05-03T09:10:48Z</time></trkpt><trkpt lat="42.31790523213803" lon="13.75001652669031"><ele>453.0</ele><time>2026-05-03T09:10:49Z</time></trkpt><trkpt lat="42.3179700772447" lon="13.750057457705397"><ele>453.0</ele><time>2026-05-03T09:10:50Z</time></trkpt><trkpt lat="42.318039563811766" lon="13.75010939551816"><ele>453.0</ele><time>2026-05-03T09:10:51Z</time></trkpt><trkpt lat="42.31810267095702" lon="13.750149044691302"><ele>453.0</ele><time>2026-05-03T09:10:52Z</time></trkpt><trkpt lat="42.3181797326587" lon="13.750196260827705"><ele>453.0</ele><time>2026-05-03T09:10:54Z</time></trkpt><trkpt lat="42.3181679090137" lon="13.750314679878995"><ele>453.0</ele><time>2026-05-03T09:10:57Z</time></trkpt><trkpt lat="42.31807194542801" lon="13.750458195033431"><ele>451.0</ele><time>2026-05-03T09:10:59Z</time></trkpt><trkpt lat="42.31800471165944" lon="13.750554532653904"><ele>448.99999999999994</ele><time>2026-05-03T09:11:00Z</time></trkpt><trkpt lat="42.317945184224605" lon="13.750666443872673"><ele>446.99999999999994</ele><time>2026-05-03T09:11:01Z</time></trkpt><trkpt lat="42.317902782569604" lon="13.750778158329641"><ele>445.0</ele><time>2026-05-03T09:11:02Z</time></trkpt><trkpt lat="42.31785825377573" lon="13.750883132419323"><ele>443.0</ele><time>2026-05-03T09:11:03Z</time></trkpt><trkpt lat="42.31781439964324" lon="13.750969837397934"><ele>441.99999999999994</ele><time>2026-05-03T09:11:04Z</time></trkpt><trkpt lat="42.31777117456017" lon="13.751058361541808"><ele>441.0</ele><time>2026-05-03T09:11:05Z</time></trkpt><trkpt lat="42.317732278244904" lon="13.751148026409322"><ele>440.0</ele><time>2026-05-03T09:11:06Z</time></trkpt><trkpt lat="42.31770027132304" lon="13.751240260512848"><ele>439.0</ele><time>2026-05-03T09:11:07Z</time></trkpt><trkpt lat="42.31767494928269" lon="13.751329781205664"><ele>437.99999999999994</ele><time>2026-05-03T09:11:08Z</time></trkpt><trkpt lat="42.31764278275398" lon="13.751451643918964"><ele>437.0</ele><time>2026-05-03T09:11:10Z</time></trkpt><trkpt lat="42.3176655567818" lon="13.751579711026793"><ele>437.0</ele><time>2026-05-03T09:11:18Z</time></trkpt><trkpt lat="42.31774717327904" lon="13.751598834604408"><ele>437.00000000000006</ele><time>2026-05-03T09:11:19Z</time></trkpt><trkpt lat="42.31785446350904" lon="13.751555719413425"><ele>437.00000000000006</ele><time>2026-05-03T09:11:20Z</time></trkpt><trkpt lat="42.3179620294737" lon="13.751537323755075"><ele>437.0</ele><time>2026-05-03T09:11:21Z</time></trkpt><trkpt lat="42.31807701121019" lon="13.751494003284188"><ele>437.0</ele><time>2026-05-03T09:11:22Z</time></trkpt><trkpt lat="42.31818041408234" lon="13.751437327495704"><ele>437.75</ele><time>2026-05-03T09:11:23Z</time></trkpt><trkpt lat="42.318296441879944" lon="13.751369866765293"><ele>438.5</ele><time>2026-05-03T09:11:24Z</time></trkpt><trkpt lat="42.31842422003608" lon="13.751322770238806"><ele>439.25</ele><time>2026-05-03T09:11:25Z</time></trkpt><trkpt lat="42.31856363030877" lon="13.75129231647154"><ele>440.0</ele><time>2026-05-03T09:11:26Z</time></trkpt><trkpt lat="42.31871173082445" lon="13.75126467424455"><ele>440.0</ele><time>2026-05-03T09:11:27Z</time></trkpt><trkpt lat="42.318858382408905" lon="13.751233669562328"><ele>440.0</ele><time>2026-05-03T09:11:28Z</time></trkpt><trkpt lat="42.318977861897466" lon="13.751214743268369"><ele>440.0</ele><time>2026-05-03T09:11:29Z</time></trkpt><trkpt lat="42.3190694370673" lon="13.75122411531844"><ele>440.0</ele><time>2026-05-03T09:11:30Z</time></trkpt><trkpt lat="42.31914670045815" lon="13.751245675104846"><ele>440.0</ele><time>2026-05-03T09:11:31Z</time></trkpt><trkpt lat="42.3192091220136" lon="13.751262254083564"><ele>441.2</ele><time>2026-05-03T09:11:32Z</time></trkpt><trkpt lat="42.31930321741202" lon="13.751311117939366"><ele>442.4</ele><time>2026-05-03T09:11:34Z</time></trkpt><trkpt lat="42.31938209586472" lon="13.75138122912368"><ele>443.6</ele><time>2026-05-03T09:11:36Z</time></trkpt><trkpt lat="42.31947647957799" lon="13.751466082374456"><ele>444.8</ele><time>2026-05-03T09:11:38Z</time></trkpt><trkpt lat="42.31955826628445" lon="13.751553651350502"><ele>446.0</ele><time>2026-05-03T09:11:40Z</time></trkpt><trkpt lat="42.31953648643673" lon="13.751436821850403"><ele>446.0</ele><time>2026-05-03T09:11:46Z</time></trkpt><trkpt lat="42.319448425392906" lon="13.751386962421421"><ele>446.0</ele><time>2026-05-03T09:11:47Z</time></trkpt><trkpt lat="42.319357418001864" lon="13.751306192400502"><ele>446.0</ele><time>2026-05-03T09:11:48Z</time></trkpt><trkpt lat="42.31925439396514" lon="13.751241152238496"><ele>446.0</ele><time>2026-05-03T09:11:49Z</time></trkpt><trkpt lat="42.319146349186056" lon="13.751200521989484"><ele>446.0</ele><time>2026-05-03T09:11:50Z</time></trkpt><trkpt lat="42.319038920168204" lon="13.751186470628664"><ele>446.0</ele><time>2026-05-03T09:11:51Z</time></trkpt><trkpt lat="42.318936310850724" lon="13.751190379957226"><ele>446.0</ele><time>2026-05-03T09:11:52Z</time></trkpt><trkpt lat="42.3188404220796" lon="13.751205811950053"><ele>446.0</ele><time>2026-05-03T09:11:53Z</time></trkpt><trkpt lat="42.31876156713386" lon="13.751219487542574"><ele>446.0</ele><time>2026-05-03T09:11:54Z</time></trkpt><trkpt lat="42.318654526484785" lon="13.75124373306977"><ele>446.0</ele><time>2026-05-03T09:11:56Z</time></trkpt><trkpt lat="42.31870938591463" lon="13.751344489784415"><ele>445.99999999999994</ele><time>2026-05-03T09:12:00Z</time></trkpt><trkpt lat="42.318784593275204" lon="13.751344290967207"><ele>446.0</ele><time>2026-05-03T09:12:01Z</time></trkpt><trkpt lat="42.318871517965164" lon="13.751338532746178"><ele>446.0</ele><time>2026-05-03T09:12:02Z</time></trkpt><trkpt lat="42.31896873242726" lon="13.7513582545303"><ele>446.0</ele><time>2026-05-03T09:12:03Z</time></trkpt><trkpt lat="42.3190531967877" lon="13.751367072835361"><ele>445.99999999999994</ele><time>2026-05-03T09:12:04Z</time></trkpt><trkpt lat="42.3191550134416" lon="13.751394180302094"><ele>446.0</ele><time>2026-05-03T09:12:06Z</time></trkpt><trkpt lat="42.31916992769064" lon="13.751527479131939"><ele>446.0</ele><time>2026-05-03T09:12:09Z</time></trkpt><trkpt lat="42.31922233716607" lon="13.751665177302602"><ele>446.0</ele><time>2026-05-03T09:12:11Z</time></trkpt><trkpt lat="42.31926656172102" lon="13.751803673953269"><ele>446.0</ele><time>2026-05-03T09:12:13Z</time></trkpt><trkpt lat="42.31930671037869" lon="13.751883460090225"><ele>446.0</ele><time>2026-05-03T09:12:14Z</time></trkpt><trkpt lat="42.31934533544445" lon="13.751975241198803"><ele>446.0</ele><time>2026-05-03T09:12:15Z</time></trkpt><trkpt lat="42.31938935070285" lon="13.752061455941119"><ele>444.1428571428571</ele><time>2026-05-03T09:12:16Z</time></trkpt><trkpt lat="42.31943489361054" lon="13.752154558931386"><ele>442.2857142857143</ele><time>2026-05-03T09:12:17Z</time></trkpt><trkpt lat="42.31948220134978" lon="13.752247345714123"><ele>440.42857142857144</ele><time>2026-05-03T09:12:18Z</time></trkpt><trkpt lat="42.319517424574734" lon="13.752331234149587"><ele>438.57142857142856</ele><time>2026-05-03T09:12:19Z</time></trkpt><trkpt lat="42.31954552144602" lon="13.752419538118492"><ele>436.7142857142857</ele><time>2026-05-03T09:12:20Z</time></trkpt><trkpt lat="42.319569476800936" lon="13.7525112752404"><ele>434.85714285714283</ele><time>2026-05-03T09:12:21Z</time></trkpt><trkpt lat="42.3195955777683" lon="13.752597204988255"><ele>433.0</ele><time>2026-05-03T09:12:22Z</time></trkpt><trkpt lat="42.31962979642255" lon="13.75268015619336"><ele>433.79999999999995</ele><time>2026-05-03T09:12:23Z</time></trkpt><trkpt lat="42.31964227411441" lon="13.752779977526465"><ele>434.59999999999997</ele><time>2026-05-03T09:12:24Z</time></trkpt><trkpt lat="42.31968474342553" lon="13.752877956733238"><ele>435.40000000000003</ele><time>2026-05-03T09:12:25Z</time></trkpt><trkpt lat="42.319704483366614" lon="13.753013788751728"><ele>436.20000000000005</ele><time>2026-05-03T09:12:26Z</time></trkpt><trkpt lat="42.3197562039563" lon="13.75313753598823"><ele>437.0</ele><time>2026-05-03T09:12:27Z</time></trkpt><trkpt lat="42.31977688887878" lon="13.753271517296277"><ele>437.0</ele><time>2026-05-03T09:12:28Z</time></trkpt><trkpt lat="42.31981082996847" lon="13.753394647901198"><ele>437.00000000000006</ele><time>2026-05-03T09:12:29Z</time></trkpt><trkpt lat="42.31984304517168" lon="13.753519133812176"><ele>437.00000000000006</ele><time>2026-05-03T09:12:30Z</time></trkpt><trkpt lat="42.31987675134835" lon="13.753648604000908"><ele>437.0</ele><time>2026-05-03T09:12:31Z</time></trkpt><trkpt lat="42.31991000235559" lon="13.753774353546408"><ele>437.0</ele><time>2026-05-03T09:12:32Z</time></trkpt><trkpt lat="42.319958547988314" lon="13.75388757176426"><ele>435.99999999999994</ele><time>2026-05-03T09:12:33Z</time></trkpt><trkpt lat="42.31998970977173" lon="13.754003505734124"><ele>435.0</ele><time>2026-05-03T09:12:34Z</time></trkpt><trkpt lat="42.3200202015865" lon="13.754113325193869"><ele>434.0</ele><time>2026-05-03T09:12:35Z</time></trkpt><trkpt lat="42.32004748138432" lon="13.754202753641298"><ele>433.0</ele><time>2026-05-03T09:12:36Z</time></trkpt><trkpt lat="42.320081161545446" lon="13.754283582669677"><ele>431.99999999999994</ele><time>2026-05-03T09:12:37Z</time></trkpt><trkpt lat="42.32012872350015" lon="13.754365736501656"><ele>431.0</ele><time>2026-05-03T09:12:38Z</time></trkpt><trkpt lat="42.320170967668105" lon="13.754461668289983"><ele>430.66666666666663</ele><time>2026-05-03T09:12:39Z</time></trkpt><trkpt lat="42.32021602443101" lon="13.75455622119001"><ele>430.3333333333333</ele><time>2026-05-03T09:12:40Z</time></trkpt><trkpt lat="42.320256797627835" lon="13.754653908107159"><ele>430.0</ele><time>2026-05-03T09:12:41Z</time></trkpt><trkpt lat="42.320298566042965" lon="13.754753332931136"><ele>429.66666666666663</ele><time>2026-05-03T09:12:42Z</time></trkpt><trkpt lat="42.32032515511053" lon="13.754871983509823"><ele>429.3333333333333</ele><time>2026-05-03T09:12:43Z</time></trkpt><trkpt lat="42.320375029369806" lon="13.754967336751873"><ele>429.0</ele><time>2026-05-03T09:12:44Z</time></trkpt><trkpt lat="42.32040570604964" lon="13.755069033800227"><ele>429.0</ele><time>2026-05-03T09:12:45Z</time></trkpt><trkpt lat="42.320424450996434" lon="13.755175929009857"><ele>429.0</ele><time>2026-05-03T09:12:46Z</time></trkpt><trkpt lat="42.32045129174813" lon="13.755269351483513"><ele>429.0</ele><time>2026-05-03T09:12:47Z</time></trkpt><trkpt lat="42.32048860541511" lon="13.755338855332775"><ele>429.0</ele><time>2026-05-03T09:12:48Z</time></trkpt><trkpt lat="42.320519039426316" lon="13.755505155473578"><ele>429.0</ele><time>2026-05-03T09:12:50Z</time></trkpt><trkpt lat="42.320671956927555" lon="13.755534195831618"><ele>430.6</ele><time>2026-05-03T09:12:51Z</time></trkpt><trkpt lat="42.320759575000245" lon="13.755620168407512"><ele>432.2</ele><time>2026-05-03T09:12:52Z</time></trkpt><trkpt lat="42.32084877426088" lon="13.75571516916948"><ele>433.80000000000007</ele><time>2026-05-03T09:12:53Z</time></trkpt><trkpt lat="42.32092388992019" lon="13.755787204777254"><ele>435.40000000000003</ele><time>2026-05-03T09:12:54Z</time></trkpt><trkpt lat="42.32099968469691" lon="13.755837316655079"><ele>437.0</ele><time>2026-05-03T09:12:55Z</time></trkpt><trkpt lat="42.32106870362816" lon="13.755892829326593"><ele>437.0</ele><time>2026-05-03T09:12:56Z</time></trkpt><trkpt lat="42.32113280636405" lon="13.755975900649428"><ele>437.00000000000006</ele><time>2026-05-03T09:12:57Z</time></trkpt><trkpt lat="42.32119392550062" lon="13.756084485776203"><ele>437.00000000000006</ele><time>2026-05-03T09:12:58Z</time></trkpt><trkpt lat="42.32125090629681" lon="13.75619941631045"><ele>437.0</ele><time>2026-05-03T09:12:59Z</time></trkpt><trkpt lat="42.321317775571835" lon="13.756302510874495"><ele>437.0</ele><time>2026-05-03T09:13:00Z</time></trkpt><trkpt lat="42.321392422059326" lon="13.756384471170835"><ele>439.0</ele><time>2026-05-03T09:13:01Z</time></trkpt><trkpt lat="42.32147125618668" lon="13.756455763078502"><ele>441.00000000000006</ele><time>2026-05-03T09:13:02Z</time></trkpt><trkpt lat="42.32155969306727" lon="13.756532337754681"><ele>443.00000000000006</ele><time>2026-05-03T09:13:03Z</time></trkpt><trkpt lat="42.321659066031636" lon="13.75662603758584"><ele>445.0</ele><time>2026-05-03T09:13:04Z</time></trkpt><trkpt lat="42.3217590843939" lon="13.756731432579185"><ele>447.0</ele><time>2026-05-03T09:13:05Z</time></trkpt><trkpt lat="42.321846483376795" lon="13.756821682641142"><ele>447.6666666666667</ele><time>2026-05-03T09:13:06Z</time></trkpt><trkpt lat="42.32191450521929" lon="13.756879064339557"><ele>448.33333333333337</ele><time>2026-05-03T09:13:07Z</time></trkpt><trkpt lat="42.321976563828805" lon="13.756915842759586"><ele>449.0</ele><time>2026-05-03T09:13:08Z</time></trkpt><trkpt lat="42.322070215955065" lon="13.75693647213668"><ele>449.6666666666667</ele><time>2026-05-03T09:13:10Z</time></trkpt><trkpt lat="42.322185652944256" lon="13.756996342539548"><ele>450.33333333333337</ele><time>2026-05-03T09:13:12Z</time></trkpt><trkpt lat="42.322239118201" lon="13.75706024351035"><ele>451.0</ele><time>2026-05-03T09:13:13Z</time></trkpt><trkpt lat="42.32228815494879" lon="13.75713235853675"><ele>452.1666666666667</ele><time>2026-05-03T09:13:14Z</time></trkpt><trkpt lat="42.32234169974366" lon="13.757207337671645"><ele>453.33333333333337</ele><time>2026-05-03T09:13:15Z</time></trkpt><trkpt lat="42.32238472059999" lon="13.757292422762422"><ele>454.5</ele><time>2026-05-03T09:13:16Z</time></trkpt><trkpt lat="42.32243009578044" lon="13.757365377471867"><ele>455.66666666666663</ele><time>2026-05-03T09:13:17Z</time></trkpt><trkpt lat="42.322479506833936" lon="13.757446348194085"><ele>456.8333333333333</ele><time>2026-05-03T09:13:18Z</time></trkpt><trkpt lat="42.322539210404635" lon="13.757534855179133"><ele>458.0</ele><time>2026-05-03T09:13:19Z</time></trkpt><trkpt lat="42.322551204831576" lon="13.75766604701882"><ele>458.49999999999994</ele><time>2026-05-03T09:13:20Z</time></trkpt><trkpt lat="42.32258529654872" lon="13.757792367645893"><ele>459.0</ele><time>2026-05-03T09:13:21Z</time></trkpt><trkpt lat="42.32262637196581" lon="13.75790709340267"><ele>459.5</ele><time>2026-05-03T09:13:22Z</time></trkpt><trkpt lat="42.322673238254815" lon="13.758001927237586"><ele>460.0</ele><time>2026-05-03T09:13:23Z</time></trkpt><trkpt lat="42.32270133108404" lon="13.758085513744087"><ele>460.49999999999994</ele><time>2026-05-03T09:13:24Z</time></trkpt><trkpt lat="42.32271697143522" lon="13.75821057593942"><ele>461.0</ele><time>2026-05-03T09:13:26Z</time></trkpt><trkpt lat="42.3228932778169" lon="13.758218210368222"><ele>460.99999999999994</ele><time>2026-05-03T09:13:28Z</time></trkpt><trkpt lat="42.32296482440723" lon="13.758218930657327"><ele>461.0</ele><time>2026-05-03T09:13:29Z</time></trkpt><trkpt lat="42.32304793232015" lon="13.758238418049913"><ele>461.0</ele><time>2026-05-03T09:13:30Z</time></trkpt><trkpt lat="42.32313746618288" lon="13.758276659905862"><ele>461.0</ele><time>2026-05-03T09:13:31Z</time></trkpt><trkpt lat="42.32322662227905" lon="13.758321268055761"><ele>460.99999999999994</ele><time>2026-05-03T09:13:32Z</time></trkpt><trkpt lat="42.3233050422669" lon="13.758354370495859"><ele>461.0</ele><time>2026-05-03T09:13:33Z</time></trkpt><trkpt lat="42.32338519958241" lon="13.758392815332904"><ele>462.66666666666663</ele><time>2026-05-03T09:13:34Z</time></trkpt><trkpt lat="42.323463746211395" lon="13.758438827060704"><ele>464.3333333333333</ele><time>2026-05-03T09:13:35Z</time></trkpt><trkpt lat="42.323534845356356" lon="13.758480060102407"><ele>466.0</ele><time>2026-05-03T09:13:36Z</time></trkpt><trkpt lat="42.32361204482824" lon="13.758523387568063"><ele>467.66666666666663</ele><time>2026-05-03T09:13:37Z</time></trkpt><trkpt lat="42.32368229559439" lon="13.7585739462807"><ele>469.3333333333333</ele><time>2026-05-03T09:13:38Z</time></trkpt><trkpt lat="42.32375256965059" lon="13.758638029574394"><ele>471.0</ele><time>2026-05-03T09:13:39Z</time></trkpt><trkpt lat="42.32381359067597" lon="13.758713461016004"><ele>471.6</ele><time>2026-05-03T09:13:40Z</time></trkpt><trkpt lat="42.32385637711121" lon="13.758822079605215"><ele>472.20000000000005</ele><time>2026-05-03T09:13:41Z</time></trkpt><trkpt lat="42.32389813093498" lon="13.758929999754962"><ele>472.79999999999995</ele><time>2026-05-03T09:13:42Z</time></trkpt><trkpt lat="42.32392364468575" lon="13.759058486974798"><ele>473.4</ele><time>2026-05-03T09:13:43Z</time></trkpt><trkpt lat="42.3239299599438" lon="13.759207863539698"><ele>474.0</ele><time>2026-05-03T09:13:44Z</time></trkpt><trkpt lat="42.32396274361152" lon="13.75934355588707"><ele>476.1666666666667</ele><time>2026-05-03T09:13:45Z</time></trkpt><trkpt lat="42.32397147162137" lon="13.759462530896093"><ele>478.33333333333337</ele><time>2026-05-03T09:13:46Z</time></trkpt><trkpt lat="42.324016651583094" lon="13.75958180627129"><ele>480.5</ele><time>2026-05-03T09:13:47Z</time></trkpt><trkpt lat="42.324068493463244" lon="13.75969550655022"><ele>482.6666666666667</ele><time>2026-05-03T09:13:48Z</time></trkpt><trkpt lat="42.3241073596331" lon="13.75979522528487"><ele>484.83333333333337</ele><time>2026-05-03T09:13:49Z</time></trkpt><trkpt lat="42.32413850727925" lon="13.759891335992315"><ele>487.0</ele><time>2026-05-03T09:13:51Z</time></trkpt><trkpt lat="42.324157106171356" lon="13.75998459135481"><ele>487.0</ele><time>2026-05-03T09:13:54Z</time></trkpt><trkpt lat="42.32424576010507" lon="13.76007897294187"><ele>487.00000000000006</ele><time>2026-05-03T09:13:56Z</time></trkpt><trkpt lat="42.32436278548664" lon="13.760145543416014"><ele>487.00000000000006</ele><time>2026-05-03T09:13:57Z</time></trkpt><trkpt lat="42.32447186147537" lon="13.760205013514925"><ele>487.0</ele><time>2026-05-03T09:13:58Z</time></trkpt><trkpt lat="42.32454177669245" lon="13.760252259113138"><ele>487.0</ele><time>2026-05-03T09:13:59Z</time></trkpt><trkpt lat="42.32460940567244" lon="13.760261531150125"><ele>487.0</ele><time>2026-05-03T09:14:02Z</time></trkpt><trkpt lat="42.324534073501404" lon="13.760236411837548"><ele>487.00000000000006</ele><time>2026-05-03T09:14:05Z</time></trkpt><trkpt lat="42.324470391077156" lon="13.760200069798639"><ele>487.00000000000006</ele><time>2026-05-03T09:14:06Z</time></trkpt><trkpt lat="42.32435172798007" lon="13.760102120129954"><ele>487.0</ele><time>2026-05-03T09:14:07Z</time></trkpt><trkpt lat="42.32428673424478" lon="13.76005610291322"><ele>487.0</ele><time>2026-05-03T09:14:08Z</time></trkpt><trkpt lat="42.32419443714508" lon="13.75995479123705"><ele>487.0</ele><time>2026-05-03T09:14:10Z</time></trkpt><trkpt lat="42.32412691271626" lon="13.759802156939758"><ele>487.00000000000006</ele><time>2026-05-03T09:14:12Z</time></trkpt><trkpt lat="42.324075552689955" lon="13.75966523019632"><ele>487.00000000000006</ele><time>2026-05-03T09:14:14Z</time></trkpt><trkpt lat="42.324063815971584" lon="13.759567493435267"><ele>487.0</ele><time>2026-05-03T09:14:16Z</time></trkpt><trkpt lat="42.32415407907863" lon="13.759489573709924"><ele>487.0</ele><time>2026-05-03T09:14:19Z</time></trkpt><trkpt lat="42.3242311274615" lon="13.75951124051865"><ele>487.00000000000006</ele><time>2026-05-03T09:14:20Z</time></trkpt><trkpt lat="42.324314127397244" lon="13.75953279441937"><ele>487.0</ele><time>2026-05-03T09:14:21Z</time></trkpt><trkpt lat="42.32440821251312" lon="13.759544641471825"><ele>487.0</ele><time>2026-05-03T09:14:22Z</time></trkpt><trkpt lat="42.32449689469523" lon="13.759551199998914"><ele>487.0</ele><time>2026-05-03T09:14:23Z</time></trkpt><trkpt lat="42.32456967511406" lon="13.759556694316283"><ele>487.00000000000006</ele><time>2026-05-03T09:14:24Z</time></trkpt><trkpt lat="42.3246328518953" lon="13.75954741980443"><ele>487.0</ele><time>2026-05-03T09:14:25Z</time></trkpt><trkpt lat="42.32475104863703" lon="13.759446181409755"><ele>487.6666666666667</ele><time>2026-05-03T09:14:27Z</time></trkpt><trkpt lat="42.32481132823615" lon="13.759357157488221"><ele>488.33333333333337</ele><time>2026-05-03T09:14:28Z</time></trkpt><trkpt lat="42.32484986870497" lon="13.759245101904808"><ele>489.0</ele><time>2026-05-03T09:14:29Z</time></trkpt><trkpt lat="42.32488554390827" lon="13.759149159178836"><ele>489.66666666666663</ele><time>2026-05-03T09:14:30Z</time></trkpt><trkpt lat="42.32491499105781" lon="13.759070784353208"><ele>490.3333333333333</ele><time>2026-05-03T09:14:31Z</time></trkpt><trkpt lat="42.324944920920544" lon="13.75891576148757"><ele>491.0</ele><time>2026-05-03T09:14:33Z</time></trkpt><trkpt lat="42.32495842176335" lon="13.758818568552527"><ele>490.99999999999994</ele><time>2026-05-03T09:14:35Z</time></trkpt><trkpt lat="42.32499329370381" lon="13.758905585956235"><ele>491.0</ele><time>2026-05-03T09:14:38Z</time></trkpt><trkpt lat="42.32498205297321" lon="13.758991540683846"><ele>491.0</ele><time>2026-05-03T09:14:39Z</time></trkpt><trkpt lat="42.3249835153126" lon="13.75910102905671"><ele>491.0</ele><time>2026-05-03T09:14:40Z</time></trkpt><trkpt lat="42.324964717159496" lon="13.759200491966796"><ele>490.99999999999994</ele><time>2026-05-03T09:14:41Z</time></trkpt><trkpt lat="42.32493928582955" lon="13.759302337328144"><ele>491.0</ele><time>2026-05-03T09:14:42Z</time></trkpt><trkpt lat="42.32494290935163" lon="13.759408583330927"><ele>491.66666666666663</ele><time>2026-05-03T09:14:43Z</time></trkpt><trkpt lat="42.324961528673576" lon="13.759502737001583"><ele>492.3333333333333</ele><time>2026-05-03T09:14:44Z</time></trkpt><trkpt lat="42.32500469591813" lon="13.759604396342676"><ele>493.0</ele><time>2026-05-03T09:14:46Z</time></trkpt><trkpt lat="42.32493609387488" lon="13.759634070433577"><ele>493.66666666666663</ele><time>2026-05-03T09:14:48Z</time></trkpt><trkpt lat="42.32498249286927" lon="13.759731067040253"><ele>494.3333333333333</ele><time>2026-05-03T09:14:51Z</time></trkpt><trkpt lat="42.3250137137004" lon="13.759846221461215"><ele>495.0</ele><time>2026-05-03T09:14:53Z</time></trkpt><trkpt lat="42.325103659597964" lon="13.75977693190442"><ele>495.0</ele><time>2026-05-03T09:14:55Z</time></trkpt><trkpt lat="42.32509006695842" lon="13.759649837588398"><ele>495.0</ele><time>2026-05-03T09:21:41Z</time></trkpt><trkpt lat="42.32513599768757" lon="13.759581683794686"><ele>495.0</ele><time>2026-05-03T09:24:50Z</time></trkpt><trkpt lat="42.32521729441769" lon="13.7595943424991"><ele>495.0</ele><time>2026-05-03T09:24:52Z</time></trkpt><trkpt lat="42.325254324805556" lon="13.759709821854347"><ele>495.0</ele><time>2026-05-03T09:24:54Z</time></trkpt><trkpt lat="42.325315750490844" lon="13.759842847237007"><ele>495.0</ele><time>2026-05-03T09:24:56Z</time></trkpt><trkpt lat="42.3253591121702" lon="13.75993040465104"><ele>495.0</ele><time>2026-05-03T09:24:57Z</time></trkpt><trkpt lat="42.325404857554936" lon="13.760024472312468"><ele>495.0</ele><time>2026-05-03T09:24:58Z</time></trkpt><trkpt lat="42.32544981414547" lon="13.760120677482327"><ele>495.0</ele><time>2026-05-03T09:24:59Z</time></trkpt><trkpt lat="42.32549217560239" lon="13.760212382160258"><ele>495.0</ele><time>2026-05-03T09:25:00Z</time></trkpt><trkpt lat="42.32554191870719" lon="13.76030296058213"><ele>495.0</ele><time>2026-05-03T09:25:01Z</time></trkpt><trkpt lat="42.325606177616855" lon="13.760399429385844"><ele>496.0</ele><time>2026-05-03T09:25:03Z</time></trkpt><trkpt lat="42.3254321166758" lon="13.760486088583798"><ele>497.0</ele><time>2026-05-03T09:25:09Z</time></trkpt><trkpt lat="42.32533316425892" lon="13.760512716241307"><ele>498.0</ele><time>2026-05-03T09:25:10Z</time></trkpt><trkpt lat="42.32525206314074" lon="13.760519306751704"><ele>499.0</ele><time>2026-05-03T09:25:11Z</time></trkpt><trkpt lat="42.325190228429896" lon="13.760493508639911"><ele>500.0</ele><time>2026-05-03T09:25:12Z</time></trkpt><trkpt lat="42.32509268736491" lon="13.760469646075965"><ele>500.0</ele><time>2026-05-03T09:25:14Z</time></trkpt><trkpt lat="42.325012284531965" lon="13.76044099683164"><ele>500.0</ele><time>2026-05-03T09:25:17Z</time></trkpt><trkpt lat="42.3249153344038" lon="13.760576005520285"><ele>500.0</ele><time>2026-05-03T09:25:18Z</time></trkpt><trkpt lat="42.324861627228145" lon="13.76065411548314"><ele>500.0</ele><time>2026-05-03T09:25:19Z</time></trkpt><trkpt lat="42.3247946444676" lon="13.760740649394714"><ele>500.0</ele><time>2026-05-03T09:25:20Z</time></trkpt><trkpt lat="42.32471722922547" lon="13.760801755663032"><ele>500.0</ele><time>2026-05-03T09:25:21Z</time></trkpt><trkpt lat="42.32463812283373" lon="13.760835998489922"><ele>500.0</ele><time>2026-05-03T09:25:22Z</time></trkpt><trkpt lat="42.32454910659963" lon="13.760846785603581"><ele>500.0</ele><time>2026-05-03T09:25:23Z</time></trkpt><trkpt lat="42.32444168670585" lon="13.760845859603489"><ele>500.0</ele><time>2026-05-03T09:25:24Z</time></trkpt><trkpt lat="42.32432557116946" lon="13.760856677785366"><ele>500.0</ele><time>2026-05-03T09:25:25Z</time></trkpt><trkpt lat="42.32421908993822" lon="13.760836267437211"><ele>500.0</ele><time>2026-05-03T09:25:26Z</time></trkpt><trkpt lat="42.324113964671696" lon="13.760798222452014"><ele>500.0</ele><time>2026-05-03T09:25:27Z</time></trkpt><trkpt lat="42.323999593937664" lon="13.76078662906925"><ele>500.0</ele><time>2026-05-03T09:25:28Z</time></trkpt><trkpt lat="42.323882657687754" lon="13.760793176469493"><ele>500.0</ele><time>2026-05-03T09:25:29Z</time></trkpt><trkpt lat="42.323768377027164" lon="13.760802104389272"><ele>499.75</ele><time>2026-05-03T09:25:30Z</time></trkpt><trkpt lat="42.32365269337999" lon="13.760799549739403"><ele>499.5</ele><time>2026-05-03T09:25:31Z</time></trkpt><trkpt lat="42.323537190880145" lon="13.760796999088292"><ele>499.25</ele><time>2026-05-03T09:25:32Z</time></trkpt><trkpt lat="42.32342080411892" lon="13.760797401399739"><ele>499.0</ele><time>2026-05-03T09:25:33Z</time></trkpt><trkpt lat="42.32330996839203" lon="13.760806647366325"><ele>499.0</ele><time>2026-05-03T09:25:34Z</time></trkpt><trkpt lat="42.32320426441749" lon="13.760828365247258"><ele>499.0</ele><time>2026-05-03T09:25:35Z</time></trkpt><trkpt lat="42.32310473637953" lon="13.76086010127642"><ele>499.0</ele><time>2026-05-03T09:25:36Z</time></trkpt><trkpt lat="42.32299693091464" lon="13.760911041361148"><ele>499.0</ele><time>2026-05-03T09:25:37Z</time></trkpt><trkpt lat="42.32287826382259" lon="13.760988142594883"><ele>498.5</ele><time>2026-05-03T09:25:38Z</time></trkpt><trkpt lat="42.32274794839083" lon="13.761080771222698"><ele>498.0</ele><time>2026-05-03T09:25:39Z</time></trkpt><trkpt lat="42.32261476901857" lon="13.761186897437021"><ele>497.5</ele><time>2026-05-03T09:25:40Z</time></trkpt><trkpt lat="42.32248650438925" lon="13.76128142308411"><ele>497.0</ele><time>2026-05-03T09:25:41Z</time></trkpt><trkpt lat="42.322357009461435" lon="13.761367475199844"><ele>494.25</ele><time>2026-05-03T09:25:42Z</time></trkpt><trkpt lat="42.32223119711421" lon="13.761446330318531"><ele>491.5</ele><time>2026-05-03T09:25:43Z</time></trkpt><trkpt lat="42.32211201258786" lon="13.761521271120191"><ele>488.75</ele><time>2026-05-03T09:25:44Z</time></trkpt><trkpt lat="42.32199900910599" lon="13.761594213746625"><ele>486.0</ele><time>2026-05-03T09:25:45Z</time></trkpt><trkpt lat="42.32190087407219" lon="13.761658612552399"><ele>486.0</ele><time>2026-05-03T09:25:46Z</time></trkpt><trkpt lat="42.32182176146684" lon="13.76171414639466"><ele>486.0</ele><time>2026-05-03T09:25:47Z</time></trkpt><trkpt lat="42.32175795430698" lon="13.761756689375035"><ele>486.0</ele><time>2026-05-03T09:25:48Z</time></trkpt><trkpt lat="42.321676334006895" lon="13.761805537276967"><ele>486.0</ele><time>2026-05-03T09:25:50Z</time></trkpt><trkpt lat="42.32156488746455" lon="13.761674557717683"><ele>486.0</ele><time>2026-05-03T09:25:52Z</time></trkpt><trkpt lat="42.32150301143687" lon="13.761592823668648"><ele>486.0</ele><time>2026-05-03T09:25:53Z</time></trkpt><trkpt lat="42.321443737124554" lon="13.761474285572941"><ele>486.0</ele><time>2026-05-03T09:25:55Z</time></trkpt><trkpt lat="42.321419826445144" lon="13.761314700487242"><ele>486.0</ele><time>2026-05-03T09:25:57Z</time></trkpt><trkpt lat="42.321422903888774" lon="13.761222109692364"><ele>486.0</ele><time>2026-05-03T09:25:58Z</time></trkpt><trkpt lat="42.32142125230969" lon="13.7611282308378"><ele>486.0</ele><time>2026-05-03T09:25:59Z</time></trkpt><trkpt lat="42.32140907557864" lon="13.761035055659407"><ele>486.0</ele><time>2026-05-03T09:26:00Z</time></trkpt><trkpt lat="42.32138154303765" lon="13.760943365454116"><ele>483.3333333333333</ele><time>2026-05-03T09:26:01Z</time></trkpt><trkpt lat="42.32135160878744" lon="13.760859461657411"><ele>480.66666666666663</ele><time>2026-05-03T09:26:02Z</time></trkpt><trkpt lat="42.321316493712814" lon="13.760752286476801"><ele>478.0</ele><time>2026-05-03T09:26:04Z</time></trkpt><trkpt lat="42.32127784437736" lon="13.760632270538823"><ele>475.3333333333333</ele><time>2026-05-03T09:26:06Z</time></trkpt><trkpt lat="42.32125864509685" lon="13.76051277692815"><ele>472.66666666666663</ele><time>2026-05-03T09:26:08Z</time></trkpt><trkpt lat="42.32123506792955" lon="13.760404261039138"><ele>470.0</ele><time>2026-05-03T09:26:11Z</time></trkpt><trkpt lat="42.3211447954738" lon="13.760411360225708"><ele>470.0</ele><time>2026-05-03T09:26:13Z</time></trkpt><trkpt lat="42.321031549829485" lon="13.760461732504263"><ele>470.0</ele><time>2026-05-03T09:26:15Z</time></trkpt><trkpt lat="42.32092757682507" lon="13.760525495532296"><ele>470.0</ele><time>2026-05-03T09:26:17Z</time></trkpt><trkpt lat="42.320864900901086" lon="13.760567970164765"><ele>470.0</ele><time>2026-05-03T09:26:18Z</time></trkpt><trkpt lat="42.32079618696516" lon="13.760615677875837"><ele>470.0</ele><time>2026-05-03T09:26:19Z</time></trkpt><trkpt lat="42.32072449242818" lon="13.76066641074825"><ele>469.99999999999994</ele><time>2026-05-03T09:26:20Z</time></trkpt><trkpt lat="42.32065196869352" lon="13.760717730401542"><ele>470.0</ele><time>2026-05-03T09:26:21Z</time></trkpt><trkpt lat="42.32058552387747" lon="13.7607647484491"><ele>470.0</ele><time>2026-05-03T09:26:22Z</time></trkpt><trkpt lat="42.32047463188592" lon="13.760841933982737"><ele>470.0</ele><time>2026-05-03T09:26:24Z</time></trkpt><trkpt lat="42.320419468176766" lon="13.76088305658374"><ele>469.99999999999994</ele><time>2026-05-03T09:26:25Z</time></trkpt><trkpt lat="42.32035260178874" lon="13.760941640912154"><ele>470.0</ele><time>2026-05-03T09:26:26Z</time></trkpt><trkpt lat="42.32028391682675" lon="13.761008400540616"><ele>469.3333333333333</ele><time>2026-05-03T09:26:27Z</time></trkpt><trkpt lat="42.32021928506603" lon="13.76108382570174"><ele>468.66666666666663</ele><time>2026-05-03T09:26:28Z</time></trkpt><trkpt lat="42.32015083853971" lon="13.76118017595187"><ele>468.0</ele><time>2026-05-03T09:26:29Z</time></trkpt><trkpt lat="42.32009127762508" lon="13.761269473429607"><ele>467.33333333333337</ele><time>2026-05-03T09:26:30Z</time></trkpt><trkpt lat="42.32002888425749" lon="13.76135089793794"><ele>466.6666666666667</ele><time>2026-05-03T09:26:31Z</time></trkpt><trkpt lat="42.31996174414988" lon="13.761422010054751"><ele>466.0</ele><time>2026-05-03T09:26:32Z</time></trkpt><trkpt lat="42.31989635292159" lon="13.76148346299855"><ele>466.0</ele><time>2026-05-03T09:26:33Z</time></trkpt><trkpt lat="42.31981116818115" lon="13.761551107680726"><ele>466.0</ele><time>2026-05-03T09:26:34Z</time></trkpt><trkpt lat="42.31971521502705" lon="13.761626155258348"><ele>466.0</ele><time>2026-05-03T09:26:35Z</time></trkpt><trkpt lat="42.31962227961546" lon="13.761698842623833"><ele>466.0</ele><time>2026-05-03T09:26:36Z</time></trkpt><trkpt lat="42.319534863325785" lon="13.761768741590906"><ele>466.0</ele><time>2026-05-03T09:26:37Z</time></trkpt><trkpt lat="42.31946134242895" lon="13.761828108373345"><ele>465.6</ele><time>2026-05-03T09:26:38Z</time></trkpt><trkpt lat="42.319391752464064" lon="13.761884300954257"><ele>465.20000000000005</ele><time>2026-05-03T09:26:39Z</time></trkpt><trkpt lat="42.3193209002429" lon="13.761940640823202"><ele>464.79999999999995</ele><time>2026-05-03T09:26:40Z</time></trkpt><trkpt lat="42.31924230805663" lon="13.762000977398763"><ele>464.4</ele><time>2026-05-03T09:26:41Z</time></trkpt><trkpt lat="42.31914810997045" lon="13.76206818966053"><ele>464.0</ele><time>2026-05-03T09:26:42Z</time></trkpt><trkpt lat="42.3190517564823" lon="13.762131087724729"><ele>464.0</ele><time>2026-05-03T09:26:43Z</time></trkpt><trkpt lat="42.318959918388" lon="13.762191248932101"><ele>464.0</ele><time>2026-05-03T09:26:44Z</time></trkpt><trkpt lat="42.31885998942468" lon="13.762261420329091"><ele>464.0</ele><time>2026-05-03T09:26:45Z</time></trkpt><trkpt lat="42.31876463197342" lon="13.762333459229495"><ele>464.0</ele><time>2026-05-03T09:26:46Z</time></trkpt><trkpt lat="42.31866433564158" lon="13.762413755258407"><ele>464.0</ele><time>2026-05-03T09:26:47Z</time></trkpt><trkpt lat="42.318567493304045" lon="13.762496806155239"><ele>463.79999999999995</ele><time>2026-05-03T09:26:48Z</time></trkpt><trkpt lat="42.31847193863494" lon="13.762586415625275"><ele>463.59999999999997</ele><time>2026-05-03T09:26:49Z</time></trkpt><trkpt lat="42.31838396424543" lon="13.762680783529925"><ele>463.4</ele><time>2026-05-03T09:26:50Z</time></trkpt><trkpt lat="42.31829504161162" lon="13.76277118112601"><ele>463.2</ele><time>2026-05-03T09:26:51Z</time></trkpt><trkpt lat="42.318208447259174" lon="13.762850541657933"><ele>463.0</ele><time>2026-05-03T09:26:52Z</time></trkpt><trkpt lat="42.31810650754127" lon="13.762941959217603"><ele>461.5</ele><time>2026-05-03T09:26:53Z</time></trkpt><trkpt lat="42.31800690294399" lon="13.763029488654501"><ele>460.0</ele><time>2026-05-03T09:26:54Z</time></trkpt><trkpt lat="42.317912718497475" lon="13.763112242121112"><ele>458.5</ele><time>2026-05-03T09:26:55Z</time></trkpt><trkpt lat="42.31783377478151" lon="13.763227425210495"><ele>457.0</ele><time>2026-05-03T09:26:56Z</time></trkpt><trkpt lat="42.317739416120695" lon="13.763317406526163"><ele>457.0</ele><time>2026-05-03T09:26:57Z</time></trkpt><trkpt lat="42.31765899870042" lon="13.76341479662016"><ele>457.0</ele><time>2026-05-03T09:26:58Z</time></trkpt><trkpt lat="42.3175814982555" lon="13.763527783795986"><ele>457.0</ele><time>2026-05-03T09:26:59Z</time></trkpt><trkpt lat="42.31751500521582" lon="13.76365558359768"><ele>457.0</ele><time>2026-05-03T09:27:00Z</time></trkpt><trkpt lat="42.3174403845475" lon="13.763794420831982"><ele>457.6666666666667</ele><time>2026-05-03T09:27:01Z</time></trkpt><trkpt lat="42.31734101617678" lon="13.763958621590223"><ele>458.33333333333337</ele><time>2026-05-03T09:27:02Z</time></trkpt><trkpt lat="42.31722525446817" lon="13.764143174873334"><ele>459.0</ele><time>2026-05-03T09:27:03Z</time></trkpt><trkpt lat="42.3171172673889" lon="13.764329106269116"><ele>457.33333333333337</ele><time>2026-05-03T09:27:04Z</time></trkpt><trkpt lat="42.3170102418409" lon="13.764501236704314"><ele>455.6666666666667</ele><time>2026-05-03T09:27:05Z</time></trkpt><trkpt lat="42.31690914982582" lon="13.764651813335385"><ele>454.0</ele><time>2026-05-03T09:27:06Z</time></trkpt><trkpt lat="42.31680970151233" lon="13.764793925751574"><ele>454.0</ele><time>2026-05-03T09:27:07Z</time></trkpt><trkpt lat="42.3167102834712" lon="13.764912175342324"><ele>454.0</ele><time>2026-05-03T09:27:08Z</time></trkpt><trkpt lat="42.316600486402" lon="13.765021399897753"><ele>454.0</ele><time>2026-05-03T09:27:09Z</time></trkpt><trkpt lat="42.31647139047076" lon="13.765104530555924"><ele>454.0</ele><time>2026-05-03T09:27:10Z</time></trkpt><trkpt lat="42.316349062195485" lon="13.765189272023719"><ele>454.75</ele><time>2026-05-03T09:27:11Z</time></trkpt><trkpt lat="42.31622791883061" lon="13.765270931452852"><ele>455.5</ele><time>2026-05-03T09:27:12Z</time></trkpt><trkpt lat="42.31611569362363" lon="13.76536444322977"><ele>456.25</ele><time>2026-05-03T09:27:13Z</time></trkpt><trkpt lat="42.316016722341026" lon="13.765465579302635"><ele>457.0</ele><time>2026-05-03T09:27:14Z</time></trkpt><trkpt lat="42.3159379389622" lon="13.765572996313855"><ele>457.0</ele><time>2026-05-03T09:27:15Z</time></trkpt><trkpt lat="42.31586557289066" lon="13.76567092738223"><ele>457.0</ele><time>2026-05-03T09:27:16Z</time></trkpt><trkpt lat="42.31580711534491" lon="13.765797694347636"><ele>457.0</ele><time>2026-05-03T09:27:17Z</time></trkpt><trkpt lat="42.315754944480766" lon="13.76593951820718"><ele>457.0</ele><time>2026-05-03T09:27:18Z</time></trkpt><trkpt lat="42.315695995164326" lon="13.766083167834028"><ele>458.0</ele><time>2026-05-03T09:27:19Z</time></trkpt><trkpt lat="42.31561413829134" lon="13.766208481640218"><ele>459.0</ele><time>2026-05-03T09:27:20Z</time></trkpt><trkpt lat="42.315540899585855" lon="13.766350764533309"><ele>460.0</ele><time>2026-05-03T09:27:21Z</time></trkpt><trkpt lat="42.31547359141452" lon="13.766496009948337"><ele>461.0</ele><time>2026-05-03T09:27:22Z</time></trkpt><trkpt lat="42.31538645792499" lon="13.766608941804538"><ele>461.0</ele><time>2026-05-03T09:27:23Z</time></trkpt><trkpt lat="42.315287537438266" lon="13.766677580622783"><ele>461.0</ele><time>2026-05-03T09:27:24Z</time></trkpt><trkpt lat="42.315196734065495" lon="13.766752855208447"><ele>461.0</ele><time>2026-05-03T09:27:25Z</time></trkpt><trkpt lat="42.31509937882706" lon="13.766832679957979"><ele>461.0</ele><time>2026-05-03T09:27:26Z</time></trkpt><trkpt lat="42.31500774350042" lon="13.766947417583639"><ele>461.75</ele><time>2026-05-03T09:27:27Z</time></trkpt><trkpt lat="42.314905297447524" lon="13.767046730690275"><ele>462.5</ele><time>2026-05-03T09:27:28Z</time></trkpt><trkpt lat="42.314807621727006" lon="13.767157085472103"><ele>463.25</ele><time>2026-05-03T09:27:29Z</time></trkpt><trkpt lat="42.314716061751355" lon="13.767281078186857"><ele>464.0</ele><time>2026-05-03T09:27:30Z</time></trkpt><trkpt lat="42.31463244957373" lon="13.767410770783632"><ele>464.0</ele><time>2026-05-03T09:27:31Z</time></trkpt><trkpt lat="42.31454661670752" lon="13.767497107531025"><ele>464.0</ele><time>2026-05-03T09:27:32Z</time></trkpt><trkpt lat="42.314475824658665" lon="13.767565262442824"><ele>464.0</ele><time>2026-05-03T09:27:33Z</time></trkpt><trkpt lat="42.31443676607908" lon="13.767749279168996"><ele>464.0</ele><time>2026-05-03T09:27:35Z</time></trkpt><trkpt lat="42.31440787060078" lon="13.767827862680639"><ele>464.0</ele><time>2026-05-03T09:27:47Z</time></trkpt><trkpt lat="42.314441021272536" lon="13.767743397460924"><ele>464.0</ele><time>2026-05-03T09:27:55Z</time></trkpt><trkpt lat="42.3144597269076" lon="13.767661045389731"><ele>464.0</ele><time>2026-05-03T09:27:58Z</time></trkpt><trkpt lat="42.3143250672351" lon="13.767683750686862"><ele>464.0</ele><time>2026-05-03T09:28:01Z</time></trkpt><trkpt lat="42.314257930375426" lon="13.767706568687816"><ele>464.0</ele><time>2026-05-03T09:28:02Z</time></trkpt><trkpt lat="42.31419015162927" lon="13.767739103159574"><ele>464.0</ele><time>2026-05-03T09:28:03Z</time></trkpt><trkpt lat="42.314076947373756" lon="13.767803615894428"><ele>465.0</ele><time>2026-05-03T09:28:05Z</time></trkpt><trkpt lat="42.31400974099941" lon="13.767879943848971"><ele>466.0</ele><time>2026-05-03T09:28:06Z</time></trkpt><trkpt lat="42.31395926749878" lon="13.767982722590268"><ele>467.0</ele><time>2026-05-03T09:28:07Z</time></trkpt><trkpt lat="42.313925227568" lon="13.768086724915241"><ele>468.0</ele><time>2026-05-03T09:28:08Z</time></trkpt><trkpt lat="42.31388270197999" lon="13.768207439982044"><ele>469.0</ele><time>2026-05-03T09:28:09Z</time></trkpt><trkpt lat="42.31383874090486" lon="13.768325411626856"><ele>464.2</ele><time>2026-05-03T09:28:10Z</time></trkpt><trkpt lat="42.31377594174124" lon="13.768422814095556"><ele>459.4</ele><time>2026-05-03T09:28:11Z</time></trkpt><trkpt lat="42.31372282548702" lon="13.768537248739975"><ele>454.6</ele><time>2026-05-03T09:28:12Z</time></trkpt><trkpt lat="42.31367731694736" lon="13.768663911793013"><ele>449.8</ele><time>2026-05-03T09:28:13Z</time></trkpt><trkpt lat="42.313620448930955" lon="13.768777833530798"><ele>445.0</ele><time>2026-05-03T09:28:14Z</time></trkpt><trkpt lat="42.31357181007711" lon="13.768898551788604"><ele>445.0</ele><time>2026-05-03T09:28:15Z</time></trkpt><trkpt lat="42.31352935372396" lon="13.769018841864861"><ele>445.0</ele><time>2026-05-03T09:28:16Z</time></trkpt><trkpt lat="42.313485071155526" lon="13.769133830539031"><ele>445.0</ele><time>2026-05-03T09:28:17Z</time></trkpt><trkpt lat="42.31343128811541" lon="13.769250756995802"><ele>445.0</ele><time>2026-05-03T09:28:18Z</time></trkpt><trkpt lat="42.31336620615849" lon="13.769373648487994"><ele>445.0</ele><time>2026-05-03T09:28:19Z</time></trkpt><trkpt lat="42.313301161003366" lon="13.769495655624892"><ele>445.4</ele><time>2026-05-03T09:28:20Z</time></trkpt><trkpt lat="42.31323610786628" lon="13.7696137609743"><ele>445.8</ele><time>2026-05-03T09:28:21Z</time></trkpt><trkpt lat="42.31314687988577" lon="13.769704378169399"><ele>446.20000000000005</ele><time>2026-05-03T09:28:22Z</time></trkpt><trkpt lat="42.313074296955925" lon="13.769813251091211"><ele>446.6</ele><time>2026-05-03T09:28:23Z</time></trkpt><trkpt lat="42.31297277476085" lon="13.769895849346767"><ele>447.0</ele><time>2026-05-03T09:28:24Z</time></trkpt><trkpt lat="42.312855699900126" lon="13.769968567389425"><ele>443.25</ele><time>2026-05-03T09:28:25Z</time></trkpt><trkpt lat="42.31273418948583" lon="13.77003759807433"><ele>439.5</ele><time>2026-05-03T09:28:26Z</time></trkpt><trkpt lat="42.312615089507524" lon="13.770101149624654"><ele>435.75</ele><time>2026-05-03T09:28:27Z</time></trkpt><trkpt lat="42.31249455446945" lon="13.77014181038644"><ele>432.0</ele><time>2026-05-03T09:28:28Z</time></trkpt><trkpt lat="42.31236786402771" lon="13.77016237318694"><ele>431.5</ele><time>2026-05-03T09:28:29Z</time></trkpt><trkpt lat="42.31223119665546" lon="13.770186585722739"><ele>431.0</ele><time>2026-05-03T09:28:30Z</time></trkpt><trkpt lat="42.31209251748837" lon="13.77021136375152"><ele>430.5</ele><time>2026-05-03T09:28:31Z</time></trkpt><trkpt lat="42.31196358565838" lon="13.770239409308784"><ele>430.0</ele><time>2026-05-03T09:28:32Z</time></trkpt><trkpt lat="42.311850979014416" lon="13.770269810027553"><ele>431.4</ele><time>2026-05-03T09:28:33Z</time></trkpt><trkpt lat="42.31174875118972" lon="13.770291281404345"><ele>432.8</ele><time>2026-05-03T09:28:34Z</time></trkpt><trkpt lat="42.311663564077136" lon="13.770302468355876"><ele>434.20000000000005</ele><time>2026-05-03T09:28:35Z</time></trkpt><trkpt lat="42.31159113103504" lon="13.77034209703911"><ele>435.6</ele><time>2026-05-03T09:28:36Z</time></trkpt><trkpt lat="42.31149963652663" lon="13.770410099527918"><ele>437.0</ele><time>2026-05-03T09:28:37Z</time></trkpt><trkpt lat="42.31139461464926" lon="13.770499804945212"><ele>437.0</ele><time>2026-05-03T09:28:38Z</time></trkpt><trkpt lat="42.311284199426716" lon="13.77059256981176"><ele>437.0</ele><time>2026-05-03T09:28:39Z</time></trkpt><trkpt lat="42.31118071459774" lon="13.770685424294355"><ele>437.0</ele><time>2026-05-03T09:28:40Z</time></trkpt><trkpt lat="42.311077042524545" lon="13.770738045490253"><ele>437.0</ele><time>2026-05-03T09:28:41Z</time></trkpt><trkpt lat="42.31099592991413" lon="13.770791803884599"><ele>436.99999999999994</ele><time>2026-05-03T09:28:42Z</time></trkpt><trkpt lat="42.310917422846444" lon="13.770821652961631"><ele>437.0</ele><time>2026-05-03T09:28:43Z</time></trkpt><trkpt lat="42.31082712624992" lon="13.770839149319984"><ele>437.0</ele><time>2026-05-03T09:28:44Z</time></trkpt><trkpt lat="42.31073381695646" lon="13.770804694293215"><ele>437.0</ele><time>2026-05-03T09:28:45Z</time></trkpt><trkpt lat="42.31064620396881" lon="13.770787827037784"><ele>436.99999999999994</ele><time>2026-05-03T09:28:46Z</time></trkpt><trkpt lat="42.31056079284333" lon="13.770802877954173"><ele>437.0</ele><time>2026-05-03T09:28:47Z</time></trkpt><trkpt lat="42.31046658979365" lon="13.770836023198264"><ele>436.40000000000003</ele><time>2026-05-03T09:28:48Z</time></trkpt><trkpt lat="42.310364059768645" lon="13.770825345104182"><ele>435.80000000000007</ele><time>2026-05-03T09:28:49Z</time></trkpt><trkpt lat="42.31025739616162" lon="13.770839564346055"><ele>435.2</ele><time>2026-05-03T09:28:50Z</time></trkpt><trkpt lat="42.310151531537194" lon="13.77086049433736"><ele>434.6</ele><time>2026-05-03T09:28:51Z</time></trkpt><trkpt lat="42.310055918746734" lon="13.770888591125038"><ele>434.0</ele><time>2026-05-03T09:28:52Z</time></trkpt><trkpt lat="42.30997457241682" lon="13.770938637460212"><ele>433.99999999999994</ele><time>2026-05-03T09:28:53Z</time></trkpt><trkpt lat="42.309897359631016" lon="13.770971721160148"><ele>434.0</ele><time>2026-05-03T09:28:54Z</time></trkpt><trkpt lat="42.30982249129474" lon="13.771017559928145"><ele>434.0</ele><time>2026-05-03T09:28:55Z</time></trkpt><trkpt lat="42.309757728612205" lon="13.771065832045725"><ele>434.0</ele><time>2026-05-03T09:28:56Z</time></trkpt><trkpt lat="42.309705000982234" lon="13.771123626679385"><ele>433.99999999999994</ele><time>2026-05-03T09:28:57Z</time></trkpt><trkpt lat="42.30966290744057" lon="13.771192468398494"><ele>434.0</ele><time>2026-05-03T09:28:58Z</time></trkpt><trkpt lat="42.30956477741879" lon="13.771271572487644"><ele>435.66666666666663</ele><time>2026-05-03T09:29:00Z</time></trkpt><trkpt lat="42.309498396900494" lon="13.771316270917145"><ele>437.3333333333333</ele><time>2026-05-03T09:29:01Z</time></trkpt><trkpt lat="42.30941672431847" lon="13.771370541764538"><ele>439.0</ele><time>2026-05-03T09:29:02Z</time></trkpt><trkpt lat="42.309335063921026" lon="13.771424804564528"><ele>440.66666666666663</ele><time>2026-05-03T09:29:03Z</time></trkpt><trkpt lat="42.30924970600153" lon="13.771484510386056"><ele>442.3333333333333</ele><time>2026-05-03T09:29:04Z</time></trkpt><trkpt lat="42.30916929886338" lon="13.771541737955923"><ele>444.0</ele><time>2026-05-03T09:29:05Z</time></trkpt><trkpt lat="42.30908950291319" lon="13.771603631631038"><ele>444.0</ele><time>2026-05-03T09:29:06Z</time></trkpt><trkpt lat="42.309019316390284" lon="13.771669374831454"><ele>444.0</ele><time>2026-05-03T09:29:07Z</time></trkpt><trkpt lat="42.30895736726855" lon="13.771732225091979"><ele>444.0</ele><time>2026-05-03T09:29:08Z</time></trkpt><trkpt lat="42.308894608307874" lon="13.771804102934697"><ele>444.0</ele><time>2026-05-03T09:29:09Z</time></trkpt><trkpt lat="42.308821450849784" lon="13.771895882918745"><ele>444.0</ele><time>2026-05-03T09:29:10Z</time></trkpt><trkpt lat="42.308745580473435" lon="13.771997670568151"><ele>443.79999999999995</ele><time>2026-05-03T09:29:11Z</time></trkpt><trkpt lat="42.308671382400085" lon="13.77209655305713"><ele>443.59999999999997</ele><time>2026-05-03T09:29:12Z</time></trkpt><trkpt lat="42.3085984081333" lon="13.772190856081084"><ele>443.4</ele><time>2026-05-03T09:29:13Z</time></trkpt><trkpt lat="42.30852778526804" lon="13.77227057408346"><ele>443.2</ele><time>2026-05-03T09:29:14Z</time></trkpt><trkpt lat="42.30844645898272" lon="13.772339332148636"><ele>443.0</ele><time>2026-05-03T09:29:15Z</time></trkpt><trkpt lat="42.30836797226013" lon="13.772383193416331"><ele>443.0</ele><time>2026-05-03T09:29:16Z</time></trkpt><trkpt lat="42.30823824771913" lon="13.772452790525959"><ele>443.0</ele><time>2026-05-03T09:29:17Z</time></trkpt><trkpt lat="42.30815547275333" lon="13.77255282978111"><ele>443.0</ele><time>2026-05-03T09:29:18Z</time></trkpt><trkpt lat="42.30808227754358" lon="13.77265965907706"><ele>443.0</ele><time>2026-05-03T09:29:19Z</time></trkpt><trkpt lat="42.308021550262765" lon="13.772752225045263"><ele>440.99999999999994</ele><time>2026-05-03T09:29:20Z</time></trkpt><trkpt lat="42.30796499450047" lon="13.772838411812033"><ele>439.0</ele><time>2026-05-03T09:29:21Z</time></trkpt><trkpt lat="42.30789996222046" lon="13.772922793953501"><ele>437.0</ele><time>2026-05-03T09:29:22Z</time></trkpt><trkpt lat="42.307835907009256" lon="13.773001659020942"><ele>435.0</ele><time>2026-05-03T09:29:23Z</time></trkpt><trkpt lat="42.30777110776879" lon="13.773078972044123"><ele>432.99999999999994</ele><time>2026-05-03T09:29:24Z</time></trkpt><trkpt lat="42.30770742307481" lon="13.773152935339406"><ele>431.0</ele><time>2026-05-03T09:29:25Z</time></trkpt><trkpt lat="42.30763724190101" lon="13.773232773812797"><ele>431.0</ele><time>2026-05-03T09:29:26Z</time></trkpt><trkpt lat="42.307571877165095" lon="13.77330532301508"><ele>431.0</ele><time>2026-05-03T09:29:27Z</time></trkpt><trkpt lat="42.30750595656243" lon="13.773376330388643"><ele>431.0</ele><time>2026-05-03T09:29:28Z</time></trkpt><trkpt lat="42.307427776733036" lon="13.77345698889076"><ele>431.0</ele><time>2026-05-03T09:29:29Z</time></trkpt><trkpt lat="42.30734974662974" lon="13.773530621745568"><ele>431.0</ele><time>2026-05-03T09:29:29.999Z</time></trkpt><trkpt lat="42.30726659092916" lon="13.773596894029028"><ele>429.5</ele><time>2026-05-03T09:29:30.999Z</time></trkpt><trkpt lat="42.307155538622744" lon="13.773664121650542"><ele>428.0</ele><time>2026-05-03T09:29:31.999Z</time></trkpt><trkpt lat="42.30705746578966" lon="13.773761303759182"><ele>426.5</ele><time>2026-05-03T09:29:32.999Z</time></trkpt><trkpt lat="42.30697842016892" lon="13.773893131628629"><ele>425.0</ele><time>2026-05-03T09:29:33.999Z</time></trkpt><trkpt lat="42.30694080388577" lon="13.774028179618632"><ele>425.0</ele><time>2026-05-03T09:29:34.999Z</time></trkpt><trkpt lat="42.30690222418856" lon="13.77411435778393"><ele>425.0</ele><time>2026-05-03T09:29:35.999Z</time></trkpt><trkpt lat="42.306834139951455" lon="13.774220332522168"><ele>425.0</ele><time>2026-05-03T09:29:36.999Z</time></trkpt><trkpt lat="42.306759348394266" lon="13.774307589057534"><ele>425.0</ele><time>2026-05-03T09:29:38Z</time></trkpt><trkpt lat="42.306676888420036" lon="13.774402155635793"><ele>425.0</ele><time>2026-05-03T09:29:39Z</time></trkpt><trkpt lat="42.30660362348654" lon="13.774486163505404"><ele>425.6</ele><time>2026-05-03T09:29:40Z</time></trkpt><trkpt lat="42.30652721997251" lon="13.774591210669579"><ele>426.2</ele><time>2026-05-03T09:29:41Z</time></trkpt><trkpt lat="42.30645352698047" lon="13.774724306718147"><ele>426.79999999999995</ele><time>2026-05-03T09:29:42Z</time></trkpt><trkpt lat="42.30639849994731" lon="13.774856075028055"><ele>427.4</ele><time>2026-05-03T09:29:43Z</time></trkpt><trkpt lat="42.306362276463595" lon="13.774961617201019"><ele>428.0</ele><time>2026-05-03T09:29:44Z</time></trkpt><trkpt lat="42.306329560045185" lon="13.775075092358653"><ele>427.3333333333333</ele><time>2026-05-03T09:29:45Z</time></trkpt><trkpt lat="42.30630411842365" lon="13.775165388241545"><ele>426.66666666666663</ele><time>2026-05-03T09:29:46Z</time></trkpt><trkpt lat="42.30626987914238" lon="13.775296092676426"><ele>426.0</ele><time>2026-05-03T09:29:48Z</time></trkpt><trkpt lat="42.306242152724074" lon="13.77540169653073"><ele>425.33333333333337</ele><time>2026-05-03T09:29:51Z</time></trkpt><trkpt lat="42.30622262572456" lon="13.775484429485962"><ele>424.6666666666667</ele><time>2026-05-03T09:29:55Z</time></trkpt><trkpt lat="42.30628354075716" lon="13.775418645969017"><ele>424.0</ele><time>2026-05-03T09:30:03Z</time></trkpt><trkpt lat="42.30633531775" lon="13.775496591205474"><ele>424.0</ele><time>2026-05-03T09:30:06Z</time></trkpt><trkpt lat="42.30621817527167" lon="13.775503769435723"><ele>424.0</ele><time>2026-05-03T09:30:10Z</time></trkpt><trkpt lat="42.30619620065446" lon="13.77560395341086"><ele>424.0</ele><time>2026-05-03T09:30:24Z</time></trkpt><trkpt lat="42.30616273951871" lon="13.775761511345817"><ele>424.0</ele><time>2026-05-03T09:30:26Z</time></trkpt><trkpt lat="42.30614320767822" lon="13.775854970790835"><ele>424.0</ele><time>2026-05-03T09:30:27Z</time></trkpt><trkpt lat="42.306121412814974" lon="13.775958449336981"><ele>423.79999999999995</ele><time>2026-05-03T09:30:28Z</time></trkpt><trkpt lat="42.3060972080632" lon="13.776070252307479"><ele>423.59999999999997</ele><time>2026-05-03T09:30:29Z</time></trkpt><trkpt lat="42.306067726805075" lon="13.776195217640028"><ele>423.4</ele><time>2026-05-03T09:30:30Z</time></trkpt><trkpt lat="42.306034999924584" lon="13.776319618712908"><ele>423.2</ele><time>2026-05-03T09:30:31Z</time></trkpt><trkpt lat="42.30600616579229" lon="13.776415492797277"><ele>423.0</ele><time>2026-05-03T09:30:32Z</time></trkpt><trkpt lat="42.305952656694494" lon="13.776543473032492"><ele>423.0</ele><time>2026-05-03T09:30:34Z</time></trkpt><trkpt lat="42.30590325161854" lon="13.776632531211941"><ele>423.0</ele><time>2026-05-03T09:30:36Z</time></trkpt><trkpt lat="42.30581639842695" lon="13.77675634220989"><ele>423.0</ele><time>2026-05-03T09:30:38Z</time></trkpt><trkpt lat="42.306153082919614" lon="13.777196141856784"><ele>422.79999999999995</ele><time>2026-05-03T09:30:40Z</time></trkpt><trkpt lat="42.30614917839077" lon="13.777337448832585"><ele>422.6</ele><time>2026-05-03T09:30:42Z</time></trkpt><trkpt lat="42.306080827818626" lon="13.777502134717531"><ele>422.4</ele><time>2026-05-03T09:30:44Z</time></trkpt><trkpt lat="42.30603565208049" lon="13.777599189661368"><ele>422.20000000000005</ele><time>2026-05-03T09:30:45Z</time></trkpt><trkpt lat="42.30598534586635" lon="13.777677416227569"><ele>422.0</ele><time>2026-05-03T09:30:46Z</time></trkpt><trkpt lat="42.30593318405195" lon="13.777740588484352"><ele>421.8333333333333</ele><time>2026-05-03T09:30:47Z</time></trkpt><trkpt lat="42.30586467520754" lon="13.777815483263375"><ele>421.66666666666663</ele><time>2026-05-03T09:30:48Z</time></trkpt><trkpt lat="42.305805635919675" lon="13.777874424443429"><ele>421.5</ele><time>2026-05-03T09:30:49Z</time></trkpt><trkpt lat="42.30574534368083" lon="13.777935989426556"><ele>421.33333333333337</ele><time>2026-05-03T09:30:50Z</time></trkpt><trkpt lat="42.30568713084341" lon="13.778012011193056"><ele>421.1666666666667</ele><time>2026-05-03T09:30:51Z</time></trkpt><trkpt lat="42.30562231972152" lon="13.77808888401115"><ele>421.0</ele><time>2026-05-03T09:30:52Z</time></trkpt><trkpt lat="42.30555525370847" lon="13.778147558895624"><ele>419.83333333333337</ele><time>2026-05-03T09:30:53Z</time></trkpt><trkpt lat="42.30547872887327" lon="13.778190301610781"><ele>418.6666666666667</ele><time>2026-05-03T09:30:54Z</time></trkpt><trkpt lat="42.30541290394904" lon="13.778230982115"><ele>417.5</ele><time>2026-05-03T09:30:55Z</time></trkpt><trkpt lat="42.30534365782531" lon="13.778304727504675"><ele>416.33333333333337</ele><time>2026-05-03T09:30:56Z</time></trkpt><trkpt lat="42.305285855631084" lon="13.778394855849491"><ele>415.1666666666667</ele><time>2026-05-03T09:30:57Z</time></trkpt><trkpt lat="42.30522404524408" lon="13.778504855669636"><ele>414.0</ele><time>2026-05-03T09:30:58Z</time></trkpt><trkpt lat="42.305170735494656" lon="13.77860009509678"><ele>414.0</ele><time>2026-05-03T09:30:59Z</time></trkpt><trkpt lat="42.305110065606094" lon="13.778716390482936"><ele>414.0</ele><time>2026-05-03T09:31:00Z</time></trkpt><trkpt lat="42.30505937498654" lon="13.77885213274062"><ele>414.0</ele><time>2026-05-03T09:31:01Z</time></trkpt><trkpt lat="42.304998404114585" lon="13.778984512790345"><ele>414.0</ele><time>2026-05-03T09:31:02Z</time></trkpt><trkpt lat="42.30492126338895" lon="13.77910658910966"><ele>414.0</ele><time>2026-05-03T09:31:03Z</time></trkpt><trkpt lat="42.30483791874005" lon="13.779221145506893"><ele>414.0</ele><time>2026-05-03T09:31:04Z</time></trkpt><trkpt lat="42.30475502760623" lon="13.779319322279598"><ele>414.0</ele><time>2026-05-03T09:31:05Z</time></trkpt><trkpt lat="42.30468302546649" lon="13.779421617524319"><ele>414.0</ele><time>2026-05-03T09:31:06Z</time></trkpt><trkpt lat="42.30462367753328" lon="13.779521621805594"><ele>414.0</ele><time>2026-05-03T09:31:07Z</time></trkpt><trkpt lat="42.304560690259365" lon="13.779610065460515"><ele>412.6666666666667</ele><time>2026-05-03T09:31:08Z</time></trkpt><trkpt lat="42.30448892259642" lon="13.779672587977883"><ele>411.33333333333337</ele><time>2026-05-03T09:31:09Z</time></trkpt><trkpt lat="42.304399374504705" lon="13.779729639167359"><ele>410.0</ele><time>2026-05-03T09:31:10Z</time></trkpt><trkpt lat="42.304309108097556" lon="13.779773813721045"><ele>408.6666666666667</ele><time>2026-05-03T09:31:11Z</time></trkpt><trkpt lat="42.30423234641445" lon="13.779813035216282"><ele>407.33333333333337</ele><time>2026-05-03T09:31:12Z</time></trkpt><trkpt lat="42.3041588630635" lon="13.77987506881447"><ele>406.0</ele><time>2026-05-03T09:31:13Z</time></trkpt><trkpt lat="42.30410364012046" lon="13.779963116072313"><ele>406.0</ele><time>2026-05-03T09:31:14Z</time></trkpt><trkpt lat="42.30396864327375" lon="13.779971297141556"><ele>406.0</ele><time>2026-05-03T09:31:15Z</time></trkpt><trkpt lat="42.30389076598987" lon="13.780071355904504"><ele>406.0</ele><time>2026-05-03T09:31:16Z</time></trkpt><trkpt lat="42.303839926574945" lon="13.78014504811779"><ele>406.0</ele><time>2026-05-03T09:31:17Z</time></trkpt><trkpt lat="42.30378474682071" lon="13.780237003052903"><ele>406.0</ele><time>2026-05-03T09:31:19Z</time></trkpt><trkpt lat="42.30373953892183" lon="13.780336475309998"><ele>405.4</ele><time>2026-05-03T09:31:29Z</time></trkpt><trkpt lat="42.303682476055805" lon="13.780483898759513"><ele>404.8</ele><time>2026-05-03T09:31:31Z</time></trkpt><trkpt lat="42.30364755432058" lon="13.780578937558854"><ele>404.2</ele><time>2026-05-03T09:31:32Z</time></trkpt><trkpt lat="42.30362297504537" lon="13.780691716046181"><ele>403.59999999999997</ele><time>2026-05-03T09:31:33Z</time></trkpt><trkpt lat="42.30356558068097" lon="13.780783851234983"><ele>403.0</ele><time>2026-05-03T09:31:34Z</time></trkpt><trkpt lat="42.30352185648737" lon="13.780870274878694"><ele>403.0</ele><time>2026-05-03T09:31:35Z</time></trkpt><trkpt lat="42.30347637861989" lon="13.780938705006683"><ele>403.0</ele><time>2026-05-03T09:31:36Z</time></trkpt><trkpt lat="42.30336203299288" lon="13.78104669567993"><ele>403.0</ele><time>2026-05-03T09:31:38Z</time></trkpt><trkpt lat="42.3032963410726" lon="13.781129579602803"><ele>403.0</ele><time>2026-05-03T09:31:39Z</time></trkpt><trkpt lat="42.30321201227368" lon="13.781210228480502"><ele>403.0</ele><time>2026-05-03T09:31:40Z</time></trkpt><trkpt lat="42.30311386854532" lon="13.781289774706078"><ele>401.0</ele><time>2026-05-03T09:31:41Z</time></trkpt><trkpt lat="42.30303373357631" lon="13.78139561264001"><ele>399.0</ele><time>2026-05-03T09:31:42Z</time></trkpt><trkpt lat="42.30295449884043" lon="13.78151042004992"><ele>397.0</ele><time>2026-05-03T09:31:43Z</time></trkpt><trkpt lat="42.30287652887488" lon="13.781628846557297"><ele>395.0</ele><time>2026-05-03T09:31:44Z</time></trkpt><trkpt lat="42.30279476882069" lon="13.78175302957993"><ele>396.0</ele><time>2026-05-03T09:31:45Z</time></trkpt><trkpt lat="42.30271058757196" lon="13.781876990956773"><ele>397.0</ele><time>2026-05-03T09:31:46Z</time></trkpt><trkpt lat="42.302625138537465" lon="13.781995206356239"><ele>398.0</ele><time>2026-05-03T09:31:47Z</time></trkpt><trkpt lat="42.30254533190086" lon="13.782093266668353"><ele>399.0</ele><time>2026-05-03T09:31:48Z</time></trkpt><trkpt lat="42.302472390877675" lon="13.782178330826937"><ele>399.0</ele><time>2026-05-03T09:31:49Z</time></trkpt><trkpt lat="42.30240071699985" lon="13.782254403927356"><ele>399.0</ele><time>2026-05-03T09:31:50Z</time></trkpt><trkpt lat="42.30232232269423" lon="13.78232998375961"><ele>399.0</ele><time>2026-05-03T09:31:51Z</time></trkpt><trkpt lat="42.302258385107436" lon="13.782390251605081"><ele>399.0</ele><time>2026-05-03T09:31:52Z</time></trkpt><trkpt lat="42.30217617915848" lon="13.782442621445373"><ele>399.0</ele><time>2026-05-03T09:31:54Z</time></trkpt><trkpt lat="42.30212734443734" lon="13.782332807193805"><ele>397.5</ele><time>2026-05-03T09:31:57Z</time></trkpt><trkpt lat="42.302136745051534" lon="13.78223916301534"><ele>396.0</ele><time>2026-05-03T09:31:58Z</time></trkpt><trkpt lat="42.30211967724009" lon="13.782138518814776"><ele>394.5</ele><time>2026-05-03T09:31:59Z</time></trkpt><trkpt lat="42.30209510423006" lon="13.782032242092551"><ele>393.0</ele><time>2026-05-03T09:32:00Z</time></trkpt><trkpt lat="42.302077966664655" lon="13.781942594718249"><ele>391.5</ele><time>2026-05-03T09:32:01Z</time></trkpt><trkpt lat="42.30206234191827" lon="13.781841893787247"><ele>390.0</ele><time>2026-05-03T09:32:02Z</time></trkpt><trkpt lat="42.30204499609293" lon="13.781722936057857"><ele>388.8</ele><time>2026-05-03T09:32:03Z</time></trkpt><trkpt lat="42.30202026489938" lon="13.781588204011694"><ele>387.6</ele><time>2026-05-03T09:32:04Z</time></trkpt><trkpt lat="42.302013427340526" lon="13.78143498715386"><ele>386.4</ele><time>2026-05-03T09:32:05Z</time></trkpt><trkpt lat="42.30199247684835" lon="13.781278250269347"><ele>385.2</ele><time>2026-05-03T09:32:06Z</time></trkpt><trkpt lat="42.30197363794426" lon="13.781124989679403"><ele>384.0</ele><time>2026-05-03T09:32:07Z</time></trkpt><trkpt lat="42.30195638135212" lon="13.780975510828362"><ele>384.0</ele><time>2026-05-03T09:32:08Z</time></trkpt><trkpt lat="42.301941659839095" lon="13.780847990434221"><ele>384.0</ele><time>2026-05-03T09:32:09Z</time></trkpt><trkpt lat="42.30192959337798" lon="13.780728798337117"><ele>384.0</ele><time>2026-05-03T09:32:10Z</time></trkpt><trkpt lat="42.30191640221235" lon="13.78059996585543"><ele>384.0</ele><time>2026-05-03T09:32:11Z</time></trkpt><trkpt lat="42.30190935377352" lon="13.780492294671438"><ele>384.0</ele><time>2026-05-03T09:32:12Z</time></trkpt><trkpt lat="42.301927197336916" lon="13.780355062702498"><ele>384.0</ele><time>2026-05-03T09:32:14Z</time></trkpt><trkpt lat="42.30196093724166" lon="13.7802622685976"><ele>384.0</ele><time>2026-05-03T09:32:16Z</time></trkpt><trkpt lat="42.30197275426138" lon="13.780109717929353"><ele>384.0</ele><time>2026-05-03T09:32:18Z</time></trkpt><trkpt lat="42.30196732921943" lon="13.780016136317"><ele>384.0</ele><time>2026-05-03T09:32:19Z</time></trkpt><trkpt lat="42.3019230265678" lon="13.77989809787707"><ele>384.0</ele><time>2026-05-03T09:32:20Z</time></trkpt><trkpt lat="42.30187390214003" lon="13.779774470947586"><ele>383.6</ele><time>2026-05-03T09:32:21Z</time></trkpt><trkpt lat="42.301825089436036" lon="13.77964110511075"><ele>383.2</ele><time>2026-05-03T09:32:22Z</time></trkpt><trkpt lat="42.30177899103988" lon="13.779514158509333"><ele>382.8</ele><time>2026-05-03T09:32:23Z</time></trkpt><trkpt lat="42.301733880013046" lon="13.779383584284226"><ele>382.40000000000003</ele><time>2026-05-03T09:32:24Z</time></trkpt><trkpt lat="42.301691660581525" lon="13.779247135299467"><ele>382.0</ele><time>2026-05-03T09:32:25Z</time></trkpt><trkpt lat="42.301653368779824" lon="13.779105554898644"><ele>381.25</ele><time>2026-05-03T09:32:26Z</time></trkpt><trkpt lat="42.301618044527906" lon="13.778959508246814"><ele>380.5</ele><time>2026-05-03T09:32:27Z</time></trkpt><trkpt lat="42.30158208856882" lon="13.778809857168616"><ele>379.75</ele><time>2026-05-03T09:32:28Z</time></trkpt><trkpt lat="42.30154558431294" lon="13.778658885180628"><ele>379.0</ele><time>2026-05-03T09:32:29Z</time></trkpt><trkpt lat="42.30149379965405" lon="13.778517847069947"><ele>378.2</ele><time>2026-05-03T09:32:30Z</time></trkpt><trkpt lat="42.301461092900134" lon="13.77836823931065"><ele>377.4</ele><time>2026-05-03T09:32:31Z</time></trkpt><trkpt lat="42.301418547847305" lon="13.77822349846681"><ele>376.6</ele><time>2026-05-03T09:32:32Z</time></trkpt><trkpt lat="42.301370723001355" lon="13.778083946425564"><ele>375.8</ele><time>2026-05-03T09:32:33Z</time></trkpt><trkpt lat="42.301326356443816" lon="13.777955861938166"><ele>375.0</ele><time>2026-05-03T09:32:34Z</time></trkpt><trkpt lat="42.3013182411099" lon="13.77783105507831"><ele>373.8</ele><time>2026-05-03T09:32:35Z</time></trkpt><trkpt lat="42.301302046564786" lon="13.7777235132296"><ele>372.6</ele><time>2026-05-03T09:32:36Z</time></trkpt><trkpt lat="42.30128751204887" lon="13.777597302453598"><ele>371.4</ele><time>2026-05-03T09:32:37Z</time></trkpt><trkpt lat="42.30127469315743" lon="13.777459862261034"><ele>370.2</ele><time>2026-05-03T09:32:38Z</time></trkpt><trkpt lat="42.30126660034441" lon="13.777307693900127"><ele>369.0</ele><time>2026-05-03T09:32:39Z</time></trkpt><trkpt lat="42.301277159450485" lon="13.777154902669174"><ele>368.6</ele><time>2026-05-03T09:32:40Z</time></trkpt><trkpt lat="42.30130975546028" lon="13.77701368489544"><ele>368.2</ele><time>2026-05-03T09:32:41Z</time></trkpt><trkpt lat="42.301308677598676" lon="13.77689828353917"><ele>367.8</ele><time>2026-05-03T09:32:42Z</time></trkpt><trkpt lat="42.30127638144628" lon="13.776797106119192"><ele>367.40000000000003</ele><time>2026-05-03T09:32:43Z</time></trkpt><trkpt lat="42.301232471999846" lon="13.77669056915222"><ele>367.0</ele><time>2026-05-03T09:32:44Z</time></trkpt><trkpt lat="42.30118053195631" lon="13.776576392725133"><ele>367.0</ele><time>2026-05-03T09:32:45Z</time></trkpt><trkpt lat="42.30112298952836" lon="13.776461779351473"><ele>367.0</ele><time>2026-05-03T09:32:46Z</time></trkpt><trkpt lat="42.30105803615626" lon="13.776349413765749"><ele>367.0</ele><time>2026-05-03T09:32:47Z</time></trkpt><trkpt lat="42.30097911983274" lon="13.776260511060862"><ele>367.0</ele><time>2026-05-03T09:32:48Z</time></trkpt><trkpt lat="42.30090995021186" lon="13.776194745211647"><ele>367.0</ele><time>2026-05-03T09:32:49Z</time></trkpt><trkpt lat="42.30086143048048" lon="13.776101193604458"><ele>367.5</ele><time>2026-05-03T09:32:51Z</time></trkpt><trkpt lat="42.30088952289219" lon="13.775996149274945"><ele>368.0</ele><time>2026-05-03T09:32:53Z</time></trkpt><trkpt lat="42.30091503055795" lon="13.775900331749762"><ele>368.5</ele><time>2026-05-03T09:32:54Z</time></trkpt><trkpt lat="42.30090406599779" lon="13.77581562203085"><ele>369.0</ele><time>2026-05-03T09:32:55Z</time></trkpt><trkpt lat="42.30085509085688" lon="13.775759492220788"><ele>369.5</ele><time>2026-05-03T09:32:56Z</time></trkpt><trkpt lat="42.30078517080746" lon="13.775697869412376"><ele>370.0</ele><time>2026-05-03T09:32:57Z</time></trkpt><trkpt lat="42.3007142846877" lon="13.775645456365504"><ele>370.0</ele><time>2026-05-03T09:32:58Z</time></trkpt><trkpt lat="42.300608358668526" lon="13.775593993902342"><ele>370.0</ele><time>2026-05-03T09:33:00Z</time></trkpt><trkpt lat="42.30055256637539" lon="13.775553136851567"><ele>370.0</ele><time>2026-05-03T09:33:01Z</time></trkpt><trkpt lat="42.30046324684641" lon="13.775479385787186"><ele>370.0</ele><time>2026-05-03T09:33:03Z</time></trkpt><trkpt lat="42.300416523505135" lon="13.775399994834714"><ele>370.0</ele><time>2026-05-03T09:33:04Z</time></trkpt><trkpt lat="42.300351921116714" lon="13.775317060566127"><ele>370.0</ele><time>2026-05-03T09:33:05Z</time></trkpt><trkpt lat="42.30030878171506" lon="13.775218063067124"><ele>368.3333333333333</ele><time>2026-05-03T09:33:06Z</time></trkpt><trkpt lat="42.30025559966247" lon="13.775151783374106"><ele>366.66666666666663</ele><time>2026-05-03T09:33:07Z</time></trkpt><trkpt lat="42.30020596917378" lon="13.77509651575467"><ele>365.0</ele><time>2026-05-03T09:33:08Z</time></trkpt><trkpt lat="42.300113981756716" lon="13.77501544698159"><ele>363.3333333333333</ele><time>2026-05-03T09:33:10Z</time></trkpt><trkpt lat="42.300033645679065" lon="13.774996322029839"><ele>361.6666666666667</ele><time>2026-05-03T09:33:12Z</time></trkpt><trkpt lat="42.299975941767244" lon="13.775036084080256"><ele>360.0</ele><time>2026-05-03T09:33:14Z</time></trkpt><trkpt lat="42.30007692253489" lon="13.775270471154101"><ele>359.8333333333333</ele><time>2026-05-03T09:33:20Z</time></trkpt><trkpt lat="42.30011802538887" lon="13.775361753707998"><ele>359.6666666666667</ele><time>2026-05-03T09:33:22Z</time></trkpt><trkpt lat="42.30017911530208" lon="13.775468569720495"><ele>359.5</ele><time>2026-05-03T09:33:24Z</time></trkpt><trkpt lat="42.30019078024722" lon="13.775556788851315"><ele>359.33333333333337</ele><time>2026-05-03T09:33:26Z</time></trkpt><trkpt lat="42.30025973179137" lon="13.775530086867597"><ele>359.1666666666667</ele><time>2026-05-03T09:33:29Z</time></trkpt><trkpt lat="42.300194061404625" lon="13.775394874902656"><ele>359.0</ele><time>2026-05-03T09:33:31Z</time></trkpt><trkpt lat="42.30011469150416" lon="13.77533128214758"><ele>359.0</ele><time>2026-05-03T09:33:32Z</time></trkpt><trkpt lat="42.30007369080064" lon="13.775258072831136"><ele>359.0</ele><time>2026-05-03T09:33:33Z</time></trkpt><trkpt lat="42.30001074647196" lon="13.775134291257842"><ele>359.0</ele><time>2026-05-03T09:33:35Z</time></trkpt><trkpt lat="42.29994213521411" lon="13.775109213640578"><ele>359.0</ele><time>2026-05-03T09:33:37Z</time></trkpt><trkpt lat="42.299822198061406" lon="13.775210632972488"><ele>359.0</ele><time>2026-05-03T09:33:39Z</time></trkpt><trkpt lat="42.29973034815408" lon="13.77529611056644"><ele>358.83333333333337</ele><time>2026-05-03T09:33:40Z</time></trkpt><trkpt lat="42.299629165186445" lon="13.775391261295956"><ele>358.6666666666667</ele><time>2026-05-03T09:33:41Z</time></trkpt><trkpt lat="42.2995466926883" lon="13.775463121434424"><ele>358.5</ele><time>2026-05-03T09:33:42Z</time></trkpt><trkpt lat="42.29948376243717" lon="13.775497053518546"><ele>358.3333333333333</ele><time>2026-05-03T09:33:43Z</time></trkpt><trkpt lat="42.299420609237266" lon="13.775494113756475"><ele>358.16666666666663</ele><time>2026-05-03T09:33:57Z</time></trkpt><trkpt lat="42.299344845486864" lon="13.775451707384276"><ele>358.0</ele><time>2026-05-03T09:33:59Z</time></trkpt><trkpt lat="42.29927946309629" lon="13.775402725247838"><ele>358.0</ele><time>2026-05-03T09:34:00Z</time></trkpt><trkpt lat="42.29920857107438" lon="13.775341360175467"><ele>358.0</ele><time>2026-05-03T09:34:01Z</time></trkpt><trkpt lat="42.29914735771512" lon="13.775288373174654"><ele>358.0</ele><time>2026-05-03T09:34:02Z</time></trkpt><trkpt lat="42.29906782786109" lon="13.77522858686672"><ele>358.0</ele><time>2026-05-03T09:34:04Z</time></trkpt><trkpt lat="42.29892016436335" lon="13.7754253853078"><ele>356.75</ele><time>2026-05-03T09:34:07Z</time></trkpt><trkpt lat="42.298882573090026" lon="13.775542132675719"><ele>355.5</ele><time>2026-05-03T09:34:08Z</time></trkpt><trkpt lat="42.298841170119246" lon="13.775690699056392"><ele>354.25</ele><time>2026-05-03T09:34:09Z</time></trkpt><trkpt lat="42.29882403699759" lon="13.775845601852273"><ele>353.0</ele><time>2026-05-03T09:34:10Z</time></trkpt><trkpt lat="42.29876982572228" lon="13.776006021483681"><ele>353.75</ele><time>2026-05-03T09:34:11Z</time></trkpt><trkpt lat="42.298729475266136" lon="13.776181747597517"><ele>354.5</ele><time>2026-05-03T09:34:12Z</time></trkpt><trkpt lat="42.29868682733336" lon="13.776367479705467"><ele>355.25</ele><time>2026-05-03T09:34:13Z</time></trkpt><trkpt lat="42.29864738251962" lon="13.776539261866851"><ele>356.0</ele><time>2026-05-03T09:34:14Z</time></trkpt><trkpt lat="42.29861025012435" lon="13.776700973707541"><ele>356.25</ele><time>2026-05-03T09:34:15Z</time></trkpt><trkpt lat="42.298572363121316" lon="13.776865114857925"><ele>356.5</ele><time>2026-05-03T09:34:16Z</time></trkpt><trkpt lat="42.29853133320535" lon="13.777034930196422"><ele>356.75</ele><time>2026-05-03T09:34:17Z</time></trkpt><trkpt lat="42.29849812703551" lon="13.777217741634102"><ele>357.0</ele><time>2026-05-03T09:34:18Z</time></trkpt><trkpt lat="42.298460836124605" lon="13.777376205397227"><ele>357.0</ele><time>2026-05-03T09:34:19Z</time></trkpt><trkpt lat="42.2984225425051" lon="13.777515787720723"><ele>357.0</ele><time>2026-05-03T09:34:20Z</time></trkpt><trkpt lat="42.2983692854634" lon="13.77762943777197"><ele>357.0</ele><time>2026-05-03T09:34:21Z</time></trkpt><trkpt lat="42.29832519283885" lon="13.777711567228028"><ele>357.0</ele><time>2026-05-03T09:34:22Z</time></trkpt><trkpt lat="42.29826213025188" lon="13.777771251955405"><ele>357.0</ele><time>2026-05-03T09:34:24Z</time></trkpt><trkpt lat="42.298169168598946" lon="13.777784154683605"><ele>357.0</ele><time>2026-05-03T09:34:28Z</time></trkpt><trkpt lat="42.298099863814244" lon="13.777861548815288"><ele>357.0</ele><time>2026-05-03T09:34:30Z</time></trkpt><trkpt lat="42.298011988118766" lon="13.777967202661129"><ele>357.0</ele><time>2026-05-03T09:34:32Z</time></trkpt><trkpt lat="42.2979518849126" lon="13.778042611015035"><ele>357.0</ele><time>2026-05-03T09:34:34Z</time></trkpt><trkpt lat="42.2980242497544" lon="13.77811232065624"><ele>357.0</ele><time>2026-05-03T09:34:37Z</time></trkpt><trkpt lat="42.298276495503764" lon="13.778443623095"><ele>357.0</ele><time>2026-05-03T09:34:38Z</time></trkpt><trkpt lat="42.298252185024346" lon="13.778340441870206"><ele>357.0</ele><time>2026-05-03T09:34:41Z</time></trkpt><trkpt lat="42.29827034338054" lon="13.778183787018962"><ele>357.0</ele><time>2026-05-03T09:34:43Z</time></trkpt><trkpt lat="42.29829929316084" lon="13.778089294267257"><ele>357.0</ele><time>2026-05-03T09:34:44Z</time></trkpt><trkpt lat="42.29832717445586" lon="13.777996827997464"><ele>357.0</ele><time>2026-05-03T09:34:45Z</time></trkpt><trkpt lat="42.29834696401227" lon="13.777866414281942"><ele>357.0</ele><time>2026-05-03T09:34:47Z</time></trkpt><trkpt lat="42.29832258287865" lon="13.777784635690075"><ele>357.0</ele><time>2026-05-03T09:34:49Z</time></trkpt><trkpt lat="42.29825177587632" lon="13.777782479676807"><ele>357.0</ele><time>2026-05-03T09:34:51Z</time></trkpt><trkpt lat="42.298176644214955" lon="13.77777531760433"><ele>357.0</ele><time>2026-05-03T09:34:52Z</time></trkpt><trkpt lat="42.29809428465575" lon="13.777868052415043"><ele>357.0</ele><time>2026-05-03T09:34:53Z</time></trkpt><trkpt lat="42.29801170732892" lon="13.777967556267106"><ele>357.0</ele><time>2026-05-03T09:34:54Z</time></trkpt><trkpt lat="42.297914987990815" lon="13.778090357730278"><ele>356.25</ele><time>2026-05-03T09:34:55Z</time></trkpt><trkpt lat="42.29781275720426" lon="13.778222650826548"><ele>355.5</ele><time>2026-05-03T09:34:56Z</time></trkpt><trkpt lat="42.29770710428146" lon="13.778359372309266"><ele>354.75</ele><time>2026-05-03T09:34:57Z</time></trkpt><trkpt lat="42.29760220009598" lon="13.778495794715244"><ele>354.0</ele><time>2026-05-03T09:34:58Z</time></trkpt><trkpt lat="42.29750715422968" lon="13.77862231148402"><ele>353.5</ele><time>2026-05-03T09:34:59Z</time></trkpt><trkpt lat="42.29741870669898" lon="13.778733182923778"><ele>353.0</ele><time>2026-05-03T09:35:00Z</time></trkpt><trkpt lat="42.297333646811104" lon="13.778828213246205"><ele>352.5</ele><time>2026-05-03T09:35:01Z</time></trkpt><trkpt lat="42.29723633518238" lon="13.778916171319398"><ele>352.0</ele><time>2026-05-03T09:35:02Z</time></trkpt><trkpt lat="42.297124653982586" lon="13.779009022343761"><ele>351.75</ele><time>2026-05-03T09:35:03Z</time></trkpt><trkpt lat="42.29701271128287" lon="13.779109906577784"><ele>351.5</ele><time>2026-05-03T09:35:04Z</time></trkpt><trkpt lat="42.296915313166444" lon="13.77922089959919"><ele>351.25</ele><time>2026-05-03T09:35:05Z</time></trkpt><trkpt lat="42.29683413106118" lon="13.77932315123405"><ele>351.0</ele><time>2026-05-03T09:35:06Z</time></trkpt><trkpt lat="42.29674615460994" lon="13.779442396194929"><ele>351.0</ele><time>2026-05-03T09:35:07Z</time></trkpt><trkpt lat="42.29665809881168" lon="13.779572637404268"><ele>351.0</ele><time>2026-05-03T09:35:08Z</time></trkpt><trkpt lat="42.29657380432342" lon="13.779718520029846"><ele>351.0</ele><time>2026-05-03T09:35:09Z</time></trkpt><trkpt lat="42.296498692917126" lon="13.779863773804957"><ele>351.0</ele><time>2026-05-03T09:35:10Z</time></trkpt><trkpt lat="42.29642911926086" lon="13.780001770004423"><ele>351.0</ele><time>2026-05-03T09:35:11Z</time></trkpt><trkpt lat="42.296367679896115" lon="13.780145800955307"><ele>351.0</ele><time>2026-05-03T09:35:12Z</time></trkpt><trkpt lat="42.296282239418645" lon="13.780273783595659"><ele>351.0</ele><time>2026-05-03T09:35:13Z</time></trkpt><trkpt lat="42.29620851629993" lon="13.78041734094969"><ele>351.0</ele><time>2026-05-03T09:35:14Z</time></trkpt><trkpt lat="42.29612698002551" lon="13.780554055561911"><ele>351.25</ele><time>2026-05-03T09:35:15Z</time></trkpt><trkpt lat="42.29604961178821" lon="13.78068312825431"><ele>351.5</ele><time>2026-05-03T09:35:16Z</time></trkpt><trkpt lat="42.29597253446719" lon="13.780805429731778"><ele>351.75</ele><time>2026-05-03T09:35:17Z</time></trkpt><trkpt lat="42.29588793287587" lon="13.780939984270546"><ele>352.0</ele><time>2026-05-03T09:35:18Z</time></trkpt><trkpt lat="42.29580330263174" lon="13.781087911893982"><ele>352.0</ele><time>2026-05-03T09:35:19Z</time></trkpt><trkpt lat="42.295724778361304" lon="13.781249046855166"><ele>352.0</ele><time>2026-05-03T09:35:20Z</time></trkpt><trkpt lat="42.29565605407225" lon="13.781411789698632"><ele>352.0</ele><time>2026-05-03T09:35:21Z</time></trkpt><trkpt lat="42.295560828142506" lon="13.781512883664185"><ele>352.0</ele><time>2026-05-03T09:35:22Z</time></trkpt><trkpt lat="42.29547060467862" lon="13.781594066436368"><ele>352.0</ele><time>2026-05-03T09:35:23Z</time></trkpt><trkpt lat="42.29536913550779" lon="13.781682099833203"><ele>352.0</ele><time>2026-05-03T09:35:24Z</time></trkpt><trkpt lat="42.29526461205161" lon="13.781783620965458"><ele>352.0</ele><time>2026-05-03T09:35:25Z</time></trkpt><trkpt lat="42.295155896715734" lon="13.781901270751657"><ele>352.0</ele><time>2026-05-03T09:35:26Z</time></trkpt><trkpt lat="42.29505744486965" lon="13.782039495885538"><ele>352.0</ele><time>2026-05-03T09:35:27Z</time></trkpt><trkpt lat="42.294943744103264" lon="13.78215977943428"><ele>352.0</ele><time>2026-05-03T09:35:28Z</time></trkpt><trkpt lat="42.29483498550979" lon="13.782285305010747"><ele>352.0</ele><time>2026-05-03T09:35:29Z</time></trkpt><trkpt lat="42.29473292941466" lon="13.782401178693183"><ele>352.0</ele><time>2026-05-03T09:35:30Z</time></trkpt><trkpt lat="42.29463089506268" lon="13.782524189970285"><ele>351.5</ele><time>2026-05-03T09:35:31Z</time></trkpt><trkpt lat="42.29452122490465" lon="13.782642564241735"><ele>351.0</ele><time>2026-05-03T09:35:32Z</time></trkpt><trkpt lat="42.29441722930609" lon="13.782771528821886"><ele>350.5</ele><time>2026-05-03T09:35:33Z</time></trkpt><trkpt lat="42.29431770748121" lon="13.782898096907035"><ele>350.0</ele><time>2026-05-03T09:35:34Z</time></trkpt><trkpt lat="42.29422548411966" lon="13.783021013667199"><ele>350.0</ele><time>2026-05-03T09:35:35Z</time></trkpt><trkpt lat="42.2941326331049" lon="13.783149576056827"><ele>350.0</ele><time>2026-05-03T09:35:36Z</time></trkpt><trkpt lat="42.29403949252243" lon="13.783279533715502"><ele>350.0</ele><time>2026-05-03T09:35:37Z</time></trkpt><trkpt lat="42.29394451677023" lon="13.783409437418221"><ele>350.0</ele><time>2026-05-03T09:35:38Z</time></trkpt><trkpt lat="42.29385480782626" lon="13.78352880710239"><ele>350.25</ele><time>2026-05-03T09:35:39Z</time></trkpt><trkpt lat="42.29377203963154" lon="13.783639630231752"><ele>350.5</ele><time>2026-05-03T09:35:40Z</time></trkpt><trkpt lat="42.293691254754606" lon="13.78375072615285"><ele>350.75</ele><time>2026-05-03T09:35:41Z</time></trkpt><trkpt lat="42.29360320296223" lon="13.783870312685448"><ele>351.0</ele><time>2026-05-03T09:35:42Z</time></trkpt><trkpt lat="42.29351116820037" lon="13.783990743543658"><ele>351.0</ele><time>2026-05-03T09:35:43Z</time></trkpt><trkpt lat="42.29341037331256" lon="13.784111199088631"><ele>351.0</ele><time>2026-05-03T09:35:44Z</time></trkpt><trkpt lat="42.29330442489051" lon="13.784223773154977"><ele>351.0</ele><time>2026-05-03T09:35:45Z</time></trkpt><trkpt lat="42.293199495948805" lon="13.784320499977827"><ele>351.0</ele><time>2026-05-03T09:35:46Z</time></trkpt><trkpt lat="42.293115602916636" lon="13.784390216906438"><ele>351.20000000000005</ele><time>2026-05-03T09:35:47Z</time></trkpt><trkpt lat="42.29303417160276" lon="13.784454641683908"><ele>351.40000000000003</ele><time>2026-05-03T09:35:48Z</time></trkpt><trkpt lat="42.29295400637385" lon="13.784514011008742"><ele>351.6</ele><time>2026-05-03T09:35:49Z</time></trkpt><trkpt lat="42.29286278106073" lon="13.784579272385388"><ele>351.8</ele><time>2026-05-03T09:35:50Z</time></trkpt><trkpt lat="42.29275951962565" lon="13.784649678072096"><ele>352.0</ele><time>2026-05-03T09:35:51Z</time></trkpt><trkpt lat="42.292652083454186" lon="13.784720052948819"><ele>352.0</ele><time>2026-05-03T09:35:52Z</time></trkpt><trkpt lat="42.29255486425171" lon="13.784781261602141"><ele>352.0</ele><time>2026-05-03T09:35:53Z</time></trkpt><trkpt lat="42.292467206314775" lon="13.784835272477281"><ele>352.0</ele><time>2026-05-03T09:35:54Z</time></trkpt><trkpt lat="42.292369407105824" lon="13.784891924782727"><ele>352.0</ele><time>2026-05-03T09:35:55Z</time></trkpt><trkpt lat="42.29226865640293" lon="13.784944065260406"><ele>352.0</ele><time>2026-05-03T09:35:56Z</time></trkpt><trkpt lat="42.29217019919512" lon="13.784983120203073"><ele>352.16666666666663</ele><time>2026-05-03T09:35:57Z</time></trkpt><trkpt lat="42.29207869804785" lon="13.785015850800775"><ele>352.3333333333333</ele><time>2026-05-03T09:35:58Z</time></trkpt><trkpt lat="42.292004457657384" lon="13.785042407134082"><ele>352.5</ele><time>2026-05-03T09:35:59Z</time></trkpt><trkpt lat="42.29193248282854" lon="13.785069884972271"><ele>352.6666666666667</ele><time>2026-05-03T09:36:00Z</time></trkpt><trkpt lat="42.291867729200455" lon="13.785119658890839"><ele>352.83333333333337</ele><time>2026-05-03T09:36:01Z</time></trkpt><trkpt lat="42.29179292340341" lon="13.785137529422542"><ele>353.0</ele><time>2026-05-03T09:36:02Z</time></trkpt><trkpt lat="42.29171342914657" lon="13.785182168175007"><ele>353.0</ele><time>2026-05-03T09:36:03Z</time></trkpt><trkpt lat="42.291623614269334" lon="13.785236100651899"><ele>353.0</ele><time>2026-05-03T09:36:04Z</time></trkpt><trkpt lat="42.29153689178299" lon="13.785293629414134"><ele>353.0</ele><time>2026-05-03T09:36:05Z</time></trkpt><trkpt lat="42.291439988464475" lon="13.78536130006551"><ele>353.0</ele><time>2026-05-03T09:36:06Z</time></trkpt><trkpt lat="42.29134173285838" lon="13.78543242272096"><ele>353.0</ele><time>2026-05-03T09:36:07Z</time></trkpt><trkpt lat="42.29124662355843" lon="13.785503469328882"><ele>352.59999999999997</ele><time>2026-05-03T09:36:08Z</time></trkpt><trkpt lat="42.29115285858438" lon="13.785573887222528"><ele>352.2</ele><time>2026-05-03T09:36:09Z</time></trkpt><trkpt lat="42.29106869680896" lon="13.785663901503481"><ele>351.8</ele><time>2026-05-03T09:36:10Z</time></trkpt><trkpt lat="42.290981512887726" lon="13.785727132629093"><ele>351.4</ele><time>2026-05-03T09:36:11Z</time></trkpt><trkpt lat="42.29089012454023" lon="13.785800146063275"><ele>351.0</ele><time>2026-05-03T09:36:12Z</time></trkpt><trkpt lat="42.29080225068473" lon="13.785845622425478"><ele>351.0</ele><time>2026-05-03T09:36:13Z</time></trkpt><trkpt lat="42.29071075995551" lon="13.785917413022595"><ele>351.0</ele><time>2026-05-03T09:36:14Z</time></trkpt><trkpt lat="42.29062009305943" lon="13.785989372695818"><ele>351.0</ele><time>2026-05-03T09:36:15Z</time></trkpt><trkpt lat="42.29051720351935" lon="13.786071033137857"><ele>351.0</ele><time>2026-05-03T09:36:16Z</time></trkpt><trkpt lat="42.29041655086869" lon="13.78615091821826"><ele>351.0</ele><time>2026-05-03T09:36:17Z</time></trkpt><trkpt lat="42.29031757963815" lon="13.786229468806196"><ele>351.20000000000005</ele><time>2026-05-03T09:36:18Z</time></trkpt><trkpt lat="42.290226182244155" lon="13.786302008245025"><ele>351.40000000000003</ele><time>2026-05-03T09:36:19Z</time></trkpt><trkpt lat="42.290129568969796" lon="13.786378687389835"><ele>351.6</ele><time>2026-05-03T09:36:20Z</time></trkpt><trkpt lat="42.290031781980126" lon="13.7864553398191"><ele>351.8</ele><time>2026-05-03T09:36:21Z</time></trkpt><trkpt lat="42.28993570049978" lon="13.786530449070314"><ele>352.0</ele><time>2026-05-03T09:36:22Z</time></trkpt><trkpt lat="42.28983600697032" lon="13.786608381929264"><ele>351.5</ele><time>2026-05-03T09:36:23Z</time></trkpt><trkpt lat="42.28973331911328" lon="13.78668710050344"><ele>351.0</ele><time>2026-05-03T09:36:24Z</time></trkpt><trkpt lat="42.28962783200541" lon="13.786766245037871"><ele>350.5</ele><time>2026-05-03T09:36:25Z</time></trkpt><trkpt lat="42.28951391605458" lon="13.786850838866675"><ele>350.0</ele><time>2026-05-03T09:36:26Z</time></trkpt><trkpt lat="42.289394528493084" lon="13.78693923158359"><ele>351.25</ele><time>2026-05-03T09:36:27Z</time></trkpt><trkpt lat="42.28927351320343" lon="13.78702983281912"><ele>352.5</ele><time>2026-05-03T09:36:28Z</time></trkpt><trkpt lat="42.289158827500245" lon="13.787120720974334"><ele>353.75</ele><time>2026-05-03T09:36:29Z</time></trkpt><trkpt lat="42.289048128460124" lon="13.78721366334456"><ele>355.0</ele><time>2026-05-03T09:36:30Z</time></trkpt><trkpt lat="42.28894314882678" lon="13.787306789671325"><ele>355.0</ele><time>2026-05-03T09:36:31Z</time></trkpt><trkpt lat="42.28884338910818" lon="13.787396593174785"><ele>355.0</ele><time>2026-05-03T09:36:32Z</time></trkpt><trkpt lat="42.28874147111703" lon="13.787488339573537"><ele>355.0</ele><time>2026-05-03T09:36:33Z</time></trkpt><trkpt lat="42.28864461461979" lon="13.787575529614989"><ele>355.0</ele><time>2026-05-03T09:36:34Z</time></trkpt><trkpt lat="42.28854439418543" lon="13.78766366301369"><ele>356.25</ele><time>2026-05-03T09:36:35Z</time></trkpt><trkpt lat="42.288438580605764" lon="13.787752546661721"><ele>357.5</ele><time>2026-05-03T09:36:36Z</time></trkpt><trkpt lat="42.288330349435334" lon="13.787841831734735"><ele>358.75</ele><time>2026-05-03T09:36:37Z</time></trkpt><trkpt lat="42.28822311486077" lon="13.787922785417354"><ele>360.0</ele><time>2026-05-03T09:36:38Z</time></trkpt><trkpt lat="42.28812259296442" lon="13.787988008683486"><ele>360.4</ele><time>2026-05-03T09:36:39Z</time></trkpt><trkpt lat="42.2880373422918" lon="13.788023470365385"><ele>360.8</ele><time>2026-05-03T09:36:40Z</time></trkpt><trkpt lat="42.28794647707324" lon="13.788038979063927"><ele>361.20000000000005</ele><time>2026-05-03T09:36:41Z</time></trkpt><trkpt lat="42.28784357790979" lon="13.788059038218028"><ele>361.6</ele><time>2026-05-03T09:36:42Z</time></trkpt><trkpt lat="42.28773963431896" lon="13.788095365165344"><ele>362.0</ele><time>2026-05-03T09:36:43Z</time></trkpt><trkpt lat="42.287639957721964" lon="13.788137531654463"><ele>362.0</ele><time>2026-05-03T09:36:44Z</time></trkpt><trkpt lat="42.28754307351742" lon="13.788183520267886"><ele>362.0</ele><time>2026-05-03T09:36:45Z</time></trkpt><trkpt lat="42.287443868616144" lon="13.788234497470386"><ele>362.0</ele><time>2026-05-03T09:36:46Z</time></trkpt><trkpt lat="42.28735341404471" lon="13.78828425685037"><ele>362.0</ele><time>2026-05-03T09:36:47Z</time></trkpt><trkpt lat="42.28727736222821" lon="13.788327266940225"><ele>362.0</ele><time>2026-05-03T09:36:48Z</time></trkpt><trkpt lat="42.2872040261714" lon="13.788371460297299"><ele>362.0</ele><time>2026-05-03T09:36:49Z</time></trkpt><trkpt lat="42.28712587472211" lon="13.788418531488208"><ele>362.0</ele><time>2026-05-03T09:36:50Z</time></trkpt><trkpt lat="42.287036387935316" lon="13.788473868683855"><ele>362.0</ele><time>2026-05-03T09:36:51Z</time></trkpt><trkpt lat="42.28696219520387" lon="13.788519948491361"><ele>362.0</ele><time>2026-05-03T09:36:52Z</time></trkpt><trkpt lat="42.28689093304127" lon="13.788564208201466"><ele>362.0</ele><time>2026-05-03T09:36:53Z</time></trkpt><trkpt lat="42.28682514293495" lon="13.788605069347547"><ele>362.0</ele><time>2026-05-03T09:36:54Z</time></trkpt><trkpt lat="42.286726335329234" lon="13.788670829594045"><ele>362.0</ele><time>2026-05-03T09:36:56Z</time></trkpt><trkpt lat="42.2866573123471" lon="13.788717448022204"><ele>362.0</ele><time>2026-05-03T09:36:58Z</time></trkpt><trkpt lat="42.2865986292333" lon="13.78876178744862"><ele>362.0</ele><time>2026-05-03T09:37:00Z</time></trkpt><trkpt lat="42.28657012731404" lon="13.788671063058624"><ele>362.0</ele><time>2026-05-03T09:37:04Z</time></trkpt><trkpt lat="42.28660408496899" lon="13.788554423562985"><ele>362.0</ele><time>2026-05-03T09:37:19Z</time></trkpt><trkpt lat="42.28658772932386" lon="13.788365090723508"><ele>361.0</ele><time>2026-05-03T09:37:21Z</time></trkpt><trkpt lat="42.286570536634336" lon="13.7882142312757"><ele>360.0</ele><time>2026-05-03T09:37:22Z</time></trkpt><trkpt lat="42.28655353324512" lon="13.788047165360133"><ele>359.0</ele><time>2026-05-03T09:37:23Z</time></trkpt><trkpt lat="42.28653433502913" lon="13.78786402205222"><ele>358.0</ele><time>2026-05-03T09:37:24Z</time></trkpt><trkpt lat="42.28651057021924" lon="13.787667119363357"><ele>356.3333333333333</ele><time>2026-05-03T09:37:25Z</time></trkpt><trkpt lat="42.28648680656891" lon="13.787459772845038"><ele>354.6666666666667</ele><time>2026-05-03T09:37:26Z</time></trkpt><trkpt lat="42.28646261481263" lon="13.787247086300408"><ele>353.0</ele><time>2026-05-03T09:37:27Z</time></trkpt><trkpt lat="42.28643601017881" lon="13.787047059282676"><ele>352.0</ele><time>2026-05-03T09:37:28Z</time></trkpt><trkpt lat="42.2864094496479" lon="13.78685138197691"><ele>351.0</ele><time>2026-05-03T09:37:29Z</time></trkpt><trkpt lat="42.28637892995809" lon="13.786653444986747"><ele>350.0</ele><time>2026-05-03T09:37:30Z</time></trkpt><trkpt lat="42.28634697371599" lon="13.78644521601043"><ele>348.0</ele><time>2026-05-03T09:37:31Z</time></trkpt><trkpt lat="42.286316357621565" lon="13.786236588681517"><ele>346.0</ele><time>2026-05-03T09:37:32Z</time></trkpt><trkpt lat="42.28628623436248" lon="13.786025234632582"><ele>344.0</ele><time>2026-05-03T09:37:33Z</time></trkpt><trkpt lat="42.28625410230295" lon="13.785806806257604"><ele>343.6666666666667</ele><time>2026-05-03T09:37:34Z</time></trkpt><trkpt lat="42.28622390002365" lon="13.78558958759908"><ele>343.3333333333333</ele><time>2026-05-03T09:37:35Z</time></trkpt><trkpt lat="42.28619666887299" lon="13.785376697608982"><ele>343.0</ele><time>2026-05-03T09:37:36Z</time></trkpt><trkpt lat="42.28617091700202" lon="13.785154871106654"><ele>343.0</ele><time>2026-05-03T09:37:37Z</time></trkpt><trkpt lat="42.28614577064222" lon="13.78492414056412"><ele>343.0</ele><time>2026-05-03T09:37:38Z</time></trkpt><trkpt lat="42.28611736420219" lon="13.784685793132654"><ele>343.0</ele><time>2026-05-03T09:37:39Z</time></trkpt><trkpt lat="42.28608801664117" lon="13.784436726638734"><ele>343.66666666666663</ele><time>2026-05-03T09:37:40Z</time></trkpt><trkpt lat="42.28605834829187" lon="13.78417199297983"><ele>344.3333333333333</ele><time>2026-05-03T09:37:41Z</time></trkpt><trkpt lat="42.28602756063573" lon="13.78390296271781"><ele>345.0</ele><time>2026-05-03T09:37:42Z</time></trkpt><trkpt lat="42.28599660834438" lon="13.783636922915838"><ele>345.3333333333333</ele><time>2026-05-03T09:37:43Z</time></trkpt><trkpt lat="42.28596835180126" lon="13.783385132316534"><ele>345.66666666666663</ele><time>2026-05-03T09:37:44Z</time></trkpt><trkpt lat="42.28594064595284" lon="13.783146628925438"><ele>346.0</ele><time>2026-05-03T09:37:45Z</time></trkpt><trkpt lat="42.28591484842901" lon="13.782922033974133"><ele>346.0</ele><time>2026-05-03T09:37:46Z</time></trkpt><trkpt lat="42.285887363764246" lon="13.782708540834776"><ele>346.0</ele><time>2026-05-03T09:37:47Z</time></trkpt><trkpt lat="42.28584924581965" lon="13.782494080155592"><ele>346.0</ele><time>2026-05-03T09:37:48Z</time></trkpt><trkpt lat="42.285791678412345" lon="13.78227316324868"><ele>345.3333333333333</ele><time>2026-05-03T09:37:49Z</time></trkpt><trkpt lat="42.28571607989591" lon="13.782054057086919"><ele>344.6666666666667</ele><time>2026-05-03T09:37:50Z</time></trkpt><trkpt lat="42.28564245457381" lon="13.781818518883869"><ele>344.0</ele><time>2026-05-03T09:37:51Z</time></trkpt><trkpt lat="42.28553374351484" lon="13.781600895211502"><ele>344.0</ele><time>2026-05-03T09:37:52Z</time></trkpt><trkpt lat="42.285452263325126" lon="13.78135831867039"><ele>344.0</ele><time>2026-05-03T09:37:53Z</time></trkpt><trkpt lat="42.28534275997373" lon="13.781131611934985"><ele>344.0</ele><time>2026-05-03T09:37:54Z</time></trkpt><trkpt lat="42.28524655533908" lon="13.780891458809718"><ele>343.6666666666667</ele><time>2026-05-03T09:37:55Z</time></trkpt><trkpt lat="42.285148429594024" lon="13.780650841855088"><ele>343.3333333333333</ele><time>2026-05-03T09:37:56Z</time></trkpt><trkpt lat="42.285048572247625" lon="13.78041089338302"><ele>343.0</ele><time>2026-05-03T09:37:57Z</time></trkpt><trkpt lat="42.28494930419156" lon="13.780169081550257"><ele>343.0</ele><time>2026-05-03T09:37:58Z</time></trkpt><trkpt lat="42.28485325897419" lon="13.779930627483303"><ele>343.0</ele><time>2026-05-03T09:37:59Z</time></trkpt><trkpt lat="42.28475578270362" lon="13.779692828817643"><ele>343.0</ele><time>2026-05-03T09:38:00Z</time></trkpt><trkpt lat="42.284658612088464" lon="13.779457801220518"><ele>343.0</ele><time>2026-05-03T09:38:01Z</time></trkpt><trkpt lat="42.28456357661474" lon="13.779225317926192"><ele>343.0</ele><time>2026-05-03T09:38:02Z</time></trkpt><trkpt lat="42.28446969304107" lon="13.778994228771557"><ele>343.0</ele><time>2026-05-03T09:38:03Z</time></trkpt><trkpt lat="42.284377380121555" lon="13.778765668212115"><ele>343.0</ele><time>2026-05-03T09:38:04Z</time></trkpt><trkpt lat="42.284283540819054" lon="13.778537181512307"><ele>343.0</ele><time>2026-05-03T09:38:05Z</time></trkpt><trkpt lat="42.284190697545" lon="13.778312472752521"><ele>343.0</ele><time>2026-05-03T09:38:06Z</time></trkpt><trkpt lat="42.284099394419314" lon="13.778089646122172"><ele>343.3333333333333</ele><time>2026-05-03T09:38:07Z</time></trkpt><trkpt lat="42.28401017394143" lon="13.777866847766452"><ele>343.6666666666667</ele><time>2026-05-03T09:38:08Z</time></trkpt><trkpt lat="42.28391995859528" lon="13.777647055168545"><ele>344.0</ele><time>2026-05-03T09:38:09Z</time></trkpt><trkpt lat="42.283831247738824" lon="13.77742909181459"><ele>344.33333333333337</ele><time>2026-05-03T09:38:10Z</time></trkpt><trkpt lat="42.28374199912578" lon="13.777212372443985"><ele>344.6666666666667</ele><time>2026-05-03T09:38:11Z</time></trkpt><trkpt lat="42.28365382344717" lon="13.776998851913843"><ele>345.0</ele><time>2026-05-03T09:38:12Z</time></trkpt><trkpt lat="42.28356798450967" lon="13.776785333048648"><ele>345.0</ele><time>2026-05-03T09:38:13Z</time></trkpt><trkpt lat="42.283481178534224" lon="13.776571507196692"><ele>345.0</ele><time>2026-05-03T09:38:14Z</time></trkpt><trkpt lat="42.28339394194195" lon="13.776357264457912"><ele>345.0</ele><time>2026-05-03T09:38:15Z</time></trkpt><trkpt lat="42.28330654282579" lon="13.776147490992383"><ele>345.0</ele><time>2026-05-03T09:38:16Z</time></trkpt><trkpt lat="42.28322175011758" lon="13.775945726744629"><ele>345.0</ele><time>2026-05-03T09:38:17Z</time></trkpt><trkpt lat="42.28314399307447" lon="13.775754870953705"><ele>345.0</ele><time>2026-05-03T09:38:18Z</time></trkpt><trkpt lat="42.28308654411136" lon="13.775563926784573"><ele>345.0</ele><time>2026-05-03T09:38:19Z</time></trkpt><trkpt lat="42.28300313112267" lon="13.775406250805917"><ele>345.0</ele><time>2026-05-03T09:38:20Z</time></trkpt><trkpt lat="42.28293714020299" lon="13.77525190796814"><ele>345.0</ele><time>2026-05-03T09:38:21Z</time></trkpt><trkpt lat="42.28286698904423" lon="13.775114877769632"><ele>345.0</ele><time>2026-05-03T09:38:22Z</time></trkpt><trkpt lat="42.28279975694276" lon="13.774972565254247"><ele>345.75</ele><time>2026-05-03T09:38:23Z</time></trkpt><trkpt lat="42.282695309235855" lon="13.774873283904348"><ele>346.5</ele><time>2026-05-03T09:38:24Z</time></trkpt><trkpt lat="42.2825859988238" lon="13.774775749109768"><ele>347.25</ele><time>2026-05-03T09:38:25Z</time></trkpt><trkpt lat="42.28246915006709" lon="13.774675748796836"><ele>348.0</ele><time>2026-05-03T09:38:26Z</time></trkpt><trkpt lat="42.28231590946097" lon="13.774633105433796"><ele>348.3333333333333</ele><time>2026-05-03T09:38:27Z</time></trkpt><trkpt lat="42.282157871589035" lon="13.77459635654349"><ele>348.66666666666663</ele><time>2026-05-03T09:38:28Z</time></trkpt><trkpt lat="42.28200011302046" lon="13.774563241231478"><ele>349.0</ele><time>2026-05-03T09:38:29Z</time></trkpt><trkpt lat="42.28185060639119" lon="13.77454496762081"><ele>349.0</ele><time>2026-05-03T09:38:30Z</time></trkpt><trkpt lat="42.281723744328055" lon="13.77448516983187"><ele>349.0</ele><time>2026-05-03T09:38:31Z</time></trkpt><trkpt lat="42.28162190321655" lon="13.774400457400452"><ele>349.0</ele><time>2026-05-03T09:38:32Z</time></trkpt><trkpt lat="42.28152526164023" lon="13.774293574163647"><ele>349.0</ele><time>2026-05-03T09:38:33Z</time></trkpt><trkpt lat="42.28143112385349" lon="13.774168224880569"><ele>349.66666666666663</ele><time>2026-05-03T09:38:34Z</time></trkpt><trkpt lat="42.281329215322835" lon="13.774029871222647"><ele>350.3333333333333</ele><time>2026-05-03T09:38:35Z</time></trkpt><trkpt lat="42.28121638851442" lon="13.773887072443857"><ele>351.0</ele><time>2026-05-03T09:38:36Z</time></trkpt><trkpt lat="42.28109832226838" lon="13.773735753050792"><ele>351.0</ele><time>2026-05-03T09:38:37Z</time></trkpt><trkpt lat="42.2809788997554" lon="13.7735805754826"><ele>351.0</ele><time>2026-05-03T09:38:38Z</time></trkpt><trkpt lat="42.280868181388215" lon="13.773417122144524"><ele>351.0</ele><time>2026-05-03T09:38:39Z</time></trkpt><trkpt lat="42.28077333562228" lon="13.773231450478113"><ele>351.6666666666667</ele><time>2026-05-03T09:38:40Z</time></trkpt><trkpt lat="42.280681625008974" lon="13.773040973301212"><ele>352.33333333333337</ele><time>2026-05-03T09:38:41Z</time></trkpt><trkpt lat="42.280583266791375" lon="13.772851026348397"><ele>353.0</ele><time>2026-05-03T09:38:42Z</time></trkpt><trkpt lat="42.28049021466502" lon="13.772668881340435"><ele>353.5</ele><time>2026-05-03T09:38:43Z</time></trkpt><trkpt lat="42.28040790031986" lon="13.772504093542107"><ele>354.0</ele><time>2026-05-03T09:38:44Z</time></trkpt><trkpt lat="42.280339456478" lon="13.772376157980787"><ele>354.5</ele><time>2026-05-03T09:38:45Z</time></trkpt><trkpt lat="42.280271343034215" lon="13.772268316948615"><ele>355.0</ele><time>2026-05-03T09:38:46Z</time></trkpt><trkpt lat="42.280194788247535" lon="13.772183230870018"><ele>355.0</ele><time>2026-05-03T09:38:47Z</time></trkpt><trkpt lat="42.28009408034368" lon="13.77212199029826"><ele>355.0</ele><time>2026-05-03T09:38:48Z</time></trkpt><trkpt lat="42.27999158143084" lon="13.77203216557419"><ele>355.0</ele><time>2026-05-03T09:38:49Z</time></trkpt><trkpt lat="42.27988668994807" lon="13.771948160282582"><ele>355.0</ele><time>2026-05-03T09:38:50Z</time></trkpt><trkpt lat="42.27978545989254" lon="13.771870515655133"><ele>355.5</ele><time>2026-05-03T09:38:51Z</time></trkpt><trkpt lat="42.27970407699046" lon="13.771758580388628"><ele>356.0</ele><time>2026-05-03T09:38:52Z</time></trkpt><trkpt lat="42.27963757722917" lon="13.77162775466106"><ele>356.5</ele><time>2026-05-03T09:38:53Z</time></trkpt><trkpt lat="42.27958217730401" lon="13.771474555635077"><ele>357.0</ele><time>2026-05-03T09:38:54Z</time></trkpt><trkpt lat="42.27952622658461" lon="13.771306857221603"><ele>357.0</ele><time>2026-05-03T09:38:55Z</time></trkpt><trkpt lat="42.279465877108606" lon="13.771131473947145"><ele>357.0</ele><time>2026-05-03T09:38:56Z</time></trkpt><trkpt lat="42.27940141898174" lon="13.770944222164829"><ele>357.0</ele><time>2026-05-03T09:38:57Z</time></trkpt><trkpt lat="42.27933351787876" lon="13.770755034993396"><ele>357.5</ele><time>2026-05-03T09:38:58Z</time></trkpt><trkpt lat="42.279264156342606" lon="13.770568248418686"><ele>358.0</ele><time>2026-05-03T09:38:59Z</time></trkpt><trkpt lat="42.27919843473948" lon="13.77038604531526"><ele>358.5</ele><time>2026-05-03T09:39:00Z</time></trkpt><trkpt lat="42.27913974188243" lon="13.770217038497437"><ele>359.0</ele><time>2026-05-03T09:39:01Z</time></trkpt><trkpt lat="42.279088060895006" lon="13.770062979265795"><ele>359.2</ele><time>2026-05-03T09:39:02Z</time></trkpt><trkpt lat="42.2790384024788" lon="13.76991948478679"><ele>359.4</ele><time>2026-05-03T09:39:03Z</time></trkpt><trkpt lat="42.27898981291832" lon="13.769783937434765"><ele>359.6</ele><time>2026-05-03T09:39:04Z</time></trkpt><trkpt lat="42.27894576118089" lon="13.769659771889005"><ele>359.8</ele><time>2026-05-03T09:39:05Z</time></trkpt><trkpt lat="42.27890920353748" lon="13.769550540669488"><ele>360.0</ele><time>2026-05-03T09:39:06Z</time></trkpt><trkpt lat="42.27888130120911" lon="13.769462497358248"><ele>360.0</ele><time>2026-05-03T09:39:07Z</time></trkpt><trkpt lat="42.278853271069664" lon="13.76936540447073"><ele>360.0</ele><time>2026-05-03T09:39:09Z</time></trkpt><trkpt lat="42.278716685207414" lon="13.76939198964637"><ele>360.0</ele><time>2026-05-03T09:39:11Z</time></trkpt><trkpt lat="42.278637033329126" lon="13.769477019077058"><ele>360.0</ele><time>2026-05-03T09:39:12Z</time></trkpt><trkpt lat="42.278529213091986" lon="13.769566725869113"><ele>360.0</ele><time>2026-05-03T09:39:13Z</time></trkpt><trkpt lat="42.278416338930136" lon="13.769694370537602"><ele>360.0</ele><time>2026-05-03T09:39:14Z</time></trkpt><trkpt lat="42.278293192939294" lon="13.769837860305136"><ele>360.0</ele><time>2026-05-03T09:39:15Z</time></trkpt><trkpt lat="42.27817522905952" lon="13.76997558099436"><ele>360.0</ele><time>2026-05-03T09:39:16Z</time></trkpt><trkpt lat="42.27806025601704" lon="13.770136493750837"><ele>358.0</ele><time>2026-05-03T09:39:17Z</time></trkpt><trkpt lat="42.27793037365032" lon="13.770280518246768"><ele>356.0</ele><time>2026-05-03T09:39:18Z</time></trkpt><trkpt lat="42.27780900411028" lon="13.770424338014541"><ele>354.0</ele><time>2026-05-03T09:39:19Z</time></trkpt><trkpt lat="42.27769588571703" lon="13.77055408712906"><ele>354.0</ele><time>2026-05-03T09:39:20Z</time></trkpt><trkpt lat="42.277586146741605" lon="13.77065135975844"><ele>354.0</ele><time>2026-05-03T09:39:21Z</time></trkpt><trkpt lat="42.27747664254837" lon="13.770706603390845"><ele>354.0</ele><time>2026-05-03T09:39:22Z</time></trkpt><trkpt lat="42.27737449709196" lon="13.770727638227374"><ele>354.0</ele><time>2026-05-03T09:39:23Z</time></trkpt><trkpt lat="42.27725987091856" lon="13.770727563978246"><ele>352.5</ele><time>2026-05-03T09:39:24Z</time></trkpt><trkpt lat="42.277131493088525" lon="13.770714577444805"><ele>351.0</ele><time>2026-05-03T09:39:25Z</time></trkpt><trkpt lat="42.27699156119628" lon="13.770699710205246"><ele>349.5</ele><time>2026-05-03T09:39:26Z</time></trkpt><trkpt lat="42.27684015824272" lon="13.770688909794064"><ele>348.0</ele><time>2026-05-03T09:39:27Z</time></trkpt><trkpt lat="42.276680888239945" lon="13.770650370139528"><ele>348.0</ele><time>2026-05-03T09:39:28Z</time></trkpt><trkpt lat="42.27651247446778" lon="13.77062948809756"><ele>348.0</ele><time>2026-05-03T09:39:29Z</time></trkpt><trkpt lat="42.276340451181106" lon="13.770607378141532"><ele>348.0</ele><time>2026-05-03T09:39:30Z</time></trkpt><trkpt lat="42.27617176070034" lon="13.770584637994643"><ele>346.6666666666667</ele><time>2026-05-03T09:39:31Z</time></trkpt><trkpt lat="42.276009007387295" lon="13.770559761031132"><ele>345.33333333333337</ele><time>2026-05-03T09:39:32Z</time></trkpt><trkpt lat="42.2758509976866" lon="13.770535403097895"><ele>344.0</ele><time>2026-05-03T09:39:33Z</time></trkpt><trkpt lat="42.27570283899248" lon="13.77052995124919"><ele>346.0</ele><time>2026-05-03T09:39:34Z</time></trkpt><trkpt lat="42.27556946360397" lon="13.770520444459542"><ele>348.0</ele><time>2026-05-03T09:39:35Z</time></trkpt><trkpt lat="42.27544388684627" lon="13.770511166804225"><ele>350.0</ele><time>2026-05-03T09:39:36Z</time></trkpt><trkpt lat="42.27532296286221" lon="13.770574596212796"><ele>352.0</ele><time>2026-05-03T09:39:37Z</time></trkpt><trkpt lat="42.27520528220437" lon="13.770626794883366"><ele>352.0</ele><time>2026-05-03T09:39:38Z</time></trkpt><trkpt lat="42.2750997768956" lon="13.770679726507092"><ele>352.0</ele><time>2026-05-03T09:39:39Z</time></trkpt><trkpt lat="42.275013487495094" lon="13.770750243027068"><ele>352.0</ele><time>2026-05-03T09:39:40Z</time></trkpt><trkpt lat="42.27493438181675" lon="13.770843242228539"><ele>352.0</ele><time>2026-05-03T09:39:41Z</time></trkpt><trkpt lat="42.27490234899239" lon="13.771010030411395"><ele>352.0</ele><time>2026-05-03T09:39:42Z</time></trkpt><trkpt lat="42.274852926121916" lon="13.77118674002036"><ele>353.66666666666663</ele><time>2026-05-03T09:39:43Z</time></trkpt><trkpt lat="42.2748121222718" lon="13.771386927185988"><ele>355.3333333333333</ele><time>2026-05-03T09:39:44Z</time></trkpt><trkpt lat="42.27476410054598" lon="13.771606197332641"><ele>357.0</ele><time>2026-05-03T09:39:45Z</time></trkpt><trkpt lat="42.27471466900458" lon="13.771829020971353"><ele>356.25</ele><time>2026-05-03T09:39:46Z</time></trkpt><trkpt lat="42.274669943974196" lon="13.772025467605246"><ele>355.5</ele><time>2026-05-03T09:39:47Z</time></trkpt><trkpt lat="42.274629307920996" lon="13.772198072394632"><ele>354.75</ele><time>2026-05-03T09:39:48Z</time></trkpt><trkpt lat="42.27460722494496" lon="13.772363652836725"><ele>354.0</ele><time>2026-05-03T09:39:49Z</time></trkpt><trkpt lat="42.274555207274524" lon="13.772512757450833"><ele>354.0</ele><time>2026-05-03T09:39:50Z</time></trkpt><trkpt lat="42.2744811866045" lon="13.772648468690958"><ele>354.0</ele><time>2026-05-03T09:39:51Z</time></trkpt><trkpt lat="42.274387809563805" lon="13.772774644104766"><ele>354.0</ele><time>2026-05-03T09:39:52Z</time></trkpt><trkpt lat="42.27428433106373" lon="13.772899957029768"><ele>354.0</ele><time>2026-05-03T09:39:53Z</time></trkpt><trkpt lat="42.2741804013071" lon="13.773029663624062"><ele>354.0</ele><time>2026-05-03T09:39:54Z</time></trkpt><trkpt lat="42.27407409183" lon="13.77316914917348"><ele>354.0</ele><time>2026-05-03T09:39:55Z</time></trkpt><trkpt lat="42.27395353626766" lon="13.773289319013486"><ele>354.0</ele><time>2026-05-03T09:39:56Z</time></trkpt><trkpt lat="42.27383884207427" lon="13.77342268288164"><ele>354.0</ele><time>2026-05-03T09:39:57Z</time></trkpt><trkpt lat="42.27371442893373" lon="13.773565874974247"><ele>354.0</ele><time>2026-05-03T09:39:58Z</time></trkpt><trkpt lat="42.27359064101871" lon="13.773735865695723"><ele>354.0</ele><time>2026-05-03T09:39:59Z</time></trkpt><trkpt lat="42.27345592554575" lon="13.77388413555809"><ele>354.0</ele><time>2026-05-03T09:40:00Z</time></trkpt><trkpt lat="42.27331989342351" lon="13.774018860315266"><ele>354.0</ele><time>2026-05-03T09:40:01Z</time></trkpt><trkpt lat="42.27321534446827" lon="13.774189159371808"><ele>354.0</ele><time>2026-05-03T09:40:02Z</time></trkpt><trkpt lat="42.273106018497764" lon="13.774354155594027"><ele>354.0</ele><time>2026-05-03T09:40:03Z</time></trkpt><trkpt lat="42.27298852379424" lon="13.774520156983996"><ele>355.0</ele><time>2026-05-03T09:40:04Z</time></trkpt><trkpt lat="42.27288342394933" lon="13.774705295395172"><ele>356.0</ele><time>2026-05-03T09:40:05Z</time></trkpt><trkpt lat="42.272776725880036" lon="13.774891577007345"><ele>357.0</ele><time>2026-05-03T09:40:06Z</time></trkpt><trkpt lat="42.27268955905831" lon="13.77507114706614"><ele>356.20000000000005</ele><time>2026-05-03T09:40:07Z</time></trkpt><trkpt lat="42.272602897504086" lon="13.775214726793852"><ele>355.4</ele><time>2026-05-03T09:40:08Z</time></trkpt><trkpt lat="42.27253056324463" lon="13.775337355508663"><ele>354.6</ele><time>2026-05-03T09:40:09Z</time></trkpt><trkpt lat="42.27247592385918" lon="13.775426344460357"><ele>353.79999999999995</ele><time>2026-05-03T09:40:10Z</time></trkpt><trkpt lat="42.27243334700324" lon="13.775494954900546"><ele>353.0</ele><time>2026-05-03T09:40:11Z</time></trkpt><trkpt lat="42.272343542579456" lon="13.775619157511533"><ele>353.0</ele><time>2026-05-03T09:40:13Z</time></trkpt><trkpt lat="42.272331845845024" lon="13.775747743325411"><ele>353.0</ele><time>2026-05-03T09:40:14Z</time></trkpt><trkpt lat="42.27229996410737" lon="13.775859665198489"><ele>353.0</ele><time>2026-05-03T09:40:15Z</time></trkpt><trkpt lat="42.27227212485307" lon="13.775997693307861"><ele>353.0</ele><time>2026-05-03T09:40:16Z</time></trkpt><trkpt lat="42.27223091646924" lon="13.776156873057369"><ele>353.0</ele><time>2026-05-03T09:40:17Z</time></trkpt><trkpt lat="42.272216331707824" lon="13.776360968056027"><ele>352.33333333333337</ele><time>2026-05-03T09:40:18Z</time></trkpt><trkpt lat="42.27221163140986" lon="13.776586445898468"><ele>351.6666666666667</ele><time>2026-05-03T09:40:19Z</time></trkpt><trkpt lat="42.27218951053169" lon="13.776796395004911"><ele>351.0</ele><time>2026-05-03T09:40:20Z</time></trkpt><trkpt lat="42.27216637734441" lon="13.777013103333886"><ele>350.0</ele><time>2026-05-03T09:40:21Z</time></trkpt><trkpt lat="42.272143692364494" lon="13.777227700516741"><ele>349.0</ele><time>2026-05-03T09:40:22Z</time></trkpt><trkpt lat="42.272123198710744" lon="13.77745048482183"><ele>348.0</ele><time>2026-05-03T09:40:23Z</time></trkpt><trkpt lat="42.27210636957134" lon="13.777663962571543"><ele>347.3333333333333</ele><time>2026-05-03T09:40:24Z</time></trkpt><trkpt lat="42.27208750873045" lon="13.777881814388582"><ele>346.66666666666663</ele><time>2026-05-03T09:40:25Z</time></trkpt><trkpt lat="42.27206740015943" lon="13.778096126915544"><ele>346.0</ele><time>2026-05-03T09:40:26Z</time></trkpt><trkpt lat="42.27204652134292" lon="13.778309384366525"><ele>345.0</ele><time>2026-05-03T09:40:27Z</time></trkpt><trkpt lat="42.272025919398004" lon="13.778519302307727"><ele>344.0</ele><time>2026-05-03T09:40:28Z</time></trkpt><trkpt lat="42.27200253687846" lon="13.778729918830619"><ele>343.0</ele><time>2026-05-03T09:40:29Z</time></trkpt><trkpt lat="42.271979498913346" lon="13.77893624758971"><ele>343.0</ele><time>2026-05-03T09:40:30Z</time></trkpt><trkpt lat="42.27195892856715" lon="13.779116972498146"><ele>343.0</ele><time>2026-05-03T09:40:31Z</time></trkpt><trkpt lat="42.271939891136554" lon="13.779273048754021"><ele>343.0</ele><time>2026-05-03T09:40:32Z</time></trkpt><trkpt lat="42.271922539296874" lon="13.77941566837374"><ele>343.0</ele><time>2026-05-03T09:40:33Z</time></trkpt><trkpt lat="42.27189900349803" lon="13.779550236836398"><ele>342.4</ele><time>2026-05-03T09:40:34Z</time></trkpt><trkpt lat="42.271867525591354" lon="13.779678021375041"><ele>341.79999999999995</ele><time>2026-05-03T09:40:35Z</time></trkpt><trkpt lat="42.271819105858704" lon="13.779805089740643"><ele>341.2</ele><time>2026-05-03T09:40:36Z</time></trkpt><trkpt lat="42.27175271217374" lon="13.779908814964568"><ele>340.6</ele><time>2026-05-03T09:40:37Z</time></trkpt><trkpt lat="42.271700869299835" lon="13.7799945627521"><ele>340.0</ele><time>2026-05-03T09:40:38Z</time></trkpt><trkpt lat="42.271634378939886" lon="13.78010043515898"><ele>340.25</ele><time>2026-05-03T09:40:39Z</time></trkpt><trkpt lat="42.27154857343397" lon="13.780194012781044"><ele>340.5</ele><time>2026-05-03T09:40:40Z</time></trkpt><trkpt lat="42.27147805381271" lon="13.780329041717307"><ele>340.75</ele><time>2026-05-03T09:40:41Z</time></trkpt><trkpt lat="42.271392507949884" lon="13.780456445438382"><ele>341.0</ele><time>2026-05-03T09:40:42Z</time></trkpt><trkpt lat="42.271303781253515" lon="13.78058477769345"><ele>341.0</ele><time>2026-05-03T09:40:43Z</time></trkpt><trkpt lat="42.27122284462813" lon="13.780707905009578"><ele>341.0</ele><time>2026-05-03T09:40:44Z</time></trkpt><trkpt lat="42.271151874895374" lon="13.780820558815147"><ele>341.0</ele><time>2026-05-03T09:40:45Z</time></trkpt><trkpt lat="42.27109495182841" lon="13.780908704090894"><ele>341.0</ele><time>2026-05-03T09:40:46Z</time></trkpt><trkpt lat="42.27104947055282" lon="13.780977223703479"><ele>341.0</ele><time>2026-05-03T09:40:47Z</time></trkpt><trkpt lat="42.27100070275344" lon="13.781053826927627"><ele>340.1666666666667</ele><time>2026-05-03T09:40:49Z</time></trkpt><trkpt lat="42.270943108260695" lon="13.78112617418074"><ele>339.33333333333337</ele><time>2026-05-03T09:40:52Z</time></trkpt><trkpt lat="42.27089447669064" lon="13.781188292750135"><ele>338.5</ele><time>2026-05-03T09:40:53Z</time></trkpt><trkpt lat="42.27083083929821" lon="13.78126692397278"><ele>337.6666666666667</ele><time>2026-05-03T09:40:54Z</time></trkpt><trkpt lat="42.270754132124104" lon="13.781345803812178"><ele>336.8333333333333</ele><time>2026-05-03T09:40:55Z</time></trkpt><trkpt lat="42.27065218006177" lon="13.781385671338024"><ele>336.0</ele><time>2026-05-03T09:40:56Z</time></trkpt><trkpt lat="42.27053453040977" lon="13.781438727625533"><ele>336.0</ele><time>2026-05-03T09:40:57Z</time></trkpt><trkpt lat="42.270415988062084" lon="13.781531355418306"><ele>336.0</ele><time>2026-05-03T09:40:58Z</time></trkpt><trkpt lat="42.270293692166945" lon="13.781627168881718"><ele>336.0</ele><time>2026-05-03T09:40:59Z</time></trkpt><trkpt lat="42.270179437099046" lon="13.781723225771906"><ele>336.0</ele><time>2026-05-03T09:41:00Z</time></trkpt><trkpt lat="42.27007754982906" lon="13.781800759704833"><ele>335.4</ele><time>2026-05-03T09:41:01Z</time></trkpt><trkpt lat="42.26999573970133" lon="13.781863952431381"><ele>334.8</ele><time>2026-05-03T09:41:02Z</time></trkpt><trkpt lat="42.269904682653866" lon="13.781899333046733"><ele>334.2</ele><time>2026-05-03T09:41:03Z</time></trkpt><trkpt lat="42.26980030804799" lon="13.78194355599742"><ele>333.59999999999997</ele><time>2026-05-03T09:41:04Z</time></trkpt><trkpt lat="42.269685242867276" lon="13.781980737878166"><ele>333.0</ele><time>2026-05-03T09:41:05Z</time></trkpt><trkpt lat="42.269574513501915" lon="13.782033297396634"><ele>334.4</ele><time>2026-05-03T09:41:06Z</time></trkpt><trkpt lat="42.26948555876836" lon="13.782080440512411"><ele>335.79999999999995</ele><time>2026-05-03T09:41:07Z</time></trkpt><trkpt lat="42.26942696175271" lon="13.782161994517551"><ele>337.2</ele><time>2026-05-03T09:41:08Z</time></trkpt><trkpt lat="42.269387899748054" lon="13.782272447613297"><ele>338.6</ele><time>2026-05-03T09:41:09Z</time></trkpt><trkpt lat="42.26934204049232" lon="13.782404042562224"><ele>340.0</ele><time>2026-05-03T09:41:10Z</time></trkpt><trkpt lat="42.269337817338304" lon="13.782568796678095"><ele>339.75</ele><time>2026-05-03T09:41:11Z</time></trkpt><trkpt lat="42.26930937074165" lon="13.782747344278809"><ele>339.5</ele><time>2026-05-03T09:41:12Z</time></trkpt><trkpt lat="42.26927595703457" lon="13.782936042238564"><ele>339.25</ele><time>2026-05-03T09:41:13Z</time></trkpt><trkpt lat="42.2692439955305" lon="13.783123113869037"><ele>339.0</ele><time>2026-05-03T09:41:14Z</time></trkpt><trkpt lat="42.269208462088805" lon="13.783295310143707"><ele>339.0</ele><time>2026-05-03T09:41:15Z</time></trkpt><trkpt lat="42.26914503091627" lon="13.783452944098457"><ele>339.0</ele><time>2026-05-03T09:41:16Z</time></trkpt><trkpt lat="42.26910277131787" lon="13.783627204004407"><ele>339.0</ele><time>2026-05-03T09:41:17Z</time></trkpt><trkpt lat="42.269040099730326" lon="13.783791821565728"><ele>339.0</ele><time>2026-05-03T09:41:18Z</time></trkpt><trkpt lat="42.268971310297495" lon="13.783952493160195"><ele>340.0</ele><time>2026-05-03T09:41:19Z</time></trkpt><trkpt lat="42.26889412986684" lon="13.784105651916846"><ele>341.0</ele><time>2026-05-03T09:41:20Z</time></trkpt><trkpt lat="42.2688121316206" lon="13.784261661284193"><ele>342.0</ele><time>2026-05-03T09:41:21Z</time></trkpt><trkpt lat="42.26871611697777" lon="13.784403915792836"><ele>343.0</ele><time>2026-05-03T09:41:22Z</time></trkpt><trkpt lat="42.26862783775933" lon="13.784549530629048"><ele>343.0</ele><time>2026-05-03T09:41:23Z</time></trkpt><trkpt lat="42.26853458302092" lon="13.784682833531134"><ele>343.0</ele><time>2026-05-03T09:41:24Z</time></trkpt><trkpt lat="42.26842734885704" lon="13.784811637996926"><ele>343.0</ele><time>2026-05-03T09:41:25Z</time></trkpt><trkpt lat="42.268305284822056" lon="13.784942100809543"><ele>343.0</ele><time>2026-05-03T09:41:26Z</time></trkpt><trkpt lat="42.26818559935019" lon="13.785088568928254"><ele>344.3333333333333</ele><time>2026-05-03T09:41:27Z</time></trkpt><trkpt lat="42.268049686246776" lon="13.785209843784425"><ele>345.6666666666667</ele><time>2026-05-03T09:41:28Z</time></trkpt><trkpt lat="42.26791695501722" lon="13.785318324752707"><ele>347.0</ele><time>2026-05-03T09:41:29Z</time></trkpt><trkpt lat="42.267769071498606" lon="13.785411597602975"><ele>347.0</ele><time>2026-05-03T09:41:30Z</time></trkpt><trkpt lat="42.26764365444265" lon="13.785556563140105"><ele>347.0</ele><time>2026-05-03T09:41:31Z</time></trkpt><trkpt lat="42.26751333230988" lon="13.78569601554054"><ele>347.0</ele><time>2026-05-03T09:41:32Z</time></trkpt><trkpt lat="42.2673858486424" lon="13.78584454585842"><ele>347.33333333333337</ele><time>2026-05-03T09:41:33Z</time></trkpt><trkpt lat="42.26726014978727" lon="13.785986135844727"><ele>347.6666666666667</ele><time>2026-05-03T09:41:34Z</time></trkpt><trkpt lat="42.26713278175599" lon="13.786109242668497"><ele>348.0</ele><time>2026-05-03T09:41:35Z</time></trkpt><trkpt lat="42.26701213560569" lon="13.7862441037211"><ele>348.0</ele><time>2026-05-03T09:41:36Z</time></trkpt><trkpt lat="42.26690632884493" lon="13.78640942247401"><ele>348.0</ele><time>2026-05-03T09:41:37Z</time></trkpt><trkpt lat="42.26678995758839" lon="13.786565035430558"><ele>348.0</ele><time>2026-05-03T09:41:38Z</time></trkpt><trkpt lat="42.2666803058113" lon="13.786735144888176"><ele>347.3333333333333</ele><time>2026-05-03T09:41:39Z</time></trkpt><trkpt lat="42.266575274766595" lon="13.786911992491827"><ele>346.66666666666663</ele><time>2026-05-03T09:41:40Z</time></trkpt><trkpt lat="42.26645972521312" lon="13.787066896021011"><ele>346.0</ele><time>2026-05-03T09:41:41Z</time></trkpt><trkpt lat="42.26636257285961" lon="13.787235991905819"><ele>346.3333333333333</ele><time>2026-05-03T09:41:42Z</time></trkpt><trkpt lat="42.26628552139898" lon="13.787417257778165"><ele>346.6666666666667</ele><time>2026-05-03T09:41:43Z</time></trkpt><trkpt lat="42.266186205312685" lon="13.78757422070665"><ele>347.0</ele><time>2026-05-03T09:41:44Z</time></trkpt><trkpt lat="42.26609490576611" lon="13.78774655122681"><ele>347.0</ele><time>2026-05-03T09:41:45Z</time></trkpt><trkpt lat="42.266004548891665" lon="13.787910137799088"><ele>347.0</ele><time>2026-05-03T09:41:46Z</time></trkpt><trkpt lat="42.26591235969276" lon="13.788062502380123"><ele>347.0</ele><time>2026-05-03T09:41:47Z</time></trkpt><trkpt lat="42.26582816936114" lon="13.788197768892026"><ele>347.0</ele><time>2026-05-03T09:41:48Z</time></trkpt><trkpt lat="42.26575165843315" lon="13.788323455879139"><ele>347.0</ele><time>2026-05-03T09:41:49Z</time></trkpt><trkpt lat="42.26568181782137" lon="13.788443482710163"><ele>347.0</ele><time>2026-05-03T09:41:50Z</time></trkpt><trkpt lat="42.265616237481844" lon="13.788558574604872"><ele>347.0</ele><time>2026-05-03T09:41:51Z</time></trkpt><trkpt lat="42.26554599074928" lon="13.788684132796115"><ele>347.0</ele><time>2026-05-03T09:41:52Z</time></trkpt><trkpt lat="42.26548134696531" lon="13.788830585127299"><ele>347.0</ele><time>2026-05-03T09:41:53Z</time></trkpt><trkpt lat="42.265407458775556" lon="13.78896737846364"><ele>347.0</ele><time>2026-05-03T09:41:54Z</time></trkpt><trkpt lat="42.2653465657662" lon="13.789101084714641"><ele>347.0</ele><time>2026-05-03T09:41:55Z</time></trkpt><trkpt lat="42.265276516135756" lon="13.789221184020183"><ele>347.0</ele><time>2026-05-03T09:41:56Z</time></trkpt><trkpt lat="42.26522627825422" lon="13.78936887672278"><ele>347.0</ele><time>2026-05-03T09:41:57Z</time></trkpt><trkpt lat="42.26518109618378" lon="13.789521689208451"><ele>347.0</ele><time>2026-05-03T09:41:58Z</time></trkpt><trkpt lat="42.26513086478864" lon="13.789680967341475"><ele>347.0</ele><time>2026-05-03T09:41:59Z</time></trkpt><trkpt lat="42.26506759420454" lon="13.789854431093943"><ele>347.0</ele><time>2026-05-03T09:42:00Z</time></trkpt><trkpt lat="42.26499290094251" lon="13.79004811693021"><ele>346.33333333333337</ele><time>2026-05-03T09:42:01Z</time></trkpt><trkpt lat="42.264918969708845" lon="13.79025857802404"><ele>345.6666666666667</ele><time>2026-05-03T09:42:02Z</time></trkpt><trkpt lat="42.26485480699802" lon="13.790459533523793"><ele>345.0</ele><time>2026-05-03T09:42:03Z</time></trkpt><trkpt lat="42.26479174506848" lon="13.790659073889776"><ele>346.3333333333333</ele><time>2026-05-03T09:42:04Z</time></trkpt><trkpt lat="42.26472932211281" lon="13.790856592662026"><ele>347.66666666666663</ele><time>2026-05-03T09:42:05Z</time></trkpt><trkpt lat="42.264668089948024" lon="13.791049650852361"><ele>349.0</ele><time>2026-05-03T09:42:06Z</time></trkpt><trkpt lat="42.26460655622325" lon="13.791242753148447"><ele>349.0</ele><time>2026-05-03T09:42:07Z</time></trkpt><trkpt lat="42.26454667306201" lon="13.791430676087343"><ele>349.0</ele><time>2026-05-03T09:42:08Z</time></trkpt><trkpt lat="42.26448712715994" lon="13.791617540447776"><ele>349.0</ele><time>2026-05-03T09:42:09Z</time></trkpt><trkpt lat="42.264442583820575" lon="13.791808415717533"><ele>348.25</ele><time>2026-05-03T09:42:10Z</time></trkpt><trkpt lat="42.26438791781082" lon="13.791992805124584"><ele>347.5</ele><time>2026-05-03T09:42:11Z</time></trkpt><trkpt lat="42.26432416117522" lon="13.792177171065207"><ele>346.75</ele><time>2026-05-03T09:42:12Z</time></trkpt><trkpt lat="42.26427877588573" lon="13.792369525704542"><ele>346.0</ele><time>2026-05-03T09:42:13Z</time></trkpt><trkpt lat="42.26423840416177" lon="13.792552328969219"><ele>345.5</ele><time>2026-05-03T09:42:14Z</time></trkpt><trkpt lat="42.2641965373667" lon="13.792722168422353"><ele>345.0</ele><time>2026-05-03T09:42:15Z</time></trkpt><trkpt lat="42.26415422423174" lon="13.792878104470942"><ele>344.5</ele><time>2026-05-03T09:42:16Z</time></trkpt><trkpt lat="42.26411116265854" lon="13.79301895652136"><ele>344.0</ele><time>2026-05-03T09:42:17Z</time></trkpt><trkpt lat="42.26406934273082" lon="13.793140508075533"><ele>344.0</ele><time>2026-05-03T09:42:18Z</time></trkpt><trkpt lat="42.26402926418018" lon="13.793261570207996"><ele>344.0</ele><time>2026-05-03T09:42:19Z</time></trkpt><trkpt lat="42.26399244020871" lon="13.793374269836493"><ele>344.0</ele><time>2026-05-03T09:42:20Z</time></trkpt><trkpt lat="42.263948161345546" lon="13.793509785045304"><ele>344.0</ele><time>2026-05-03T09:42:21Z</time></trkpt><trkpt lat="42.26390026756343" lon="13.793650750864364"><ele>344.0</ele><time>2026-05-03T09:42:22Z</time></trkpt><trkpt lat="42.26385123362886" lon="13.79379472178023"><ele>344.5</ele><time>2026-05-03T09:42:23Z</time></trkpt><trkpt lat="42.26380156890789" lon="13.79394054513672"><ele>345.0</ele><time>2026-05-03T09:42:24Z</time></trkpt><trkpt lat="42.26376516017594" lon="13.794095453424914"><ele>345.5</ele><time>2026-05-03T09:42:25Z</time></trkpt><trkpt lat="42.26371324393148" lon="13.79424188738931"><ele>346.0</ele><time>2026-05-03T09:42:26Z</time></trkpt><trkpt lat="42.26365366005626" lon="13.794385450765555"><ele>345.0</ele><time>2026-05-03T09:42:27Z</time></trkpt><trkpt lat="42.26358056155357" lon="13.794517468167623"><ele>344.0</ele><time>2026-05-03T09:42:28Z</time></trkpt><trkpt lat="42.26350155035468" lon="13.794639844282054"><ele>343.0</ele><time>2026-05-03T09:42:29Z</time></trkpt><trkpt lat="42.263420002784265" lon="13.794763749610448"><ele>342.0</ele><time>2026-05-03T09:42:30Z</time></trkpt><trkpt lat="42.26333458225448" lon="13.794899598219393"><ele>342.0</ele><time>2026-05-03T09:42:31Z</time></trkpt><trkpt lat="42.263249281616886" lon="13.795048946994653"><ele>342.0</ele><time>2026-05-03T09:42:32Z</time></trkpt><trkpt lat="42.26316017096797" lon="13.795203825489452"><ele>342.0</ele><time>2026-05-03T09:42:33Z</time></trkpt><trkpt lat="42.263070269538886" lon="13.795356399504094"><ele>342.0</ele><time>2026-05-03T09:42:34Z</time></trkpt><trkpt lat="42.2629835940395" lon="13.795503921773156"><ele>343.0</ele><time>2026-05-03T09:42:35Z</time></trkpt><trkpt lat="42.262903682821275" lon="13.795643990030063"><ele>344.0</ele><time>2026-05-03T09:42:36Z</time></trkpt><trkpt lat="42.26282538027432" lon="13.795772942176475"><ele>345.0</ele><time>2026-05-03T09:42:37Z</time></trkpt><trkpt lat="42.26275194977066" lon="13.795892550162474"><ele>346.0</ele><time>2026-05-03T09:42:38Z</time></trkpt><trkpt lat="42.26268713729121" lon="13.796002417559531"><ele>345.5</ele><time>2026-05-03T09:42:39Z</time></trkpt><trkpt lat="42.26263394313845" lon="13.796090150853495"><ele>345.0</ele><time>2026-05-03T09:42:40Z</time></trkpt><trkpt lat="42.262578190475615" lon="13.796207666146428"><ele>344.5</ele><time>2026-05-03T09:42:42Z</time></trkpt><trkpt lat="42.2627482769196" lon="13.79634442309232"><ele>344.0</ele><time>2026-05-03T09:42:47Z</time></trkpt><trkpt lat="42.26285690794884" lon="13.79634953033961"><ele>344.0</ele><time>2026-05-03T09:42:48Z</time></trkpt><trkpt lat="42.26297724116536" lon="13.796361092724155"><ele>344.0</ele><time>2026-05-03T09:42:49Z</time></trkpt><trkpt lat="42.263099777523685" lon="13.796381774279654"><ele>344.0</ele><time>2026-05-03T09:42:50Z</time></trkpt><trkpt lat="42.26323304056606" lon="13.7964115764543"><ele>344.0</ele><time>2026-05-03T09:42:51Z</time></trkpt><trkpt lat="42.263368853862715" lon="13.796443562967745"><ele>342.75</ele><time>2026-05-03T09:42:52Z</time></trkpt><trkpt lat="42.26349680637081" lon="13.796471427627866"><ele>341.5</ele><time>2026-05-03T09:42:53Z</time></trkpt><trkpt lat="42.26362126345732" lon="13.796501410531084"><ele>340.25</ele><time>2026-05-03T09:42:54Z</time></trkpt><trkpt lat="42.26374863353867" lon="13.796529273512425"><ele>339.0</ele><time>2026-05-03T09:42:55Z</time></trkpt><trkpt lat="42.263880466080096" lon="13.796555443344328"><ele>338.0</ele><time>2026-05-03T09:42:56Z</time></trkpt><trkpt lat="42.2640160649784" lon="13.796584919057901"><ele>337.0</ele><time>2026-05-03T09:42:57Z</time></trkpt><trkpt lat="42.26414349105686" lon="13.796613645384163"><ele>336.0</ele><time>2026-05-03T09:42:58Z</time></trkpt><trkpt lat="42.264258613067824" lon="13.796643701485864"><ele>335.0</ele><time>2026-05-03T09:42:59Z</time></trkpt><trkpt lat="42.26435965819644" lon="13.79669221964008"><ele>335.0</ele><time>2026-05-03T09:43:00Z</time></trkpt><trkpt lat="42.26445100616188" lon="13.796767462133861"><ele>335.0</ele><time>2026-05-03T09:43:01Z</time></trkpt><trkpt lat="42.264535917306965" lon="13.796870135496933"><ele>335.0</ele><time>2026-05-03T09:43:02Z</time></trkpt><trkpt lat="42.264616331260555" lon="13.796985083464008"><ele>335.0</ele><time>2026-05-03T09:43:03Z</time></trkpt><trkpt lat="42.264692878591035" lon="13.797107024231222"><ele>333.25</ele><time>2026-05-03T09:43:04Z</time></trkpt><trkpt lat="42.2647585156517" lon="13.797229465471192"><ele>331.5</ele><time>2026-05-03T09:43:05Z</time></trkpt><trkpt lat="42.26480327460055" lon="13.797363445076826"><ele>329.75</ele><time>2026-05-03T09:43:06Z</time></trkpt><trkpt lat="42.264826119688706" lon="13.797506687543303"><ele>328.0</ele><time>2026-05-03T09:43:07Z</time></trkpt><trkpt lat="42.26484132055614" lon="13.797669744194843"><ele>327.5</ele><time>2026-05-03T09:43:08Z</time></trkpt><trkpt lat="42.26485733019544" lon="13.797847518465753"><ele>327.0</ele><time>2026-05-03T09:43:09Z</time></trkpt><trkpt lat="42.26487267388962" lon="13.798026788115017"><ele>326.5</ele><time>2026-05-03T09:43:10Z</time></trkpt><trkpt lat="42.264886747655275" lon="13.798192122807695"><ele>326.0</ele><time>2026-05-03T09:43:11Z</time></trkpt><trkpt lat="42.26490708502299" lon="13.798341238483426"><ele>326.0</ele><time>2026-05-03T09:43:12Z</time></trkpt><trkpt lat="42.26493849192755" lon="13.798466026471054"><ele>326.0</ele><time>2026-05-03T09:43:13Z</time></trkpt><trkpt lat="42.26498034656726" lon="13.798575379340356"><ele>326.0</ele><time>2026-05-03T09:43:14Z</time></trkpt><trkpt lat="42.265023533624706" lon="13.798681643982608"><ele>326.0</ele><time>2026-05-03T09:43:15Z</time></trkpt><trkpt lat="42.265054775461884" lon="13.798769666585004"><ele>326.0</ele><time>2026-05-03T09:43:16Z</time></trkpt><trkpt lat="42.26510411070363" lon="13.798907496674762"><ele>326.5</ele><time>2026-05-03T09:43:18Z</time></trkpt><trkpt lat="42.26514101577386" lon="13.799012717752571"><ele>327.0</ele><time>2026-05-03T09:43:20Z</time></trkpt><trkpt lat="42.26515300574876" lon="13.799120493447308"><ele>327.5</ele><time>2026-05-03T09:43:22Z</time></trkpt><trkpt lat="42.26505965969568" lon="13.799224122942189"><ele>328.0</ele><time>2026-05-03T09:43:24Z</time></trkpt><trkpt lat="42.2649935146397" lon="13.79927024791101"><ele>328.5</ele><time>2026-05-03T09:43:25Z</time></trkpt><trkpt lat="42.26492051126233" lon="13.799294306667267"><ele>329.0</ele><time>2026-05-03T09:43:26Z</time></trkpt><trkpt lat="42.26484844646822" lon="13.799283787252044"><ele>329.33333333333337</ele><time>2026-05-03T09:43:27Z</time></trkpt><trkpt lat="42.2647694198594" lon="13.799271695064867"><ele>329.6666666666667</ele><time>2026-05-03T09:43:28Z</time></trkpt><trkpt lat="42.26468954081104" lon="13.799266289970545"><ele>330.0</ele><time>2026-05-03T09:43:29Z</time></trkpt><trkpt lat="42.26461124682312" lon="13.799300517782465"><ele>330.3333333333333</ele><time>2026-05-03T09:43:30Z</time></trkpt><trkpt lat="42.26453650456247" lon="13.79932612853845"><ele>330.66666666666663</ele><time>2026-05-03T09:43:31Z</time></trkpt><trkpt lat="42.26446235224841" lon="13.79937216863432"><ele>331.0</ele><time>2026-05-03T09:43:32Z</time></trkpt><trkpt lat="42.26438867719597" lon="13.799430730723099"><ele>331.5</ele><time>2026-05-03T09:43:33Z</time></trkpt><trkpt lat="42.26432329223434" lon="13.799505721376857"><ele>332.0</ele><time>2026-05-03T09:43:34Z</time></trkpt><trkpt lat="42.264255823553256" lon="13.799592860985852"><ele>332.5</ele><time>2026-05-03T09:43:35Z</time></trkpt><trkpt lat="42.264180416898135" lon="13.799644062729781"><ele>333.0</ele><time>2026-05-03T09:43:36Z</time></trkpt><trkpt lat="42.26410381167393" lon="13.799709164447389"><ele>333.5</ele><time>2026-05-03T09:43:37Z</time></trkpt><trkpt lat="42.26402812075186" lon="13.799784774119543"><ele>334.0</ele><time>2026-05-03T09:43:38Z</time></trkpt><trkpt lat="42.26393650959412" lon="13.799834980936094"><ele>334.0</ele><time>2026-05-03T09:43:39Z</time></trkpt><trkpt lat="42.263843296337065" lon="13.799892055197452"><ele>334.0</ele><time>2026-05-03T09:43:40Z</time></trkpt><trkpt lat="42.26374226106427" lon="13.79992474327738"><ele>334.0</ele><time>2026-05-03T09:43:41Z</time></trkpt><trkpt lat="42.263643842676316" lon="13.799966859741488"><ele>334.0</ele><time>2026-05-03T09:43:42Z</time></trkpt><trkpt lat="42.263550437905245" lon="13.800004778441547"><ele>334.0</ele><time>2026-05-03T09:43:43Z</time></trkpt><trkpt lat="42.263451474433936" lon="13.800041604054927"><ele>334.0</ele><time>2026-05-03T09:43:44Z</time></trkpt><trkpt lat="42.26335821719235" lon="13.800065607508797"><ele>334.0</ele><time>2026-05-03T09:43:45Z</time></trkpt><trkpt lat="42.26325999989755" lon="13.800072453475487"><ele>334.0</ele><time>2026-05-03T09:43:46Z</time></trkpt><trkpt lat="42.26317150757995" lon="13.800068217197463"><ele>334.0</ele><time>2026-05-03T09:43:47Z</time></trkpt><trkpt lat="42.26308714898416" lon="13.800042433554284"><ele>334.0</ele><time>2026-05-03T09:43:48Z</time></trkpt><trkpt lat="42.262995102126375" lon="13.800020342569962"><ele>333.79999999999995</ele><time>2026-05-03T09:43:49Z</time></trkpt><trkpt lat="42.26291009034372" lon="13.799983326113235"><ele>333.59999999999997</ele><time>2026-05-03T09:43:50Z</time></trkpt><trkpt lat="42.262823920969524" lon="13.799933112980154"><ele>333.4</ele><time>2026-05-03T09:43:51Z</time></trkpt><trkpt lat="42.262734350814576" lon="13.799884310641767"><ele>333.2</ele><time>2026-05-03T09:43:52Z</time></trkpt><trkpt lat="42.26263772300429" lon="13.799874828919133"><ele>333.0</ele><time>2026-05-03T09:43:53Z</time></trkpt><trkpt lat="42.26254150890829" lon="13.799866392895067"><ele>333.0</ele><time>2026-05-03T09:43:54Z</time></trkpt><trkpt lat="42.262443814814944" lon="13.799839129125235"><ele>333.0</ele><time>2026-05-03T09:43:55Z</time></trkpt><trkpt lat="42.262339786637526" lon="13.799827909468581"><ele>333.0</ele><time>2026-05-03T09:43:56Z</time></trkpt><trkpt lat="42.26223934122545" lon="13.799837496523608"><ele>333.0</ele><time>2026-05-03T09:43:57Z</time></trkpt><trkpt lat="42.262138482141346" lon="13.799820038297707"><ele>333.0</ele><time>2026-05-03T09:43:58Z</time></trkpt><trkpt lat="42.26203801158637" lon="13.799811647247202"><ele>332.79999999999995</ele><time>2026-05-03T09:43:59Z</time></trkpt><trkpt lat="42.261940487085376" lon="13.799809944060815"><ele>332.6</ele><time>2026-05-03T09:44:00Z</time></trkpt><trkpt lat="42.261851748769935" lon="13.799818172917453"><ele>332.4</ele><time>2026-05-03T09:44:01Z</time></trkpt><trkpt lat="42.26175994616979" lon="13.799845420077187"><ele>332.20000000000005</ele><time>2026-05-03T09:44:02Z</time></trkpt><trkpt lat="42.26166788538108" lon="13.799904076042026"><ele>332.0</ele><time>2026-05-03T09:44:03Z</time></trkpt><trkpt lat="42.26157657805692" lon="13.799983191640566"><ele>332.0</ele><time>2026-05-03T09:44:04Z</time></trkpt><trkpt lat="42.26147777205502" lon="13.800063621760192"><ele>332.0</ele><time>2026-05-03T09:44:05Z</time></trkpt><trkpt lat="42.26138596291931" lon="13.800143920120084"><ele>332.0</ele><time>2026-05-03T09:44:06Z</time></trkpt><trkpt lat="42.26130617385559" lon="13.800209840256954"><ele>332.0</ele><time>2026-05-03T09:44:07Z</time></trkpt><trkpt lat="42.261236759697034" lon="13.800270780161982"><ele>332.0</ele><time>2026-05-03T09:44:08Z</time></trkpt><trkpt lat="42.26117632794229" lon="13.800342454969622"><ele>332.0</ele><time>2026-05-03T09:44:09Z</time></trkpt><trkpt lat="42.26112476886718" lon="13.80040470304599"><ele>332.0</ele><time>2026-05-03T09:44:10Z</time></trkpt><trkpt lat="42.261020635067446" lon="13.800506335309894"><ele>332.0</ele><time>2026-05-03T09:44:12Z</time></trkpt><trkpt lat="42.26096850545275" lon="13.800573091234192"><ele>332.0</ele><time>2026-05-03T09:44:13Z</time></trkpt><trkpt lat="42.2609073117359" lon="13.800651454370643"><ele>332.0</ele><time>2026-05-03T09:44:14Z</time></trkpt><trkpt lat="42.26083891339853" lon="13.800743007827679"><ele>332.0</ele><time>2026-05-03T09:44:15Z</time></trkpt><trkpt lat="42.2607736177653" lon="13.800854184876094"><ele>332.0</ele><time>2026-05-03T09:44:16Z</time></trkpt><trkpt lat="42.26068668847536" lon="13.800910025720345"><ele>332.0</ele><time>2026-05-03T09:44:17Z</time></trkpt><trkpt lat="42.26060884141667" lon="13.800991593072673"><ele>332.0</ele><time>2026-05-03T09:44:18Z</time></trkpt><trkpt lat="42.26052411945116" lon="13.801063884932386"><ele>332.0</ele><time>2026-05-03T09:44:19Z</time></trkpt><trkpt lat="42.260429359921396" lon="13.801120512650918"><ele>331.8</ele><time>2026-05-03T09:44:20Z</time></trkpt><trkpt lat="42.260343848416966" lon="13.801198883473699"><ele>331.6</ele><time>2026-05-03T09:44:21Z</time></trkpt><trkpt lat="42.260271033778196" lon="13.80130012597244"><ele>331.40000000000003</ele><time>2026-05-03T09:44:22Z</time></trkpt><trkpt lat="42.26018869926297" lon="13.801390482643058"><ele>331.20000000000005</ele><time>2026-05-03T09:44:23Z</time></trkpt><trkpt lat="42.2601070538201" lon="13.801491293255182"><ele>331.0</ele><time>2026-05-03T09:44:24Z</time></trkpt><trkpt lat="42.26002851806252" lon="13.801594884819455"><ele>331.0</ele><time>2026-05-03T09:44:25Z</time></trkpt><trkpt lat="42.25995317704342" lon="13.801694027083785"><ele>331.0</ele><time>2026-05-03T09:44:26Z</time></trkpt><trkpt lat="42.25988360561969" lon="13.80179462686312"><ele>331.0</ele><time>2026-05-03T09:44:27Z</time></trkpt><trkpt lat="42.259822837760524" lon="13.801895961604336"><ele>331.0</ele><time>2026-05-03T09:44:28Z</time></trkpt><trkpt lat="42.259764434213515" lon="13.801996807455613"><ele>331.0</ele><time>2026-05-03T09:44:29Z</time></trkpt><trkpt lat="42.25967400764815" lon="13.802075603587719"><ele>331.8</ele><time>2026-05-03T09:44:30Z</time></trkpt><trkpt lat="42.25958577506997" lon="13.80215116874457"><ele>332.6</ele><time>2026-05-03T09:44:31Z</time></trkpt><trkpt lat="42.259505344107936" lon="13.802206331419077"><ele>333.4</ele><time>2026-05-03T09:44:32Z</time></trkpt><trkpt lat="42.25942016019288" lon="13.802261148591718"><ele>334.2</ele><time>2026-05-03T09:44:33Z</time></trkpt><trkpt lat="42.259337996010125" lon="13.802307918587886"><ele>335.0</ele><time>2026-05-03T09:44:34Z</time></trkpt><trkpt lat="42.25925149947977" lon="13.802345148367838"><ele>335.0</ele><time>2026-05-03T09:44:35Z</time></trkpt><trkpt lat="42.259168695186176" lon="13.802363629532536"><ele>335.0</ele><time>2026-05-03T09:44:36Z</time></trkpt><trkpt lat="42.25908036050163" lon="13.802359911727757"><ele>335.0</ele><time>2026-05-03T09:44:37Z</time></trkpt><trkpt lat="42.25899288008517" lon="13.802351474621346"><ele>335.0</ele><time>2026-05-03T09:44:38Z</time></trkpt><trkpt lat="42.25890264493617" lon="13.80232491847401"><ele>335.0</ele><time>2026-05-03T09:44:39Z</time></trkpt><trkpt lat="42.25881828857845" lon="13.80229740924406"><ele>335.0</ele><time>2026-05-03T09:44:40Z</time></trkpt><trkpt lat="42.258751144468256" lon="13.802272949599434"><ele>335.6</ele><time>2026-05-03T09:44:41Z</time></trkpt><trkpt lat="42.25864032615499" lon="13.802224015882416"><ele>336.2</ele><time>2026-05-03T09:44:43Z</time></trkpt><trkpt lat="42.25851582218821" lon="13.80216894805759"><ele>336.79999999999995</ele><time>2026-05-03T09:44:45Z</time></trkpt><trkpt lat="42.258435871090505" lon="13.802133585858288"><ele>337.4</ele><time>2026-05-03T09:44:46Z</time></trkpt><trkpt lat="42.25835701442957" lon="13.80209870776546"><ele>338.0</ele><time>2026-05-03T09:44:47Z</time></trkpt><trkpt lat="42.25828089711425" lon="13.80208580218815"><ele>338.0</ele><time>2026-05-03T09:44:48Z</time></trkpt><trkpt lat="42.25821864591741" lon="13.802044053646"><ele>338.0</ele><time>2026-05-03T09:44:49Z</time></trkpt><trkpt lat="42.25816260475058" lon="13.80198916485302"><ele>338.0</ele><time>2026-05-03T09:44:50Z</time></trkpt><trkpt lat="42.2581074007424" lon="13.801921950544138"><ele>338.0</ele><time>2026-05-03T09:44:51Z</time></trkpt><trkpt lat="42.25806175674621" lon="13.801844500621069"><ele>338.0</ele><time>2026-05-03T09:44:52Z</time></trkpt><trkpt lat="42.258018301489784" lon="13.8017557751848"><ele>338.0</ele><time>2026-05-03T09:44:53Z</time></trkpt><trkpt lat="42.257979302061315" lon="13.801655075126085"><ele>338.0</ele><time>2026-05-03T09:44:54Z</time></trkpt><trkpt lat="42.25793478725576" lon="13.801569636212326"><ele>337.33333333333337</ele><time>2026-05-03T09:44:55Z</time></trkpt><trkpt lat="42.25788375017107" lon="13.801480850093617"><ele>336.6666666666667</ele><time>2026-05-03T09:44:56Z</time></trkpt><trkpt lat="42.25783394272254" lon="13.80139421554584"><ele>336.0</ele><time>2026-05-03T09:44:57Z</time></trkpt><trkpt lat="42.25777910077234" lon="13.801312625494818"><ele>335.3333333333333</ele><time>2026-05-03T09:44:58Z</time></trkpt><trkpt lat="42.25772264092186" lon="13.801243103829263"><ele>334.66666666666663</ele><time>2026-05-03T09:44:59Z</time></trkpt><trkpt lat="42.25766117114519" lon="13.801198141396105"><ele>334.0</ele><time>2026-05-03T09:45:00Z</time></trkpt><trkpt lat="42.25759330751139" lon="13.801170452032423"><ele>334.0</ele><time>2026-05-03T09:45:01Z</time></trkpt><trkpt lat="42.257523704203926" lon="13.801166045314629"><ele>334.0</ele><time>2026-05-03T09:45:02Z</time></trkpt><trkpt lat="42.25745061810997" lon="13.801154882190874"><ele>334.0</ele><time>2026-05-03T09:45:03Z</time></trkpt><trkpt lat="42.257371117651665" lon="13.801206891902824"><ele>334.0</ele><time>2026-05-03T09:45:04Z</time></trkpt><trkpt lat="42.257299160913306" lon="13.80125978815397"><ele>334.0</ele><time>2026-05-03T09:45:05Z</time></trkpt><trkpt lat="42.25722335180775" lon="13.801318582356746"><ele>334.0</ele><time>2026-05-03T09:45:06Z</time></trkpt><trkpt lat="42.25714531496482" lon="13.801386696655127"><ele>332.6</ele><time>2026-05-03T09:45:07Z</time></trkpt><trkpt lat="42.25706326043717" lon="13.801461663899405"><ele>331.2</ele><time>2026-05-03T09:45:08Z</time></trkpt><trkpt lat="42.256980824762884" lon="13.801545363457617"><ele>329.8</ele><time>2026-05-03T09:45:09Z</time></trkpt><trkpt lat="42.25691159414711" lon="13.801634374482793"><ele>328.40000000000003</ele><time>2026-05-03T09:45:10Z</time></trkpt><trkpt lat="42.256854051292805" lon="13.801721808049304"><ele>327.0</ele><time>2026-05-03T09:45:11Z</time></trkpt><trkpt lat="42.2568009722481" lon="13.801801511807682"><ele>327.5</ele><time>2026-05-03T09:45:12Z</time></trkpt><trkpt lat="42.25674193409814" lon="13.80189016378797"><ele>328.0</ele><time>2026-05-03T09:45:13Z</time></trkpt><trkpt lat="42.256679140432105" lon="13.801984455076179"><ele>328.5</ele><time>2026-05-03T09:45:14Z</time></trkpt><trkpt lat="42.256617942605125" lon="13.802072267657184"><ele>329.0</ele><time>2026-05-03T09:45:15Z</time></trkpt><trkpt lat="42.25655940544966" lon="13.802144322758823"><ele>329.5</ele><time>2026-05-03T09:45:16Z</time></trkpt><trkpt lat="42.25649197800969" lon="13.802216362600165"><ele>330.0</ele><time>2026-05-03T09:45:17Z</time></trkpt><trkpt lat="42.25641951349892" lon="13.8022715528892"><ele>330.0</ele><time>2026-05-03T09:45:18Z</time></trkpt><trkpt lat="42.25633223541387" lon="13.802325135459618"><ele>330.0</ele><time>2026-05-03T09:45:19Z</time></trkpt><trkpt lat="42.25624213693714" lon="13.802358926931673"><ele>330.0</ele><time>2026-05-03T09:45:20Z</time></trkpt><trkpt lat="42.25615346028912" lon="13.802391544670446"><ele>330.0</ele><time>2026-05-03T09:45:21Z</time></trkpt><trkpt lat="42.256050873916365" lon="13.802425307803741"><ele>330.0</ele><time>2026-05-03T09:45:22Z</time></trkpt><trkpt lat="42.25595109323565" lon="13.80245424127918"><ele>330.0</ele><time>2026-05-03T09:45:23Z</time></trkpt><trkpt lat="42.25585192229788" lon="13.802482297130453"><ele>330.0</ele><time>2026-05-03T09:45:24Z</time></trkpt><trkpt lat="42.25575471350429" lon="13.802511533360105"><ele>330.0</ele><time>2026-05-03T09:45:25Z</time></trkpt><trkpt lat="42.255662565176536" lon="13.802540910119783"><ele>330.0</ele><time>2026-05-03T09:45:26Z</time></trkpt><trkpt lat="42.255564656182536" lon="13.802587757984677"><ele>330.0</ele><time>2026-05-03T09:45:27Z</time></trkpt><trkpt lat="42.2554629798792" lon="13.802656486851436"><ele>331.0</ele><time>2026-05-03T09:45:28Z</time></trkpt><trkpt lat="42.25536154208738" lon="13.802725608960257"><ele>332.0</ele><time>2026-05-03T09:45:29Z</time></trkpt><trkpt lat="42.25526090482595" lon="13.8027907970092"><ele>333.0</ele><time>2026-05-03T09:45:30Z</time></trkpt><trkpt lat="42.25516223304998" lon="13.80284957324901"><ele>334.0</ele><time>2026-05-03T09:45:31Z</time></trkpt><trkpt lat="42.255061058569446" lon="13.802900298421763"><ele>335.0</ele><time>2026-05-03T09:45:32Z</time></trkpt><trkpt lat="42.25496706474225" lon="13.802933433590962"><ele>335.0</ele><time>2026-05-03T09:45:33Z</time></trkpt><trkpt lat="42.25486856541748" lon="13.802964591541183"><ele>335.0</ele><time>2026-05-03T09:45:34Z</time></trkpt><trkpt lat="42.254777427043265" lon="13.80299127116375"><ele>335.0</ele><time>2026-05-03T09:45:35Z</time></trkpt><trkpt lat="42.25469373639996" lon="13.803001058039397"><ele>335.0</ele><time>2026-05-03T09:45:36Z</time></trkpt><trkpt lat="42.25460726372212" lon="13.802993790719018"><ele>335.0</ele><time>2026-05-03T09:45:37Z</time></trkpt><trkpt lat="42.25451431927273" lon="13.803009186592234"><ele>334.0</ele><time>2026-05-03T09:45:38Z</time></trkpt><trkpt lat="42.254418325096665" lon="13.802994762407945"><ele>333.0</ele><time>2026-05-03T09:45:39Z</time></trkpt><trkpt lat="42.25432666057919" lon="13.803028614129603"><ele>332.0</ele><time>2026-05-03T09:45:40Z</time></trkpt><trkpt lat="42.25422630979307" lon="13.803069478154956"><ele>331.0</ele><time>2026-05-03T09:45:41Z</time></trkpt><trkpt lat="42.25412295842897" lon="13.803115799555037"><ele>330.0</ele><time>2026-05-03T09:45:42Z</time></trkpt><trkpt lat="42.254017044318175" lon="13.803163092870207"><ele>328.6</ele><time>2026-05-03T09:45:43Z</time></trkpt><trkpt lat="42.25391586961951" lon="13.803207988440867"><ele>327.2</ele><time>2026-05-03T09:45:44Z</time></trkpt><trkpt lat="42.253815690982336" lon="13.803252338670777"><ele>325.79999999999995</ele><time>2026-05-03T09:45:45Z</time></trkpt><trkpt lat="42.25372216020812" lon="13.803290444654186"><ele>324.4</ele><time>2026-05-03T09:45:46Z</time></trkpt><trkpt lat="42.25362401921377" lon="13.80332739947943"><ele>323.0</ele><time>2026-05-03T09:45:47Z</time></trkpt><trkpt lat="42.25353129288634" lon="13.80338285938002"><ele>323.0</ele><time>2026-05-03T09:45:48Z</time></trkpt><trkpt lat="42.2534344923226" lon="13.803457727822233"><ele>323.0</ele><time>2026-05-03T09:45:49Z</time></trkpt><trkpt lat="42.25333585405901" lon="13.803541951497527"><ele>323.0</ele><time>2026-05-03T09:45:50Z</time></trkpt><trkpt lat="42.253237776999846" lon="13.803633872009938"><ele>323.0</ele><time>2026-05-03T09:45:51Z</time></trkpt><trkpt lat="42.25314542123185" lon="13.803721714566553"><ele>323.79999999999995</ele><time>2026-05-03T09:45:52Z</time></trkpt><trkpt lat="42.2530600931801" lon="13.803798869265277"><ele>324.6</ele><time>2026-05-03T09:45:53Z</time></trkpt><trkpt lat="42.25297193409016" lon="13.803868262623707"><ele>325.4</ele><time>2026-05-03T09:45:54Z</time></trkpt><trkpt lat="42.252875965211906" lon="13.803922926992188"><ele>326.20000000000005</ele><time>2026-05-03T09:45:55Z</time></trkpt><trkpt lat="42.25278010574331" lon="13.803965472052159"><ele>327.0</ele><time>2026-05-03T09:45:56Z</time></trkpt><trkpt lat="42.252688175685094" lon="13.803997765645653"><ele>327.0</ele><time>2026-05-03T09:45:57Z</time></trkpt><trkpt lat="42.252590015043396" lon="13.8040211626467"><ele>327.0</ele><time>2026-05-03T09:45:58Z</time></trkpt><trkpt lat="42.25249300998654" lon="13.804041603222121"><ele>327.0</ele><time>2026-05-03T09:45:59Z</time></trkpt><trkpt lat="42.25239875345238" lon="13.804059484998819"><ele>327.0</ele><time>2026-05-03T09:46:00Z</time></trkpt><trkpt lat="42.252310266160734" lon="13.804068326049602"><ele>327.0</ele><time>2026-05-03T09:46:01Z</time></trkpt><trkpt lat="42.25221675198887" lon="13.804062156257702"><ele>328.6666666666667</ele><time>2026-05-03T09:46:02Z</time></trkpt><trkpt lat="42.252117600568944" lon="13.804034364535726"><ele>330.3333333333333</ele><time>2026-05-03T09:46:03Z</time></trkpt><trkpt lat="42.25202716575215" lon="13.804005803765277"><ele>332.0</ele><time>2026-05-03T09:46:04Z</time></trkpt><trkpt lat="42.25191978091749" lon="13.803935928156944"><ele>333.66666666666663</ele><time>2026-05-03T09:46:06Z</time></trkpt><trkpt lat="42.25186035687843" lon="13.803906659487613"><ele>335.3333333333333</ele><time>2026-05-03T09:46:07Z</time></trkpt><trkpt lat="42.25181172926001" lon="13.803846352639738"><ele>337.0</ele><time>2026-05-03T09:46:08Z</time></trkpt><trkpt lat="42.25175583500332" lon="13.803769900624154"><ele>337.0</ele><time>2026-05-03T09:46:09Z</time></trkpt><trkpt lat="42.251706581618045" lon="13.80370572899795"><ele>337.0</ele><time>2026-05-03T09:46:10Z</time></trkpt><trkpt lat="42.25162592082152" lon="13.803584378925683"><ele>337.0</ele><time>2026-05-03T09:46:12Z</time></trkpt><trkpt lat="42.25157081334428" lon="13.803539782177106"><ele>337.0</ele><time>2026-05-03T09:46:13Z</time></trkpt><trkpt lat="42.25149102669909" lon="13.80351536625169"><ele>337.0</ele><time>2026-05-03T09:46:14Z</time></trkpt><trkpt lat="42.25141566243148" lon="13.803477041067874"><ele>337.0</ele><time>2026-05-03T09:46:15Z</time></trkpt><trkpt lat="42.251338726159446" lon="13.803426859698641"><ele>335.8333333333333</ele><time>2026-05-03T09:46:16Z</time></trkpt><trkpt lat="42.25126070499347" lon="13.803393865321322"><ele>334.66666666666663</ele><time>2026-05-03T09:46:17Z</time></trkpt><trkpt lat="42.251183602895615" lon="13.803365364193912"><ele>333.5</ele><time>2026-05-03T09:46:18Z</time></trkpt><trkpt lat="42.25111240186372" lon="13.803339044423778"><ele>332.3333333333333</ele><time>2026-05-03T09:46:19Z</time></trkpt><trkpt lat="42.251041868303545" lon="13.803315438332104"><ele>331.1666666666667</ele><time>2026-05-03T09:46:20Z</time></trkpt><trkpt lat="42.250963995337024" lon="13.803295561928572"><ele>330.0</ele><time>2026-05-03T09:46:21Z</time></trkpt><trkpt lat="42.25088029447365" lon="13.803286952789737"><ele>330.0</ele><time>2026-05-03T09:46:22Z</time></trkpt><trkpt lat="42.25078693366884" lon="13.803293769903254"><ele>330.0</ele><time>2026-05-03T09:46:23Z</time></trkpt><trkpt lat="42.25069249341843" lon="13.803335760277566"><ele>330.0</ele><time>2026-05-03T09:46:24Z</time></trkpt><trkpt lat="42.25060054593432" lon="13.803362561028747"><ele>330.0</ele><time>2026-05-03T09:46:25Z</time></trkpt><trkpt lat="42.25049960354192" lon="13.80341393201375"><ele>330.0</ele><time>2026-05-03T09:46:26Z</time></trkpt><trkpt lat="42.25038918002918" lon="13.803458328345561"><ele>331.2</ele><time>2026-05-03T09:46:27Z</time></trkpt><trkpt lat="42.25028620629168" lon="13.803530009304902"><ele>332.4</ele><time>2026-05-03T09:46:28Z</time></trkpt><trkpt lat="42.25019549989904" lon="13.803608851156616"><ele>333.6</ele><time>2026-05-03T09:46:29Z</time></trkpt><trkpt lat="42.25011117651992" lon="13.803682475750696"><ele>334.8</ele><time>2026-05-03T09:46:30Z</time></trkpt><trkpt lat="42.250026759233805" lon="13.803755625502845"><ele>336.0</ele><time>2026-05-03T09:46:31Z</time></trkpt><trkpt lat="42.24994412219817" lon="13.803824866857118"><ele>336.0</ele><time>2026-05-03T09:46:32Z</time></trkpt><trkpt lat="42.24987311530948" lon="13.803903142030785"><ele>336.0</ele><time>2026-05-03T09:46:33Z</time></trkpt><trkpt lat="42.24980876072832" lon="13.80399645321355"><ele>336.0</ele><time>2026-05-03T09:46:34Z</time></trkpt><trkpt lat="42.24974576040426" lon="13.804106345171336"><ele>336.0</ele><time>2026-05-03T09:46:35Z</time></trkpt><trkpt lat="42.24968544557959" lon="13.804219261841252"><ele>336.0</ele><time>2026-05-03T09:46:36Z</time></trkpt><trkpt lat="42.249630863944915" lon="13.804328606245976"><ele>336.1666666666667</ele><time>2026-05-03T09:46:37Z</time></trkpt><trkpt lat="42.24957374703761" lon="13.804426977192671"><ele>336.3333333333333</ele><time>2026-05-03T09:46:38Z</time></trkpt><trkpt lat="42.24951476607651" lon="13.804504813413985"><ele>336.5</ele><time>2026-05-03T09:46:39Z</time></trkpt><trkpt lat="42.24945801641588" lon="13.804597214498878"><ele>336.66666666666663</ele><time>2026-05-03T09:46:40Z</time></trkpt><trkpt lat="42.24942701994762" lon="13.804703498823338"><ele>336.8333333333333</ele><time>2026-05-03T09:46:41Z</time></trkpt><trkpt lat="42.24936010392371" lon="13.804794089532342"><ele>337.0</ele><time>2026-05-03T09:46:42Z</time></trkpt><trkpt lat="42.24928254907929" lon="13.804890155947769"><ele>337.0</ele><time>2026-05-03T09:46:43Z</time></trkpt><trkpt lat="42.24919322364039" lon="13.80496771437762"><ele>337.0</ele><time>2026-05-03T09:46:44Z</time></trkpt><trkpt lat="42.24911726111894" lon="13.805045341325847"><ele>337.0</ele><time>2026-05-03T09:46:45Z</time></trkpt><trkpt lat="42.249050082924526" lon="13.805093489604337"><ele>337.0</ele><time>2026-05-03T09:46:46Z</time></trkpt><trkpt lat="42.24898643247863" lon="13.805128038764451"><ele>337.0</ele><time>2026-05-03T09:46:47Z</time></trkpt><trkpt lat="42.24891824783017" lon="13.805153441940147"><ele>337.0</ele><time>2026-05-03T09:46:48Z</time></trkpt><trkpt lat="42.24883287333222" lon="13.805168886337233"><ele>336.66666666666663</ele><time>2026-05-03T09:46:49Z</time></trkpt><trkpt lat="42.24875102115685" lon="13.80518518010889"><ele>336.3333333333333</ele><time>2026-05-03T09:46:50Z</time></trkpt><trkpt lat="42.248665984285616" lon="13.80520980602297"><ele>336.0</ele><time>2026-05-03T09:46:51Z</time></trkpt><trkpt lat="42.248578997338115" lon="13.805250088548984"><ele>335.6666666666667</ele><time>2026-05-03T09:46:52Z</time></trkpt><trkpt lat="42.248503074283995" lon="13.805303576739155"><ele>335.33333333333337</ele><time>2026-05-03T09:46:53Z</time></trkpt><trkpt lat="42.248439381364854" lon="13.805352311990276"><ele>335.0</ele><time>2026-05-03T09:46:54Z</time></trkpt><trkpt lat="42.24838419011538" lon="13.80540236082469"><ele>335.0</ele><time>2026-05-03T09:46:55Z</time></trkpt><trkpt lat="42.24830910994798" lon="13.80549631251167"><ele>335.0</ele><time>2026-05-03T09:46:57Z</time></trkpt><trkpt lat="42.24825745936487" lon="13.805595719852079"><ele>335.0</ele><time>2026-05-03T09:46:59Z</time></trkpt><trkpt lat="42.2482211778202" lon="13.805667768125295"><ele>335.0</ele><time>2026-05-03T09:47:13Z</time></trkpt><trkpt lat="42.248168883673145" lon="13.805767947619545"><ele>335.0</ele><time>2026-05-03T09:47:17Z</time></trkpt><trkpt lat="42.248110615641984" lon="13.80583172253637"><ele>335.0</ele><time>2026-05-03T09:47:19Z</time></trkpt><trkpt lat="42.24807433586061" lon="13.805929225406164"><ele>333.5</ele><time>2026-05-03T09:47:21Z</time></trkpt><trkpt lat="42.248059112222464" lon="13.80603414533639"><ele>332.0</ele><time>2026-05-03T09:47:23Z</time></trkpt><trkpt lat="42.2480165661007" lon="13.806135838822795"><ele>330.5</ele><time>2026-05-03T09:47:25Z</time></trkpt><trkpt lat="42.24795201820219" lon="13.80617909426695"><ele>329.0</ele><time>2026-05-03T09:47:26Z</time></trkpt><trkpt lat="42.247916187968066" lon="13.806250468956033"><ele>327.5</ele><time>2026-05-03T09:47:27Z</time></trkpt><trkpt lat="42.247843290326244" lon="13.806393376715693"><ele>326.0</ele><time>2026-05-03T09:47:29Z</time></trkpt><trkpt lat="42.2477813726554" lon="13.806538846253202"><ele>326.0</ele><time>2026-05-03T09:47:31Z</time></trkpt><trkpt lat="42.24775627121012" lon="13.806626628450893"><ele>326.0</ele><time>2026-05-03T09:47:32Z</time></trkpt><trkpt lat="42.24773478025781" lon="13.806735367632275"><ele>326.0</ele><time>2026-05-03T09:47:33Z</time></trkpt><trkpt lat="42.24772232082572" lon="13.806838390052416"><ele>326.0</ele><time>2026-05-03T09:47:34Z</time></trkpt><trkpt lat="42.24771335749444" lon="13.806942942215631"><ele>326.0</ele><time>2026-05-03T09:47:35Z</time></trkpt><trkpt lat="42.24769932939542" lon="13.807040023007412"><ele>326.0</ele><time>2026-05-03T09:47:36Z</time></trkpt><trkpt lat="42.247682928252615" lon="13.807128403527228"><ele>326.0</ele><time>2026-05-03T09:47:37Z</time></trkpt><trkpt lat="42.24763915890484" lon="13.807258086005865"><ele>326.4</ele><time>2026-05-03T09:47:39Z</time></trkpt><trkpt lat="42.24754488843956" lon="13.807379247190717"><ele>326.8</ele><time>2026-05-03T09:47:41Z</time></trkpt><trkpt lat="42.24747933363151" lon="13.80743460608728"><ele>327.2</ele><time>2026-05-03T09:47:42Z</time></trkpt><trkpt lat="42.247403709961766" lon="13.807487121538284"><ele>327.59999999999997</ele><time>2026-05-03T09:47:43Z</time></trkpt><trkpt lat="42.247334052378164" lon="13.8075521444554"><ele>328.0</ele><time>2026-05-03T09:47:44Z</time></trkpt><trkpt lat="42.24725901167573" lon="13.807627123511383"><ele>327.5</ele><time>2026-05-03T09:47:45Z</time></trkpt><trkpt lat="42.247173132552895" lon="13.807679527244154"><ele>327.0</ele><time>2026-05-03T09:47:46Z</time></trkpt><trkpt lat="42.24710492363158" lon="13.807746140693714"><ele>326.5</ele><time>2026-05-03T09:47:47Z</time></trkpt><trkpt lat="42.24704405595388" lon="13.807812766206814"><ele>326.0</ele><time>2026-05-03T09:47:48Z</time></trkpt><trkpt lat="42.24698518276341" lon="13.807892321792934"><ele>325.5</ele><time>2026-05-03T09:47:49Z</time></trkpt><trkpt lat="42.2469294448938" lon="13.80797124670108"><ele>325.0</ele><time>2026-05-03T09:47:50Z</time></trkpt><trkpt lat="42.246881120196655" lon="13.808061742978508"><ele>325.0</ele><time>2026-05-03T09:47:51Z</time></trkpt><trkpt lat="42.246848219600075" lon="13.808150491374901"><ele>325.0</ele><time>2026-05-03T09:47:52Z</time></trkpt><trkpt lat="42.246825488078684" lon="13.808232982394115"><ele>325.0</ele><time>2026-05-03T09:47:53Z</time></trkpt><trkpt lat="42.246807233336874" lon="13.808337141896676"><ele>325.0</ele><time>2026-05-03T09:47:54Z</time></trkpt><trkpt lat="42.24680106628136" lon="13.808438017756261"><ele>325.0</ele><time>2026-05-03T09:47:55Z</time></trkpt><trkpt lat="42.246769374164366" lon="13.808532372196296"><ele>325.0</ele><time>2026-05-03T09:47:56Z</time></trkpt><trkpt lat="42.2467471533021" lon="13.808640170875014"><ele>324.8</ele><time>2026-05-03T09:47:57Z</time></trkpt><trkpt lat="42.246722941219346" lon="13.80875856641503"><ele>324.6</ele><time>2026-05-03T09:47:58Z</time></trkpt><trkpt lat="42.246707755055375" lon="13.808889189582844"><ele>324.4</ele><time>2026-05-03T09:47:59Z</time></trkpt><trkpt lat="42.24665815343423" lon="13.809017856344722"><ele>324.2</ele><time>2026-05-03T09:48:00Z</time></trkpt><trkpt lat="42.24661825942756" lon="13.809154623804076"><ele>324.0</ele><time>2026-05-03T09:48:01Z</time></trkpt><trkpt lat="42.24657714944022" lon="13.809295093305343"><ele>324.2</ele><time>2026-05-03T09:48:02Z</time></trkpt><trkpt lat="42.246553658207695" lon="13.809434129698156"><ele>324.4</ele><time>2026-05-03T09:48:03Z</time></trkpt><trkpt lat="42.24650445154343" lon="13.809559209319676"><ele>324.6</ele><time>2026-05-03T09:48:04Z</time></trkpt><trkpt lat="42.2464668469324" lon="13.809695853220346"><ele>324.8</ele><time>2026-05-03T09:48:05Z</time></trkpt><trkpt lat="42.24642363465349" lon="13.80983433549194"><ele>325.0</ele><time>2026-05-03T09:48:06Z</time></trkpt><trkpt lat="42.24638330051754" lon="13.809945657243873"><ele>325.0</ele><time>2026-05-03T09:48:07Z</time></trkpt><trkpt lat="42.246337697149585" lon="13.810049379547326"><ele>325.0</ele><time>2026-05-03T09:48:08Z</time></trkpt><trkpt lat="42.24628833501367" lon="13.8101406061804"><ele>325.0</ele><time>2026-05-03T09:48:09Z</time></trkpt><trkpt lat="42.246241361166845" lon="13.81025531539732"><ele>325.0</ele><time>2026-05-03T09:48:10Z</time></trkpt><trkpt lat="42.246167003729596" lon="13.810347777038654"><ele>325.0</ele><time>2026-05-03T09:48:11Z</time></trkpt><trkpt lat="42.24608463429338" lon="13.81044511186934"><ele>325.0</ele><time>2026-05-03T09:48:12Z</time></trkpt><trkpt lat="42.24601000146194" lon="13.810553663906795"><ele>325.0</ele><time>2026-05-03T09:48:13Z</time></trkpt><trkpt lat="42.24592309820821" lon="13.810651184067888"><ele>325.0</ele><time>2026-05-03T09:48:14Z</time></trkpt><trkpt lat="42.245838259551014" lon="13.810757069314816"><ele>325.0</ele><time>2026-05-03T09:48:15Z</time></trkpt><trkpt lat="42.245747663279474" lon="13.810872872193976"><ele>325.0</ele><time>2026-05-03T09:48:16Z</time></trkpt><trkpt lat="42.245644184406316" lon="13.810969395700901"><ele>325.0</ele><time>2026-05-03T09:48:17Z</time></trkpt><trkpt lat="42.24555510592523" lon="13.811069585706136"><ele>325.0</ele><time>2026-05-03T09:48:18Z</time></trkpt><trkpt lat="42.24546334259039" lon="13.811156810288804"><ele>325.0</ele><time>2026-05-03T09:48:19Z</time></trkpt><trkpt lat="42.24537329154909" lon="13.81124124472542"><ele>324.8333333333333</ele><time>2026-05-03T09:48:20Z</time></trkpt><trkpt lat="42.24529138172327" lon="13.811325703055122"><ele>324.66666666666663</ele><time>2026-05-03T09:48:21Z</time></trkpt><trkpt lat="42.24522054180655" lon="13.811403590198877"><ele>324.5</ele><time>2026-05-03T09:48:22Z</time></trkpt><trkpt lat="42.24515844525126" lon="13.811488604722898"><ele>324.3333333333333</ele><time>2026-05-03T09:48:23Z</time></trkpt><trkpt lat="42.24511107082011" lon="13.811572546885376"><ele>324.1666666666667</ele><time>2026-05-03T09:48:24Z</time></trkpt><trkpt lat="42.24507400141582" lon="13.811670787926724"><ele>324.0</ele><time>2026-05-03T09:48:25Z</time></trkpt><trkpt lat="42.24504460410857" lon="13.811766179805371"><ele>324.79999999999995</ele><time>2026-05-03T09:48:26Z</time></trkpt><trkpt lat="42.24502905103682" lon="13.811895850376377"><ele>325.59999999999997</ele><time>2026-05-03T09:48:27Z</time></trkpt><trkpt lat="42.245019626547" lon="13.812015759325067"><ele>326.4</ele><time>2026-05-03T09:48:28Z</time></trkpt><trkpt lat="42.24499996021082" lon="13.81212389366801"><ele>327.2</ele><time>2026-05-03T09:48:29Z</time></trkpt><trkpt lat="42.244972484286805" lon="13.812223463398245"><ele>328.0</ele><time>2026-05-03T09:48:30Z</time></trkpt><trkpt lat="42.244893807899125" lon="13.812367980190915"><ele>328.0</ele><time>2026-05-03T09:48:31.999Z</time></trkpt><trkpt lat="42.244830869409306" lon="13.812435518961891"><ele>328.0</ele><time>2026-05-03T09:48:32.999Z</time></trkpt><trkpt lat="42.24475704913604" lon="13.812493008775977"><ele>328.0</ele><time>2026-05-03T09:48:33.999Z</time></trkpt><trkpt lat="42.24468774403384" lon="13.812534848480826"><ele>328.0</ele><time>2026-05-03T09:48:34.999Z</time></trkpt><trkpt lat="42.244607225284035" lon="13.812579335788186"><ele>328.0</ele><time>2026-05-03T09:48:35.999Z</time></trkpt><trkpt lat="42.2445212199979" lon="13.81262719224746"><ele>328.0</ele><time>2026-05-03T09:48:36.999Z</time></trkpt><trkpt lat="42.244432163282305" lon="13.812659318450734"><ele>328.59999999999997</ele><time>2026-05-03T09:48:37.999Z</time></trkpt><trkpt lat="42.244343742594815" lon="13.81269225011817"><ele>329.2</ele><time>2026-05-03T09:48:38.999Z</time></trkpt><trkpt lat="42.24426109657424" lon="13.812724953751875"><ele>329.8</ele><time>2026-05-03T09:48:39.999Z</time></trkpt><trkpt lat="42.244179390975496" lon="13.812762936016853"><ele>330.4</ele><time>2026-05-03T09:48:40.999Z</time></trkpt><trkpt lat="42.24408451032129" lon="13.812779887694134"><ele>331.0</ele><time>2026-05-03T09:48:41.999Z</time></trkpt><trkpt lat="42.24400120829686" lon="13.812836773990135"><ele>329.8</ele><time>2026-05-03T09:48:42.999Z</time></trkpt><trkpt lat="42.24390460111896" lon="13.812858916198683"><ele>328.6</ele><time>2026-05-03T09:48:43.999Z</time></trkpt><trkpt lat="42.243796981349476" lon="13.812887726031956"><ele>327.4</ele><time>2026-05-03T09:48:44.999Z</time></trkpt><trkpt lat="42.243701269074144" lon="13.812922136457804"><ele>326.2</ele><time>2026-05-03T09:48:45.999Z</time></trkpt><trkpt lat="42.24361805727749" lon="13.812964465060967"><ele>325.0</ele><time>2026-05-03T09:48:46.999Z</time></trkpt><trkpt lat="42.24353731766343" lon="13.81303197880026"><ele>325.0</ele><time>2026-05-03T09:48:47.999Z</time></trkpt><trkpt lat="42.24346151023587" lon="13.813129013016463"><ele>325.0</ele><time>2026-05-03T09:48:48.999Z</time></trkpt><trkpt lat="42.24337677373416" lon="13.813218832287147"><ele>325.0</ele><time>2026-05-03T09:48:49.999Z</time></trkpt><trkpt lat="42.24329546561487" lon="13.813318369938179"><ele>325.0</ele><time>2026-05-03T09:48:50.999Z</time></trkpt><trkpt lat="42.243223248306336" lon="13.813444922512476"><ele>325.0</ele><time>2026-05-03T09:48:51.999Z</time></trkpt><trkpt lat="42.24313107388909" lon="13.813545030415208"><ele>324.0</ele><time>2026-05-03T09:48:52.999Z</time></trkpt><trkpt lat="42.2430522465724" lon="13.813644168101678"><ele>323.0</ele><time>2026-05-03T09:48:53.999Z</time></trkpt><trkpt lat="42.24297527890483" lon="13.813736757011714"><ele>322.0</ele><time>2026-05-03T09:48:54.999Z</time></trkpt><trkpt lat="42.24289515160891" lon="13.813828963206012"><ele>321.0</ele><time>2026-05-03T09:48:55.999Z</time></trkpt><trkpt lat="42.24281161424461" lon="13.813920429385792"><ele>320.0</ele><time>2026-05-03T09:48:56.999Z</time></trkpt><trkpt lat="42.2427369701507" lon="13.814019733740444"><ele>320.0</ele><time>2026-05-03T09:48:57.999Z</time></trkpt><trkpt lat="42.24265836773269" lon="13.814109115614599"><ele>320.0</ele><time>2026-05-03T09:48:58.999Z</time></trkpt><trkpt lat="42.24258383185794" lon="13.814183897228444"><ele>320.0</ele><time>2026-05-03T09:48:59.999Z</time></trkpt><trkpt lat="42.2425053718108" lon="13.814234849425626"><ele>320.0</ele><time>2026-05-03T09:49:00.999Z</time></trkpt><trkpt lat="42.24243732608026" lon="13.814300113712255"><ele>320.0</ele><time>2026-05-03T09:49:01.999Z</time></trkpt><trkpt lat="42.2423706888037" lon="13.814360817589268"><ele>320.0</ele><time>2026-05-03T09:49:02.999Z</time></trkpt><trkpt lat="42.24230455167527" lon="13.81441337260414"><ele>319.8</ele><time>2026-05-03T09:49:03.999Z</time></trkpt><trkpt lat="42.24224331544745" lon="13.814456693415444"><ele>319.6</ele><time>2026-05-03T09:49:04.999Z</time></trkpt><trkpt lat="42.24214127202325" lon="13.81447279147792"><ele>319.4</ele><time>2026-05-03T09:49:06.999Z</time></trkpt><trkpt lat="42.24205195021374" lon="13.814482537380684"><ele>319.2</ele><time>2026-05-03T09:49:08.999Z</time></trkpt><trkpt lat="42.241968734542105" lon="13.814577718665817"><ele>319.0</ele><time>2026-05-03T09:49:10.999Z</time></trkpt><trkpt lat="42.24191705211739" lon="13.814681473906553"><ele>319.0</ele><time>2026-05-03T09:49:12.999Z</time></trkpt><trkpt lat="42.24190294502573" lon="13.814775100626077"><ele>319.0</ele><time>2026-05-03T09:49:14.999Z</time></trkpt><trkpt lat="42.24190208476046" lon="13.81490283077567"><ele>319.0</ele><time>2026-05-03T09:49:17.999Z</time></trkpt><trkpt lat="42.24189800928853" lon="13.815032732292648"><ele>319.0</ele><time>2026-05-03T09:49:19.999Z</time></trkpt><trkpt lat="42.24177566359456" lon="13.815118889273865"><ele>319.0</ele><time>2026-05-03T09:49:20.999Z</time></trkpt><trkpt lat="42.24172409214304" lon="13.815212933052726"><ele>319.3333333333333</ele><time>2026-05-03T09:49:21.999Z</time></trkpt><trkpt lat="42.24168609280754" lon="13.815313043670157"><ele>319.66666666666663</ele><time>2026-05-03T09:49:22.999Z</time></trkpt><trkpt lat="42.24165364368163" lon="13.815428452511131"><ele>320.0</ele><time>2026-05-03T09:49:23.999Z</time></trkpt><trkpt lat="42.24163773624397" lon="13.815559518668474"><ele>320.3333333333333</ele><time>2026-05-03T09:49:24.999Z</time></trkpt><trkpt lat="42.24163671580119" lon="13.815672702226193"><ele>320.6666666666667</ele><time>2026-05-03T09:49:25.999Z</time></trkpt><trkpt lat="42.24163584032178" lon="13.815765734487265"><ele>321.0</ele><time>2026-05-03T09:49:26.999Z</time></trkpt><trkpt lat="42.2415800795922" lon="13.815909437833547"><ele>321.0</ele><time>2026-05-03T09:49:28.999Z</time></trkpt><trkpt lat="42.24152303652842" lon="13.815984084903855"><ele>321.0</ele><time>2026-05-03T09:49:29.999Z</time></trkpt><trkpt lat="42.24144898578153" lon="13.81605992091066"><ele>321.0</ele><time>2026-05-03T09:49:30.999Z</time></trkpt><trkpt lat="42.241366777733326" lon="13.816120051868317"><ele>321.0</ele><time>2026-05-03T09:49:31.999Z</time></trkpt><trkpt lat="42.24127965596217" lon="13.816168613096135"><ele>321.0</ele><time>2026-05-03T09:49:32.999Z</time></trkpt><trkpt lat="42.241193090472706" lon="13.816212508550391"><ele>322.6</ele><time>2026-05-03T09:49:33.999Z</time></trkpt><trkpt lat="42.241110298925065" lon="13.816244095289376"><ele>324.20000000000005</ele><time>2026-05-03T09:49:34.999Z</time></trkpt><trkpt lat="42.24102279275259" lon="13.816261023806485"><ele>325.79999999999995</ele><time>2026-05-03T09:49:35.999Z</time></trkpt><trkpt lat="42.24092070604636" lon="13.81627174951221"><ele>327.4</ele><time>2026-05-03T09:49:36.999Z</time></trkpt><trkpt lat="42.240813482999414" lon="13.816276534106574"><ele>329.0</ele><time>2026-05-03T09:49:37.999Z</time></trkpt><trkpt lat="42.240711437956335" lon="13.816278974731524"><ele>328.6</ele><time>2026-05-03T09:49:38.999Z</time></trkpt><trkpt lat="42.240612143150024" lon="13.816280381324901"><ele>328.2</ele><time>2026-05-03T09:49:39.999Z</time></trkpt><trkpt lat="42.24051502180029" lon="13.816284050240972"><ele>327.8</ele><time>2026-05-03T09:49:40.999Z</time></trkpt><trkpt lat="42.240419130862676" lon="13.816290097009945"><ele>327.40000000000003</ele><time>2026-05-03T09:49:41.999Z</time></trkpt><trkpt lat="42.240320058747486" lon="13.81629473414211"><ele>327.0</ele><time>2026-05-03T09:49:42.999Z</time></trkpt><trkpt lat="42.24022351370694" lon="13.816295534395985"><ele>327.0</ele><time>2026-05-03T09:49:43.999Z</time></trkpt><trkpt lat="42.240122339604625" lon="13.816299122037924"><ele>327.0</ele><time>2026-05-03T09:49:44.999Z</time></trkpt><trkpt lat="42.24002886901243" lon="13.816316808487363"><ele>327.0</ele><time>2026-05-03T09:49:45.999Z</time></trkpt><trkpt lat="42.23993204139556" lon="13.81635121903126"><ele>327.0</ele><time>2026-05-03T09:49:46.999Z</time></trkpt><trkpt lat="42.239837960519864" lon="13.816411998178832"><ele>327.0</ele><time>2026-05-03T09:49:47.999Z</time></trkpt><trkpt lat="42.23974279737129" lon="13.816439413875669"><ele>326.3333333333333</ele><time>2026-05-03T09:49:48.999Z</time></trkpt><trkpt lat="42.23964686054999" lon="13.816458142752737"><ele>325.6666666666667</ele><time>2026-05-03T09:49:49.999Z</time></trkpt><trkpt lat="42.239565998086334" lon="13.816472457760534"><ele>325.0</ele><time>2026-05-03T09:49:50.999Z</time></trkpt><trkpt lat="42.23947399405813" lon="13.816458222776719"><ele>324.33333333333337</ele><time>2026-05-03T09:49:52.999Z</time></trkpt><trkpt lat="42.23942450413261" lon="13.816375038794526"><ele>323.6666666666667</ele><time>2026-05-03T09:49:54.999Z</time></trkpt><trkpt lat="42.23938002958995" lon="13.816258647500847"><ele>323.0</ele><time>2026-05-03T09:49:56.999Z</time></trkpt><trkpt lat="42.239350925355744" lon="13.816157210212335"><ele>323.0</ele><time>2026-05-03T09:49:58.999Z</time></trkpt><trkpt lat="42.23917289837299" lon="13.816141416281468"><ele>323.0</ele><time>2026-05-03T09:50:01.999Z</time></trkpt><trkpt lat="42.23904483877109" lon="13.816122129474193"><ele>323.0</ele><time>2026-05-03T09:50:03.999Z</time></trkpt><trkpt lat="42.238945460925684" lon="13.816105547618186"><ele>323.0</ele><time>2026-05-03T09:50:04.999Z</time></trkpt><trkpt lat="42.238838395302025" lon="13.816082609681406"><ele>322.0</ele><time>2026-05-03T09:50:05.999Z</time></trkpt><trkpt lat="42.23872912918678" lon="13.81606227063047"><ele>321.0</ele><time>2026-05-03T09:50:06.999Z</time></trkpt><trkpt lat="42.238618280030934" lon="13.816056371754408"><ele>320.0</ele><time>2026-05-03T09:50:07.999Z</time></trkpt><trkpt lat="42.238504781863355" lon="13.81606833467082"><ele>319.0</ele><time>2026-05-03T09:50:08.999Z</time></trkpt><trkpt lat="42.23838147796418" lon="13.816109751646513"><ele>319.0</ele><time>2026-05-03T09:50:09.999Z</time></trkpt><trkpt lat="42.23825681984933" lon="13.816176837711225"><ele>319.0</ele><time>2026-05-03T09:50:10.999Z</time></trkpt><trkpt lat="42.23813239625719" lon="13.816238566383914"><ele>319.0</ele><time>2026-05-03T09:50:11.999Z</time></trkpt><trkpt lat="42.23800385111928" lon="13.816295512537597"><ele>319.0</ele><time>2026-05-03T09:50:12.999Z</time></trkpt><trkpt lat="42.237885589212866" lon="13.816347903204726"><ele>319.0</ele><time>2026-05-03T09:50:13.999Z</time></trkpt><trkpt lat="42.23776848154447" lon="13.816404264517406"><ele>319.0</ele><time>2026-05-03T09:50:14.999Z</time></trkpt><trkpt lat="42.23765332884465" lon="13.81646358042415"><ele>319.0</ele><time>2026-05-03T09:50:15.999Z</time></trkpt><trkpt lat="42.23754123156538" lon="13.816521322434978"><ele>319.0</ele><time>2026-05-03T09:50:16.999Z</time></trkpt><trkpt lat="42.23743378322851" lon="13.816572030631425"><ele>319.0</ele><time>2026-05-03T09:50:17.999Z</time></trkpt><trkpt lat="42.23732498932737" lon="13.81661993177082"><ele>319.0</ele><time>2026-05-03T09:50:18.999Z</time></trkpt><trkpt lat="42.23721475664602" lon="13.816663716409249"><ele>319.0</ele><time>2026-05-03T09:50:19.999Z</time></trkpt><trkpt lat="42.237105244247665" lon="13.816694099133052"><ele>319.0</ele><time>2026-05-03T09:50:20.999Z</time></trkpt><trkpt lat="42.23699447045878" lon="13.816709791494256"><ele>319.25</ele><time>2026-05-03T09:50:21.999Z</time></trkpt><trkpt lat="42.23688218005123" lon="13.816712102882935"><ele>319.5</ele><time>2026-05-03T09:50:22.999Z</time></trkpt><trkpt lat="42.23676736641758" lon="13.816697689329438"><ele>319.75</ele><time>2026-05-03T09:50:23.999Z</time></trkpt><trkpt lat="42.236646067448795" lon="13.816660574919888"><ele>320.0</ele><time>2026-05-03T09:50:24.999Z</time></trkpt><trkpt lat="42.236519297584394" lon="13.816602120348334"><ele>320.5</ele><time>2026-05-03T09:50:25.999Z</time></trkpt><trkpt lat="42.23639068576731" lon="13.816544397936743"><ele>321.0</ele><time>2026-05-03T09:50:26.999Z</time></trkpt><trkpt lat="42.2362753510773" lon="13.816447237974106"><ele>321.5</ele><time>2026-05-03T09:50:27.999Z</time></trkpt><trkpt lat="42.236167134374696" lon="13.816350249984128"><ele>322.0</ele><time>2026-05-03T09:50:28.999Z</time></trkpt><trkpt lat="42.23606556789091" lon="13.816268955189763"><ele>322.0</ele><time>2026-05-03T09:50:29.999Z</time></trkpt><trkpt lat="42.235964020366744" lon="13.816218737150587"><ele>322.0</ele><time>2026-05-03T09:50:30.999Z</time></trkpt><trkpt lat="42.23586617257915" lon="13.816184922031452"><ele>322.0</ele><time>2026-05-03T09:50:31.999Z</time></trkpt><trkpt lat="42.23576986145656" lon="13.816187978844972"><ele>322.0</ele><time>2026-05-03T09:50:32.999Z</time></trkpt><trkpt lat="42.235676908937414" lon="13.816214770217742"><ele>322.0</ele><time>2026-05-03T09:50:33.999Z</time></trkpt><trkpt lat="42.23559017260817" lon="13.816255165998443"><ele>321.3333333333333</ele><time>2026-05-03T09:50:34.999Z</time></trkpt><trkpt lat="42.23551708832635" lon="13.816301559264073"><ele>320.66666666666663</ele><time>2026-05-03T09:50:35.999Z</time></trkpt><trkpt lat="42.23545928543609" lon="13.81635485998727"><ele>320.0</ele><time>2026-05-03T09:50:37Z</time></trkpt><trkpt lat="42.23537163967356" lon="13.816463790881958"><ele>319.3333333333333</ele><time>2026-05-03T09:50:38.999Z</time></trkpt><trkpt lat="42.2353303205658" lon="13.816529929536491"><ele>318.6666666666667</ele><time>2026-05-03T09:50:39.999Z</time></trkpt><trkpt lat="42.23528429520033" lon="13.816607538710587"><ele>318.0</ele><time>2026-05-03T09:50:40.999Z</time></trkpt><trkpt lat="42.23523630100982" lon="13.816706492387091"><ele>318.0</ele><time>2026-05-03T09:50:41.999Z</time></trkpt><trkpt lat="42.235187516058204" lon="13.816815714646719"><ele>318.0</ele><time>2026-05-03T09:50:42.999Z</time></trkpt><trkpt lat="42.23513327470611" lon="13.816935612218394"><ele>318.0</ele><time>2026-05-03T09:50:43.999Z</time></trkpt><trkpt lat="42.235074679583434" lon="13.81706493940128"><ele>318.0</ele><time>2026-05-03T09:50:44.999Z</time></trkpt><trkpt lat="42.235011673566895" lon="13.81720461405091"><ele>318.0</ele><time>2026-05-03T09:50:45.999Z</time></trkpt><trkpt lat="42.23493428094763" lon="13.817354960021554"><ele>319.0</ele><time>2026-05-03T09:50:46.999Z</time></trkpt><trkpt lat="42.23484359175293" lon="13.817513243139313"><ele>320.0</ele><time>2026-05-03T09:50:47.999Z</time></trkpt><trkpt lat="42.23474193215288" lon="13.817671200965684"><ele>321.0</ele><time>2026-05-03T09:50:48.999Z</time></trkpt><trkpt lat="42.23463109122692" lon="13.817823709203422"><ele>322.6666666666667</ele><time>2026-05-03T09:50:49.999Z</time></trkpt><trkpt lat="42.23451038950048" lon="13.81797032544141"><ele>324.33333333333337</ele><time>2026-05-03T09:50:50.999Z</time></trkpt><trkpt lat="42.234385545425674" lon="13.818098618895727"><ele>326.0</ele><time>2026-05-03T09:50:51.999Z</time></trkpt><trkpt lat="42.23425958015814" lon="13.818209295623571"><ele>326.0</ele><time>2026-05-03T09:50:52.999Z</time></trkpt><trkpt lat="42.23413356362517" lon="13.818304786871632"><ele>326.0</ele><time>2026-05-03T09:50:53.999Z</time></trkpt><trkpt lat="42.23400297401097" lon="13.818387777267843"><ele>326.0</ele><time>2026-05-03T09:50:54.999Z</time></trkpt><trkpt lat="42.23386301053671" lon="13.81847534084645"><ele>326.0</ele><time>2026-05-03T09:50:55.999Z</time></trkpt><trkpt lat="42.233718942431665" lon="13.8185654721491"><ele>327.6666666666667</ele><time>2026-05-03T09:50:56.999Z</time></trkpt><trkpt lat="42.233577338418826" lon="13.818650059040639"><ele>329.3333333333333</ele><time>2026-05-03T09:50:57.999Z</time></trkpt><trkpt lat="42.23344116618623" lon="13.818722512965973"><ele>331.0</ele><time>2026-05-03T09:50:58.999Z</time></trkpt><trkpt lat="42.23329670915506" lon="13.818787657827206"><ele>331.0</ele><time>2026-05-03T09:50:59.999Z</time></trkpt><trkpt lat="42.233152617716335" lon="13.818854095332384"><ele>331.0</ele><time>2026-05-03T09:51:01Z</time></trkpt><trkpt lat="42.23300936175226" lon="13.818923816763926"><ele>331.0</ele><time>2026-05-03T09:51:02Z</time></trkpt><trkpt lat="42.23286295848572" lon="13.818979894459147"><ele>327.66666666666663</ele><time>2026-05-03T09:51:03Z</time></trkpt><trkpt lat="42.23270940623819" lon="13.81899637084335"><ele>324.3333333333333</ele><time>2026-05-03T09:51:04Z</time></trkpt><trkpt lat="42.232550859161755" lon="13.819007155323968"><ele>321.0</ele><time>2026-05-03T09:51:05Z</time></trkpt><trkpt lat="42.23239348788438" lon="13.819016726313613"><ele>320.6666666666667</ele><time>2026-05-03T09:51:06Z</time></trkpt><trkpt lat="42.23223679732311" lon="13.819022871527443"><ele>320.33333333333337</ele><time>2026-05-03T09:51:07Z</time></trkpt><trkpt lat="42.23208612129642" lon="13.819031826516472"><ele>320.0</ele><time>2026-05-03T09:51:08Z</time></trkpt><trkpt lat="42.23194179379114" lon="13.819047702939228"><ele>320.0</ele><time>2026-05-03T09:51:09Z</time></trkpt><trkpt lat="42.231798786518404" lon="13.81907091054886"><ele>320.0</ele><time>2026-05-03T09:51:10Z</time></trkpt><trkpt lat="42.23165296697404" lon="13.819112415529123"><ele>320.0</ele><time>2026-05-03T09:51:11Z</time></trkpt><trkpt lat="42.23151198812278" lon="13.819185054114298"><ele>320.0</ele><time>2026-05-03T09:51:12Z</time></trkpt><trkpt lat="42.23139026001538" lon="13.819261939462763"><ele>321.25</ele><time>2026-05-03T09:51:13Z</time></trkpt><trkpt lat="42.23127191183972" lon="13.819346751941998"><ele>322.5</ele><time>2026-05-03T09:51:14Z</time></trkpt><trkpt lat="42.23115426975859" lon="13.819423171799341"><ele>323.75</ele><time>2026-05-03T09:51:15Z</time></trkpt><trkpt lat="42.231038715739906" lon="13.819487819455311"><ele>325.0</ele><time>2026-05-03T09:51:16Z</time></trkpt><trkpt lat="42.23091782353669" lon="13.819530441596614"><ele>325.0</ele><time>2026-05-03T09:51:17Z</time></trkpt><trkpt lat="42.230781804123" lon="13.819545199323985"><ele>325.0</ele><time>2026-05-03T09:51:18Z</time></trkpt><trkpt lat="42.23063503197197" lon="13.819557678693291"><ele>325.0</ele><time>2026-05-03T09:51:19Z</time></trkpt><trkpt lat="42.23047827594439" lon="13.81957576213359"><ele>325.0</ele><time>2026-05-03T09:51:20Z</time></trkpt><trkpt lat="42.230323569609986" lon="13.819607527368264"><ele>323.25</ele><time>2026-05-03T09:51:21Z</time></trkpt><trkpt lat="42.23017436197204" lon="13.819634755615919"><ele>321.5</ele><time>2026-05-03T09:51:22Z</time></trkpt><trkpt lat="42.23002705722558" lon="13.819656200070837"><ele>319.75</ele><time>2026-05-03T09:51:23Z</time></trkpt><trkpt lat="42.22987740864362" lon="13.819658090084301"><ele>318.0</ele><time>2026-05-03T09:51:24Z</time></trkpt><trkpt lat="42.22972408096652" lon="13.819656137352458"><ele>318.0</ele><time>2026-05-03T09:51:25Z</time></trkpt><trkpt lat="42.229568615128834" lon="13.819662115982062"><ele>318.0</ele><time>2026-05-03T09:51:26Z</time></trkpt><trkpt lat="42.22941142466476" lon="13.819672942749508"><ele>318.0</ele><time>2026-05-03T09:51:27Z</time></trkpt><trkpt lat="42.22925513416406" lon="13.819689443171287"><ele>318.0</ele><time>2026-05-03T09:51:28Z</time></trkpt><trkpt lat="42.229104746998715" lon="13.81970755885305"><ele>318.0</ele><time>2026-05-03T09:51:29Z</time></trkpt><trkpt lat="42.2289619926452" lon="13.819719776524293"><ele>318.0</ele><time>2026-05-03T09:51:30Z</time></trkpt><trkpt lat="42.22882529894239" lon="13.819730388414245"><ele>318.0</ele><time>2026-05-03T09:51:31Z</time></trkpt><trkpt lat="42.228693797356996" lon="13.819734891394571"><ele>319.75</ele><time>2026-05-03T09:51:32Z</time></trkpt><trkpt lat="42.22856205227255" lon="13.819728169582183"><ele>321.5</ele><time>2026-05-03T09:51:33Z</time></trkpt><trkpt lat="42.228429899592946" lon="13.819708774646427"><ele>323.25</ele><time>2026-05-03T09:51:34Z</time></trkpt><trkpt lat="42.22829842741698" lon="13.819672016902993"><ele>325.0</ele><time>2026-05-03T09:51:35Z</time></trkpt><trkpt lat="42.228171071478286" lon="13.819624604458891"><ele>325.0</ele><time>2026-05-03T09:51:36Z</time></trkpt><trkpt lat="42.22804811181845" lon="13.819585150462519"><ele>325.0</ele><time>2026-05-03T09:51:37Z</time></trkpt><trkpt lat="42.22793442547018" lon="13.8195539283289"><ele>325.0</ele><time>2026-05-03T09:51:38Z</time></trkpt><trkpt lat="42.22782935238953" lon="13.819534319857825"><ele>325.0</ele><time>2026-05-03T09:51:39Z</time></trkpt><trkpt lat="42.227730292448605" lon="13.81952651307633"><ele>325.0</ele><time>2026-05-03T09:51:40Z</time></trkpt><trkpt lat="42.22763701023274" lon="13.819526354222749"><ele>325.0</ele><time>2026-05-03T09:51:41Z</time></trkpt><trkpt lat="42.22754775178686" lon="13.819529589107493"><ele>325.0</ele><time>2026-05-03T09:51:42Z</time></trkpt><trkpt lat="42.227457319686714" lon="13.819535426083819"><ele>325.0</ele><time>2026-05-03T09:51:43Z</time></trkpt><trkpt lat="42.22736126651683" lon="13.819543441560178"><ele>325.0</ele><time>2026-05-03T09:51:44Z</time></trkpt><trkpt lat="42.22726152255004" lon="13.819554282816497"><ele>325.0</ele><time>2026-05-03T09:51:45Z</time></trkpt><trkpt lat="42.22716628713633" lon="13.819570313837614"><ele>324.66666666666663</ele><time>2026-05-03T09:51:46Z</time></trkpt><trkpt lat="42.22707874819957" lon="13.819590384593722"><ele>324.3333333333333</ele><time>2026-05-03T09:51:47Z</time></trkpt><trkpt lat="42.22699780512947" lon="13.819615378905084"><ele>324.0</ele><time>2026-05-03T09:51:48Z</time></trkpt><trkpt lat="42.226916677583866" lon="13.819645701507023"><ele>323.6666666666667</ele><time>2026-05-03T09:51:49Z</time></trkpt><trkpt lat="42.22683944412957" lon="13.819678555055603"><ele>323.33333333333337</ele><time>2026-05-03T09:51:50Z</time></trkpt><trkpt lat="42.22677160395643" lon="13.819710179858696"><ele>323.0</ele><time>2026-05-03T09:51:51Z</time></trkpt><trkpt lat="42.226707341895185" lon="13.81974860360732"><ele>323.0</ele><time>2026-05-03T09:51:52Z</time></trkpt><trkpt lat="42.22663639063123" lon="13.819801130803267"><ele>323.0</ele><time>2026-05-03T09:51:53Z</time></trkpt><trkpt lat="42.22657009534573" lon="13.819859870011173"><ele>323.0</ele><time>2026-05-03T09:51:54Z</time></trkpt><trkpt lat="42.226504585707374" lon="13.81992651304774"><ele>323.0</ele><time>2026-05-03T09:51:55Z</time></trkpt><trkpt lat="42.22643763277617" lon="13.820003703786838"><ele>323.0</ele><time>2026-05-03T09:51:56Z</time></trkpt><trkpt lat="42.22636875339957" lon="13.82009217340369"><ele>323.0</ele><time>2026-05-03T09:51:57Z</time></trkpt><trkpt lat="42.22629280337337" lon="13.820204627922218"><ele>321.33333333333337</ele><time>2026-05-03T09:51:58Z</time></trkpt><trkpt lat="42.22621278180454" lon="13.820340734704827"><ele>319.6666666666667</ele><time>2026-05-03T09:51:59Z</time></trkpt><trkpt lat="42.226123303358534" lon="13.820515233660954"><ele>318.0</ele><time>2026-05-03T09:52:00Z</time></trkpt><trkpt lat="42.22602720974047" lon="13.820711273067902"><ele>318.0</ele><time>2026-05-03T09:52:01Z</time></trkpt><trkpt lat="42.22593782944597" lon="13.820897998622454"><ele>318.0</ele><time>2026-05-03T09:52:02Z</time></trkpt><trkpt lat="42.22583775239292" lon="13.82107506591345"><ele>318.0</ele><time>2026-05-03T09:52:03Z</time></trkpt><trkpt lat="42.22572106102139" lon="13.821233386055505"><ele>318.25</ele><time>2026-05-03T09:52:04Z</time></trkpt><trkpt lat="42.225602405122515" lon="13.821351864956569"><ele>318.5</ele><time>2026-05-03T09:52:05Z</time></trkpt><trkpt lat="42.22547438004342" lon="13.821444664053855"><ele>318.75</ele><time>2026-05-03T09:52:06Z</time></trkpt><trkpt lat="42.225335718262336" lon="13.821531801466744"><ele>319.0</ele><time>2026-05-03T09:52:07Z</time></trkpt><trkpt lat="42.225191392168405" lon="13.82159453466868"><ele>319.0</ele><time>2026-05-03T09:52:08Z</time></trkpt><trkpt lat="42.22503316636714" lon="13.821639538294077"><ele>319.0</ele><time>2026-05-03T09:52:09Z</time></trkpt><trkpt lat="42.22486857866491" lon="13.821681111519272"><ele>319.0</ele><time>2026-05-03T09:52:10Z</time></trkpt><trkpt lat="42.224702626906705" lon="13.821728217607038"><ele>318.66666666666663</ele><time>2026-05-03T09:52:11Z</time></trkpt><trkpt lat="42.22453845998403" lon="13.821798828266973"><ele>318.3333333333333</ele><time>2026-05-03T09:52:12Z</time></trkpt><trkpt lat="42.224374589773696" lon="13.821886341108705"><ele>318.0</ele><time>2026-05-03T09:52:13Z</time></trkpt><trkpt lat="42.224221120168075" lon="13.821986363613783"><ele>318.5</ele><time>2026-05-03T09:52:14Z</time></trkpt><trkpt lat="42.22410037134142" lon="13.822114525250038"><ele>319.0</ele><time>2026-05-03T09:52:15Z</time></trkpt><trkpt lat="42.22398345588973" lon="13.822223758148553"><ele>319.5</ele><time>2026-05-03T09:52:16Z</time></trkpt><trkpt lat="42.22386380215489" lon="13.822309836450954"><ele>320.0</ele><time>2026-05-03T09:52:17Z</time></trkpt><trkpt lat="42.22375210710058" lon="13.822410038935427"><ele>320.0</ele><time>2026-05-03T09:52:18Z</time></trkpt><trkpt lat="42.223640544567886" lon="13.822499608310807"><ele>320.0</ele><time>2026-05-03T09:52:19Z</time></trkpt><trkpt lat="42.22352675163165" lon="13.82257659243155"><ele>320.0</ele><time>2026-05-03T09:52:20Z</time></trkpt><trkpt lat="42.22340683868432" lon="13.8226428246825"><ele>320.0</ele><time>2026-05-03T09:52:21Z</time></trkpt><trkpt lat="42.22328486541601" lon="13.822716647002785"><ele>320.0</ele><time>2026-05-03T09:52:22Z</time></trkpt><trkpt lat="42.22315436391232" lon="13.822716505282962"><ele>320.0</ele><time>2026-05-03T09:52:23Z</time></trkpt><trkpt lat="42.22302657915943" lon="13.822706675263174"><ele>320.0</ele><time>2026-05-03T09:52:24Z</time></trkpt><trkpt lat="42.22288933793011" lon="13.822678433372714"><ele>320.0</ele><time>2026-05-03T09:52:25Z</time></trkpt><trkpt lat="42.22274515759943" lon="13.822644421251391"><ele>320.0</ele><time>2026-05-03T09:52:26Z</time></trkpt><trkpt lat="42.22260051816496" lon="13.822607407633642"><ele>320.0</ele><time>2026-05-03T09:52:27Z</time></trkpt><trkpt lat="42.22246399518817" lon="13.822573221173155"><ele>320.0</ele><time>2026-05-03T09:52:28Z</time></trkpt><trkpt lat="42.222338608980486" lon="13.82256491936871"><ele>320.0</ele><time>2026-05-03T09:52:29Z</time></trkpt><trkpt lat="42.222228283633164" lon="13.822512233583872"><ele>321.2</ele><time>2026-05-03T09:52:30Z</time></trkpt><trkpt lat="42.222116231641095" lon="13.822476770501668"><ele>322.4</ele><time>2026-05-03T09:52:31Z</time></trkpt><trkpt lat="42.222009194023876" lon="13.822437414293402"><ele>323.6</ele><time>2026-05-03T09:52:32Z</time></trkpt><trkpt lat="42.2219059419704" lon="13.822399328063716"><ele>324.8</ele><time>2026-05-03T09:52:33Z</time></trkpt><trkpt lat="42.22180701397597" lon="13.822360657327643"><ele>326.0</ele><time>2026-05-03T09:52:34Z</time></trkpt><trkpt lat="42.221708709167224" lon="13.822321346453803"><ele>326.0</ele><time>2026-05-03T09:52:35Z</time></trkpt><trkpt lat="42.221608219144386" lon="13.822282839514404"><ele>326.0</ele><time>2026-05-03T09:52:36Z</time></trkpt><trkpt lat="42.22149831835567" lon="13.822274777740379"><ele>326.0</ele><time>2026-05-03T09:52:37Z</time></trkpt><trkpt lat="42.221388119847056" lon="13.822249943893977"><ele>326.0</ele><time>2026-05-03T09:52:38Z</time></trkpt><trkpt lat="42.22127539022628" lon="13.822234684129963"><ele>326.0</ele><time>2026-05-03T09:52:39Z</time></trkpt><trkpt lat="42.22116298663845" lon="13.822227114583894"><ele>326.6</ele><time>2026-05-03T09:52:40Z</time></trkpt><trkpt lat="42.221054794863385" lon="13.822202196674612"><ele>327.20000000000005</ele><time>2026-05-03T09:52:41Z</time></trkpt><trkpt lat="42.22094797807551" lon="13.822231682129182"><ele>327.79999999999995</ele><time>2026-05-03T09:52:42Z</time></trkpt><trkpt lat="42.22085360257653" lon="13.822251332732893"><ele>328.4</ele><time>2026-05-03T09:52:43Z</time></trkpt><trkpt lat="42.220757728039594" lon="13.822277434264294"><ele>329.0</ele><time>2026-05-03T09:52:44Z</time></trkpt><trkpt lat="42.220666417002" lon="13.822358753370892"><ele>327.75</ele><time>2026-05-03T09:52:45Z</time></trkpt><trkpt lat="42.2205803090477" lon="13.82245814687039"><ele>326.5</ele><time>2026-05-03T09:52:46Z</time></trkpt><trkpt lat="42.22049543886464" lon="13.822567506980153"><ele>325.25</ele><time>2026-05-03T09:52:47Z</time></trkpt><trkpt lat="42.220408996555015" lon="13.822678826451623"><ele>324.0</ele><time>2026-05-03T09:52:48Z</time></trkpt><trkpt lat="42.22032069130819" lon="13.822794499389"><ele>324.0</ele><time>2026-05-03T09:52:49Z</time></trkpt><trkpt lat="42.22022831237513" lon="13.822913271099017"><ele>324.0</ele><time>2026-05-03T09:52:50Z</time></trkpt><trkpt lat="42.22012803405506" lon="13.823027203379784"><ele>324.0</ele><time>2026-05-03T09:52:51Z</time></trkpt><trkpt lat="42.22001575858934" lon="13.823131774772756"><ele>324.0</ele><time>2026-05-03T09:52:52Z</time></trkpt><trkpt lat="42.21991511903878" lon="13.823246349962941"><ele>324.0</ele><time>2026-05-03T09:52:53Z</time></trkpt><trkpt lat="42.21981926383629" lon="13.823367802870596"><ele>324.0</ele><time>2026-05-03T09:52:54Z</time></trkpt><trkpt lat="42.21972361106703" lon="13.823491564703415"><ele>324.0</ele><time>2026-05-03T09:52:55Z</time></trkpt><trkpt lat="42.21962746241811" lon="13.823622917070454"><ele>324.0</ele><time>2026-05-03T09:52:56Z</time></trkpt><trkpt lat="42.219495042235906" lon="13.82373715893057"><ele>323.0</ele><time>2026-05-03T09:52:57Z</time></trkpt><trkpt lat="42.21932917026712" lon="13.823808569461299"><ele>322.0</ele><time>2026-05-03T09:52:58Z</time></trkpt><trkpt lat="42.21917914950488" lon="13.823873891101373"><ele>321.0</ele><time>2026-05-03T09:52:59Z</time></trkpt><trkpt lat="42.21904593475909" lon="13.823934809379601"><ele>321.25</ele><time>2026-05-03T09:53:00Z</time></trkpt><trkpt lat="42.218923418434784" lon="13.82399809936905"><ele>321.5</ele><time>2026-05-03T09:53:01Z</time></trkpt><trkpt lat="42.21880758538744" lon="13.824057475820668"><ele>321.75</ele><time>2026-05-03T09:53:02Z</time></trkpt><trkpt lat="42.218685956543084" lon="13.824117312796757"><ele>322.0</ele><time>2026-05-03T09:53:03Z</time></trkpt><trkpt lat="42.21855923079726" lon="13.824175071391846"><ele>322.0</ele><time>2026-05-03T09:53:04Z</time></trkpt><trkpt lat="42.21842851578338" lon="13.824230970957752"><ele>322.0</ele><time>2026-05-03T09:53:05Z</time></trkpt><trkpt lat="42.218296834513446" lon="13.824284965376966"><ele>322.0</ele><time>2026-05-03T09:53:06Z</time></trkpt><trkpt lat="42.218171198552476" lon="13.824335133520009"><ele>322.0</ele><time>2026-05-03T09:53:07Z</time></trkpt><trkpt lat="42.218058936132635" lon="13.824394758670879"><ele>322.5</ele><time>2026-05-03T09:53:08Z</time></trkpt><trkpt lat="42.21794761663124" lon="13.824439154442652"><ele>323.0</ele><time>2026-05-03T09:53:09Z</time></trkpt><trkpt lat="42.217820940356184" lon="13.824467953389005"><ele>323.5</ele><time>2026-05-03T09:53:10Z</time></trkpt><trkpt lat="42.21769460574326" lon="13.824535607143634"><ele>324.0</ele><time>2026-05-03T09:53:11Z</time></trkpt><trkpt lat="42.217574047415376" lon="13.824607558237311"><ele>324.0</ele><time>2026-05-03T09:53:12Z</time></trkpt><trkpt lat="42.21746332638737" lon="13.824677683252604"><ele>324.0</ele><time>2026-05-03T09:53:13Z</time></trkpt><trkpt lat="42.217367677755334" lon="13.824760967057797"><ele>324.0</ele><time>2026-05-03T09:53:14Z</time></trkpt><trkpt lat="42.217270009828326" lon="13.824819863632316"><ele>324.0</ele><time>2026-05-03T09:53:15Z</time></trkpt><trkpt lat="42.217178314471504" lon="13.824877635075877"><ele>324.0</ele><time>2026-05-03T09:53:16Z</time></trkpt><trkpt lat="42.21709094938701" lon="13.824897366173996"><ele>323.6</ele><time>2026-05-03T09:53:17Z</time></trkpt><trkpt lat="42.217027412160455" lon="13.824922223773203"><ele>323.2</ele><time>2026-05-03T09:53:18Z</time></trkpt><trkpt lat="42.216970378436756" lon="13.824766551632845"><ele>322.8</ele><time>2026-05-03T09:53:19Z</time></trkpt><trkpt lat="42.21691955419219" lon="13.82464501557097"><ele>322.40000000000003</ele><time>2026-05-03T09:53:20Z</time></trkpt><trkpt lat="42.21685024986312" lon="13.824514352171015"><ele>322.0</ele><time>2026-05-03T09:53:21Z</time></trkpt><trkpt lat="42.2167881102221" lon="13.824357182340322"><ele>321.25</ele><time>2026-05-03T09:53:22Z</time></trkpt><trkpt lat="42.21671986813667" lon="13.824200746934583"><ele>320.5</ele><time>2026-05-03T09:53:23Z</time></trkpt><trkpt lat="42.21665141492316" lon="13.824039875111879"><ele>319.75</ele><time>2026-05-03T09:53:24Z</time></trkpt><trkpt lat="42.21658274112858" lon="13.823873198905392"><ele>319.0</ele><time>2026-05-03T09:53:25Z</time></trkpt><trkpt lat="42.21651274375848" lon="13.82370652796405"><ele>317.75</ele><time>2026-05-03T09:53:26Z</time></trkpt><trkpt lat="42.216447152274355" lon="13.823553267972024"><ele>316.5</ele><time>2026-05-03T09:53:27Z</time></trkpt><trkpt lat="42.216386856743675" lon="13.823406606585685"><ele>315.25</ele><time>2026-05-03T09:53:28Z</time></trkpt><trkpt lat="42.21633148846368" lon="13.823266826680225"><ele>314.0</ele><time>2026-05-03T09:53:29Z</time></trkpt><trkpt lat="42.216278307812296" lon="13.823133006007065"><ele>313.8</ele><time>2026-05-03T09:53:30Z</time></trkpt><trkpt lat="42.21622521660443" lon="13.823005732985653"><ele>313.59999999999997</ele><time>2026-05-03T09:53:31Z</time></trkpt><trkpt lat="42.21617376051909" lon="13.822878776674354"><ele>313.4</ele><time>2026-05-03T09:53:32Z</time></trkpt><trkpt lat="42.21611505467173" lon="13.822745505849523"><ele>313.2</ele><time>2026-05-03T09:53:33Z</time></trkpt><trkpt lat="42.21605726387664" lon="13.82261608356988"><ele>313.0</ele><time>2026-05-03T09:53:34Z</time></trkpt><trkpt lat="42.215999103959945" lon="13.822493709026727"><ele>313.4</ele><time>2026-05-03T09:53:35Z</time></trkpt><trkpt lat="42.215920918737396" lon="13.822396268022814"><ele>313.8</ele><time>2026-05-03T09:53:36Z</time></trkpt><trkpt lat="42.215828285771174" lon="13.8223341505493"><ele>314.2</ele><time>2026-05-03T09:53:37Z</time></trkpt><trkpt lat="42.21572813416669" lon="13.822300628144633"><ele>314.6</ele><time>2026-05-03T09:53:38Z</time></trkpt><trkpt lat="42.215626500298114" lon="13.822296993206791"><ele>315.0</ele><time>2026-05-03T09:53:39Z</time></trkpt><trkpt lat="42.21553290925328" lon="13.82230750043548"><ele>315.4</ele><time>2026-05-03T09:53:40Z</time></trkpt><trkpt lat="42.21544576565683" lon="13.822330988004609"><ele>315.8</ele><time>2026-05-03T09:53:41Z</time></trkpt><trkpt lat="42.21535381524534" lon="13.822371599246374"><ele>316.2</ele><time>2026-05-03T09:53:42Z</time></trkpt><trkpt lat="42.21525433513495" lon="13.822429361056638"><ele>316.6</ele><time>2026-05-03T09:53:43Z</time></trkpt><trkpt lat="42.21514828283335" lon="13.822492374990475"><ele>317.0</ele><time>2026-05-03T09:53:44Z</time></trkpt><trkpt lat="42.21503878822121" lon="13.822554025730797"><ele>317.0</ele><time>2026-05-03T09:53:45Z</time></trkpt><trkpt lat="42.21492555856804" lon="13.822619453400968"><ele>317.0</ele><time>2026-05-03T09:53:46Z</time></trkpt><trkpt lat="42.21481534381172" lon="13.82268317362746"><ele>317.0</ele><time>2026-05-03T09:53:47Z</time></trkpt><trkpt lat="42.21470928591183" lon="13.822744131722574"><ele>317.0</ele><time>2026-05-03T09:53:48Z</time></trkpt><trkpt lat="42.214607907253" lon="13.822788924597965"><ele>317.0</ele><time>2026-05-03T09:53:49Z</time></trkpt><trkpt lat="42.2145136445119" lon="13.822799117548893"><ele>317.0</ele><time>2026-05-03T09:53:50Z</time></trkpt><trkpt lat="42.21442952238397" lon="13.82276975148629"><ele>317.0</ele><time>2026-05-03T09:53:51Z</time></trkpt><trkpt lat="42.2143617863032" lon="13.82271594864049"><ele>317.0</ele><time>2026-05-03T09:53:52Z</time></trkpt><trkpt lat="42.21430436625682" lon="13.822659573377674"><ele>317.0</ele><time>2026-05-03T09:53:53Z</time></trkpt><trkpt lat="42.21425128999149" lon="13.822604028242756"><ele>317.0</ele><time>2026-05-03T09:53:54Z</time></trkpt><trkpt lat="42.21416324558014" lon="13.82248149030534"><ele>317.0</ele><time>2026-05-03T09:53:56Z</time></trkpt><trkpt lat="42.21412268196413" lon="13.82240776619201"><ele>317.0</ele><time>2026-05-03T09:53:57Z</time></trkpt><trkpt lat="42.21408686400319" lon="13.822329713232616"><ele>317.0</ele><time>2026-05-03T09:53:58Z</time></trkpt><trkpt lat="42.21405538414773" lon="13.822252552552175"><ele>317.0</ele><time>2026-05-03T09:53:59Z</time></trkpt><trkpt lat="42.21403224151035" lon="13.82215205083624"><ele>317.0</ele><time>2026-05-03T09:54:01Z</time></trkpt><trkpt lat="42.21404996427715" lon="13.822038719710743"><ele>317.0</ele><time>2026-05-03T09:54:04Z</time></trkpt><trkpt lat="42.2141375474137" lon="13.821964123584106"><ele>317.0</ele><time>2026-05-03T09:54:06Z</time></trkpt><trkpt lat="42.21419811007249" lon="13.821916001259204"><ele>317.0</ele><time>2026-05-03T09:54:07Z</time></trkpt><trkpt lat="42.214257987741846" lon="13.821849184550064"><ele>317.0</ele><time>2026-05-03T09:54:08Z</time></trkpt><trkpt lat="42.2143160349147" lon="13.821766438879276"><ele>317.0</ele><time>2026-05-03T09:54:09Z</time></trkpt><trkpt lat="42.2143737181184" lon="13.821686028675593"><ele>317.0</ele><time>2026-05-03T09:54:10Z</time></trkpt><trkpt lat="42.21443056912158" lon="13.821607776793309"><ele>317.0</ele><time>2026-05-03T09:54:11Z</time></trkpt><trkpt lat="42.21447876157789" lon="13.821534456039343"><ele>317.0</ele><time>2026-05-03T09:54:12Z</time></trkpt><trkpt lat="42.214523869542035" lon="13.821470056939418"><ele>317.0</ele><time>2026-05-03T09:54:13Z</time></trkpt><trkpt lat="42.21459761588718" lon="13.821369109317372"><ele>317.0</ele><time>2026-05-03T09:54:15Z</time></trkpt><trkpt lat="42.21464874890547" lon="13.821260781104414"><ele>317.0</ele><time>2026-05-03T09:54:17Z</time></trkpt><trkpt lat="42.2147206859473" lon="13.821171739634794"><ele>317.0</ele><time>2026-05-03T09:54:19Z</time></trkpt><trkpt lat="42.21477325806314" lon="13.821116508998703"><ele>317.0</ele><time>2026-05-03T09:54:20Z</time></trkpt><trkpt lat="42.21482177245441" lon="13.821043053248633"><ele>317.33333333333337</ele><time>2026-05-03T09:54:21Z</time></trkpt><trkpt lat="42.21487218546204" lon="13.820964278991644"><ele>317.6666666666667</ele><time>2026-05-03T09:54:22Z</time></trkpt><trkpt lat="42.214927339829686" lon="13.820885001093151"><ele>318.0</ele><time>2026-05-03T09:54:23Z</time></trkpt><trkpt lat="42.21497727375015" lon="13.820823877466905"><ele>318.3333333333333</ele><time>2026-05-03T09:54:24Z</time></trkpt><trkpt lat="42.21503954593414" lon="13.820734419097416"><ele>318.66666666666663</ele><time>2026-05-03T09:54:26Z</time></trkpt><trkpt lat="42.21496288274441" lon="13.82080018766561"><ele>319.0</ele><time>2026-05-03T09:54:31Z</time></trkpt><trkpt lat="42.21484755958992" lon="13.82095731414604"><ele>319.0</ele><time>2026-05-03T09:54:33Z</time></trkpt><trkpt lat="42.21478285637404" lon="13.82104424302188"><ele>319.0</ele><time>2026-05-03T09:54:34Z</time></trkpt><trkpt lat="42.214720177198046" lon="13.821140933151547"><ele>319.0</ele><time>2026-05-03T09:54:35Z</time></trkpt><trkpt lat="42.21466012570033" lon="13.82123488360189"><ele>319.0</ele><time>2026-05-03T09:54:36Z</time></trkpt><trkpt lat="42.2146021122418" lon="13.821325126997394"><ele>319.0</ele><time>2026-05-03T09:54:37Z</time></trkpt><trkpt lat="42.21454363897347" lon="13.821413267951"><ele>319.0</ele><time>2026-05-03T09:54:38Z</time></trkpt><trkpt lat="42.214483180064725" lon="13.821500300012978"><ele>319.0</ele><time>2026-05-03T09:54:39Z</time></trkpt><trkpt lat="42.21441574172114" lon="13.821598272340415"><ele>319.0</ele><time>2026-05-03T09:54:40Z</time></trkpt><trkpt lat="42.21434554715008" lon="13.821695562215082"><ele>319.0</ele><time>2026-05-03T09:54:41Z</time></trkpt><trkpt lat="42.214269711123585" lon="13.821786648589496"><ele>319.0</ele><time>2026-05-03T09:54:42Z</time></trkpt><trkpt lat="42.2141914016686" lon="13.821865451243044"><ele>318.66666666666663</ele><time>2026-05-03T09:54:43Z</time></trkpt><trkpt lat="42.214112514069384" lon="13.82193732545395"><ele>318.3333333333333</ele><time>2026-05-03T09:54:44Z</time></trkpt><trkpt lat="42.214030499171116" lon="13.821998369226026"><ele>318.0</ele><time>2026-05-03T09:54:45Z</time></trkpt><trkpt lat="42.213943317335364" lon="13.822040889400931"><ele>317.6666666666667</ele><time>2026-05-03T09:54:46Z</time></trkpt><trkpt lat="42.213855850984345" lon="13.822064489249088"><ele>317.33333333333337</ele><time>2026-05-03T09:54:47Z</time></trkpt><trkpt lat="42.21378317495574" lon="13.822080468487506"><ele>317.0</ele><time>2026-05-03T09:54:48Z</time></trkpt><trkpt lat="42.213717435127144" lon="13.822101136107866"><ele>317.0</ele><time>2026-05-03T09:54:49Z</time></trkpt><trkpt lat="42.21365185357252" lon="13.822123650454817"><ele>317.0</ele><time>2026-05-03T09:54:50Z</time></trkpt><trkpt lat="42.213574360114386" lon="13.822148446655277"><ele>317.0</ele><time>2026-05-03T09:54:51Z</time></trkpt><trkpt lat="42.21349026276156" lon="13.822173853340193"><ele>317.0</ele><time>2026-05-03T09:54:52Z</time></trkpt><trkpt lat="42.21340254788853" lon="13.822206297967076"><ele>317.0</ele><time>2026-05-03T09:54:53Z</time></trkpt><trkpt lat="42.21331770054635" lon="13.822240964253623"><ele>317.0</ele><time>2026-05-03T09:54:54Z</time></trkpt><trkpt lat="42.213236478137944" lon="13.82226175132441"><ele>317.0</ele><time>2026-05-03T09:54:55Z</time></trkpt><trkpt lat="42.213174683386896" lon="13.822244898917559"><ele>317.0</ele><time>2026-05-03T09:54:56Z</time></trkpt><trkpt lat="42.2131373618396" lon="13.822000036773309"><ele>317.0</ele><time>2026-05-03T09:54:59Z</time></trkpt><trkpt lat="42.2131489064957" lon="13.821880522480328"><ele>317.0</ele><time>2026-05-03T09:55:00Z</time></trkpt><trkpt lat="42.21315944085196" lon="13.82177146718813"><ele>317.0</ele><time>2026-05-03T09:55:01Z</time></trkpt><trkpt lat="42.21317106350038" lon="13.821664599125846"><ele>317.14285714285717</ele><time>2026-05-03T09:55:02Z</time></trkpt><trkpt lat="42.21318034450645" lon="13.821563922475795"><ele>317.2857142857143</ele><time>2026-05-03T09:55:03Z</time></trkpt><trkpt lat="42.213173883286025" lon="13.821469720853711"><ele>317.42857142857144</ele><time>2026-05-03T09:55:04Z</time></trkpt><trkpt lat="42.213185237979985" lon="13.821381331933281"><ele>317.57142857142856</ele><time>2026-05-03T09:55:05Z</time></trkpt><trkpt lat="42.213196649571415" lon="13.821289191806839"><ele>317.7142857142857</ele><time>2026-05-03T09:55:06Z</time></trkpt><trkpt lat="42.213207335972456" lon="13.821186606272217"><ele>317.85714285714283</ele><time>2026-05-03T09:55:07Z</time></trkpt><trkpt lat="42.21321392912" lon="13.821074213452722"><ele>318.0</ele><time>2026-05-03T09:55:08Z</time></trkpt><trkpt lat="42.213217345219086" lon="13.820959551783842"><ele>317.4</ele><time>2026-05-03T09:55:09Z</time></trkpt><trkpt lat="42.21321683884638" lon="13.820839792961001"><ele>316.8</ele><time>2026-05-03T09:55:10Z</time></trkpt><trkpt lat="42.21320766447699" lon="13.820717309567282"><ele>316.2</ele><time>2026-05-03T09:55:11Z</time></trkpt><trkpt lat="42.21319514744287" lon="13.820592904259545"><ele>315.6</ele><time>2026-05-03T09:55:12Z</time></trkpt><trkpt lat="42.213181182099135" lon="13.820463598694904"><ele>315.0</ele><time>2026-05-03T09:55:13Z</time></trkpt><trkpt lat="42.213171322156256" lon="13.820343177188581"><ele>315.0</ele><time>2026-05-03T09:55:14Z</time></trkpt><trkpt lat="42.21317486427312" lon="13.820228033046071"><ele>315.0</ele><time>2026-05-03T09:55:15Z</time></trkpt><trkpt lat="42.21320587639709" lon="13.820126005280908"><ele>315.0</ele><time>2026-05-03T09:55:16Z</time></trkpt><trkpt lat="42.21326600516973" lon="13.820038729621084"><ele>315.0</ele><time>2026-05-03T09:55:17Z</time></trkpt><trkpt lat="42.21334826548283" lon="13.819993706040906"><ele>315.0</ele><time>2026-05-03T09:55:18Z</time></trkpt><trkpt lat="42.21343089741559" lon="13.819998578557733"><ele>315.0</ele><time>2026-05-03T09:55:19Z</time></trkpt><trkpt lat="42.21349900746465" lon="13.820033113367533"><ele>315.0</ele><time>2026-05-03T09:55:20Z</time></trkpt><trkpt lat="42.21354957465445" lon="13.820089649447581"><ele>315.0</ele><time>2026-05-03T09:55:21Z</time></trkpt><trkpt lat="42.213603147341296" lon="13.820231123780777"><ele>315.0</ele><time>2026-05-03T09:55:23Z</time></trkpt><trkpt lat="42.21361372893087" lon="13.82035656121358"><ele>315.0</ele><time>2026-05-03T09:55:25Z</time></trkpt><trkpt lat="42.213438594202515" lon="13.82053716855853"><ele>315.0</ele><time>2026-05-03T09:55:28Z</time></trkpt><trkpt lat="42.21333991491706" lon="13.820606397065342"><ele>315.0</ele><time>2026-05-03T09:55:29Z</time></trkpt><trkpt lat="42.213221618360826" lon="13.820695711148355"><ele>315.0</ele><time>2026-05-03T09:55:30Z</time></trkpt><trkpt lat="42.21309880962848" lon="13.820785168772064"><ele>315.0</ele><time>2026-05-03T09:55:31Z</time></trkpt><trkpt lat="42.21295537382166" lon="13.820891001257559"><ele>315.0</ele><time>2026-05-03T09:55:32Z</time></trkpt><trkpt lat="42.21279925716323" lon="13.820998020709975"><ele>315.0</ele><time>2026-05-03T09:55:33Z</time></trkpt><trkpt lat="42.2126439561848" lon="13.821103476847922"><ele>315.0</ele><time>2026-05-03T09:55:34Z</time></trkpt><trkpt lat="42.21246421783866" lon="13.821199286046566"><ele>315.3333333333333</ele><time>2026-05-03T09:55:35Z</time></trkpt><trkpt lat="42.212281422152806" lon="13.821318321871294"><ele>315.66666666666663</ele><time>2026-05-03T09:55:36Z</time></trkpt><trkpt lat="42.21210515529401" lon="13.821431821955617"><ele>316.0</ele><time>2026-05-03T09:55:37Z</time></trkpt><trkpt lat="42.21194091562267" lon="13.821554118349823"><ele>316.0</ele><time>2026-05-03T09:55:38Z</time></trkpt><trkpt lat="42.21176938582317" lon="13.821654863049217"><ele>316.0</ele><time>2026-05-03T09:55:39Z</time></trkpt><trkpt lat="42.21159555595816" lon="13.821756613745247"><ele>316.0</ele><time>2026-05-03T09:55:40Z</time></trkpt><trkpt lat="42.21142137728269" lon="13.821864051443914"><ele>314.66666666666663</ele><time>2026-05-03T09:55:41Z</time></trkpt><trkpt lat="42.211245222984594" lon="13.821976872716181"><ele>313.3333333333333</ele><time>2026-05-03T09:55:42Z</time></trkpt><trkpt lat="42.21107159235289" lon="13.822088249792087"><ele>312.0</ele><time>2026-05-03T09:55:43Z</time></trkpt><trkpt lat="42.21089777604743" lon="13.822199789491126"><ele>312.0</ele><time>2026-05-03T09:55:44Z</time></trkpt><trkpt lat="42.210728730105444" lon="13.822308736454263"><ele>312.0</ele><time>2026-05-03T09:55:45Z</time></trkpt><trkpt lat="42.210571949857126" lon="13.822411746282182"><ele>312.0</ele><time>2026-05-03T09:55:46Z</time></trkpt><trkpt lat="42.210409484500175" lon="13.822517284375236"><ele>311.6666666666667</ele><time>2026-05-03T09:55:47Z</time></trkpt><trkpt lat="42.210240346348726" lon="13.822628573006906"><ele>311.33333333333337</ele><time>2026-05-03T09:55:48Z</time></trkpt><trkpt lat="42.21006816293275" lon="13.82274121572451"><ele>311.0</ele><time>2026-05-03T09:55:49Z</time></trkpt><trkpt lat="42.20989273653136" lon="13.822854645395115"><ele>313.0</ele><time>2026-05-03T09:55:50Z</time></trkpt><trkpt lat="42.20971400809635" lon="13.82296867794137"><ele>315.0</ele><time>2026-05-03T09:55:51Z</time></trkpt><trkpt lat="42.20953761091646" lon="13.823084117788376"><ele>317.0</ele><time>2026-05-03T09:55:52Z</time></trkpt><trkpt lat="42.20936316157548" lon="13.823200608725259"><ele>317.0</ele><time>2026-05-03T09:55:53Z</time></trkpt><trkpt lat="42.20919139099501" lon="13.823321150250102"><ele>317.0</ele><time>2026-05-03T09:55:54Z</time></trkpt><trkpt lat="42.209030873914955" lon="13.823443617367381"><ele>317.0</ele><time>2026-05-03T09:55:55Z</time></trkpt><trkpt lat="42.20888177984856" lon="13.823568466876681"><ele>317.6666666666667</ele><time>2026-05-03T09:55:56Z</time></trkpt><trkpt lat="42.208734095399386" lon="13.823693009053047"><ele>318.3333333333333</ele><time>2026-05-03T09:55:57Z</time></trkpt><trkpt lat="42.20859339869254" lon="13.823823446942777"><ele>319.0</ele><time>2026-05-03T09:55:58Z</time></trkpt><trkpt lat="42.208459008664605" lon="13.823956298835748"><ele>319.0</ele><time>2026-05-03T09:55:59Z</time></trkpt><trkpt lat="42.20832655250865" lon="13.824093670873237"><ele>319.0</ele><time>2026-05-03T09:56:00Z</time></trkpt><trkpt lat="42.208198877390245" lon="13.824237848365096"><ele>319.0</ele><time>2026-05-03T09:56:01Z</time></trkpt><trkpt lat="42.20807667264667" lon="13.824393896791491"><ele>322.3333333333333</ele><time>2026-05-03T09:56:02Z</time></trkpt><trkpt lat="42.20794868616335" lon="13.82457001555121"><ele>325.6666666666667</ele><time>2026-05-03T09:56:03Z</time></trkpt><trkpt lat="42.207825921583684" lon="13.824769466613422"><ele>329.0</ele><time>2026-05-03T09:56:04Z</time></trkpt><trkpt lat="42.20770106737649" lon="13.824998180687455"><ele>321.0</ele><time>2026-05-03T09:56:05Z</time></trkpt><trkpt lat="42.20757447589345" lon="13.825247820378031"><ele>313.0</ele><time>2026-05-03T09:56:06Z</time></trkpt><trkpt lat="42.20744469646918" lon="13.825497572311312"><ele>313.0</ele><time>2026-05-03T09:56:07Z</time></trkpt><trkpt lat="42.20731950175315" lon="13.825740579887443"><ele>313.0</ele><time>2026-05-03T09:56:08Z</time></trkpt><trkpt lat="42.20719243883711" lon="13.82596990523145"><ele>313.0</ele><time>2026-05-03T09:56:09Z</time></trkpt><trkpt lat="42.20706475218061" lon="13.826182185993625"><ele>313.0</ele><time>2026-05-03T09:56:10Z</time></trkpt><trkpt lat="42.20691802982226" lon="13.826382601561377"><ele>313.0</ele><time>2026-05-03T09:56:11Z</time></trkpt><trkpt lat="42.20676691314088" lon="13.826578140253762"><ele>313.0</ele><time>2026-05-03T09:56:12Z</time></trkpt><trkpt lat="42.20661263854862" lon="13.82677258411013"><ele>316.66666666666663</ele><time>2026-05-03T09:56:13Z</time></trkpt><trkpt lat="42.20645954758821" lon="13.82696703318913"><ele>320.3333333333333</ele><time>2026-05-03T09:56:14Z</time></trkpt><trkpt lat="42.2063098383038" lon="13.82717169844103"><ele>324.0</ele><time>2026-05-03T09:56:15Z</time></trkpt><trkpt lat="42.2061748750799" lon="13.827393107033604"><ele>324.0</ele><time>2026-05-03T09:56:16Z</time></trkpt><trkpt lat="42.20605935045183" lon="13.82762535925816"><ele>324.0</ele><time>2026-05-03T09:56:17Z</time></trkpt><trkpt lat="42.2059640330945" lon="13.82786338252678"><ele>324.0</ele><time>2026-05-03T09:56:18Z</time></trkpt><trkpt lat="42.205891135249836" lon="13.828103227146496"><ele>317.6666666666667</ele><time>2026-05-03T09:56:19Z</time></trkpt><trkpt lat="42.205834146641195" lon="13.828356101617095"><ele>311.33333333333337</ele><time>2026-05-03T09:56:20Z</time></trkpt><trkpt lat="42.20578642397901" lon="13.828619026232769"><ele>305.0</ele><time>2026-05-03T09:56:21Z</time></trkpt><trkpt lat="42.20574259919598" lon="13.828887973962274"><ele>308.0</ele><time>2026-05-03T09:56:22Z</time></trkpt><trkpt lat="42.20569344570751" lon="13.829159284551123"><ele>311.0</ele><time>2026-05-03T09:56:23Z</time></trkpt><trkpt lat="42.20564774040374" lon="13.829429764790978"><ele>314.0</ele><time>2026-05-03T09:56:24Z</time></trkpt><trkpt lat="42.20560312054687" lon="13.829699665415015"><ele>314.0</ele><time>2026-05-03T09:56:25Z</time></trkpt><trkpt lat="42.20556141686383" lon="13.829968697106956"><ele>314.0</ele><time>2026-05-03T09:56:26Z</time></trkpt><trkpt lat="42.20551777514713" lon="13.830230297306917"><ele>314.0</ele><time>2026-05-03T09:56:27Z</time></trkpt><trkpt lat="42.205473255667414" lon="13.830489374472789"><ele>310.6666666666667</ele><time>2026-05-03T09:56:28Z</time></trkpt><trkpt lat="42.205429064598135" lon="13.830746646482147"><ele>307.3333333333333</ele><time>2026-05-03T09:56:29Z</time></trkpt><trkpt lat="42.2053834803339" lon="13.830998650339412"><ele>304.0</ele><time>2026-05-03T09:56:30Z</time></trkpt><trkpt lat="42.205334528254" lon="13.83124896216044"><ele>301.3333333333333</ele><time>2026-05-03T09:56:31Z</time></trkpt><trkpt lat="42.20528128338743" lon="13.831504139051518"><ele>298.6666666666667</ele><time>2026-05-03T09:56:32Z</time></trkpt><trkpt lat="42.20522193208053" lon="13.831757370157067"><ele>296.0</ele><time>2026-05-03T09:56:33Z</time></trkpt><trkpt lat="42.20515494633125" lon="13.832004319106632"><ele>291.33333333333337</ele><time>2026-05-03T09:56:34Z</time></trkpt><trkpt lat="42.2050815025981" lon="13.832243570453505"><ele>286.6666666666667</ele><time>2026-05-03T09:56:35Z</time></trkpt><trkpt lat="42.205001583619364" lon="13.832470442534078"><ele>282.0</ele><time>2026-05-03T09:56:36Z</time></trkpt><trkpt lat="42.204915290618644" lon="13.832688243310766"><ele>287.6666666666667</ele><time>2026-05-03T09:56:37Z</time></trkpt><trkpt lat="42.20482734033523" lon="13.832900643922414"><ele>293.33333333333337</ele><time>2026-05-03T09:56:38Z</time></trkpt><trkpt lat="42.20474190410145" lon="13.833117779940682"><ele>299.0</ele><time>2026-05-03T09:56:39Z</time></trkpt><trkpt lat="42.20465316413363" lon="13.83334208677521"><ele>293.33333333333337</ele><time>2026-05-03T09:56:40Z</time></trkpt><trkpt lat="42.20456414787692" lon="13.833565263633984"><ele>287.6666666666667</ele><time>2026-05-03T09:56:41Z</time></trkpt><trkpt lat="42.20447602004596" lon="13.833784008811385"><ele>282.0</ele><time>2026-05-03T09:56:42Z</time></trkpt><trkpt lat="42.20438856620493" lon="13.834003647374262"><ele>282.0</ele><time>2026-05-03T09:56:43Z</time></trkpt><trkpt lat="42.20430075619329" lon="13.834224526389965"><ele>282.0</ele><time>2026-05-03T09:56:44Z</time></trkpt><trkpt lat="42.20421383177611" lon="13.834445434920495"><ele>282.0</ele><time>2026-05-03T09:56:45Z</time></trkpt><trkpt lat="42.20413106408133" lon="13.83466191776634"><ele>279.6666666666667</ele><time>2026-05-03T09:56:46Z</time></trkpt><trkpt lat="42.204046080572674" lon="13.834870111944923"><ele>277.33333333333337</ele><time>2026-05-03T09:56:47Z</time></trkpt><trkpt lat="42.20396246341817" lon="13.835076530143128"><ele>275.0</ele><time>2026-05-03T09:56:48Z</time></trkpt><trkpt lat="42.20387759737596" lon="13.835282003314324"><ele>275.0</ele><time>2026-05-03T09:56:49Z</time></trkpt><trkpt lat="42.20379312078524" lon="13.835482288932127"><ele>275.0</ele><time>2026-05-03T09:56:50Z</time></trkpt><trkpt lat="42.20370453546852" lon="13.835675755549426"><ele>275.0</ele><time>2026-05-03T09:56:51Z</time></trkpt><trkpt lat="42.20360556096069" lon="13.83586049212361"><ele>269.0</ele><time>2026-05-03T09:56:52Z</time></trkpt><trkpt lat="42.203497256903695" lon="13.836035683517775"><ele>263.0</ele><time>2026-05-03T09:56:53Z</time></trkpt><trkpt lat="42.20338119163644" lon="13.836195807742504"><ele>257.0</ele><time>2026-05-03T09:56:54Z</time></trkpt><trkpt lat="42.20325384568332" lon="13.836348078072106"><ele>259.33333333333337</ele><time>2026-05-03T09:56:55Z</time></trkpt><trkpt lat="42.20311813991046" lon="13.836491427762677"><ele>261.6666666666667</ele><time>2026-05-03T09:56:56Z</time></trkpt><trkpt lat="42.202976314812844" lon="13.83662909799083"><ele>264.0</ele><time>2026-05-03T09:56:57Z</time></trkpt><trkpt lat="42.20282674467784" lon="13.836755553133349"><ele>260.6666666666667</ele><time>2026-05-03T09:56:58Z</time></trkpt><trkpt lat="42.20267534588504" lon="13.836867511477335"><ele>257.33333333333337</ele><time>2026-05-03T09:56:59Z</time></trkpt><trkpt lat="42.20251596452915" lon="13.836967490939276"><ele>254.0</ele><time>2026-05-03T09:57:00Z</time></trkpt><trkpt lat="42.20234443589876" lon="13.837059215736192"><ele>254.0</ele><time>2026-05-03T09:57:01Z</time></trkpt><trkpt lat="42.20216308245525" lon="13.83713945315318"><ele>254.0</ele><time>2026-05-03T09:57:02Z</time></trkpt><trkpt lat="42.20197677608923" lon="13.83720994681511"><ele>254.0</ele><time>2026-05-03T09:57:03Z</time></trkpt><trkpt lat="42.20178503147056" lon="13.837261313896176"><ele>254.0</ele><time>2026-05-03T09:57:04Z</time></trkpt><trkpt lat="42.20158734621756" lon="13.837288412688821"><ele>254.0</ele><time>2026-05-03T09:57:05Z</time></trkpt><trkpt lat="42.20138813301959" lon="13.837300959818231"><ele>254.0</ele><time>2026-05-03T09:57:06Z</time></trkpt><trkpt lat="42.20118639909809" lon="13.837316205792657"><ele>255.0</ele><time>2026-05-03T09:57:07Z</time></trkpt><trkpt lat="42.200989053094645" lon="13.837344752454554"><ele>256.0</ele><time>2026-05-03T09:57:08Z</time></trkpt><trkpt lat="42.20079300336472" lon="13.837377583929445"><ele>257.0</ele><time>2026-05-03T09:57:09Z</time></trkpt><trkpt lat="42.20060209466976" lon="13.837408098519393"><ele>259.0</ele><time>2026-05-03T09:57:10Z</time></trkpt><trkpt lat="42.20041450133573" lon="13.83743508942812"><ele>261.0</ele><time>2026-05-03T09:57:11Z</time></trkpt><trkpt lat="42.200230753045794" lon="13.837458731918288"><ele>263.0</ele><time>2026-05-03T09:57:12Z</time></trkpt><trkpt lat="42.20004851087805" lon="13.837482876562902"><ele>263.0</ele><time>2026-05-03T09:57:13Z</time></trkpt><trkpt lat="42.199867767269076" lon="13.837512931502"><ele>263.0</ele><time>2026-05-03T09:57:14Z</time></trkpt><trkpt lat="42.199686940274695" lon="13.83754487565754"><ele>263.0</ele><time>2026-05-03T09:57:15Z</time></trkpt><trkpt lat="42.19951028361086" lon="13.837573021381814"><ele>265.0</ele><time>2026-05-03T09:57:16Z</time></trkpt><trkpt lat="42.199349432130866" lon="13.837597681745866"><ele>267.0</ele><time>2026-05-03T09:57:17Z</time></trkpt><trkpt lat="42.19918921888477" lon="13.83760939006249"><ele>269.0</ele><time>2026-05-03T09:57:18Z</time></trkpt><trkpt lat="42.1990183144388" lon="13.837602261046847"><ele>268.0</ele><time>2026-05-03T09:57:19Z</time></trkpt><trkpt lat="42.198839784616446" lon="13.837572265730842"><ele>267.0</ele><time>2026-05-03T09:57:20Z</time></trkpt><trkpt lat="42.19865627915941" lon="13.83752207185404"><ele>266.0</ele><time>2026-05-03T09:57:21Z</time></trkpt><trkpt lat="42.198463642025786" lon="13.837470174584421"><ele>266.0</ele><time>2026-05-03T09:57:22Z</time></trkpt><trkpt lat="42.19826643575336" lon="13.837436986403931"><ele>266.0</ele><time>2026-05-03T09:57:23Z</time></trkpt><trkpt lat="42.19806374938481" lon="13.837429806507604"><ele>266.0</ele><time>2026-05-03T09:57:24Z</time></trkpt><trkpt lat="42.19786336913882" lon="13.837447506511007"><ele>265.33333333333337</ele><time>2026-05-03T09:57:25Z</time></trkpt><trkpt lat="42.19767607677314" lon="13.837491608849145"><ele>264.6666666666667</ele><time>2026-05-03T09:57:26Z</time></trkpt><trkpt lat="42.19749416198802" lon="13.837556810997356"><ele>264.0</ele><time>2026-05-03T09:57:27Z</time></trkpt><trkpt lat="42.19731737167293" lon="13.837642883737027"><ele>265.6666666666667</ele><time>2026-05-03T09:57:28Z</time></trkpt><trkpt lat="42.19714689763022" lon="13.837749132476253"><ele>267.33333333333337</ele><time>2026-05-03T09:57:29Z</time></trkpt><trkpt lat="42.19698318355803" lon="13.837878229148808"><ele>269.0</ele><time>2026-05-03T09:57:30Z</time></trkpt><trkpt lat="42.196827049940914" lon="13.838025836742013"><ele>269.0</ele><time>2026-05-03T09:57:31Z</time></trkpt><trkpt lat="42.19667654698286" lon="13.83818921832834"><ele>269.0</ele><time>2026-05-03T09:57:32Z</time></trkpt><trkpt lat="42.19653408122525" lon="13.838366881226639"><ele>269.0</ele><time>2026-05-03T09:57:33Z</time></trkpt><trkpt lat="42.19640437170292" lon="13.838565005405819"><ele>278.33333333333337</ele><time>2026-05-03T09:57:34Z</time></trkpt><trkpt lat="42.196292310586486" lon="13.83878407661396"><ele>287.6666666666667</ele><time>2026-05-03T09:57:35Z</time></trkpt><trkpt lat="42.196198860010945" lon="13.839019907942022"><ele>297.0</ele><time>2026-05-03T09:57:36Z</time></trkpt><trkpt lat="42.1961238386232" lon="13.839266484820909"><ele>291.6666666666667</ele><time>2026-05-03T09:57:37Z</time></trkpt><trkpt lat="42.1960602434195" lon="13.839519175119058"><ele>286.33333333333337</ele><time>2026-05-03T09:57:38Z</time></trkpt><trkpt lat="42.19601259854422" lon="13.839776281577217"><ele>281.0</ele><time>2026-05-03T09:57:39Z</time></trkpt><trkpt lat="42.195989149274396" lon="13.840037785758208"><ele>279.0</ele><time>2026-05-03T09:57:40Z</time></trkpt><trkpt lat="42.195982692770286" lon="13.84030021036234"><ele>277.0</ele><time>2026-05-03T09:57:41Z</time></trkpt><trkpt lat="42.19598026851624" lon="13.84055127877049"><ele>275.0</ele><time>2026-05-03T09:57:42Z</time></trkpt><trkpt lat="42.1959696635625" lon="13.840800499443349"><ele>272.33333333333337</ele><time>2026-05-03T09:57:43Z</time></trkpt><trkpt lat="42.195955253527" lon="13.841044459916164"><ele>269.6666666666667</ele><time>2026-05-03T09:57:44Z</time></trkpt><trkpt lat="42.19593408453854" lon="13.841286739458269"><ele>267.0</ele><time>2026-05-03T09:57:45Z</time></trkpt><trkpt lat="42.19589564303875" lon="13.841526574057717"><ele>267.0</ele><time>2026-05-03T09:57:46Z</time></trkpt><trkpt lat="42.19583890019512" lon="13.84175517565426"><ele>267.0</ele><time>2026-05-03T09:57:47Z</time></trkpt><trkpt lat="42.19576372555343" lon="13.841980766056011"><ele>267.0</ele><time>2026-05-03T09:57:48Z</time></trkpt><trkpt lat="42.19567853068514" lon="13.842192582110705"><ele>283.6666666666667</ele><time>2026-05-03T09:57:49Z</time></trkpt><trkpt lat="42.195584247999605" lon="13.842393010573009"><ele>300.33333333333337</ele><time>2026-05-03T09:57:50Z</time></trkpt><trkpt lat="42.19547060650345" lon="13.842582534815943"><ele>317.0</ele><time>2026-05-03T09:57:51Z</time></trkpt><trkpt lat="42.19534060598605" lon="13.842759082332025"><ele>321.33333333333337</ele><time>2026-05-03T09:57:52Z</time></trkpt><trkpt lat="42.195195541559286" lon="13.842922969248153"><ele>325.6666666666667</ele><time>2026-05-03T09:57:53Z</time></trkpt><trkpt lat="42.195044300337734" lon="13.843083303843674"><ele>330.0</ele><time>2026-05-03T09:57:54Z</time></trkpt><trkpt lat="42.19489654426328" lon="13.843239869398788"><ele>340.0</ele><time>2026-05-03T09:57:55Z</time></trkpt><trkpt lat="42.194750352435946" lon="13.843391605797613"><ele>350.0</ele><time>2026-05-03T09:57:56Z</time></trkpt><trkpt lat="42.194598361427396" lon="13.84354157814289"><ele>360.0</ele><time>2026-05-03T09:57:57Z</time></trkpt><trkpt lat="42.19444423485631" lon="13.843690851846533"><ele>360.0</ele><time>2026-05-03T09:57:58Z</time></trkpt><trkpt lat="42.19429148175133" lon="13.84384018915123"><ele>360.0</ele><time>2026-05-03T09:57:59Z</time></trkpt><trkpt lat="42.194144183654196" lon="13.843983462320864"><ele>360.0</ele><time>2026-05-03T09:58:00Z</time></trkpt><trkpt lat="42.1940005675167" lon="13.8441254101726"><ele>355.0</ele><time>2026-05-03T09:58:01Z</time></trkpt><trkpt lat="42.193861012108314" lon="13.844265895067425"><ele>350.0</ele><time>2026-05-03T09:58:02Z</time></trkpt><trkpt lat="42.193719362034535" lon="13.844404615294373"><ele>345.0</ele><time>2026-05-03T09:58:03Z</time></trkpt><trkpt lat="42.19357777154021" lon="13.844541141343711"><ele>339.0</ele><time>2026-05-03T09:58:04Z</time></trkpt><trkpt lat="42.19344282941509" lon="13.844732858369355"><ele>333.0</ele><time>2026-05-03T09:58:05Z</time></trkpt><trkpt lat="42.19330754121698" lon="13.84487160767436"><ele>327.0</ele><time>2026-05-03T09:58:06Z</time></trkpt><trkpt lat="42.19317431238647" lon="13.845001778694984"><ele>315.6666666666667</ele><time>2026-05-03T09:58:07Z</time></trkpt><trkpt lat="42.19304021654025" lon="13.845141048902615"><ele>304.33333333333337</ele><time>2026-05-03T09:58:08Z</time></trkpt><trkpt lat="42.192897086267855" lon="13.84528335209099"><ele>293.0</ele><time>2026-05-03T09:58:09Z</time></trkpt><trkpt lat="42.192754191608294" lon="13.845429734052667"><ele>293.0</ele><time>2026-05-03T09:58:10Z</time></trkpt><trkpt lat="42.19261393338999" lon="13.845578151581522"><ele>293.0</ele><time>2026-05-03T09:58:11Z</time></trkpt><trkpt lat="42.19246715627915" lon="13.845727547137173"><ele>293.0</ele><time>2026-05-03T09:58:12Z</time></trkpt><trkpt lat="42.19233038398951" lon="13.84586620101376"><ele>277.6666666666667</ele><time>2026-05-03T09:58:13Z</time></trkpt><trkpt lat="42.19219627165074" lon="13.846003185410742"><ele>262.3333333333333</ele><time>2026-05-03T09:58:14Z</time></trkpt><trkpt lat="42.1920751909457" lon="13.846123408603617"><ele>247.0</ele><time>2026-05-03T09:58:15Z</time></trkpt><trkpt lat="42.191944202326134" lon="13.846252661182403"><ele>247.0</ele><time>2026-05-03T09:58:16Z</time></trkpt><trkpt lat="42.19175656905195" lon="13.846409079534432"><ele>247.0</ele><time>2026-05-03T09:58:18Z</time></trkpt><trkpt lat="42.191624329003595" lon="13.846546114840626"><ele>247.0</ele><time>2026-05-03T09:58:19Z</time></trkpt><trkpt lat="42.19150274379023" lon="13.84667431404397"><ele>246.0</ele><time>2026-05-03T09:58:20Z</time></trkpt><trkpt lat="42.19137194857046" lon="13.846814145109752"><ele>245.0</ele><time>2026-05-03T09:58:21Z</time></trkpt><trkpt lat="42.19125284073956" lon="13.846945007641319"><ele>244.0</ele><time>2026-05-03T09:58:22Z</time></trkpt><trkpt lat="42.191140101828154" lon="13.847060761205631"><ele>244.0</ele><time>2026-05-03T09:58:23Z</time></trkpt><trkpt lat="42.19103463173547" lon="13.847170354826664"><ele>244.0</ele><time>2026-05-03T09:58:24Z</time></trkpt><trkpt lat="42.19093027233393" lon="13.847280487185069"><ele>244.0</ele><time>2026-05-03T09:58:25Z</time></trkpt><trkpt lat="42.19082777733469" lon="13.847378915225912"><ele>244.0</ele><time>2026-05-03T09:58:26Z</time></trkpt><trkpt lat="42.190725569578085" lon="13.8474543336652"><ele>244.2</ele><time>2026-05-03T09:58:27Z</time></trkpt><trkpt lat="42.190621986781835" lon="13.847510873638823"><ele>244.39999999999998</ele><time>2026-05-03T09:58:28Z</time></trkpt><trkpt lat="42.19051891524634" lon="13.847547784684659"><ele>244.6</ele><time>2026-05-03T09:58:29Z</time></trkpt><trkpt lat="42.19041636729326" lon="13.847566365807845"><ele>244.8</ele><time>2026-05-03T09:58:30Z</time></trkpt><trkpt lat="42.19032024189742" lon="13.847594117461135"><ele>245.0</ele><time>2026-05-03T09:58:31Z</time></trkpt><trkpt lat="42.19024190065983" lon="13.84764954143665"><ele>246.6</ele><time>2026-05-03T09:58:32Z</time></trkpt><trkpt lat="42.1901797933903" lon="13.847746953803732"><ele>248.2</ele><time>2026-05-03T09:58:33Z</time></trkpt><trkpt lat="42.19015325330348" lon="13.847869505999926"><ele>249.8</ele><time>2026-05-03T09:58:34Z</time></trkpt><trkpt lat="42.190173228493244" lon="13.848006837497666"><ele>251.4</ele><time>2026-05-03T09:58:35Z</time></trkpt><trkpt lat="42.190235924519754" lon="13.848119889565579"><ele>253.0</ele><time>2026-05-03T09:58:36Z</time></trkpt><trkpt lat="42.190330557182094" lon="13.848193237149719"><ele>253.0</ele><time>2026-05-03T09:58:37Z</time></trkpt><trkpt lat="42.19043975213208" lon="13.848253003886597"><ele>253.0</ele><time>2026-05-03T09:58:38Z</time></trkpt><trkpt lat="42.1905496786999" lon="13.848350202913817"><ele>253.0</ele><time>2026-05-03T09:58:39Z</time></trkpt><trkpt lat="42.190652900651415" lon="13.848495628397917"><ele>253.0</ele><time>2026-05-03T09:58:40Z</time></trkpt><trkpt lat="42.19074322196494" lon="13.848677107330568"><ele>251.0</ele><time>2026-05-03T09:58:41Z</time></trkpt><trkpt lat="42.19083472977609" lon="13.848876998071189"><ele>249.0</ele><time>2026-05-03T09:58:42Z</time></trkpt><trkpt lat="42.19092955777959" lon="13.849072653413902"><ele>247.0</ele><time>2026-05-03T09:58:43Z</time></trkpt><trkpt lat="42.19102841134083" lon="13.849268994162545"><ele>254.66666666666666</ele><time>2026-05-03T09:58:44Z</time></trkpt><trkpt lat="42.19113083995546" lon="13.849463007468643"><ele>262.3333333333333</ele><time>2026-05-03T09:58:45Z</time></trkpt><trkpt lat="42.191234578261714" lon="13.849651067998064"><ele>270.0</ele><time>2026-05-03T09:58:46Z</time></trkpt><trkpt lat="42.191338838068425" lon="13.849837687459058"><ele>270.0</ele><time>2026-05-03T09:58:47Z</time></trkpt><trkpt lat="42.19144942536178" lon="13.850019874517855"><ele>270.0</ele><time>2026-05-03T09:58:48Z</time></trkpt><trkpt lat="42.191568397046034" lon="13.850193752830716"><ele>270.0</ele><time>2026-05-03T09:58:49Z</time></trkpt><trkpt lat="42.191693036038046" lon="13.850360377771821"><ele>267.3333333333333</ele><time>2026-05-03T09:58:50Z</time></trkpt><trkpt lat="42.191825192269775" lon="13.850522544127381"><ele>264.66666666666663</ele><time>2026-05-03T09:58:51Z</time></trkpt><trkpt lat="42.19196087829929" lon="13.850683220160882"><ele>262.0</ele><time>2026-05-03T09:58:52Z</time></trkpt><trkpt lat="42.192101648868274" lon="13.850836325569793"><ele>262.3333333333333</ele><time>2026-05-03T09:58:53Z</time></trkpt><trkpt lat="42.192249804160426" lon="13.8509763625611"><ele>262.6666666666667</ele><time>2026-05-03T09:58:54Z</time></trkpt><trkpt lat="42.19240452791633" lon="13.851107197647629"><ele>263.0</ele><time>2026-05-03T09:58:55Z</time></trkpt><trkpt lat="42.19255089161438" lon="13.851242095716932"><ele>263.0</ele><time>2026-05-03T09:58:56Z</time></trkpt><trkpt lat="42.192689974659196" lon="13.851394171897088"><ele>263.0</ele><time>2026-05-03T09:58:57Z</time></trkpt><trkpt lat="42.19282686615697" lon="13.851551247676348"><ele>263.0</ele><time>2026-05-03T09:58:58Z</time></trkpt><trkpt lat="42.19296494320273" lon="13.85170260256663"><ele>268.33333333333337</ele><time>2026-05-03T09:58:59Z</time></trkpt><trkpt lat="42.193109364675934" lon="13.851824953044261"><ele>273.6666666666667</ele><time>2026-05-03T09:59:00Z</time></trkpt><trkpt lat="42.19326597777013" lon="13.851921667523241"><ele>279.0</ele><time>2026-05-03T09:59:01Z</time></trkpt><trkpt lat="42.19343339569019" lon="13.851986484914306"><ele>279.0</ele><time>2026-05-03T09:59:02Z</time></trkpt><trkpt lat="42.19360620720906" lon="13.852017147088628"><ele>279.0</ele><time>2026-05-03T09:59:03Z</time></trkpt><trkpt lat="42.19377831722739" lon="13.852035008249965"><ele>279.0</ele><time>2026-05-03T09:59:04Z</time></trkpt><trkpt lat="42.1939513129887" lon="13.85206339940417"><ele>272.3333333333333</ele><time>2026-05-03T09:59:05Z</time></trkpt><trkpt lat="42.19412134860608" lon="13.85208954531966"><ele>265.66666666666663</ele><time>2026-05-03T09:59:06Z</time></trkpt><trkpt lat="42.194285462473836" lon="13.852107832880813"><ele>259.0</ele><time>2026-05-03T09:59:07Z</time></trkpt><trkpt lat="42.19444568512987" lon="13.852133005632323"><ele>259.0</ele><time>2026-05-03T09:59:08Z</time></trkpt><trkpt lat="42.19459321743548" lon="13.852176654835874"><ele>259.0</ele><time>2026-05-03T09:59:09Z</time></trkpt><trkpt lat="42.19473089884749" lon="13.852254350831126"><ele>259.0</ele><time>2026-05-03T09:59:10Z</time></trkpt><trkpt lat="42.194859416006935" lon="13.852355757296236"><ele>259.0</ele><time>2026-05-03T09:59:11Z</time></trkpt><trkpt lat="42.1949761382534" lon="13.852476016749135"><ele>261.0</ele><time>2026-05-03T09:59:12Z</time></trkpt><trkpt lat="42.19508144826983" lon="13.852619551549898"><ele>263.0</ele><time>2026-05-03T09:59:13Z</time></trkpt><trkpt lat="42.195174645887825" lon="13.852785440473347"><ele>265.0</ele><time>2026-05-03T09:59:14Z</time></trkpt><trkpt lat="42.19525932884392" lon="13.852963499949558"><ele>265.0</ele><time>2026-05-03T09:59:15Z</time></trkpt><trkpt lat="42.19533506146298" lon="13.853143967779722"><ele>265.0</ele><time>2026-05-03T09:59:16Z</time></trkpt><trkpt lat="42.195399449965144" lon="13.853330063322218"><ele>265.0</ele><time>2026-05-03T09:59:17Z</time></trkpt><trkpt lat="42.19545621931781" lon="13.853524324484667"><ele>270.0</ele><time>2026-05-03T09:59:18Z</time></trkpt><trkpt lat="42.19551540482477" lon="13.853720858855011"><ele>275.0</ele><time>2026-05-03T09:59:19Z</time></trkpt><trkpt lat="42.19557632270093" lon="13.853916259284322"><ele>280.0</ele><time>2026-05-03T09:59:20Z</time></trkpt><trkpt lat="42.195642444475645" lon="13.85411730704334"><ele>269.66666666666663</ele><time>2026-05-03T09:59:21Z</time></trkpt><trkpt lat="42.19570490491119" lon="13.854321117310771"><ele>259.3333333333333</ele><time>2026-05-03T09:59:22Z</time></trkpt><trkpt lat="42.195762183880284" lon="13.854523001839222"><ele>249.0</ele><time>2026-05-03T09:59:23Z</time></trkpt><trkpt lat="42.19581325286883" lon="13.854714255318704"><ele>249.0</ele><time>2026-05-03T09:59:24Z</time></trkpt><trkpt lat="42.19585869113794" lon="13.854898187503496"><ele>249.0</ele><time>2026-05-03T09:59:25Z</time></trkpt><trkpt lat="42.195884754850184" lon="13.855099309875449"><ele>249.0</ele><time>2026-05-03T09:59:26Z</time></trkpt><trkpt lat="42.19588527898777" lon="13.855320973872178"><ele>249.0</ele><time>2026-05-03T09:59:27Z</time></trkpt><trkpt lat="42.19587215029696" lon="13.855557998639817"><ele>249.0</ele><time>2026-05-03T09:59:28Z</time></trkpt><trkpt lat="42.1958561656918" lon="13.85580949936355"><ele>249.0</ele><time>2026-05-03T09:59:29Z</time></trkpt><trkpt lat="42.195844504302336" lon="13.856066163055065"><ele>248.66666666666669</ele><time>2026-05-03T09:59:30Z</time></trkpt><trkpt lat="42.19583346847403" lon="13.856329857021503"><ele>248.33333333333334</ele><time>2026-05-03T09:59:31Z</time></trkpt><trkpt lat="42.19582037869376" lon="13.856590854444894"><ele>248.0</ele><time>2026-05-03T09:59:32Z</time></trkpt><trkpt lat="42.19580571291911" lon="13.856847792578792"><ele>248.0</ele><time>2026-05-03T09:59:33Z</time></trkpt><trkpt lat="42.195792368370434" lon="13.857102833151231"><ele>248.0</ele><time>2026-05-03T09:59:34Z</time></trkpt><trkpt lat="42.19577785080894" lon="13.857353750725812"><ele>248.0</ele><time>2026-05-03T09:59:35Z</time></trkpt><trkpt lat="42.19576021819441" lon="13.85760382158873"><ele>247.0</ele><time>2026-05-03T09:59:36Z</time></trkpt><trkpt lat="42.19573826132083" lon="13.857850362251765"><ele>246.0</ele><time>2026-05-03T09:59:37Z</time></trkpt><trkpt lat="42.19571604968961" lon="13.858091129849814"><ele>245.0</ele><time>2026-05-03T09:59:38Z</time></trkpt><trkpt lat="42.19569592479605" lon="13.858331932457268"><ele>258.0</ele><time>2026-05-03T09:59:39Z</time></trkpt><trkpt lat="42.19566863639088" lon="13.858572580804097"><ele>271.0</ele><time>2026-05-03T09:59:40Z</time></trkpt><trkpt lat="42.19563188952045" lon="13.858806913435416"><ele>284.0</ele><time>2026-05-03T09:59:41Z</time></trkpt><trkpt lat="42.19559508210359" lon="13.859036059010721"><ele>284.0</ele><time>2026-05-03T09:59:42Z</time></trkpt><trkpt lat="42.19556401068217" lon="13.859271014765259"><ele>284.0</ele><time>2026-05-03T09:59:43Z</time></trkpt><trkpt lat="42.19554099365343" lon="13.85951129159582"><ele>284.0</ele><time>2026-05-03T09:59:44Z</time></trkpt><trkpt lat="42.195527005686216" lon="13.85975494470322"><ele>281.33333333333337</ele><time>2026-05-03T09:59:45Z</time></trkpt><trkpt lat="42.19551588005455" lon="13.859995086529588"><ele>278.6666666666667</ele><time>2026-05-03T09:59:46Z</time></trkpt><trkpt lat="42.195505856587175" lon="13.860233180651923"><ele>276.0</ele><time>2026-05-03T09:59:47Z</time></trkpt><trkpt lat="42.19549739080937" lon="13.860458094670415"><ele>275.3333333333333</ele><time>2026-05-03T09:59:48Z</time></trkpt><trkpt lat="42.19549186236772" lon="13.860671100175217"><ele>274.66666666666663</ele><time>2026-05-03T09:59:49Z</time></trkpt><trkpt lat="42.19548800147916" lon="13.860875328762512"><ele>274.0</ele><time>2026-05-03T09:59:50Z</time></trkpt><trkpt lat="42.19548814372581" lon="13.861070281138497"><ele>273.75</ele><time>2026-05-03T09:59:51Z</time></trkpt><trkpt lat="42.19549511344085" lon="13.861261523808516"><ele>273.5</ele><time>2026-05-03T09:59:52Z</time></trkpt><trkpt lat="42.19551144993077" lon="13.861439834423935"><ele>273.25</ele><time>2026-05-03T09:59:53Z</time></trkpt><trkpt lat="42.195532860369816" lon="13.861602546270253"><ele>273.0</ele><time>2026-05-03T09:59:54Z</time></trkpt><trkpt lat="42.19554492801068" lon="13.861751232408974"><ele>274.75</ele><time>2026-05-03T09:59:55Z</time></trkpt><trkpt lat="42.19554238117598" lon="13.861899861897992"><ele>276.5</ele><time>2026-05-03T09:59:56Z</time></trkpt><trkpt lat="42.19555498855442" lon="13.86206286027341"><ele>278.25</ele><time>2026-05-03T09:59:57Z</time></trkpt><trkpt lat="42.195586514893364" lon="13.862254769900117"><ele>280.0</ele><time>2026-05-03T09:59:58Z</time></trkpt><trkpt lat="42.19562941724146" lon="13.862473656109545"><ele>268.66666666666663</ele><time>2026-05-03T09:59:59Z</time></trkpt><trkpt lat="42.19569411570862" lon="13.86271491265505"><ele>257.3333333333333</ele><time>2026-05-03T10:00:00Z</time></trkpt><trkpt lat="42.19577898771966" lon="13.862969467901287"><ele>246.0</ele><time>2026-05-03T10:00:01Z</time></trkpt><trkpt lat="42.19587255481852" lon="13.86322351025908"><ele>251.33333333333331</ele><time>2026-05-03T10:00:02Z</time></trkpt><trkpt lat="42.19596732202993" lon="13.86346983595725"><ele>256.66666666666663</ele><time>2026-05-03T10:00:03Z</time></trkpt><trkpt lat="42.19606340927131" lon="13.863714441876043"><ele>262.0</ele><time>2026-05-03T10:00:04Z</time></trkpt><trkpt lat="42.19615700748281" lon="13.863947224215124"><ele>262.0</ele><time>2026-05-03T10:00:05Z</time></trkpt><trkpt lat="42.19623189483572" lon="13.864180423157181"><ele>262.0</ele><time>2026-05-03T10:00:06Z</time></trkpt><trkpt lat="42.196310871903485" lon="13.864405728134363"><ele>262.0</ele><time>2026-05-03T10:00:07Z</time></trkpt><trkpt lat="42.196390177255694" lon="13.864635522371008"><ele>267.0</ele><time>2026-05-03T10:00:08Z</time></trkpt><trkpt lat="42.19646654713321" lon="13.864859663532801"><ele>272.0</ele><time>2026-05-03T10:00:09Z</time></trkpt><trkpt lat="42.196552597840615" lon="13.865072258064231"><ele>277.0</ele><time>2026-05-03T10:00:10Z</time></trkpt><trkpt lat="42.19662396077594" lon="13.86529660597833"><ele>269.66666666666663</ele><time>2026-05-03T10:00:11Z</time></trkpt><trkpt lat="42.19669484793329" lon="13.865518060233882"><ele>262.3333333333333</ele><time>2026-05-03T10:00:12Z</time></trkpt><trkpt lat="42.19676254695331" lon="13.865739087418966"><ele>255.0</ele><time>2026-05-03T10:00:13Z</time></trkpt><trkpt lat="42.196821254958444" lon="13.86597062331827"><ele>255.0</ele><time>2026-05-03T10:00:14Z</time></trkpt><trkpt lat="42.19687428443102" lon="13.866212499016"><ele>255.0</ele><time>2026-05-03T10:00:15Z</time></trkpt><trkpt lat="42.19692851002286" lon="13.866459373672248"><ele>255.0</ele><time>2026-05-03T10:00:16Z</time></trkpt><trkpt lat="42.19698329852404" lon="13.866708983286179"><ele>257.6666666666667</ele><time>2026-05-03T10:00:17Z</time></trkpt><trkpt lat="42.19704063479347" lon="13.866957383652672"><ele>260.33333333333337</ele><time>2026-05-03T10:00:18Z</time></trkpt><trkpt lat="42.197097360066316" lon="13.867200612298262"><ele>263.0</ele><time>2026-05-03T10:00:19Z</time></trkpt><trkpt lat="42.197150868958694" lon="13.867437118512775"><ele>264.0</ele><time>2026-05-03T10:00:20Z</time></trkpt><trkpt lat="42.19720169836381" lon="13.867671733936598"><ele>265.0</ele><time>2026-05-03T10:00:21Z</time></trkpt><trkpt lat="42.19725222843938" lon="13.86790776722045"><ele>266.0</ele><time>2026-05-03T10:00:22Z</time></trkpt><trkpt lat="42.197304506776156" lon="13.868146858863955"><ele>257.0</ele><time>2026-05-03T10:00:23Z</time></trkpt><trkpt lat="42.19735099278723" lon="13.86838301581221"><ele>248.0</ele><time>2026-05-03T10:00:24Z</time></trkpt><trkpt lat="42.19738691022165" lon="13.868627563226045"><ele>239.0</ele><time>2026-05-03T10:00:25Z</time></trkpt><trkpt lat="42.19741128884377" lon="13.868877831777613"><ele>239.0</ele><time>2026-05-03T10:00:26Z</time></trkpt><trkpt lat="42.197441079927984" lon="13.869131640321623"><ele>239.0</ele><time>2026-05-03T10:00:27Z</time></trkpt><trkpt lat="42.1974688145002" lon="13.869382958653159"><ele>239.0</ele><time>2026-05-03T10:00:28Z</time></trkpt><trkpt lat="42.19749951336873" lon="13.869626267716367"><ele>238.33333333333334</ele><time>2026-05-03T10:00:29Z</time></trkpt><trkpt lat="42.197527917233636" lon="13.869861666092419"><ele>237.66666666666669</ele><time>2026-05-03T10:00:30Z</time></trkpt><trkpt lat="42.19755497814586" lon="13.870095207266129"><ele>237.0</ele><time>2026-05-03T10:00:31Z</time></trkpt><trkpt lat="42.19758154794378" lon="13.87032772222754"><ele>237.0</ele><time>2026-05-03T10:00:32Z</time></trkpt><trkpt lat="42.19760797431589" lon="13.870565248096522"><ele>237.0</ele><time>2026-05-03T10:00:33Z</time></trkpt><trkpt lat="42.19763812909633" lon="13.870809915319414"><ele>237.0</ele><time>2026-05-03T10:00:34Z</time></trkpt><trkpt lat="42.19766561244864" lon="13.871060765353143"><ele>238.0</ele><time>2026-05-03T10:00:35Z</time></trkpt><trkpt lat="42.197693124120065" lon="13.871310940403683"><ele>239.0</ele><time>2026-05-03T10:00:36Z</time></trkpt><trkpt lat="42.19772163460518" lon="13.871564038102386"><ele>240.0</ele><time>2026-05-03T10:00:37Z</time></trkpt><trkpt lat="42.197752712099366" lon="13.871813994827734"><ele>243.33333333333331</ele><time>2026-05-03T10:00:38Z</time></trkpt><trkpt lat="42.19778495168573" lon="13.872060384485636"><ele>246.66666666666666</ele><time>2026-05-03T10:00:39Z</time></trkpt><trkpt lat="42.19781903320578" lon="13.872307123673512"><ele>250.0</ele><time>2026-05-03T10:00:40Z</time></trkpt><trkpt lat="42.19785678510681" lon="13.872550830897925"><ele>248.66666666666666</ele><time>2026-05-03T10:00:41Z</time></trkpt><trkpt lat="42.197895020853586" lon="13.872788708192585"><ele>247.33333333333331</ele><time>2026-05-03T10:00:42Z</time></trkpt><trkpt lat="42.197937086344005" lon="13.87302552912486"><ele>246.0</ele><time>2026-05-03T10:00:43Z</time></trkpt><trkpt lat="42.197975727395544" lon="13.87326656391836"><ele>250.66666666666669</ele><time>2026-05-03T10:00:44Z</time></trkpt><trkpt lat="42.1980136206579" lon="13.873500312082509"><ele>255.33333333333334</ele><time>2026-05-03T10:00:45Z</time></trkpt><trkpt lat="42.198054388413475" lon="13.873734700265473"><ele>260.0</ele><time>2026-05-03T10:00:46Z</time></trkpt><trkpt lat="42.19809540795118" lon="13.873970431434724"><ele>260.0</ele><time>2026-05-03T10:00:47Z</time></trkpt><trkpt lat="42.198119877981405" lon="13.874215889242649"><ele>260.0</ele><time>2026-05-03T10:00:48Z</time></trkpt><trkpt lat="42.19817531159014" lon="13.874456661109038"><ele>260.0</ele><time>2026-05-03T10:00:49Z</time></trkpt><trkpt lat="42.1982138275116" lon="13.87470043216769"><ele>250.66666666666669</ele><time>2026-05-03T10:00:50Z</time></trkpt><trkpt lat="42.198250277673466" lon="13.874932614711467"><ele>241.33333333333331</ele><time>2026-05-03T10:00:51Z</time></trkpt><trkpt lat="42.198277449556436" lon="13.875166545346252"><ele>232.0</ele><time>2026-05-03T10:00:52Z</time></trkpt><trkpt lat="42.19828499978512" lon="13.875380387719108"><ele>229.33333333333331</ele><time>2026-05-03T10:00:53Z</time></trkpt><trkpt lat="42.198266185566084" lon="13.875593022503248"><ele>226.66666666666669</ele><time>2026-05-03T10:00:54Z</time></trkpt><trkpt lat="42.198226395285964" lon="13.875809179260745"><ele>224.0</ele><time>2026-05-03T10:00:55Z</time></trkpt><trkpt lat="42.19817396363545" lon="13.876028800704406"><ele>237.66666666666669</ele><time>2026-05-03T10:00:56Z</time></trkpt><trkpt lat="42.19811770547258" lon="13.87625758587614"><ele>251.33333333333331</ele><time>2026-05-03T10:00:57Z</time></trkpt><trkpt lat="42.19806599589516" lon="13.876494925993391"><ele>265.0</ele><time>2026-05-03T10:00:58Z</time></trkpt><trkpt lat="42.198016935777225" lon="13.876730299598373"><ele>264.3333333333333</ele><time>2026-05-03T10:00:59Z</time></trkpt><trkpt lat="42.19796756014932" lon="13.876961851770186"><ele>263.6666666666667</ele><time>2026-05-03T10:01:00Z</time></trkpt><trkpt lat="42.19793434902831" lon="13.877190568805913"><ele>263.0</ele><time>2026-05-03T10:01:01Z</time></trkpt><trkpt lat="42.19793364334315" lon="13.877420911164807"><ele>264.6666666666667</ele><time>2026-05-03T10:01:02Z</time></trkpt><trkpt lat="42.19796456239209" lon="13.877641285925025"><ele>266.3333333333333</ele><time>2026-05-03T10:01:03Z</time></trkpt><trkpt lat="42.1980210002912" lon="13.877858457660436"><ele>268.0</ele><time>2026-05-03T10:01:04Z</time></trkpt><trkpt lat="42.198078380648134" lon="13.878090850722824"><ele>268.0</ele><time>2026-05-03T10:01:05Z</time></trkpt><trkpt lat="42.19816396891106" lon="13.878318149581201"><ele>268.0</ele><time>2026-05-03T10:01:06Z</time></trkpt><trkpt lat="42.198269144286975" lon="13.878533220537829"><ele>268.0</ele><time>2026-05-03T10:01:07Z</time></trkpt><trkpt lat="42.19839305347899" lon="13.878726670081313"><ele>258.3333333333333</ele><time>2026-05-03T10:01:08Z</time></trkpt><trkpt lat="42.198546072139266" lon="13.878885129344182"><ele>248.66666666666669</ele><time>2026-05-03T10:01:09Z</time></trkpt><trkpt lat="42.198697553072556" lon="13.879041212162829"><ele>239.0</ele><time>2026-05-03T10:01:10Z</time></trkpt><trkpt lat="42.1988505927365" lon="13.879191980408855"><ele>236.0</ele><time>2026-05-03T10:01:11Z</time></trkpt><trkpt lat="42.19899321362086" lon="13.879350791644997"><ele>233.0</ele><time>2026-05-03T10:01:12Z</time></trkpt><trkpt lat="42.19911975047523" lon="13.879521086832575"><ele>230.0</ele><time>2026-05-03T10:01:13Z</time></trkpt><trkpt lat="42.19921864696248" lon="13.879708162278316"><ele>230.0</ele><time>2026-05-03T10:01:14Z</time></trkpt><trkpt lat="42.19927454772603" lon="13.879903698183895"><ele>230.0</ele><time>2026-05-03T10:01:15Z</time></trkpt><trkpt lat="42.199297858491505" lon="13.880100513762178"><ele>230.0</ele><time>2026-05-03T10:01:16Z</time></trkpt><trkpt lat="42.199297083707755" lon="13.880308751401975"><ele>229.0</ele><time>2026-05-03T10:01:17Z</time></trkpt><trkpt lat="42.19927910760181" lon="13.880529731784375"><ele>228.0</ele><time>2026-05-03T10:01:18Z</time></trkpt><trkpt lat="42.19925449680903" lon="13.880756637520498"><ele>227.0</ele><time>2026-05-03T10:01:19Z</time></trkpt><trkpt lat="42.19923046913611" lon="13.880985223763037"><ele>227.0</ele><time>2026-05-03T10:01:20Z</time></trkpt><trkpt lat="42.1992116048643" lon="13.881192775319708"><ele>227.0</ele><time>2026-05-03T10:01:21Z</time></trkpt><trkpt lat="42.1992026849866" lon="13.881391663787273"><ele>227.0</ele><time>2026-05-03T10:01:22Z</time></trkpt><trkpt lat="42.199213206563094" lon="13.88157724801078"><ele>227.0</ele><time>2026-05-03T10:01:23Z</time></trkpt><trkpt lat="42.19926011152198" lon="13.881756219250788"><ele>229.0</ele><time>2026-05-03T10:01:24Z</time></trkpt><trkpt lat="42.19933171697078" lon="13.881935863664403"><ele>231.0</ele><time>2026-05-03T10:01:25Z</time></trkpt><trkpt lat="42.19940805253019" lon="13.882121063371786"><ele>233.0</ele><time>2026-05-03T10:01:26Z</time></trkpt><trkpt lat="42.19947498617373" lon="13.882317584059889"><ele>233.0</ele><time>2026-05-03T10:01:27Z</time></trkpt><trkpt lat="42.199535359964756" lon="13.882529144255148"><ele>233.0</ele><time>2026-05-03T10:01:28Z</time></trkpt><trkpt lat="42.19959177494643" lon="13.882739511884026"><ele>233.0</ele><time>2026-05-03T10:01:29Z</time></trkpt><trkpt lat="42.19967423620683" lon="13.882935469951434"><ele>235.0</ele><time>2026-05-03T10:01:30Z</time></trkpt><trkpt lat="42.19978266416433" lon="13.883119905192524"><ele>237.0</ele><time>2026-05-03T10:01:31Z</time></trkpt><trkpt lat="42.19991290223092" lon="13.883295200063491"><ele>239.0</ele><time>2026-05-03T10:01:32Z</time></trkpt><trkpt lat="42.200052845201824" lon="13.883471734659087"><ele>239.0</ele><time>2026-05-03T10:01:33Z</time></trkpt><trkpt lat="42.20018591335371" lon="13.883638134281394"><ele>239.0</ele><time>2026-05-03T10:01:34Z</time></trkpt><trkpt lat="42.20030535784233" lon="13.883800010681558"><ele>239.0</ele><time>2026-05-03T10:01:35Z</time></trkpt><trkpt lat="42.200411878325795" lon="13.883966279273773"><ele>239.0</ele><time>2026-05-03T10:01:36Z</time></trkpt><trkpt lat="42.2004959584404" lon="13.884151986517677"><ele>239.0</ele><time>2026-05-03T10:01:37Z</time></trkpt><trkpt lat="42.20056073369319" lon="13.884366098170197"><ele>239.0</ele><time>2026-05-03T10:01:38Z</time></trkpt><trkpt lat="42.20061388285632" lon="13.884594485473817"><ele>237.66666666666669</ele><time>2026-05-03T10:01:39Z</time></trkpt><trkpt lat="42.20067186731527" lon="13.884821908195837"><ele>236.33333333333331</ele><time>2026-05-03T10:01:40Z</time></trkpt><trkpt lat="42.200740982668684" lon="13.885035340843428"><ele>235.0</ele><time>2026-05-03T10:01:41Z</time></trkpt><trkpt lat="42.20083115111325" lon="13.885229316492916"><ele>235.0</ele><time>2026-05-03T10:01:42Z</time></trkpt><trkpt lat="42.20094336809165" lon="13.885408699324998"><ele>235.0</ele><time>2026-05-03T10:01:43Z</time></trkpt><trkpt lat="42.2010655814533" lon="13.885569292891601"><ele>235.0</ele><time>2026-05-03T10:01:44Z</time></trkpt><trkpt lat="42.20119434099784" lon="13.885716712832918"><ele>235.0</ele><time>2026-05-03T10:01:45Z</time></trkpt><trkpt lat="42.2013300227759" lon="13.885854756611195"><ele>235.0</ele><time>2026-05-03T10:01:46Z</time></trkpt><trkpt lat="42.201467171824596" lon="13.885987071321289"><ele>235.0</ele><time>2026-05-03T10:01:47Z</time></trkpt><trkpt lat="42.20160132362427" lon="13.88611747608586"><ele>233.0</ele><time>2026-05-03T10:01:48Z</time></trkpt><trkpt lat="42.20173856192911" lon="13.88625333177974"><ele>231.0</ele><time>2026-05-03T10:01:49Z</time></trkpt><trkpt lat="42.201876025512924" lon="13.886396691996662"><ele>229.0</ele><time>2026-05-03T10:01:50Z</time></trkpt><trkpt lat="42.20201500822868" lon="13.886543945668986"><ele>229.0</ele><time>2026-05-03T10:01:51Z</time></trkpt><trkpt lat="42.202159649060185" lon="13.886696376944622"><ele>229.0</ele><time>2026-05-03T10:01:52Z</time></trkpt><trkpt lat="42.20230852112976" lon="13.88684949169171"><ele>229.0</ele><time>2026-05-03T10:01:53Z</time></trkpt><trkpt lat="42.202456357901625" lon="13.88700186012746"><ele>226.33333333333331</ele><time>2026-05-03T10:01:54Z</time></trkpt><trkpt lat="42.20259922728662" lon="13.887152026263655"><ele>223.66666666666669</ele><time>2026-05-03T10:01:55Z</time></trkpt><trkpt lat="42.20274173224264" lon="13.887302545551957"><ele>221.0</ele><time>2026-05-03T10:01:56Z</time></trkpt><trkpt lat="42.20288644139588" lon="13.887452718900139"><ele>224.33333333333334</ele><time>2026-05-03T10:01:57Z</time></trkpt><trkpt lat="42.20303013059423" lon="13.887603113297235"><ele>227.66666666666669</ele><time>2026-05-03T10:01:58Z</time></trkpt><trkpt lat="42.203173110830434" lon="13.887749014878777"><ele>231.0</ele><time>2026-05-03T10:01:59Z</time></trkpt><trkpt lat="42.20330844029464" lon="13.887886788342286"><ele>231.0</ele><time>2026-05-03T10:02:00Z</time></trkpt><trkpt lat="42.20343176223535" lon="13.888013528915382"><ele>231.0</ele><time>2026-05-03T10:02:01Z</time></trkpt><trkpt lat="42.20354907431813" lon="13.888132117514022"><ele>231.0</ele><time>2026-05-03T10:02:02Z</time></trkpt><trkpt lat="42.20365959927574" lon="13.888248588212466"><ele>231.0</ele><time>2026-05-03T10:02:03Z</time></trkpt><trkpt lat="42.203761951848" lon="13.88836091061328"><ele>233.4</ele><time>2026-05-03T10:02:04Z</time></trkpt><trkpt lat="42.20385342444314" lon="13.888472754569012"><ele>235.8</ele><time>2026-05-03T10:02:05Z</time></trkpt><trkpt lat="42.20392946763862" lon="13.888580748336764"><ele>238.20000000000002</ele><time>2026-05-03T10:02:06Z</time></trkpt><trkpt lat="42.20399415817879" lon="13.888680709108971"><ele>240.60000000000002</ele><time>2026-05-03T10:02:07Z</time></trkpt><trkpt lat="42.20405598881877" lon="13.888787934033362"><ele>243.0</ele><time>2026-05-03T10:02:08Z</time></trkpt><trkpt lat="42.20412182892099" lon="13.88890995125525"><ele>237.25</ele><time>2026-05-03T10:02:09Z</time></trkpt><trkpt lat="42.204187051977826" lon="13.889043046985863"><ele>231.5</ele><time>2026-05-03T10:02:10Z</time></trkpt><trkpt lat="42.20424814421232" lon="13.889181624856748"><ele>225.75</ele><time>2026-05-03T10:02:11Z</time></trkpt><trkpt lat="42.204304789540416" lon="13.88932476951467"><ele>220.0</ele><time>2026-05-03T10:02:12Z</time></trkpt><trkpt lat="42.204356335352756" lon="13.88946922843282"><ele>220.0</ele><time>2026-05-03T10:02:13Z</time></trkpt><trkpt lat="42.204398057851044" lon="13.889601729697707"><ele>220.0</ele><time>2026-05-03T10:02:14Z</time></trkpt><trkpt lat="42.204430901699794" lon="13.889722464939712"><ele>220.0</ele><time>2026-05-03T10:02:15Z</time></trkpt><trkpt lat="42.20446345474378" lon="13.889845265448248"><ele>220.0</ele><time>2026-05-03T10:02:16Z</time></trkpt><trkpt lat="42.20449757856141" lon="13.889967307100859"><ele>220.0</ele><time>2026-05-03T10:02:17Z</time></trkpt><trkpt lat="42.204537964254826" lon="13.89010329451601"><ele>222.0</ele><time>2026-05-03T10:02:18Z</time></trkpt><trkpt lat="42.20458330362771" lon="13.890250519445454"><ele>224.0</ele><time>2026-05-03T10:02:19Z</time></trkpt><trkpt lat="42.204625149549145" lon="13.890403566335511"><ele>226.0</ele><time>2026-05-03T10:02:20Z</time></trkpt><trkpt lat="42.204668235309505" lon="13.890548512640004"><ele>228.0</ele><time>2026-05-03T10:02:21Z</time></trkpt><trkpt lat="42.20472350687151" lon="13.890686203950818"><ele>228.0</ele><time>2026-05-03T10:02:22Z</time></trkpt><trkpt lat="42.20479635847983" lon="13.890813407887393"><ele>228.0</ele><time>2026-05-03T10:02:23Z</time></trkpt><trkpt lat="42.204879829306456" lon="13.890930747407328"><ele>228.0</ele><time>2026-05-03T10:02:24Z</time></trkpt><trkpt lat="42.20496366787714" lon="13.891041671004166"><ele>228.0</ele><time>2026-05-03T10:02:25Z</time></trkpt><trkpt lat="42.205044500712745" lon="13.891146388255203"><ele>227.60000000000002</ele><time>2026-05-03T10:02:26Z</time></trkpt><trkpt lat="42.20512665134516" lon="13.891247772989118"><ele>227.20000000000002</ele><time>2026-05-03T10:02:27Z</time></trkpt><trkpt lat="42.205200127350764" lon="13.891344521096206"><ele>226.8</ele><time>2026-05-03T10:02:28Z</time></trkpt><trkpt lat="42.2052686046119" lon="13.891435284589459"><ele>226.4</ele><time>2026-05-03T10:02:29Z</time></trkpt><trkpt lat="42.20533851082467" lon="13.891526723488592"><ele>226.0</ele><time>2026-05-03T10:02:30Z</time></trkpt><trkpt lat="42.205409086757676" lon="13.89161986723149"><ele>226.0</ele><time>2026-05-03T10:02:31Z</time></trkpt><trkpt lat="42.20548324633577" lon="13.8917144842837"><ele>226.00000000000003</ele><time>2026-05-03T10:02:32Z</time></trkpt><trkpt lat="42.20555861563784" lon="13.891812481867893"><ele>226.00000000000003</ele><time>2026-05-03T10:02:33Z</time></trkpt><trkpt lat="42.205630754523966" lon="13.891911879614732"><ele>226.0</ele><time>2026-05-03T10:02:34Z</time></trkpt><trkpt lat="42.20570335384361" lon="13.892010999006638"><ele>226.0</ele><time>2026-05-03T10:02:35Z</time></trkpt><trkpt lat="42.20577177727094" lon="13.892102577855653"><ele>226.0</ele><time>2026-05-03T10:02:36Z</time></trkpt><trkpt lat="42.20583725623532" lon="13.89218811616587"><ele>226.00000000000003</ele><time>2026-05-03T10:02:37Z</time></trkpt><trkpt lat="42.20589324767118" lon="13.892265833270354"><ele>226.00000000000003</ele><time>2026-05-03T10:02:38Z</time></trkpt><trkpt lat="42.20596313522216" lon="13.892370430177047"><ele>226.0</ele><time>2026-05-03T10:02:40Z</time></trkpt><trkpt lat="42.205954294810155" lon="13.892214863331905"><ele>226.0</ele><time>2026-05-03T10:02:46Z</time></trkpt><trkpt lat="42.205859360036996" lon="13.892135063086409"><ele>226.0</ele><time>2026-05-03T10:02:47Z</time></trkpt><trkpt lat="42.205769534535534" lon="13.892018669290401"><ele>226.0</ele><time>2026-05-03T10:02:48Z</time></trkpt><trkpt lat="42.20567104847487" lon="13.891889600554363"><ele>226.0</ele><time>2026-05-03T10:02:49Z</time></trkpt><trkpt lat="42.20557831553869" lon="13.891763642032195"><ele>226.0</ele><time>2026-05-03T10:02:50Z</time></trkpt><trkpt lat="42.20547854451571" lon="13.891633562761882"><ele>226.0</ele><time>2026-05-03T10:02:51Z</time></trkpt><trkpt lat="42.20537430552991" lon="13.891499322002291"><ele>226.0</ele><time>2026-05-03T10:02:52Z</time></trkpt><trkpt lat="42.205267670890926" lon="13.891364488444415"><ele>226.0</ele><time>2026-05-03T10:02:53Z</time></trkpt><trkpt lat="42.20516695023728" lon="13.891233661419923"><ele>226.0</ele><time>2026-05-03T10:02:54Z</time></trkpt><trkpt lat="42.205076002269635" lon="13.891112551233022"><ele>226.0</ele><time>2026-05-03T10:02:55Z</time></trkpt><trkpt lat="42.204983341900906" lon="13.890991888867063"><ele>226.0</ele><time>2026-05-03T10:02:56Z</time></trkpt><trkpt lat="42.20488904460821" lon="13.890864647987355"><ele>226.0</ele><time>2026-05-03T10:02:57Z</time></trkpt><trkpt lat="42.2048023008284" lon="13.890727484200688"><ele>226.0</ele><time>2026-05-03T10:02:58Z</time></trkpt><trkpt lat="42.20473468779387" lon="13.890582988597098"><ele>226.4</ele><time>2026-05-03T10:02:59Z</time></trkpt><trkpt lat="42.20468086885644" lon="13.890435918637873"><ele>226.8</ele><time>2026-05-03T10:03:00Z</time></trkpt><trkpt lat="42.20463450184796" lon="13.890285353197456"><ele>227.20000000000002</ele><time>2026-05-03T10:03:01Z</time></trkpt><trkpt lat="42.20459481793052" lon="13.890142132810151"><ele>227.60000000000002</ele><time>2026-05-03T10:03:02Z</time></trkpt><trkpt lat="42.20456088164185" lon="13.890028731726257"><ele>228.0</ele><time>2026-05-03T10:03:03Z</time></trkpt><trkpt lat="42.20453021047246" lon="13.889942160626346"><ele>228.0</ele><time>2026-05-03T10:03:04Z</time></trkpt><trkpt lat="42.20449711169697" lon="13.889825373039704"><ele>228.0</ele><time>2026-05-03T10:03:06Z</time></trkpt><trkpt lat="42.20432766396055" lon="13.889950741461384"><ele>228.0</ele><time>2026-05-03T10:03:12Z</time></trkpt><trkpt lat="42.20432230734046" lon="13.890064296053016"><ele>228.0</ele><time>2026-05-03T10:03:14Z</time></trkpt><trkpt lat="42.204345392316085" lon="13.89014727032852"><ele>228.0</ele><time>2026-05-03T10:03:16Z</time></trkpt><trkpt lat="42.20438728894663" lon="13.890236538703245"><ele>228.0</ele><time>2026-05-03T10:03:18Z</time></trkpt><trkpt lat="42.204417113068274" lon="13.890338343532521"><ele>228.0</ele><time>2026-05-03T10:03:19Z</time></trkpt><trkpt lat="42.204451717028455" lon="13.890428105572777"><ele>228.0</ele><time>2026-05-03T10:03:20Z</time></trkpt><trkpt lat="42.204563003010605" lon="13.890467297618962"><ele>228.0</ele><time>2026-05-03T10:03:21Z</time></trkpt><trkpt lat="42.20459027011456" lon="13.89055385856218"><ele>228.0</ele><time>2026-05-03T10:03:22Z</time></trkpt><trkpt lat="42.20462892419417" lon="13.89066002687304"><ele>228.0</ele><time>2026-05-03T10:03:23Z</time></trkpt><trkpt lat="42.204673648104695" lon="13.890771499231407"><ele>228.0</ele><time>2026-05-03T10:03:24Z</time></trkpt><trkpt lat="42.20474624831081" lon="13.890872722009279"><ele>228.0</ele><time>2026-05-03T10:03:25Z</time></trkpt><trkpt lat="42.20481050850639" lon="13.890974920946352"><ele>228.0</ele><time>2026-05-03T10:03:26Z</time></trkpt><trkpt lat="42.20486993558671" lon="13.891070162783908"><ele>228.0</ele><time>2026-05-03T10:03:27Z</time></trkpt><trkpt lat="42.20492218044324" lon="13.89116073121658"><ele>228.0</ele><time>2026-05-03T10:03:28Z</time></trkpt><trkpt lat="42.2049919622856" lon="13.891220564611997"><ele>227.66666666666666</ele><time>2026-05-03T10:03:29Z</time></trkpt><trkpt lat="42.2050499280496" lon="13.891295865915417"><ele>227.33333333333331</ele><time>2026-05-03T10:03:30Z</time></trkpt><trkpt lat="42.20512156446676" lon="13.89138892627372"><ele>227.0</ele><time>2026-05-03T10:03:31Z</time></trkpt><trkpt lat="42.20517547839992" lon="13.891458875357989"><ele>226.66666666666666</ele><time>2026-05-03T10:03:32Z</time></trkpt><trkpt lat="42.205225891172944" lon="13.891524137344458"><ele>226.33333333333331</ele><time>2026-05-03T10:03:33Z</time></trkpt><trkpt lat="42.205280916645584" lon="13.891595370637996"><ele>226.0</ele><time>2026-05-03T10:03:34Z</time></trkpt><trkpt lat="42.20533924510672" lon="13.891670879897148"><ele>225.99999999999997</ele><time>2026-05-03T10:03:35Z</time></trkpt><trkpt lat="42.20539498022186" lon="13.891743576566194"><ele>226.0</ele><time>2026-05-03T10:03:36Z</time></trkpt><trkpt lat="42.205457868205535" lon="13.891826490428798"><ele>226.0</ele><time>2026-05-03T10:03:37Z</time></trkpt><trkpt lat="42.2055227969948" lon="13.891912095043043"><ele>226.0</ele><time>2026-05-03T10:03:38Z</time></trkpt><trkpt lat="42.20556816323162" lon="13.891971907645905"><ele>225.99999999999997</ele><time>2026-05-03T10:03:39Z</time></trkpt><trkpt lat="42.20561955614907" lon="13.89203984832063"><ele>226.0</ele><time>2026-05-03T10:03:40Z</time></trkpt><trkpt lat="42.205684245157" lon="13.892125472050157"><ele>226.0</ele><time>2026-05-03T10:03:41Z</time></trkpt><trkpt lat="42.2057485432738" lon="13.89221057843923"><ele>226.00000000000003</ele><time>2026-05-03T10:03:42Z</time></trkpt><trkpt lat="42.205820121143034" lon="13.892305320393351"><ele>226.00000000000003</ele><time>2026-05-03T10:03:43Z</time></trkpt><trkpt lat="42.20589149628401" lon="13.892398813407581"><ele>226.0</ele><time>2026-05-03T10:03:44Z</time></trkpt><trkpt lat="42.205954131044734" lon="13.892480477782755"><ele>226.0</ele><time>2026-05-03T10:03:45Z</time></trkpt><trkpt lat="42.20602127513256" lon="13.892567287685715"><ele>228.83333333333331</ele><time>2026-05-03T10:03:46Z</time></trkpt><trkpt lat="42.20608369624863" lon="13.892646269267173"><ele>231.66666666666666</ele><time>2026-05-03T10:03:47Z</time></trkpt><trkpt lat="42.20615319775846" lon="13.892729468966968"><ele>234.5</ele><time>2026-05-03T10:03:48Z</time></trkpt><trkpt lat="42.20617440925954" lon="13.892868862448651"><ele>237.33333333333331</ele><time>2026-05-03T10:03:49Z</time></trkpt><trkpt lat="42.20622824160522" lon="13.892940110397692"><ele>240.16666666666666</ele><time>2026-05-03T10:03:50Z</time></trkpt><trkpt lat="42.20627633166799" lon="13.893014848561302"><ele>243.0</ele><time>2026-05-03T10:03:51Z</time></trkpt><trkpt lat="42.206328124289435" lon="13.893089313658473"><ele>243.0</ele><time>2026-05-03T10:03:52Z</time></trkpt><trkpt lat="42.20638530558175" lon="13.893161732298898"><ele>243.0</ele><time>2026-05-03T10:03:53Z</time></trkpt><trkpt lat="42.20643868893597" lon="13.893245454287616"><ele>243.0</ele><time>2026-05-03T10:03:54Z</time></trkpt><trkpt lat="42.206480825345594" lon="13.893333652261452"><ele>243.0</ele><time>2026-05-03T10:03:55Z</time></trkpt><trkpt lat="42.20653430723708" lon="13.893405023870127"><ele>243.0</ele><time>2026-05-03T10:03:56Z</time></trkpt><trkpt lat="42.20658823464157" lon="13.89346600876503"><ele>243.0</ele><time>2026-05-03T10:03:57Z</time></trkpt><trkpt lat="42.20666944391506" lon="13.893607314674933"><ele>241.60000000000002</ele><time>2026-05-03T10:03:59Z</time></trkpt><trkpt lat="42.20673207431315" lon="13.893687714776949"><ele>240.20000000000002</ele><time>2026-05-03T10:04:00Z</time></trkpt><trkpt lat="42.2068028438842" lon="13.89378432041415"><ele>238.8</ele><time>2026-05-03T10:04:01Z</time></trkpt><trkpt lat="42.20686598662144" lon="13.893891529611881"><ele>237.4</ele><time>2026-05-03T10:04:02Z</time></trkpt><trkpt lat="42.20692033670738" lon="13.893988022842644"><ele>236.0</ele><time>2026-05-03T10:04:03Z</time></trkpt><trkpt lat="42.20697770455108" lon="13.894078370345948"><ele>236.00000000000003</ele><time>2026-05-03T10:04:04Z</time></trkpt><trkpt lat="42.20703657448372" lon="13.89416347342551"><ele>236.0</ele><time>2026-05-03T10:04:05Z</time></trkpt><trkpt lat="42.20709020128266" lon="13.894245753789168"><ele>236.0</ele><time>2026-05-03T10:04:06Z</time></trkpt><trkpt lat="42.20714377570263" lon="13.894318414465308"><ele>236.0</ele><time>2026-05-03T10:04:07Z</time></trkpt><trkpt lat="42.20720154196295" lon="13.894393868797605"><ele>236.00000000000003</ele><time>2026-05-03T10:04:08Z</time></trkpt><trkpt lat="42.20725440648223" lon="13.894463969419244"><ele>236.0</ele><time>2026-05-03T10:04:09Z</time></trkpt><trkpt lat="42.207302651990844" lon="13.894533301611212"><ele>233.8</ele><time>2026-05-03T10:04:10Z</time></trkpt><trkpt lat="42.20739624192365" lon="13.894690579122548"><ele>231.60000000000002</ele><time>2026-05-03T10:04:12Z</time></trkpt><trkpt lat="42.20744576289704" lon="13.894772490121651"><ele>229.4</ele><time>2026-05-03T10:04:13Z</time></trkpt><trkpt lat="42.207497716908044" lon="13.89484726021827"><ele>227.2</ele><time>2026-05-03T10:04:14Z</time></trkpt><trkpt lat="42.207568221366486" lon="13.89494613469632"><ele>225.0</ele><time>2026-05-03T10:04:15Z</time></trkpt><trkpt lat="42.20762376623133" lon="13.895026731031047"><ele>226.0</ele><time>2026-05-03T10:04:16Z</time></trkpt><trkpt lat="42.20767312024251" lon="13.895109328966104"><ele>227.0</ele><time>2026-05-03T10:04:17Z</time></trkpt><trkpt lat="42.207700620149915" lon="13.895211688049148"><ele>228.0</ele><time>2026-05-03T10:04:19Z</time></trkpt><trkpt lat="42.20764416485452" lon="13.89529156571118"><ele>229.0</ele><time>2026-05-03T10:04:21Z</time></trkpt><trkpt lat="42.20766365448085" lon="13.89538355223443"><ele>230.0</ele><time>2026-05-03T10:04:24Z</time></trkpt><trkpt lat="42.20769476207237" lon="13.895499268035605"><ele>231.0</ele><time>2026-05-03T10:04:25Z</time></trkpt><trkpt lat="42.20772325583673" lon="13.895609478710515"><ele>231.0</ele><time>2026-05-03T10:04:26Z</time></trkpt><trkpt lat="42.20798861820147" lon="13.895576470685025"><ele>231.0</ele><time>2026-05-03T10:04:27Z</time></trkpt><trkpt lat="42.20803661298255" lon="13.895648291286713"><ele>231.0</ele><time>2026-05-03T10:04:28Z</time></trkpt><trkpt lat="42.208079006857034" lon="13.895720746443068"><ele>231.0</ele><time>2026-05-03T10:04:29Z</time></trkpt><trkpt lat="42.20780507798521" lon="13.895931941383727"><ele>232.4</ele><time>2026-05-03T10:04:30Z</time></trkpt><trkpt lat="42.207842197922055" lon="13.896078230864758"><ele>233.8</ele><time>2026-05-03T10:04:32Z</time></trkpt><trkpt lat="42.20788608406749" lon="13.89625160119985"><ele>235.20000000000002</ele><time>2026-05-03T10:04:34Z</time></trkpt><trkpt lat="42.20791253573523" lon="13.896352056436752"><ele>236.60000000000002</ele><time>2026-05-03T10:04:35Z</time></trkpt><trkpt lat="42.20793515802725" lon="13.89643796958921"><ele>238.0</ele><time>2026-05-03T10:04:36Z</time></trkpt><trkpt lat="42.20799366341105" lon="13.89654369454557"><ele>230.0</ele><time>2026-05-03T10:04:38Z</time></trkpt><trkpt lat="42.208587099777034" lon="13.896357495198018"><ele>230.00000000000003</ele><time>2026-05-03T10:04:40Z</time></trkpt><trkpt lat="42.20862846282483" lon="13.896483543756169"><ele>230.0</ele><time>2026-05-03T10:04:42Z</time></trkpt><trkpt lat="42.20870239098198" lon="13.89661009459625"><ele>230.0</ele><time>2026-05-03T10:04:44Z</time></trkpt><trkpt lat="42.20874808352396" lon="13.896681666984865"><ele>230.0</ele><time>2026-05-03T10:04:45Z</time></trkpt><trkpt lat="42.2088004715096" lon="13.896750998020318"><ele>230.00000000000003</ele><time>2026-05-03T10:04:46Z</time></trkpt><trkpt lat="42.2088478717717" lon="13.896837545165305"><ele>230.0</ele><time>2026-05-03T10:04:47Z</time></trkpt><trkpt lat="42.208891790926714" lon="13.896918250390845"><ele>230.83333333333334</ele><time>2026-05-03T10:04:48Z</time></trkpt><trkpt lat="42.208937625651615" lon="13.897007322455813"><ele>231.66666666666669</ele><time>2026-05-03T10:04:49Z</time></trkpt><trkpt lat="42.20899530993993" lon="13.897088459883994"><ele>232.5</ele><time>2026-05-03T10:04:50Z</time></trkpt><trkpt lat="42.20904953283327" lon="13.89716040817211"><ele>233.33333333333331</ele><time>2026-05-03T10:04:51Z</time></trkpt><trkpt lat="42.2091074650847" lon="13.897242064190097"><ele>234.16666666666666</ele><time>2026-05-03T10:04:52Z</time></trkpt><trkpt lat="42.20916302414963" lon="13.897319044703895"><ele>235.0</ele><time>2026-05-03T10:04:53Z</time></trkpt><trkpt lat="42.20922047117967" lon="13.897414470356003"><ele>235.0</ele><time>2026-05-03T10:04:54Z</time></trkpt><trkpt lat="42.20928399454795" lon="13.897512576814535"><ele>235.0</ele><time>2026-05-03T10:04:55Z</time></trkpt><trkpt lat="42.209346659492525" lon="13.897600672641207"><ele>235.0</ele><time>2026-05-03T10:04:56Z</time></trkpt><trkpt lat="42.209409657282514" lon="13.897696338938191"><ele>235.0</ele><time>2026-05-03T10:04:57Z</time></trkpt><trkpt lat="42.209469442881776" lon="13.89778148149472"><ele>235.0</ele><time>2026-05-03T10:04:58Z</time></trkpt><trkpt lat="42.20952045088317" lon="13.897867965891743"><ele>235.83333333333331</ele><time>2026-05-03T10:04:59Z</time></trkpt><trkpt lat="42.209568057807324" lon="13.897953820197163"><ele>236.66666666666666</ele><time>2026-05-03T10:05:00Z</time></trkpt><trkpt lat="42.20960105339225" lon="13.898037488445981"><ele>237.5</ele><time>2026-05-03T10:05:01Z</time></trkpt><trkpt lat="42.20961906124562" lon="13.898138649574829"><ele>238.33333333333331</ele><time>2026-05-03T10:05:02Z</time></trkpt><trkpt lat="42.209669581915215" lon="13.898270973192695"><ele>239.16666666666666</ele><time>2026-05-03T10:05:04Z</time></trkpt><trkpt lat="42.20972473981177" lon="13.89831469749247"><ele>240.0</ele><time>2026-05-03T10:05:05Z</time></trkpt><trkpt lat="42.20983793708792" lon="13.898314172464305"><ele>239.0</ele><time>2026-05-03T10:05:07Z</time></trkpt><trkpt lat="42.20993607931972" lon="13.898312949831258"><ele>238.0</ele><time>2026-05-03T10:05:09Z</time></trkpt><trkpt lat="42.20998009948278" lon="13.898459826615055"><ele>237.0</ele><time>2026-05-03T10:05:12Z</time></trkpt><trkpt lat="42.210010298403034" lon="13.898536631870774"><ele>236.0</ele><time>2026-05-03T10:05:13Z</time></trkpt><trkpt lat="42.210045914440315" lon="13.898608424359164"><ele>235.0</ele><time>2026-05-03T10:05:14Z</time></trkpt><trkpt lat="42.21012928852134" lon="13.898723580316192"><ele>235.0</ele><time>2026-05-03T10:05:16Z</time></trkpt><trkpt lat="42.21017009062685" lon="13.898793695124391"><ele>234.99999999999997</ele><time>2026-05-03T10:05:17Z</time></trkpt><trkpt lat="42.21022275690876" lon="13.898869116487038"><ele>235.0</ele><time>2026-05-03T10:05:18Z</time></trkpt><trkpt lat="42.21027969044181" lon="13.898941930526254"><ele>235.0</ele><time>2026-05-03T10:05:19Z</time></trkpt><trkpt lat="42.21033044470656" lon="13.899012710354455"><ele>234.99999999999997</ele><time>2026-05-03T10:05:19.999Z</time></trkpt><trkpt lat="42.21037997080418" lon="13.899083652037609"><ele>235.0</ele><time>2026-05-03T10:05:20.999Z</time></trkpt><trkpt lat="42.21042483162616" lon="13.899155808167762"><ele>235.0</ele><time>2026-05-03T10:05:21.999Z</time></trkpt><trkpt lat="42.210497516152216" lon="13.89928120333681"><ele>235.4</ele><time>2026-05-03T10:05:23.999Z</time></trkpt><trkpt lat="42.210564000142476" lon="13.899430586377758"><ele>235.8</ele><time>2026-05-03T10:05:25.999Z</time></trkpt><trkpt lat="42.21060715617332" lon="13.899529651972175"><ele>236.2</ele><time>2026-05-03T10:05:26.999Z</time></trkpt><trkpt lat="42.21065355828155" lon="13.899630035018658"><ele>236.6</ele><time>2026-05-03T10:05:27.999Z</time></trkpt><trkpt lat="42.21069123037324" lon="13.899709205506541"><ele>237.0</ele><time>2026-05-03T10:05:28.999Z</time></trkpt><trkpt lat="42.21074419518973" lon="13.899812184756085"><ele>234.8</ele><time>2026-05-03T10:05:29.999Z</time></trkpt><trkpt lat="42.21079991124551" lon="13.899922842119652"><ele>232.6</ele><time>2026-05-03T10:05:30.999Z</time></trkpt><trkpt lat="42.21085442753012" lon="13.900025842747345"><ele>230.40000000000003</ele><time>2026-05-03T10:05:31.999Z</time></trkpt><trkpt lat="42.2109088262315" lon="13.900114367041622"><ele>228.20000000000002</ele><time>2026-05-03T10:05:32.999Z</time></trkpt><trkpt lat="42.21095991461179" lon="13.900189024716784"><ele>226.0</ele><time>2026-05-03T10:05:33.999Z</time></trkpt><trkpt lat="42.21104571253731" lon="13.90029470342381"><ele>226.0</ele><time>2026-05-03T10:05:35.999Z</time></trkpt><trkpt lat="42.211097377294124" lon="13.90039092113289"><ele>226.00000000000003</ele><time>2026-05-03T10:05:37.999Z</time></trkpt><trkpt lat="42.21115973182341" lon="13.900472679726112"><ele>226.00000000000003</ele><time>2026-05-03T10:05:39.999Z</time></trkpt><trkpt lat="42.211211426625525" lon="13.900591729219437"><ele>226.0</ele><time>2026-05-03T10:05:41.999Z</time></trkpt><trkpt lat="42.21129179538566" lon="13.900679087361144"><ele>226.0</ele><time>2026-05-03T10:05:43.999Z</time></trkpt><trkpt lat="42.21139922339757" lon="13.90066336016668"><ele>225.60000000000002</ele><time>2026-05-03T10:05:45.999Z</time></trkpt><trkpt lat="42.211511612150574" lon="13.90063475523475"><ele>225.20000000000002</ele><time>2026-05-03T10:05:47.999Z</time></trkpt><trkpt lat="42.21159574583899" lon="13.90078958583292"><ele>224.79999999999998</ele><time>2026-05-03T10:05:52.999Z</time></trkpt><trkpt lat="42.21163158200816" lon="13.900874508420012"><ele>224.39999999999998</ele><time>2026-05-03T10:05:53.999Z</time></trkpt><trkpt lat="42.21163965170572" lon="13.901009429031081"><ele>224.0</ele><time>2026-05-03T10:05:55.999Z</time></trkpt><trkpt lat="42.211534293183576" lon="13.901100688908944"><ele>227.33333333333334</ele><time>2026-05-03T10:05:58.999Z</time></trkpt><trkpt lat="42.211465679570196" lon="13.901214019907343"><ele>230.66666666666669</ele><time>2026-05-03T10:06:00.999Z</time></trkpt><trkpt lat="42.211466864222636" lon="13.901312090628752"><ele>234.0</ele><time>2026-05-03T10:06:03.999Z</time></trkpt><trkpt lat="42.21148090231883" lon="13.90143780068053"><ele>237.33333333333331</ele><time>2026-05-03T10:06:05.999Z</time></trkpt><trkpt lat="42.21142026209045" lon="13.901497612752953"><ele>240.66666666666666</ele><time>2026-05-03T10:06:08.999Z</time></trkpt><trkpt lat="42.211341253950096" lon="13.901454296954384"><ele>244.0</ele><time>2026-05-03T10:06:10.999Z</time></trkpt><trkpt lat="42.21127700438128" lon="13.901360602058022"><ele>244.0</ele><time>2026-05-03T10:06:12.999Z</time></trkpt><trkpt lat="42.211180120579506" lon="13.90132553515615"><ele>243.99999999999997</ele><time>2026-05-03T10:06:14.999Z</time></trkpt><trkpt lat="42.21106054991333" lon="13.901312480502133"><ele>243.99999999999997</ele><time>2026-05-03T10:06:16.999Z</time></trkpt><trkpt lat="42.21099767453655" lon="13.90130773676708"><ele>244.0</ele><time>2026-05-03T10:06:17.999Z</time></trkpt><trkpt lat="42.210893247937314" lon="13.90134220910822"><ele>244.0</ele><time>2026-05-03T10:06:19.999Z</time></trkpt><trkpt lat="42.21087806640775" lon="13.90144169510254"><ele>243.99999999999997</ele><time>2026-05-03T10:08:15.999Z</time></trkpt><trkpt lat="42.210924120172585" lon="13.90153740073865"><ele>244.0</ele><time>2026-05-03T10:08:18.999Z</time></trkpt><trkpt lat="42.210998039560245" lon="13.90162832615475"><ele>244.0</ele><time>2026-05-03T10:08:20.999Z</time></trkpt><trkpt lat="42.21109502967048" lon="13.901726235835966"><ele>244.0</ele><time>2026-05-03T10:08:22.999Z</time></trkpt><trkpt lat="42.2111389041269" lon="13.901797146547773"><ele>243.99999999999997</ele><time>2026-05-03T10:08:24.999Z</time></trkpt><trkpt lat="42.21114784327013" lon="13.901893940459141"><ele>244.0</ele><time>2026-05-03T10:08:32.999Z</time></trkpt><trkpt lat="42.21113433187524" lon="13.90199653003865"><ele>248.2</ele><time>2026-05-03T10:08:34.999Z</time></trkpt><trkpt lat="42.21105454545441" lon="13.902034523636901"><ele>252.39999999999998</ele><time>2026-05-03T10:08:37.999Z</time></trkpt><trkpt lat="42.21098905554249" lon="13.901947339877806"><ele>256.6</ele><time>2026-05-03T10:08:39.999Z</time></trkpt><trkpt lat="42.210892368632464" lon="13.901837957476117"><ele>260.8</ele><time>2026-05-03T10:08:41.999Z</time></trkpt><trkpt lat="42.210802197627636" lon="13.901755285275929"><ele>265.0</ele><time>2026-05-03T10:08:43.999Z</time></trkpt><trkpt lat="42.21073823558463" lon="13.901798056537675"><ele>265.0</ele><time>2026-05-03T10:08:47.999Z</time></trkpt><trkpt lat="42.210743138741144" lon="13.901884130806284"><ele>265.0</ele><time>2026-05-03T10:08:52.999Z</time></trkpt><trkpt lat="42.210832265277496" lon="13.901971554866227"><ele>265.0</ele><time>2026-05-03T10:08:55.999Z</time></trkpt><trkpt lat="42.21088384898372" lon="13.902045931247443"><ele>265.0</ele><time>2026-05-03T10:08:57.999Z</time></trkpt><trkpt lat="42.21091824301459" lon="13.902166007661169"><ele>265.0</ele><time>2026-05-03T10:09:00.999Z</time></trkpt><trkpt lat="42.2109317974647" lon="13.902252806529818"><ele>265.0</ele><time>2026-05-03T10:09:02.999Z</time></trkpt><trkpt lat="42.2109251163281" lon="13.902358364403756"><ele>265.0</ele><time>2026-05-03T10:09:05.999Z</time></trkpt><trkpt lat="42.21095868458916" lon="13.902446928728025"><ele>265.0</ele><time>2026-05-03T10:09:07.999Z</time></trkpt><trkpt lat="42.21096626634717" lon="13.902587116681586"><ele>265.0</ele><time>2026-05-03T10:09:09.999Z</time></trkpt><trkpt lat="42.21095595115784" lon="13.90273642700784"><ele>265.0</ele><time>2026-05-03T10:09:11.999Z</time></trkpt><trkpt lat="42.21095067361482" lon="13.90282171444277"><ele>265.0</ele><time>2026-05-03T10:09:12.999Z</time></trkpt><trkpt lat="42.210955495398906" lon="13.902954154590367"><ele>267.66666666666663</ele><time>2026-05-03T10:09:14.999Z</time></trkpt><trkpt lat="42.21096808571519" lon="13.903039135508136"><ele>270.3333333333333</ele><time>2026-05-03T10:09:15.999Z</time></trkpt><trkpt lat="42.211013480581975" lon="13.903188486842508"><ele>273.0</ele><time>2026-05-03T10:09:17.999Z</time></trkpt><trkpt lat="42.21104227621683" lon="13.903269292448527"><ele>275.6666666666667</ele><time>2026-05-03T10:09:18.999Z</time></trkpt><trkpt lat="42.211074405605046" lon="13.903344215214354"><ele>278.33333333333337</ele><time>2026-05-03T10:09:19.999Z</time></trkpt><trkpt lat="42.211106136702874" lon="13.903438860529342"><ele>281.0</ele><time>2026-05-03T10:09:20.999Z</time></trkpt><trkpt lat="42.21112951191179" lon="13.903535668109505"><ele>283.0</ele><time>2026-05-03T10:09:21.999Z</time></trkpt><trkpt lat="42.211148883323325" lon="13.903639228533212"><ele>285.0</ele><time>2026-05-03T10:09:22.999Z</time></trkpt><trkpt lat="42.21116755945365" lon="13.903739983443076"><ele>287.0</ele><time>2026-05-03T10:09:23.999Z</time></trkpt><trkpt lat="42.211185534503414" lon="13.903842618957158"><ele>289.0</ele><time>2026-05-03T10:09:24.999Z</time></trkpt><trkpt lat="42.21120744184237" lon="13.903953255983607"><ele>291.0</ele><time>2026-05-03T10:09:25.999Z</time></trkpt><trkpt lat="42.21123033240991" lon="13.904066633530844"><ele>293.0</ele><time>2026-05-03T10:09:26.999Z</time></trkpt><trkpt lat="42.21125270036288" lon="13.904183108476246"><ele>295.4</ele><time>2026-05-03T10:09:27.999Z</time></trkpt><trkpt lat="42.21127020575957" lon="13.904296671495525"><ele>297.8</ele><time>2026-05-03T10:09:28.999Z</time></trkpt><trkpt lat="42.211286148537646" lon="13.904416642297976"><ele>300.2</ele><time>2026-05-03T10:09:29.999Z</time></trkpt><trkpt lat="42.21130964779343" lon="13.904540032840359"><ele>302.6</ele><time>2026-05-03T10:09:30.999Z</time></trkpt><trkpt lat="42.21133871153538" lon="13.904659999470017"><ele>305.0</ele><time>2026-05-03T10:09:31.999Z</time></trkpt><trkpt lat="42.211368827812436" lon="13.904784544548217"><ele>305.0</ele><time>2026-05-03T10:09:32.999Z</time></trkpt><trkpt lat="42.21139766228751" lon="13.904909995668595"><ele>305.0</ele><time>2026-05-03T10:09:33.999Z</time></trkpt><trkpt lat="42.211422627161895" lon="13.905013019126192"><ele>305.0</ele><time>2026-05-03T10:09:34.999Z</time></trkpt><trkpt lat="42.21144181203034" lon="13.905113099027993"><ele>305.0</ele><time>2026-05-03T10:09:35.999Z</time></trkpt><trkpt lat="42.211453780436386" lon="13.90521514588823"><ele>305.0</ele><time>2026-05-03T10:09:36.999Z</time></trkpt><trkpt lat="42.211465724150735" lon="13.905315220465145"><ele>305.0</ele><time>2026-05-03T10:09:37.999Z</time></trkpt><trkpt lat="42.21148985539146" lon="13.905433939593244"><ele>305.33333333333337</ele><time>2026-05-03T10:09:38.999Z</time></trkpt><trkpt lat="42.211518464854024" lon="13.905548487378516"><ele>305.6666666666667</ele><time>2026-05-03T10:09:39.999Z</time></trkpt><trkpt lat="42.21154223151344" lon="13.9056681542908"><ele>306.0</ele><time>2026-05-03T10:09:40.999Z</time></trkpt><trkpt lat="42.21156051504029" lon="13.90576608443073"><ele>306.3333333333333</ele><time>2026-05-03T10:09:41.999Z</time></trkpt><trkpt lat="42.21158539719615" lon="13.905858738215736"><ele>306.66666666666663</ele><time>2026-05-03T10:09:42.999Z</time></trkpt><trkpt lat="42.21160287986351" lon="13.905953006459676"><ele>307.0</ele><time>2026-05-03T10:09:43.999Z</time></trkpt><trkpt lat="42.21162892935669" lon="13.906061641242662"><ele>308.3333333333333</ele><time>2026-05-03T10:09:44.999Z</time></trkpt><trkpt lat="42.211668604265334" lon="13.906173910176816"><ele>309.66666666666663</ele><time>2026-05-03T10:09:45.999Z</time></trkpt><trkpt lat="42.21169467084684" lon="13.906263128573185"><ele>311.0</ele><time>2026-05-03T10:09:46.999Z</time></trkpt><trkpt lat="42.21172758238736" lon="13.906348699149826"><ele>312.3333333333333</ele><time>2026-05-03T10:09:47.999Z</time></trkpt><trkpt lat="42.211778370495416" lon="13.906507935353446"><ele>313.6666666666667</ele><time>2026-05-03T10:09:49.999Z</time></trkpt><trkpt lat="42.21180466515161" lon="13.906617449187326"><ele>315.0</ele><time>2026-05-03T10:09:50.999Z</time></trkpt><trkpt lat="42.21178689602887" lon="13.906751850003129"><ele>317.2</ele><time>2026-05-03T10:09:51.999Z</time></trkpt><trkpt lat="42.21181473689006" lon="13.90685120289431"><ele>319.4</ele><time>2026-05-03T10:09:52.999Z</time></trkpt><trkpt lat="42.21183986557714" lon="13.906940875964425"><ele>321.6</ele><time>2026-05-03T10:09:53.999Z</time></trkpt><trkpt lat="42.21188375571339" lon="13.907052046241397"><ele>323.8</ele><time>2026-05-03T10:09:54.999Z</time></trkpt><trkpt lat="42.21191960869742" lon="13.9071826566573"><ele>326.0</ele><time>2026-05-03T10:09:55.999Z</time></trkpt><trkpt lat="42.211966485705666" lon="13.907322188903356"><ele>326.0</ele><time>2026-05-03T10:09:56.999Z</time></trkpt><trkpt lat="42.212014680361605" lon="13.907465464996479"><ele>326.0</ele><time>2026-05-03T10:09:57.999Z</time></trkpt><trkpt lat="42.21203548077597" lon="13.907619436572668"><ele>326.0</ele><time>2026-05-03T10:09:58.999Z</time></trkpt><trkpt lat="42.21205839826088" lon="13.907757830392473"><ele>326.0</ele><time>2026-05-03T10:09:59.999Z</time></trkpt><trkpt lat="42.212073313754274" lon="13.907891912106546"><ele>326.0</ele><time>2026-05-03T10:10:00.999Z</time></trkpt><trkpt lat="42.212098769161635" lon="13.908019287482068"><ele>326.5</ele><time>2026-05-03T10:10:01.999Z</time></trkpt><trkpt lat="42.21211178050287" lon="13.908137154811676"><ele>327.0</ele><time>2026-05-03T10:10:02.999Z</time></trkpt><trkpt lat="42.21211122602885" lon="13.908246467795294"><ele>327.5</ele><time>2026-05-03T10:10:03.999Z</time></trkpt><trkpt lat="42.21213821621104" lon="13.908341676647062"><ele>328.0</ele><time>2026-05-03T10:10:04.999Z</time></trkpt><trkpt lat="42.21213327886331" lon="13.908438063584532"><ele>328.5</ele><time>2026-05-03T10:10:05.999Z</time></trkpt><trkpt lat="42.212124776962945" lon="13.90853193114027"><ele>329.0</ele><time>2026-05-03T10:10:06.999Z</time></trkpt><trkpt lat="42.21211711667703" lon="13.908630107052975"><ele>329.5</ele><time>2026-05-03T10:10:07.999Z</time></trkpt><trkpt lat="42.21210597110369" lon="13.908722846115463"><ele>330.0</ele><time>2026-05-03T10:10:08.999Z</time></trkpt><trkpt lat="42.212090259927734" lon="13.908814212625018"><ele>330.5</ele><time>2026-05-03T10:10:09.999Z</time></trkpt><trkpt lat="42.212062506158595" lon="13.908918362174802"><ele>331.0</ele><time>2026-05-03T10:10:10.999Z</time></trkpt><trkpt lat="42.21202966934219" lon="13.909013435907331"><ele>331.5</ele><time>2026-05-03T10:10:11.999Z</time></trkpt><trkpt lat="42.211987878569566" lon="13.909105246785238"><ele>332.0</ele><time>2026-05-03T10:10:12.999Z</time></trkpt><trkpt lat="42.21193869574607" lon="13.909193241647472"><ele>332.57142857142856</ele><time>2026-05-03T10:10:13.999Z</time></trkpt><trkpt lat="42.21188807779551" lon="13.909283392420077"><ele>333.14285714285717</ele><time>2026-05-03T10:10:14.999Z</time></trkpt><trkpt lat="42.211839620134654" lon="13.909372161156234"><ele>333.7142857142857</ele><time>2026-05-03T10:10:15.999Z</time></trkpt><trkpt lat="42.211800766902506" lon="13.909445049722281"><ele>334.2857142857143</ele><time>2026-05-03T10:10:16.999Z</time></trkpt><trkpt lat="42.2117685330351" lon="13.909526767149536"><ele>334.8571428571429</ele><time>2026-05-03T10:10:17.999Z</time></trkpt><trkpt lat="42.21175220875164" lon="13.909620132043106"><ele>335.42857142857144</ele><time>2026-05-03T10:10:18.999Z</time></trkpt><trkpt lat="42.21175652711585" lon="13.909720168416996"><ele>336.0</ele><time>2026-05-03T10:10:19.999Z</time></trkpt><trkpt lat="42.21176832639609" lon="13.909820606966155"><ele>336.0</ele><time>2026-05-03T10:10:20.999Z</time></trkpt><trkpt lat="42.21178083225712" lon="13.909921624408032"><ele>336.0</ele><time>2026-05-03T10:10:21.999Z</time></trkpt><trkpt lat="42.211792768396855" lon="13.910021938395278"><ele>336.0</ele><time>2026-05-03T10:10:22.999Z</time></trkpt><trkpt lat="42.211806188242534" lon="13.910127164280679"><ele>336.0</ele><time>2026-05-03T10:10:23.999Z</time></trkpt><trkpt lat="42.21181976164639" lon="13.910229143007466"><ele>336.0</ele><time>2026-05-03T10:10:24.999Z</time></trkpt><trkpt lat="42.21182889644222" lon="13.910325221652892"><ele>336.0</ele><time>2026-05-03T10:10:25.999Z</time></trkpt><trkpt lat="42.211832296560104" lon="13.91042412112929"><ele>336.0</ele><time>2026-05-03T10:10:26.999Z</time></trkpt><trkpt lat="42.21181832708649" lon="13.910518659656038"><ele>336.0</ele><time>2026-05-03T10:10:27.999Z</time></trkpt><trkpt lat="42.21181631066637" lon="13.910615280381053"><ele>336.0</ele><time>2026-05-03T10:10:28.999Z</time></trkpt><trkpt lat="42.21181403194106" lon="13.910709359069854"><ele>336.0</ele><time>2026-05-03T10:10:29.999Z</time></trkpt><trkpt lat="42.2118092481886" lon="13.910811116354937"><ele>336.0</ele><time>2026-05-03T10:10:30.999Z</time></trkpt><trkpt lat="42.21180438557413" lon="13.910914552609105"><ele>336.0</ele><time>2026-05-03T10:10:31.999Z</time></trkpt><trkpt lat="42.21179816321062" lon="13.91101713268671"><ele>336.0</ele><time>2026-05-03T10:10:33Z</time></trkpt><trkpt lat="42.21180570045979" lon="13.911125489487937"><ele>336.0</ele><time>2026-05-03T10:10:34Z</time></trkpt><trkpt lat="42.211791418401894" lon="13.911227322535469"><ele>336.0</ele><time>2026-05-03T10:10:35Z</time></trkpt><trkpt lat="42.211778087945916" lon="13.911336071807938"><ele>336.0</ele><time>2026-05-03T10:10:36Z</time></trkpt><trkpt lat="42.21177019831063" lon="13.911437690997602"><ele>336.0</ele><time>2026-05-03T10:10:37Z</time></trkpt><trkpt lat="42.21176910695548" lon="13.911531306602933"><ele>336.0</ele><time>2026-05-03T10:10:38Z</time></trkpt><trkpt lat="42.211771425723164" lon="13.911618699513085"><ele>336.0</ele><time>2026-05-03T10:10:39Z</time></trkpt><trkpt lat="42.211740438725215" lon="13.911703665590034"><ele>336.0</ele><time>2026-05-03T10:10:40Z</time></trkpt><trkpt lat="42.21174608191178" lon="13.911794530833152"><ele>335.5</ele><time>2026-05-03T10:10:41Z</time></trkpt><trkpt lat="42.21177740658074" lon="13.91189260464656"><ele>335.0</ele><time>2026-05-03T10:10:42Z</time></trkpt><trkpt lat="42.21182395169118" lon="13.911975863480414"><ele>334.5</ele><time>2026-05-03T10:10:43Z</time></trkpt><trkpt lat="42.211871476675114" lon="13.91205736421468"><ele>334.0</ele><time>2026-05-03T10:10:44Z</time></trkpt><trkpt lat="42.211923267708386" lon="13.912135018973377"><ele>333.5</ele><time>2026-05-03T10:10:45Z</time></trkpt><trkpt lat="42.211974966396234" lon="13.912210365059385"><ele>333.0</ele><time>2026-05-03T10:10:46Z</time></trkpt><trkpt lat="42.21202918234965" lon="13.912288226916754"><ele>333.0</ele><time>2026-05-03T10:10:47Z</time></trkpt><trkpt lat="42.212111287892256" lon="13.91233741509188"><ele>333.0</ele><time>2026-05-03T10:10:48Z</time></trkpt><trkpt lat="42.212171344981684" lon="13.91241825124096"><ele>333.0</ele><time>2026-05-03T10:10:49Z</time></trkpt><trkpt lat="42.21222311987658" lon="13.912498598886309"><ele>333.0</ele><time>2026-05-03T10:10:50Z</time></trkpt><trkpt lat="42.212271753002646" lon="13.912573473126999"><ele>333.0</ele><time>2026-05-03T10:10:51Z</time></trkpt><trkpt lat="42.21232665537449" lon="13.912642377501802"><ele>333.0</ele><time>2026-05-03T10:10:52Z</time></trkpt><trkpt lat="42.21238096376026" lon="13.912696660324347"><ele>333.6666666666667</ele><time>2026-05-03T10:10:53Z</time></trkpt><trkpt lat="42.212442787638665" lon="13.912737050201352"><ele>334.3333333333333</ele><time>2026-05-03T10:10:54Z</time></trkpt><trkpt lat="42.21254423425268" lon="13.912842714286485"><ele>335.0</ele><time>2026-05-03T10:10:56Z</time></trkpt><trkpt lat="42.21260809755756" lon="13.912893570085185"><ele>335.66666666666663</ele><time>2026-05-03T10:10:57Z</time></trkpt><trkpt lat="42.21267513424065" lon="13.912947502035797"><ele>336.3333333333333</ele><time>2026-05-03T10:10:58Z</time></trkpt><trkpt lat="42.212745227803005" lon="13.913002292849495"><ele>337.0</ele><time>2026-05-03T10:10:59Z</time></trkpt><trkpt lat="42.21280367976259" lon="13.91304283305946"><ele>337.0</ele><time>2026-05-03T10:11:00Z</time></trkpt><trkpt lat="42.21287136316148" lon="13.91308977440147"><ele>337.0</ele><time>2026-05-03T10:11:01Z</time></trkpt><trkpt lat="42.21295267755309" lon="13.913138958621463"><ele>337.0</ele><time>2026-05-03T10:11:02Z</time></trkpt><trkpt lat="42.21303643139171" lon="13.913182302486739"><ele>337.0</ele><time>2026-05-03T10:11:03Z</time></trkpt><trkpt lat="42.2131247702985" lon="13.913217698142212"><ele>337.0</ele><time>2026-05-03T10:11:04Z</time></trkpt><trkpt lat="42.21322209351211" lon="13.913205072369085"><ele>337.0</ele><time>2026-05-03T10:11:05Z</time></trkpt><trkpt lat="42.21331596222367" lon="13.91323374842663"><ele>337.8</ele><time>2026-05-03T10:11:06Z</time></trkpt><trkpt lat="42.213408438523786" lon="13.913257348615584"><ele>338.6</ele><time>2026-05-03T10:11:07Z</time></trkpt><trkpt lat="42.21349283273645" lon="13.913311947629516"><ele>339.40000000000003</ele><time>2026-05-03T10:11:08Z</time></trkpt><trkpt lat="42.213586151189126" lon="13.913345002519716"><ele>340.20000000000005</ele><time>2026-05-03T10:11:09Z</time></trkpt><trkpt lat="42.213674814014844" lon="13.91336496723575"><ele>341.0</ele><time>2026-05-03T10:11:10Z</time></trkpt><trkpt lat="42.213763796960954" lon="13.913379158669912"><ele>341.0</ele><time>2026-05-03T10:11:11Z</time></trkpt><trkpt lat="42.213853698653786" lon="13.913389612983307"><ele>341.0</ele><time>2026-05-03T10:11:12Z</time></trkpt><trkpt lat="42.21394706817226" lon="13.913389503243529"><ele>341.0</ele><time>2026-05-03T10:11:13Z</time></trkpt><trkpt lat="42.214035210379585" lon="13.913378993910385"><ele>341.0</ele><time>2026-05-03T10:11:14Z</time></trkpt><trkpt lat="42.214118304643456" lon="13.913369401123047"><ele>341.0</ele><time>2026-05-03T10:11:15Z</time></trkpt><trkpt lat="42.21419872550327" lon="13.913353008295536"><ele>341.0</ele><time>2026-05-03T10:11:16Z</time></trkpt><trkpt lat="42.21427431047728" lon="13.913307137522702"><ele>341.33333333333337</ele><time>2026-05-03T10:11:17Z</time></trkpt><trkpt lat="42.214350786348035" lon="13.913286057450224"><ele>341.6666666666667</ele><time>2026-05-03T10:11:18Z</time></trkpt><trkpt lat="42.214425335675486" lon="13.913249825287362"><ele>342.0</ele><time>2026-05-03T10:11:19Z</time></trkpt><trkpt lat="42.21449831733434" lon="13.913232619339835"><ele>342.3333333333333</ele><time>2026-05-03T10:11:20Z</time></trkpt><trkpt lat="42.21456302206339" lon="13.913170534863648"><ele>342.66666666666663</ele><time>2026-05-03T10:11:21Z</time></trkpt><trkpt lat="42.214640645812175" lon="13.913167991059842"><ele>343.0</ele><time>2026-05-03T10:11:22Z</time></trkpt><trkpt lat="42.21471342749921" lon="13.91314613954041"><ele>343.0</ele><time>2026-05-03T10:11:23Z</time></trkpt><trkpt lat="42.21478254222362" lon="13.913127392484167"><ele>343.0</ele><time>2026-05-03T10:11:24Z</time></trkpt><trkpt lat="42.21484637857823" lon="13.91311555636263"><ele>343.0</ele><time>2026-05-03T10:11:25Z</time></trkpt><trkpt lat="42.214967681127334" lon="13.913190449717034"><ele>343.0</ele><time>2026-05-03T10:11:27Z</time></trkpt><trkpt lat="42.21504911136182" lon="13.913249758901543"><ele>343.0</ele><time>2026-05-03T10:11:28Z</time></trkpt><trkpt lat="42.21514561149245" lon="13.91329758136601"><ele>342.0</ele><time>2026-05-03T10:11:29Z</time></trkpt><trkpt lat="42.21524548093402" lon="13.913369269402427"><ele>341.0</ele><time>2026-05-03T10:11:30Z</time></trkpt><trkpt lat="42.21534418750325" lon="13.913435488445984"><ele>340.0</ele><time>2026-05-03T10:11:31Z</time></trkpt><trkpt lat="42.21544141189146" lon="13.913504193309135"><ele>339.0</ele><time>2026-05-03T10:11:32Z</time></trkpt><trkpt lat="42.21554722909602" lon="13.913574487967809"><ele>338.0</ele><time>2026-05-03T10:11:33Z</time></trkpt><trkpt lat="42.21565437212736" lon="13.91365115978896"><ele>337.0</ele><time>2026-05-03T10:11:34Z</time></trkpt><trkpt lat="42.215762291639415" lon="13.913731525311782"><ele>336.0</ele><time>2026-05-03T10:11:35Z</time></trkpt><trkpt lat="42.215869688792175" lon="13.913809814386918"><ele>335.0</ele><time>2026-05-03T10:11:36Z</time></trkpt><trkpt lat="42.21597447947454" lon="13.913884390646166"><ele>335.0</ele><time>2026-05-03T10:11:36.999Z</time></trkpt><trkpt lat="42.21607888529767" lon="13.913960987836452"><ele>335.0</ele><time>2026-05-03T10:11:37.999Z</time></trkpt><trkpt lat="42.21618536562437" lon="13.914036661554865"><ele>335.0</ele><time>2026-05-03T10:11:38.999Z</time></trkpt><trkpt lat="42.21629104776897" lon="13.914113676622897"><ele>335.0</ele><time>2026-05-03T10:11:39.999Z</time></trkpt><trkpt lat="42.21638746586255" lon="13.914208326748009"><ele>335.0</ele><time>2026-05-03T10:11:40.999Z</time></trkpt><trkpt lat="42.2164771097934" lon="13.914246631343909"><ele>335.0</ele><time>2026-05-03T10:11:41.999Z</time></trkpt><trkpt lat="42.216540874589484" lon="13.914289857691026"><ele>335.0</ele><time>2026-05-03T10:11:42.999Z</time></trkpt><trkpt lat="42.21662412717402" lon="13.914354131636122"><ele>335.0</ele><time>2026-05-03T10:11:44.999Z</time></trkpt><trkpt lat="42.21667321778663" lon="13.914415864609662"><ele>335.0</ele><time>2026-05-03T10:11:46.999Z</time></trkpt><trkpt lat="42.21659180497795" lon="13.914344839741682"><ele>335.0</ele><time>2026-05-03T10:11:52.999Z</time></trkpt><trkpt lat="42.216476476227044" lon="13.914236424933595"><ele>335.0</ele><time>2026-05-03T10:11:54.999Z</time></trkpt><trkpt lat="42.216396256024844" lon="13.914182748162688"><ele>335.0</ele><time>2026-05-03T10:11:55.999Z</time></trkpt><trkpt lat="42.21632424833606" lon="13.914140263900482"><ele>335.0</ele><time>2026-05-03T10:11:56.999Z</time></trkpt><trkpt lat="42.21622109364873" lon="13.914090613670194"><ele>335.0</ele><time>2026-05-03T10:11:58.999Z</time></trkpt><trkpt lat="42.21613624050717" lon="13.914178177796796"><ele>335.0</ele><time>2026-05-03T10:12:00.999Z</time></trkpt><trkpt lat="42.216121736192264" lon="13.914274645695318"><ele>334.1666666666667</ele><time>2026-05-03T10:12:01.999Z</time></trkpt><trkpt lat="42.216096247142126" lon="13.914363709091004"><ele>333.33333333333337</ele><time>2026-05-03T10:12:02.999Z</time></trkpt><trkpt lat="42.21601952731896" lon="13.914417597026395"><ele>332.5</ele><time>2026-05-03T10:12:04.999Z</time></trkpt><trkpt lat="42.21596729656775" lon="13.914465811014843"><ele>331.6666666666667</ele><time>2026-05-03T10:12:05.999Z</time></trkpt><trkpt lat="42.21589251787093" lon="13.914523697984405"><ele>330.8333333333333</ele><time>2026-05-03T10:12:06.999Z</time></trkpt><trkpt lat="42.215796554107314" lon="13.914592624044856"><ele>330.0</ele><time>2026-05-03T10:12:07.999Z</time></trkpt><trkpt lat="42.21571183921455" lon="13.914653107155065"><ele>330.4</ele><time>2026-05-03T10:12:08.999Z</time></trkpt><trkpt lat="42.21562420855255" lon="13.914716536597"><ele>330.8</ele><time>2026-05-03T10:12:09.999Z</time></trkpt><trkpt lat="42.21553843484771" lon="13.91477748705629"><ele>331.20000000000005</ele><time>2026-05-03T10:12:10.999Z</time></trkpt><trkpt lat="42.21546292334246" lon="13.91481931015208"><ele>331.6</ele><time>2026-05-03T10:12:11.999Z</time></trkpt><trkpt lat="42.21537637585223" lon="13.914859791605394"><ele>332.0</ele><time>2026-05-03T10:12:12.999Z</time></trkpt><trkpt lat="42.21529251444653" lon="13.914899073366986"><ele>332.0</ele><time>2026-05-03T10:12:13.999Z</time></trkpt><trkpt lat="42.215205965918216" lon="13.914939614296078"><ele>332.0</ele><time>2026-05-03T10:12:14.999Z</time></trkpt><trkpt lat="42.21513458832756" lon="13.914978995891316"><ele>332.0</ele><time>2026-05-03T10:12:15.999Z</time></trkpt><trkpt lat="42.21508212577054" lon="13.9150637953968"><ele>332.0</ele><time>2026-05-03T10:12:16.999Z</time></trkpt><trkpt lat="42.215017211247314" lon="13.915130212199303"><ele>332.0</ele><time>2026-05-03T10:12:17.999Z</time></trkpt><trkpt lat="42.21494611761195" lon="13.91520756577666"><ele>332.0</ele><time>2026-05-03T10:12:18.999Z</time></trkpt><trkpt lat="42.214867738981745" lon="13.915277582859167"><ele>330.6</ele><time>2026-05-03T10:12:19.999Z</time></trkpt><trkpt lat="42.2147976273641" lon="13.91533987001382"><ele>329.20000000000005</ele><time>2026-05-03T10:12:20.999Z</time></trkpt><trkpt lat="42.21473113793364" lon="13.915405266707305"><ele>327.8</ele><time>2026-05-03T10:12:21.999Z</time></trkpt><trkpt lat="42.21463925021902" lon="13.915444950116704"><ele>326.4</ele><time>2026-05-03T10:12:22.999Z</time></trkpt><trkpt lat="42.21456133035582" lon="13.915522661545188"><ele>325.0</ele><time>2026-05-03T10:12:23.999Z</time></trkpt><trkpt lat="42.214470744567464" lon="13.915582228341227"><ele>325.0</ele><time>2026-05-03T10:12:24.999Z</time></trkpt><trkpt lat="42.214389444096824" lon="13.915668537453454"><ele>325.0</ele><time>2026-05-03T10:12:25.999Z</time></trkpt><trkpt lat="42.21431302377732" lon="13.91574954184815"><ele>325.0</ele><time>2026-05-03T10:12:26.999Z</time></trkpt><trkpt lat="42.214234561477305" lon="13.915843192318846"><ele>325.0</ele><time>2026-05-03T10:12:27.999Z</time></trkpt><trkpt lat="42.21415503627967" lon="13.915934301064798"><ele>325.0</ele><time>2026-05-03T10:12:28.999Z</time></trkpt><trkpt lat="42.2140773126881" lon="13.916031581597604"><ele>323.8</ele><time>2026-05-03T10:12:29.999Z</time></trkpt><trkpt lat="42.21398628140615" lon="13.916111734658344"><ele>322.6</ele><time>2026-05-03T10:12:30.999Z</time></trkpt><trkpt lat="42.21390226128514" lon="13.916186857497316"><ele>321.4</ele><time>2026-05-03T10:12:31.999Z</time></trkpt><trkpt lat="42.21381020847576" lon="13.916262935724568"><ele>320.2</ele><time>2026-05-03T10:12:32.999Z</time></trkpt><trkpt lat="42.21371927024928" lon="13.91632375508292"><ele>319.0</ele><time>2026-05-03T10:12:33.999Z</time></trkpt><trkpt lat="42.21363558710582" lon="13.91639899807094"><ele>319.0</ele><time>2026-05-03T10:12:34.999Z</time></trkpt><trkpt lat="42.213554659958305" lon="13.91646692074037"><ele>319.0</ele><time>2026-05-03T10:12:35.999Z</time></trkpt><trkpt lat="42.21348569990511" lon="13.916563462579846"><ele>319.0</ele><time>2026-05-03T10:12:36.999Z</time></trkpt><trkpt lat="42.21343209794928" lon="13.916691019225476"><ele>319.0</ele><time>2026-05-03T10:12:37.999Z</time></trkpt><trkpt lat="42.213416131797565" lon="13.916839359925296"><ele>319.0</ele><time>2026-05-03T10:12:38.999Z</time></trkpt><trkpt lat="42.21343286492396" lon="13.91699957337209"><ele>319.5</ele><time>2026-05-03T10:12:39.999Z</time></trkpt><trkpt lat="42.21345439915574" lon="13.917171254468961"><ele>320.0</ele><time>2026-05-03T10:12:40.999Z</time></trkpt><trkpt lat="42.21346882612137" lon="13.917326606634326"><ele>320.5</ele><time>2026-05-03T10:12:41.999Z</time></trkpt><trkpt lat="42.213483239963956" lon="13.917485320988872"><ele>321.0</ele><time>2026-05-03T10:12:42.999Z</time></trkpt><trkpt lat="42.21348452829924" lon="13.917641391515541"><ele>321.8</ele><time>2026-05-03T10:12:43.999Z</time></trkpt><trkpt lat="42.21347743915861" lon="13.91779371090617"><ele>322.6</ele><time>2026-05-03T10:12:44.999Z</time></trkpt><trkpt lat="42.21346622929483" lon="13.917921600918174"><ele>323.4</ele><time>2026-05-03T10:12:45.999Z</time></trkpt><trkpt lat="42.213430235131" lon="13.918025033108412"><ele>324.2</ele><time>2026-05-03T10:12:46.999Z</time></trkpt><trkpt lat="42.213403060121834" lon="13.91812119603008"><ele>325.0</ele><time>2026-05-03T10:12:48.999Z</time></trkpt><trkpt lat="42.21337684198034" lon="13.918239163011366"><ele>325.0</ele><time>2026-05-03T10:12:53.999Z</time></trkpt><trkpt lat="42.21329617929459" lon="13.918273110607041"><ele>325.0</ele><time>2026-05-03T10:12:56.999Z</time></trkpt><trkpt lat="42.21331990814674" lon="13.918174256303404"><ele>325.0</ele><time>2026-05-03T10:12:57.999Z</time></trkpt><trkpt lat="42.21341070335719" lon="13.918130780048493"><ele>325.0</ele><time>2026-05-03T10:13:01.999Z</time></trkpt><trkpt lat="42.21349640808145" lon="13.918150934643796"><ele>325.0</ele><time>2026-05-03T10:13:02.999Z</time></trkpt><trkpt lat="42.21358497589939" lon="13.918178869616597"><ele>325.0</ele><time>2026-05-03T10:13:03.999Z</time></trkpt><trkpt lat="42.213671498792635" lon="13.918226550204782"><ele>325.0</ele><time>2026-05-03T10:13:04.999Z</time></trkpt><trkpt lat="42.21374849874048" lon="13.918296000093678"><ele>325.0</ele><time>2026-05-03T10:13:05.999Z</time></trkpt><trkpt lat="42.21381671329901" lon="13.91838352039988"><ele>325.0</ele><time>2026-05-03T10:13:06.999Z</time></trkpt><trkpt lat="42.21388785456631" lon="13.918492141785434"><ele>325.0</ele><time>2026-05-03T10:13:07.999Z</time></trkpt><trkpt lat="42.21396447327138" lon="13.91861352651792"><ele>325.0</ele><time>2026-05-03T10:13:08.999Z</time></trkpt><trkpt lat="42.21404076227258" lon="13.918736077485637"><ele>324.75</ele><time>2026-05-03T10:13:09.999Z</time></trkpt><trkpt lat="42.21411923172159" lon="13.918844541365736"><ele>324.5</ele><time>2026-05-03T10:13:10.999Z</time></trkpt><trkpt lat="42.214208174435946" lon="13.918946670084992"><ele>324.25</ele><time>2026-05-03T10:13:11.999Z</time></trkpt><trkpt lat="42.214301569633314" lon="13.91904519077285"><ele>324.0</ele><time>2026-05-03T10:13:12.999Z</time></trkpt><trkpt lat="42.21440027935917" lon="13.919138597065427"><ele>324.0</ele><time>2026-05-03T10:13:13.999Z</time></trkpt><trkpt lat="42.21450078219192" lon="13.919231066746631"><ele>324.0</ele><time>2026-05-03T10:13:14.999Z</time></trkpt><trkpt lat="42.21460389635341" lon="13.91931916988299"><ele>324.0</ele><time>2026-05-03T10:13:15.999Z</time></trkpt><trkpt lat="42.214710507505664" lon="13.919401382088132"><ele>324.0</ele><time>2026-05-03T10:13:16.999Z</time></trkpt><trkpt lat="42.21481914250629" lon="13.919480060708533"><ele>323.75</ele><time>2026-05-03T10:13:17.999Z</time></trkpt><trkpt lat="42.21492587518572" lon="13.919557921974603"><ele>323.5</ele><time>2026-05-03T10:13:18.999Z</time></trkpt><trkpt lat="42.21503058581791" lon="13.919642281872832"><ele>323.25</ele><time>2026-05-03T10:13:19.999Z</time></trkpt><trkpt lat="42.2151314236308" lon="13.919733010213196"><ele>323.0</ele><time>2026-05-03T10:13:20.999Z</time></trkpt><trkpt lat="42.215220417137395" lon="13.919823139791443"><ele>323.0</ele><time>2026-05-03T10:13:21.999Z</time></trkpt><trkpt lat="42.215297767316954" lon="13.91990556819544"><ele>323.0</ele><time>2026-05-03T10:13:22.999Z</time></trkpt><trkpt lat="42.215365917771734" lon="13.919972569448591"><ele>323.0</ele><time>2026-05-03T10:13:23.999Z</time></trkpt><trkpt lat="42.215426752559665" lon="13.920032500096037"><ele>323.0</ele><time>2026-05-03T10:13:24.999Z</time></trkpt><trkpt lat="42.21548405794845" lon="13.92008536736066"><ele>323.0</ele><time>2026-05-03T10:13:25.999Z</time></trkpt><trkpt lat="42.21553855153339" lon="13.92013959940424"><ele>323.0</ele><time>2026-05-03T10:13:26.999Z</time></trkpt><trkpt lat="42.215644836225515" lon="13.920244880508069"><ele>322.25</ele><time>2026-05-03T10:13:28.999Z</time></trkpt><trkpt lat="42.215725126392705" lon="13.920326426576402"><ele>321.5</ele><time>2026-05-03T10:13:29.999Z</time></trkpt><trkpt lat="42.21583339788679" lon="13.920445250956405"><ele>320.75</ele><time>2026-05-03T10:13:30.999Z</time></trkpt><trkpt lat="42.21595061886243" lon="13.920572933606035"><ele>320.0</ele><time>2026-05-03T10:13:31.999Z</time></trkpt><trkpt lat="42.21603899729614" lon="13.92069710960865"><ele>320.0</ele><time>2026-05-03T10:13:33Z</time></trkpt><trkpt lat="42.216125948511916" lon="13.920804949654023"><ele>320.0</ele><time>2026-05-03T10:13:34Z</time></trkpt><trkpt lat="42.21621033193943" lon="13.920922278237384"><ele>320.0</ele><time>2026-05-03T10:13:35Z</time></trkpt><trkpt lat="42.216295844996054" lon="13.921044463957898"><ele>320.0</ele><time>2026-05-03T10:13:36Z</time></trkpt><trkpt lat="42.21638863173516" lon="13.921152499390967"><ele>319.75</ele><time>2026-05-03T10:13:37Z</time></trkpt><trkpt lat="42.21647272067682" lon="13.921271782063942"><ele>319.5</ele><time>2026-05-03T10:13:38Z</time></trkpt><trkpt lat="42.21655312192568" lon="13.921390971411647"><ele>319.25</ele><time>2026-05-03T10:13:39Z</time></trkpt><trkpt lat="42.21663180122725" lon="13.921500723224048"><ele>319.0</ele><time>2026-05-03T10:13:40Z</time></trkpt><trkpt lat="42.216713748401546" lon="13.921600124309448"><ele>319.0</ele><time>2026-05-03T10:13:41Z</time></trkpt><trkpt lat="42.216796801050215" lon="13.921690010302203"><ele>319.0</ele><time>2026-05-03T10:13:42Z</time></trkpt><trkpt lat="42.21687603973399" lon="13.92178060638495"><ele>319.0</ele><time>2026-05-03T10:13:42.998Z</time></trkpt><trkpt lat="42.216944958749444" lon="13.921876455483524"><ele>319.0</ele><time>2026-05-03T10:13:43.998Z</time></trkpt><trkpt lat="42.217005053203785" lon="13.92197912691845"><ele>319.0</ele><time>2026-05-03T10:13:44.998Z</time></trkpt><trkpt lat="42.21703960435442" lon="13.922095041210074"><ele>318.59999999999997</ele><time>2026-05-03T10:13:45.998Z</time></trkpt><trkpt lat="42.21707600512172" lon="13.922199107557125"><ele>318.2</ele><time>2026-05-03T10:13:46.998Z</time></trkpt><trkpt lat="42.217125380657855" lon="13.922304602242908"><ele>317.79999999999995</ele><time>2026-05-03T10:13:47.998Z</time></trkpt><trkpt lat="42.21716773224275" lon="13.922432496927037"><ele>317.4</ele><time>2026-05-03T10:13:48.998Z</time></trkpt><trkpt lat="42.217196143679665" lon="13.922582932761028"><ele>317.0</ele><time>2026-05-03T10:13:49.998Z</time></trkpt><trkpt lat="42.2172480967623" lon="13.922721240990468"><ele>316.2</ele><time>2026-05-03T10:13:50.998Z</time></trkpt><trkpt lat="42.21729315849208" lon="13.922863402307263"><ele>315.4</ele><time>2026-05-03T10:13:51.998Z</time></trkpt><trkpt lat="42.217342590377456" lon="13.922994417318645"><ele>314.6</ele><time>2026-05-03T10:13:52.998Z</time></trkpt><trkpt lat="42.21738567484861" lon="13.923112225204976"><ele>313.8</ele><time>2026-05-03T10:13:53.999Z</time></trkpt><trkpt lat="42.217427450877594" lon="13.923200907908488"><ele>313.0</ele><time>2026-05-03T10:13:54.999Z</time></trkpt><trkpt lat="42.21748208583163" lon="13.923256123488322"><ele>312.6</ele><time>2026-05-03T10:13:55.999Z</time></trkpt><trkpt lat="42.217559489521754" lon="13.923311142865938"><ele>312.20000000000005</ele><time>2026-05-03T10:13:56.999Z</time></trkpt><trkpt lat="42.217645264619044" lon="13.923379296977009"><ele>311.8</ele><time>2026-05-03T10:13:57.999Z</time></trkpt><trkpt lat="42.21773898933648" lon="13.923450253762645"><ele>311.40000000000003</ele><time>2026-05-03T10:13:58.999Z</time></trkpt><trkpt lat="42.217841291512954" lon="13.923523409627586"><ele>311.0</ele><time>2026-05-03T10:13:59.999Z</time></trkpt><trkpt lat="42.217943533883215" lon="13.923587752904423"><ele>310.40000000000003</ele><time>2026-05-03T10:14:00.999Z</time></trkpt><trkpt lat="42.21804043004884" lon="13.923653133494813"><ele>309.8</ele><time>2026-05-03T10:14:01.999Z</time></trkpt><trkpt lat="42.218130422994065" lon="13.923731551056235"><ele>309.20000000000005</ele><time>2026-05-03T10:14:02.999Z</time></trkpt><trkpt lat="42.21821598672314" lon="13.92381981327614"><ele>308.6</ele><time>2026-05-03T10:14:03.999Z</time></trkpt><trkpt lat="42.218304642272024" lon="13.923907491283071"><ele>308.0</ele><time>2026-05-03T10:14:04.999Z</time></trkpt><trkpt lat="42.21840047932121" lon="13.923985937044964"><ele>308.0</ele><time>2026-05-03T10:14:05.999Z</time></trkpt><trkpt lat="42.21849809755918" lon="13.924066234348293"><ele>308.0</ele><time>2026-05-03T10:14:06.999Z</time></trkpt><trkpt lat="42.21859969778607" lon="13.924141697942828"><ele>308.0</ele><time>2026-05-03T10:14:07.999Z</time></trkpt><trkpt lat="42.21869064677652" lon="13.924209758611344"><ele>308.0</ele><time>2026-05-03T10:14:08.999Z</time></trkpt><trkpt lat="42.218766205535964" lon="13.924265808908475"><ele>308.0</ele><time>2026-05-03T10:14:09.999Z</time></trkpt><trkpt lat="42.21883677722419" lon="13.924304377185729"><ele>307.5</ele><time>2026-05-03T10:14:10.999Z</time></trkpt><trkpt lat="42.218908615133884" lon="13.924331391083664"><ele>307.0</ele><time>2026-05-03T10:14:11.999Z</time></trkpt><trkpt lat="42.21898325356683" lon="13.924366286168029"><ele>306.5</ele><time>2026-05-03T10:14:12.999Z</time></trkpt><trkpt lat="42.21907344764195" lon="13.924412020017368"><ele>306.0</ele><time>2026-05-03T10:14:13.999Z</time></trkpt><trkpt lat="42.219162167709044" lon="13.92445961650122"><ele>305.5</ele><time>2026-05-03T10:14:14.999Z</time></trkpt><trkpt lat="42.219232184031945" lon="13.924532926165297"><ele>305.0</ele><time>2026-05-03T10:14:15.999Z</time></trkpt><trkpt lat="42.21929903340465" lon="13.924599716085675"><ele>304.5</ele><time>2026-05-03T10:14:16.999Z</time></trkpt><trkpt lat="42.219364702325045" lon="13.92468567021749"><ele>304.0</ele><time>2026-05-03T10:14:17.999Z</time></trkpt><trkpt lat="42.21942611271354" lon="13.924768641786804"><ele>303.5</ele><time>2026-05-03T10:14:18.999Z</time></trkpt><trkpt lat="42.219485460773306" lon="13.924843830646541"><ele>303.0</ele><time>2026-05-03T10:14:19.999Z</time></trkpt><trkpt lat="42.21954455451915" lon="13.924902017275395"><ele>302.5</ele><time>2026-05-03T10:14:20.999Z</time></trkpt><trkpt lat="42.21959087592876" lon="13.924968273266963"><ele>302.0</ele><time>2026-05-03T10:14:21.999Z</time></trkpt><trkpt lat="42.21964907907644" lon="13.925044825539093"><ele>302.0</ele><time>2026-05-03T10:14:22.999Z</time></trkpt><trkpt lat="42.219752680096434" lon="13.92499580366166"><ele>302.0</ele><time>2026-05-03T10:14:23.999Z</time></trkpt><trkpt lat="42.2197655108439" lon="13.925209834315313"><ele>302.0</ele><time>2026-05-03T10:14:24.999Z</time></trkpt><trkpt lat="42.21981892593587" lon="13.925292125214494"><ele>302.0</ele><time>2026-05-03T10:14:25.999Z</time></trkpt><trkpt lat="42.219887170853724" lon="13.925371994825047"><ele>302.0</ele><time>2026-05-03T10:14:26.999Z</time></trkpt><trkpt lat="42.219963918413534" lon="13.925447541857412"><ele>301.33333333333337</ele><time>2026-05-03T10:14:27.999Z</time></trkpt><trkpt lat="42.220035969186135" lon="13.925516718687097"><ele>300.6666666666667</ele><time>2026-05-03T10:14:28.999Z</time></trkpt><trkpt lat="42.22010526385878" lon="13.925570566752059"><ele>300.0</ele><time>2026-05-03T10:14:29.999Z</time></trkpt><trkpt lat="42.22018432486156" lon="13.925605379084038"><ele>299.3333333333333</ele><time>2026-05-03T10:14:30.999Z</time></trkpt><trkpt lat="42.22027435771435" lon="13.925616495530951"><ele>298.66666666666663</ele><time>2026-05-03T10:14:31.999Z</time></trkpt><trkpt lat="42.2203673687401" lon="13.925622437944561"><ele>298.0</ele><time>2026-05-03T10:14:32.999Z</time></trkpt><trkpt lat="42.22045288310242" lon="13.925626593047452"><ele>298.0</ele><time>2026-05-03T10:14:33.999Z</time></trkpt><trkpt lat="42.22055984494399" lon="13.92564799995543"><ele>298.0</ele><time>2026-05-03T10:14:35.999Z</time></trkpt><trkpt lat="42.220630264930655" lon="13.92562833653241"><ele>298.0</ele><time>2026-05-03T10:14:41.999Z</time></trkpt><trkpt lat="42.22073160799345" lon="13.92557797102763"><ele>298.0</ele><time>2026-05-03T10:14:43.999Z</time></trkpt><trkpt lat="42.22083296235374" lon="13.925540788654295"><ele>298.0</ele><time>2026-05-03T10:14:45.999Z</time></trkpt><trkpt lat="42.220920366384824" lon="13.925529979444036"><ele>297.0</ele><time>2026-05-03T10:14:47.999Z</time></trkpt><trkpt lat="42.221017277264096" lon="13.925530059441888"><ele>296.0</ele><time>2026-05-03T10:14:49.999Z</time></trkpt><trkpt lat="42.221099832841276" lon="13.925539137255544"><ele>295.0</ele><time>2026-05-03T10:14:50.999Z</time></trkpt><trkpt lat="42.221169751603526" lon="13.925539828242412"><ele>294.0</ele><time>2026-05-03T10:14:51.999Z</time></trkpt><trkpt lat="42.221238370592616" lon="13.92554450519234"><ele>293.0</ele><time>2026-05-03T10:14:52.999Z</time></trkpt><trkpt lat="42.22131017830827" lon="13.925548621733745"><ele>292.0</ele><time>2026-05-03T10:14:53.999Z</time></trkpt><trkpt lat="42.2213843053069" lon="13.925549196514524"><ele>292.0</ele><time>2026-05-03T10:14:54.999Z</time></trkpt><trkpt lat="42.22145225187688" lon="13.925547855551638"><ele>292.0</ele><time>2026-05-03T10:14:55.999Z</time></trkpt><trkpt lat="42.22151619350657" lon="13.925551788286558"><ele>292.0</ele><time>2026-05-03T10:14:56.999Z</time></trkpt><trkpt lat="42.22158048585267" lon="13.92556468117262"><ele>292.0</ele><time>2026-05-03T10:14:57.999Z</time></trkpt><trkpt lat="42.22169725427308" lon="13.925584486875836"><ele>292.0</ele><time>2026-05-03T10:14:59.999Z</time></trkpt><trkpt lat="42.22176013488639" lon="13.925595726161557"><ele>292.0</ele><time>2026-05-03T10:15:00.999Z</time></trkpt><trkpt lat="42.22188360525752" lon="13.925616961590423"><ele>290.0</ele><time>2026-05-03T10:15:02.999Z</time></trkpt><trkpt lat="42.222009746212926" lon="13.92565495306596"><ele>288.0</ele><time>2026-05-03T10:15:04.999Z</time></trkpt><trkpt lat="42.22207418467785" lon="13.925680284414916"><ele>286.0</ele><time>2026-05-03T10:15:05.999Z</time></trkpt><trkpt lat="42.22215122160404" lon="13.925726691969656"><ele>284.0</ele><time>2026-05-03T10:15:07.999Z</time></trkpt><trkpt lat="42.22225100354776" lon="13.925763300498168"><ele>282.0</ele><time>2026-05-03T10:15:17.999Z</time></trkpt><trkpt lat="42.222360746604835" lon="13.925815870273851"><ele>279.2</ele><time>2026-05-03T10:15:19.999Z</time></trkpt><trkpt lat="42.222424315970756" lon="13.92584423561742"><ele>276.4</ele><time>2026-05-03T10:15:20.999Z</time></trkpt><trkpt lat="42.22253355197735" lon="13.92586566245462"><ele>273.6</ele><time>2026-05-03T10:15:22.999Z</time></trkpt><trkpt lat="42.222634141434064" lon="13.925838809014513"><ele>270.8</ele><time>2026-05-03T10:15:24.999Z</time></trkpt><trkpt lat="42.22273424198532" lon="13.925827393700342"><ele>268.0</ele><time>2026-05-03T10:15:26.999Z</time></trkpt><trkpt lat="42.22280859817914" lon="13.925829617235362"><ele>268.0</ele><time>2026-05-03T10:15:28.999Z</time></trkpt><trkpt lat="42.222870947657995" lon="13.925861978695858"><ele>268.0</ele><time>2026-05-03T10:15:30.999Z</time></trkpt><trkpt lat="42.22294106712997" lon="13.925899965058838"><ele>268.0</ele><time>2026-05-03T10:15:32.999Z</time></trkpt><trkpt lat="42.222944774119426" lon="13.926038114204216"><ele>268.0</ele><time>2026-05-03T10:15:35.999Z</time></trkpt><trkpt lat="42.22293385250306" lon="13.926142909133896"><ele>268.0</ele><time>2026-05-03T10:15:37.999Z</time></trkpt><trkpt lat="42.22288003699317" lon="13.926282259877615"><ele>268.0</ele><time>2026-05-03T10:15:39.999Z</time></trkpt><trkpt lat="42.22285525910979" lon="13.926363889497082"><ele>266.42857142857144</ele><time>2026-05-03T10:15:40.999Z</time></trkpt><trkpt lat="42.22283181591906" lon="13.926445194649423"><ele>264.85714285714283</ele><time>2026-05-03T10:15:41.999Z</time></trkpt><trkpt lat="42.22280602430417" lon="13.926536740167439"><ele>263.2857142857143</ele><time>2026-05-03T10:15:42.999Z</time></trkpt><trkpt lat="42.222775179027046" lon="13.926626599789842"><ele>261.7142857142857</ele><time>2026-05-03T10:15:43.999Z</time></trkpt><trkpt lat="42.22274192574878" lon="13.926713256581687"><ele>260.14285714285717</ele><time>2026-05-03T10:15:44.999Z</time></trkpt><trkpt lat="42.22271947286866" lon="13.926796097387285"><ele>258.57142857142856</ele><time>2026-05-03T10:15:45.999Z</time></trkpt><trkpt lat="42.22270314353644" lon="13.926880219910718"><ele>257.0</ele><time>2026-05-03T10:15:46.999Z</time></trkpt><trkpt lat="42.222665126749895" lon="13.927028665784766"><ele>255.33333333333334</ele><time>2026-05-03T10:15:48.997Z</time></trkpt><trkpt lat="42.222591211963774" lon="13.927139435084788"><ele>253.66666666666669</ele><time>2026-05-03T10:15:50.997Z</time></trkpt><trkpt lat="42.22254407087466" lon="13.927275090498899"><ele>252.0</ele><time>2026-05-03T10:15:52.997Z</time></trkpt><trkpt lat="42.22249995722035" lon="13.927346982297879"><ele>250.33333333333331</ele><time>2026-05-03T10:15:53.997Z</time></trkpt><trkpt lat="42.222471509643356" lon="13.927426902997201"><ele>248.66666666666666</ele><time>2026-05-03T10:15:54.997Z</time></trkpt><trkpt lat="42.22245391813165" lon="13.927513479419051"><ele>247.0</ele><time>2026-05-03T10:15:55.997Z</time></trkpt><trkpt lat="42.22242493866466" lon="13.927595438240022"><ele>247.66666666666666</ele><time>2026-05-03T10:15:56.997Z</time></trkpt><trkpt lat="42.222385198717326" lon="13.927683353667089"><ele>248.33333333333331</ele><time>2026-05-03T10:15:57.997Z</time></trkpt><trkpt lat="42.222352870392506" lon="13.927780712822706"><ele>249.0</ele><time>2026-05-03T10:15:58.997Z</time></trkpt><trkpt lat="42.222317722150805" lon="13.92788780484821"><ele>249.66666666666669</ele><time>2026-05-03T10:15:59.997Z</time></trkpt><trkpt lat="42.222286979805034" lon="13.927985468568385"><ele>250.33333333333334</ele><time>2026-05-03T10:16:00.997Z</time></trkpt><trkpt lat="42.22225637855839" lon="13.928082684097841"><ele>251.0</ele><time>2026-05-03T10:16:01.997Z</time></trkpt><trkpt lat="42.222226469034446" lon="13.928178362837222"><ele>251.00000000000003</ele><time>2026-05-03T10:16:02.998Z</time></trkpt><trkpt lat="42.22220974606849" lon="13.928287417953811"><ele>251.0</ele><time>2026-05-03T10:16:03.998Z</time></trkpt><trkpt lat="42.22217643803563" lon="13.928391158623242"><ele>251.0</ele><time>2026-05-03T10:16:04.998Z</time></trkpt><trkpt lat="42.22214905703177" lon="13.928477142997812"><ele>251.0</ele><time>2026-05-03T10:16:05.998Z</time></trkpt><trkpt lat="42.22210491601197" lon="13.92857755652433"><ele>251.00000000000003</ele><time>2026-05-03T10:16:06.998Z</time></trkpt><trkpt lat="42.22204907533582" lon="13.928689387526774"><ele>251.0</ele><time>2026-05-03T10:16:07.998Z</time></trkpt><trkpt lat="42.22198260215278" lon="13.928828490955803"><ele>250.0</ele><time>2026-05-03T10:16:08.998Z</time></trkpt><trkpt lat="42.22192414429521" lon="13.928954293670772"><ele>249.0</ele><time>2026-05-03T10:16:09.998Z</time></trkpt><trkpt lat="42.2218595643002" lon="13.929082762015817"><ele>248.0</ele><time>2026-05-03T10:16:10.998Z</time></trkpt><trkpt lat="42.221798618259456" lon="13.929234264745636"><ele>247.0</ele><time>2026-05-03T10:16:11.998Z</time></trkpt><trkpt lat="42.221732417316574" lon="13.92941002600553"><ele>246.33333333333331</ele><time>2026-05-03T10:16:12.998Z</time></trkpt><trkpt lat="42.22166327897305" lon="13.92959327380593"><ele>245.66666666666669</ele><time>2026-05-03T10:16:13.998Z</time></trkpt><trkpt lat="42.22157576281058" lon="13.929759172974803"><ele>245.0</ele><time>2026-05-03T10:16:14.998Z</time></trkpt><trkpt lat="42.22150101090194" lon="13.929933369274933"><ele>249.25</ele><time>2026-05-03T10:16:15.998Z</time></trkpt><trkpt lat="42.22143618961985" lon="13.930108908654615"><ele>253.5</ele><time>2026-05-03T10:16:16.998Z</time></trkpt><trkpt lat="42.22134852557177" lon="13.930262272419617"><ele>257.75</ele><time>2026-05-03T10:16:17.998Z</time></trkpt><trkpt lat="42.22126108534146" lon="13.930426762221808"><ele>262.0</ele><time>2026-05-03T10:16:18.998Z</time></trkpt><trkpt lat="42.22116273586811" lon="13.930568928560332"><ele>262.0</ele><time>2026-05-03T10:16:19.998Z</time></trkpt><trkpt lat="42.22105668042257" lon="13.930671636130535"><ele>262.0</ele><time>2026-05-03T10:16:20.998Z</time></trkpt><trkpt lat="42.22094560866281" lon="13.93075996651579"><ele>262.0</ele><time>2026-05-03T10:16:21.998Z</time></trkpt><trkpt lat="42.22083636498442" lon="13.930827650850715"><ele>262.0</ele><time>2026-05-03T10:16:22.998Z</time></trkpt><trkpt lat="42.220740148375455" lon="13.930866091073794"><ele>262.0</ele><time>2026-05-03T10:16:23.998Z</time></trkpt><trkpt lat="42.22066691876071" lon="13.930871506249051"><ele>262.0</ele><time>2026-05-03T10:16:24.998Z</time></trkpt><trkpt lat="42.2205573317951" lon="13.930899212999236"><ele>262.0</ele><time>2026-05-03T10:16:26.998Z</time></trkpt><trkpt lat="42.22052236286282" lon="13.931005932532498"><ele>262.0</ele><time>2026-05-03T10:16:28.998Z</time></trkpt><trkpt lat="42.22057939304361" lon="13.931165101219047"><ele>262.0</ele><time>2026-05-03T10:16:30.999Z</time></trkpt><trkpt lat="42.22061200500277" lon="13.931264436771233"><ele>261.0</ele><time>2026-05-03T10:16:31.999Z</time></trkpt><trkpt lat="42.22063795545993" lon="13.931390228807528"><ele>260.0</ele><time>2026-05-03T10:16:32.999Z</time></trkpt><trkpt lat="42.22066921884484" lon="13.931529814323522"><ele>259.0</ele><time>2026-05-03T10:16:33.999Z</time></trkpt><trkpt lat="42.2206995630681" lon="13.931672451682989"><ele>258.0</ele><time>2026-05-03T10:16:34.999Z</time></trkpt><trkpt lat="42.22073006562063" lon="13.931815293990713"><ele>257.0</ele><time>2026-05-03T10:16:35.999Z</time></trkpt><trkpt lat="42.22076185529121" lon="13.931950137378042"><ele>255.39999999999998</ele><time>2026-05-03T10:16:36.999Z</time></trkpt><trkpt lat="42.22079390667636" lon="13.932086070493488"><ele>253.79999999999998</ele><time>2026-05-03T10:16:37.999Z</time></trkpt><trkpt lat="42.22082738914935" lon="13.932215500948136"><ele>252.2</ele><time>2026-05-03T10:16:38.999Z</time></trkpt><trkpt lat="42.220867721458646" lon="13.93234089938835"><ele>250.6</ele><time>2026-05-03T10:16:39.999Z</time></trkpt><trkpt lat="42.22091571050431" lon="13.932458322111778"><ele>249.0</ele><time>2026-05-03T10:16:40.999Z</time></trkpt><trkpt lat="42.220977124253615" lon="13.9325628943704"><ele>247.2</ele><time>2026-05-03T10:16:41.999Z</time></trkpt><trkpt lat="42.22104959369876" lon="13.932659000850524"><ele>245.39999999999998</ele><time>2026-05-03T10:16:42.999Z</time></trkpt><trkpt lat="42.22113368385896" lon="13.932762133198183"><ele>243.6</ele><time>2026-05-03T10:16:43.999Z</time></trkpt><trkpt lat="42.221216346886315" lon="13.932862699305172"><ele>241.8</ele><time>2026-05-03T10:16:44.999Z</time></trkpt><trkpt lat="42.22129826877538" lon="13.932965193513525"><ele>240.0</ele><time>2026-05-03T10:16:45.999Z</time></trkpt><trkpt lat="42.22137882411802" lon="13.933072667572299"><ele>240.0</ele><time>2026-05-03T10:16:46.999Z</time></trkpt><trkpt lat="42.221458758202424" lon="13.933192553066583"><ele>240.0</ele><time>2026-05-03T10:16:47.999Z</time></trkpt><trkpt lat="42.221537688905535" lon="13.933323535160007"><ele>240.0</ele><time>2026-05-03T10:16:48.999Z</time></trkpt><trkpt lat="42.221616033955335" lon="13.933456843088216"><ele>240.0</ele><time>2026-05-03T10:16:49.999Z</time></trkpt><trkpt lat="42.22168848717251" lon="13.93358145837629"><ele>237.6</ele><time>2026-05-03T10:16:50.999Z</time></trkpt><trkpt lat="42.22176163001107" lon="13.93368287964485"><ele>235.2</ele><time>2026-05-03T10:16:51.999Z</time></trkpt><trkpt lat="42.22184549851915" lon="13.933755061744241"><ele>232.8</ele><time>2026-05-03T10:16:52.999Z</time></trkpt><trkpt lat="42.221943454700515" lon="13.93379255541719"><ele>230.4</ele><time>2026-05-03T10:16:53.999Z</time></trkpt><trkpt lat="42.22204569143549" lon="13.933805970454001"><ele>228.0</ele><time>2026-05-03T10:16:54.999Z</time></trkpt><trkpt lat="42.2221395696871" lon="13.933817044738687"><ele>228.0</ele><time>2026-05-03T10:16:55.999Z</time></trkpt><trkpt lat="42.222216429659305" lon="13.933861176654434"><ele>228.0</ele><time>2026-05-03T10:16:56.999Z</time></trkpt><trkpt lat="42.222271073988324" lon="13.933947368732406"><ele>228.0</ele><time>2026-05-03T10:16:57.999Z</time></trkpt><trkpt lat="42.22229942326837" lon="13.93405565477591"><ele>228.0</ele><time>2026-05-03T10:16:58.999Z</time></trkpt><trkpt lat="42.222314320335926" lon="13.934191446353347"><ele>228.0</ele><time>2026-05-03T10:16:59.999Z</time></trkpt><trkpt lat="42.22232430576594" lon="13.934347268308752"><ele>225.2</ele><time>2026-05-03T10:17:00.999Z</time></trkpt><trkpt lat="42.22233976167822" lon="13.934515107487163"><ele>222.4</ele><time>2026-05-03T10:17:01.999Z</time></trkpt><trkpt lat="42.22235703138233" lon="13.9346702431411"><ele>219.59999999999997</ele><time>2026-05-03T10:17:02.999Z</time></trkpt><trkpt lat="42.22237606820421" lon="13.934793867028478"><ele>216.79999999999998</ele><time>2026-05-03T10:17:03.999Z</time></trkpt><trkpt lat="42.22241460562501" lon="13.934895064159427"><ele>214.0</ele><time>2026-05-03T10:17:04.999Z</time></trkpt><trkpt lat="42.22248136862808" lon="13.93496970874405"><ele>214.0</ele><time>2026-05-03T10:17:05.999Z</time></trkpt><trkpt lat="42.22257385431876" lon="13.935022082445375"><ele>214.0</ele><time>2026-05-03T10:17:06.999Z</time></trkpt><trkpt lat="42.22268537341617" lon="13.935066007291963"><ele>214.0</ele><time>2026-05-03T10:17:07.999Z</time></trkpt><trkpt lat="42.22279981731465" lon="13.935106525952053"><ele>214.0</ele><time>2026-05-03T10:17:08.999Z</time></trkpt><trkpt lat="42.22291342027604" lon="13.935153723425266"><ele>212.5</ele><time>2026-05-03T10:17:09.999Z</time></trkpt><trkpt lat="42.22302400037069" lon="13.93521852898104"><ele>211.0</ele><time>2026-05-03T10:17:10.999Z</time></trkpt><trkpt lat="42.22311007536793" lon="13.93533478993226"><ele>209.5</ele><time>2026-05-03T10:17:11.999Z</time></trkpt><trkpt lat="42.223205555206064" lon="13.93544490368055"><ele>208.0</ele><time>2026-05-03T10:17:12.999Z</time></trkpt><trkpt lat="42.223297200464316" lon="13.93557007491629"><ele>207.0</ele><time>2026-05-03T10:17:13.999Z</time></trkpt><trkpt lat="42.22339417094286" lon="13.935693076187157"><ele>206.0</ele><time>2026-05-03T10:17:14.999Z</time></trkpt><trkpt lat="42.22346302462824" lon="13.935830736727572"><ele>205.0</ele><time>2026-05-03T10:17:15.999Z</time></trkpt><trkpt lat="42.223494766536696" lon="13.935972128931489"><ele>204.0</ele><time>2026-05-03T10:17:16.999Z</time></trkpt><trkpt lat="42.223550492442286" lon="13.936090279012557"><ele>203.66666666666666</ele><time>2026-05-03T10:17:17.999Z</time></trkpt><trkpt lat="42.223593981766456" lon="13.936207032279132"><ele>203.33333333333331</ele><time>2026-05-03T10:17:18.999Z</time></trkpt><trkpt lat="42.22365207746928" lon="13.936298846235323"><ele>203.0</ele><time>2026-05-03T10:17:19.999Z</time></trkpt><trkpt lat="42.22372200446734" lon="13.936366049561197"><ele>202.66666666666666</ele><time>2026-05-03T10:17:20.999Z</time></trkpt><trkpt lat="42.223801895848396" lon="13.93640097427434"><ele>202.33333333333331</ele><time>2026-05-03T10:17:21.999Z</time></trkpt><trkpt lat="42.22388915298266" lon="13.936398844276752"><ele>202.0</ele><time>2026-05-03T10:17:22.999Z</time></trkpt><trkpt lat="42.22398018534308" lon="13.936383098241985"><ele>201.2</ele><time>2026-05-03T10:17:23.999Z</time></trkpt><trkpt lat="42.22406474438557" lon="13.936399580681275"><ele>200.39999999999998</ele><time>2026-05-03T10:17:24.999Z</time></trkpt><trkpt lat="42.224137724212454" lon="13.93650848104648"><ele>199.60000000000002</ele><time>2026-05-03T10:17:25.999Z</time></trkpt><trkpt lat="42.224242019552534" lon="13.936573622058027"><ele>198.8</ele><time>2026-05-03T10:17:26.999Z</time></trkpt><trkpt lat="42.224360890034454" lon="13.936609488533655"><ele>198.0</ele><time>2026-05-03T10:17:27.999Z</time></trkpt><trkpt lat="42.224486218249574" lon="13.93665305363992"><ele>198.0</ele><time>2026-05-03T10:17:28.999Z</time></trkpt><trkpt lat="42.224617775890984" lon="13.936688239874911"><ele>198.0</ele><time>2026-05-03T10:17:29.999Z</time></trkpt><trkpt lat="42.22474878284987" lon="13.936725881161664"><ele>198.0</ele><time>2026-05-03T10:17:30.999Z</time></trkpt><trkpt lat="42.22487492967228" lon="13.936772037067348"><ele>198.0</ele><time>2026-05-03T10:17:31.999Z</time></trkpt><trkpt lat="42.224996283417795" lon="13.93680636898619"><ele>197.60000000000002</ele><time>2026-05-03T10:17:32.999Z</time></trkpt><trkpt lat="42.225112741598195" lon="13.936843784976759"><ele>197.20000000000002</ele><time>2026-05-03T10:17:33.999Z</time></trkpt><trkpt lat="42.22522327159779" lon="13.936879802974893"><ele>196.8</ele><time>2026-05-03T10:17:34.999Z</time></trkpt><trkpt lat="42.22532158173435" lon="13.936920151376913"><ele>196.4</ele><time>2026-05-03T10:17:35.999Z</time></trkpt><trkpt lat="42.225409696368104" lon="13.936959591238269"><ele>196.0</ele><time>2026-05-03T10:17:36.999Z</time></trkpt><trkpt lat="42.2254925421556" lon="13.93699620365875"><ele>195.99999999999997</ele><time>2026-05-03T10:17:37.999Z</time></trkpt><trkpt lat="42.22555460586829" lon="13.937042685388125"><ele>196.0</ele><time>2026-05-03T10:17:38.999Z</time></trkpt><trkpt lat="42.22561108772229" lon="13.93710346344476"><ele>196.0</ele><time>2026-05-03T10:17:39.999Z</time></trkpt><trkpt lat="42.22565629203899" lon="13.937182194669948"><ele>196.0</ele><time>2026-05-03T10:17:40.999Z</time></trkpt><trkpt lat="42.22569341422986" lon="13.937254500443235"><ele>195.99999999999997</ele><time>2026-05-03T10:17:41.999Z</time></trkpt><trkpt lat="42.22574101903381" lon="13.937413414465379"><ele>196.0</ele><time>2026-05-03T10:17:43.999Z</time></trkpt><trkpt lat="42.22578767771813" lon="13.937489790143905"><ele>195.75</ele><time>2026-05-03T10:17:44.999Z</time></trkpt><trkpt lat="42.225740371947445" lon="13.937658780341353"><ele>195.5</ele><time>2026-05-03T10:17:45.999Z</time></trkpt><trkpt lat="42.22573597469269" lon="13.93781524377539"><ele>195.25</ele><time>2026-05-03T10:17:46.999Z</time></trkpt><trkpt lat="42.22573315874275" lon="13.93798625109119"><ele>195.0</ele><time>2026-05-03T10:17:47.999Z</time></trkpt><trkpt lat="42.22573383360019" lon="13.938172098906021"><ele>195.0</ele><time>2026-05-03T10:17:48.999Z</time></trkpt><trkpt lat="42.2257317404314" lon="13.938370569706304"><ele>195.0</ele><time>2026-05-03T10:17:49.999Z</time></trkpt><trkpt lat="42.22572875849378" lon="13.938586265292152"><ele>195.0</ele><time>2026-05-03T10:17:50.999Z</time></trkpt><trkpt lat="42.225723686678315" lon="13.938808020138513"><ele>195.0</ele><time>2026-05-03T10:17:51.999Z</time></trkpt><trkpt lat="42.22571587502137" lon="13.9390297449484"><ele>195.0</ele><time>2026-05-03T10:17:52.999Z</time></trkpt><trkpt lat="42.22570884944408" lon="13.939261600603627"><ele>195.0</ele><time>2026-05-03T10:17:53.999Z</time></trkpt><trkpt lat="42.225702368408285" lon="13.939504113054223"><ele>195.0</ele><time>2026-05-03T10:17:54.998Z</time></trkpt><trkpt lat="42.22569521155761" lon="13.939752145016362"><ele>195.0</ele><time>2026-05-03T10:17:55.998Z</time></trkpt><trkpt lat="42.225690240365" lon="13.940001696754486"><ele>195.0</ele><time>2026-05-03T10:17:56.998Z</time></trkpt><trkpt lat="42.22568869496601" lon="13.940245009498666"><ele>194.66666666666669</ele><time>2026-05-03T10:17:57.998Z</time></trkpt><trkpt lat="42.22569556888305" lon="13.940497214826419"><ele>194.33333333333334</ele><time>2026-05-03T10:17:58.998Z</time></trkpt><trkpt lat="42.22572261653521" lon="13.940749781285952"><ele>194.0</ele><time>2026-05-03T10:17:59.998Z</time></trkpt><trkpt lat="42.2257716840029" lon="13.941001393523523"><ele>193.66666666666669</ele><time>2026-05-03T10:18:00.998Z</time></trkpt><trkpt lat="42.22583499501964" lon="13.94125223262052"><ele>193.33333333333331</ele><time>2026-05-03T10:18:01.998Z</time></trkpt><trkpt lat="42.22590532495397" lon="13.941504651625138"><ele>193.0</ele><time>2026-05-03T10:18:02.998Z</time></trkpt><trkpt lat="42.225977660151486" lon="13.941759756338023"><ele>193.0</ele><time>2026-05-03T10:18:03.998Z</time></trkpt><trkpt lat="42.226048947791696" lon="13.942014332414082"><ele>193.0</ele><time>2026-05-03T10:18:04.998Z</time></trkpt><trkpt lat="42.22612000717539" lon="13.942267632686589"><ele>193.0</ele><time>2026-05-03T10:18:05.998Z</time></trkpt><trkpt lat="42.2261915974659" lon="13.942522502050812"><ele>193.0</ele><time>2026-05-03T10:18:06.998Z</time></trkpt><trkpt lat="42.22626374366217" lon="13.94277652065017"><ele>193.0</ele><time>2026-05-03T10:18:07.998Z</time></trkpt><trkpt lat="42.226336084214495" lon="13.943028257894255"><ele>193.0</ele><time>2026-05-03T10:18:08.998Z</time></trkpt><trkpt lat="42.226407973556384" lon="13.943277309336802"><ele>194.0</ele><time>2026-05-03T10:18:09.998Z</time></trkpt><trkpt lat="42.22647884743821" lon="13.943523827169578"><ele>195.0</ele><time>2026-05-03T10:18:10.998Z</time></trkpt><trkpt lat="42.226551438770095" lon="13.94377216864905"><ele>196.0</ele><time>2026-05-03T10:18:11.998Z</time></trkpt><trkpt lat="42.226625713131334" lon="13.944028138663489"><ele>196.66666666666666</ele><time>2026-05-03T10:18:12.998Z</time></trkpt><trkpt lat="42.22669969217658" lon="13.9442858078256"><ele>197.33333333333331</ele><time>2026-05-03T10:18:13.998Z</time></trkpt><trkpt lat="42.226776089895104" lon="13.944546786151857"><ele>198.0</ele><time>2026-05-03T10:18:14.999Z</time></trkpt><trkpt lat="42.2268524499717" lon="13.944809433925982"><ele>198.0</ele><time>2026-05-03T10:18:15.999Z</time></trkpt><trkpt lat="42.22692907526412" lon="13.945073422236646"><ele>198.0</ele><time>2026-05-03T10:18:16.999Z</time></trkpt><trkpt lat="42.227005301803324" lon="13.945337939889948"><ele>198.0</ele><time>2026-05-03T10:18:17.999Z</time></trkpt><trkpt lat="42.22707986538832" lon="13.945604760054128"><ele>198.0</ele><time>2026-05-03T10:18:18.999Z</time></trkpt><trkpt lat="42.22715499058245" lon="13.945869368042569"><ele>198.0</ele><time>2026-05-03T10:18:19.999Z</time></trkpt><trkpt lat="42.22723221969456" lon="13.946132046655176"><ele>198.0</ele><time>2026-05-03T10:18:20.999Z</time></trkpt><trkpt lat="42.227309826092274" lon="13.946393023285951"><ele>199.0</ele><time>2026-05-03T10:18:21.999Z</time></trkpt><trkpt lat="42.22738581679607" lon="13.94665489582884"><ele>200.0</ele><time>2026-05-03T10:18:22.999Z</time></trkpt><trkpt lat="42.22745935414202" lon="13.946915074884346"><ele>201.0</ele><time>2026-05-03T10:18:23.999Z</time></trkpt><trkpt lat="42.227535388474905" lon="13.947172217102866"><ele>202.0</ele><time>2026-05-03T10:18:24.999Z</time></trkpt><trkpt lat="42.22761029553042" lon="13.947421240233716"><ele>203.0</ele><time>2026-05-03T10:18:25.999Z</time></trkpt><trkpt lat="42.22768279342466" lon="13.947667069769308"><ele>204.0</ele><time>2026-05-03T10:18:26.999Z</time></trkpt><trkpt lat="42.227749539880605" lon="13.947894238747612"><ele>205.0</ele><time>2026-05-03T10:18:27.999Z</time></trkpt><trkpt lat="42.22782368222054" lon="13.948094862096466"><ele>206.0</ele><time>2026-05-03T10:18:28.999Z</time></trkpt><trkpt lat="42.22792281787749" lon="13.948260118710627"><ele>207.0</ele><time>2026-05-03T10:18:29.999Z</time></trkpt><trkpt lat="42.22804512401888" lon="13.948405197570416"><ele>208.0</ele><time>2026-05-03T10:18:30.999Z</time></trkpt><trkpt lat="42.22817928411858" lon="13.948538730854544"><ele>209.0</ele><time>2026-05-03T10:18:31.999Z</time></trkpt><trkpt lat="42.22832492242111" lon="13.948669676698387"><ele>210.0</ele><time>2026-05-03T10:18:32.999Z</time></trkpt><trkpt lat="42.22847804510125" lon="13.948810928526946"><ele>210.0</ele><time>2026-05-03T10:18:33.999Z</time></trkpt><trkpt lat="42.22863872182889" lon="13.94896037054811"><ele>210.0</ele><time>2026-05-03T10:18:34.999Z</time></trkpt><trkpt lat="42.22880309652058" lon="13.949115399681624"><ele>210.0</ele><time>2026-05-03T10:18:35.999Z</time></trkpt><trkpt lat="42.22897154738283" lon="13.949275569632352"><ele>213.33333333333331</ele><time>2026-05-03T10:18:36.999Z</time></trkpt><trkpt lat="42.229139542253584" lon="13.949436866916493"><ele>216.66666666666666</ele><time>2026-05-03T10:18:37.999Z</time></trkpt><trkpt lat="42.229304151034" lon="13.949594079176105"><ele>220.0</ele><time>2026-05-03T10:18:38.999Z</time></trkpt><trkpt lat="42.22946295102983" lon="13.949741339729618"><ele>220.0</ele><time>2026-05-03T10:18:39.999Z</time></trkpt><trkpt lat="42.22961546393114" lon="13.949876372982947"><ele>220.0</ele><time>2026-05-03T10:18:40.999Z</time></trkpt><trkpt lat="42.229767641418675" lon="13.949992788071102"><ele>220.0</ele><time>2026-05-03T10:18:41.999Z</time></trkpt><trkpt lat="42.22992534337968" lon="13.95006374289192"><ele>223.0</ele><time>2026-05-03T10:18:42.999Z</time></trkpt><trkpt lat="42.23009089882081" lon="13.950097306883045"><ele>226.0</ele><time>2026-05-03T10:18:43.999Z</time></trkpt><trkpt lat="42.230266006816045" lon="13.950127655143476"><ele>229.0</ele><time>2026-05-03T10:18:44.999Z</time></trkpt><trkpt lat="42.230443284166704" lon="13.950159381237883"><ele>229.0</ele><time>2026-05-03T10:18:45.999Z</time></trkpt><trkpt lat="42.2306243391529" lon="13.950194794662917"><ele>229.0</ele><time>2026-05-03T10:18:46.999Z</time></trkpt><trkpt lat="42.23080814704075" lon="13.950232214608416"><ele>229.0</ele><time>2026-05-03T10:18:47.999Z</time></trkpt><trkpt lat="42.230995624816686" lon="13.950268702893942"><ele>233.0</ele><time>2026-05-03T10:18:48.999Z</time></trkpt><trkpt lat="42.231186183787294" lon="13.95031307218951"><ele>237.0</ele><time>2026-05-03T10:18:49.999Z</time></trkpt><trkpt lat="42.23137877091888" lon="13.950368974609153"><ele>241.0</ele><time>2026-05-03T10:18:50.999Z</time></trkpt><trkpt lat="42.23157158725843" lon="13.950430345785273"><ele>242.0</ele><time>2026-05-03T10:18:51.999Z</time></trkpt><trkpt lat="42.23176552117148" lon="13.950496494841252"><ele>243.0</ele><time>2026-05-03T10:18:52.999Z</time></trkpt><trkpt lat="42.23196159431467" lon="13.950563941937434"><ele>244.0</ele><time>2026-05-03T10:18:53.999Z</time></trkpt><trkpt lat="42.232152715082435" lon="13.950623696092796"><ele>244.33333333333331</ele><time>2026-05-03T10:18:54.999Z</time></trkpt><trkpt lat="42.23233644259029" lon="13.95067794564649"><ele>244.66666666666669</ele><time>2026-05-03T10:18:55.999Z</time></trkpt><trkpt lat="42.232509099197685" lon="13.950731224708194"><ele>245.0</ele><time>2026-05-03T10:18:56.999Z</time></trkpt><trkpt lat="42.232678825008335" lon="13.950786026531407"><ele>245.0</ele><time>2026-05-03T10:18:57.999Z</time></trkpt><trkpt lat="42.2328467167034" lon="13.950836431495398"><ele>245.0</ele><time>2026-05-03T10:18:58.999Z</time></trkpt><trkpt lat="42.23300967609792" lon="13.950885348962487"><ele>245.0</ele><time>2026-05-03T10:18:59.999Z</time></trkpt><trkpt lat="42.23316834275021" lon="13.950936302390543"><ele>244.0</ele><time>2026-05-03T10:19:00.999Z</time></trkpt><trkpt lat="42.23333218624379" lon="13.950988032096312"><ele>243.0</ele><time>2026-05-03T10:19:01.999Z</time></trkpt><trkpt lat="42.23350158916885" lon="13.951038175222031"><ele>242.0</ele><time>2026-05-03T10:19:02.999Z</time></trkpt><trkpt lat="42.23367207644511" lon="13.951092461230107"><ele>242.0</ele><time>2026-05-03T10:19:03.999Z</time></trkpt><trkpt lat="42.23384554754155" lon="13.951150638499167"><ele>242.0</ele><time>2026-05-03T10:19:04.999Z</time></trkpt><trkpt lat="42.234022921507226" lon="13.951205990524828"><ele>242.0</ele><time>2026-05-03T10:19:05.999Z</time></trkpt><trkpt lat="42.234202323652255" lon="13.951259837632387"><ele>239.0</ele><time>2026-05-03T10:19:06.999Z</time></trkpt><trkpt lat="42.234385882774326" lon="13.951316200115825"><ele>236.0</ele><time>2026-05-03T10:19:07.999Z</time></trkpt><trkpt lat="42.234564108528836" lon="13.951375728159274"><ele>233.0</ele><time>2026-05-03T10:19:08.999Z</time></trkpt><trkpt lat="42.23473658676979" lon="13.951436414908558"><ele>231.0</ele><time>2026-05-03T10:19:09.999Z</time></trkpt><trkpt lat="42.23490437950517" lon="13.951489660884251"><ele>229.0</ele><time>2026-05-03T10:19:10.999Z</time></trkpt><trkpt lat="42.2350676273608" lon="13.95153826611905"><ele>227.0</ele><time>2026-05-03T10:19:11.999Z</time></trkpt><trkpt lat="42.23522593752944" lon="13.95159148157822"><ele>227.0</ele><time>2026-05-03T10:19:13Z</time></trkpt><trkpt lat="42.23537940492811" lon="13.951657231479901"><ele>227.0</ele><time>2026-05-03T10:19:14Z</time></trkpt><trkpt lat="42.23552295305374" lon="13.951747901266847"><ele>227.0</ele><time>2026-05-03T10:19:15Z</time></trkpt><trkpt lat="42.2356620389283" lon="13.951858831139486"><ele>225.66666666666669</ele><time>2026-05-03T10:19:16Z</time></trkpt><trkpt lat="42.235785364639796" lon="13.952010257510933"><ele>224.33333333333331</ele><time>2026-05-03T10:19:17Z</time></trkpt><trkpt lat="42.23590732792729" lon="13.952177791689"><ele>223.0</ele><time>2026-05-03T10:19:18Z</time></trkpt><trkpt lat="42.236032262674584" lon="13.95234818986941"><ele>223.0</ele><time>2026-05-03T10:19:19Z</time></trkpt><trkpt lat="42.23615320999993" lon="13.952500205850654"><ele>223.0</ele><time>2026-05-03T10:19:20Z</time></trkpt><trkpt lat="42.23627507314025" lon="13.952633624944873"><ele>223.0</ele><time>2026-05-03T10:19:21Z</time></trkpt><trkpt lat="42.236414452690575" lon="13.952733160938044"><ele>224.66666666666666</ele><time>2026-05-03T10:19:22Z</time></trkpt><trkpt lat="42.236573658184504" lon="13.952800231769498"><ele>226.33333333333331</ele><time>2026-05-03T10:19:23Z</time></trkpt><trkpt lat="42.23674212164232" lon="13.9528474088862"><ele>228.0</ele><time>2026-05-03T10:19:24Z</time></trkpt><trkpt lat="42.23691525892334" lon="13.95289942154374"><ele>228.0</ele><time>2026-05-03T10:19:25Z</time></trkpt><trkpt lat="42.2370920450909" lon="13.952953910153559"><ele>228.0</ele><time>2026-05-03T10:19:26Z</time></trkpt><trkpt lat="42.237270945600194" lon="13.953009735097394"><ele>228.0</ele><time>2026-05-03T10:19:27Z</time></trkpt><trkpt lat="42.23744952281564" lon="13.953064664772322"><ele>224.33333333333331</ele><time>2026-05-03T10:19:28Z</time></trkpt><trkpt lat="42.23762704213292" lon="13.953121278215468"><ele>220.66666666666666</ele><time>2026-05-03T10:19:29Z</time></trkpt><trkpt lat="42.23779823644239" lon="13.953177383240881"><ele>217.0</ele><time>2026-05-03T10:19:30Z</time></trkpt><trkpt lat="42.237961217197245" lon="13.95322961301603"><ele>217.0</ele><time>2026-05-03T10:19:31Z</time></trkpt><trkpt lat="42.23811486066978" lon="13.953278729993615"><ele>217.0</ele><time>2026-05-03T10:19:32Z</time></trkpt><trkpt lat="42.23826281063772" lon="13.953325015607245"><ele>217.0</ele><time>2026-05-03T10:19:33Z</time></trkpt><trkpt lat="42.23840493823613" lon="13.953365230559214"><ele>217.25</ele><time>2026-05-03T10:19:34Z</time></trkpt><trkpt lat="42.238544703990215" lon="13.95338163570665"><ele>217.5</ele><time>2026-05-03T10:19:35Z</time></trkpt><trkpt lat="42.238689156797626" lon="13.95336936775595"><ele>217.75</ele><time>2026-05-03T10:19:36Z</time></trkpt><trkpt lat="42.23882902782328" lon="13.953325465625555"><ele>218.0</ele><time>2026-05-03T10:19:37Z</time></trkpt><trkpt lat="42.23895740056419" lon="13.953250468866026"><ele>217.25</ele><time>2026-05-03T10:19:38Z</time></trkpt><trkpt lat="42.23907608585943" lon="13.953147172627535"><ele>216.5</ele><time>2026-05-03T10:19:39.001Z</time></trkpt><trkpt lat="42.239178349887915" lon="13.953016125045203"><ele>215.75</ele><time>2026-05-03T10:19:40.001Z</time></trkpt><trkpt lat="42.23926699179968" lon="13.952856875053834"><ele>215.0</ele><time>2026-05-03T10:19:41.001Z</time></trkpt><trkpt lat="42.23933623557769" lon="13.952681520532817"><ele>213.0</ele><time>2026-05-03T10:19:42.001Z</time></trkpt><trkpt lat="42.239387085093824" lon="13.95248541269901"><ele>211.0</ele><time>2026-05-03T10:19:43.001Z</time></trkpt><trkpt lat="42.23942048837104" lon="13.952282305907342"><ele>209.0</ele><time>2026-05-03T10:19:44.001Z</time></trkpt><trkpt lat="42.23943947209654" lon="13.95206973571075"><ele>209.0</ele><time>2026-05-03T10:19:45.001Z</time></trkpt><trkpt lat="42.23946130493165" lon="13.951860228437704"><ele>209.0</ele><time>2026-05-03T10:19:46.001Z</time></trkpt><trkpt lat="42.23948722170515" lon="13.951666102679345"><ele>209.0</ele><time>2026-05-03T10:19:47.001Z</time></trkpt><trkpt lat="42.23951332493629" lon="13.951482073563925"><ele>209.0</ele><time>2026-05-03T10:19:48.001Z</time></trkpt><trkpt lat="42.23953403526542" lon="13.951316376891064"><ele>207.25</ele><time>2026-05-03T10:19:49.001Z</time></trkpt><trkpt lat="42.23956809216187" lon="13.951171173579876"><ele>205.5</ele><time>2026-05-03T10:19:50.001Z</time></trkpt><trkpt lat="42.23963149687827" lon="13.951046817777572"><ele>203.75</ele><time>2026-05-03T10:19:51.001Z</time></trkpt><trkpt lat="42.2397269188311" lon="13.95093894485574"><ele>202.0</ele><time>2026-05-03T10:19:52.001Z</time></trkpt><trkpt lat="42.239846707669074" lon="13.950852386177989"><ele>200.0</ele><time>2026-05-03T10:19:53.001Z</time></trkpt><trkpt lat="42.239984046713026" lon="13.950791996490256"><ele>198.0</ele><time>2026-05-03T10:19:54.001Z</time></trkpt><trkpt lat="42.24013432804827" lon="13.950757584192885"><ele>196.0</ele><time>2026-05-03T10:19:55.001Z</time></trkpt><trkpt lat="42.240293511074725" lon="13.950741593824272"><ele>196.0</ele><time>2026-05-03T10:19:56.001Z</time></trkpt><trkpt lat="42.24046022609086" lon="13.950744364178558"><ele>196.0</ele><time>2026-05-03T10:19:57.001Z</time></trkpt><trkpt lat="42.24063333884649" lon="13.950775682786853"><ele>196.0</ele><time>2026-05-03T10:19:58.001Z</time></trkpt><trkpt lat="42.240810944549146" lon="13.950832154772744"><ele>197.66666666666666</ele><time>2026-05-03T10:19:59.001Z</time></trkpt><trkpt lat="42.24099304184927" lon="13.950895330407642"><ele>199.33333333333331</ele><time>2026-05-03T10:20:00.001Z</time></trkpt><trkpt lat="42.24117982710152" lon="13.950955672321784"><ele>201.0</ele><time>2026-05-03T10:20:01Z</time></trkpt><trkpt lat="42.24136351586527" lon="13.951011386339426"><ele>198.0</ele><time>2026-05-03T10:20:02Z</time></trkpt><trkpt lat="42.24154532904145" lon="13.951069097860165"><ele>195.0</ele><time>2026-05-03T10:20:03Z</time></trkpt><trkpt lat="42.2417250154217" lon="13.951124203793691"><ele>192.0</ele><time>2026-05-03T10:20:04Z</time></trkpt><trkpt lat="42.241903423401816" lon="13.951173578623273"><ele>192.0</ele><time>2026-05-03T10:20:05Z</time></trkpt><trkpt lat="42.24207797485138" lon="13.951218458531647"><ele>192.0</ele><time>2026-05-03T10:20:06Z</time></trkpt><trkpt lat="42.24224740713083" lon="13.951250287046317"><ele>192.0</ele><time>2026-05-03T10:20:07Z</time></trkpt><trkpt lat="42.24240568700283" lon="13.951264447272923"><ele>189.66666666666666</ele><time>2026-05-03T10:20:08Z</time></trkpt><trkpt lat="42.242558502899925" lon="13.951253216317273"><ele>187.33333333333331</ele><time>2026-05-03T10:20:09Z</time></trkpt><trkpt lat="42.242709901923234" lon="13.951212347222707"><ele>185.0</ele><time>2026-05-03T10:20:10Z</time></trkpt><trkpt lat="42.242859377124915" lon="13.951146252200571"><ele>185.0</ele><time>2026-05-03T10:20:11Z</time></trkpt><trkpt lat="42.24300675138231" lon="13.951077356706358"><ele>185.0</ele><time>2026-05-03T10:20:12Z</time></trkpt><trkpt lat="42.2431524069344" lon="13.951016459201286"><ele>185.0</ele><time>2026-05-03T10:20:13Z</time></trkpt><trkpt lat="42.24330082341616" lon="13.950951472172346"><ele>184.33333333333331</ele><time>2026-05-03T10:20:14Z</time></trkpt><trkpt lat="42.24345404882929" lon="13.950880536281323"><ele>183.66666666666666</ele><time>2026-05-03T10:20:15Z</time></trkpt><trkpt lat="42.24360742680185" lon="13.950811872167392"><ele>183.0</ele><time>2026-05-03T10:20:16Z</time></trkpt><trkpt lat="42.24375748655298" lon="13.950746678457712"><ele>179.33333333333334</ele><time>2026-05-03T10:20:17Z</time></trkpt><trkpt lat="42.243910211317115" lon="13.950687802093716"><ele>175.66666666666669</ele><time>2026-05-03T10:20:18Z</time></trkpt><trkpt lat="42.24407006148286" lon="13.950647876306853"><ele>172.0</ele><time>2026-05-03T10:20:19Z</time></trkpt><trkpt lat="42.244236244939984" lon="13.95063224441163"><ele>170.66666666666669</ele><time>2026-05-03T10:20:20Z</time></trkpt><trkpt lat="42.244407093269984" lon="13.9506364118656"><ele>169.33333333333334</ele><time>2026-05-03T10:20:21Z</time></trkpt><trkpt lat="42.24457593256839" lon="13.950641051062139"><ele>168.0</ele><time>2026-05-03T10:20:22Z</time></trkpt><trkpt lat="42.24474021756511" lon="13.950636764284631"><ele>165.66666666666666</ele><time>2026-05-03T10:20:23Z</time></trkpt><trkpt lat="42.24489305718027" lon="13.950635527311315"><ele>163.33333333333331</ele><time>2026-05-03T10:20:24Z</time></trkpt><trkpt lat="42.24504224495325" lon="13.950651438918744"><ele>161.0</ele><time>2026-05-03T10:20:25Z</time></trkpt><trkpt lat="42.24519021689136" lon="13.950697685973424"><ele>161.0</ele><time>2026-05-03T10:20:26Z</time></trkpt><trkpt lat="42.245337364360374" lon="13.950775005951009"><ele>161.0</ele><time>2026-05-03T10:20:27Z</time></trkpt><trkpt lat="42.24548233100293" lon="13.950857193417947"><ele>161.0</ele><time>2026-05-03T10:20:28Z</time></trkpt><trkpt lat="42.24562355832225" lon="13.950929928892915"><ele>159.25</ele><time>2026-05-03T10:20:29Z</time></trkpt><trkpt lat="42.24575850791817" lon="13.951006567008724"><ele>157.5</ele><time>2026-05-03T10:20:30Z</time></trkpt><trkpt lat="42.245886411501026" lon="13.951105073767733"><ele>155.75</ele><time>2026-05-03T10:20:31Z</time></trkpt><trkpt lat="42.24599956014373" lon="13.951247125580567"><ele>154.0</ele><time>2026-05-03T10:20:32Z</time></trkpt><trkpt lat="42.24610067834654" lon="13.951404839216126"><ele>154.0</ele><time>2026-05-03T10:20:33Z</time></trkpt><trkpt lat="42.246206082634714" lon="13.951553076667336"><ele>154.0</ele><time>2026-05-03T10:20:34Z</time></trkpt><trkpt lat="42.246307426279465" lon="13.951696624523162"><ele>154.0</ele><time>2026-05-03T10:20:35Z</time></trkpt><trkpt lat="42.246401867195814" lon="13.951832265350555"><ele>154.0</ele><time>2026-05-03T10:20:36Z</time></trkpt><trkpt lat="42.246491250713916" lon="13.951948703119184"><ele>151.75</ele><time>2026-05-03T10:20:37Z</time></trkpt><trkpt lat="42.246590899929245" lon="13.952039433190219"><ele>149.5</ele><time>2026-05-03T10:20:38Z</time></trkpt><trkpt lat="42.24670486213696" lon="13.95209585934551"><ele>147.25</ele><time>2026-05-03T10:20:39Z</time></trkpt><trkpt lat="42.246819375824884" lon="13.952113119900837"><ele>145.0</ele><time>2026-05-03T10:20:40.001Z</time></trkpt><trkpt lat="42.24693527249592" lon="13.9521106843112"><ele>145.0</ele><time>2026-05-03T10:20:41.001Z</time></trkpt><trkpt lat="42.247053900399756" lon="13.95210387060433"><ele>145.0</ele><time>2026-05-03T10:20:42.001Z</time></trkpt><trkpt lat="42.247171349695655" lon="13.952093736035636"><ele>145.0</ele><time>2026-05-03T10:20:43.001Z</time></trkpt><trkpt lat="42.2472917286061" lon="13.952081466728556"><ele>145.0</ele><time>2026-05-03T10:20:44.001Z</time></trkpt><trkpt lat="42.24741332733758" lon="13.952067948433877"><ele>143.75</ele><time>2026-05-03T10:20:45.001Z</time></trkpt><trkpt lat="42.24753388918066" lon="13.952054790102194"><ele>142.5</ele><time>2026-05-03T10:20:46.001Z</time></trkpt><trkpt lat="42.24765318434545" lon="13.952040242917578"><ele>141.25</ele><time>2026-05-03T10:20:47.001Z</time></trkpt><trkpt lat="42.247773689033075" lon="13.952029831994981"><ele>140.0</ele><time>2026-05-03T10:20:48.001Z</time></trkpt><trkpt lat="42.2478968437877" lon="13.952017988696543"><ele>140.0</ele><time>2026-05-03T10:20:49.001Z</time></trkpt><trkpt lat="42.24802403004547" lon="13.952006369949176"><ele>140.0</ele><time>2026-05-03T10:20:50.001Z</time></trkpt><trkpt lat="42.248154036687765" lon="13.951994812721628"><ele>140.0</ele><time>2026-05-03T10:20:51.001Z</time></trkpt><trkpt lat="42.24828554743983" lon="13.951980422464427"><ele>140.0</ele><time>2026-05-03T10:20:52.001Z</time></trkpt><trkpt lat="42.2484148097492" lon="13.951964148478563"><ele>139.5</ele><time>2026-05-03T10:20:53.001Z</time></trkpt><trkpt lat="42.2485415484134" lon="13.951952210747788"><ele>139.0</ele><time>2026-05-03T10:20:54.001Z</time></trkpt><trkpt lat="42.248667029850616" lon="13.951939070436811"><ele>138.5</ele><time>2026-05-03T10:20:55.001Z</time></trkpt><trkpt lat="42.24878654233571" lon="13.951923883785717"><ele>138.0</ele><time>2026-05-03T10:20:56.001Z</time></trkpt><trkpt lat="42.24889882261727" lon="13.951912846045714"><ele>138.6</ele><time>2026-05-03T10:20:57.001Z</time></trkpt><trkpt lat="42.24900647380824" lon="13.951902918412204"><ele>139.20000000000002</ele><time>2026-05-03T10:20:58.001Z</time></trkpt><trkpt lat="42.24912031118698" lon="13.951891180959477"><ele>139.8</ele><time>2026-05-03T10:20:59.001Z</time></trkpt><trkpt lat="42.24923394782456" lon="13.95187687182202"><ele>140.4</ele><time>2026-05-03T10:21:00.001Z</time></trkpt><trkpt lat="42.249345459757286" lon="13.95186525996847"><ele>141.0</ele><time>2026-05-03T10:21:01.001Z</time></trkpt><trkpt lat="42.249456530194735" lon="13.95185482123784"><ele>141.0</ele><time>2026-05-03T10:21:02.001Z</time></trkpt><trkpt lat="42.24956752549958" lon="13.951846327736554"><ele>141.0</ele><time>2026-05-03T10:21:03.001Z</time></trkpt><trkpt lat="42.24967889206075" lon="13.95183493265401"><ele>141.0</ele><time>2026-05-03T10:21:04.001Z</time></trkpt><trkpt lat="42.24979006936836" lon="13.951821971727284"><ele>141.0</ele><time>2026-05-03T10:21:05.001Z</time></trkpt><trkpt lat="42.249902759583726" lon="13.951807975425549"><ele>141.0</ele><time>2026-05-03T10:21:06.001Z</time></trkpt><trkpt lat="42.25001642009012" lon="13.951793381919565"><ele>140.25</ele><time>2026-05-03T10:21:07.001Z</time></trkpt><trkpt lat="42.250132289059216" lon="13.951781655609173"><ele>139.5</ele><time>2026-05-03T10:21:08.001Z</time></trkpt><trkpt lat="42.250250075078036" lon="13.951771607054193"><ele>138.75</ele><time>2026-05-03T10:21:09.001Z</time></trkpt><trkpt lat="42.25036809819606" lon="13.951757033533427"><ele>138.0</ele><time>2026-05-03T10:21:10.001Z</time></trkpt><trkpt lat="42.25048854436155" lon="13.951744809411654"><ele>138.0</ele><time>2026-05-03T10:21:11.001Z</time></trkpt><trkpt lat="42.250606075614186" lon="13.95173137552864"><ele>138.0</ele><time>2026-05-03T10:21:12.001Z</time></trkpt><trkpt lat="42.25072187100943" lon="13.951717464726444"><ele>138.0</ele><time>2026-05-03T10:21:13.001Z</time></trkpt><trkpt lat="42.25083741617665" lon="13.951704323725169"><ele>138.0</ele><time>2026-05-03T10:21:14.001Z</time></trkpt><trkpt lat="42.250951811732136" lon="13.951692297633304"><ele>137.8</ele><time>2026-05-03T10:21:15.001Z</time></trkpt><trkpt lat="42.25106393382428" lon="13.951681882922374"><ele>137.60000000000002</ele><time>2026-05-03T10:21:16.001Z</time></trkpt><trkpt lat="42.251169368667924" lon="13.951677814768779"><ele>137.39999999999998</ele><time>2026-05-03T10:21:17.001Z</time></trkpt><trkpt lat="42.25127246098778" lon="13.951684188320426"><ele>137.2</ele><time>2026-05-03T10:21:18.001Z</time></trkpt><trkpt lat="42.25137023411375" lon="13.951699316974404"><ele>137.0</ele><time>2026-05-03T10:21:19.001Z</time></trkpt><trkpt lat="42.2514593830583" lon="13.951715861583486"><ele>136.0</ele><time>2026-05-03T10:21:20.001Z</time></trkpt><trkpt lat="42.251537259624925" lon="13.951731482532788"><ele>135.0</ele><time>2026-05-03T10:21:21.001Z</time></trkpt><trkpt lat="42.251610322113" lon="13.951735791831693"><ele>134.0</ele><time>2026-05-03T10:21:22.001Z</time></trkpt><trkpt lat="42.25169537949977" lon="13.9517753208847"><ele>133.0</ele><time>2026-05-03T10:21:23.001Z</time></trkpt><trkpt lat="42.251801778302266" lon="13.951797997634449"><ele>132.0</ele><time>2026-05-03T10:21:24.001Z</time></trkpt><trkpt lat="42.25193121706009" lon="13.951825584836351"><ele>132.0</ele><time>2026-05-03T10:21:25.001Z</time></trkpt><trkpt lat="42.25207072100568" lon="13.951799286424487"><ele>132.0</ele><time>2026-05-03T10:21:26.001Z</time></trkpt><trkpt lat="42.252183500911116" lon="13.951824558148772"><ele>132.0</ele><time>2026-05-03T10:21:27.001Z</time></trkpt><trkpt lat="42.252284359522044" lon="13.951839053677475"><ele>132.0</ele><time>2026-05-03T10:21:28.001Z</time></trkpt><trkpt lat="42.25237857879298" lon="13.951859387828094"><ele>131.4</ele><time>2026-05-03T10:21:29.001Z</time></trkpt><trkpt lat="42.25246385629849" lon="13.951884639262744"><ele>130.79999999999998</ele><time>2026-05-03T10:21:30.001Z</time></trkpt><trkpt lat="42.252548771364324" lon="13.951950882103072"><ele>130.2</ele><time>2026-05-03T10:21:31.001Z</time></trkpt><trkpt lat="42.252635219429536" lon="13.951968526522128"><ele>129.6</ele><time>2026-05-03T10:21:32.001Z</time></trkpt><trkpt lat="42.25272504560245" lon="13.951987749395396"><ele>129.0</ele><time>2026-05-03T10:21:33.001Z</time></trkpt><trkpt lat="42.2528153005623" lon="13.952007064007406"><ele>129.0</ele><time>2026-05-03T10:21:34.001Z</time></trkpt><trkpt lat="42.25290731786553" lon="13.952027561041362"><ele>129.0</ele><time>2026-05-03T10:21:35.001Z</time></trkpt><trkpt lat="42.25300197029817" lon="13.952046628303664"><ele>129.0</ele><time>2026-05-03T10:21:36.001Z</time></trkpt><trkpt lat="42.25309926927047" lon="13.95206622847804"><ele>129.0</ele><time>2026-05-03T10:21:37.001Z</time></trkpt><trkpt lat="42.25319057429326" lon="13.952084621230794"><ele>129.0</ele><time>2026-05-03T10:21:38.001Z</time></trkpt><trkpt lat="42.253270764776225" lon="13.952100775144299"><ele>129.4</ele><time>2026-05-03T10:21:39.001Z</time></trkpt><trkpt lat="42.25335557816285" lon="13.95209069669964"><ele>129.8</ele><time>2026-05-03T10:21:40.001Z</time></trkpt><trkpt lat="42.25344044014143" lon="13.952097755083566"><ele>130.2</ele><time>2026-05-03T10:21:41.001Z</time></trkpt><trkpt lat="42.25353742446952" lon="13.952077557429277"><ele>130.6</ele><time>2026-05-03T10:21:42.001Z</time></trkpt><trkpt lat="42.25363748573661" lon="13.952037264201893"><ele>131.0</ele><time>2026-05-03T10:21:43.001Z</time></trkpt><trkpt lat="42.253740468605166" lon="13.951986703172647"><ele>131.0</ele><time>2026-05-03T10:21:44.001Z</time></trkpt><trkpt lat="42.25384749042826" lon="13.951935068903214"><ele>131.0</ele><time>2026-05-03T10:21:45.001Z</time></trkpt><trkpt lat="42.25397074292458" lon="13.951878579100054"><ele>131.0</ele><time>2026-05-03T10:21:46.001Z</time></trkpt><trkpt lat="42.25410856423669" lon="13.95182280675054"><ele>131.0</ele><time>2026-05-03T10:21:47.001Z</time></trkpt><trkpt lat="42.25426082590719" lon="13.951774666429902"><ele>132.66666666666666</ele><time>2026-05-03T10:21:48.001Z</time></trkpt><trkpt lat="42.25442477169225" lon="13.95172827919398"><ele>134.33333333333334</ele><time>2026-05-03T10:21:49.001Z</time></trkpt><trkpt lat="42.25458973002934" lon="13.951678599088424"><ele>136.0</ele><time>2026-05-03T10:21:50.001Z</time></trkpt><trkpt lat="42.25475449185618" lon="13.951629965068806"><ele>137.66666666666669</ele><time>2026-05-03T10:21:51.001Z</time></trkpt><trkpt lat="42.2549305613875" lon="13.951579243697047"><ele>139.33333333333334</ele><time>2026-05-03T10:21:52.001Z</time></trkpt><trkpt lat="42.255109799703355" lon="13.951529820750418"><ele>141.0</ele><time>2026-05-03T10:21:53.001Z</time></trkpt><trkpt lat="42.25529147664232" lon="13.951477882254137"><ele>141.0</ele><time>2026-05-03T10:21:54.001Z</time></trkpt><trkpt lat="42.25547078429311" lon="13.951427243542614"><ele>141.0</ele><time>2026-05-03T10:21:55.001Z</time></trkpt><trkpt lat="42.255646823918674" lon="13.951375999988459"><ele>141.0</ele><time>2026-05-03T10:21:56.001Z</time></trkpt><trkpt lat="42.25581782752973" lon="13.951328132226488"><ele>141.66666666666666</ele><time>2026-05-03T10:21:57.001Z</time></trkpt><trkpt lat="42.255984561764414" lon="13.951279457343393"><ele>142.33333333333331</ele><time>2026-05-03T10:21:58.001Z</time></trkpt><trkpt lat="42.25614545295011" lon="13.951231524488527"><ele>143.0</ele><time>2026-05-03T10:21:59.001Z</time></trkpt><trkpt lat="42.256303357180045" lon="13.951184281159154"><ele>143.33333333333331</ele><time>2026-05-03T10:22:00.002Z</time></trkpt><trkpt lat="42.25646234603718" lon="13.951145977920373"><ele>143.66666666666666</ele><time>2026-05-03T10:22:01.002Z</time></trkpt><trkpt lat="42.25662506334903" lon="13.951123816205369"><ele>144.0</ele><time>2026-05-03T10:22:02.002Z</time></trkpt><trkpt lat="42.25679681465324" lon="13.951121975600493"><ele>144.0</ele><time>2026-05-03T10:22:03.002Z</time></trkpt><trkpt lat="42.256973347150534" lon="13.951131321865104"><ele>144.0</ele><time>2026-05-03T10:22:04.002Z</time></trkpt><trkpt lat="42.25715215575997" lon="13.95114181111758"><ele>144.0</ele><time>2026-05-03T10:22:05.002Z</time></trkpt><trkpt lat="42.25732722960613" lon="13.951151709128148"><ele>143.66666666666666</ele><time>2026-05-03T10:22:06.002Z</time></trkpt><trkpt lat="42.25749930802539" lon="13.951160135149207"><ele>143.33333333333331</ele><time>2026-05-03T10:22:07Z</time></trkpt><trkpt lat="42.25767047191989" lon="13.951168422587726"><ele>143.0</ele><time>2026-05-03T10:22:08Z</time></trkpt><trkpt lat="42.25784314041678" lon="13.951184356647467"><ele>143.0</ele><time>2026-05-03T10:22:09Z</time></trkpt><trkpt lat="42.25802043465477" lon="13.951211596378462"><ele>143.0</ele><time>2026-05-03T10:22:10Z</time></trkpt><trkpt lat="42.25820148967192" lon="13.951256420744164"><ele>143.0</ele><time>2026-05-03T10:22:11Z</time></trkpt><trkpt lat="42.25838123755792" lon="13.951309637039058"><ele>143.66666666666666</ele><time>2026-05-03T10:22:12Z</time></trkpt><trkpt lat="42.25855816676471" lon="13.951375785284787"><ele>144.33333333333334</ele><time>2026-05-03T10:22:13Z</time></trkpt><trkpt lat="42.25873502823489" lon="13.951456053543788"><ele>145.0</ele><time>2026-05-03T10:22:14Z</time></trkpt><trkpt lat="42.25890618366561" lon="13.951545030961986"><ele>146.0</ele><time>2026-05-03T10:22:15Z</time></trkpt><trkpt lat="42.25907282920219" lon="13.951647216811313"><ele>147.0</ele><time>2026-05-03T10:22:16Z</time></trkpt><trkpt lat="42.259234981033316" lon="13.95175959588466"><ele>148.0</ele><time>2026-05-03T10:22:17Z</time></trkpt><trkpt lat="42.25939005709257" lon="13.951883682565017"><ele>148.0</ele><time>2026-05-03T10:22:18Z</time></trkpt><trkpt lat="42.2595405371607" lon="13.952027593095707"><ele>148.0</ele><time>2026-05-03T10:22:19Z</time></trkpt><trkpt lat="42.25968792523521" lon="13.952189687432336"><ele>148.0</ele><time>2026-05-03T10:22:20Z</time></trkpt><trkpt lat="42.25983065693283" lon="13.952363094735563"><ele>147.66666666666669</ele><time>2026-05-03T10:22:21Z</time></trkpt><trkpt lat="42.2599630378351" lon="13.952541071741688"><ele>147.33333333333334</ele><time>2026-05-03T10:22:22Z</time></trkpt><trkpt lat="42.260090753957535" lon="13.952730623052448"><ele>147.0</ele><time>2026-05-03T10:22:23Z</time></trkpt><trkpt lat="42.26020924064234" lon="13.95293263758722"><ele>147.0</ele><time>2026-05-03T10:22:24Z</time></trkpt><trkpt lat="42.260320044582386" lon="13.953144466076646"><ele>147.0</ele><time>2026-05-03T10:22:25Z</time></trkpt><trkpt lat="42.26041982754273" lon="13.95336004259309"><ele>147.0</ele><time>2026-05-03T10:22:26Z</time></trkpt><trkpt lat="42.26050539367271" lon="13.953566837175671"><ele>149.0</ele><time>2026-05-03T10:22:27.001Z</time></trkpt><trkpt lat="42.26057719139588" lon="13.95377300105247"><ele>151.0</ele><time>2026-05-03T10:22:28.001Z</time></trkpt><trkpt lat="42.260637792946575" lon="13.953986423478042"><ele>153.0</ele><time>2026-05-03T10:22:29.001Z</time></trkpt><trkpt lat="42.26069303468511" lon="13.954208316057812"><ele>148.0</ele><time>2026-05-03T10:22:30.001Z</time></trkpt><trkpt lat="42.26074420249293" lon="13.95443704761196"><ele>143.0</ele><time>2026-05-03T10:22:31.001Z</time></trkpt><trkpt lat="42.26079702905098" lon="13.954677457050664"><ele>138.0</ele><time>2026-05-03T10:22:32.001Z</time></trkpt><trkpt lat="42.26084942142397" lon="13.95492339769362"><ele>138.0</ele><time>2026-05-03T10:22:33.001Z</time></trkpt><trkpt lat="42.26090309264202" lon="13.95517486402593"><ele>138.0</ele><time>2026-05-03T10:22:34.001Z</time></trkpt><trkpt lat="42.260957360454846" lon="13.955432009227316"><ele>138.0</ele><time>2026-05-03T10:22:35.001Z</time></trkpt><trkpt lat="42.26100973409382" lon="13.955688447594882"><ele>138.66666666666666</ele><time>2026-05-03T10:22:36.001Z</time></trkpt><trkpt lat="42.261058141218875" lon="13.955922627601371"><ele>139.33333333333331</ele><time>2026-05-03T10:22:37.001Z</time></trkpt><trkpt lat="42.26109850981952" lon="13.956126796916685"><ele>140.0</ele><time>2026-05-03T10:22:38.001Z</time></trkpt><trkpt lat="42.261135219734435" lon="13.956305753524509"><ele>140.0</ele><time>2026-05-03T10:22:39.001Z</time></trkpt><trkpt lat="42.261166096008814" lon="13.95646040074333"><ele>140.0</ele><time>2026-05-03T10:22:40.001Z</time></trkpt><trkpt lat="42.261194510066275" lon="13.956590536602215"><ele>140.0</ele><time>2026-05-03T10:22:41.001Z</time></trkpt><trkpt lat="42.261219080842444" lon="13.956694113179005"><ele>140.0</ele><time>2026-05-03T10:22:42.001Z</time></trkpt><trkpt lat="42.261245199458855" lon="13.956781679629557"><ele>140.0</ele><time>2026-05-03T10:22:43.001Z</time></trkpt><trkpt lat="42.261270899006604" lon="13.956913994949197"><ele>141.2</ele><time>2026-05-03T10:22:45.001Z</time></trkpt><trkpt lat="42.26123938726223" lon="13.957002053105938"><ele>142.4</ele><time>2026-05-03T10:22:47.001Z</time></trkpt><trkpt lat="42.26111930532745" lon="13.957024246894449"><ele>143.6</ele><time>2026-05-03T10:22:48.001Z</time></trkpt><trkpt lat="42.26103431089427" lon="13.957097175669805"><ele>144.8</ele><time>2026-05-03T10:22:49.001Z</time></trkpt><trkpt lat="42.260934130288355" lon="13.957174894280538"><ele>146.0</ele><time>2026-05-03T10:22:50.001Z</time></trkpt><trkpt lat="42.260820231227456" lon="13.957253056112753"><ele>146.0</ele><time>2026-05-03T10:22:51.001Z</time></trkpt><trkpt lat="42.26070982036223" lon="13.95731916410486"><ele>146.0</ele><time>2026-05-03T10:22:52.001Z</time></trkpt><trkpt lat="42.260591123174486" lon="13.9573824906843"><ele>146.0</ele><time>2026-05-03T10:22:53.001Z</time></trkpt><trkpt lat="42.26046833983418" lon="13.95744783231197"><ele>146.0</ele><time>2026-05-03T10:22:54.001Z</time></trkpt><trkpt lat="42.26033944855659" lon="13.957517923129183"><ele>149.5</ele><time>2026-05-03T10:22:55.001Z</time></trkpt><trkpt lat="42.260217384234075" lon="13.957588213219704"><ele>153.0</ele><time>2026-05-03T10:22:56.001Z</time></trkpt><trkpt lat="42.26008493839831" lon="13.957669467563953"><ele>156.5</ele><time>2026-05-03T10:22:57.001Z</time></trkpt><trkpt lat="42.259942041861684" lon="13.957770825712961"><ele>160.0</ele><time>2026-05-03T10:22:58.001Z</time></trkpt><trkpt lat="42.25980155678025" lon="13.957877135624853"><ele>162.66666666666669</ele><time>2026-05-03T10:22:59.001Z</time></trkpt><trkpt lat="42.259673798463034" lon="13.957973814699962"><ele>165.33333333333334</ele><time>2026-05-03T10:23:00.001Z</time></trkpt><trkpt lat="42.259539513944674" lon="13.958075432361143"><ele>168.0</ele><time>2026-05-03T10:23:01.001Z</time></trkpt><trkpt lat="42.25940565997609" lon="13.95817560626816"><ele>168.0</ele><time>2026-05-03T10:23:02.001Z</time></trkpt><trkpt lat="42.259274935312575" lon="13.95827284696884"><ele>168.0</ele><time>2026-05-03T10:23:03.001Z</time></trkpt><trkpt lat="42.25914666072376" lon="13.958368265106378"><ele>168.0</ele><time>2026-05-03T10:23:04.001Z</time></trkpt><trkpt lat="42.25901404714172" lon="13.95845997550637"><ele>168.0</ele><time>2026-05-03T10:23:05.001Z</time></trkpt><trkpt lat="42.25886871792826" lon="13.958550472313876"><ele>173.0</ele><time>2026-05-03T10:23:06.001Z</time></trkpt><trkpt lat="42.258716137838725" lon="13.958633952737566"><ele>178.0</ele><time>2026-05-03T10:23:07.001Z</time></trkpt><trkpt lat="42.25856687219627" lon="13.958716192503225"><ele>183.0</ele><time>2026-05-03T10:23:08.001Z</time></trkpt><trkpt lat="42.25842129459475" lon="13.958802194319473"><ele>183.0</ele><time>2026-05-03T10:23:09.001Z</time></trkpt><trkpt lat="42.25827167433032" lon="13.958890834682684"><ele>183.0</ele><time>2026-05-03T10:23:10.001Z</time></trkpt><trkpt lat="42.25811864254518" lon="13.958979752923343"><ele>183.0</ele><time>2026-05-03T10:23:11.001Z</time></trkpt><trkpt lat="42.25796881568963" lon="13.95906733787589"><ele>186.0</ele><time>2026-05-03T10:23:12.001Z</time></trkpt><trkpt lat="42.257823713882836" lon="13.959156333620257"><ele>189.0</ele><time>2026-05-03T10:23:13.001Z</time></trkpt><trkpt lat="42.257694814701175" lon="13.959235391802789"><ele>192.0</ele><time>2026-05-03T10:23:14.001Z</time></trkpt><trkpt lat="42.25757684264983" lon="13.959307748004571"><ele>195.0</ele><time>2026-05-03T10:23:15.001Z</time></trkpt><trkpt lat="42.25747504986124" lon="13.959369451196816"><ele>195.5</ele><time>2026-05-03T10:23:16.001Z</time></trkpt><trkpt lat="42.257381897042585" lon="13.959423204361565"><ele>196.0</ele><time>2026-05-03T10:23:17.001Z</time></trkpt><trkpt lat="42.25730495854453" lon="13.959465848583024"><ele>196.5</ele><time>2026-05-03T10:23:18.001Z</time></trkpt><trkpt lat="42.257229649897255" lon="13.959505951670168"><ele>197.0</ele><time>2026-05-03T10:23:19.001Z</time></trkpt><trkpt lat="42.257154143811455" lon="13.959544648472788"><ele>197.5</ele><time>2026-05-03T10:23:20.001Z</time></trkpt><trkpt lat="42.25708125947397" lon="13.95958542979336"><ele>198.0</ele><time>2026-05-03T10:23:21.001Z</time></trkpt><trkpt lat="42.25701034829659" lon="13.95962916132951"><ele>198.0</ele><time>2026-05-03T10:23:22.001Z</time></trkpt><trkpt lat="42.25695137227057" lon="13.959679652259853"><ele>198.0</ele><time>2026-05-03T10:23:23.001Z</time></trkpt><trkpt lat="42.2569178456263" lon="13.959844712189744"><ele>198.0</ele><time>2026-05-03T10:23:25.001Z</time></trkpt><trkpt lat="42.25697940875013" lon="13.959979968768087"><ele>198.0</ele><time>2026-05-03T10:23:27.001Z</time></trkpt><trkpt lat="42.25701379218903" lon="13.96005946198804"><ele>198.0</ele><time>2026-05-03T10:23:28.001Z</time></trkpt><trkpt lat="42.25705423474679" lon="13.960149526958576"><ele>197.60000000000002</ele><time>2026-05-03T10:23:29.001Z</time></trkpt><trkpt lat="42.25709685558802" lon="13.960245661658366"><ele>197.20000000000002</ele><time>2026-05-03T10:23:30.001Z</time></trkpt><trkpt lat="42.257138515565174" lon="13.960351820706054"><ele>196.8</ele><time>2026-05-03T10:23:31.001Z</time></trkpt><trkpt lat="42.25717470946682" lon="13.960458073735822"><ele>196.4</ele><time>2026-05-03T10:23:32.001Z</time></trkpt><trkpt lat="42.25721657645385" lon="13.960577700140956"><ele>196.0</ele><time>2026-05-03T10:23:33.001Z</time></trkpt><trkpt lat="42.25726469451085" lon="13.960711274731212"><ele>196.75</ele><time>2026-05-03T10:23:34.001Z</time></trkpt><trkpt lat="42.257318030959645" lon="13.960850428591124"><ele>197.5</ele><time>2026-05-03T10:23:35.001Z</time></trkpt><trkpt lat="42.25737689342503" lon="13.961008008747763"><ele>198.25</ele><time>2026-05-03T10:23:36.001Z</time></trkpt><trkpt lat="42.25744181457151" lon="13.96118320519179"><ele>199.0</ele><time>2026-05-03T10:23:37.001Z</time></trkpt><trkpt lat="42.257507474986106" lon="13.96135787263299"><ele>199.0</ele><time>2026-05-03T10:23:38.001Z</time></trkpt><trkpt lat="42.25757221862777" lon="13.961527579750326"><ele>199.0</ele><time>2026-05-03T10:23:39.001Z</time></trkpt><trkpt lat="42.25763558335236" lon="13.961699401369398"><ele>199.0</ele><time>2026-05-03T10:23:40.001Z</time></trkpt><trkpt lat="42.25769658573517" lon="13.961863343829135"><ele>199.0</ele><time>2026-05-03T10:23:41.001Z</time></trkpt><trkpt lat="42.257751966797194" lon="13.962008699968823"><ele>199.0</ele><time>2026-05-03T10:23:42.001Z</time></trkpt><trkpt lat="42.25780823743748" lon="13.962145743810334"><ele>199.0</ele><time>2026-05-03T10:23:43.001Z</time></trkpt><trkpt lat="42.2578634000616" lon="13.962285638323005"><ele>199.0</ele><time>2026-05-03T10:23:44.001Z</time></trkpt><trkpt lat="42.257916949212394" lon="13.962427383721053"><ele>199.0</ele><time>2026-05-03T10:23:45.001Z</time></trkpt><trkpt lat="42.25796742034348" lon="13.962568048978415"><ele>198.5</ele><time>2026-05-03T10:23:46.001Z</time></trkpt><trkpt lat="42.25802096936487" lon="13.962711988666317"><ele>198.0</ele><time>2026-05-03T10:23:47.002Z</time></trkpt><trkpt lat="42.258076081305184" lon="13.962852313632064"><ele>197.5</ele><time>2026-05-03T10:23:48.002Z</time></trkpt><trkpt lat="42.25813266097715" lon="13.962991168305408"><ele>197.0</ele><time>2026-05-03T10:23:49.002Z</time></trkpt><trkpt lat="42.258189572221" lon="13.963115774989172"><ele>198.39999999999998</ele><time>2026-05-03T10:23:50.002Z</time></trkpt><trkpt lat="42.25824089523069" lon="13.963236751132683"><ele>199.79999999999998</ele><time>2026-05-03T10:23:51.002Z</time></trkpt><trkpt lat="42.258279330340095" lon="13.963343138316981"><ele>201.2</ele><time>2026-05-03T10:23:52.002Z</time></trkpt><trkpt lat="42.2583250061842" lon="13.963468974626096"><ele>202.6</ele><time>2026-05-03T10:23:53.002Z</time></trkpt><trkpt lat="42.258372936055025" lon="13.963595055347971"><ele>204.0</ele><time>2026-05-03T10:23:54.002Z</time></trkpt><trkpt lat="42.25841516733664" lon="13.963709850785115"><ele>204.16666666666666</ele><time>2026-05-03T10:23:55.002Z</time></trkpt><trkpt lat="42.25843068612979" lon="13.963815484829011"><ele>204.33333333333331</ele><time>2026-05-03T10:23:57.002Z</time></trkpt><trkpt lat="42.258435517394794" lon="13.963910447347404"><ele>204.5</ele><time>2026-05-03T10:24:10.002Z</time></trkpt><trkpt lat="42.25843305056948" lon="13.964011512760841"><ele>204.66666666666666</ele><time>2026-05-03T10:24:11.002Z</time></trkpt><trkpt lat="42.25843127055506" lon="13.96414288220092"><ele>204.83333333333331</ele><time>2026-05-03T10:24:12.002Z</time></trkpt><trkpt lat="42.258437651458735" lon="13.964273746536955"><ele>205.0</ele><time>2026-05-03T10:24:13.001Z</time></trkpt><trkpt lat="42.25888312304404" lon="13.96456793478271"><ele>205.75</ele><time>2026-05-03T10:24:15.001Z</time></trkpt><trkpt lat="42.25895701433957" lon="13.964711950989484"><ele>206.5</ele><time>2026-05-03T10:24:16.001Z</time></trkpt><trkpt lat="42.25902076687408" lon="13.964841355606731"><ele>207.25</ele><time>2026-05-03T10:24:17.001Z</time></trkpt><trkpt lat="42.25907923525622" lon="13.964959075180822"><ele>208.0</ele><time>2026-05-03T10:24:18.001Z</time></trkpt><trkpt lat="42.25914081051635" lon="13.965082179686105"><ele>208.0</ele><time>2026-05-03T10:24:19.001Z</time></trkpt><trkpt lat="42.25920717849622" lon="13.965216235825253"><ele>208.0</ele><time>2026-05-03T10:24:20.001Z</time></trkpt><trkpt lat="42.259274522448415" lon="13.965356607713213"><ele>208.0</ele><time>2026-05-03T10:24:21.001Z</time></trkpt><trkpt lat="42.259339998555596" lon="13.965495104402496"><ele>208.0</ele><time>2026-05-03T10:24:22.001Z</time></trkpt><trkpt lat="42.259400350993275" lon="13.965622122261825"><ele>207.99999999999997</ele><time>2026-05-03T10:24:23.001Z</time></trkpt><trkpt lat="42.259448303793036" lon="13.96572151913123"><ele>208.0</ele><time>2026-05-03T10:24:24.001Z</time></trkpt><trkpt lat="42.25948708269247" lon="13.965803912250102"><ele>208.0</ele><time>2026-05-03T10:24:25.001Z</time></trkpt><trkpt lat="42.25953188298423" lon="13.965892195381576"><ele>208.0</ele><time>2026-05-03T10:24:27.001Z</time></trkpt><trkpt lat="42.259541337275124" lon="13.965982071135773"><ele>207.99999999999997</ele><time>2026-05-03T10:24:30.001Z</time></trkpt><trkpt lat="42.25951264285167" lon="13.96609262827881"><ele>208.0</ele><time>2026-05-03T10:24:33.001Z</time></trkpt><trkpt lat="42.25955572628878" lon="13.966232229479568"><ele>208.4</ele><time>2026-05-03T10:24:35.001Z</time></trkpt><trkpt lat="42.25957354468788" lon="13.966345116413066"><ele>208.8</ele><time>2026-05-03T10:24:37.001Z</time></trkpt><trkpt lat="42.259594254767826" lon="13.966482343088716"><ele>209.2</ele><time>2026-05-03T10:24:39.001Z</time></trkpt><trkpt lat="42.25961229550786" lon="13.966614798692916"><ele>209.6</ele><time>2026-05-03T10:24:41.001Z</time></trkpt><trkpt lat="42.25959829181079" lon="13.966722242943494"><ele>210.0</ele><time>2026-05-03T10:24:43.001Z</time></trkpt><trkpt lat="42.259564779654845" lon="13.966852192611071"><ele>210.66666666666666</ele><time>2026-05-03T10:24:45.001Z</time></trkpt><trkpt lat="42.259575230401985" lon="13.966967291367586"><ele>211.33333333333331</ele><time>2026-05-03T10:24:48.001Z</time></trkpt><trkpt lat="42.25962236783292" lon="13.967067066078897"><ele>212.0</ele><time>2026-05-03T10:24:54.001Z</time></trkpt><trkpt lat="42.25966089822832" lon="13.967168948354786"><ele>212.66666666666666</ele><time>2026-05-03T10:24:55.001Z</time></trkpt><trkpt lat="42.25969668764388" lon="13.967268590127006"><ele>213.33333333333331</ele><time>2026-05-03T10:24:56.001Z</time></trkpt><trkpt lat="42.259727606944885" lon="13.967357801270543"><ele>214.0</ele><time>2026-05-03T10:24:57.001Z</time></trkpt><trkpt lat="42.25975461413367" lon="13.967439737490217"><ele>213.16666666666666</ele><time>2026-05-03T10:24:58.001Z</time></trkpt><trkpt lat="42.259781703412855" lon="13.96752821759589"><ele>212.33333333333331</ele><time>2026-05-03T10:24:59.001Z</time></trkpt><trkpt lat="42.259808704495704" lon="13.967611810553064"><ele>211.5</ele><time>2026-05-03T10:25:00.001Z</time></trkpt><trkpt lat="42.25983506037667" lon="13.967705705704914"><ele>210.66666666666669</ele><time>2026-05-03T10:25:01.001Z</time></trkpt><trkpt lat="42.259854160467114" lon="13.967797133007807"><ele>209.83333333333334</ele><time>2026-05-03T10:25:02.001Z</time></trkpt><trkpt lat="42.259887529751126" lon="13.967942338705146"><ele>209.0</ele><time>2026-05-03T10:25:04.001Z</time></trkpt><trkpt lat="42.259947542927904" lon="13.9680462971366"><ele>206.2</ele><time>2026-05-03T10:25:06.001Z</time></trkpt><trkpt lat="42.259991007666805" lon="13.968115584725238"><ele>203.39999999999998</ele><time>2026-05-03T10:25:07.001Z</time></trkpt><trkpt lat="42.260037409783266" lon="13.96821418795492"><ele>200.6</ele><time>2026-05-03T10:25:08.001Z</time></trkpt><trkpt lat="42.26008230440491" lon="13.968335093645988"><ele>197.8</ele><time>2026-05-03T10:25:09.001Z</time></trkpt><trkpt lat="42.26012956080467" lon="13.968462424431456"><ele>195.0</ele><time>2026-05-03T10:25:10.001Z</time></trkpt><trkpt lat="42.26017181924627" lon="13.96857194084382"><ele>194.8</ele><time>2026-05-03T10:25:11.001Z</time></trkpt><trkpt lat="42.26021533703056" lon="13.96867911617004"><ele>194.6</ele><time>2026-05-03T10:25:12.001Z</time></trkpt><trkpt lat="42.26025328362578" lon="13.968772579176727"><ele>194.39999999999998</ele><time>2026-05-03T10:25:13.001Z</time></trkpt><trkpt lat="42.26030570539052" lon="13.968893438773748"><ele>194.2</ele><time>2026-05-03T10:25:14.001Z</time></trkpt><trkpt lat="42.260349573646074" lon="13.969005601977571"><ele>194.0</ele><time>2026-05-03T10:25:15.001Z</time></trkpt><trkpt lat="42.26039615211726" lon="13.969128178886525"><ele>194.6</ele><time>2026-05-03T10:25:16.001Z</time></trkpt><trkpt lat="42.26043287289828" lon="13.969226156075015"><ele>195.2</ele><time>2026-05-03T10:25:17.001Z</time></trkpt><trkpt lat="42.260471883805295" lon="13.969341636815297"><ele>195.79999999999998</ele><time>2026-05-03T10:25:18.001Z</time></trkpt><trkpt lat="42.26051433761517" lon="13.96946581004546"><ele>196.39999999999998</ele><time>2026-05-03T10:25:19.001Z</time></trkpt><trkpt lat="42.260560110906034" lon="13.969592790667926"><ele>197.0</ele><time>2026-05-03T10:25:20.001Z</time></trkpt><trkpt lat="42.2606061274395" lon="13.969708809211067"><ele>196.8</ele><time>2026-05-03T10:25:21.001Z</time></trkpt><trkpt lat="42.26065524960162" lon="13.96983662911893"><ele>196.6</ele><time>2026-05-03T10:25:22.001Z</time></trkpt><trkpt lat="42.26070138652046" lon="13.96996149865945"><ele>196.4</ele><time>2026-05-03T10:25:23.001Z</time></trkpt><trkpt lat="42.26074856484664" lon="13.970089230842552"><ele>196.20000000000002</ele><time>2026-05-03T10:25:24.001Z</time></trkpt><trkpt lat="42.26079218402875" lon="13.97020631033944"><ele>196.0</ele><time>2026-05-03T10:25:25.001Z</time></trkpt><trkpt lat="42.26083341720382" lon="13.970317826100485"><ele>195.99999999999997</ele><time>2026-05-03T10:25:26.001Z</time></trkpt><trkpt lat="42.26087915797686" lon="13.970430335792273"><ele>196.0</ele><time>2026-05-03T10:25:27.001Z</time></trkpt><trkpt lat="42.26092085840297" lon="13.97053378518615"><ele>196.0</ele><time>2026-05-03T10:25:28.001Z</time></trkpt><trkpt lat="42.26095304047588" lon="13.970622041669662"><ele>196.0</ele><time>2026-05-03T10:25:29.001Z</time></trkpt><trkpt lat="42.26099652949616" lon="13.970743445662585"><ele>195.99999999999997</ele><time>2026-05-03T10:25:30.001Z</time></trkpt><trkpt lat="42.261030827436734" lon="13.9708469035269"><ele>196.0</ele><time>2026-05-03T10:25:31.001Z</time></trkpt><trkpt lat="42.26107924299159" lon="13.970974165252505"><ele>196.83333333333331</ele><time>2026-05-03T10:25:32.001Z</time></trkpt><trkpt lat="42.261126923560425" lon="13.971101589323773"><ele>197.66666666666666</ele><time>2026-05-03T10:25:33.001Z</time></trkpt><trkpt lat="42.26116437364051" lon="13.971203424016567"><ele>198.5</ele><time>2026-05-03T10:25:34.001Z</time></trkpt><trkpt lat="42.26118543729269" lon="13.97128851805772"><ele>199.33333333333331</ele><time>2026-05-03T10:25:35.001Z</time></trkpt><trkpt lat="42.26119549214615" lon="13.971383767009836"><ele>200.16666666666666</ele><time>2026-05-03T10:25:36.001Z</time></trkpt><trkpt lat="42.261249361681614" lon="13.971529136887339"><ele>201.0</ele><time>2026-05-03T10:25:38.001Z</time></trkpt><trkpt lat="42.261307142944524" lon="13.971604194315535"><ele>201.60000000000002</ele><time>2026-05-03T10:25:39.001Z</time></trkpt><trkpt lat="42.26136119978381" lon="13.971703800944567"><ele>202.2</ele><time>2026-05-03T10:25:40.001Z</time></trkpt><trkpt lat="42.261405619515116" lon="13.971803739741642"><ele>202.8</ele><time>2026-05-03T10:25:41.001Z</time></trkpt><trkpt lat="42.26144377441236" lon="13.971906966224747"><ele>203.39999999999998</ele><time>2026-05-03T10:25:42.002Z</time></trkpt><trkpt lat="42.26146974969972" lon="13.971997781897617"><ele>204.0</ele><time>2026-05-03T10:25:43.002Z</time></trkpt><trkpt lat="42.2615172351572" lon="13.972174221699735"><ele>202.33333333333334</ele><time>2026-05-03T10:25:45.002Z</time></trkpt><trkpt lat="42.261554575755994" lon="13.972278298090556"><ele>200.66666666666669</ele><time>2026-05-03T10:25:46.002Z</time></trkpt><trkpt lat="42.2615978425235" lon="13.972398663852404"><ele>199.0</ele><time>2026-05-03T10:25:47.002Z</time></trkpt><trkpt lat="42.26164551455026" lon="13.97251339728913"><ele>197.33333333333334</ele><time>2026-05-03T10:25:48.002Z</time></trkpt><trkpt lat="42.26169369399109" lon="13.972607487417502"><ele>195.66666666666669</ele><time>2026-05-03T10:25:49.002Z</time></trkpt><trkpt lat="42.26173940375638" lon="13.972694067995576"><ele>194.0</ele><time>2026-05-03T10:25:50.002Z</time></trkpt><trkpt lat="42.261787190494964" lon="13.972784707616283"><ele>193.83333333333334</ele><time>2026-05-03T10:25:51.002Z</time></trkpt><trkpt lat="42.26182202743774" lon="13.972866495878872"><ele>193.66666666666669</ele><time>2026-05-03T10:25:52.002Z</time></trkpt><trkpt lat="42.26184383171379" lon="13.972946722570457"><ele>193.5</ele><time>2026-05-03T10:25:53.002Z</time></trkpt><trkpt lat="42.261879975525524" lon="13.973106808028158"><ele>193.33333333333331</ele><time>2026-05-03T10:25:55.002Z</time></trkpt><trkpt lat="42.26191469397642" lon="13.973208798526812"><ele>193.16666666666666</ele><time>2026-05-03T10:25:56.002Z</time></trkpt><trkpt lat="42.26194734658942" lon="13.973292858890822"><ele>193.0</ele><time>2026-05-03T10:25:57.002Z</time></trkpt><trkpt lat="42.26200543537745" lon="13.973435454360109"><ele>193.8</ele><time>2026-05-03T10:25:59.002Z</time></trkpt><trkpt lat="42.262018159776886" lon="13.97359504894915"><ele>194.60000000000002</ele><time>2026-05-03T10:26:01.002Z</time></trkpt><trkpt lat="42.26207762453331" lon="13.973728742985665"><ele>195.39999999999998</ele><time>2026-05-03T10:26:03.002Z</time></trkpt><trkpt lat="42.262119836956686" lon="13.973792687806089"><ele>196.2</ele><time>2026-05-03T10:26:04.002Z</time></trkpt><trkpt lat="42.26215319834696" lon="13.973867836361029"><ele>197.0</ele><time>2026-05-03T10:26:05.002Z</time></trkpt><trkpt lat="42.26221402377346" lon="13.9740067257103"><ele>197.0</ele><time>2026-05-03T10:26:07.002Z</time></trkpt><trkpt lat="42.26224329159218" lon="13.974091343591029"><ele>197.0</ele><time>2026-05-03T10:26:08.002Z</time></trkpt><trkpt lat="42.26227195728927" lon="13.974167316838683"><ele>197.0</ele><time>2026-05-03T10:26:09.002Z</time></trkpt><trkpt lat="42.26230453165946" lon="13.974251073239024"><ele>197.0</ele><time>2026-05-03T10:26:10.002Z</time></trkpt><trkpt lat="42.26234128948554" lon="13.974339107922455"><ele>197.0</ele><time>2026-05-03T10:26:11.002Z</time></trkpt><trkpt lat="42.2623788397883" lon="13.974438858098322"><ele>197.0</ele><time>2026-05-03T10:26:12.002Z</time></trkpt><trkpt lat="42.26240271183374" lon="13.974550849500536"><ele>197.0</ele><time>2026-05-03T10:26:13.002Z</time></trkpt><trkpt lat="42.26242591215823" lon="13.97468482389719"><ele>197.8</ele><time>2026-05-03T10:26:14.002Z</time></trkpt><trkpt lat="42.262447919750706" lon="13.9748274956268"><ele>198.6</ele><time>2026-05-03T10:26:15.002Z</time></trkpt><trkpt lat="42.26247140255073" lon="13.974973269099712"><ele>199.4</ele><time>2026-05-03T10:26:16.002Z</time></trkpt><trkpt lat="42.26249429394202" lon="13.975112310887559"><ele>200.20000000000002</ele><time>2026-05-03T10:26:17.002Z</time></trkpt><trkpt lat="42.26251827513767" lon="13.975247447270949"><ele>201.0</ele><time>2026-05-03T10:26:18.002Z</time></trkpt><trkpt lat="42.262543556852236" lon="13.97538182460899"><ele>201.0</ele><time>2026-05-03T10:26:19.001Z</time></trkpt><trkpt lat="42.262560918802606" lon="13.975509844155939"><ele>201.0</ele><time>2026-05-03T10:26:20.001Z</time></trkpt><trkpt lat="42.262582574415475" lon="13.975634322881103"><ele>201.0</ele><time>2026-05-03T10:26:21.001Z</time></trkpt><trkpt lat="42.262606858855506" lon="13.975736356696356"><ele>201.0</ele><time>2026-05-03T10:26:22.001Z</time></trkpt><trkpt lat="42.262625077940676" lon="13.975830150502064"><ele>201.0</ele><time>2026-05-03T10:26:23.001Z</time></trkpt><trkpt lat="42.26259047119937" lon="13.975973152334186"><ele>202.60000000000002</ele><time>2026-05-03T10:26:25.001Z</time></trkpt><trkpt lat="42.262497162401154" lon="13.976084392876556"><ele>204.2</ele><time>2026-05-03T10:26:27.001Z</time></trkpt><trkpt lat="42.26244040525033" lon="13.976202005900356"><ele>205.8</ele><time>2026-05-03T10:26:29.001Z</time></trkpt><trkpt lat="42.26245070078272" lon="13.976297068756946"><ele>207.39999999999998</ele><time>2026-05-03T10:26:31.001Z</time></trkpt><trkpt lat="42.26245214658435" lon="13.976421219256926"><ele>209.0</ele><time>2026-05-03T10:26:33.001Z</time></trkpt><trkpt lat="42.26247142297159" lon="13.976537636475166"><ele>209.0</ele><time>2026-05-03T10:26:36.001Z</time></trkpt><trkpt lat="42.262497779706386" lon="13.976651997065595"><ele>209.0</ele><time>2026-05-03T10:26:38.001Z</time></trkpt><trkpt lat="42.262547705932406" lon="13.97681384494526"><ele>209.0</ele><time>2026-05-03T10:26:40.001Z</time></trkpt><trkpt lat="42.26258068056132" lon="13.97691847586591"><ele>209.0</ele><time>2026-05-03T10:26:41.001Z</time></trkpt><trkpt lat="42.262617704769205" lon="13.977050200622013"><ele>209.0</ele><time>2026-05-03T10:26:42.001Z</time></trkpt><trkpt lat="42.26265874801214" lon="13.977198385685703"><ele>210.75</ele><time>2026-05-03T10:26:43.001Z</time></trkpt><trkpt lat="42.26269636317355" lon="13.97733607376579"><ele>212.5</ele><time>2026-05-03T10:26:44.001Z</time></trkpt><trkpt lat="42.26273071703178" lon="13.977481960100633"><ele>214.25</ele><time>2026-05-03T10:26:45.001Z</time></trkpt><trkpt lat="42.262764996295694" lon="13.977630113782359"><ele>216.0</ele><time>2026-05-03T10:26:46.001Z</time></trkpt><trkpt lat="42.262799784588275" lon="13.977784627059588"><ele>218.0</ele><time>2026-05-03T10:26:47.001Z</time></trkpt><trkpt lat="42.26283403234227" lon="13.977939164393685"><ele>220.0</ele><time>2026-05-03T10:26:48.001Z</time></trkpt><trkpt lat="42.262863769102346" lon="13.978099154197334"><ele>222.0</ele><time>2026-05-03T10:26:49.001Z</time></trkpt><trkpt lat="42.26289013271121" lon="13.9782645613751"><ele>224.0</ele><time>2026-05-03T10:26:50.001Z</time></trkpt><trkpt lat="42.262918527026876" lon="13.978443920811092"><ele>225.5</ele><time>2026-05-03T10:26:51.001Z</time></trkpt><trkpt lat="42.26294408550529" lon="13.978623033193402"><ele>227.0</ele><time>2026-05-03T10:26:52.001Z</time></trkpt><trkpt lat="42.262965922367705" lon="13.978791559732938"><ele>228.5</ele><time>2026-05-03T10:26:53.001Z</time></trkpt><trkpt lat="42.262979501624336" lon="13.978952326553287"><ele>230.0</ele><time>2026-05-03T10:26:54.001Z</time></trkpt><trkpt lat="42.2629874063461" lon="13.979100946220004"><ele>230.16666666666669</ele><time>2026-05-03T10:26:55.001Z</time></trkpt><trkpt lat="42.26299560162402" lon="13.979222020222867"><ele>230.33333333333334</ele><time>2026-05-03T10:26:56.001Z</time></trkpt><trkpt lat="42.26299523435492" lon="13.97932041998976"><ele>230.5</ele><time>2026-05-03T10:26:57.001Z</time></trkpt><trkpt lat="42.26297499398685" lon="13.97945735640571"><ele>230.66666666666669</ele><time>2026-05-03T10:26:59.001Z</time></trkpt><trkpt lat="42.26295762028547" lon="13.979554425727516"><ele>230.83333333333334</ele><time>2026-05-03T10:27:02.001Z</time></trkpt><trkpt lat="42.26304894656952" lon="13.979608880019237"><ele>231.0</ele><time>2026-05-03T10:27:03.001Z</time></trkpt><trkpt lat="42.26315001611579" lon="13.979672849457293"><ele>228.66666666666666</ele><time>2026-05-03T10:27:05.001Z</time></trkpt><trkpt lat="42.263242314099955" lon="13.97979004521905"><ele>226.33333333333331</ele><time>2026-05-03T10:27:07.001Z</time></trkpt><trkpt lat="42.263291071535846" lon="13.979863338852653"><ele>224.0</ele><time>2026-05-03T10:27:08.001Z</time></trkpt><trkpt lat="42.26331947432126" lon="13.979955499783037"><ele>221.66666666666666</ele><time>2026-05-03T10:27:09.001Z</time></trkpt><trkpt lat="42.26337440423128" lon="13.980038162746014"><ele>219.33333333333331</ele><time>2026-05-03T10:27:10.001Z</time></trkpt><trkpt lat="42.263405264054555" lon="13.980150301698194"><ele>217.0</ele><time>2026-05-03T10:27:11.001Z</time></trkpt><trkpt lat="42.26342371460262" lon="13.980273255265017"><ele>216.99999999999997</ele><time>2026-05-03T10:27:12.001Z</time></trkpt><trkpt lat="42.26343422551504" lon="13.980401077075228"><ele>217.0</ele><time>2026-05-03T10:27:13.001Z</time></trkpt><trkpt lat="42.263417845656754" lon="13.980512767790474"><ele>217.0</ele><time>2026-05-03T10:27:14.001Z</time></trkpt><trkpt lat="42.26340280263357" lon="13.980616102782433"><ele>217.0</ele><time>2026-05-03T10:27:15.001Z</time></trkpt><trkpt lat="42.26338811258322" lon="13.980721183215813"><ele>216.99999999999997</ele><time>2026-05-03T10:27:16.001Z</time></trkpt><trkpt lat="42.26337408076217" lon="13.980820561382172"><ele>217.0</ele><time>2026-05-03T10:27:17.001Z</time></trkpt><trkpt lat="42.2633598218228" lon="13.980905936019107"><ele>217.2</ele><time>2026-05-03T10:27:18.001Z</time></trkpt><trkpt lat="42.26335587137992" lon="13.981065788771398"><ele>217.39999999999998</ele><time>2026-05-03T10:27:20.001Z</time></trkpt><trkpt lat="42.26340476343565" lon="13.981203648179626"><ele>217.60000000000002</ele><time>2026-05-03T10:27:22.001Z</time></trkpt><trkpt lat="42.26345264782693" lon="13.981305765068825"><ele>217.8</ele><time>2026-05-03T10:27:24.001Z</time></trkpt><trkpt lat="42.26351603389661" lon="13.981359034760226"><ele>218.0</ele><time>2026-05-03T10:27:27.001Z</time></trkpt><trkpt lat="42.26362754887651" lon="13.981249016035239"><ele>218.0</ele><time>2026-05-03T10:27:29.001Z</time></trkpt><trkpt lat="42.26367663337995" lon="13.981193453131281"><ele>218.0</ele><time>2026-05-03T10:27:30.001Z</time></trkpt><trkpt lat="42.26374738982345" lon="13.981087779667083"><ele>218.0</ele><time>2026-05-03T10:27:32.001Z</time></trkpt><trkpt lat="42.26385537976466" lon="13.981034127991975"><ele>218.0</ele><time>2026-05-03T10:27:34.001Z</time></trkpt><trkpt lat="42.263961930629904" lon="13.980994384789954"><ele>218.0</ele><time>2026-05-03T10:27:36.001Z</time></trkpt><trkpt lat="42.26404001530365" lon="13.981071423074066"><ele>215.4</ele><time>2026-05-03T10:27:38.001Z</time></trkpt><trkpt lat="42.264103664231925" lon="13.98117131464808"><ele>212.8</ele><time>2026-05-03T10:27:40.001Z</time></trkpt><trkpt lat="42.26417289739564" lon="13.981301566686748"><ele>210.2</ele><time>2026-05-03T10:27:42.001Z</time></trkpt><trkpt lat="42.264218638689236" lon="13.981365228083847"><ele>207.6</ele><time>2026-05-03T10:27:43.001Z</time></trkpt><trkpt lat="42.26426287454205" lon="13.981436589665377"><ele>205.0</ele><time>2026-05-03T10:27:44.001Z</time></trkpt><trkpt lat="42.26433588075997" lon="13.981555788801312"><ele>204.99999999999997</ele><time>2026-05-03T10:27:46.001Z</time></trkpt><trkpt lat="42.26439442915201" lon="13.981595568043652"><ele>205.0</ele><time>2026-05-03T10:27:47.001Z</time></trkpt><trkpt lat="42.264462378424646" lon="13.981624186039225"><ele>205.0</ele><time>2026-05-03T10:27:48.001Z</time></trkpt><trkpt lat="42.26456865409829" lon="13.981667442562212"><ele>205.0</ele><time>2026-05-03T10:27:50.001Z</time></trkpt><trkpt lat="42.26462510958553" lon="13.981728099264036"><ele>204.99999999999997</ele><time>2026-05-03T10:27:51.001Z</time></trkpt><trkpt lat="42.26467067396747" lon="13.981817287857272"><ele>205.0</ele><time>2026-05-03T10:27:52.001Z</time></trkpt><trkpt lat="42.26470118641563" lon="13.981907768150592"><ele>205.0</ele><time>2026-05-03T10:27:53.002Z</time></trkpt><trkpt lat="42.264719712732614" lon="13.981991400573168"><ele>205.0</ele><time>2026-05-03T10:27:54.002Z</time></trkpt><trkpt lat="42.26473962372239" lon="13.98207506220093"><ele>205.0</ele><time>2026-05-03T10:27:55.002Z</time></trkpt><trkpt lat="42.264761258880455" lon="13.98217029730058"><ele>205.0</ele><time>2026-05-03T10:27:56.002Z</time></trkpt><trkpt lat="42.264774049269775" lon="13.982274042946209"><ele>205.0</ele><time>2026-05-03T10:27:57.002Z</time></trkpt><trkpt lat="42.264787217776885" lon="13.982385143169575"><ele>205.0</ele><time>2026-05-03T10:27:58.002Z</time></trkpt><trkpt lat="42.26480224871366" lon="13.982491640045364"><ele>205.0</ele><time>2026-05-03T10:27:59.002Z</time></trkpt><trkpt lat="42.26481941904385" lon="13.982587749488642"><ele>202.33333333333331</ele><time>2026-05-03T10:28:00.002Z</time></trkpt><trkpt lat="42.26483438634874" lon="13.982681287089731"><ele>199.66666666666666</ele><time>2026-05-03T10:28:01.002Z</time></trkpt><trkpt lat="42.26484886134154" lon="13.982851251909022"><ele>197.0</ele><time>2026-05-03T10:28:03.002Z</time></trkpt><trkpt lat="42.26486468506127" lon="13.982950689544237"><ele>194.33333333333331</ele><time>2026-05-03T10:28:04.002Z</time></trkpt><trkpt lat="42.264878925275156" lon="13.983051717190929"><ele>191.66666666666666</ele><time>2026-05-03T10:28:05.002Z</time></trkpt><trkpt lat="42.264886421384695" lon="13.98315582155058"><ele>189.0</ele><time>2026-05-03T10:28:06.002Z</time></trkpt><trkpt lat="42.264891803696706" lon="13.983263563570306"><ele>188.2</ele><time>2026-05-03T10:28:07.002Z</time></trkpt><trkpt lat="42.26489924890239" lon="13.98337505505058"><ele>187.39999999999998</ele><time>2026-05-03T10:28:08.002Z</time></trkpt><trkpt lat="42.26489351303634" lon="13.983476499531175"><ele>186.6</ele><time>2026-05-03T10:28:09.002Z</time></trkpt><trkpt lat="42.26491107459599" lon="13.98362881094811"><ele>185.8</ele><time>2026-05-03T10:28:11.002Z</time></trkpt><trkpt lat="42.26493316714037" lon="13.983768492607247"><ele>185.0</ele><time>2026-05-03T10:28:13.002Z</time></trkpt><trkpt lat="42.26496785459852" lon="13.983884048259748"><ele>185.0</ele><time>2026-05-03T10:28:15.002Z</time></trkpt><trkpt lat="42.26505758896566" lon="13.983933397995742"><ele>185.0</ele><time>2026-05-03T10:28:17.002Z</time></trkpt><trkpt lat="42.265165033762486" lon="13.983890142126652"><ele>185.0</ele><time>2026-05-03T10:28:19.002Z</time></trkpt><trkpt lat="42.265212305914034" lon="13.983833770575927"><ele>185.0</ele><time>2026-05-03T10:28:20.002Z</time></trkpt><trkpt lat="42.26525749537481" lon="13.983675990217348"><ele>185.0</ele><time>2026-05-03T10:28:22.002Z</time></trkpt><trkpt lat="42.26526655122232" lon="13.983569093712962"><ele>185.0</ele><time>2026-05-03T10:28:23.002Z</time></trkpt><trkpt lat="42.265256015505685" lon="13.983467681708829"><ele>185.0</ele><time>2026-05-03T10:28:24.002Z</time></trkpt><trkpt lat="42.26525455887279" lon="13.983347470870402"><ele>185.0</ele><time>2026-05-03T10:28:25Z</time></trkpt><trkpt lat="42.26522336529376" lon="13.983258673621801"><ele>185.0</ele><time>2026-05-03T10:28:26Z</time></trkpt><trkpt lat="42.26521125361703" lon="13.983161841244659"><ele>185.0</ele><time>2026-05-03T10:28:27Z</time></trkpt><trkpt lat="42.265199539378166" lon="13.983060455431827"><ele>185.0</ele><time>2026-05-03T10:28:28Z</time></trkpt><trkpt lat="42.26521395444378" lon="13.982961047805341"><ele>185.66666666666666</ele><time>2026-05-03T10:28:29Z</time></trkpt><trkpt lat="42.26522169954396" lon="13.982866884931546"><ele>186.33333333333331</ele><time>2026-05-03T10:28:30Z</time></trkpt><trkpt lat="42.265225832088824" lon="13.982758835244717"><ele>187.0</ele><time>2026-05-03T10:28:31Z</time></trkpt><trkpt lat="42.26527110877746" lon="13.98266138003993"><ele>187.66666666666666</ele><time>2026-05-03T10:28:32Z</time></trkpt><trkpt lat="42.265291655612444" lon="13.982560011242805"><ele>188.33333333333334</ele><time>2026-05-03T10:28:33Z</time></trkpt><trkpt lat="42.265353727019004" lon="13.98243344094157"><ele>189.0</ele><time>2026-05-03T10:28:35Z</time></trkpt><trkpt lat="42.26539487787406" lon="13.98231234566253"><ele>189.0</ele><time>2026-05-03T10:28:37Z</time></trkpt><trkpt lat="42.26542702631831" lon="13.982232757409113"><ele>189.0</ele><time>2026-05-03T10:28:38Z</time></trkpt><trkpt lat="42.26550952630584" lon="13.982143589677394"><ele>189.0</ele><time>2026-05-03T10:28:40Z</time></trkpt><trkpt lat="42.265616892726975" lon="13.982136727314304"><ele>189.0</ele><time>2026-05-03T10:28:42Z</time></trkpt><trkpt lat="42.26571333825149" lon="13.982249694380217"><ele>189.0</ele><time>2026-05-03T10:28:44Z</time></trkpt><trkpt lat="42.26576581812288" lon="13.982329750887757"><ele>185.6</ele><time>2026-05-03T10:28:45Z</time></trkpt><trkpt lat="42.2658220923232" lon="13.982398603407354"><ele>182.2</ele><time>2026-05-03T10:28:46Z</time></trkpt><trkpt lat="42.265895663431316" lon="13.982432602572908"><ele>178.79999999999998</ele><time>2026-05-03T10:28:47Z</time></trkpt><trkpt lat="42.26597599622232" lon="13.982483460192045"><ele>175.39999999999998</ele><time>2026-05-03T10:28:48Z</time></trkpt><trkpt lat="42.26601382784427" lon="13.982648005948093"><ele>172.0</ele><time>2026-05-03T10:28:49Z</time></trkpt><trkpt lat="42.26608510776132" lon="13.982745042380854"><ele>172.0</ele><time>2026-05-03T10:28:50Z</time></trkpt><trkpt lat="42.26616292503385" lon="13.982822840508254"><ele>172.0</ele><time>2026-05-03T10:28:51Z</time></trkpt><trkpt lat="42.26625869545978" lon="13.982874637900172"><ele>172.0</ele><time>2026-05-03T10:28:52Z</time></trkpt><trkpt lat="42.26635867454713" lon="13.982903612492851"><ele>172.0</ele><time>2026-05-03T10:28:53Z</time></trkpt><trkpt lat="42.26645934815243" lon="13.982907202984453"><ele>172.0</ele><time>2026-05-03T10:28:54Z</time></trkpt><trkpt lat="42.266557295204926" lon="13.98289739090995"><ele>170.33333333333334</ele><time>2026-05-03T10:28:55Z</time></trkpt><trkpt lat="42.26664472425818" lon="13.982889652497729"><ele>168.66666666666669</ele><time>2026-05-03T10:28:56Z</time></trkpt><trkpt lat="42.2667235002947" lon="13.982897448716685"><ele>167.0</ele><time>2026-05-03T10:28:57Z</time></trkpt><trkpt lat="42.266787425937665" lon="13.982924824647263"><ele>165.33333333333334</ele><time>2026-05-03T10:28:58Z</time></trkpt><trkpt lat="42.26686484836571" lon="13.982941883614076"><ele>163.66666666666666</ele><time>2026-05-03T10:29:00Z</time></trkpt><trkpt lat="42.26688537757228" lon="13.983121057545102"><ele>162.0</ele><time>2026-05-03T10:29:01Z</time></trkpt><trkpt lat="42.26689471025012" lon="13.983230566013827"><ele>162.5</ele><time>2026-05-03T10:29:02Z</time></trkpt><trkpt lat="42.26689893541971" lon="13.983369064516772"><ele>163.0</ele><time>2026-05-03T10:29:03Z</time></trkpt><trkpt lat="42.266908338838995" lon="13.983531834175912"><ele>163.5</ele><time>2026-05-03T10:29:04.001Z</time></trkpt><trkpt lat="42.26692259016601" lon="13.98370460221999"><ele>164.0</ele><time>2026-05-03T10:29:05.001Z</time></trkpt><trkpt lat="42.26693616568112" lon="13.983870626654246"><ele>164.0</ele><time>2026-05-03T10:29:06.001Z</time></trkpt><trkpt lat="42.26695120302511" lon="13.984046331241931"><ele>164.0</ele><time>2026-05-03T10:29:07.001Z</time></trkpt><trkpt lat="42.266970773032064" lon="13.984229879046282"><ele>164.0</ele><time>2026-05-03T10:29:08.001Z</time></trkpt><trkpt lat="42.26699421897579" lon="13.984419310453653"><ele>164.0</ele><time>2026-05-03T10:29:09.001Z</time></trkpt><trkpt lat="42.2670188125331" lon="13.984611110643367"><ele>162.75</ele><time>2026-05-03T10:29:10.001Z</time></trkpt><trkpt lat="42.26704688503307" lon="13.984802935905718"><ele>161.5</ele><time>2026-05-03T10:29:11.001Z</time></trkpt><trkpt lat="42.26707550077492" lon="13.984996487827079"><ele>160.25</ele><time>2026-05-03T10:29:12.001Z</time></trkpt><trkpt lat="42.26709086507066" lon="13.985193967740878"><ele>159.0</ele><time>2026-05-03T10:29:13.001Z</time></trkpt><trkpt lat="42.26708908397132" lon="13.985393341745567"><ele>157.5</ele><time>2026-05-03T10:29:14.001Z</time></trkpt><trkpt lat="42.26708402553602" lon="13.985591022581715"><ele>156.0</ele><time>2026-05-03T10:29:15.001Z</time></trkpt><trkpt lat="42.26707417637552" lon="13.985785752107548"><ele>154.5</ele><time>2026-05-03T10:29:16.001Z</time></trkpt><trkpt lat="42.26705682825157" lon="13.985982794881632"><ele>153.0</ele><time>2026-05-03T10:29:17.001Z</time></trkpt><trkpt lat="42.267028109674136" lon="13.986181109053483"><ele>151.33333333333334</ele><time>2026-05-03T10:29:18.001Z</time></trkpt><trkpt lat="42.266995561109425" lon="13.986380428573312"><ele>149.66666666666669</ele><time>2026-05-03T10:29:19.001Z</time></trkpt><trkpt lat="42.266959370468875" lon="13.986576504562393"><ele>148.0</ele><time>2026-05-03T10:29:20.001Z</time></trkpt><trkpt lat="42.26691913447572" lon="13.986773305710118"><ele>146.0</ele><time>2026-05-03T10:29:21.001Z</time></trkpt><trkpt lat="42.26687731563275" lon="13.986971271881263"><ele>144.0</ele><time>2026-05-03T10:29:22.001Z</time></trkpt><trkpt lat="42.26683805937035" lon="13.987172017647529"><ele>142.0</ele><time>2026-05-03T10:29:23.001Z</time></trkpt><trkpt lat="42.26679776418002" lon="13.987372344509419"><ele>140.33333333333334</ele><time>2026-05-03T10:29:24.001Z</time></trkpt><trkpt lat="42.26675143018508" lon="13.987569059541748"><ele>138.66666666666666</ele><time>2026-05-03T10:29:25.001Z</time></trkpt><trkpt lat="42.26670270143944" lon="13.987761278987819"><ele>137.0</ele><time>2026-05-03T10:29:26.001Z</time></trkpt><trkpt lat="42.26665981895966" lon="13.987957646406201"><ele>137.0</ele><time>2026-05-03T10:29:27.001Z</time></trkpt><trkpt lat="42.26662224074561" lon="13.988159009387294"><ele>137.0</ele><time>2026-05-03T10:29:28.001Z</time></trkpt><trkpt lat="42.2665901054039" lon="13.988359034494147"><ele>137.0</ele><time>2026-05-03T10:29:29.001Z</time></trkpt><trkpt lat="42.266571533562555" lon="13.988561661471396"><ele>135.75</ele><time>2026-05-03T10:29:30.001Z</time></trkpt><trkpt lat="42.26657077748769" lon="13.988762659671226"><ele>134.5</ele><time>2026-05-03T10:29:31.001Z</time></trkpt><trkpt lat="42.2665862291073" lon="13.988965098905473"><ele>133.25</ele><time>2026-05-03T10:29:32.001Z</time></trkpt><trkpt lat="42.266609761992015" lon="13.9891634871018"><ele>132.0</ele><time>2026-05-03T10:29:33.001Z</time></trkpt><trkpt lat="42.266637818278895" lon="13.989358313421377"><ele>132.0</ele><time>2026-05-03T10:29:34.001Z</time></trkpt><trkpt lat="42.26666947447719" lon="13.989545365352962"><ele>132.0</ele><time>2026-05-03T10:29:35.001Z</time></trkpt><trkpt lat="42.266702192883784" lon="13.989725149289058"><ele>132.0</ele><time>2026-05-03T10:29:36.001Z</time></trkpt><trkpt lat="42.266734295786385" lon="13.989900744488004"><ele>132.0</ele><time>2026-05-03T10:29:37.001Z</time></trkpt><trkpt lat="42.266764715130726" lon="13.990074007121697"><ele>131.75</ele><time>2026-05-03T10:29:38.001Z</time></trkpt><trkpt lat="42.26679735119346" lon="13.990251977437785"><ele>131.5</ele><time>2026-05-03T10:29:39.001Z</time></trkpt><trkpt lat="42.26682809341586" lon="13.990433101990883"><ele>131.25</ele><time>2026-05-03T10:29:40.001Z</time></trkpt><trkpt lat="42.2668449229574" lon="13.990617595885311"><ele>131.0</ele><time>2026-05-03T10:29:41.001Z</time></trkpt><trkpt lat="42.266847661924814" lon="13.990806305707528"><ele>129.5</ele><time>2026-05-03T10:29:42.001Z</time></trkpt><trkpt lat="42.266827823491845" lon="13.990991529314554"><ele>128.0</ele><time>2026-05-03T10:29:43.001Z</time></trkpt><trkpt lat="42.26681089689862" lon="13.991178048686397"><ele>126.5</ele><time>2026-05-03T10:29:44.001Z</time></trkpt><trkpt lat="42.26679027124604" lon="13.991361504379903"><ele>125.0</ele><time>2026-05-03T10:29:45.001Z</time></trkpt><trkpt lat="42.266763040216034" lon="13.991538683864098"><ele>123.75</ele><time>2026-05-03T10:29:46.001Z</time></trkpt><trkpt lat="42.26673269271376" lon="13.99171516009679"><ele>122.5</ele><time>2026-05-03T10:29:47.001Z</time></trkpt><trkpt lat="42.266700845219404" lon="13.991887944320709"><ele>121.25</ele><time>2026-05-03T10:29:48.001Z</time></trkpt><trkpt lat="42.26667215903776" lon="13.992062386924202"><ele>120.0</ele><time>2026-05-03T10:29:49.001Z</time></trkpt><trkpt lat="42.26664322420681" lon="13.992241911956881"><ele>120.0</ele><time>2026-05-03T10:29:50.001Z</time></trkpt><trkpt lat="42.26661214910173" lon="13.992418897878853"><ele>120.0</ele><time>2026-05-03T10:29:51.001Z</time></trkpt><trkpt lat="42.26658234664985" lon="13.992596039436927"><ele>120.0</ele><time>2026-05-03T10:29:52.001Z</time></trkpt><trkpt lat="42.266555259100336" lon="13.992772468889305"><ele>120.0</ele><time>2026-05-03T10:29:53.001Z</time></trkpt><trkpt lat="42.26652544198499" lon="13.992946805435476"><ele>119.5</ele><time>2026-05-03T10:29:54.001Z</time></trkpt><trkpt lat="42.266495249015804" lon="13.993119296291352"><ele>119.0</ele><time>2026-05-03T10:29:55.001Z</time></trkpt><trkpt lat="42.2664631712292" lon="13.993291056492781"><ele>118.5</ele><time>2026-05-03T10:29:56.001Z</time></trkpt><trkpt lat="42.26643497981147" lon="13.993456799145902"><ele>118.0</ele><time>2026-05-03T10:29:57.001Z</time></trkpt><trkpt lat="42.266406079714244" lon="13.993617578487818"><ele>119.5</ele><time>2026-05-03T10:29:58.001Z</time></trkpt><trkpt lat="42.266379722952635" lon="13.993773547237756"><ele>121.0</ele><time>2026-05-03T10:29:59.001Z</time></trkpt><trkpt lat="42.26635275729206" lon="13.993928196667392"><ele>122.5</ele><time>2026-05-03T10:30:00.001Z</time></trkpt><trkpt lat="42.26632544705173" lon="13.994080006798042"><ele>124.0</ele><time>2026-05-03T10:30:01.001Z</time></trkpt><trkpt lat="42.266300785397725" lon="13.994231448079775"><ele>124.0</ele><time>2026-05-03T10:30:02.001Z</time></trkpt><trkpt lat="42.26627681567023" lon="13.994377605382182"><ele>124.0</ele><time>2026-05-03T10:30:03.001Z</time></trkpt><trkpt lat="42.26625243571415" lon="13.994517692277597"><ele>124.0</ele><time>2026-05-03T10:30:04.001Z</time></trkpt><trkpt lat="42.26622751145913" lon="13.99465227592433"><ele>124.0</ele><time>2026-05-03T10:30:05.001Z</time></trkpt><trkpt lat="42.266202967507446" lon="13.994775303389169"><ele>124.0</ele><time>2026-05-03T10:30:06.001Z</time></trkpt><trkpt lat="42.26617105801334" lon="13.994882407035666"><ele>124.0</ele><time>2026-05-03T10:30:07.001Z</time></trkpt><trkpt lat="42.266126772852466" lon="13.994972718694104"><ele>124.00000000000001</ele><time>2026-05-03T10:30:08.001Z</time></trkpt><trkpt lat="42.26607842482464" lon="13.995041570507267"><ele>124.0</ele><time>2026-05-03T10:30:09.001Z</time></trkpt><trkpt lat="42.266028853628896" lon="13.99510066947104"><ele>124.0</ele><time>2026-05-03T10:30:10.001Z</time></trkpt><trkpt lat="42.2659930346876" lon="13.995171262630894"><ele>124.00000000000001</ele><time>2026-05-03T10:30:11.001Z</time></trkpt><trkpt lat="42.26598403629965" lon="13.995265260816092"><ele>124.0</ele><time>2026-05-03T10:30:12.001Z</time></trkpt><trkpt lat="42.26600120603908" lon="13.995369778571616"><ele>124.0</ele><time>2026-05-03T10:30:13.001Z</time></trkpt><trkpt lat="42.26602292023408" lon="13.995469667786152"><ele>123.6</ele><time>2026-05-03T10:30:14.001Z</time></trkpt><trkpt lat="42.26603088239201" lon="13.99558345265412"><ele>123.2</ele><time>2026-05-03T10:30:15.001Z</time></trkpt><trkpt lat="42.26604746315168" lon="13.995705016253178"><ele>122.79999999999998</ele><time>2026-05-03T10:30:16.001Z</time></trkpt><trkpt lat="42.26605689635294" lon="13.995828364146844"><ele>122.39999999999999</ele><time>2026-05-03T10:30:17.001Z</time></trkpt><trkpt lat="42.266000667116906" lon="13.99595716407545"><ele>122.0</ele><time>2026-05-03T10:30:18.001Z</time></trkpt><trkpt lat="42.26598748526469" lon="13.996066730472716"><ele>121.6</ele><time>2026-05-03T10:30:19.001Z</time></trkpt><trkpt lat="42.26597627081407" lon="13.996165063952807"><ele>121.19999999999999</ele><time>2026-05-03T10:30:20.001Z</time></trkpt><trkpt lat="42.26596525663096" lon="13.99625702477845"><ele>120.8</ele><time>2026-05-03T10:30:21.001Z</time></trkpt><trkpt lat="42.26594314907901" lon="13.99642448284459"><ele>120.4</ele><time>2026-05-03T10:30:23.001Z</time></trkpt><trkpt lat="42.26592805656278" lon="13.996570603974323"><ele>120.0</ele><time>2026-05-03T10:30:25.001Z</time></trkpt><trkpt lat="42.26591252390683" lon="13.996680088926043"><ele>120.0</ele><time>2026-05-03T10:30:27.001Z</time></trkpt><trkpt lat="42.265890724730454" lon="13.996815419808602"><ele>120.0</ele><time>2026-05-03T10:30:29.001Z</time></trkpt><trkpt lat="42.26586660731198" lon="13.996921842899779"><ele>120.0</ele><time>2026-05-03T10:30:30Z</time></trkpt><trkpt lat="42.26583134893982" lon="13.99705517064671"><ele>120.0</ele><time>2026-05-03T10:30:31Z</time></trkpt><trkpt lat="42.26579620528798" lon="13.99721410807932"><ele>120.0</ele><time>2026-05-03T10:30:32Z</time></trkpt><trkpt lat="42.26576846966514" lon="13.997369417926905"><ele>119.5</ele><time>2026-05-03T10:30:33Z</time></trkpt><trkpt lat="42.26574317807406" lon="13.997522597979422"><ele>119.0</ele><time>2026-05-03T10:30:34Z</time></trkpt><trkpt lat="42.265712007408425" lon="13.997686031288634"><ele>118.5</ele><time>2026-05-03T10:30:35Z</time></trkpt><trkpt lat="42.26567270820268" lon="13.997852305399263"><ele>118.0</ele><time>2026-05-03T10:30:36Z</time></trkpt><trkpt lat="42.26562506338466" lon="13.998019133751434"><ele>117.75</ele><time>2026-05-03T10:30:37Z</time></trkpt><trkpt lat="42.26556928977283" lon="13.998177110027093"><ele>117.5</ele><time>2026-05-03T10:30:38Z</time></trkpt><trkpt lat="42.2655026491044" lon="13.998331733071703"><ele>117.25</ele><time>2026-05-03T10:30:39Z</time></trkpt><trkpt lat="42.26542605791083" lon="13.998480825235104"><ele>117.0</ele><time>2026-05-03T10:30:40Z</time></trkpt><trkpt lat="42.26533837905816" lon="13.998618364834483"><ele>117.0</ele><time>2026-05-03T10:30:41Z</time></trkpt><trkpt lat="42.265238476998164" lon="13.998743046951832"><ele>117.0</ele><time>2026-05-03T10:30:42Z</time></trkpt><trkpt lat="42.26513294629957" lon="13.998868496098222"><ele>117.0</ele><time>2026-05-03T10:30:43Z</time></trkpt><trkpt lat="42.26501762078023" lon="13.99899419861883"><ele>117.0</ele><time>2026-05-03T10:30:44Z</time></trkpt><trkpt lat="42.26489349353198" lon="13.999128233306351"><ele>117.33333333333334</ele><time>2026-05-03T10:30:45Z</time></trkpt><trkpt lat="42.26476112863069" lon="13.999268219002067"><ele>117.66666666666667</ele><time>2026-05-03T10:30:46Z</time></trkpt><trkpt lat="42.264634058878876" lon="13.999399511541057"><ele>118.0</ele><time>2026-05-03T10:30:47Z</time></trkpt><trkpt lat="42.2645022240922" lon="13.999529711360983"><ele>118.0</ele><time>2026-05-03T10:30:48Z</time></trkpt><trkpt lat="42.26436632344812" lon="13.999659330324855"><ele>118.0</ele><time>2026-05-03T10:30:49Z</time></trkpt><trkpt lat="42.264227911448394" lon="13.999793571821948"><ele>118.0</ele><time>2026-05-03T10:30:50.001Z</time></trkpt><trkpt lat="42.26409104817782" lon="13.999929322559787"><ele>118.0</ele><time>2026-05-03T10:30:51.001Z</time></trkpt><trkpt lat="42.263955566956376" lon="14.00006467168618"><ele>118.0</ele><time>2026-05-03T10:30:52.001Z</time></trkpt><trkpt lat="42.26382204941605" lon="14.000198181261647"><ele>118.0</ele><time>2026-05-03T10:30:53.001Z</time></trkpt><trkpt lat="42.26369450672078" lon="14.000327287350567"><ele>117.5</ele><time>2026-05-03T10:30:54.001Z</time></trkpt><trkpt lat="42.263576420552425" lon="14.000453193406134"><ele>117.0</ele><time>2026-05-03T10:30:55.001Z</time></trkpt><trkpt lat="42.26347186097653" lon="14.000588281275531"><ele>116.5</ele><time>2026-05-03T10:30:56.001Z</time></trkpt><trkpt lat="42.26337985202995" lon="14.000738709420936"><ele>116.0</ele><time>2026-05-03T10:30:57.001Z</time></trkpt><trkpt lat="42.263309323225656" lon="14.000906127824656"><ele>116.0</ele><time>2026-05-03T10:30:58.001Z</time></trkpt><trkpt lat="42.263257335472645" lon="14.00108134806726"><ele>116.0</ele><time>2026-05-03T10:30:59.001Z</time></trkpt><trkpt lat="42.263222338679405" lon="14.001266128327327"><ele>116.0</ele><time>2026-05-03T10:31:00.001Z</time></trkpt><trkpt lat="42.26320464791058" lon="14.001457170581995"><ele>116.0</ele><time>2026-05-03T10:31:01.001Z</time></trkpt><trkpt lat="42.2632087831515" lon="14.001650588537206"><ele>114.75</ele><time>2026-05-03T10:31:02.001Z</time></trkpt><trkpt lat="42.263237350563195" lon="14.00184140174079"><ele>113.5</ele><time>2026-05-03T10:31:03.001Z</time></trkpt><trkpt lat="42.26328906380216" lon="14.00202840017303"><ele>112.25</ele><time>2026-05-03T10:31:04.001Z</time></trkpt><trkpt lat="42.26335720771515" lon="14.00220618960431"><ele>111.0</ele><time>2026-05-03T10:31:05.001Z</time></trkpt><trkpt lat="42.26343270384815" lon="14.002377332561581"><ele>110.5</ele><time>2026-05-03T10:31:06.001Z</time></trkpt><trkpt lat="42.26351243151569" lon="14.002549555362895"><ele>110.0</ele><time>2026-05-03T10:31:07.001Z</time></trkpt><trkpt lat="42.26358922660433" lon="14.002714228341173"><ele>109.5</ele><time>2026-05-03T10:31:08.001Z</time></trkpt><trkpt lat="42.26366327149676" lon="14.002872761073476"><ele>109.0</ele><time>2026-05-03T10:31:09.001Z</time></trkpt><trkpt lat="42.26373797247487" lon="14.00302656219624"><ele>109.0</ele><time>2026-05-03T10:31:10.001Z</time></trkpt><trkpt lat="42.26380726363478" lon="14.003172264884189"><ele>109.0</ele><time>2026-05-03T10:31:11.001Z</time></trkpt><trkpt lat="42.26386616198271" lon="14.003304119348998"><ele>109.0</ele><time>2026-05-03T10:31:12.001Z</time></trkpt><trkpt lat="42.263910761921956" lon="14.003419359865154"><ele>109.0</ele><time>2026-05-03T10:31:13.001Z</time></trkpt><trkpt lat="42.263944781378164" lon="14.00352279558157"><ele>109.0</ele><time>2026-05-03T10:31:14.001Z</time></trkpt><trkpt lat="42.2639660216096" lon="14.003620615353643"><ele>109.00000000000001</ele><time>2026-05-03T10:31:15.001Z</time></trkpt><trkpt lat="42.26396951009227" lon="14.003718385828911"><ele>109.0</ele><time>2026-05-03T10:31:16.001Z</time></trkpt><trkpt lat="42.263956198042784" lon="14.003809045087698"><ele>109.0</ele><time>2026-05-03T10:31:17.001Z</time></trkpt><trkpt lat="42.26393926402221" lon="14.003896038156197"><ele>109.0</ele><time>2026-05-03T10:31:18.001Z</time></trkpt><trkpt lat="42.263960823117024" lon="14.004059713680688"><ele>109.00000000000001</ele><time>2026-05-03T10:31:20.001Z</time></trkpt><trkpt lat="42.26400961262015" lon="14.004114627020348"><ele>109.0</ele><time>2026-05-03T10:31:21.001Z</time></trkpt><trkpt lat="42.26407774317575" lon="14.00415449551125"><ele>109.2</ele><time>2026-05-03T10:31:22.001Z</time></trkpt><trkpt lat="42.264153560659835" lon="14.004192271424488"><ele>109.4</ele><time>2026-05-03T10:31:23.001Z</time></trkpt><trkpt lat="42.26422196541846" lon="14.00426302267779"><ele>109.6</ele><time>2026-05-03T10:31:24.001Z</time></trkpt><trkpt lat="42.26428554430636" lon="14.004359528857284"><ele>109.8</ele><time>2026-05-03T10:31:25.001Z</time></trkpt><trkpt lat="42.26434987078928" lon="14.004474965301391"><ele>110.0</ele><time>2026-05-03T10:31:26.001Z</time></trkpt><trkpt lat="42.26441305698027" lon="14.004598733506286"><ele>110.0</ele><time>2026-05-03T10:31:27.001Z</time></trkpt><trkpt lat="42.26447195666432" lon="14.004726437461912"><ele>110.0</ele><time>2026-05-03T10:31:28.001Z</time></trkpt><trkpt lat="42.26453043451992" lon="14.004862087231514"><ele>110.0</ele><time>2026-05-03T10:31:29.001Z</time></trkpt><trkpt lat="42.26458985645531" lon="14.005005533044821"><ele>110.0</ele><time>2026-05-03T10:31:30.001Z</time></trkpt><trkpt lat="42.264654315122606" lon="14.005149543525278"><ele>108.75</ele><time>2026-05-03T10:31:31.001Z</time></trkpt><trkpt lat="42.26472091477475" lon="14.005295224670089"><ele>107.5</ele><time>2026-05-03T10:31:32.001Z</time></trkpt><trkpt lat="42.26478523885019" lon="14.005441086669975"><ele>106.25</ele><time>2026-05-03T10:31:33.001Z</time></trkpt><trkpt lat="42.26484945714143" lon="14.005589354491951"><ele>105.0</ele><time>2026-05-03T10:31:34.001Z</time></trkpt><trkpt lat="42.26491354765663" lon="14.005736436965647"><ele>104.25</ele><time>2026-05-03T10:31:35.001Z</time></trkpt><trkpt lat="42.26497698458835" lon="14.005881544234969"><ele>103.5</ele><time>2026-05-03T10:31:36.001Z</time></trkpt><trkpt lat="42.26504267138004" lon="14.006023871514623"><ele>102.75</ele><time>2026-05-03T10:31:37.001Z</time></trkpt><trkpt lat="42.265104340136425" lon="14.006164431596797"><ele>102.0</ele><time>2026-05-03T10:31:38.001Z</time></trkpt><trkpt lat="42.265161424680066" lon="14.006306593954022"><ele>102.0</ele><time>2026-05-03T10:31:39.001Z</time></trkpt><trkpt lat="42.26521825379851" lon="14.006448098938193"><ele>102.0</ele><time>2026-05-03T10:31:40.001Z</time></trkpt><trkpt lat="42.26527798754776" lon="14.0065853952352"><ele>102.0</ele><time>2026-05-03T10:31:41.001Z</time></trkpt><trkpt lat="42.265338562210495" lon="14.00671894657766"><ele>102.0</ele><time>2026-05-03T10:31:42.001Z</time></trkpt><trkpt lat="42.26539657034325" lon="14.00685334483837"><ele>102.0</ele><time>2026-05-03T10:31:43.001Z</time></trkpt><trkpt lat="42.26545593947774" lon="14.006985514765418"><ele>102.0</ele><time>2026-05-03T10:31:44.001Z</time></trkpt><trkpt lat="42.2655161712092" lon="14.00711614673575"><ele>102.0</ele><time>2026-05-03T10:31:45.001Z</time></trkpt><trkpt lat="42.265576027623936" lon="14.0072473469492"><ele>102.0</ele><time>2026-05-03T10:31:46.001Z</time></trkpt><trkpt lat="42.26563680421898" lon="14.007376938481565"><ele>101.8</ele><time>2026-05-03T10:31:47.001Z</time></trkpt><trkpt lat="42.26570239475102" lon="14.007499365481303"><ele>101.6</ele><time>2026-05-03T10:31:48.001Z</time></trkpt><trkpt lat="42.265774843784136" lon="14.00760926373572"><ele>101.39999999999999</ele><time>2026-05-03T10:31:49.001Z</time></trkpt><trkpt lat="42.26584936464064" lon="14.007707107385013"><ele>101.19999999999999</ele><time>2026-05-03T10:31:50.001Z</time></trkpt><trkpt lat="42.26592371336591" lon="14.007800590656228"><ele>101.0</ele><time>2026-05-03T10:31:51.001Z</time></trkpt><trkpt lat="42.26600220525949" lon="14.007893189844399"><ele>101.0</ele><time>2026-05-03T10:31:52.001Z</time></trkpt><trkpt lat="42.26608527122189" lon="14.007983473716063"><ele>101.0</ele><time>2026-05-03T10:31:53.001Z</time></trkpt><trkpt lat="42.266172229947365" lon="14.008074278653512"><ele>101.0</ele><time>2026-05-03T10:31:54.001Z</time></trkpt><trkpt lat="42.26625949559188" lon="14.008167880806287"><ele>101.0</ele><time>2026-05-03T10:31:55.001Z</time></trkpt><trkpt lat="42.26634710369338" lon="14.00826943880026"><ele>101.0</ele><time>2026-05-03T10:31:56.001Z</time></trkpt><trkpt lat="42.26643481727149" lon="14.008380460565695"><ele>100.5</ele><time>2026-05-03T10:31:57.001Z</time></trkpt><trkpt lat="42.26651816378368" lon="14.008505277197509"><ele>100.0</ele><time>2026-05-03T10:31:58.001Z</time></trkpt><trkpt lat="42.26659243981903" lon="14.008643120385761"><ele>99.5</ele><time>2026-05-03T10:31:59.001Z</time></trkpt><trkpt lat="42.2666585913556" lon="14.008784878562413"><ele>99.0</ele><time>2026-05-03T10:32:00.001Z</time></trkpt><trkpt lat="42.266724130353225" lon="14.008920812782225"><ele>99.0</ele><time>2026-05-03T10:32:01.001Z</time></trkpt><trkpt lat="42.26678915597127" lon="14.009055140272471"><ele>99.0</ele><time>2026-05-03T10:32:02.001Z</time></trkpt><trkpt lat="42.26684965085087" lon="14.009187175054427"><ele>99.0</ele><time>2026-05-03T10:32:03.001Z</time></trkpt><trkpt lat="42.266904727919986" lon="14.009313255095668"><ele>99.0</ele><time>2026-05-03T10:32:04.001Z</time></trkpt><trkpt lat="42.266955561853514" lon="14.00942969357224"><ele>99.0</ele><time>2026-05-03T10:32:05.001Z</time></trkpt><trkpt lat="42.26700273798107" lon="14.00953612576474"><ele>99.16666666666667</ele><time>2026-05-03T10:32:06.001Z</time></trkpt><trkpt lat="42.267047655863436" lon="14.009631131803554"><ele>99.33333333333334</ele><time>2026-05-03T10:32:07.001Z</time></trkpt><trkpt lat="42.26708801126467" lon="14.009721385658027"><ele>99.5</ele><time>2026-05-03T10:32:08.001Z</time></trkpt><trkpt lat="42.267126620278084" lon="14.009812367234016"><ele>99.66666666666667</ele><time>2026-05-03T10:32:09.001Z</time></trkpt><trkpt lat="42.267165468552115" lon="14.009908451818752"><ele>99.83333333333334</ele><time>2026-05-03T10:32:10.001Z</time></trkpt><trkpt lat="42.26720471049562" lon="14.01000337584357"><ele>100.0</ele><time>2026-05-03T10:32:11.001Z</time></trkpt><trkpt lat="42.26723209011186" lon="14.010101898695352"><ele>100.00000000000001</ele><time>2026-05-03T10:32:12.001Z</time></trkpt><trkpt lat="42.26723921350815" lon="14.010202492520618"><ele>100.0</ele><time>2026-05-03T10:32:13.001Z</time></trkpt><trkpt lat="42.26721485037566" lon="14.010301413952982"><ele>100.0</ele><time>2026-05-03T10:32:14.001Z</time></trkpt><trkpt lat="42.26719027930057" lon="14.010407759168107"><ele>100.0</ele><time>2026-05-03T10:32:15.001Z</time></trkpt><trkpt lat="42.26716034417866" lon="14.010506141976942"><ele>100.00000000000001</ele><time>2026-05-03T10:32:16.001Z</time></trkpt><trkpt lat="42.267107731139" lon="14.010587906457125"><ele>100.0</ele><time>2026-05-03T10:32:17.002Z</time></trkpt><trkpt lat="42.26704511847238" lon="14.010641673653868"><ele>100.0</ele><time>2026-05-03T10:32:18.002Z</time></trkpt><trkpt lat="42.266938190498465" lon="14.010719733028518"><ele>100.0</ele><time>2026-05-03T10:32:20.002Z</time></trkpt><trkpt lat="42.26687496597238" lon="14.010788457138357"><ele>100.0</ele><time>2026-05-03T10:32:21.002Z</time></trkpt><trkpt lat="42.266795982406556" lon="14.010863538176215"><ele>100.0</ele><time>2026-05-03T10:32:22.002Z</time></trkpt><trkpt lat="42.266704404723804" lon="14.010936355382018"><ele>100.0</ele><time>2026-05-03T10:32:23.002Z</time></trkpt><trkpt lat="42.26660788369042" lon="14.01101153026067"><ele>99.75</ele><time>2026-05-03T10:32:24.002Z</time></trkpt><trkpt lat="42.26651150548996" lon="14.011097550513142"><ele>99.5</ele><time>2026-05-03T10:32:25.002Z</time></trkpt><trkpt lat="42.26641495292085" lon="14.011185347149198"><ele>99.25</ele><time>2026-05-03T10:32:26.002Z</time></trkpt><trkpt lat="42.26631646688052" lon="14.011265167574697"><ele>99.0</ele><time>2026-05-03T10:32:27.002Z</time></trkpt><trkpt lat="42.2662223020403" lon="14.011344863232637"><ele>99.2</ele><time>2026-05-03T10:32:28.002Z</time></trkpt><trkpt lat="42.26613100153476" lon="14.011420791620136"><ele>99.4</ele><time>2026-05-03T10:32:29.002Z</time></trkpt><trkpt lat="42.266040117395015" lon="14.011494178428464"><ele>99.6</ele><time>2026-05-03T10:32:30.002Z</time></trkpt><trkpt lat="42.265948504655796" lon="14.011568548875626"><ele>99.8</ele><time>2026-05-03T10:32:31.002Z</time></trkpt><trkpt lat="42.26585666343918" lon="14.011645535493335"><ele>100.0</ele><time>2026-05-03T10:32:32.002Z</time></trkpt><trkpt lat="42.265764086318576" lon="14.011717604875699"><ele>100.0</ele><time>2026-05-03T10:32:33.002Z</time></trkpt><trkpt lat="42.26566963620891" lon="14.011787389881954"><ele>100.0</ele><time>2026-05-03T10:32:34.002Z</time></trkpt><trkpt lat="42.265574237190854" lon="14.011861689950699"><ele>100.0</ele><time>2026-05-03T10:32:35.002Z</time></trkpt><trkpt lat="42.265479144563116" lon="14.011944709665398"><ele>100.0</ele><time>2026-05-03T10:32:36.001Z</time></trkpt><trkpt lat="42.26538352806708" lon="14.012032950669225"><ele>100.0</ele><time>2026-05-03T10:32:37.001Z</time></trkpt><trkpt lat="42.26528527805553" lon="14.012122950166127"><ele>99.0</ele><time>2026-05-03T10:32:38.001Z</time></trkpt><trkpt lat="42.26518981500746" lon="14.012205376245083"><ele>98.0</ele><time>2026-05-03T10:32:39.001Z</time></trkpt><trkpt lat="42.265102821755406" lon="14.01228971441093"><ele>97.0</ele><time>2026-05-03T10:32:40.001Z</time></trkpt><trkpt lat="42.265024251852864" lon="14.012397443120102"><ele>96.0</ele><time>2026-05-03T10:32:41.001Z</time></trkpt><trkpt lat="42.26496025814623" lon="14.01252410953134"><ele>95.0</ele><time>2026-05-03T10:32:42.001Z</time></trkpt><trkpt lat="42.26491888537367" lon="14.01267238249398"><ele>95.0</ele><time>2026-05-03T10:32:43.001Z</time></trkpt><trkpt lat="42.26490023660046" lon="14.012837286151935"><ele>95.0</ele><time>2026-05-03T10:32:44.001Z</time></trkpt><trkpt lat="42.26490274182863" lon="14.013005564535275"><ele>95.0</ele><time>2026-05-03T10:32:45.001Z</time></trkpt><trkpt lat="42.264927765978676" lon="14.013162207822116"><ele>95.0</ele><time>2026-05-03T10:32:46.001Z</time></trkpt><trkpt lat="42.26497219757947" lon="14.013310368602692"><ele>94.0</ele><time>2026-05-03T10:32:47.001Z</time></trkpt><trkpt lat="42.26503520966423" lon="14.013449807394144"><ele>93.0</ele><time>2026-05-03T10:32:48.001Z</time></trkpt><trkpt lat="42.2651200182411" lon="14.01357553907306"><ele>92.0</ele><time>2026-05-03T10:32:49.001Z</time></trkpt><trkpt lat="42.26519716370646" lon="14.013698818909447"><ele>91.0</ele><time>2026-05-03T10:32:50.001Z</time></trkpt><trkpt lat="42.26527310963831" lon="14.01382267443787"><ele>91.0</ele><time>2026-05-03T10:32:51.001Z</time></trkpt><trkpt lat="42.265347293361884" lon="14.01394356221898"><ele>91.0</ele><time>2026-05-03T10:32:52.001Z</time></trkpt><trkpt lat="42.2654199047539" lon="14.0140639535511"><ele>91.0</ele><time>2026-05-03T10:32:53.001Z</time></trkpt><trkpt lat="42.26549063579649" lon="14.01418335956067"><ele>91.0</ele><time>2026-05-03T10:32:54.001Z</time></trkpt><trkpt lat="42.2655595887384" lon="14.014301255631539"><ele>90.4</ele><time>2026-05-03T10:32:55.001Z</time></trkpt><trkpt lat="42.265624099660734" lon="14.014413512340544"><ele>89.8</ele><time>2026-05-03T10:32:56.001Z</time></trkpt><trkpt lat="42.2656833380582" lon="14.014517716138508"><ele>89.2</ele><time>2026-05-03T10:32:57.001Z</time></trkpt><trkpt lat="42.26574895159421" lon="14.01462160956458"><ele>88.60000000000001</ele><time>2026-05-03T10:32:58.001Z</time></trkpt><trkpt lat="42.265810050839185" lon="14.014721592109865"><ele>88.0</ele><time>2026-05-03T10:32:59.001Z</time></trkpt><trkpt lat="42.26587144483231" lon="14.014826785283553"><ele>88.0</ele><time>2026-05-03T10:33:00.001Z</time></trkpt><trkpt lat="42.26592844036084" lon="14.014924827730097"><ele>88.0</ele><time>2026-05-03T10:33:01.001Z</time></trkpt><trkpt lat="42.265980930046005" lon="14.015015383235498"><ele>88.0</ele><time>2026-05-03T10:33:02.001Z</time></trkpt><trkpt lat="42.26602545121595" lon="14.015095612267825"><ele>88.0</ele><time>2026-05-03T10:33:03.001Z</time></trkpt><trkpt lat="42.26606344719212" lon="14.01516835025115"><ele>88.0</ele><time>2026-05-03T10:33:04.001Z</time></trkpt><trkpt lat="42.26612571423558" lon="14.015270425230984"><ele>88.0</ele><time>2026-05-03T10:33:06.001Z</time></trkpt><trkpt lat="42.26616957468423" lon="14.01534658481298"><ele>88.16666666666666</ele><time>2026-05-03T10:33:09.001Z</time></trkpt><trkpt lat="42.26628675666041" lon="14.015237276352186"><ele>88.33333333333333</ele><time>2026-05-03T10:33:11.001Z</time></trkpt><trkpt lat="42.26635803942978" lon="14.015171049473784"><ele>88.5</ele><time>2026-05-03T10:33:13.001Z</time></trkpt><trkpt lat="42.26641223978565" lon="14.015113123862257"><ele>88.66666666666667</ele><time>2026-05-03T10:33:15.001Z</time></trkpt><trkpt lat="42.26645448071961" lon="14.015043264964087"><ele>88.83333333333334</ele><time>2026-05-03T10:34:33.002Z</time></trkpt><trkpt lat="42.26652114899879" lon="14.015032854164176"><ele>89.0</ele><time>2026-05-03T10:34:43.001Z</time></trkpt><trkpt lat="42.266583185934806" lon="14.015052797578594"><ele>89.0</ele><time>2026-05-03T10:35:05.001Z</time></trkpt><trkpt lat="42.26649605552262" lon="14.01506237070515"><ele>89.0</ele><time>2026-05-03T10:39:18Z</time></trkpt><trkpt lat="42.26642569696277" lon="14.015086376921207"><ele>89.0</ele><time>2026-05-03T10:39:26Z</time></trkpt><trkpt lat="42.26633759800471" lon="14.015102851840782"><ele>89.0</ele><time>2026-05-03T10:40:42.001Z</time></trkpt><trkpt lat="42.266291775485" lon="14.0151774182356"><ele>89.0</ele><time>2026-05-03T10:40:43.001Z</time></trkpt><trkpt lat="42.26623297882459" lon="14.015236015543056"><ele>89.0</ele><time>2026-05-03T10:40:44.001Z</time></trkpt><trkpt lat="42.26617962584269" lon="14.01529725188009"><ele>89.0</ele><time>2026-05-03T10:40:46.001Z</time></trkpt><trkpt lat="42.26621979802294" lon="14.015425454603085"><ele>89.0</ele><time>2026-05-03T10:40:49.001Z</time></trkpt><trkpt lat="42.266267996856044" lon="14.015492481764246"><ele>89.0</ele><time>2026-05-03T10:40:50.001Z</time></trkpt><trkpt lat="42.26631717601985" lon="14.015570478707307"><ele>89.0</ele><time>2026-05-03T10:40:51.001Z</time></trkpt><trkpt lat="42.2663656336824" lon="14.015657839126144"><ele>89.0</ele><time>2026-05-03T10:40:52.001Z</time></trkpt><trkpt lat="42.26641613156799" lon="14.01574479266597"><ele>89.0</ele><time>2026-05-03T10:40:53.001Z</time></trkpt><trkpt lat="42.266470520623606" lon="14.01584751200555"><ele>88.83333333333334</ele><time>2026-05-03T10:40:54.001Z</time></trkpt><trkpt lat="42.266521104822935" lon="14.01594001067143"><ele>88.66666666666667</ele><time>2026-05-03T10:40:55.001Z</time></trkpt><trkpt lat="42.266565527594466" lon="14.016032123035039"><ele>88.5</ele><time>2026-05-03T10:40:56.001Z</time></trkpt><trkpt lat="42.266617362278076" lon="14.016144352253553"><ele>88.33333333333333</ele><time>2026-05-03T10:40:58.001Z</time></trkpt><trkpt lat="42.266662663358076" lon="14.016208034040114"><ele>88.16666666666666</ele><time>2026-05-03T10:41:06Z</time></trkpt><trkpt lat="42.26671037674265" lon="14.01627882212501"><ele>88.0</ele><time>2026-05-03T10:41:07Z</time></trkpt><trkpt lat="42.266772973359835" lon="14.016377327606856"><ele>88.0</ele><time>2026-05-03T10:41:08Z</time></trkpt><trkpt lat="42.26684845943184" lon="14.016504404569945"><ele>88.0</ele><time>2026-05-03T10:41:09Z</time></trkpt><trkpt lat="42.26692733039178" lon="14.016640789270543"><ele>88.0</ele><time>2026-05-03T10:41:10Z</time></trkpt><trkpt lat="42.267012637903036" lon="14.016778028538825"><ele>88.0</ele><time>2026-05-03T10:41:11Z</time></trkpt><trkpt lat="42.26710197914625" lon="14.016929322169997"><ele>87.75</ele><time>2026-05-03T10:41:12Z</time></trkpt><trkpt lat="42.26719278017587" lon="14.017087206126401"><ele>87.5</ele><time>2026-05-03T10:41:13Z</time></trkpt><trkpt lat="42.267281412619326" lon="14.017240471571835"><ele>87.25</ele><time>2026-05-03T10:41:14Z</time></trkpt><trkpt lat="42.26736470855698" lon="14.017382780584926"><ele>87.0</ele><time>2026-05-03T10:41:15Z</time></trkpt><trkpt lat="42.26744096667272" lon="14.017520282432361"><ele>87.5</ele><time>2026-05-03T10:41:16Z</time></trkpt><trkpt lat="42.267519672919924" lon="14.017655561458488"><ele>88.0</ele><time>2026-05-03T10:41:17Z</time></trkpt><trkpt lat="42.267603443578686" lon="14.017786866590473"><ele>88.5</ele><time>2026-05-03T10:41:18Z</time></trkpt><trkpt lat="42.26769080899973" lon="14.017906333528408"><ele>89.0</ele><time>2026-05-03T10:41:19Z</time></trkpt><trkpt lat="42.26778415315122" lon="14.018005197198752"><ele>89.0</ele><time>2026-05-03T10:41:20Z</time></trkpt><trkpt lat="42.267893121811014" lon="14.018071257533899"><ele>89.0</ele><time>2026-05-03T10:41:21Z</time></trkpt><trkpt lat="42.268017843103486" lon="14.01812117626634"><ele>89.0</ele><time>2026-05-03T10:41:22Z</time></trkpt><trkpt lat="42.26814764533469" lon="14.018159619157489"><ele>89.0</ele><time>2026-05-03T10:41:23Z</time></trkpt><trkpt lat="42.268277803788884" lon="14.01819375552416"><ele>89.25</ele><time>2026-05-03T10:41:24Z</time></trkpt><trkpt lat="42.268410680533826" lon="14.01822799972752"><ele>89.5</ele><time>2026-05-03T10:41:25Z</time></trkpt><trkpt lat="42.268551587172794" lon="14.018260487934821"><ele>89.75</ele><time>2026-05-03T10:41:26Z</time></trkpt><trkpt lat="42.26869666154242" lon="14.018293216582004"><ele>90.0</ele><time>2026-05-03T10:41:27Z</time></trkpt><trkpt lat="42.26884477393718" lon="14.018328451842008"><ele>90.5</ele><time>2026-05-03T10:41:28Z</time></trkpt><trkpt lat="42.268995210041616" lon="14.018368543804266"><ele>91.0</ele><time>2026-05-03T10:41:29.001Z</time></trkpt><trkpt lat="42.26913918488826" lon="14.018400823616103"><ele>91.5</ele><time>2026-05-03T10:41:30.001Z</time></trkpt><trkpt lat="42.26927822564922" lon="14.018443097853911"><ele>92.0</ele><time>2026-05-03T10:41:31.001Z</time></trkpt><trkpt lat="42.2694105388018" lon="14.018480063208518"><ele>92.0</ele><time>2026-05-03T10:41:32.001Z</time></trkpt><trkpt lat="42.269545892856506" lon="14.01852439232986"><ele>92.0</ele><time>2026-05-03T10:41:33.001Z</time></trkpt><trkpt lat="42.269683421439396" lon="14.018589927347913"><ele>92.0</ele><time>2026-05-03T10:41:34.001Z</time></trkpt><trkpt lat="42.269819982952264" lon="14.018675617085021"><ele>92.0</ele><time>2026-05-03T10:41:35.001Z</time></trkpt><trkpt lat="42.26996141944362" lon="14.018778325827572"><ele>92.0</ele><time>2026-05-03T10:41:36.001Z</time></trkpt><trkpt lat="42.27010327530973" lon="14.01887813032719"><ele>92.0</ele><time>2026-05-03T10:41:37.001Z</time></trkpt><trkpt lat="42.2702405270499" lon="14.018968328594651"><ele>92.0</ele><time>2026-05-03T10:41:38.001Z</time></trkpt><trkpt lat="42.2703743076817" lon="14.019049256511204"><ele>92.0</ele><time>2026-05-03T10:41:39.001Z</time></trkpt><trkpt lat="42.27049624152502" lon="14.019125606251219"><ele>92.0</ele><time>2026-05-03T10:41:40.001Z</time></trkpt><trkpt lat="42.27060757862881" lon="14.019197927835595"><ele>92.0</ele><time>2026-05-03T10:41:41.001Z</time></trkpt><trkpt lat="42.27070168080918" lon="14.019258642362972"><ele>92.0</ele><time>2026-05-03T10:41:42.001Z</time></trkpt><trkpt lat="42.270780905298146" lon="14.01931097671543"><ele>93.16666666666667</ele><time>2026-05-03T10:41:43.001Z</time></trkpt><trkpt lat="42.27084791652898" lon="14.01935594596062"><ele>94.33333333333334</ele><time>2026-05-03T10:41:44.001Z</time></trkpt><trkpt lat="42.270932528563414" lon="14.019428499902753"><ele>95.5</ele><time>2026-05-03T10:41:46.001Z</time></trkpt><trkpt lat="42.27089194483375" lon="14.019537751868455"><ele>96.66666666666667</ele><time>2026-05-03T10:41:48.001Z</time></trkpt><trkpt lat="42.27086813145303" lon="14.019629747352088"><ele>97.83333333333333</ele><time>2026-05-03T10:41:49.001Z</time></trkpt><trkpt lat="42.27082601763715" lon="14.019723975310693"><ele>99.0</ele><time>2026-05-03T10:41:50.001Z</time></trkpt><trkpt lat="42.27078807620577" lon="14.01981443492089"><ele>99.0</ele><time>2026-05-03T10:41:51.001Z</time></trkpt><trkpt lat="42.270726611916366" lon="14.019879617057914"><ele>99.0</ele><time>2026-05-03T10:41:53.001Z</time></trkpt><trkpt lat="42.27062863540139" lon="14.019834232553585"><ele>99.0</ele><time>2026-05-03T10:41:54.001Z</time></trkpt><trkpt lat="42.27056087070028" lon="14.019796932803683"><ele>99.0</ele><time>2026-05-03T10:41:55.001Z</time></trkpt><trkpt lat="42.2704895348257" lon="14.01977243532777"><ele>99.0</ele><time>2026-05-03T10:41:56.001Z</time></trkpt><trkpt lat="42.27041929034795" lon="14.019730427719159"><ele>99.0</ele><time>2026-05-03T10:41:57.001Z</time></trkpt><trkpt lat="42.27034381259679" lon="14.019700853714717"><ele>99.6</ele><time>2026-05-03T10:41:58.001Z</time></trkpt><trkpt lat="42.270262523444494" lon="14.019668973823295"><ele>100.2</ele><time>2026-05-03T10:41:59.001Z</time></trkpt><trkpt lat="42.27018031678419" lon="14.019636667013847"><ele>100.8</ele><time>2026-05-03T10:42:00.001Z</time></trkpt><trkpt lat="42.27009657738609" lon="14.019600720734992"><ele>101.39999999999999</ele><time>2026-05-03T10:42:01.001Z</time></trkpt><trkpt lat="42.269993398172346" lon="14.019549657504312"><ele>102.0</ele><time>2026-05-03T10:42:02.001Z</time></trkpt><trkpt lat="42.269879152279756" lon="14.019488086804861"><ele>102.0</ele><time>2026-05-03T10:42:03.001Z</time></trkpt><trkpt lat="42.26978502644629" lon="14.01944124443619"><ele>102.0</ele><time>2026-05-03T10:42:04.001Z</time></trkpt><trkpt lat="42.269684654492025" lon="14.01941025687899"><ele>102.0</ele><time>2026-05-03T10:42:05.001Z</time></trkpt><trkpt lat="42.269590953360286" lon="14.019400859386067"><ele>102.0</ele><time>2026-05-03T10:42:06.001Z</time></trkpt><trkpt lat="42.2695054967712" lon="14.01942373514984"><ele>102.0</ele><time>2026-05-03T10:42:07.001Z</time></trkpt><trkpt lat="42.26941066067995" lon="14.019411359948208"><ele>102.8</ele><time>2026-05-03T10:42:09.001Z</time></trkpt><trkpt lat="42.26927793029401" lon="14.019438673026345"><ele>103.6</ele><time>2026-05-03T10:42:11.001Z</time></trkpt><trkpt lat="42.26917745945821" lon="14.019484015712353"><ele>104.39999999999999</ele><time>2026-05-03T10:42:12.001Z</time></trkpt><trkpt lat="42.26909547060942" lon="14.01954450365611"><ele>105.19999999999999</ele><time>2026-05-03T10:42:13.001Z</time></trkpt><trkpt lat="42.269034135769814" lon="14.019610638685295"><ele>106.0</ele><time>2026-05-03T10:42:14.001Z</time></trkpt><trkpt lat="42.26899711335858" lon="14.019704080616417"><ele>106.00000000000001</ele><time>2026-05-03T10:42:15.001Z</time></trkpt><trkpt lat="42.26899643075059" lon="14.019808398908994"><ele>106.0</ele><time>2026-05-03T10:42:16.001Z</time></trkpt><trkpt lat="42.26902256364764" lon="14.019904100409738"><ele>106.0</ele><time>2026-05-03T10:42:17.001Z</time></trkpt><trkpt lat="42.269055307851296" lon="14.01998653232326"><ele>106.0</ele><time>2026-05-03T10:42:19.001Z</time></trkpt><trkpt lat="42.269074625288134" lon="14.02009903542784"><ele>106.00000000000001</ele><time>2026-05-03T10:42:22.001Z</time></trkpt><trkpt lat="42.269130658102924" lon="14.020182436882044"><ele>106.0</ele><time>2026-05-03T10:42:24.001Z</time></trkpt><trkpt lat="42.269201522179834" lon="14.020295034980494"><ele>110.33333333333334</ele><time>2026-05-03T10:42:26.001Z</time></trkpt><trkpt lat="42.269264476506756" lon="14.02036539053176"><ele>114.66666666666666</ele><time>2026-05-03T10:42:28.001Z</time></trkpt><trkpt lat="42.26931503249289" lon="14.020429884709387"><ele>119.0</ele><time>2026-05-03T10:42:30.001Z</time></trkpt><trkpt lat="42.26914788142018" lon="14.020814142054538"><ele>120.71428571428572</ele><time>2026-05-03T10:42:32.001Z</time></trkpt><trkpt lat="42.2691360550745" lon="14.020897976969321"><ele>122.42857142857143</ele><time>2026-05-03T10:42:33.001Z</time></trkpt><trkpt lat="42.26911864178377" lon="14.020987043460819"><ele>124.14285714285714</ele><time>2026-05-03T10:42:34.001Z</time></trkpt><trkpt lat="42.26909623641505" lon="14.021067427084391"><ele>125.85714285714286</ele><time>2026-05-03T10:42:35.001Z</time></trkpt><trkpt lat="42.269082897092844" lon="14.021164731954611"><ele>127.57142857142858</ele><time>2026-05-03T10:42:36.002Z</time></trkpt><trkpt lat="42.269070890145834" lon="14.02127296855765"><ele>129.28571428571428</ele><time>2026-05-03T10:42:37.002Z</time></trkpt><trkpt lat="42.269054982822745" lon="14.021396497367645"><ele>131.0</ele><time>2026-05-03T10:42:39.002Z</time></trkpt><trkpt lat="42.269138646908424" lon="14.021474384764819"><ele>131.0</ele><time>2026-05-03T10:42:43.002Z</time></trkpt><trkpt lat="42.2692317049338" lon="14.021529193074837"><ele>131.0</ele><time>2026-05-03T10:42:45.002Z</time></trkpt><trkpt lat="42.269326278770265" lon="14.021607084630167"><ele>131.0</ele><time>2026-05-03T10:42:47.002Z</time></trkpt><trkpt lat="42.26943561259815" lon="14.02167216899221"><ele>131.0</ele><time>2026-05-03T10:42:49.002Z</time></trkpt><trkpt lat="42.269523711592974" lon="14.021720437066719"><ele>131.0</ele><time>2026-05-03T10:42:51.002Z</time></trkpt><trkpt lat="42.26960111112012" lon="14.021835140413511"><ele>132.33333333333331</ele><time>2026-05-03T10:42:53.002Z</time></trkpt><trkpt lat="42.26965611839229" lon="14.021903451173664"><ele>133.66666666666666</ele><time>2026-05-03T10:42:54.002Z</time></trkpt><trkpt lat="42.26971311756698" lon="14.021961882174514"><ele>135.0</ele><time>2026-05-03T10:42:55.002Z</time></trkpt><trkpt lat="42.269767770346334" lon="14.022027529969119"><ele>136.33333333333334</ele><time>2026-05-03T10:42:56.002Z</time></trkpt><trkpt lat="42.26981836322962" lon="14.022109430645447"><ele>137.66666666666669</ele><time>2026-05-03T10:42:57.002Z</time></trkpt><trkpt lat="42.26987793808491" lon="14.022208113917225"><ele>139.0</ele><time>2026-05-03T10:42:58.002Z</time></trkpt><trkpt lat="42.26994983689817" lon="14.022315413140934"><ele>139.0</ele><time>2026-05-03T10:42:59.002Z</time></trkpt><trkpt lat="42.27001978024581" lon="14.02241590864365"><ele>139.0</ele><time>2026-05-03T10:43:00.002Z</time></trkpt><trkpt lat="42.270083038009254" lon="14.022507729127472"><ele>139.0</ele><time>2026-05-03T10:43:01.002Z</time></trkpt><trkpt lat="42.27013491411461" lon="14.022584371113735"><ele>139.0</ele><time>2026-05-03T10:43:02.002Z</time></trkpt><trkpt lat="42.27018920425474" lon="14.022652879961349"><ele>139.0</ele><time>2026-05-03T10:43:03.002Z</time></trkpt><trkpt lat="42.27024401892034" lon="14.022704109599848"><ele>139.0</ele><time>2026-05-03T10:43:04.002Z</time></trkpt><trkpt lat="42.27030431768737" lon="14.022749047612262"><ele>139.85714285714286</ele><time>2026-05-03T10:43:05Z</time></trkpt><trkpt lat="42.270360999524485" lon="14.022792144825273"><ele>140.71428571428572</ele><time>2026-05-03T10:43:06Z</time></trkpt><trkpt lat="42.270412446802474" lon="14.02284490615294"><ele>141.57142857142858</ele><time>2026-05-03T10:43:07Z</time></trkpt><trkpt lat="42.270457433590224" lon="14.022910655168532"><ele>142.42857142857144</ele><time>2026-05-03T10:43:08Z</time></trkpt><trkpt lat="42.27050482395629" lon="14.022985514340045"><ele>143.2857142857143</ele><time>2026-05-03T10:43:09Z</time></trkpt><trkpt lat="42.27055259977561" lon="14.023059011755537"><ele>144.14285714285714</ele><time>2026-05-03T10:43:10Z</time></trkpt><trkpt lat="42.27060452375443" lon="14.02313380813134"><ele>145.0</ele><time>2026-05-03T10:43:11Z</time></trkpt><trkpt lat="42.270665239549686" lon="14.023215671284108"><ele>145.0</ele><time>2026-05-03T10:43:12Z</time></trkpt><trkpt lat="42.27073054965462" lon="14.0233093884567"><ele>145.0</ele><time>2026-05-03T10:43:13Z</time></trkpt><trkpt lat="42.27078672017218" lon="14.023397503720147"><ele>145.0</ele><time>2026-05-03T10:43:14Z</time></trkpt><trkpt lat="42.270833684491386" lon="14.023461774372358"><ele>145.0</ele><time>2026-05-03T10:43:15Z</time></trkpt><trkpt lat="42.2709033433122" lon="14.0236089189688"><ele>145.0</ele><time>2026-05-03T10:43:17Z</time></trkpt><trkpt lat="42.27093566685203" lon="14.023691967493763"><ele>145.0</ele><time>2026-05-03T10:43:18Z</time></trkpt><trkpt lat="42.2709609164007" lon="14.023770734217749"><ele>147.6</ele><time>2026-05-03T10:43:19Z</time></trkpt><trkpt lat="42.27096495629094" lon="14.02386669310363"><ele>150.2</ele><time>2026-05-03T10:43:21Z</time></trkpt><trkpt lat="42.2709426829428" lon="14.023988431562843"><ele>152.8</ele><time>2026-05-03T10:43:23Z</time></trkpt><trkpt lat="42.2708904955275" lon="14.024084814690223"><ele>155.4</ele><time>2026-05-03T10:43:25Z</time></trkpt><trkpt lat="42.27081205021627" lon="14.024127086671527"><ele>158.0</ele><time>2026-05-03T10:43:27Z</time></trkpt><trkpt lat="42.270698422566646" lon="14.024136732753126"><ele>158.0</ele><time>2026-05-03T10:43:29Z</time></trkpt><trkpt lat="42.27062550950595" lon="14.02414140452002"><ele>158.0</ele><time>2026-05-03T10:43:30Z</time></trkpt><trkpt lat="42.27054925841491" lon="14.024139523607095"><ele>158.0</ele><time>2026-05-03T10:43:31Z</time></trkpt><trkpt lat="42.27047837658233" lon="14.024134589698562"><ele>158.0</ele><time>2026-05-03T10:43:32Z</time></trkpt><trkpt lat="42.27040541762184" lon="14.024132937441701"><ele>158.0</ele><time>2026-05-03T10:43:33Z</time></trkpt><trkpt lat="42.2703197130521" lon="14.024139853244652"><ele>158.0</ele><time>2026-05-03T10:43:34Z</time></trkpt><trkpt lat="42.27023801867676" lon="14.024140640517873"><ele>159.33333333333331</ele><time>2026-05-03T10:43:35Z</time></trkpt><trkpt lat="42.27015167117807" lon="14.02413765471374"><ele>160.66666666666666</ele><time>2026-05-03T10:43:36Z</time></trkpt><trkpt lat="42.270060618897126" lon="14.02412826772718"><ele>162.0</ele><time>2026-05-03T10:43:37Z</time></trkpt><trkpt lat="42.26997554074231" lon="14.024130536382023"><ele>163.33333333333334</ele><time>2026-05-03T10:43:38Z</time></trkpt><trkpt lat="42.269893865404164" lon="14.024149597135558"><ele>164.66666666666669</ele><time>2026-05-03T10:43:39Z</time></trkpt><trkpt lat="42.26982552741481" lon="14.02417913999911"><ele>166.0</ele><time>2026-05-03T10:43:40Z</time></trkpt><trkpt lat="42.269720302566505" lon="14.024242888643318"><ele>168.8</ele><time>2026-05-03T10:43:42Z</time></trkpt><trkpt lat="42.26962980694581" lon="14.02427620503984"><ele>171.60000000000002</ele><time>2026-05-03T10:43:44Z</time></trkpt><trkpt lat="42.2695200970662" lon="14.02424789048616"><ele>174.4</ele><time>2026-05-03T10:43:46.001Z</time></trkpt><trkpt lat="42.269449937550135" lon="14.02421878546134"><ele>177.2</ele><time>2026-05-03T10:43:47.001Z</time></trkpt><trkpt lat="42.269368232110175" lon="14.024177828050588"><ele>180.0</ele><time>2026-05-03T10:43:48.001Z</time></trkpt><trkpt lat="42.269287500166214" lon="14.024141993145069"><ele>180.0</ele><time>2026-05-03T10:43:49.001Z</time></trkpt><trkpt lat="42.26922320266206" lon="14.024111631010143"><ele>180.0</ele><time>2026-05-03T10:43:50.001Z</time></trkpt><trkpt lat="42.26914378811631" lon="14.02411220165564"><ele>180.0</ele><time>2026-05-03T10:43:52.001Z</time></trkpt><trkpt lat="42.269078747419925" lon="14.024147388224486"><ele>180.0</ele><time>2026-05-03T10:43:53.001Z</time></trkpt><trkpt lat="42.26899629437468" lon="14.024192902193882"><ele>180.0</ele><time>2026-05-03T10:43:54.001Z</time></trkpt><trkpt lat="42.26889869298613" lon="14.02423957087627"><ele>180.0</ele><time>2026-05-03T10:43:55.001Z</time></trkpt><trkpt lat="42.26879881951885" lon="14.02428291923852"><ele>183.8</ele><time>2026-05-03T10:43:56.001Z</time></trkpt><trkpt lat="42.268697481586194" lon="14.024317889332812"><ele>187.6</ele><time>2026-05-03T10:43:57.001Z</time></trkpt><trkpt lat="42.26859917019347" lon="14.024351893413243"><ele>191.39999999999998</ele><time>2026-05-03T10:43:58.001Z</time></trkpt><trkpt lat="42.268510681563264" lon="14.024388288229149"><ele>195.2</ele><time>2026-05-03T10:43:59.001Z</time></trkpt><trkpt lat="42.26841942097596" lon="14.024434103881324"><ele>199.0</ele><time>2026-05-03T10:44:00.001Z</time></trkpt><trkpt lat="42.26833600676496" lon="14.024488663966707"><ele>198.99999999999997</ele><time>2026-05-03T10:44:01.001Z</time></trkpt><trkpt lat="42.26825841796988" lon="14.024542402204597"><ele>199.0</ele><time>2026-05-03T10:44:02.001Z</time></trkpt><trkpt lat="42.268178784832905" lon="14.024603100312516"><ele>199.0</ele><time>2026-05-03T10:44:03.001Z</time></trkpt><trkpt lat="42.26810093460332" lon="14.024663759314748"><ele>199.0</ele><time>2026-05-03T10:44:04.001Z</time></trkpt><trkpt lat="42.26804319539924" lon="14.024719845232873"><ele>198.99999999999997</ele><time>2026-05-03T10:44:05.001Z</time></trkpt><trkpt lat="42.26798547039499" lon="14.024811397803202"><ele>199.0</ele><time>2026-05-03T10:44:07.001Z</time></trkpt><trkpt lat="42.26792066637681" lon="14.024891951559182"><ele>199.16666666666666</ele><time>2026-05-03T10:44:10.001Z</time></trkpt><trkpt lat="42.26782295498875" lon="14.024942341127726"><ele>199.33333333333331</ele><time>2026-05-03T10:44:12.001Z</time></trkpt><trkpt lat="42.26775394195668" lon="14.024974539359254"><ele>199.5</ele><time>2026-05-03T10:44:13.001Z</time></trkpt><trkpt lat="42.26768362761956" lon="14.025025342978731"><ele>199.66666666666669</ele><time>2026-05-03T10:44:14.001Z</time></trkpt><trkpt lat="42.26760856039117" lon="14.025069048797457"><ele>199.83333333333334</ele><time>2026-05-03T10:44:15.001Z</time></trkpt><trkpt lat="42.267534456230784" lon="14.025107121205307"><ele>200.0</ele><time>2026-05-03T10:44:16.001Z</time></trkpt><trkpt lat="42.2674714600797" lon="14.025150417685259"><ele>205.50000000000003</ele><time>2026-05-03T10:44:17.001Z</time></trkpt><trkpt lat="42.26741471756181" lon="14.025202796528056"><ele>211.0</ele><time>2026-05-03T10:44:18.001Z</time></trkpt><trkpt lat="42.267363623479035" lon="14.025268130638898"><ele>216.5</ele><time>2026-05-03T10:44:19.001Z</time></trkpt><trkpt lat="42.26727647835089" lon="14.025340782290685"><ele>222.0</ele><time>2026-05-03T10:44:21.001Z</time></trkpt><trkpt lat="42.267199984215935" lon="14.025327683317812"><ele>227.50000000000003</ele><time>2026-05-03T10:44:23.001Z</time></trkpt><trkpt lat="42.267114429254335" lon="14.025256268762774"><ele>233.0</ele><time>2026-05-03T10:44:25.001Z</time></trkpt><trkpt lat="42.26703125349066" lon="14.025142534241333"><ele>234.8</ele><time>2026-05-03T10:44:27.001Z</time></trkpt><trkpt lat="42.26698310247048" lon="14.02508630942421"><ele>236.60000000000002</ele><time>2026-05-03T10:44:28.001Z</time></trkpt><trkpt lat="42.26689398349334" lon="14.024995658242094"><ele>238.39999999999998</ele><time>2026-05-03T10:44:30.001Z</time></trkpt><trkpt lat="42.26680654554271" lon="14.024900313532962"><ele>240.2</ele><time>2026-05-03T10:44:32.001Z</time></trkpt><trkpt lat="42.266713364598424" lon="14.024787872352391"><ele>242.0</ele><time>2026-05-03T10:44:34.001Z</time></trkpt><trkpt lat="42.266656629566995" lon="14.024731114650722"><ele>237.39999999999998</ele><time>2026-05-03T10:44:35.001Z</time></trkpt><trkpt lat="42.266567746672436" lon="14.02463280215906"><ele>232.79999999999998</ele><time>2026-05-03T10:44:37.001Z</time></trkpt><trkpt lat="42.26647191682561" lon="14.024526566196073"><ele>228.2</ele><time>2026-05-03T10:44:39.001Z</time></trkpt><trkpt lat="42.266399321867006" lon="14.024453671609432"><ele>223.6</ele><time>2026-05-03T10:44:41.001Z</time></trkpt><trkpt lat="42.266329988851005" lon="14.024425477016822"><ele>219.0</ele><time>2026-05-03T10:44:43.001Z</time></trkpt><trkpt lat="42.26624189032039" lon="14.024399382991637"><ele>219.0</ele><time>2026-05-03T10:44:45.001Z</time></trkpt><trkpt lat="42.26619671908072" lon="14.02430960531254"><ele>219.0</ele><time>2026-05-03T10:44:47.001Z</time></trkpt><trkpt lat="42.26614689799022" lon="14.024242782671124"><ele>219.0</ele><time>2026-05-03T10:44:49.002Z</time></trkpt><trkpt lat="42.2660698027076" lon="14.024248492490436"><ele>219.0</ele><time>2026-05-03T10:44:51.002Z</time></trkpt><trkpt lat="42.26600545082357" lon="14.02433636692812"><ele>219.0</ele><time>2026-05-03T10:44:53.002Z</time></trkpt><trkpt lat="42.26594549826354" lon="14.02439225316012"><ele>219.0</ele><time>2026-05-03T10:44:55.002Z</time></trkpt><trkpt lat="42.26588110701529" lon="14.024405783807989"><ele>219.0</ele><time>2026-05-03T10:44:57.002Z</time></trkpt><trkpt lat="42.26580224814852" lon="14.024428084039512"><ele>218.99999999999997</ele><time>2026-05-03T10:44:59.002Z</time></trkpt><trkpt lat="42.265688904796974" lon="14.024464600224375"><ele>218.99999999999997</ele><time>2026-05-03T10:45:01.002Z</time></trkpt><trkpt lat="42.26562362034983" lon="14.024474761587296"><ele>219.0</ele><time>2026-05-03T10:45:02.002Z</time></trkpt><trkpt lat="42.265514534131505" lon="14.02448637675246"><ele>219.0</ele><time>2026-05-03T10:45:04.002Z</time></trkpt><trkpt lat="42.265395941569864" lon="14.024513830001212"><ele>216.66666666666666</ele><time>2026-05-03T10:45:06.002Z</time></trkpt><trkpt lat="42.26527192483038" lon="14.024557505807268"><ele>214.33333333333331</ele><time>2026-05-03T10:45:08.002Z</time></trkpt><trkpt lat="42.265204441985915" lon="14.024568094289544"><ele>212.0</ele><time>2026-05-03T10:45:09.002Z</time></trkpt><trkpt lat="42.26513855880556" lon="14.024571136689392"><ele>209.66666666666666</ele><time>2026-05-03T10:45:10.002Z</time></trkpt><trkpt lat="42.26507551782934" lon="14.024575941163251"><ele>207.33333333333331</ele><time>2026-05-03T10:45:11Z</time></trkpt><trkpt lat="42.264997609620366" lon="14.024657080644625"><ele>205.0</ele><time>2026-05-03T10:45:13Z</time></trkpt><trkpt lat="42.2649693880254" lon="14.024781646922648"><ele>205.0</ele><time>2026-05-03T10:45:15Z</time></trkpt><trkpt lat="42.264922061695486" lon="14.024903932129337"><ele>205.0</ele><time>2026-05-03T10:45:17Z</time></trkpt><trkpt lat="42.264845092071056" lon="14.024979610683248"><ele>205.0</ele><time>2026-05-03T10:45:19Z</time></trkpt><trkpt lat="42.264764248283974" lon="14.025027765950334"><ele>205.0</ele><time>2026-05-03T10:45:21Z</time></trkpt><trkpt lat="42.26464387668407" lon="14.025013013421061"><ele>205.0</ele><time>2026-05-03T10:45:23Z</time></trkpt><trkpt lat="42.264571600730605" lon="14.025009357733202"><ele>205.33333333333331</ele><time>2026-05-03T10:45:24Z</time></trkpt><trkpt lat="42.264501110680264" lon="14.02502606252351"><ele>205.66666666666666</ele><time>2026-05-03T10:45:25Z</time></trkpt><trkpt lat="42.26443335067759" lon="14.025044514998777"><ele>206.0</ele><time>2026-05-03T10:45:26Z</time></trkpt><trkpt lat="42.2643653640381" lon="14.025049221933442"><ele>206.33333333333331</ele><time>2026-05-03T10:45:27Z</time></trkpt><trkpt lat="42.26430057169421" lon="14.025032912797183"><ele>206.66666666666666</ele><time>2026-05-03T10:45:28Z</time></trkpt><trkpt lat="42.26423500107184" lon="14.025004308298353"><ele>207.0</ele><time>2026-05-03T10:45:29Z</time></trkpt><trkpt lat="42.26412473919156" lon="14.024951483194195"><ele>207.0</ele><time>2026-05-03T10:45:31Z</time></trkpt><trkpt lat="42.26401613911175" lon="14.024911130348054"><ele>207.0</ele><time>2026-05-03T10:45:33Z</time></trkpt><trkpt lat="42.26394086495041" lon="14.02487930438289"><ele>207.0</ele><time>2026-05-03T10:45:35Z</time></trkpt><trkpt lat="42.26383712326032" lon="14.024842745872812"><ele>207.0</ele><time>2026-05-03T10:45:37Z</time></trkpt><trkpt lat="42.26371900699034" lon="14.024789240738754"><ele>207.0</ele><time>2026-05-03T10:45:39.001Z</time></trkpt><trkpt lat="42.26363163281851" lon="14.024737971096092"><ele>209.66666666666666</ele><time>2026-05-03T10:45:41.001Z</time></trkpt><trkpt lat="42.26354559612125" lon="14.024736479610267"><ele>212.33333333333331</ele><time>2026-05-03T10:45:43.001Z</time></trkpt><trkpt lat="42.26348406696834" lon="14.024679970435425"><ele>215.0</ele><time>2026-05-03T10:45:45.001Z</time></trkpt><trkpt lat="42.26344216514843" lon="14.02454540971908"><ele>217.66666666666666</ele><time>2026-05-03T10:45:47.001Z</time></trkpt><trkpt lat="42.26340420146486" lon="14.024472896316295"><ele>220.33333333333331</ele><time>2026-05-03T10:45:48.001Z</time></trkpt><trkpt lat="42.263353958673626" lon="14.024397509735373"><ele>223.0</ele><time>2026-05-03T10:45:49.001Z</time></trkpt><trkpt lat="42.26330490385017" lon="14.024323025882316"><ele>223.0</ele><time>2026-05-03T10:45:50.001Z</time></trkpt><trkpt lat="42.263271690197094" lon="14.024244903257529"><ele>223.0</ele><time>2026-05-03T10:45:51.001Z</time></trkpt><trkpt lat="42.263243272386354" lon="14.024167933702037"><ele>223.0</ele><time>2026-05-03T10:45:52.001Z</time></trkpt><trkpt lat="42.26318265390629" lon="14.024040662618287"><ele>223.0</ele><time>2026-05-03T10:45:54.001Z</time></trkpt><trkpt lat="42.26309674576731" lon="14.023957329209434"><ele>223.0</ele><time>2026-05-03T10:45:56.001Z</time></trkpt><trkpt lat="42.26298355129138" lon="14.02392549772276"><ele>224.4</ele><time>2026-05-03T10:45:58.001Z</time></trkpt><trkpt lat="42.262864559185665" lon="14.023949040885391"><ele>225.8</ele><time>2026-05-03T10:46:00.001Z</time></trkpt><trkpt lat="42.262799191395686" lon="14.02396761490061"><ele>227.2</ele><time>2026-05-03T10:46:01.001Z</time></trkpt><trkpt lat="42.26268181285752" lon="14.023952998333167"><ele>228.6</ele><time>2026-05-03T10:46:03.001Z</time></trkpt><trkpt lat="42.26259842026461" lon="14.023898224005965"><ele>230.0</ele><time>2026-05-03T10:46:05.001Z</time></trkpt><trkpt lat="42.26255006766714" lon="14.023824811143196"><ele>230.00000000000003</ele><time>2026-05-03T10:46:11.001Z</time></trkpt><trkpt lat="42.26249546845137" lon="14.02376483208581"><ele>230.0</ele><time>2026-05-03T10:46:14.001Z</time></trkpt><trkpt lat="42.262426757710294" lon="14.023733612090624"><ele>230.0</ele><time>2026-05-03T10:46:17.001Z</time></trkpt><trkpt lat="42.26233216954552" lon="14.023704401173147"><ele>230.0</ele><time>2026-05-03T10:46:20.001Z</time></trkpt><trkpt lat="42.262230009826304" lon="14.023671619931937"><ele>230.00000000000003</ele><time>2026-05-03T10:46:22.001Z</time></trkpt><trkpt lat="42.262165126336825" lon="14.023624979723154"><ele>230.0</ele><time>2026-05-03T10:46:23.001Z</time></trkpt><trkpt lat="42.26210587813611" lon="14.023572769101733"><ele>229.83333333333334</ele><time>2026-05-03T10:46:24.001Z</time></trkpt><trkpt lat="42.26205099888551" lon="14.023515985870777"><ele>229.66666666666669</ele><time>2026-05-03T10:46:25.001Z</time></trkpt><trkpt lat="42.26199162121732" lon="14.02345739870672"><ele>229.5</ele><time>2026-05-03T10:46:26.001Z</time></trkpt><trkpt lat="42.26192251315633" lon="14.023379436421358"><ele>229.33333333333331</ele><time>2026-05-03T10:46:28.001Z</time></trkpt><trkpt lat="42.26188947526654" lon="14.023255684158585"><ele>229.16666666666666</ele><time>2026-05-03T10:46:32.001Z</time></trkpt><trkpt lat="42.26193075816894" lon="14.023164969805132"><ele>229.0</ele><time>2026-05-03T10:46:36.001Z</time></trkpt><trkpt lat="42.262006510229305" lon="14.023174695952953"><ele>229.0</ele><time>2026-05-03T10:46:38.001Z</time></trkpt><trkpt lat="42.26206012943354" lon="14.023126720505852"><ele>229.0</ele><time>2026-05-03T10:46:40.001Z</time></trkpt><trkpt lat="42.2620922072438" lon="14.023005676876124"><ele>229.0</ele><time>2026-05-03T10:46:42.002Z</time></trkpt><trkpt lat="42.26211270482923" lon="14.022918981514307"><ele>229.0</ele><time>2026-05-03T10:46:43.002Z</time></trkpt><trkpt lat="42.2621368347683" lon="14.022825505418217"><ele>229.0</ele><time>2026-05-03T10:46:44.002Z</time></trkpt><trkpt lat="42.262155932328575" lon="14.022739267670026"><ele>229.0</ele><time>2026-05-03T10:46:45.002Z</time></trkpt><trkpt lat="42.26217643135255" lon="14.022658472148812"><ele>229.0</ele><time>2026-05-03T10:46:46.002Z</time></trkpt><trkpt lat="42.262197519696684" lon="14.022490585884878"><ele>226.99999999999997</ele><time>2026-05-03T10:46:48.002Z</time></trkpt><trkpt lat="42.26219505281413" lon="14.022401088334863"><ele>225.0</ele><time>2026-05-03T10:46:49.002Z</time></trkpt><trkpt lat="42.262177085555344" lon="14.02231147690777"><ele>223.0</ele><time>2026-05-03T10:46:50.002Z</time></trkpt><trkpt lat="42.262137506990356" lon="14.022231334637029"><ele>221.0</ele><time>2026-05-03T10:46:51.002Z</time></trkpt><trkpt lat="42.26207497315483" lon="14.02214846582514"><ele>218.99999999999997</ele><time>2026-05-03T10:46:52.002Z</time></trkpt><trkpt lat="42.261993930834194" lon="14.022039606954324"><ele>217.0</ele><time>2026-05-03T10:46:53.002Z</time></trkpt><trkpt lat="42.26189224063649" lon="14.021975711575953"><ele>217.0</ele><time>2026-05-03T10:46:54.002Z</time></trkpt><trkpt lat="42.261802206872474" lon="14.021909850938567"><ele>217.0</ele><time>2026-05-03T10:46:55.002Z</time></trkpt><trkpt lat="42.261708695199545" lon="14.021873794633672"><ele>217.0</ele><time>2026-05-03T10:46:56.002Z</time></trkpt><trkpt lat="42.26161227959452" lon="14.02187438256614"><ele>217.0</ele><time>2026-05-03T10:46:57.002Z</time></trkpt><trkpt lat="42.26151747474121" lon="14.021894047325148"><ele>217.0</ele><time>2026-05-03T10:46:58.002Z</time></trkpt><trkpt lat="42.261430725706354" lon="14.021913097571025"><ele>215.33333333333331</ele><time>2026-05-03T10:46:59.002Z</time></trkpt><trkpt lat="42.261349869796874" lon="14.021929232100305"><ele>213.66666666666666</ele><time>2026-05-03T10:47:00.002Z</time></trkpt><trkpt lat="42.26127559827549" lon="14.021952575080743"><ele>212.0</ele><time>2026-05-03T10:47:01.002Z</time></trkpt><trkpt lat="42.26120802754601" lon="14.021978829573207"><ele>210.33333333333331</ele><time>2026-05-03T10:47:02.002Z</time></trkpt><trkpt lat="42.261144691043675" lon="14.02200079781997"><ele>208.66666666666666</ele><time>2026-05-03T10:47:03.002Z</time></trkpt><trkpt lat="42.26104714335268" lon="14.022009050776408"><ele>207.0</ele><time>2026-05-03T10:47:05.002Z</time></trkpt><trkpt lat="42.2609718455514" lon="14.022163600621727"><ele>207.0</ele><time>2026-05-03T10:47:07.002Z</time></trkpt><trkpt lat="42.26092380944882" lon="14.02223016678841"><ele>207.0</ele><time>2026-05-03T10:47:08.002Z</time></trkpt><trkpt lat="42.26087261127364" lon="14.022308126403638"><ele>207.0</ele><time>2026-05-03T10:47:09.002Z</time></trkpt><trkpt lat="42.26082012783092" lon="14.022389408308799"><ele>207.0</ele><time>2026-05-03T10:47:10.002Z</time></trkpt><trkpt lat="42.26076808372994" lon="14.022472256064455"><ele>207.0</ele><time>2026-05-03T10:47:11.002Z</time></trkpt><trkpt lat="42.260724019726105" lon="14.022552228900956"><ele>207.0</ele><time>2026-05-03T10:47:12.002Z</time></trkpt><trkpt lat="42.26067770300636" lon="14.022651582486446"><ele>207.16666666666666</ele><time>2026-05-03T10:47:13.002Z</time></trkpt><trkpt lat="42.26062876705697" lon="14.022768571049005"><ele>207.33333333333331</ele><time>2026-05-03T10:47:14.002Z</time></trkpt><trkpt lat="42.26058171773392" lon="14.022892556255666"><ele>207.5</ele><time>2026-05-03T10:47:15.002Z</time></trkpt><trkpt lat="42.26051708725065" lon="14.022986734662608"><ele>207.66666666666666</ele><time>2026-05-03T10:47:16.002Z</time></trkpt><trkpt lat="42.2604776741184" lon="14.023082801005678"><ele>207.83333333333331</ele><time>2026-05-03T10:47:17Z</time></trkpt><trkpt lat="42.26043577781532" lon="14.023149056722755"><ele>208.0</ele><time>2026-05-03T10:47:18Z</time></trkpt><trkpt lat="42.26032549563833" lon="14.02323795527717"><ele>208.0</ele><time>2026-05-03T10:47:20Z</time></trkpt><trkpt lat="42.260248212465065" lon="14.02321617816469"><ele>208.0</ele><time>2026-05-03T10:47:21Z</time></trkpt><trkpt lat="42.26016809062865" lon="14.02321187086574"><ele>208.0</ele><time>2026-05-03T10:47:22Z</time></trkpt><trkpt lat="42.26006454493623" lon="14.023230079975056"><ele>208.0</ele><time>2026-05-03T10:47:23Z</time></trkpt><trkpt lat="42.25995871421858" lon="14.023232845427419"><ele>208.0</ele><time>2026-05-03T10:47:24Z</time></trkpt><trkpt lat="42.25984593471089" lon="14.02321970796811"><ele>209.4</ele><time>2026-05-03T10:47:25Z</time></trkpt><trkpt lat="42.25974207865282" lon="14.023225188916257"><ele>210.8</ele><time>2026-05-03T10:47:26Z</time></trkpt><trkpt lat="42.25964442238275" lon="14.023229547663815"><ele>212.2</ele><time>2026-05-03T10:47:27Z</time></trkpt><trkpt lat="42.259568890325156" lon="14.023253805505306"><ele>213.6</ele><time>2026-05-03T10:47:28Z</time></trkpt><trkpt lat="42.259492815945514" lon="14.02323500691072"><ele>215.0</ele><time>2026-05-03T10:47:30Z</time></trkpt><trkpt lat="42.25944539712873" lon="14.023428456012628"><ele>215.6</ele><time>2026-05-03T10:47:34Z</time></trkpt><trkpt lat="42.25946289338073" lon="14.023596488867335"><ele>216.2</ele><time>2026-05-03T10:47:36Z</time></trkpt><trkpt lat="42.25948455269668" lon="14.023704387441768"><ele>216.8</ele><time>2026-05-03T10:47:37Z</time></trkpt><trkpt lat="42.25950730197105" lon="14.023804088093144"><ele>217.4</ele><time>2026-05-03T10:47:38Z</time></trkpt><trkpt lat="42.259505347358406" lon="14.023943952975213"><ele>218.0</ele><time>2026-05-03T10:47:40Z</time></trkpt><trkpt lat="42.259482188205524" lon="14.024100165263365"><ele>220.4</ele><time>2026-05-03T10:47:42.001Z</time></trkpt><trkpt lat="42.25946046668757" lon="14.024215093005607"><ele>222.8</ele><time>2026-05-03T10:47:43.001Z</time></trkpt><trkpt lat="42.25945247802369" lon="14.024335407366344"><ele>225.2</ele><time>2026-05-03T10:47:44.001Z</time></trkpt><trkpt lat="42.259416678083056" lon="14.024462839633733"><ele>227.6</ele><time>2026-05-03T10:47:45.001Z</time></trkpt><trkpt lat="42.25940188865592" lon="14.024595282556485"><ele>230.0</ele><time>2026-05-03T10:47:46.001Z</time></trkpt><trkpt lat="42.259397571782266" lon="14.024719018051007"><ele>229.99999999999997</ele><time>2026-05-03T10:47:47.001Z</time></trkpt><trkpt lat="42.25940868236433" lon="14.02482723687398"><ele>230.0</ele><time>2026-05-03T10:47:48.001Z</time></trkpt><trkpt lat="42.25939082022301" lon="14.024909878362319"><ele>229.99999999999997</ele><time>2026-05-03T10:47:49.001Z</time></trkpt><trkpt lat="42.25941083724357" lon="14.024995921328417"><ele>229.99999999999997</ele><time>2026-05-03T10:47:50.001Z</time></trkpt><trkpt lat="42.2594263072737" lon="14.025088689542445"><ele>230.0</ele><time>2026-05-03T10:47:51.001Z</time></trkpt><trkpt lat="42.25944441080374" lon="14.025182905705144"><ele>229.99999999999997</ele><time>2026-05-03T10:47:52.001Z</time></trkpt><trkpt lat="42.25946640752784" lon="14.02526676631114"><ele>229.99999999999997</ele><time>2026-05-03T10:47:53.001Z</time></trkpt><trkpt lat="42.25956251093414" lon="14.025332215929609"><ele>232.16666666666669</ele><time>2026-05-03T10:47:55.001Z</time></trkpt><trkpt lat="42.25962468462355" lon="14.025350519872493"><ele>234.33333333333334</ele><time>2026-05-03T10:47:56.001Z</time></trkpt><trkpt lat="42.25968619422005" lon="14.02537492754652"><ele>236.5</ele><time>2026-05-03T10:47:57.001Z</time></trkpt><trkpt lat="42.259740540379234" lon="14.02545376266909"><ele>238.66666666666669</ele><time>2026-05-03T10:47:58.001Z</time></trkpt><trkpt lat="42.2598243454213" lon="14.025499465658587"><ele>240.83333333333334</ele><time>2026-05-03T10:47:59.001Z</time></trkpt><trkpt lat="42.259904720499776" lon="14.025548437069697"><ele>243.0</ele><time>2026-05-03T10:48:00.001Z</time></trkpt><trkpt lat="42.25998496187066" lon="14.025584026151723"><ele>243.33333333333334</ele><time>2026-05-03T10:48:01.001Z</time></trkpt><trkpt lat="42.26003712975336" lon="14.025654045086606"><ele>243.66666666666669</ele><time>2026-05-03T10:48:02.001Z</time></trkpt><trkpt lat="42.26005532186381" lon="14.025736984135015"><ele>244.0</ele><time>2026-05-03T10:48:03.001Z</time></trkpt><trkpt lat="42.260123304672874" lon="14.02577764625497"><ele>244.33333333333334</ele><time>2026-05-03T10:48:04.001Z</time></trkpt><trkpt lat="42.26014881507636" lon="14.02585819416418"><ele>244.66666666666669</ele><time>2026-05-03T10:48:05.001Z</time></trkpt><trkpt lat="42.26026005378768" lon="14.025938399614036"><ele>245.0</ele><time>2026-05-03T10:48:07.001Z</time></trkpt><trkpt lat="42.26033457177774" lon="14.025958583648865"><ele>249.2</ele><time>2026-05-03T10:48:08.001Z</time></trkpt><trkpt lat="42.26039428261765" lon="14.025987656781274"><ele>253.4</ele><time>2026-05-03T10:48:09.001Z</time></trkpt><trkpt lat="42.260441591796734" lon="14.026104413484262"><ele>257.6</ele><time>2026-05-03T10:48:11.001Z</time></trkpt><trkpt lat="42.26045818385878" lon="14.02623819425176"><ele>261.8</ele><time>2026-05-03T10:48:13.001Z</time></trkpt><trkpt lat="42.26053687452794" lon="14.026393882256281"><ele>266.0</ele><time>2026-05-03T10:48:15.001Z</time></trkpt><trkpt lat="42.26059975031271" lon="14.026490329161208"><ele>268.2</ele><time>2026-05-03T10:48:16.001Z</time></trkpt><trkpt lat="42.260675504150704" lon="14.026616991683463"><ele>270.40000000000003</ele><time>2026-05-03T10:48:17.001Z</time></trkpt><trkpt lat="42.26074943048416" lon="14.026749737650071"><ele>272.6</ele><time>2026-05-03T10:48:18.001Z</time></trkpt><trkpt lat="42.260813676107695" lon="14.026870333624856"><ele>274.8</ele><time>2026-05-03T10:48:19.001Z</time></trkpt><trkpt lat="42.2608677399396" lon="14.026966061023794"><ele>277.0</ele><time>2026-05-03T10:48:20.001Z</time></trkpt><trkpt lat="42.26091465997036" lon="14.02704586769358"><ele>278.66666666666663</ele><time>2026-05-03T10:48:21.001Z</time></trkpt><trkpt lat="42.26095556907474" lon="14.02711073924259"><ele>280.3333333333333</ele><time>2026-05-03T10:48:22.001Z</time></trkpt><trkpt lat="42.26103381439471" lon="14.027195635049415"><ele>282.0</ele><time>2026-05-03T10:48:24.001Z</time></trkpt><trkpt lat="42.261102634623754" lon="14.027248937306076"><ele>283.6666666666667</ele><time>2026-05-03T10:48:26.001Z</time></trkpt><trkpt lat="42.261161492202085" lon="14.027178772285442"><ele>285.33333333333337</ele><time>2026-05-03T10:48:28.001Z</time></trkpt><trkpt lat="42.26113796444178" lon="14.0270409724033"><ele>287.0</ele><time>2026-05-03T10:48:30.001Z</time></trkpt><trkpt lat="42.261103943056895" lon="14.026958388201539"><ele>287.0</ele><time>2026-05-03T10:48:31.001Z</time></trkpt><trkpt lat="42.26107266655504" lon="14.026875636619655"><ele>287.0</ele><time>2026-05-03T10:48:32.001Z</time></trkpt><trkpt lat="42.261035913632625" lon="14.026725090338815"><ele>287.0</ele><time>2026-05-03T10:48:34.001Z</time></trkpt><trkpt lat="42.261007482980624" lon="14.026624312861651"><ele>287.0</ele><time>2026-05-03T10:48:35.001Z</time></trkpt><trkpt lat="42.260982921961656" lon="14.026523404221033"><ele>287.0</ele><time>2026-05-03T10:48:36.001Z</time></trkpt><trkpt lat="42.260963577530276" lon="14.026434441485897"><ele>287.0</ele><time>2026-05-03T10:48:37.001Z</time></trkpt><trkpt lat="42.26092898749194" lon="14.026279994569366"><ele>285.0</ele><time>2026-05-03T10:48:39.001Z</time></trkpt><trkpt lat="42.26088002174217" lon="14.026158284682742"><ele>283.0</ele><time>2026-05-03T10:48:41.001Z</time></trkpt><trkpt lat="42.26089210052741" lon="14.026070842628158"><ele>281.0</ele><time>2026-05-03T10:48:43.001Z</time></trkpt><trkpt lat="42.26096406260142" lon="14.026084097409779"><ele>279.0</ele><time>2026-05-03T10:48:45.001Z</time></trkpt><trkpt lat="42.26096955109665" lon="14.026250647244671"><ele>277.0</ele><time>2026-05-03T10:48:48.002Z</time></trkpt><trkpt lat="42.26100962999364" lon="14.02639062113008"><ele>277.0</ele><time>2026-05-03T10:48:49.002Z</time></trkpt><trkpt lat="42.26105799592018" lon="14.026548410266038"><ele>277.0</ele><time>2026-05-03T10:48:50.002Z</time></trkpt><trkpt lat="42.26111516283125" lon="14.026697903124017"><ele>277.0</ele><time>2026-05-03T10:48:51.002Z</time></trkpt><trkpt lat="42.26118814450638" lon="14.026837281056281"><ele>277.0</ele><time>2026-05-03T10:48:52.002Z</time></trkpt><trkpt lat="42.26126499836914" lon="14.026990295290908"><ele>279.5</ele><time>2026-05-03T10:48:53.002Z</time></trkpt><trkpt lat="42.26132527501114" lon="14.027156261127432"><ele>282.0</ele><time>2026-05-03T10:48:54.002Z</time></trkpt><trkpt lat="42.261374642908834" lon="14.027333228057739"><ele>284.5</ele><time>2026-05-03T10:48:55.002Z</time></trkpt><trkpt lat="42.26140514148994" lon="14.027498924568196"><ele>287.0</ele><time>2026-05-03T10:48:56.002Z</time></trkpt><trkpt lat="42.261430864826536" lon="14.02765863914215"><ele>291.5</ele><time>2026-05-03T10:48:57.002Z</time></trkpt><trkpt lat="42.2614774975444" lon="14.027798194419686"><ele>296.0</ele><time>2026-05-03T10:48:58.002Z</time></trkpt><trkpt lat="42.26155456630893" lon="14.027917774872973"><ele>300.5</ele><time>2026-05-03T10:48:59.002Z</time></trkpt><trkpt lat="42.2616486629812" lon="14.02801591147485"><ele>305.0</ele><time>2026-05-03T10:49:00.002Z</time></trkpt><trkpt lat="42.26173882764326" lon="14.028123244289487"><ele>305.0</ele><time>2026-05-03T10:49:01.002Z</time></trkpt><trkpt lat="42.26180698389651" lon="14.028254061925741"><ele>305.0</ele><time>2026-05-03T10:49:02.002Z</time></trkpt><trkpt lat="42.26186140877832" lon="14.028394915393168"><ele>305.0</ele><time>2026-05-03T10:49:03.002Z</time></trkpt><trkpt lat="42.26191725327535" lon="14.02853467752893"><ele>305.0</ele><time>2026-05-03T10:49:04.002Z</time></trkpt><trkpt lat="42.26197227127757" lon="14.028665708519714"><ele>305.8</ele><time>2026-05-03T10:49:05.002Z</time></trkpt><trkpt lat="42.26201892070643" lon="14.028769101098458"><ele>306.6</ele><time>2026-05-03T10:49:06.002Z</time></trkpt><trkpt lat="42.26206680356454" lon="14.028866160709851"><ele>307.4</ele><time>2026-05-03T10:49:08.002Z</time></trkpt><trkpt lat="42.26220722508003" lon="14.028783742487997"><ele>308.2</ele><time>2026-05-03T10:49:11.002Z</time></trkpt><trkpt lat="42.262263375787846" lon="14.028702669319058"><ele>309.0</ele><time>2026-05-03T10:49:12.002Z</time></trkpt><trkpt lat="42.26232392737639" lon="14.028609148688597"><ele>309.0</ele><time>2026-05-03T10:49:13.002Z</time></trkpt><trkpt lat="42.2623832079676" lon="14.028520387080295"><ele>309.0</ele><time>2026-05-03T10:49:14.002Z</time></trkpt><trkpt lat="42.26243012828737" lon="14.028458472184488"><ele>309.0</ele><time>2026-05-03T10:49:15.002Z</time></trkpt><trkpt lat="42.26248533494375" lon="14.028397853108189"><ele>309.0</ele><time>2026-05-03T10:49:17.002Z</time></trkpt><trkpt lat="42.26264134396128" lon="14.02849777448773"><ele>309.0</ele><time>2026-05-03T10:49:19.002Z</time></trkpt><trkpt lat="42.26273750672358" lon="14.028558737735501"><ele>309.0</ele><time>2026-05-03T10:49:20.002Z</time></trkpt><trkpt lat="42.26283983275845" lon="14.02861772069296"><ele>309.0</ele><time>2026-05-03T10:49:21.002Z</time></trkpt><trkpt lat="42.2629389352415" lon="14.028678106459868"><ele>309.0</ele><time>2026-05-03T10:49:22.002Z</time></trkpt><trkpt lat="42.26304715035038" lon="14.028748555177875"><ele>309.0</ele><time>2026-05-03T10:49:23Z</time></trkpt><trkpt lat="42.263159876984105" lon="14.028825632936806"><ele>308.75</ele><time>2026-05-03T10:49:24Z</time></trkpt><trkpt lat="42.2632788660197" lon="14.0289062297315"><ele>308.5</ele><time>2026-05-03T10:49:25Z</time></trkpt><trkpt lat="42.2634053217305" lon="14.028991971986773"><ele>308.25</ele><time>2026-05-03T10:49:26Z</time></trkpt><trkpt lat="42.263526783426315" lon="14.029071689694916"><ele>308.0</ele><time>2026-05-03T10:49:27Z</time></trkpt><trkpt lat="42.26364735003231" lon="14.029152104366458"><ele>308.0</ele><time>2026-05-03T10:49:28Z</time></trkpt><trkpt lat="42.26376693046891" lon="14.02923381431613"><ele>308.0</ele><time>2026-05-03T10:49:29Z</time></trkpt><trkpt lat="42.263894443569114" lon="14.029306001134476"><ele>308.0</ele><time>2026-05-03T10:49:30Z</time></trkpt><trkpt lat="42.26402705039599" lon="14.029360927023205"><ele>308.0</ele><time>2026-05-03T10:49:31Z</time></trkpt><trkpt lat="42.264159869320075" lon="14.02940140254715"><ele>307.5</ele><time>2026-05-03T10:49:32Z</time></trkpt><trkpt lat="42.26429469875573" lon="14.029433209809318"><ele>307.0</ele><time>2026-05-03T10:49:33Z</time></trkpt><trkpt lat="42.26442726004401" lon="14.029441575500433"><ele>306.5</ele><time>2026-05-03T10:49:34Z</time></trkpt><trkpt lat="42.26455437498642" lon="14.029422912365986"><ele>306.0</ele><time>2026-05-03T10:49:35Z</time></trkpt><trkpt lat="42.26467634421616" lon="14.029391724297374"><ele>306.0</ele><time>2026-05-03T10:49:36Z</time></trkpt><trkpt lat="42.26479344847643" lon="14.029355911712218"><ele>306.0</ele><time>2026-05-03T10:49:37Z</time></trkpt><trkpt lat="42.264890241199495" lon="14.029323866606498"><ele>306.0</ele><time>2026-05-03T10:49:38Z</time></trkpt><trkpt lat="42.2649790846189" lon="14.029303089957516"><ele>306.0</ele><time>2026-05-03T10:49:40Z</time></trkpt><trkpt lat="42.265119071935715" lon="14.029656174015779"><ele>306.0</ele><time>2026-05-03T10:50:00.001Z</time></trkpt><trkpt lat="42.26515056974056" lon="14.029748559230852"><ele>306.0</ele><time>2026-05-03T10:50:01.001Z</time></trkpt><trkpt lat="42.26516250072727" lon="14.029844974215793"><ele>306.0</ele><time>2026-05-03T10:50:02.001Z</time></trkpt><trkpt lat="42.26516415836076" lon="14.029936855345758"><ele>306.0</ele><time>2026-05-03T10:50:03.001Z</time></trkpt><trkpt lat="42.265158883250955" lon="14.030035702215075"><ele>306.0</ele><time>2026-05-03T10:50:04.001Z</time></trkpt><trkpt lat="42.26515576044088" lon="14.030127307666337"><ele>306.0</ele><time>2026-05-03T10:50:05.001Z</time></trkpt><trkpt lat="42.265152723626684" lon="14.030213870790433"><ele>306.0</ele><time>2026-05-03T10:50:06.001Z</time></trkpt><trkpt lat="42.26514968788268" lon="14.030314893198057"><ele>306.40000000000003</ele><time>2026-05-03T10:50:08.001Z</time></trkpt><trkpt lat="42.26514180699237" lon="14.030410437881972"><ele>306.8</ele><time>2026-05-03T10:50:15.001Z</time></trkpt><trkpt lat="42.26526812812225" lon="14.030478942983157"><ele>307.20000000000005</ele><time>2026-05-03T10:50:16.001Z</time></trkpt><trkpt lat="42.265345076058765" lon="14.030584965085392"><ele>307.6</ele><time>2026-05-03T10:50:18.001Z</time></trkpt><trkpt lat="42.265418172113804" lon="14.030666514486857"><ele>308.0</ele><time>2026-05-03T10:50:20.001Z</time></trkpt><trkpt lat="42.26546244235937" lon="14.030786920409017"><ele>308.0</ele><time>2026-05-03T10:50:22.001Z</time></trkpt><trkpt lat="42.26549550724838" lon="14.030900074464258"><ele>308.0</ele><time>2026-05-03T10:50:24.001Z</time></trkpt><trkpt lat="42.26551026210048" lon="14.030989947347079"><ele>308.0</ele><time>2026-05-03T10:50:25.001Z</time></trkpt><trkpt lat="42.26552341103063" lon="14.031076881646596"><ele>308.0</ele><time>2026-05-03T10:50:26.001Z</time></trkpt><trkpt lat="42.26554642366229" lon="14.031249405709971"><ele>308.0</ele><time>2026-05-03T10:50:28.001Z</time></trkpt><trkpt lat="42.26557676789592" lon="14.031338845685433"><ele>308.0</ele><time>2026-05-03T10:50:29.001Z</time></trkpt><trkpt lat="42.265606874006" lon="14.031422383276942"><ele>305.6</ele><time>2026-05-03T10:50:30.001Z</time></trkpt><trkpt lat="42.26563709385972" lon="14.031498367956639"><ele>303.20000000000005</ele><time>2026-05-03T10:50:31.001Z</time></trkpt><trkpt lat="42.2656919905479" lon="14.031638239209421"><ele>300.8</ele><time>2026-05-03T10:50:33.001Z</time></trkpt><trkpt lat="42.26572929963769" lon="14.03180011438447"><ele>298.40000000000003</ele><time>2026-05-03T10:50:35.001Z</time></trkpt><trkpt lat="42.26577217618273" lon="14.031864901831383"><ele>296.0</ele><time>2026-05-03T10:50:36.001Z</time></trkpt><trkpt lat="42.26575742397224" lon="14.03197131705727"><ele>295.0</ele><time>2026-05-03T10:50:37.001Z</time></trkpt><trkpt lat="42.265776179894466" lon="14.032059460034887"><ele>294.0</ele><time>2026-05-03T10:50:38.001Z</time></trkpt><trkpt lat="42.26580512165319" lon="14.032140691988202"><ele>293.0</ele><time>2026-05-03T10:50:39.001Z</time></trkpt><trkpt lat="42.26583779754499" lon="14.032228813457511"><ele>292.0</ele><time>2026-05-03T10:50:40.001Z</time></trkpt><trkpt lat="42.265877840490475" lon="14.032320639478513"><ele>291.0</ele><time>2026-05-03T10:50:41.001Z</time></trkpt><trkpt lat="42.26592296188527" lon="14.032403112608417"><ele>290.0</ele><time>2026-05-03T10:50:42.001Z</time></trkpt><trkpt lat="42.26597131827403" lon="14.032471692520382"><ele>289.0</ele><time>2026-05-03T10:50:43.001Z</time></trkpt><trkpt lat="42.266026754676766" lon="14.032533001436162"><ele>287.4</ele><time>2026-05-03T10:50:44.001Z</time></trkpt><trkpt lat="42.266071545798475" lon="14.03260587204561"><ele>285.79999999999995</ele><time>2026-05-03T10:50:45.001Z</time></trkpt><trkpt lat="42.266106772568506" lon="14.03267912169098"><ele>284.20000000000005</ele><time>2026-05-03T10:50:46.001Z</time></trkpt><trkpt lat="42.266199047674256" lon="14.032792546958433"><ele>282.6</ele><time>2026-05-03T10:50:48.001Z</time></trkpt><trkpt lat="42.266294434134906" lon="14.032884714322378"><ele>281.0</ele><time>2026-05-03T10:50:50.001Z</time></trkpt><trkpt lat="42.26636985465271" lon="14.032937039250873"><ele>281.0</ele><time>2026-05-03T10:50:52.001Z</time></trkpt><trkpt lat="42.26643543363806" lon="14.032964825967612"><ele>281.0</ele><time>2026-05-03T10:50:54.001Z</time></trkpt><trkpt lat="42.266497665411215" lon="14.032934401925521"><ele>281.0</ele><time>2026-05-03T10:50:56.001Z</time></trkpt><trkpt lat="42.26656591048793" lon="14.032860730959412"><ele>281.0</ele><time>2026-05-03T10:50:58.002Z</time></trkpt><trkpt lat="42.26663572342015" lon="14.032777125900258"><ele>281.0</ele><time>2026-05-03T10:51:00.002Z</time></trkpt><trkpt lat="42.26669135244855" lon="14.032716582108232"><ele>281.0</ele><time>2026-05-03T10:51:02.002Z</time></trkpt><trkpt lat="42.26676932185457" lon="14.032680359274858"><ele>278.6666666666667</ele><time>2026-05-03T10:51:05.002Z</time></trkpt><trkpt lat="42.26681645020217" lon="14.032752411339992"><ele>276.33333333333337</ele><time>2026-05-03T10:51:08.002Z</time></trkpt><trkpt lat="42.26679367763495" lon="14.032889306671171"><ele>274.0</ele><time>2026-05-03T10:51:10.002Z</time></trkpt><trkpt lat="42.26678682469211" lon="14.032980440338449"><ele>271.6666666666667</ele><time>2026-05-03T10:51:11.002Z</time></trkpt><trkpt lat="42.2667885413606" lon="14.03315445096175"><ele>269.3333333333333</ele><time>2026-05-03T10:51:13.002Z</time></trkpt><trkpt lat="42.266787619460935" lon="14.033248149906061"><ele>267.0</ele><time>2026-05-03T10:51:14.002Z</time></trkpt><trkpt lat="42.26678231295769" lon="14.033339986256841"><ele>265.0</ele><time>2026-05-03T10:51:15.002Z</time></trkpt><trkpt lat="42.26678342960136" lon="14.033431951961239"><ele>263.0</ele><time>2026-05-03T10:51:16.002Z</time></trkpt><trkpt lat="42.266778107400185" lon="14.033571783762198"><ele>261.0</ele><time>2026-05-03T10:51:18.002Z</time></trkpt><trkpt lat="42.26675384446727" lon="14.033676858640632"><ele>259.0</ele><time>2026-05-03T10:51:20.002Z</time></trkpt><trkpt lat="42.266742945473354" lon="14.0337688395389"><ele>257.0</ele><time>2026-05-03T10:51:22.002Z</time></trkpt><trkpt lat="42.2667868495724" lon="14.033873551822808"><ele>255.0</ele><time>2026-05-03T10:51:25.002Z</time></trkpt><trkpt lat="42.26681484104137" lon="14.033962266185204"><ele>255.0</ele><time>2026-05-03T10:51:31Z</time></trkpt><trkpt lat="42.26686046425766" lon="14.034051569820473"><ele>255.0</ele><time>2026-05-03T10:51:33Z</time></trkpt><trkpt lat="42.26690716976238" lon="14.034133406697089"><ele>255.0</ele><time>2026-05-03T10:51:35Z</time></trkpt><trkpt lat="42.266944179223394" lon="14.034210002436087"><ele>255.0</ele><time>2026-05-03T10:51:37Z</time></trkpt><trkpt lat="42.26701211554868" lon="14.034327951572054"><ele>255.0</ele><time>2026-05-03T10:51:40Z</time></trkpt><trkpt lat="42.26706786045237" lon="14.034410741446793"><ele>255.0</ele><time>2026-05-03T10:51:42Z</time></trkpt><trkpt lat="42.26713681204485" lon="14.034506459216637"><ele>253.2</ele><time>2026-05-03T10:51:45Z</time></trkpt><trkpt lat="42.267198857680874" lon="14.034619204529651"><ele>251.4</ele><time>2026-05-03T10:51:47Z</time></trkpt><trkpt lat="42.26725775632486" lon="14.034721249401796"><ele>249.60000000000002</ele><time>2026-05-03T10:51:49Z</time></trkpt><trkpt lat="42.267308407030455" lon="14.034827408011521"><ele>247.8</ele><time>2026-05-03T10:51:51Z</time></trkpt><trkpt lat="42.267337131248524" lon="14.034924063824707"><ele>246.0</ele><time>2026-05-03T10:51:53.001Z</time></trkpt><trkpt lat="42.26736967742596" lon="14.035033145295534"><ele>244.20000000000002</ele><time>2026-05-03T10:51:55.001Z</time></trkpt><trkpt lat="42.26736320558799" lon="14.035137843173047"><ele>242.40000000000003</ele><time>2026-05-03T10:51:57.001Z</time></trkpt><trkpt lat="42.26735590437258" lon="14.035259478638405"><ele>240.6</ele><time>2026-05-03T10:51:59.001Z</time></trkpt><trkpt lat="42.26735297332708" lon="14.03537586461403"><ele>238.8</ele><time>2026-05-03T10:52:01.001Z</time></trkpt><trkpt lat="42.26735518622102" lon="14.035502426074332"><ele>237.0</ele><time>2026-05-03T10:52:03.001Z</time></trkpt><trkpt lat="42.26735324171401" lon="14.035645689757086"><ele>237.0</ele><time>2026-05-03T10:52:05.001Z</time></trkpt><trkpt lat="42.2673530032827" lon="14.035767853414773"><ele>237.0</ele><time>2026-05-03T10:52:07.001Z</time></trkpt><trkpt lat="42.26733131278213" lon="14.035869256864885"><ele>237.0</ele><time>2026-05-03T10:52:09.001Z</time></trkpt><trkpt lat="42.267288105181265" lon="14.035953591988372"><ele>237.0</ele><time>2026-05-03T10:52:11.001Z</time></trkpt><trkpt lat="42.2672877683269" lon="14.036074135793095"><ele>237.0</ele><time>2026-05-03T10:52:14.001Z</time></trkpt><trkpt lat="42.26733954563432" lon="14.036152326833127"><ele>237.0</ele><time>2026-05-03T10:52:16.001Z</time></trkpt><trkpt lat="42.26741683671067" lon="14.036229706668225"><ele>235.28571428571425</ele><time>2026-05-03T10:52:18.001Z</time></trkpt><trkpt lat="42.26747276824003" lon="14.036300350982762"><ele>233.57142857142856</ele><time>2026-05-03T10:52:20.001Z</time></trkpt><trkpt lat="42.26751481510204" lon="14.036363871134048"><ele>231.85714285714286</ele><time>2026-05-03T10:52:22.001Z</time></trkpt><trkpt lat="42.267564588736896" lon="14.036452039199162"><ele>230.14285714285714</ele><time>2026-05-03T10:52:24.001Z</time></trkpt><trkpt lat="42.26761688221831" lon="14.036535078846466"><ele>228.42857142857144</ele><time>2026-05-03T10:52:26.001Z</time></trkpt><trkpt lat="42.26766329978912" lon="14.0365955198755"><ele>226.71428571428575</ele><time>2026-05-03T10:52:28.001Z</time></trkpt><trkpt lat="42.26769930450493" lon="14.036672820845908"><ele>225.00000000000003</ele><time>2026-05-03T10:52:47.001Z</time></trkpt><trkpt lat="42.267745916109206" lon="14.036613522786284"><ele>225.0</ele><time>2026-05-03T10:52:55.001Z</time></trkpt><trkpt lat="42.267819345028826" lon="14.036522679756441"><ele>225.0</ele><time>2026-05-03T10:52:57.001Z</time></trkpt><trkpt lat="42.26791172093014" lon="14.036433777337383"><ele>225.0</ele><time>2026-05-03T10:52:59.001Z</time></trkpt><trkpt lat="42.26800338850576" lon="14.036360818798837"><ele>225.0</ele><time>2026-05-03T10:53:01.001Z</time></trkpt><trkpt lat="42.268091241576045" lon="14.036285279577429"><ele>225.0</ele><time>2026-05-03T10:53:03.002Z</time></trkpt><trkpt lat="42.26814798255453" lon="14.036246979785115"><ele>228.2</ele><time>2026-05-03T10:53:04.002Z</time></trkpt><trkpt lat="42.26821022851109" lon="14.036219073015701"><ele>231.4</ele><time>2026-05-03T10:53:05.002Z</time></trkpt><trkpt lat="42.26827170495604" lon="14.0361893838255"><ele>234.60000000000002</ele><time>2026-05-03T10:53:06.002Z</time></trkpt><trkpt lat="42.26836362138256" lon="14.036125550086176"><ele>237.8</ele><time>2026-05-03T10:53:08.002Z</time></trkpt><trkpt lat="42.268437455448144" lon="14.036043680825388"><ele>241.0</ele><time>2026-05-03T10:53:10.002Z</time></trkpt><trkpt lat="42.268552952347434" lon="14.03599063271089"><ele>241.0</ele><time>2026-05-03T10:53:12.002Z</time></trkpt><trkpt lat="42.2686177059833" lon="14.03596441434965"><ele>241.00000000000003</ele><time>2026-05-03T10:53:13.002Z</time></trkpt><trkpt lat="42.26868057477387" lon="14.035928253980675"><ele>241.0</ele><time>2026-05-03T10:53:14.002Z</time></trkpt><trkpt lat="42.2687407866322" lon="14.035892836016533"><ele>241.0</ele><time>2026-05-03T10:53:15.002Z</time></trkpt><trkpt lat="42.26881053141593" lon="14.035891716739512"><ele>241.00000000000003</ele><time>2026-05-03T10:53:16.002Z</time></trkpt><trkpt lat="42.268886289267975" lon="14.035897715164674"><ele>241.0</ele><time>2026-05-03T10:53:17.002Z</time></trkpt><trkpt lat="42.26896575949879" lon="14.035908058078263"><ele>241.0</ele><time>2026-05-03T10:53:18.002Z</time></trkpt><trkpt lat="42.2690461661224" lon="14.035907362010471"><ele>242.16666666666666</ele><time>2026-05-03T10:53:19.002Z</time></trkpt><trkpt lat="42.269117783382875" lon="14.035885744852365"><ele>243.33333333333331</ele><time>2026-05-03T10:53:20.002Z</time></trkpt><trkpt lat="42.269194350621284" lon="14.03586114589729"><ele>244.5</ele><time>2026-05-03T10:53:21.002Z</time></trkpt><trkpt lat="42.26926921842193" lon="14.0358708503468"><ele>245.66666666666669</ele><time>2026-05-03T10:53:22.002Z</time></trkpt><trkpt lat="42.269346770843214" lon="14.035902619299444"><ele>246.83333333333334</ele><time>2026-05-03T10:53:23.002Z</time></trkpt><trkpt lat="42.26943683226297" lon="14.035928005670138"><ele>248.0</ele><time>2026-05-03T10:53:24.002Z</time></trkpt><trkpt lat="42.269503825084364" lon="14.035944520292562"><ele>248.00000000000003</ele><time>2026-05-03T10:53:25.002Z</time></trkpt><trkpt lat="42.2695774561333" lon="14.03597278153624"><ele>248.0</ele><time>2026-05-03T10:53:26.002Z</time></trkpt><trkpt lat="42.269642830330774" lon="14.036004299022837"><ele>248.0</ele><time>2026-05-03T10:53:27.002Z</time></trkpt><trkpt lat="42.26971366332142" lon="14.03603562967027"><ele>248.0</ele><time>2026-05-03T10:53:28.002Z</time></trkpt><trkpt lat="42.2697859159305" lon="14.036058568441486"><ele>248.00000000000003</ele><time>2026-05-03T10:53:29.002Z</time></trkpt><trkpt lat="42.26986464125716" lon="14.036075722297438"><ele>248.0</ele><time>2026-05-03T10:53:30.002Z</time></trkpt><trkpt lat="42.26994028501179" lon="14.036095743776642"><ele>250.16666666666669</ele><time>2026-05-03T10:53:31.002Z</time></trkpt><trkpt lat="42.27000584882431" lon="14.036119193408743"><ele>252.33333333333334</ele><time>2026-05-03T10:53:32.002Z</time></trkpt><trkpt lat="42.270091211881855" lon="14.036163584547179"><ele>254.5</ele><time>2026-05-03T10:53:34.002Z</time></trkpt><trkpt lat="42.27017117449852" lon="14.036188264940858"><ele>256.6666666666667</ele><time>2026-05-03T10:53:36Z</time></trkpt><trkpt lat="42.27025856925506" lon="14.03618789267583"><ele>258.8333333333333</ele><time>2026-05-03T10:53:38Z</time></trkpt><trkpt lat="42.27035513498699" lon="14.036145854538157"><ele>261.0</ele><time>2026-05-03T10:53:40Z</time></trkpt><trkpt lat="42.27044781918656" lon="14.036098806860277"><ele>261.0</ele><time>2026-05-03T10:53:42Z</time></trkpt><trkpt lat="42.27054145571353" lon="14.036063433541898"><ele>261.0</ele><time>2026-05-03T10:53:44Z</time></trkpt><trkpt lat="42.27063495682814" lon="14.036058668134975"><ele>261.0</ele><time>2026-05-03T10:53:46Z</time></trkpt><trkpt lat="42.27073369919928" lon="14.036076662670377"><ele>261.0</ele><time>2026-05-03T10:53:48Z</time></trkpt><trkpt lat="42.270833610877936" lon="14.036107395161256"><ele>261.0</ele><time>2026-05-03T10:53:50Z</time></trkpt><trkpt lat="42.270953130103095" lon="14.03615310952215"><ele>259.6666666666667</ele><time>2026-05-03T10:53:52Z</time></trkpt><trkpt lat="42.27101504429841" lon="14.036171850574446"><ele>258.3333333333333</ele><time>2026-05-03T10:53:53Z</time></trkpt><trkpt lat="42.2711130215447" lon="14.036196599799498"><ele>257.0</ele><time>2026-05-03T10:53:55Z</time></trkpt><trkpt lat="42.271179069021976" lon="14.036231034970022"><ele>255.66666666666666</ele><time>2026-05-03T10:53:57Z</time></trkpt><trkpt lat="42.27124099159479" lon="14.03619517520012"><ele>254.33333333333331</ele><time>2026-05-03T10:54:01Z</time></trkpt><trkpt lat="42.27126281357661" lon="14.036102933397489"><ele>253.0</ele><time>2026-05-03T10:54:03Z</time></trkpt><trkpt lat="42.271279445593805" lon="14.035945079636738"><ele>252.99999999999997</ele><time>2026-05-03T10:54:05Z</time></trkpt><trkpt lat="42.271312922553825" lon="14.035871090257539"><ele>253.0</ele><time>2026-05-03T10:54:06Z</time></trkpt><trkpt lat="42.27134602662273" lon="14.035791090402265"><ele>253.0</ele><time>2026-05-03T10:54:07Z</time></trkpt><trkpt lat="42.27135797599447" lon="14.035620703830782"><ele>253.0</ele><time>2026-05-03T10:54:09Z</time></trkpt><trkpt lat="42.27134743944403" lon="14.035516939440804"><ele>252.99999999999997</ele><time>2026-05-03T10:54:10.001Z</time></trkpt><trkpt lat="42.27132777371191" lon="14.035417734750384"><ele>253.0</ele><time>2026-05-03T10:54:11.001Z</time></trkpt><trkpt lat="42.27131844625898" lon="14.035234419764897"><ele>253.16666666666666</ele><time>2026-05-03T10:54:13.001Z</time></trkpt><trkpt lat="42.27133224778484" lon="14.035134800301606"><ele>253.33333333333331</ele><time>2026-05-03T10:54:14.001Z</time></trkpt><trkpt lat="42.2713579334336" lon="14.035027689248395"><ele>253.5</ele><time>2026-05-03T10:54:15.001Z</time></trkpt><trkpt lat="42.27138878357847" lon="14.03492881100091"><ele>253.66666666666669</ele><time>2026-05-03T10:54:16.001Z</time></trkpt><trkpt lat="42.27142441291601" lon="14.034830642018123"><ele>253.83333333333334</ele><time>2026-05-03T10:54:17.001Z</time></trkpt><trkpt lat="42.27146244627105" lon="14.034733400280212"><ele>254.0</ele><time>2026-05-03T10:54:18.001Z</time></trkpt><trkpt lat="42.27149209019936" lon="14.034642727092672"><ele>254.00000000000003</ele><time>2026-05-03T10:54:19.001Z</time></trkpt><trkpt lat="42.27151929303412" lon="14.034540975266594"><ele>254.0</ele><time>2026-05-03T10:54:20.001Z</time></trkpt><trkpt lat="42.27153922330403" lon="14.034435414330401"><ele>254.0</ele><time>2026-05-03T10:54:21.001Z</time></trkpt><trkpt lat="42.27156474722725" lon="14.034325854931955"><ele>254.0</ele><time>2026-05-03T10:54:22.001Z</time></trkpt><trkpt lat="42.2715861045201" lon="14.03421011356058"><ele>254.00000000000003</ele><time>2026-05-03T10:54:23.001Z</time></trkpt><trkpt lat="42.271603780453106" lon="14.034106281884918"><ele>254.0</ele><time>2026-05-03T10:54:24.001Z</time></trkpt><trkpt lat="42.271610317845195" lon="14.03400667299434"><ele>256.1666666666667</ele><time>2026-05-03T10:54:25.001Z</time></trkpt><trkpt lat="42.27162474141106" lon="14.033905476041486"><ele>258.33333333333337</ele><time>2026-05-03T10:54:26.001Z</time></trkpt><trkpt lat="42.27165184859058" lon="14.033815552856417"><ele>260.5</ele><time>2026-05-03T10:54:27.001Z</time></trkpt><trkpt lat="42.27168526415385" lon="14.033727613942192"><ele>262.6666666666667</ele><time>2026-05-03T10:54:28.001Z</time></trkpt><trkpt lat="42.271720124834566" lon="14.033627303623748"><ele>264.8333333333333</ele><time>2026-05-03T10:54:29.001Z</time></trkpt><trkpt lat="42.271744708043784" lon="14.03351862364121"><ele>267.0</ele><time>2026-05-03T10:54:30.001Z</time></trkpt><trkpt lat="42.27175995640152" lon="14.033413233991878"><ele>267.0</ele><time>2026-05-03T10:54:31.001Z</time></trkpt><trkpt lat="42.271769458517" lon="14.033325521702757"><ele>267.0</ele><time>2026-05-03T10:54:32.001Z</time></trkpt><trkpt lat="42.27176439076627" lon="14.03323597186016"><ele>267.0</ele><time>2026-05-03T10:54:33.001Z</time></trkpt><trkpt lat="42.27174064261618" lon="14.033149612895695"><ele>267.0</ele><time>2026-05-03T10:54:34.001Z</time></trkpt><trkpt lat="42.27172819873944" lon="14.03306113065196"><ele>267.0</ele><time>2026-05-03T10:54:35.001Z</time></trkpt><trkpt lat="42.27172789103726" lon="14.032962268587005"><ele>267.0</ele><time>2026-05-03T10:54:36.001Z</time></trkpt><trkpt lat="42.27180529844972" lon="14.03284784083961"><ele>269.6</ele><time>2026-05-03T10:54:38.001Z</time></trkpt><trkpt lat="42.2719215963338" lon="14.032847583470726"><ele>272.2</ele><time>2026-05-03T10:54:40.001Z</time></trkpt><trkpt lat="42.271955755449106" lon="14.032728872872967"><ele>274.8</ele><time>2026-05-03T10:54:43.001Z</time></trkpt><trkpt lat="42.27195448268929" lon="14.032551265908385"><ele>277.4</ele><time>2026-05-03T10:54:45.001Z</time></trkpt><trkpt lat="42.27196480395493" lon="14.032446448640682"><ele>280.0</ele><time>2026-05-03T10:54:46.001Z</time></trkpt><trkpt lat="42.27198959557904" lon="14.032343506588871"><ele>281.66666666666663</ele><time>2026-05-03T10:54:47.001Z</time></trkpt><trkpt lat="42.27200900401279" lon="14.03224110546913"><ele>283.3333333333333</ele><time>2026-05-03T10:54:48.001Z</time></trkpt><trkpt lat="42.272020435518805" lon="14.032129491001053"><ele>285.0</ele><time>2026-05-03T10:54:49.001Z</time></trkpt><trkpt lat="42.27203419506408" lon="14.032024959563753"><ele>286.6666666666667</ele><time>2026-05-03T10:54:50.001Z</time></trkpt><trkpt lat="42.27205844537571" lon="14.031945286163465"><ele>288.33333333333337</ele><time>2026-05-03T10:54:51.001Z</time></trkpt><trkpt lat="42.272067884148846" lon="14.031784417073755"><ele>290.0</ele><time>2026-05-03T10:54:53.001Z</time></trkpt><trkpt lat="42.27207433848386" lon="14.031683315176554"><ele>290.4</ele><time>2026-05-03T10:54:54.001Z</time></trkpt><trkpt lat="42.27208771296762" lon="14.031522524482837"><ele>290.8</ele><time>2026-05-03T10:54:56.001Z</time></trkpt><trkpt lat="42.27211213862062" lon="14.031428902253728"><ele>291.2</ele><time>2026-05-03T10:54:58.001Z</time></trkpt><trkpt lat="42.272132231506816" lon="14.031337104125862"><ele>291.6</ele><time>2026-05-03T10:55:00.001Z</time></trkpt><trkpt lat="42.272160446180656" lon="14.031205257828276"><ele>292.0</ele><time>2026-05-03T10:55:02.001Z</time></trkpt><trkpt lat="42.272192596312294" lon="14.0310621768837"><ele>292.0</ele><time>2026-05-03T10:55:04.001Z</time></trkpt><trkpt lat="42.2722103837628" lon="14.03095211730118"><ele>292.0</ele><time>2026-05-03T10:55:06.001Z</time></trkpt><trkpt lat="42.27228338591291" lon="14.030878874163504"><ele>292.0</ele><time>2026-05-03T10:55:10.001Z</time></trkpt><trkpt lat="42.27234745100179" lon="14.030874339128902"><ele>292.0</ele><time>2026-05-03T10:55:11.001Z</time></trkpt><trkpt lat="42.27243856508108" lon="14.030864565291266"><ele>292.0</ele><time>2026-05-03T10:55:12.001Z</time></trkpt><trkpt lat="42.27254173727585" lon="14.03084617311311"><ele>292.0</ele><time>2026-05-03T10:55:13.001Z</time></trkpt><trkpt lat="42.272652889160774" lon="14.030825241320017"><ele>291.4</ele><time>2026-05-03T10:55:14.001Z</time></trkpt><trkpt lat="42.272760172691896" lon="14.030809024671694"><ele>290.79999999999995</ele><time>2026-05-03T10:55:15.001Z</time></trkpt><trkpt lat="42.27286346244811" lon="14.030803187217352"><ele>290.2</ele><time>2026-05-03T10:55:16.001Z</time></trkpt><trkpt lat="42.27296126693453" lon="14.030799876985775"><ele>289.59999999999997</ele><time>2026-05-03T10:55:17.002Z</time></trkpt><trkpt lat="42.27305614678427" lon="14.030802222345827"><ele>289.0</ele><time>2026-05-03T10:55:18.002Z</time></trkpt><trkpt lat="42.27315126337969" lon="14.03080234099162"><ele>287.4</ele><time>2026-05-03T10:55:19.002Z</time></trkpt><trkpt lat="42.273249944557556" lon="14.03082145237774"><ele>285.79999999999995</ele><time>2026-05-03T10:55:20.002Z</time></trkpt><trkpt lat="42.27333117835537" lon="14.030868777604608"><ele>284.20000000000005</ele><time>2026-05-03T10:55:21.002Z</time></trkpt><trkpt lat="42.273428161558236" lon="14.030914106583543"><ele>282.6</ele><time>2026-05-03T10:55:22.002Z</time></trkpt><trkpt lat="42.27352212607731" lon="14.03097103732177"><ele>281.0</ele><time>2026-05-03T10:55:23.002Z</time></trkpt><trkpt lat="42.27361403568519" lon="14.031027097002296"><ele>281.0</ele><time>2026-05-03T10:55:24.002Z</time></trkpt><trkpt lat="42.27370535800349" lon="14.031096614809053"><ele>281.0</ele><time>2026-05-03T10:55:25.002Z</time></trkpt><trkpt lat="42.27378548822345" lon="14.031179311306488"><ele>281.0</ele><time>2026-05-03T10:55:26.002Z</time></trkpt><trkpt lat="42.27386694711089" lon="14.031265494029654"><ele>281.0</ele><time>2026-05-03T10:55:27.002Z</time></trkpt><trkpt lat="42.273944840977315" lon="14.031347316456726"><ele>281.0</ele><time>2026-05-03T10:55:28.002Z</time></trkpt><trkpt lat="42.274027829009235" lon="14.031424486620455"><ele>280.40000000000003</ele><time>2026-05-03T10:55:29.002Z</time></trkpt><trkpt lat="42.27409644522963" lon="14.031505965252865"><ele>279.8</ele><time>2026-05-03T10:55:30.002Z</time></trkpt><trkpt lat="42.27416184267747" lon="14.03157110149307"><ele>279.20000000000005</ele><time>2026-05-03T10:55:31.002Z</time></trkpt><trkpt lat="42.27425654046295" lon="14.031659975283409"><ele>278.6</ele><time>2026-05-03T10:55:33.002Z</time></trkpt><trkpt lat="42.274374588943715" lon="14.031726747532238"><ele>278.0</ele><time>2026-05-03T10:55:35.002Z</time></trkpt><trkpt lat="42.27444851064071" lon="14.031718963843804"><ele>278.0</ele><time>2026-05-03T10:55:36.002Z</time></trkpt><trkpt lat="42.27452581079941" lon="14.031703259997196"><ele>278.0</ele><time>2026-05-03T10:55:37.002Z</time></trkpt><trkpt lat="42.27460381782576" lon="14.031678961450744"><ele>278.0</ele><time>2026-05-03T10:55:38.002Z</time></trkpt><trkpt lat="42.274691436579054" lon="14.031644647636284"><ele>278.0</ele><time>2026-05-03T10:55:39.002Z</time></trkpt><trkpt lat="42.27477953721825" lon="14.031604906349955"><ele>278.0</ele><time>2026-05-03T10:55:40.002Z</time></trkpt><trkpt lat="42.27487524983015" lon="14.031564782539782"><ele>278.0</ele><time>2026-05-03T10:55:41Z</time></trkpt><trkpt lat="42.27497680059509" lon="14.031527885736478"><ele>270.0</ele><time>2026-05-03T10:55:42Z</time></trkpt><trkpt lat="42.2750788092363" lon="14.031483196673681"><ele>262.0</ele><time>2026-05-03T10:55:43Z</time></trkpt><trkpt lat="42.275182671858666" lon="14.031428734486015"><ele>254.0</ele><time>2026-05-03T10:55:44Z</time></trkpt><trkpt lat="42.27528818766208" lon="14.031368377518216"><ele>246.0</ele><time>2026-05-03T10:55:45Z</time></trkpt><trkpt lat="42.275398066627645" lon="14.031305787954041"><ele>246.0</ele><time>2026-05-03T10:55:46Z</time></trkpt><trkpt lat="42.27550903021857" lon="14.03124377638904"><ele>246.0</ele><time>2026-05-03T10:55:47Z</time></trkpt><trkpt lat="42.275624076641876" lon="14.031183121084538"><ele>246.0</ele><time>2026-05-03T10:55:48Z</time></trkpt><trkpt lat="42.27573773091316" lon="14.031122425090356"><ele>246.0</ele><time>2026-05-03T10:55:49Z</time></trkpt><trkpt lat="42.27584907724497" lon="14.031067403961293"><ele>247.20000000000002</ele><time>2026-05-03T10:55:50Z</time></trkpt><trkpt lat="42.27595125615186" lon="14.031020914789016"><ele>248.40000000000003</ele><time>2026-05-03T10:55:51Z</time></trkpt><trkpt lat="42.276052615290375" lon="14.030988116075568"><ele>249.6</ele><time>2026-05-03T10:55:52Z</time></trkpt><trkpt lat="42.27615396245336" lon="14.030978802458703"><ele>250.8</ele><time>2026-05-03T10:55:53Z</time></trkpt><trkpt lat="42.276252029663276" lon="14.030994977125403"><ele>252.0</ele><time>2026-05-03T10:55:54Z</time></trkpt><trkpt lat="42.27634955152576" lon="14.031054855709758"><ele>250.0</ele><time>2026-05-03T10:55:55Z</time></trkpt><trkpt lat="42.276442107126506" lon="14.03113645105077"><ele>248.0</ele><time>2026-05-03T10:55:56Z</time></trkpt><trkpt lat="42.27652316163796" lon="14.031243518065077"><ele>246.0</ele><time>2026-05-03T10:55:57Z</time></trkpt><trkpt lat="42.276596382819626" lon="14.031366430167061"><ele>244.0</ele><time>2026-05-03T10:55:58Z</time></trkpt><trkpt lat="42.27667236832995" lon="14.031500052571378"><ele>244.0</ele><time>2026-05-03T10:55:59Z</time></trkpt><trkpt lat="42.27675121728969" lon="14.031639911901072"><ele>244.0</ele><time>2026-05-03T10:56:00Z</time></trkpt><trkpt lat="42.276831117155304" lon="14.031787006253067"><ele>244.0</ele><time>2026-05-03T10:56:01Z</time></trkpt><trkpt lat="42.27691546165863" lon="14.031930740703098"><ele>244.0</ele><time>2026-05-03T10:56:02Z</time></trkpt><trkpt lat="42.277001960610875" lon="14.032074109577886"><ele>242.5</ele><time>2026-05-03T10:56:03Z</time></trkpt><trkpt lat="42.27709199891059" lon="14.032217671266894"><ele>241.0</ele><time>2026-05-03T10:56:04Z</time></trkpt><trkpt lat="42.27718156624583" lon="14.032360318867484"><ele>239.5</ele><time>2026-05-03T10:56:05Z</time></trkpt><trkpt lat="42.277275005403624" lon="14.032500760324"><ele>238.0</ele><time>2026-05-03T10:56:06Z</time></trkpt><trkpt lat="42.277365801399476" lon="14.032640963455995"><ele>238.0</ele><time>2026-05-03T10:56:07Z</time></trkpt><trkpt lat="42.277459947739864" lon="14.032778466182613"><ele>238.0</ele><time>2026-05-03T10:56:08Z</time></trkpt><trkpt lat="42.27755549631775" lon="14.032912307668063"><ele>238.0</ele><time>2026-05-03T10:56:09Z</time></trkpt><trkpt lat="42.27764392674758" lon="14.033049000905928"><ele>238.0</ele><time>2026-05-03T10:56:10Z</time></trkpt><trkpt lat="42.277730092680834" lon="14.03318578080672"><ele>239.5</ele><time>2026-05-03T10:56:11Z</time></trkpt><trkpt lat="42.27781640344766" lon="14.033318679937794"><ele>241.0</ele><time>2026-05-03T10:56:12Z</time></trkpt><trkpt lat="42.27789779273433" lon="14.033448228685344"><ele>242.5</ele><time>2026-05-03T10:56:13Z</time></trkpt><trkpt lat="42.27796428846948" lon="14.033566139238658"><ele>244.0</ele><time>2026-05-03T10:56:14Z</time></trkpt><trkpt lat="42.27802134675846" lon="14.033682859000002"><ele>244.0</ele><time>2026-05-03T10:56:15Z</time></trkpt><trkpt lat="42.278076528692594" lon="14.033801915851111"><ele>244.0</ele><time>2026-05-03T10:56:16Z</time></trkpt><trkpt lat="42.27813887660496" lon="14.033929422891001"><ele>244.0</ele><time>2026-05-03T10:56:17Z</time></trkpt><trkpt lat="42.278203921153484" lon="14.034068233960943"><ele>244.0</ele><time>2026-05-03T10:56:18Z</time></trkpt><trkpt lat="42.278271351006175" lon="14.03421553714294"><ele>240.5</ele><time>2026-05-03T10:56:19Z</time></trkpt><trkpt lat="42.27834101347272" lon="14.034368605066089"><ele>237.0</ele><time>2026-05-03T10:56:20Z</time></trkpt><trkpt lat="42.27840854299344" lon="14.034526225850392"><ele>233.5</ele><time>2026-05-03T10:56:21Z</time></trkpt><trkpt lat="42.27847245227745" lon="14.034681400277048"><ele>230.0</ele><time>2026-05-03T10:56:22.001Z</time></trkpt><trkpt lat="42.278538209796515" lon="14.034821185957647"><ele>230.0</ele><time>2026-05-03T10:56:23.001Z</time></trkpt><trkpt lat="42.27861711038611" lon="14.03493611302413"><ele>230.0</ele><time>2026-05-03T10:56:24.001Z</time></trkpt><trkpt lat="42.27871063611508" lon="14.035043508251025"><ele>230.0</ele><time>2026-05-03T10:56:25.001Z</time></trkpt><trkpt lat="42.27880917456679" lon="14.03515054166737"><ele>230.0</ele><time>2026-05-03T10:56:26.001Z</time></trkpt><trkpt lat="42.27890883703533" lon="14.035265919194153"><ele>228.5</ele><time>2026-05-03T10:56:27.001Z</time></trkpt><trkpt lat="42.2790057244939" lon="14.035389288890242"><ele>227.0</ele><time>2026-05-03T10:56:28.001Z</time></trkpt><trkpt lat="42.27909940711028" lon="14.035524591048"><ele>225.5</ele><time>2026-05-03T10:56:29.001Z</time></trkpt><trkpt lat="42.27918805134127" lon="14.035666756324288"><ele>224.0</ele><time>2026-05-03T10:56:30.001Z</time></trkpt><trkpt lat="42.27926557742681" lon="14.035817302476486"><ele>224.0</ele><time>2026-05-03T10:56:31.001Z</time></trkpt><trkpt lat="42.279334806565345" lon="14.03597485638087"><ele>224.0</ele><time>2026-05-03T10:56:32.001Z</time></trkpt><trkpt lat="42.27940042101331" lon="14.036134963900794"><ele>224.0</ele><time>2026-05-03T10:56:33.001Z</time></trkpt><trkpt lat="42.27946928559532" lon="14.036294112750708"><ele>224.0</ele><time>2026-05-03T10:56:34.001Z</time></trkpt><trkpt lat="42.27954082218789" lon="14.036452050098974"><ele>224.0</ele><time>2026-05-03T10:56:35.001Z</time></trkpt><trkpt lat="42.27961549791779" lon="14.036605661830919"><ele>224.0</ele><time>2026-05-03T10:56:36.001Z</time></trkpt><trkpt lat="42.279692108743504" lon="14.036758044490966"><ele>224.0</ele><time>2026-05-03T10:56:37.001Z</time></trkpt><trkpt lat="42.27977159298245" lon="14.036908719708357"><ele>224.0</ele><time>2026-05-03T10:56:38.001Z</time></trkpt><trkpt lat="42.27984941342283" lon="14.037060791425345"><ele>223.25</ele><time>2026-05-03T10:56:39.001Z</time></trkpt><trkpt lat="42.27992445647683" lon="14.037208105783373"><ele>222.5</ele><time>2026-05-03T10:56:40.001Z</time></trkpt><trkpt lat="42.27998966931428" lon="14.037350728340133"><ele>221.75</ele><time>2026-05-03T10:56:41.001Z</time></trkpt><trkpt lat="42.280048984602494" lon="14.03749377449668"><ele>221.0</ele><time>2026-05-03T10:56:42.001Z</time></trkpt><trkpt lat="42.28011121712519" lon="14.037631032055165"><ele>221.0</ele><time>2026-05-03T10:56:43.001Z</time></trkpt><trkpt lat="42.28018132819204" lon="14.03776684273368"><ele>221.0</ele><time>2026-05-03T10:56:44.001Z</time></trkpt><trkpt lat="42.280258384406544" lon="14.037907293704887"><ele>221.0</ele><time>2026-05-03T10:56:45.001Z</time></trkpt><trkpt lat="42.28034300403341" lon="14.038048197054144"><ele>221.0</ele><time>2026-05-03T10:56:46.001Z</time></trkpt><trkpt lat="42.28043371524999" lon="14.038189266257028"><ele>219.0</ele><time>2026-05-03T10:56:47.001Z</time></trkpt><trkpt lat="42.280522479039455" lon="14.038314523596844"><ele>217.0</ele><time>2026-05-03T10:56:48.001Z</time></trkpt><trkpt lat="42.28061289150273" lon="14.038434790615836"><ele>215.0</ele><time>2026-05-03T10:56:49.001Z</time></trkpt><trkpt lat="42.28070775399538" lon="14.038563598726506"><ele>213.0</ele><time>2026-05-03T10:56:50.001Z</time></trkpt><trkpt lat="42.280798398024785" lon="14.038689828527854"><ele>213.0</ele><time>2026-05-03T10:56:51.001Z</time></trkpt><trkpt lat="42.28088795800856" lon="14.03880910074049"><ele>213.0</ele><time>2026-05-03T10:56:52.001Z</time></trkpt><trkpt lat="42.28097932921698" lon="14.038919778662269"><ele>213.0</ele><time>2026-05-03T10:56:53.001Z</time></trkpt><trkpt lat="42.28108427352006" lon="14.039025593696483"><ele>213.0</ele><time>2026-05-03T10:56:54.001Z</time></trkpt><trkpt lat="42.281198618415296" lon="14.039127217561383"><ele>212.75</ele><time>2026-05-03T10:56:55.001Z</time></trkpt><trkpt lat="42.28132230502495" lon="14.039223039971521"><ele>212.5</ele><time>2026-05-03T10:56:56.001Z</time></trkpt><trkpt lat="42.281449796241816" lon="14.039311545301937"><ele>212.25</ele><time>2026-05-03T10:56:57.001Z</time></trkpt><trkpt lat="42.28158411515658" lon="14.039387015745332"><ele>212.0</ele><time>2026-05-03T10:56:58.001Z</time></trkpt><trkpt lat="42.28172343233099" lon="14.039456048299776"><ele>212.0</ele><time>2026-05-03T10:56:59.001Z</time></trkpt><trkpt lat="42.281858328889285" lon="14.039519834868324"><ele>212.0</ele><time>2026-05-03T10:57:00.001Z</time></trkpt><trkpt lat="42.28198144747578" lon="14.039582685214796"><ele>212.0</ele><time>2026-05-03T10:57:01.001Z</time></trkpt><trkpt lat="42.282084279104225" lon="14.039659763906814"><ele>212.0</ele><time>2026-05-03T10:57:02.001Z</time></trkpt><trkpt lat="42.282179116372504" lon="14.039747485388839"><ele>211.75</ele><time>2026-05-03T10:57:03.001Z</time></trkpt><trkpt lat="42.28227214151188" lon="14.03985038492329"><ele>211.5</ele><time>2026-05-03T10:57:04.001Z</time></trkpt><trkpt lat="42.28236013826676" lon="14.039964338364246"><ele>211.25</ele><time>2026-05-03T10:57:05.001Z</time></trkpt><trkpt lat="42.282447768842786" lon="14.040085154835388"><ele>211.0</ele><time>2026-05-03T10:57:06.001Z</time></trkpt><trkpt lat="42.28254050450751" lon="14.040210055528455"><ele>210.25</ele><time>2026-05-03T10:57:07.001Z</time></trkpt><trkpt lat="42.2826318255831" lon="14.040329439234892"><ele>209.5</ele><time>2026-05-03T10:57:08.001Z</time></trkpt><trkpt lat="42.28271382844768" lon="14.04044755480015"><ele>208.75</ele><time>2026-05-03T10:57:09.001Z</time></trkpt><trkpt lat="42.282787236324936" lon="14.040565833604726"><ele>208.0</ele><time>2026-05-03T10:57:10.001Z</time></trkpt><trkpt lat="42.28285247593604" lon="14.040694948467424"><ele>203.25</ele><time>2026-05-03T10:57:11.001Z</time></trkpt><trkpt lat="42.28290047292535" lon="14.040839918182128"><ele>198.5</ele><time>2026-05-03T10:57:12.001Z</time></trkpt><trkpt lat="42.28293799637475" lon="14.040990983540429"><ele>193.75</ele><time>2026-05-03T10:57:13.001Z</time></trkpt><trkpt lat="42.282976873882035" lon="14.04113930844837"><ele>189.0</ele><time>2026-05-03T10:57:14.001Z</time></trkpt><trkpt lat="42.28302215524885" lon="14.041270496134127"><ele>189.0</ele><time>2026-05-03T10:57:15.001Z</time></trkpt><trkpt lat="42.28307843323335" lon="14.04137888029522"><ele>189.0</ele><time>2026-05-03T10:57:16.001Z</time></trkpt><trkpt lat="42.28314976708237" lon="14.041462378618206"><ele>189.0</ele><time>2026-05-03T10:57:17.001Z</time></trkpt><trkpt lat="42.28323838226527" lon="14.041508478958399"><ele>189.0</ele><time>2026-05-03T10:57:18.001Z</time></trkpt><trkpt lat="42.2833450245409" lon="14.041526855080159"><ele>189.0</ele><time>2026-05-03T10:57:19.001Z</time></trkpt><trkpt lat="42.2834645149369" lon="14.041539241987067"><ele>190.5</ele><time>2026-05-03T10:57:20.001Z</time></trkpt><trkpt lat="42.28359091625936" lon="14.041555264174244"><ele>192.0</ele><time>2026-05-03T10:57:21.001Z</time></trkpt><trkpt lat="42.28371935705158" lon="14.041574720491441"><ele>193.5</ele><time>2026-05-03T10:57:22.001Z</time></trkpt><trkpt lat="42.2838415905738" lon="14.04160172486863"><ele>195.0</ele><time>2026-05-03T10:57:23.001Z</time></trkpt><trkpt lat="42.28396168992859" lon="14.041643366253773"><ele>195.0</ele><time>2026-05-03T10:57:24.001Z</time></trkpt><trkpt lat="42.2840812981417" lon="14.041695609764105"><ele>195.0</ele><time>2026-05-03T10:57:25.001Z</time></trkpt><trkpt lat="42.28420604529911" lon="14.04174667490933"><ele>195.0</ele><time>2026-05-03T10:57:26.002Z</time></trkpt><trkpt lat="42.28434040944316" lon="14.041797339088497"><ele>195.0</ele><time>2026-05-03T10:57:27.002Z</time></trkpt><trkpt lat="42.28447283716655" lon="14.041846153967192"><ele>195.0</ele><time>2026-05-03T10:57:28.002Z</time></trkpt><trkpt lat="42.284604441420726" lon="14.041896206059855"><ele>195.0</ele><time>2026-05-03T10:57:29.002Z</time></trkpt><trkpt lat="42.28473623238622" lon="14.04194457301535"><ele>195.0</ele><time>2026-05-03T10:57:30.002Z</time></trkpt><trkpt lat="42.28486496755424" lon="14.041988320378296"><ele>195.0</ele><time>2026-05-03T10:57:31.002Z</time></trkpt><trkpt lat="42.28498897729394" lon="14.042029269316114"><ele>192.75</ele><time>2026-05-03T10:57:32.002Z</time></trkpt><trkpt lat="42.28510675467007" lon="14.0420764048569"><ele>190.5</ele><time>2026-05-03T10:57:33.002Z</time></trkpt><trkpt lat="42.28522948612984" lon="14.042130409339919"><ele>188.25</ele><time>2026-05-03T10:57:34.002Z</time></trkpt><trkpt lat="42.28536189243211" lon="14.042179951012354"><ele>186.0</ele><time>2026-05-03T10:57:35.002Z</time></trkpt><trkpt lat="42.28550180669394" lon="14.04221848431006"><ele>185.25</ele><time>2026-05-03T10:57:36.002Z</time></trkpt><trkpt lat="42.28564769712418" lon="14.042246020222326"><ele>184.5</ele><time>2026-05-03T10:57:37.002Z</time></trkpt><trkpt lat="42.28579791604383" lon="14.042267320553279"><ele>183.75</ele><time>2026-05-03T10:57:38.002Z</time></trkpt><trkpt lat="42.28593792532198" lon="14.042284797997102"><ele>183.0</ele><time>2026-05-03T10:57:39.002Z</time></trkpt><trkpt lat="42.28607061045332" lon="14.042308978204808"><ele>183.0</ele><time>2026-05-03T10:57:40.002Z</time></trkpt><trkpt lat="42.28620003257387" lon="14.04234018511892"><ele>183.0</ele><time>2026-05-03T10:57:41.002Z</time></trkpt><trkpt lat="42.286336809907915" lon="14.042377703392672"><ele>183.0</ele><time>2026-05-03T10:57:42.002Z</time></trkpt><trkpt lat="42.28647353592758" lon="14.042413004671905"><ele>183.0</ele><time>2026-05-03T10:57:43.002Z</time></trkpt><trkpt lat="42.28661303485603" lon="14.042447893157144"><ele>179.75</ele><time>2026-05-03T10:57:44.002Z</time></trkpt><trkpt lat="42.286752698155425" lon="14.04249222565741"><ele>176.5</ele><time>2026-05-03T10:57:45.002Z</time></trkpt><trkpt lat="42.28689614975065" lon="14.042537906270887"><ele>173.25</ele><time>2026-05-03T10:57:46.002Z</time></trkpt><trkpt lat="42.28704110555004" lon="14.042585167124187"><ele>170.0</ele><time>2026-05-03T10:57:47Z</time></trkpt><trkpt lat="42.28718945004484" lon="14.042629015289794"><ele>169.0</ele><time>2026-05-03T10:57:48Z</time></trkpt><trkpt lat="42.287336048805486" lon="14.042665461524855"><ele>168.0</ele><time>2026-05-03T10:57:49Z</time></trkpt><trkpt lat="42.287477427114844" lon="14.042699500648816"><ele>167.0</ele><time>2026-05-03T10:57:50Z</time></trkpt><trkpt lat="42.287616126879705" lon="14.042727850815178"><ele>166.0</ele><time>2026-05-03T10:57:51Z</time></trkpt><trkpt lat="42.2877530375826" lon="14.042751349121964"><ele>166.0</ele><time>2026-05-03T10:57:52Z</time></trkpt><trkpt lat="42.28788936885901" lon="14.042770394783833"><ele>166.0</ele><time>2026-05-03T10:57:53Z</time></trkpt><trkpt lat="42.288023834269794" lon="14.042786823799368"><ele>166.0</ele><time>2026-05-03T10:57:54Z</time></trkpt><trkpt lat="42.28815898154529" lon="14.04279644237411"><ele>166.0</ele><time>2026-05-03T10:57:55Z</time></trkpt><trkpt lat="42.28829528221103" lon="14.042801529382789"><ele>164.0</ele><time>2026-05-03T10:57:56Z</time></trkpt><trkpt lat="42.288433216804094" lon="14.04280384504034"><ele>162.0</ele><time>2026-05-03T10:57:57Z</time></trkpt><trkpt lat="42.28856764753656" lon="14.042805801417808"><ele>160.0</ele><time>2026-05-03T10:57:58Z</time></trkpt><trkpt lat="42.28868663446207" lon="14.042799075671349"><ele>158.0</ele><time>2026-05-03T10:57:59Z</time></trkpt><trkpt lat="42.28878943079299" lon="14.042793863297737"><ele>158.0</ele><time>2026-05-03T10:58:00Z</time></trkpt><trkpt lat="42.28888363266169" lon="14.042787265835898"><ele>158.0</ele><time>2026-05-03T10:58:01Z</time></trkpt><trkpt lat="42.288969643612305" lon="14.042781919718866"><ele>158.0</ele><time>2026-05-03T10:58:02Z</time></trkpt><trkpt lat="42.28905300140188" lon="14.042781068414635"><ele>158.0</ele><time>2026-05-03T10:58:03Z</time></trkpt><trkpt lat="42.28913054122013" lon="14.042782127345781"><ele>158.0</ele><time>2026-05-03T10:58:04Z</time></trkpt><trkpt lat="42.289200614860654" lon="14.042789703605978"><ele>158.0</ele><time>2026-05-03T10:58:05Z</time></trkpt><trkpt lat="42.289294698132096" lon="14.042843934658128"><ele>156.5</ele><time>2026-05-03T10:58:07Z</time></trkpt><trkpt lat="42.2893008389612" lon="14.042973829772828"><ele>155.0</ele><time>2026-05-03T10:58:09Z</time></trkpt><trkpt lat="42.28918648030372" lon="14.043004491775534"><ele>153.5</ele><time>2026-05-03T10:58:11Z</time></trkpt><trkpt lat="42.28912546735311" lon="14.043026021837198"><ele>152.0</ele><time>2026-05-03T10:58:12Z</time></trkpt><trkpt lat="42.289049350975674" lon="14.043081944599479"><ele>150.5</ele><time>2026-05-03T10:58:14Z</time></trkpt><trkpt lat="42.28903136491418" lon="14.043181036126395"><ele>149.0</ele><time>2026-05-03T10:58:16.001Z</time></trkpt><trkpt lat="42.289120435485515" lon="14.043231460594296"><ele>149.0</ele><time>2026-05-03T10:58:17.001Z</time></trkpt><trkpt lat="42.28919645320304" lon="14.04324438045333"><ele>149.0</ele><time>2026-05-03T10:58:18.001Z</time></trkpt><trkpt lat="42.28928648813655" lon="14.043255393243179"><ele>149.0</ele><time>2026-05-03T10:58:19.001Z</time></trkpt><trkpt lat="42.289388977233706" lon="14.043269006503929"><ele>149.0</ele><time>2026-05-03T10:58:20.001Z</time></trkpt><trkpt lat="42.28949807730565" lon="14.043259609827263"><ele>149.0</ele><time>2026-05-03T10:58:21.001Z</time></trkpt><trkpt lat="42.28961029240888" lon="14.043231335800158"><ele>149.0</ele><time>2026-05-03T10:58:22.001Z</time></trkpt><trkpt lat="42.28972471794753" lon="14.043192204776595"><ele>149.0</ele><time>2026-05-03T10:58:23.001Z</time></trkpt><trkpt lat="42.289841523123876" lon="14.043146597329937"><ele>149.0</ele><time>2026-05-03T10:58:24.001Z</time></trkpt><trkpt lat="42.28996058941837" lon="14.043098956419328"><ele>149.0</ele><time>2026-05-03T10:58:25.001Z</time></trkpt><trkpt lat="42.29007757775668" lon="14.043054685399415"><ele>146.4</ele><time>2026-05-03T10:58:26.001Z</time></trkpt><trkpt lat="42.29019285934461" lon="14.0430245862613"><ele>143.8</ele><time>2026-05-03T10:58:27.001Z</time></trkpt><trkpt lat="42.290298771628564" lon="14.043007054751165"><ele>141.2</ele><time>2026-05-03T10:58:28.001Z</time></trkpt><trkpt lat="42.29038043229656" lon="14.042997334849991"><ele>138.6</ele><time>2026-05-03T10:58:29.001Z</time></trkpt><trkpt lat="42.290444470961845" lon="14.042987353643849"><ele>136.0</ele><time>2026-05-03T10:58:30.001Z</time></trkpt><trkpt lat="42.29053517630944" lon="14.043022006060369"><ele>136.0</ele><time>2026-05-03T10:58:32.001Z</time></trkpt><trkpt lat="42.29052046599498" lon="14.04316136660026"><ele>136.0</ele><time>2026-05-03T10:58:34.001Z</time></trkpt><trkpt lat="42.29044871625989" lon="14.043196842025305"><ele>136.0</ele><time>2026-05-03T10:58:35.001Z</time></trkpt><trkpt lat="42.290383480841356" lon="14.0432700045118"><ele>136.0</ele><time>2026-05-03T10:58:36.001Z</time></trkpt><trkpt lat="42.29029941680786" lon="14.043327929301674"><ele>136.0</ele><time>2026-05-03T10:58:37.001Z</time></trkpt><trkpt lat="42.290215683746474" lon="14.043404673087437"><ele>132.83333333333334</ele><time>2026-05-03T10:58:38.001Z</time></trkpt><trkpt lat="42.290138421367224" lon="14.043489732658589"><ele>129.66666666666669</ele><time>2026-05-03T10:58:39.001Z</time></trkpt><trkpt lat="42.29006805769174" lon="14.043573054485941"><ele>126.5</ele><time>2026-05-03T10:58:40.001Z</time></trkpt><trkpt lat="42.29000752439264" lon="14.043644493333204"><ele>123.33333333333334</ele><time>2026-05-03T10:58:41.001Z</time></trkpt><trkpt lat="42.28996284444752" lon="14.043709456650419"><ele>120.16666666666667</ele><time>2026-05-03T10:58:42.001Z</time></trkpt><trkpt lat="42.2899530470538" lon="14.043842177366722"><ele>117.0</ele><time>2026-05-03T10:58:44.001Z</time></trkpt><trkpt lat="42.29004623798535" lon="14.043907285939829"><ele>117.0</ele><time>2026-05-03T10:58:46.001Z</time></trkpt><trkpt lat="42.29010884736142" lon="14.043894279762577"><ele>116.99999999999999</ele><time>2026-05-03T10:58:47.001Z</time></trkpt><trkpt lat="42.290193583851725" lon="14.043911052188863"><ele>116.99999999999999</ele><time>2026-05-03T10:58:49.001Z</time></trkpt><trkpt lat="42.29018160138207" lon="14.044005863138619"><ele>117.0</ele><time>2026-05-03T10:58:52.001Z</time></trkpt><trkpt lat="42.29002993660896" lon="14.04405436342785"><ele>117.0</ele><time>2026-05-03T10:58:54.001Z</time></trkpt><trkpt lat="42.28992359789156" lon="14.044086437302118"><ele>117.0</ele><time>2026-05-03T10:58:55.001Z</time></trkpt><trkpt lat="42.28980701070748" lon="14.044124966997689"><ele>117.0</ele><time>2026-05-03T10:58:56.001Z</time></trkpt><trkpt lat="42.28969431312276" lon="14.044168935806963"><ele>117.0</ele><time>2026-05-03T10:58:57.001Z</time></trkpt><trkpt lat="42.289564585846406" lon="14.044224965695753"><ele>117.0</ele><time>2026-05-03T10:58:58.001Z</time></trkpt><trkpt lat="42.28943282209105" lon="14.044284017746692"><ele>114.25</ele><time>2026-05-03T10:58:59.001Z</time></trkpt><trkpt lat="42.2892957534369" lon="14.044322739170815"><ele>111.5</ele><time>2026-05-03T10:59:00.001Z</time></trkpt><trkpt lat="42.28916979642366" lon="14.044378625691492"><ele>108.75</ele><time>2026-05-03T10:59:01.001Z</time></trkpt><trkpt lat="42.289056808903474" lon="14.044462428811359"><ele>106.0</ele><time>2026-05-03T10:59:02.001Z</time></trkpt><trkpt lat="42.28895536138889" lon="14.044531545243565"><ele>105.6</ele><time>2026-05-03T10:59:03.001Z</time></trkpt><trkpt lat="42.28886959252932" lon="14.044624781203094"><ele>105.19999999999999</ele><time>2026-05-03T10:59:04.001Z</time></trkpt><trkpt lat="42.28879779627277" lon="14.044734380339024"><ele>104.80000000000001</ele><time>2026-05-03T10:59:05.001Z</time></trkpt><trkpt lat="42.28873748527185" lon="14.044849794771226"><ele>104.4</ele><time>2026-05-03T10:59:06.001Z</time></trkpt><trkpt lat="42.28868229010956" lon="14.044969222656071"><ele>104.0</ele><time>2026-05-03T10:59:07.001Z</time></trkpt><trkpt lat="42.288625843695144" lon="14.045086034898466"><ele>104.0</ele><time>2026-05-03T10:59:08.001Z</time></trkpt><trkpt lat="42.2885567401974" lon="14.045194120082543"><ele>104.0</ele><time>2026-05-03T10:59:09.001Z</time></trkpt><trkpt lat="42.28847232079336" lon="14.045278660747515"><ele>104.0</ele><time>2026-05-03T10:59:10.001Z</time></trkpt><trkpt lat="42.288375201596075" lon="14.04532998414275"><ele>104.0</ele><time>2026-05-03T10:59:11.001Z</time></trkpt><trkpt lat="42.28826078755075" lon="14.045354012499553"><ele>104.0</ele><time>2026-05-03T10:59:12.001Z</time></trkpt><trkpt lat="42.28813201653454" lon="14.045362166096897"><ele>107.25</ele><time>2026-05-03T10:59:13.001Z</time></trkpt><trkpt lat="42.28799497052038" lon="14.045377596763148"><ele>110.5</ele><time>2026-05-03T10:59:14.001Z</time></trkpt><trkpt lat="42.28786015267399" lon="14.04541479917395"><ele>113.75</ele><time>2026-05-03T10:59:15.001Z</time></trkpt><trkpt lat="42.28773471337446" lon="14.04545956724247"><ele>117.0</ele><time>2026-05-03T10:59:16.001Z</time></trkpt><trkpt lat="42.287623162219724" lon="14.045516140181347"><ele>117.0</ele><time>2026-05-03T10:59:17.002Z</time></trkpt><trkpt lat="42.28751844893922" lon="14.045587959094053"><ele>117.0</ele><time>2026-05-03T10:59:18.002Z</time></trkpt><trkpt lat="42.287405499376526" lon="14.04566352130484"><ele>117.0</ele><time>2026-05-03T10:59:19.002Z</time></trkpt><trkpt lat="42.28728092396335" lon="14.045726495529626"><ele>117.0</ele><time>2026-05-03T10:59:20.002Z</time></trkpt><trkpt lat="42.287147802085826" lon="14.045779242745695"><ele>114.19999999999999</ele><time>2026-05-03T10:59:21.002Z</time></trkpt><trkpt lat="42.28701429162773" lon="14.045796479220511"><ele>111.39999999999999</ele><time>2026-05-03T10:59:22.002Z</time></trkpt><trkpt lat="42.2869026857341" lon="14.045842011877799"><ele>108.6</ele><time>2026-05-03T10:59:23.002Z</time></trkpt><trkpt lat="42.28681647500087" lon="14.045861028592352"><ele>105.80000000000001</ele><time>2026-05-03T10:59:24.002Z</time></trkpt><trkpt lat="42.286752919320975" lon="14.045888601276559"><ele>103.0</ele><time>2026-05-03T10:59:25.002Z</time></trkpt><trkpt lat="42.286687014402496" lon="14.045973042238728"><ele>103.0</ele><time>2026-05-03T10:59:27.002Z</time></trkpt><trkpt lat="42.28670508494147" lon="14.046129623973282"><ele>103.0</ele><time>2026-05-03T10:59:29.002Z</time></trkpt><trkpt lat="42.286735632311384" lon="14.046233690443932"><ele>103.0</ele><time>2026-05-03T10:59:30.002Z</time></trkpt><trkpt lat="42.286754454602885" lon="14.046317738326007"><ele>103.0</ele><time>2026-05-03T10:59:31.002Z</time></trkpt><trkpt lat="42.28677140745037" lon="14.04641360359921"><ele>103.0</ele><time>2026-05-03T10:59:34.002Z</time></trkpt><trkpt lat="42.28662438757316" lon="14.046498938362236"><ele>103.0</ele><time>2026-05-03T10:59:36.002Z</time></trkpt><trkpt lat="42.28651915907957" lon="14.046544782051397"><ele>103.0</ele><time>2026-05-03T10:59:37.002Z</time></trkpt><trkpt lat="42.28640213730693" lon="14.046615192821188"><ele>103.0</ele><time>2026-05-03T10:59:38.002Z</time></trkpt><trkpt lat="42.286288754280946" lon="14.046684943929133"><ele>103.0</ele><time>2026-05-03T10:59:39.002Z</time></trkpt><trkpt lat="42.28617008920505" lon="14.046751594456019"><ele>101.0</ele><time>2026-05-03T10:59:40.002Z</time></trkpt><trkpt lat="42.28604600761185" lon="14.046826896237086"><ele>99.0</ele><time>2026-05-03T10:59:41.002Z</time></trkpt><trkpt lat="42.285920521264565" lon="14.046908694570744"><ele>97.0</ele><time>2026-05-03T10:59:42.002Z</time></trkpt><trkpt lat="42.28579737108313" lon="14.046983881674612"><ele>95.0</ele><time>2026-05-03T10:59:43.002Z</time></trkpt><trkpt lat="42.28567510556509" lon="14.047057720239886"><ele>95.0</ele><time>2026-05-03T10:59:44.002Z</time></trkpt><trkpt lat="42.28555011328022" lon="14.047133616927436"><ele>95.0</ele><time>2026-05-03T10:59:45.002Z</time></trkpt><trkpt lat="42.28542670114941" lon="14.047210219141824"><ele>95.0</ele><time>2026-05-03T10:59:46.002Z</time></trkpt><trkpt lat="42.28530672239994" lon="14.04728231281481"><ele>95.0</ele><time>2026-05-03T10:59:47.002Z</time></trkpt><trkpt lat="42.285188481429316" lon="14.047346296592146"><ele>95.0</ele><time>2026-05-03T10:59:48.002Z</time></trkpt><trkpt lat="42.28507716154599" lon="14.047407989258852"><ele>95.0</ele><time>2026-05-03T10:59:49.002Z</time></trkpt><trkpt lat="42.28497602629939" lon="14.047468501884618"><ele>95.0</ele><time>2026-05-03T10:59:50.002Z</time></trkpt><trkpt lat="42.284881736473125" lon="14.047519542176447"><ele>95.0</ele><time>2026-05-03T10:59:51.002Z</time></trkpt><trkpt lat="42.284798977538486" lon="14.047559807722996"><ele>95.0</ele><time>2026-05-03T10:59:52.002Z</time></trkpt><trkpt lat="42.284734308388195" lon="14.04759336556143"><ele>95.8</ele><time>2026-05-03T10:59:53Z</time></trkpt><trkpt lat="42.284660013815106" lon="14.04760156777289"><ele>96.6</ele><time>2026-05-03T10:59:55Z</time></trkpt><trkpt lat="42.28479280037053" lon="14.04772612548477"><ele>97.4</ele><time>2026-05-03T10:59:59Z</time></trkpt><trkpt lat="42.284867262361374" lon="14.047675219826782"><ele>98.2</ele><time>2026-05-03T11:00:00Z</time></trkpt><trkpt lat="42.28496630230857" lon="14.047645893363297"><ele>99.0</ele><time>2026-05-03T11:00:01Z</time></trkpt><trkpt lat="42.2850726693955" lon="14.047652334491552"><ele>99.33333333333333</ele><time>2026-05-03T11:00:02Z</time></trkpt><trkpt lat="42.28514549465853" lon="14.0476875949284"><ele>99.66666666666666</ele><time>2026-05-03T11:00:03Z</time></trkpt><trkpt lat="42.285203049213465" lon="14.04774061736298"><ele>100.0</ele><time>2026-05-03T11:00:04Z</time></trkpt><trkpt lat="42.285258278332435" lon="14.047814124479395"><ele>100.33333333333333</ele><time>2026-05-03T11:00:05Z</time></trkpt><trkpt lat="42.285317165594044" lon="14.047873998820133"><ele>100.66666666666666</ele><time>2026-05-03T11:00:06Z</time></trkpt><trkpt lat="42.28538897450474" lon="14.04788703558465"><ele>101.0</ele><time>2026-05-03T11:00:07Z</time></trkpt><trkpt lat="42.28546931148751" lon="14.047855857285585"><ele>101.0</ele><time>2026-05-03T11:00:08Z</time></trkpt><trkpt lat="42.28556023290167" lon="14.047787865109624"><ele>101.0</ele><time>2026-05-03T11:00:09Z</time></trkpt><trkpt lat="42.285665458258094" lon="14.047702361941859"><ele>101.0</ele><time>2026-05-03T11:00:10Z</time></trkpt><trkpt lat="42.28577116136391" lon="14.04762619080939"><ele>101.0</ele><time>2026-05-03T11:00:11Z</time></trkpt><trkpt lat="42.28586963594309" lon="14.047567994086716"><ele>101.8</ele><time>2026-05-03T11:00:12Z</time></trkpt><trkpt lat="42.28597496075843" lon="14.047549442233546"><ele>102.6</ele><time>2026-05-03T11:00:13Z</time></trkpt><trkpt lat="42.28606382191492" lon="14.047525437907698"><ele>103.4</ele><time>2026-05-03T11:00:14Z</time></trkpt><trkpt lat="42.28616004797811" lon="14.04751359337533"><ele>104.2</ele><time>2026-05-03T11:00:15Z</time></trkpt><trkpt lat="42.28625699360067" lon="14.047516156524388"><ele>105.0</ele><time>2026-05-03T11:00:16Z</time></trkpt><trkpt lat="42.28635843183048" lon="14.047546035088388"><ele>106.25</ele><time>2026-05-03T11:00:17Z</time></trkpt><trkpt lat="42.28647462867897" lon="14.047602339118974"><ele>107.5</ele><time>2026-05-03T11:00:18Z</time></trkpt><trkpt lat="42.286590281067014" lon="14.047672800284522"><ele>108.75</ele><time>2026-05-03T11:00:19Z</time></trkpt><trkpt lat="42.28668869274675" lon="14.047756014395857"><ele>110.0</ele><time>2026-05-03T11:00:20Z</time></trkpt><trkpt lat="42.286783810467305" lon="14.047834670094607"><ele>110.0</ele><time>2026-05-03T11:00:21Z</time></trkpt><trkpt lat="42.286897509285225" lon="14.047896786888126"><ele>110.0</ele><time>2026-05-03T11:00:22.001Z</time></trkpt><trkpt lat="42.28702160065676" lon="14.047935802249182"><ele>110.0</ele><time>2026-05-03T11:00:23.001Z</time></trkpt><trkpt lat="42.287153692725305" lon="14.047959314001575"><ele>110.0</ele><time>2026-05-03T11:00:24.001Z</time></trkpt><trkpt lat="42.28728977317227" lon="14.047978025275487"><ele>109.25</ele><time>2026-05-03T11:00:25.001Z</time></trkpt><trkpt lat="42.28742609149713" lon="14.047990175552194"><ele>108.5</ele><time>2026-05-03T11:00:26.001Z</time></trkpt><trkpt lat="42.287565442364524" lon="14.047981996790567"><ele>107.75</ele><time>2026-05-03T11:00:27.001Z</time></trkpt><trkpt lat="42.28771098897789" lon="14.047958689092566"><ele>107.0</ele><time>2026-05-03T11:00:28.001Z</time></trkpt><trkpt lat="42.2878546416777" lon="14.047931439529275"><ele>107.0</ele><time>2026-05-03T11:00:29.001Z</time></trkpt><trkpt lat="42.287987652257826" lon="14.047902428807566"><ele>107.0</ele><time>2026-05-03T11:00:30.001Z</time></trkpt><trkpt lat="42.28810732831735" lon="14.047882177566047"><ele>107.0</ele><time>2026-05-03T11:00:31.001Z</time></trkpt><trkpt lat="42.28822599601884" lon="14.047900798979407"><ele>107.0</ele><time>2026-05-03T11:00:32.001Z</time></trkpt><trkpt lat="42.28834372631922" lon="14.047886825382779"><ele>108.75</ele><time>2026-05-03T11:00:33.001Z</time></trkpt><trkpt lat="42.28845058172247" lon="14.047912474858327"><ele>110.5</ele><time>2026-05-03T11:00:34.001Z</time></trkpt><trkpt lat="42.28856988892451" lon="14.04792350026085"><ele>112.25</ele><time>2026-05-03T11:00:35.001Z</time></trkpt><trkpt lat="42.28869638452575" lon="14.047933799364593"><ele>114.0</ele><time>2026-05-03T11:00:36.001Z</time></trkpt><trkpt lat="42.28882629658486" lon="14.047947956088167"><ele>115.25</ele><time>2026-05-03T11:00:37.001Z</time></trkpt><trkpt lat="42.28896126589849" lon="14.047963805989301"><ele>116.5</ele><time>2026-05-03T11:00:38.001Z</time></trkpt><trkpt lat="42.28909497745288" lon="14.047984476468681"><ele>117.75</ele><time>2026-05-03T11:00:39.001Z</time></trkpt><trkpt lat="42.289226863058566" lon="14.048001743927921"><ele>119.0</ele><time>2026-05-03T11:00:40.001Z</time></trkpt><trkpt lat="42.28935520809353" lon="14.048020466990256"><ele>119.0</ele><time>2026-05-03T11:00:41.001Z</time></trkpt><trkpt lat="42.289476289155985" lon="14.048043137007243"><ele>119.0</ele><time>2026-05-03T11:00:42.001Z</time></trkpt><trkpt lat="42.28959911579284" lon="14.04808221684119"><ele>119.0</ele><time>2026-05-03T11:00:43.001Z</time></trkpt><trkpt lat="42.28973475806195" lon="14.048115208684177"><ele>119.0</ele><time>2026-05-03T11:00:44.001Z</time></trkpt><trkpt lat="42.2898732173151" lon="14.048127931392916"><ele>119.6</ele><time>2026-05-03T11:00:45.001Z</time></trkpt><trkpt lat="42.2899921453542" lon="14.048130746950626"><ele>120.2</ele><time>2026-05-03T11:00:46.001Z</time></trkpt><trkpt lat="42.2900883537419" lon="14.048136515203232"><ele>120.79999999999998</ele><time>2026-05-03T11:00:47.001Z</time></trkpt><trkpt lat="42.2901598543924" lon="14.048148731643872"><ele>121.39999999999999</ele><time>2026-05-03T11:00:48.001Z</time></trkpt><trkpt lat="42.29024458706516" lon="14.048223136845701"><ele>122.0</ele><time>2026-05-03T11:00:50.001Z</time></trkpt><trkpt lat="42.29027433205446" lon="14.048306917510804"><ele>127.6</ele><time>2026-05-03T11:00:51.001Z</time></trkpt><trkpt lat="42.290306490413315" lon="14.04842386525583"><ele>133.2</ele><time>2026-05-03T11:00:52.001Z</time></trkpt><trkpt lat="42.29035093063115" lon="14.048563238391086"><ele>138.8</ele><time>2026-05-03T11:00:53.001Z</time></trkpt><trkpt lat="42.290417089769974" lon="14.048707045346525"><ele>144.4</ele><time>2026-05-03T11:00:54.001Z</time></trkpt><trkpt lat="42.29048002854037" lon="14.048829305939583"><ele>150.0</ele><time>2026-05-03T11:00:55.001Z</time></trkpt><trkpt lat="42.29054885217823" lon="14.048954186731939"><ele>150.25</ele><time>2026-05-03T11:00:56.001Z</time></trkpt><trkpt lat="42.29062783698126" lon="14.049088713434907"><ele>150.5</ele><time>2026-05-03T11:00:57.001Z</time></trkpt><trkpt lat="42.29071577959891" lon="14.049228093138273"><ele>150.75</ele><time>2026-05-03T11:00:58.001Z</time></trkpt><trkpt lat="42.290804829462374" lon="14.049367796871504"><ele>151.0</ele><time>2026-05-03T11:00:59.001Z</time></trkpt><trkpt lat="42.2908916084639" lon="14.049515020567936"><ele>151.0</ele><time>2026-05-03T11:01:00.001Z</time></trkpt><trkpt lat="42.290982659380326" lon="14.049659810779751"><ele>151.0</ele><time>2026-05-03T11:01:01.001Z</time></trkpt><trkpt lat="42.29106587218938" lon="14.049795949458925"><ele>151.0</ele><time>2026-05-03T11:01:02.001Z</time></trkpt><trkpt lat="42.29114705007879" lon="14.04992302008535"><ele>151.0</ele><time>2026-05-03T11:01:03.001Z</time></trkpt><trkpt lat="42.29123526563818" lon="14.050044824285182"><ele>152.4</ele><time>2026-05-03T11:01:04.001Z</time></trkpt><trkpt lat="42.291339625425145" lon="14.050147272555114"><ele>153.8</ele><time>2026-05-03T11:01:05.001Z</time></trkpt><trkpt lat="42.291441268494545" lon="14.050232318670371"><ele>155.20000000000002</ele><time>2026-05-03T11:01:06.001Z</time></trkpt><trkpt lat="42.29152821838055" lon="14.050300017832926"><ele>156.6</ele><time>2026-05-03T11:01:07.001Z</time></trkpt><trkpt lat="42.291617704793076" lon="14.05035610371711"><ele>158.0</ele><time>2026-05-03T11:01:08.001Z</time></trkpt><trkpt lat="42.291716015512044" lon="14.050384648449716"><ele>158.0</ele><time>2026-05-03T11:01:09.001Z</time></trkpt><trkpt lat="42.291814247333434" lon="14.050393603344878"><ele>158.0</ele><time>2026-05-03T11:01:10.001Z</time></trkpt><trkpt lat="42.29189029881323" lon="14.050420637641551"><ele>158.0</ele><time>2026-05-03T11:01:11.001Z</time></trkpt><trkpt lat="42.29193391324053" lon="14.050491830576094"><ele>158.0</ele><time>2026-05-03T11:01:12.001Z</time></trkpt><trkpt lat="42.29193709743182" lon="14.050607995593468"><ele>158.0</ele><time>2026-05-03T11:01:13.001Z</time></trkpt><trkpt lat="42.291974880302874" lon="14.050734170258579"><ele>158.0</ele><time>2026-05-03T11:01:14.001Z</time></trkpt><trkpt lat="42.29199839728687" lon="14.050887271124743"><ele>161.0</ele><time>2026-05-03T11:01:15.001Z</time></trkpt><trkpt lat="42.292032725616984" lon="14.05105234893798"><ele>164.0</ele><time>2026-05-03T11:01:16.001Z</time></trkpt><trkpt lat="42.292072834497574" lon="14.051221929113279"><ele>167.0</ele><time>2026-05-03T11:01:17.001Z</time></trkpt><trkpt lat="42.29211557073895" lon="14.051391297802185"><ele>170.0</ele><time>2026-05-03T11:01:18.001Z</time></trkpt><trkpt lat="42.29216508664214" lon="14.051548179050522"><ele>170.75</ele><time>2026-05-03T11:01:19.001Z</time></trkpt><trkpt lat="42.29221658551009" lon="14.051690623540932"><ele>171.5</ele><time>2026-05-03T11:01:20.001Z</time></trkpt><trkpt lat="42.29226820206082" lon="14.05183351191523"><ele>172.25</ele><time>2026-05-03T11:01:21.001Z</time></trkpt><trkpt lat="42.29232118426844" lon="14.051977753939093"><ele>173.0</ele><time>2026-05-03T11:01:22.001Z</time></trkpt><trkpt lat="42.29236758033786" lon="14.052124387899537"><ele>173.0</ele><time>2026-05-03T11:01:23.001Z</time></trkpt><trkpt lat="42.29239312792598" lon="14.05224936745964"><ele>173.0</ele><time>2026-05-03T11:01:24.001Z</time></trkpt><trkpt lat="42.292400379075566" lon="14.052345960358833"><ele>173.0</ele><time>2026-05-03T11:01:25.001Z</time></trkpt><trkpt lat="42.29239879325934" lon="14.052469243226996"><ele>173.0</ele><time>2026-05-03T11:01:27.001Z</time></trkpt><trkpt lat="42.292576656653516" lon="14.052502061196634"><ele>173.0</ele><time>2026-05-03T11:01:34.002Z</time></trkpt><trkpt lat="42.29266506383687" lon="14.052456726461445"><ele>173.25</ele><time>2026-05-03T11:01:36.002Z</time></trkpt><trkpt lat="42.292781637348206" lon="14.05249610247875"><ele>173.5</ele><time>2026-05-03T11:01:39.002Z</time></trkpt><trkpt lat="42.29290992888838" lon="14.052573141317213"><ele>173.75</ele><time>2026-05-03T11:01:41.002Z</time></trkpt><trkpt lat="42.29300159948322" lon="14.052629269874151"><ele>174.0</ele><time>2026-05-03T11:01:42.002Z</time></trkpt><trkpt lat="42.29309884473809" lon="14.052684573686976"><ele>173.66666666666666</ele><time>2026-05-03T11:01:43.002Z</time></trkpt><trkpt lat="42.29317534605196" lon="14.052730297057579"><ele>173.33333333333334</ele><time>2026-05-03T11:01:44.002Z</time></trkpt><trkpt lat="42.293224801739235" lon="14.052790143115695"><ele>173.0</ele><time>2026-05-03T11:01:45.002Z</time></trkpt><trkpt lat="42.29328365686744" lon="14.052823639576852"><ele>172.66666666666669</ele><time>2026-05-03T11:01:46.002Z</time></trkpt><trkpt lat="42.293324859578256" lon="14.052891031776836"><ele>172.33333333333334</ele><time>2026-05-03T11:01:47.002Z</time></trkpt><trkpt lat="42.293380460804805" lon="14.052985617821124"><ele>172.0</ele><time>2026-05-03T11:01:48.002Z</time></trkpt><trkpt lat="42.293448415097956" lon="14.053086867810803"><ele>172.0</ele><time>2026-05-03T11:01:49.002Z</time></trkpt><trkpt lat="42.29351967672262" lon="14.05320493571109"><ele>172.0</ele><time>2026-05-03T11:01:50.002Z</time></trkpt><trkpt lat="42.29359387719783" lon="14.053331558777296"><ele>172.0</ele><time>2026-05-03T11:01:51.002Z</time></trkpt><trkpt lat="42.29366769556199" lon="14.053452487473496"><ele>172.0</ele><time>2026-05-03T11:01:52.002Z</time></trkpt><trkpt lat="42.293734153969595" lon="14.053562339604882"><ele>172.0</ele><time>2026-05-03T11:01:53.002Z</time></trkpt><trkpt lat="42.293795226273495" lon="14.05366251458148"><ele>172.0</ele><time>2026-05-03T11:01:54.002Z</time></trkpt><trkpt lat="42.29384872632514" lon="14.05375875923393"><ele>172.0</ele><time>2026-05-03T11:01:55.002Z</time></trkpt><trkpt lat="42.293904716031015" lon="14.053855140422952"><ele>172.0</ele><time>2026-05-03T11:01:56.002Z</time></trkpt><trkpt lat="42.29395550786402" lon="14.053943857989164"><ele>172.0</ele><time>2026-05-03T11:01:57.002Z</time></trkpt><trkpt lat="42.29399334182006" lon="14.054018141641452"><ele>172.0</ele><time>2026-05-03T11:01:58.002Z</time></trkpt><trkpt lat="42.29409624979266" lon="14.054119911792592"><ele>172.83333333333334</ele><time>2026-05-03T11:02:00Z</time></trkpt><trkpt lat="42.29415722489641" lon="14.054193425752633"><ele>173.66666666666669</ele><time>2026-05-03T11:02:01Z</time></trkpt><trkpt lat="42.29422851174772" lon="14.054274411499309"><ele>174.5</ele><time>2026-05-03T11:02:02Z</time></trkpt><trkpt lat="42.29429934251792" lon="14.054356236167349"><ele>175.33333333333334</ele><time>2026-05-03T11:02:03Z</time></trkpt><trkpt lat="42.29436712083275" lon="14.054436222692251"><ele>176.16666666666666</ele><time>2026-05-03T11:02:04Z</time></trkpt><trkpt lat="42.294434722155664" lon="14.054518697647035"><ele>177.0</ele><time>2026-05-03T11:02:05Z</time></trkpt><trkpt lat="42.29451456812941" lon="14.054587307435488"><ele>177.0</ele><time>2026-05-03T11:02:06Z</time></trkpt><trkpt lat="42.29459564981537" lon="14.054648716776084"><ele>177.0</ele><time>2026-05-03T11:02:07Z</time></trkpt><trkpt lat="42.294649165190094" lon="14.054715280989386"><ele>177.0</ele><time>2026-05-03T11:02:08Z</time></trkpt><trkpt lat="42.29470542603595" lon="14.054779877001307"><ele>177.0</ele><time>2026-05-03T11:02:09Z</time></trkpt><trkpt lat="42.2947670541097" lon="14.054839703052636"><ele>177.0</ele><time>2026-05-03T11:02:10Z</time></trkpt><trkpt lat="42.29483202615293" lon="14.054901906069931"><ele>177.0</ele><time>2026-05-03T11:02:11Z</time></trkpt><trkpt lat="42.29489069472579" lon="14.054968360588445"><ele>176.5</ele><time>2026-05-03T11:02:12Z</time></trkpt><trkpt lat="42.29494964252149" lon="14.055027742706512"><ele>176.0</ele><time>2026-05-03T11:02:13Z</time></trkpt><trkpt lat="42.294999982799986" lon="14.05508043923663"><ele>175.5</ele><time>2026-05-03T11:02:14Z</time></trkpt><trkpt lat="42.295097261224306" lon="14.055134497096338"><ele>175.0</ele><time>2026-05-03T11:02:16Z</time></trkpt><trkpt lat="42.29521148590423" lon="14.055158275911708"><ele>174.5</ele><time>2026-05-03T11:02:18Z</time></trkpt><trkpt lat="42.29527867842862" lon="14.055152017509087"><ele>174.0</ele><time>2026-05-03T11:02:19Z</time></trkpt><trkpt lat="42.29539961171477" lon="14.055154172671461"><ele>174.0</ele><time>2026-05-03T11:02:21Z</time></trkpt><trkpt lat="42.29550798168466" lon="14.05515674592768"><ele>174.0</ele><time>2026-05-03T11:02:23Z</time></trkpt><trkpt lat="42.29560783683414" lon="14.055171524821848"><ele>174.0</ele><time>2026-05-03T11:02:25.001Z</time></trkpt><trkpt lat="42.2956787668785" lon="14.055189843095032"><ele>174.0</ele><time>2026-05-03T11:02:28.001Z</time></trkpt><trkpt lat="42.29571658722583" lon="14.055279459068291"><ele>174.0</ele><time>2026-05-03T11:02:37.001Z</time></trkpt><trkpt lat="42.29573292762542" lon="14.05539349301469"><ele>174.0</ele><time>2026-05-03T11:02:39.001Z</time></trkpt><trkpt lat="42.29579432746905" lon="14.055458855739875"><ele>173.33333333333334</ele><time>2026-05-03T11:02:41.001Z</time></trkpt><trkpt lat="42.2958741417791" lon="14.055534217444832"><ele>172.66666666666666</ele><time>2026-05-03T11:02:43.001Z</time></trkpt><trkpt lat="42.29590545048148" lon="14.055613016552588"><ele>172.0</ele><time>2026-05-03T11:02:44.001Z</time></trkpt><trkpt lat="42.29594349555394" lon="14.055709203058287"><ele>171.33333333333331</ele><time>2026-05-03T11:02:45.001Z</time></trkpt><trkpt lat="42.29599154510957" lon="14.055813607481522"><ele>170.66666666666666</ele><time>2026-05-03T11:02:46.001Z</time></trkpt><trkpt lat="42.29603661438417" lon="14.055912926108732"><ele>170.0</ele><time>2026-05-03T11:02:47.001Z</time></trkpt><trkpt lat="42.29607671123926" lon="14.056002238361456"><ele>170.0</ele><time>2026-05-03T11:02:48.001Z</time></trkpt><trkpt lat="42.29611291757144" lon="14.056085098075702"><ele>170.0</ele><time>2026-05-03T11:02:49.001Z</time></trkpt><trkpt lat="42.29615920891552" lon="14.056183452047526"><ele>170.0</ele><time>2026-05-03T11:02:50.001Z</time></trkpt><trkpt lat="42.296204597752535" lon="14.05628210092607"><ele>170.0</ele><time>2026-05-03T11:02:51.001Z</time></trkpt><trkpt lat="42.29624601332178" lon="14.056382727367284"><ele>170.0</ele><time>2026-05-03T11:02:52.001Z</time></trkpt><trkpt lat="42.29628826892441" lon="14.056483026299468"><ele>170.0</ele><time>2026-05-03T11:02:53.001Z</time></trkpt><trkpt lat="42.296331299861" lon="14.056578836154767"><ele>169.66666666666666</ele><time>2026-05-03T11:02:54.001Z</time></trkpt><trkpt lat="42.29637703286639" lon="14.056670956649722"><ele>169.33333333333331</ele><time>2026-05-03T11:02:55.001Z</time></trkpt><trkpt lat="42.29643042084436" lon="14.056763815414241"><ele>169.0</ele><time>2026-05-03T11:02:56.001Z</time></trkpt><trkpt lat="42.2964845625536" lon="14.05685535895706"><ele>168.66666666666666</ele><time>2026-05-03T11:02:57.001Z</time></trkpt><trkpt lat="42.29653150508704" lon="14.056948622074943"><ele>168.33333333333334</ele><time>2026-05-03T11:02:58.001Z</time></trkpt><trkpt lat="42.296573678295005" lon="14.05703947234543"><ele>168.0</ele><time>2026-05-03T11:02:59.001Z</time></trkpt><trkpt lat="42.296616589156" lon="14.057125167945484"><ele>167.33333333333334</ele><time>2026-05-03T11:03:00.001Z</time></trkpt><trkpt lat="42.296660824692275" lon="14.057204700715998"><ele>166.66666666666666</ele><time>2026-05-03T11:03:01.001Z</time></trkpt><trkpt lat="42.29670505592584" lon="14.057280042145793"><ele>166.0</ele><time>2026-05-03T11:03:02.001Z</time></trkpt><trkpt lat="42.296786749249534" lon="14.057427108136988"><ele>165.33333333333331</ele><time>2026-05-03T11:03:04.001Z</time></trkpt><trkpt lat="42.29682292339048" lon="14.057513388836254"><ele>164.66666666666666</ele><time>2026-05-03T11:03:05.001Z</time></trkpt><trkpt lat="42.29686370766488" lon="14.057605415636882"><ele>164.0</ele><time>2026-05-03T11:03:06.001Z</time></trkpt><trkpt lat="42.29690757842575" lon="14.057701304692227"><ele>163.5</ele><time>2026-05-03T11:03:07.001Z</time></trkpt><trkpt lat="42.29695391470169" lon="14.057796242610516"><ele>163.0</ele><time>2026-05-03T11:03:08.001Z</time></trkpt><trkpt lat="42.29700083516687" lon="14.057896839599447"><ele>162.5</ele><time>2026-05-03T11:03:09.001Z</time></trkpt><trkpt lat="42.2970478098174" lon="14.057990358703323"><ele>162.0</ele><time>2026-05-03T11:03:10.001Z</time></trkpt><trkpt lat="42.297092830730975" lon="14.058077495782852"><ele>161.5</ele><time>2026-05-03T11:03:11.001Z</time></trkpt><trkpt lat="42.29713106271664" lon="14.058155455992914"><ele>161.0</ele><time>2026-05-03T11:03:12.001Z</time></trkpt><trkpt lat="42.29716916602645" lon="14.058230385147736"><ele>160.5</ele><time>2026-05-03T11:03:13.001Z</time></trkpt><trkpt lat="42.297227960504685" lon="14.058351965642885"><ele>160.0</ele><time>2026-05-03T11:03:15.001Z</time></trkpt><trkpt lat="42.29726504083877" lon="14.05842476602833"><ele>159.5</ele><time>2026-05-03T11:03:18.001Z</time></trkpt><trkpt lat="42.29732413248832" lon="14.058483232981708"><ele>159.0</ele><time>2026-05-03T11:03:20.001Z</time></trkpt><trkpt lat="42.29738839322455" lon="14.058523242621806"><ele>158.5</ele><time>2026-05-03T11:03:21.001Z</time></trkpt><trkpt lat="42.297461513400904" lon="14.058562524259273"><ele>158.0</ele><time>2026-05-03T11:03:22.001Z</time></trkpt><trkpt lat="42.29753614407214" lon="14.058592578003754"><ele>158.0</ele><time>2026-05-03T11:03:23.001Z</time></trkpt><trkpt lat="42.297611307963344" lon="14.05862451696993"><ele>158.0</ele><time>2026-05-03T11:03:24.001Z</time></trkpt><trkpt lat="42.29769964461313" lon="14.058655426887254"><ele>158.0</ele><time>2026-05-03T11:03:25.001Z</time></trkpt><trkpt lat="42.29781610122322" lon="14.05869790754926"><ele>158.0</ele><time>2026-05-03T11:03:26.001Z</time></trkpt><trkpt lat="42.297921039240855" lon="14.058751449405117"><ele>158.0</ele><time>2026-05-03T11:03:27.001Z</time></trkpt><trkpt lat="42.298024057822744" lon="14.05880523696585"><ele>157.25</ele><time>2026-05-03T11:03:28.001Z</time></trkpt><trkpt lat="42.29813204219294" lon="14.058857006642805"><ele>156.5</ele><time>2026-05-03T11:03:29.001Z</time></trkpt><trkpt lat="42.29824227619148" lon="14.058906768409715"><ele>155.75</ele><time>2026-05-03T11:03:30.001Z</time></trkpt><trkpt lat="42.29835394913477" lon="14.058955385893197"><ele>155.0</ele><time>2026-05-03T11:03:31.001Z</time></trkpt><trkpt lat="42.298464168560464" lon="14.059004167752699"><ele>155.0</ele><time>2026-05-03T11:03:32.001Z</time></trkpt><trkpt lat="42.298572508048416" lon="14.059053446909685"><ele>155.0</ele><time>2026-05-03T11:03:33.001Z</time></trkpt><trkpt lat="42.298678016750756" lon="14.05910474217318"><ele>155.0</ele><time>2026-05-03T11:03:34.001Z</time></trkpt><trkpt lat="42.298776777795794" lon="14.059154217592877"><ele>155.0</ele><time>2026-05-03T11:03:35.001Z</time></trkpt><trkpt lat="42.298868338669216" lon="14.059198630829457"><ele>155.0</ele><time>2026-05-03T11:03:36.002Z</time></trkpt><trkpt lat="42.29894332285657" lon="14.05923555286371"><ele>154.5</ele><time>2026-05-03T11:03:37.002Z</time></trkpt><trkpt lat="42.299032165093664" lon="14.059314615100815"><ele>154.0</ele><time>2026-05-03T11:03:39.002Z</time></trkpt><trkpt lat="42.298904431384045" lon="14.059425331365281"><ele>153.5</ele><time>2026-05-03T11:03:42.002Z</time></trkpt><trkpt lat="42.29881726955333" lon="14.059445556619393"><ele>153.0</ele><time>2026-05-03T11:03:43.002Z</time></trkpt><trkpt lat="42.29870948951027" lon="14.05945239320075"><ele>153.0</ele><time>2026-05-03T11:03:44.002Z</time></trkpt><trkpt lat="42.298601121802704" lon="14.059445646716112"><ele>153.0</ele><time>2026-05-03T11:03:45.002Z</time></trkpt><trkpt lat="42.29849180218729" lon="14.059405810584021"><ele>153.0</ele><time>2026-05-03T11:03:46.002Z</time></trkpt><trkpt lat="42.29838819546309" lon="14.05933394408703"><ele>153.0</ele><time>2026-05-03T11:03:47.002Z</time></trkpt><trkpt lat="42.298297380699594" lon="14.05924310595132"><ele>153.0</ele><time>2026-05-03T11:03:48.002Z</time></trkpt><trkpt lat="42.298220830686425" lon="14.059148979141906"><ele>153.0</ele><time>2026-05-03T11:03:49.002Z</time></trkpt><trkpt lat="42.29814207878506" lon="14.05907524513133"><ele>153.0</ele><time>2026-05-03T11:03:50.002Z</time></trkpt><trkpt lat="42.298062149750315" lon="14.0590342243086"><ele>153.0</ele><time>2026-05-03T11:03:51.002Z</time></trkpt><trkpt lat="42.29798102183712" lon="14.059031869708983"><ele>153.0</ele><time>2026-05-03T11:03:52.002Z</time></trkpt><trkpt lat="42.29790669988511" lon="14.05907911066219"><ele>153.0</ele><time>2026-05-03T11:03:53.002Z</time></trkpt><trkpt lat="42.29785523862736" lon="14.059164939975549"><ele>153.0</ele><time>2026-05-03T11:03:54.002Z</time></trkpt><trkpt lat="42.29783992387872" lon="14.059277328001567"><ele>153.0</ele><time>2026-05-03T11:03:55.002Z</time></trkpt><trkpt lat="42.29786279302836" lon="14.059387648636482"><ele>153.0</ele><time>2026-05-03T11:03:56.002Z</time></trkpt><trkpt lat="42.2979269393853" lon="14.059481473659387"><ele>153.0</ele><time>2026-05-03T11:03:57.002Z</time></trkpt><trkpt lat="42.298014377053306" lon="14.0595563610125"><ele>153.0</ele><time>2026-05-03T11:03:58.002Z</time></trkpt><trkpt lat="42.29811383245773" lon="14.059637829537776"><ele>153.0</ele><time>2026-05-03T11:03:59.002Z</time></trkpt><trkpt lat="42.29821683263846" lon="14.059734529895753"><ele>153.0</ele><time>2026-05-03T11:04:00.002Z</time></trkpt><trkpt lat="42.29832521948441" lon="14.059830839838563"><ele>153.0</ele><time>2026-05-03T11:04:01.002Z</time></trkpt><trkpt lat="42.298438025386304" lon="14.05992977907016"><ele>153.0</ele><time>2026-05-03T11:04:02.002Z</time></trkpt><trkpt lat="42.29855463204432" lon="14.06003271978489"><ele>150.5</ele><time>2026-05-03T11:04:03.002Z</time></trkpt><trkpt lat="42.29867196886052" lon="14.060143688693683"><ele>148.0</ele><time>2026-05-03T11:04:04.002Z</time></trkpt><trkpt lat="42.29879014339913" lon="14.060260179922503"><ele>145.5</ele><time>2026-05-03T11:04:05Z</time></trkpt><trkpt lat="42.29890787800485" lon="14.060381585761656"><ele>143.0</ele><time>2026-05-03T11:04:06Z</time></trkpt><trkpt lat="42.299025213547274" lon="14.06050866474162"><ele>143.0</ele><time>2026-05-03T11:04:07Z</time></trkpt><trkpt lat="42.29914273696124" lon="14.060637838883231"><ele>143.0</ele><time>2026-05-03T11:04:08Z</time></trkpt><trkpt lat="42.29925964443572" lon="14.060774807496287"><ele>143.0</ele><time>2026-05-03T11:04:09Z</time></trkpt><trkpt lat="42.29937230743476" lon="14.060920742280027"><ele>137.66666666666666</ele><time>2026-05-03T11:04:10Z</time></trkpt><trkpt lat="42.29948046278899" lon="14.061075145210518"><ele>132.33333333333334</ele><time>2026-05-03T11:04:11Z</time></trkpt><trkpt lat="42.29958327268963" lon="14.061234859664888"><ele>127.0</ele><time>2026-05-03T11:04:12Z</time></trkpt><trkpt lat="42.29968551071966" lon="14.061392396628094"><ele>123.66666666666667</ele><time>2026-05-03T11:04:13Z</time></trkpt><trkpt lat="42.29978912143781" lon="14.061545152993922"><ele>120.33333333333334</ele><time>2026-05-03T11:04:14Z</time></trkpt><trkpt lat="42.29989654358089" lon="14.061699920970483"><ele>117.0</ele><time>2026-05-03T11:04:15Z</time></trkpt><trkpt lat="42.30000466701638" lon="14.061862484525921"><ele>117.0</ele><time>2026-05-03T11:04:16Z</time></trkpt><trkpt lat="42.300110242914066" lon="14.062026107025222"><ele>117.0</ele><time>2026-05-03T11:04:17Z</time></trkpt><trkpt lat="42.300216626930336" lon="14.062194447895532"><ele>117.0</ele><time>2026-05-03T11:04:18Z</time></trkpt><trkpt lat="42.300324956352" lon="14.06235857420223"><ele>115.66666666666666</ele><time>2026-05-03T11:04:19Z</time></trkpt><trkpt lat="42.3004345158648" lon="14.062523092549794"><ele>114.33333333333333</ele><time>2026-05-03T11:04:20Z</time></trkpt><trkpt lat="42.30054348574429" lon="14.062686431936521"><ele>113.0</ele><time>2026-05-03T11:04:21Z</time></trkpt><trkpt lat="42.30064979162194" lon="14.062840835161932"><ele>113.0</ele><time>2026-05-03T11:04:22Z</time></trkpt><trkpt lat="42.30076096892831" lon="14.062991836265557"><ele>113.0</ele><time>2026-05-03T11:04:23Z</time></trkpt><trkpt lat="42.30088046827941" lon="14.063135970348805"><ele>113.0</ele><time>2026-05-03T11:04:24Z</time></trkpt><trkpt lat="42.30100944627497" lon="14.063276394976986"><ele>113.0</ele><time>2026-05-03T11:04:25Z</time></trkpt><trkpt lat="42.301144862150686" lon="14.06341145175933"><ele>113.0</ele><time>2026-05-03T11:04:26Z</time></trkpt><trkpt lat="42.30128031939258" lon="14.063545050283075"><ele>113.0</ele><time>2026-05-03T11:04:27Z</time></trkpt><trkpt lat="42.30142023605193" lon="14.063678204018288"><ele>113.0</ele><time>2026-05-03T11:04:28Z</time></trkpt><trkpt lat="42.30156320229314" lon="14.063809858851672"><ele>113.0</ele><time>2026-05-03T11:04:29Z</time></trkpt><trkpt lat="42.301707337149885" lon="14.063940768277485"><ele>113.0</ele><time>2026-05-03T11:04:30Z</time></trkpt><trkpt lat="42.30185511020138" lon="14.064067007933152"><ele>108.33333333333333</ele><time>2026-05-03T11:04:31Z</time></trkpt><trkpt lat="42.30200311563237" lon="14.064191486148887"><ele>103.66666666666666</ele><time>2026-05-03T11:04:32Z</time></trkpt><trkpt lat="42.30215087063266" lon="14.064309014654254"><ele>99.0</ele><time>2026-05-03T11:04:33Z</time></trkpt><trkpt lat="42.30230163144538" lon="14.064408421273196"><ele>99.0</ele><time>2026-05-03T11:04:34Z</time></trkpt><trkpt lat="42.3024516377486" lon="14.064494918806265"><ele>99.0</ele><time>2026-05-03T11:04:35Z</time></trkpt><trkpt lat="42.30260548565011" lon="14.064577643978948"><ele>99.0</ele><time>2026-05-03T11:04:36Z</time></trkpt><trkpt lat="42.30275122924191" lon="14.064652515877293"><ele>99.0</ele><time>2026-05-03T11:04:37Z</time></trkpt><trkpt lat="42.302892523834416" lon="14.064722856355957"><ele>99.0</ele><time>2026-05-03T11:04:38Z</time></trkpt><trkpt lat="42.30302871002617" lon="14.0647919033607"><ele>99.0</ele><time>2026-05-03T11:04:39Z</time></trkpt><trkpt lat="42.303160285251835" lon="14.064858477077351"><ele>99.0</ele><time>2026-05-03T11:04:40Z</time></trkpt><trkpt lat="42.30328891935412" lon="14.064918040680803"><ele>95.75</ele><time>2026-05-03T11:04:41Z</time></trkpt><trkpt lat="42.303419007623106" lon="14.06496833431359"><ele>92.5</ele><time>2026-05-03T11:04:42Z</time></trkpt><trkpt lat="42.30355156607079" lon="14.0650115635966"><ele>89.25</ele><time>2026-05-03T11:04:43Z</time></trkpt><trkpt lat="42.303684275393785" lon="14.065048963504337"><ele>86.0</ele><time>2026-05-03T11:04:44Z</time></trkpt><trkpt lat="42.30381797438448" lon="14.06507885936231"><ele>85.8</ele><time>2026-05-03T11:04:45Z</time></trkpt><trkpt lat="42.30394720947216" lon="14.06510201988395"><ele>85.6</ele><time>2026-05-03T11:04:46Z</time></trkpt><trkpt lat="42.30406454950454" lon="14.065131186656762"><ele>85.4</ele><time>2026-05-03T11:04:47Z</time></trkpt><trkpt lat="42.30416437727044" lon="14.065159939190975"><ele>85.2</ele><time>2026-05-03T11:04:48Z</time></trkpt><trkpt lat="42.304254336800774" lon="14.065192342689333"><ele>85.0</ele><time>2026-05-03T11:04:49Z</time></trkpt><trkpt lat="42.304338299768645" lon="14.065214598788415"><ele>85.0</ele><time>2026-05-03T11:04:50Z</time></trkpt><trkpt lat="42.30440630340231" lon="14.065263478813325"><ele>85.0</ele><time>2026-05-03T11:04:51Z</time></trkpt><trkpt lat="42.30447681024368" lon="14.065294152729578"><ele>85.0</ele><time>2026-05-03T11:04:52Z</time></trkpt><trkpt lat="42.304556854919255" lon="14.06532897642355"><ele>85.0</ele><time>2026-05-03T11:04:53Z</time></trkpt><trkpt lat="42.30466830368352" lon="14.06529020075523"><ele>85.0</ele><time>2026-05-03T11:04:54Z</time></trkpt><trkpt lat="42.304782360767966" lon="14.065300973363023"><ele>84.75</ele><time>2026-05-03T11:04:55.001Z</time></trkpt><trkpt lat="42.304897378792965" lon="14.065313202750675"><ele>84.5</ele><time>2026-05-03T11:04:56.001Z</time></trkpt><trkpt lat="42.3050198802944" lon="14.065312321611424"><ele>84.25</ele><time>2026-05-03T11:04:57.001Z</time></trkpt><trkpt lat="42.30513975023217" lon="14.065279607531544"><ele>84.0</ele><time>2026-05-03T11:04:58.001Z</time></trkpt><trkpt lat="42.30525174312939" lon="14.06520448946661"><ele>84.0</ele><time>2026-05-03T11:04:59.001Z</time></trkpt><trkpt lat="42.305356908356444" lon="14.065095293496077"><ele>84.0</ele><time>2026-05-03T11:05:00.001Z</time></trkpt><trkpt lat="42.30545554991999" lon="14.064959960899198"><ele>84.0</ele><time>2026-05-03T11:05:01.001Z</time></trkpt><trkpt lat="42.305558298023705" lon="14.064814759234826"><ele>84.0</ele><time>2026-05-03T11:05:02.001Z</time></trkpt><trkpt lat="42.305668966438816" lon="14.064670892240894"><ele>83.25</ele><time>2026-05-03T11:05:03.001Z</time></trkpt><trkpt lat="42.30577626315068" lon="14.0645306315543"><ele>82.5</ele><time>2026-05-03T11:05:04.001Z</time></trkpt><trkpt lat="42.30588262702581" lon="14.064394169764991"><ele>81.75</ele><time>2026-05-03T11:05:05.001Z</time></trkpt><trkpt lat="42.305993397287274" lon="14.064255567348415"><ele>81.0</ele><time>2026-05-03T11:05:06.001Z</time></trkpt><trkpt lat="42.30610655179751" lon="14.064109346820565"><ele>80.33333333333333</ele><time>2026-05-03T11:05:07.001Z</time></trkpt><trkpt lat="42.30621970868725" lon="14.0639590340156"><ele>79.66666666666666</ele><time>2026-05-03T11:05:08.001Z</time></trkpt><trkpt lat="42.30633221476673" lon="14.063813702477972"><ele>79.0</ele><time>2026-05-03T11:05:09.001Z</time></trkpt><trkpt lat="42.306443949625276" lon="14.063674180264819"><ele>77.75</ele><time>2026-05-03T11:05:10.001Z</time></trkpt><trkpt lat="42.306553369085094" lon="14.063533731114685"><ele>76.5</ele><time>2026-05-03T11:05:11.001Z</time></trkpt><trkpt lat="42.30666243789034" lon="14.063395291506145"><ele>75.25</ele><time>2026-05-03T11:05:12.001Z</time></trkpt><trkpt lat="42.3067666110786" lon="14.06325670315455"><ele>74.0</ele><time>2026-05-03T11:05:13.001Z</time></trkpt><trkpt lat="42.30686990705454" lon="14.063122675606964"><ele>73.75</ele><time>2026-05-03T11:05:14.001Z</time></trkpt><trkpt lat="42.3069798373237" lon="14.063011374348818"><ele>73.5</ele><time>2026-05-03T11:05:15.001Z</time></trkpt><trkpt lat="42.307069840415906" lon="14.06289384011907"><ele>73.25</ele><time>2026-05-03T11:05:16.001Z</time></trkpt><trkpt lat="42.30714629997856" lon="14.062791467296211"><ele>73.0</ele><time>2026-05-03T11:05:17.001Z</time></trkpt><trkpt lat="42.30720897502189" lon="14.062678008437539"><ele>72.75</ele><time>2026-05-03T11:05:18.001Z</time></trkpt><trkpt lat="42.30729890028117" lon="14.062591553063745"><ele>72.5</ele><time>2026-05-03T11:05:19.001Z</time></trkpt><trkpt lat="42.30738012299019" lon="14.062491070660757"><ele>72.25</ele><time>2026-05-03T11:05:20.001Z</time></trkpt><trkpt lat="42.307466172075145" lon="14.062380166309836"><ele>72.0</ele><time>2026-05-03T11:05:21.001Z</time></trkpt><trkpt lat="42.307560897147" lon="14.06225808125527"><ele>72.0</ele><time>2026-05-03T11:05:22.001Z</time></trkpt><trkpt lat="42.30765451246415" lon="14.062136625696304"><ele>72.0</ele><time>2026-05-03T11:05:23.001Z</time></trkpt><trkpt lat="42.30774185366523" lon="14.062026298680319"><ele>72.0</ele><time>2026-05-03T11:05:24.001Z</time></trkpt><trkpt lat="42.30782081301863" lon="14.061926406349235"><ele>72.0</ele><time>2026-05-03T11:05:25.001Z</time></trkpt><trkpt lat="42.30788739302363" lon="14.061843164712018"><ele>72.0</ele><time>2026-05-03T11:05:26.001Z</time></trkpt><trkpt lat="42.30793827661588" lon="14.061783757294688"><ele>72.0</ele><time>2026-05-03T11:05:27.001Z</time></trkpt><trkpt lat="42.307998331308454" lon="14.061733662592895"><ele>72.0</ele><time>2026-05-03T11:05:31.001Z</time></trkpt><trkpt lat="42.30811794022617" lon="14.061832770430717"><ele>72.0</ele><time>2026-05-03T11:05:34.001Z</time></trkpt><trkpt lat="42.30816675688326" lon="14.061941795558752"><ele>72.0</ele><time>2026-05-03T11:05:35.001Z</time></trkpt><trkpt lat="42.308231156337165" lon="14.06207580407359"><ele>72.0</ele><time>2026-05-03T11:05:36.001Z</time></trkpt><trkpt lat="42.3083028869921" lon="14.062221016533272"><ele>72.0</ele><time>2026-05-03T11:05:37.001Z</time></trkpt><trkpt lat="42.30837473057822" lon="14.062363128296038"><ele>72.0</ele><time>2026-05-03T11:05:38.001Z</time></trkpt><trkpt lat="42.30845683955951" lon="14.062520198551773"><ele>72.0</ele><time>2026-05-03T11:05:39.001Z</time></trkpt><trkpt lat="42.308539421948026" lon="14.062687467176229"><ele>72.0</ele><time>2026-05-03T11:05:40.001Z</time></trkpt><trkpt lat="42.308618836254624" lon="14.06285280286734"><ele>72.25</ele><time>2026-05-03T11:05:41.001Z</time></trkpt><trkpt lat="42.308697168943446" lon="14.063018537642169"><ele>72.5</ele><time>2026-05-03T11:05:42.001Z</time></trkpt><trkpt lat="42.30877664475839" lon="14.063186120840616"><ele>72.75</ele><time>2026-05-03T11:05:43.001Z</time></trkpt><trkpt lat="42.30885570718579" lon="14.063351112363742"><ele>73.0</ele><time>2026-05-03T11:05:44.001Z</time></trkpt><trkpt lat="42.308930316667876" lon="14.063508227455534"><ele>73.0</ele><time>2026-05-03T11:05:45.001Z</time></trkpt><trkpt lat="42.30899911653243" lon="14.063650682183866"><ele>73.0</ele><time>2026-05-03T11:05:46.001Z</time></trkpt><trkpt lat="42.30906421254649" lon="14.063782166967815"><ele>73.0</ele><time>2026-05-03T11:05:47.001Z</time></trkpt><trkpt lat="42.309122787040614" lon="14.063904784855696"><ele>73.0</ele><time>2026-05-03T11:05:48.001Z</time></trkpt><trkpt lat="42.30917791475882" lon="14.064018336873659"><ele>72.0</ele><time>2026-05-03T11:05:49.001Z</time></trkpt><trkpt lat="42.30922990003435" lon="14.064122329613365"><ele>71.0</ele><time>2026-05-03T11:05:50.001Z</time></trkpt><trkpt lat="42.30928296903601" lon="14.064230761556496"><ele>70.0</ele><time>2026-05-03T11:05:51.001Z</time></trkpt><trkpt lat="42.30933765053049" lon="14.064345634364013"><ele>69.0</ele><time>2026-05-03T11:05:52.001Z</time></trkpt><trkpt lat="42.30939114458034" lon="14.064465835058385"><ele>68.0</ele><time>2026-05-03T11:05:53.001Z</time></trkpt><trkpt lat="42.30944842431611" lon="14.06458823384287"><ele>68.0</ele><time>2026-05-03T11:05:54.001Z</time></trkpt><trkpt lat="42.30950843285786" lon="14.064713120244607"><ele>68.0</ele><time>2026-05-03T11:05:55.001Z</time></trkpt><trkpt lat="42.309572782933806" lon="14.064837881326453"><ele>68.0</ele><time>2026-05-03T11:05:56.001Z</time></trkpt><trkpt lat="42.30963491508901" lon="14.064968504856166"><ele>68.0</ele><time>2026-05-03T11:05:57.001Z</time></trkpt><trkpt lat="42.309698805059455" lon="14.065103510153788"><ele>68.75</ele><time>2026-05-03T11:05:58.001Z</time></trkpt><trkpt lat="42.30976583635349" lon="14.065240155596364"><ele>69.5</ele><time>2026-05-03T11:05:59.001Z</time></trkpt><trkpt lat="42.30983384342211" lon="14.065380379309364"><ele>70.25</ele><time>2026-05-03T11:06:00.002Z</time></trkpt><trkpt lat="42.30990265631991" lon="14.065521486626208"><ele>71.0</ele><time>2026-05-03T11:06:01.002Z</time></trkpt><trkpt lat="42.30997035960614" lon="14.06566628429863"><ele>71.0</ele><time>2026-05-03T11:06:02.002Z</time></trkpt><trkpt lat="42.31004134550536" lon="14.06581316307183"><ele>71.0</ele><time>2026-05-03T11:06:03.002Z</time></trkpt><trkpt lat="42.310110710205215" lon="14.065957155718934"><ele>71.0</ele><time>2026-05-03T11:06:04.002Z</time></trkpt><trkpt lat="42.31018161131548" lon="14.066094181549513"><ele>71.0</ele><time>2026-05-03T11:06:05.002Z</time></trkpt><trkpt lat="42.310251328015944" lon="14.06622927186631"><ele>71.0</ele><time>2026-05-03T11:06:06.002Z</time></trkpt><trkpt lat="42.31031679611858" lon="14.066357368088788"><ele>71.0</ele><time>2026-05-03T11:06:07.002Z</time></trkpt><trkpt lat="42.31038112205079" lon="14.066470413745568"><ele>71.0</ele><time>2026-05-03T11:06:08.002Z</time></trkpt><trkpt lat="42.31044366502756" lon="14.066571687519758"><ele>71.0</ele><time>2026-05-03T11:06:09.002Z</time></trkpt><trkpt lat="42.31049601368172" lon="14.06665988234561"><ele>71.0</ele><time>2026-05-03T11:06:10.002Z</time></trkpt><trkpt lat="42.310541114518614" lon="14.066737293882472"><ele>71.0</ele><time>2026-05-03T11:06:10.999Z</time></trkpt><trkpt lat="42.31057641322118" lon="14.066816446759393"><ele>71.0</ele><time>2026-05-03T11:06:11.999Z</time></trkpt><trkpt lat="42.31059824936211" lon="14.066908598691898"><ele>71.0</ele><time>2026-05-03T11:06:12.999Z</time></trkpt><trkpt lat="42.31061480636429" lon="14.067022702776232"><ele>71.0</ele><time>2026-05-03T11:06:13.999Z</time></trkpt><trkpt lat="42.310639057089155" lon="14.06714404297093"><ele>71.0</ele><time>2026-05-03T11:06:14.999Z</time></trkpt><trkpt lat="42.310685964020095" lon="14.06726764909006"><ele>71.0</ele><time>2026-05-03T11:06:15.999Z</time></trkpt><trkpt lat="42.31076240743341" lon="14.067385602503107"><ele>71.25</ele><time>2026-05-03T11:06:16.999Z</time></trkpt><trkpt lat="42.310842866766436" lon="14.067512978458335"><ele>71.5</ele><time>2026-05-03T11:06:17.999Z</time></trkpt><trkpt lat="42.31091902909109" lon="14.067659281700898"><ele>71.75</ele><time>2026-05-03T11:06:18.999Z</time></trkpt><trkpt lat="42.31099404723269" lon="14.067815735360092"><ele>72.0</ele><time>2026-05-03T11:06:19.999Z</time></trkpt><trkpt lat="42.311072339739056" lon="14.067975671266218"><ele>72.0</ele><time>2026-05-03T11:06:20.999Z</time></trkpt><trkpt lat="42.31115135464378" lon="14.068139605975713"><ele>72.0</ele><time>2026-05-03T11:06:21.999Z</time></trkpt><trkpt lat="42.31123300792057" lon="14.068307033131209"><ele>72.0</ele><time>2026-05-03T11:06:22.999Z</time></trkpt><trkpt lat="42.31131458582262" lon="14.068480121936728"><ele>72.0</ele><time>2026-05-03T11:06:23.999Z</time></trkpt><trkpt lat="42.311396493991126" lon="14.068656482530963"><ele>72.0</ele><time>2026-05-03T11:06:24.999Z</time></trkpt><trkpt lat="42.31147695949786" lon="14.068823596733798"><ele>72.0</ele><time>2026-05-03T11:06:25.999Z</time></trkpt><trkpt lat="42.3115506713427" lon="14.06897694211812"><ele>72.0</ele><time>2026-05-03T11:06:26.999Z</time></trkpt><trkpt lat="42.31161988109307" lon="14.069120845906985"><ele>72.0</ele><time>2026-05-03T11:06:27.999Z</time></trkpt><trkpt lat="42.31168355993755" lon="14.069254259053052"><ele>72.0</ele><time>2026-05-03T11:06:28.999Z</time></trkpt><trkpt lat="42.31174451968141" lon="14.069378690781502"><ele>72.0</ele><time>2026-05-03T11:06:30Z</time></trkpt><trkpt lat="42.31179908839695" lon="14.06949447328634"><ele>72.0</ele><time>2026-05-03T11:06:31Z</time></trkpt><trkpt lat="42.31184969885477" lon="14.069602724636159"><ele>72.0</ele><time>2026-05-03T11:06:32Z</time></trkpt><trkpt lat="42.31189897516752" lon="14.069706225027634"><ele>72.0</ele><time>2026-05-03T11:06:33Z</time></trkpt><trkpt lat="42.31195323694337" lon="14.06981462034933"><ele>72.0</ele><time>2026-05-03T11:06:34Z</time></trkpt><trkpt lat="42.312009944318035" lon="14.069924175315407"><ele>72.0</ele><time>2026-05-03T11:06:35Z</time></trkpt><trkpt lat="42.31206002407098" lon="14.070034011134737"><ele>72.0</ele><time>2026-05-03T11:06:36Z</time></trkpt><trkpt lat="42.31210814376615" lon="14.070135060615012"><ele>72.0</ele><time>2026-05-03T11:06:37Z</time></trkpt><trkpt lat="42.312162258901154" lon="14.070234438110104"><ele>72.0</ele><time>2026-05-03T11:06:38Z</time></trkpt><trkpt lat="42.31220979300632" lon="14.070361051478569"><ele>71.5</ele><time>2026-05-03T11:06:39Z</time></trkpt><trkpt lat="42.31227268900897" lon="14.070496013310585"><ele>71.0</ele><time>2026-05-03T11:06:40Z</time></trkpt><trkpt lat="42.31235568911045" lon="14.070640382299922"><ele>70.5</ele><time>2026-05-03T11:06:41Z</time></trkpt><trkpt lat="42.312428236760525" lon="14.070809652181774"><ele>70.0</ele><time>2026-05-03T11:06:42Z</time></trkpt><trkpt lat="42.312508764630394" lon="14.070978502264374"><ele>70.0</ele><time>2026-05-03T11:06:43Z</time></trkpt><trkpt lat="42.31258497240211" lon="14.071138254758765"><ele>70.0</ele><time>2026-05-03T11:06:44Z</time></trkpt><trkpt lat="42.31266259119889" lon="14.071304610089832"><ele>70.0</ele><time>2026-05-03T11:06:45Z</time></trkpt><trkpt lat="42.3127372718795" lon="14.071465361489677"><ele>70.0</ele><time>2026-05-03T11:06:46Z</time></trkpt><trkpt lat="42.3128122180284" lon="14.071622871951515"><ele>70.0</ele><time>2026-05-03T11:06:47Z</time></trkpt><trkpt lat="42.312887042636966" lon="14.071775140862636"><ele>70.0</ele><time>2026-05-03T11:06:48Z</time></trkpt><trkpt lat="42.312961030555705" lon="14.071926381834288"><ele>70.0</ele><time>2026-05-03T11:06:49Z</time></trkpt><trkpt lat="42.31303652519392" lon="14.072081355986525"><ele>70.0</ele><time>2026-05-03T11:06:50Z</time></trkpt><trkpt lat="42.313111573207635" lon="14.072238940982883"><ele>69.5</ele><time>2026-05-03T11:06:51Z</time></trkpt><trkpt lat="42.31318763038739" lon="14.072398514473312"><ele>69.0</ele><time>2026-05-03T11:06:52Z</time></trkpt><trkpt lat="42.3132635653705" lon="14.07256022097457"><ele>68.5</ele><time>2026-05-03T11:06:53Z</time></trkpt><trkpt lat="42.313341099389774" lon="14.072722589912903"><ele>68.0</ele><time>2026-05-03T11:06:54Z</time></trkpt><trkpt lat="42.31342101264263" lon="14.072885225621592"><ele>68.25</ele><time>2026-05-03T11:06:55Z</time></trkpt><trkpt lat="42.313500275156834" lon="14.073051512410345"><ele>68.5</ele><time>2026-05-03T11:06:56Z</time></trkpt><trkpt lat="42.31357974136599" lon="14.073218306287835"><ele>68.75</ele><time>2026-05-03T11:06:57Z</time></trkpt><trkpt lat="42.3136606430821" lon="14.073384494953627"><ele>69.0</ele><time>2026-05-03T11:06:58Z</time></trkpt><trkpt lat="42.31374092368254" lon="14.073550872046368"><ele>69.0</ele><time>2026-05-03T11:06:59Z</time></trkpt><trkpt lat="42.313820862934165" lon="14.073712154272531"><ele>69.0</ele><time>2026-05-03T11:07:00Z</time></trkpt><trkpt lat="42.31389664438592" lon="14.073863301165533"><ele>69.0</ele><time>2026-05-03T11:07:01Z</time></trkpt><trkpt lat="42.31396778661142" lon="14.074001798928574"><ele>69.0</ele><time>2026-05-03T11:07:02Z</time></trkpt><trkpt lat="42.31403426079238" lon="14.074134862585286"><ele>68.75</ele><time>2026-05-03T11:07:03Z</time></trkpt><trkpt lat="42.314097152573694" lon="14.074261048836442"><ele>68.5</ele><time>2026-05-03T11:07:04Z</time></trkpt><trkpt lat="42.31416323357722" lon="14.074393423965828"><ele>68.25</ele><time>2026-05-03T11:07:05Z</time></trkpt><trkpt lat="42.31422420748428" lon="14.074531892562117"><ele>68.0</ele><time>2026-05-03T11:07:06Z</time></trkpt><trkpt lat="42.314279865363375" lon="14.074672191364627"><ele>68.0</ele><time>2026-05-03T11:07:07Z</time></trkpt><trkpt lat="42.31433658123809" lon="14.074797852511487"><ele>68.0</ele><time>2026-05-03T11:07:08Z</time></trkpt><trkpt lat="42.314393314900244" lon="14.07491068058182"><ele>68.0</ele><time>2026-05-03T11:07:09Z</time></trkpt><trkpt lat="42.31444500831847" lon="14.075014208083942"><ele>68.0</ele><time>2026-05-03T11:07:10Z</time></trkpt><trkpt lat="42.314502519929" lon="14.075119020310607"><ele>68.0</ele><time>2026-05-03T11:07:12Z</time></trkpt><trkpt lat="42.31455602401252" lon="14.075185885249732"><ele>68.0</ele><time>2026-05-03T11:07:14Z</time></trkpt><trkpt lat="42.31461158182834" lon="14.075333960086287"><ele>68.0</ele><time>2026-05-03T11:07:16Z</time></trkpt><trkpt lat="42.31464583247753" lon="14.075423633891788"><ele>68.0</ele><time>2026-05-03T11:07:17.001Z</time></trkpt><trkpt lat="42.31468421165269" lon="14.075522734590795"><ele>68.0</ele><time>2026-05-03T11:07:18.001Z</time></trkpt><trkpt lat="42.31472811375536" lon="14.075628509036001"><ele>68.0</ele><time>2026-05-03T11:07:19.001Z</time></trkpt><trkpt lat="42.31477906137483" lon="14.07573700147524"><ele>68.2</ele><time>2026-05-03T11:07:20.001Z</time></trkpt><trkpt lat="42.314831991268164" lon="14.07584921106729"><ele>68.4</ele><time>2026-05-03T11:07:21.001Z</time></trkpt><trkpt lat="42.314886520445334" lon="14.075965956827464"><ele>68.60000000000001</ele><time>2026-05-03T11:07:22.001Z</time></trkpt><trkpt lat="42.31494402565195" lon="14.076086918664876"><ele>68.8</ele><time>2026-05-03T11:07:23.001Z</time></trkpt><trkpt lat="42.31500552523647" lon="14.076215318377146"><ele>69.0</ele><time>2026-05-03T11:07:24.001Z</time></trkpt><trkpt lat="42.31507267617728" lon="14.07635505085093"><ele>69.0</ele><time>2026-05-03T11:07:25.001Z</time></trkpt><trkpt lat="42.31514445910923" lon="14.076503148100683"><ele>69.0</ele><time>2026-05-03T11:07:26.001Z</time></trkpt><trkpt lat="42.315219014071005" lon="14.076656830493055"><ele>69.0</ele><time>2026-05-03T11:07:27.001Z</time></trkpt><trkpt lat="42.31529217440778" lon="14.076808462959155"><ele>69.0</ele><time>2026-05-03T11:07:28.001Z</time></trkpt><trkpt lat="42.315361748051195" lon="14.076956402174611"><ele>69.0</ele><time>2026-05-03T11:07:29.001Z</time></trkpt><trkpt lat="42.31542990538396" lon="14.077098941336809"><ele>69.0</ele><time>2026-05-03T11:07:30.001Z</time></trkpt><trkpt lat="42.315498064224094" lon="14.077240156262913"><ele>69.0</ele><time>2026-05-03T11:07:31.001Z</time></trkpt><trkpt lat="42.31556638928739" lon="14.077386351437982"><ele>69.0</ele><time>2026-05-03T11:07:32.001Z</time></trkpt><trkpt lat="42.315634866394895" lon="14.077533689448108"><ele>68.75</ele><time>2026-05-03T11:07:33.001Z</time></trkpt><trkpt lat="42.31570683027925" lon="14.077679263474444"><ele>68.5</ele><time>2026-05-03T11:07:34.001Z</time></trkpt><trkpt lat="42.31577613448739" lon="14.077823065033474"><ele>68.25</ele><time>2026-05-03T11:07:35.001Z</time></trkpt><trkpt lat="42.31584179769471" lon="14.077965375020945"><ele>68.0</ele><time>2026-05-03T11:07:36.001Z</time></trkpt><trkpt lat="42.315908568186686" lon="14.078104191792224"><ele>68.0</ele><time>2026-05-03T11:07:37.001Z</time></trkpt><trkpt lat="42.315978937791726" lon="14.07824620509938"><ele>68.0</ele><time>2026-05-03T11:07:38.001Z</time></trkpt><trkpt lat="42.31604755226428" lon="14.078389677612535"><ele>68.0</ele><time>2026-05-03T11:07:39.001Z</time></trkpt><trkpt lat="42.31611618043357" lon="14.078536480050294"><ele>68.0</ele><time>2026-05-03T11:07:40.001Z</time></trkpt><trkpt lat="42.31618733543839" lon="14.078686322322133"><ele>68.0</ele><time>2026-05-03T11:07:41.001Z</time></trkpt><trkpt lat="42.316263592783635" lon="14.078843551893849"><ele>68.0</ele><time>2026-05-03T11:07:42.001Z</time></trkpt><trkpt lat="42.316341052600684" lon="14.079007047723582"><ele>68.0</ele><time>2026-05-03T11:07:43.001Z</time></trkpt><trkpt lat="42.31642162560807" lon="14.079171899354083"><ele>68.0</ele><time>2026-05-03T11:07:44.001Z</time></trkpt><trkpt lat="42.316503335895284" lon="14.079336751864313"><ele>67.75</ele><time>2026-05-03T11:07:45.001Z</time></trkpt><trkpt lat="42.31658146891827" lon="14.07949918066055"><ele>67.5</ele><time>2026-05-03T11:07:46.001Z</time></trkpt><trkpt lat="42.31665717527173" lon="14.079654661383378"><ele>67.25</ele><time>2026-05-03T11:07:47.001Z</time></trkpt><trkpt lat="42.31672840683197" lon="14.07980047455447"><ele>67.0</ele><time>2026-05-03T11:07:48.001Z</time></trkpt><trkpt lat="42.31679640091552" lon="14.07993704910088"><ele>67.0</ele><time>2026-05-03T11:07:49.001Z</time></trkpt><trkpt lat="42.316859588472084" lon="14.080070589593001"><ele>67.0</ele><time>2026-05-03T11:07:50.001Z</time></trkpt><trkpt lat="42.316922671285546" lon="14.080205467642386"><ele>67.0</ele><time>2026-05-03T11:07:51.001Z</time></trkpt><trkpt lat="42.316987335981345" lon="14.08033908789121"><ele>67.0</ele><time>2026-05-03T11:07:52.001Z</time></trkpt><trkpt lat="42.317053156067374" lon="14.080476781660073"><ele>67.0</ele><time>2026-05-03T11:07:53.001Z</time></trkpt><trkpt lat="42.31711833784029" lon="14.080612389773087"><ele>67.0</ele><time>2026-05-03T11:07:54.001Z</time></trkpt><trkpt lat="42.31718591302922" lon="14.080743627483814"><ele>67.0</ele><time>2026-05-03T11:07:55.001Z</time></trkpt><trkpt lat="42.31725561511945" lon="14.080886092410017"><ele>67.0</ele><time>2026-05-03T11:07:56.001Z</time></trkpt><trkpt lat="42.317327327982234" lon="14.08103718990193"><ele>66.5</ele><time>2026-05-03T11:07:57.001Z</time></trkpt><trkpt lat="42.31740377399945" lon="14.081192921224577"><ele>66.0</ele><time>2026-05-03T11:07:58.001Z</time></trkpt><trkpt lat="42.317482207405654" lon="14.081355466731893"><ele>65.5</ele><time>2026-05-03T11:07:59.001Z</time></trkpt><trkpt lat="42.317561100734856" lon="14.081520844959698"><ele>65.0</ele><time>2026-05-03T11:08:00.001Z</time></trkpt><trkpt lat="42.31764081474073" lon="14.081684137842764"><ele>64.75</ele><time>2026-05-03T11:08:01.001Z</time></trkpt><trkpt lat="42.31771803866861" lon="14.08184330597118"><ele>64.5</ele><time>2026-05-03T11:08:02.001Z</time></trkpt><trkpt lat="42.317792840516354" lon="14.082003997846696"><ele>64.25</ele><time>2026-05-03T11:08:03.001Z</time></trkpt><trkpt lat="42.31786662036846" lon="14.082164007049471"><ele>64.0</ele><time>2026-05-03T11:08:04.001Z</time></trkpt><trkpt lat="42.31793983885168" lon="14.082324231494844"><ele>64.0</ele><time>2026-05-03T11:08:05.001Z</time></trkpt><trkpt lat="42.31801510092103" lon="14.082485331704264"><ele>64.0</ele><time>2026-05-03T11:08:06.001Z</time></trkpt><trkpt lat="42.318090238319286" lon="14.082646855261617"><ele>64.0</ele><time>2026-05-03T11:08:07.001Z</time></trkpt><trkpt lat="42.318166789611304" lon="14.082807716727217"><ele>64.0</ele><time>2026-05-03T11:08:08.001Z</time></trkpt><trkpt lat="42.31824303287571" lon="14.082967422571583"><ele>64.0</ele><time>2026-05-03T11:08:09.001Z</time></trkpt><trkpt lat="42.31831877570482" lon="14.083125870566326"><ele>64.0</ele><time>2026-05-03T11:08:10.001Z</time></trkpt><trkpt lat="42.31839523075087" lon="14.083284022479083"><ele>64.0</ele><time>2026-05-03T11:08:11.001Z</time></trkpt><trkpt lat="42.31847275515318" lon="14.08344167339126"><ele>64.0</ele><time>2026-05-03T11:08:12.001Z</time></trkpt><trkpt lat="42.31855080932845" lon="14.08360102867271"><ele>64.0</ele><time>2026-05-03T11:08:13.001Z</time></trkpt><trkpt lat="42.31863018918732" lon="14.083762343043897"><ele>64.0</ele><time>2026-05-03T11:08:14.001Z</time></trkpt><trkpt lat="42.3187087877375" lon="14.083927767663228"><ele>64.0</ele><time>2026-05-03T11:08:15.001Z</time></trkpt><trkpt lat="42.31878963721596" lon="14.084096016341276"><ele>64.0</ele><time>2026-05-03T11:08:16.001Z</time></trkpt><trkpt lat="42.318871370757144" lon="14.084264297969057"><ele>63.75</ele><time>2026-05-03T11:08:16.999Z</time></trkpt><trkpt lat="42.31895282150682" lon="14.084432629774781"><ele>63.5</ele><time>2026-05-03T11:08:17.999Z</time></trkpt><trkpt lat="42.3190301224997" lon="14.084592635471811"><ele>63.25</ele><time>2026-05-03T11:08:18.999Z</time></trkpt><trkpt lat="42.31910441091277" lon="14.084744561737825"><ele>63.0</ele><time>2026-05-03T11:08:19.999Z</time></trkpt><trkpt lat="42.31917524476879" lon="14.084888250353558"><ele>62.75</ele><time>2026-05-03T11:08:20.999Z</time></trkpt><trkpt lat="42.31924314184321" lon="14.085028670238668"><ele>62.5</ele><time>2026-05-03T11:08:21.999Z</time></trkpt><trkpt lat="42.31931003620544" lon="14.085170849848073"><ele>62.25</ele><time>2026-05-03T11:08:22.999Z</time></trkpt><trkpt lat="42.31937796532324" lon="14.085312824931092"><ele>62.0</ele><time>2026-05-03T11:08:23.999Z</time></trkpt><trkpt lat="42.31944349375468" lon="14.085452315504728"><ele>62.0</ele><time>2026-05-03T11:08:24.999Z</time></trkpt><trkpt lat="42.31950778692419" lon="14.085593800385757"><ele>62.0</ele><time>2026-05-03T11:08:25.999Z</time></trkpt><trkpt lat="42.31957454848548" lon="14.085734407422136"><ele>62.0</ele><time>2026-05-03T11:08:26.999Z</time></trkpt><trkpt lat="42.3196464274244" lon="14.085872929749922"><ele>62.0</ele><time>2026-05-03T11:08:27.999Z</time></trkpt><trkpt lat="42.31972048749411" lon="14.086018713021318"><ele>61.75</ele><time>2026-05-03T11:08:28.999Z</time></trkpt><trkpt lat="42.31979438765427" lon="14.086172197101398"><ele>61.5</ele><time>2026-05-03T11:08:29.999Z</time></trkpt><trkpt lat="42.31986926109716" lon="14.086328109176492"><ele>61.25</ele><time>2026-05-03T11:08:30.999Z</time></trkpt><trkpt lat="42.3199444383894" lon="14.086488645501996"><ele>61.0</ele><time>2026-05-03T11:08:31.999Z</time></trkpt><trkpt lat="42.32001911670626" lon="14.086645537442664"><ele>61.0</ele><time>2026-05-03T11:08:32.999Z</time></trkpt><trkpt lat="42.320091018594546" lon="14.08679682493754"><ele>61.0</ele><time>2026-05-03T11:08:33.999Z</time></trkpt><trkpt lat="42.32016008722661" lon="14.08694046918197"><ele>61.0</ele><time>2026-05-03T11:08:35Z</time></trkpt><trkpt lat="42.32022778666466" lon="14.087074396644123"><ele>61.0</ele><time>2026-05-03T11:08:36Z</time></trkpt><trkpt lat="42.32029665262096" lon="14.087207468732167"><ele>61.0</ele><time>2026-05-03T11:08:37Z</time></trkpt><trkpt lat="42.320363592316646" lon="14.087345566953681"><ele>61.0</ele><time>2026-05-03T11:08:38Z</time></trkpt><trkpt lat="42.32042549367481" lon="14.087485612449466"><ele>61.0</ele><time>2026-05-03T11:08:39Z</time></trkpt><trkpt lat="42.320488205355936" lon="14.087625169040152"><ele>61.0</ele><time>2026-05-03T11:08:40Z</time></trkpt><trkpt lat="42.32055420031822" lon="14.087761286898482"><ele>60.75</ele><time>2026-05-03T11:08:41Z</time></trkpt><trkpt lat="42.32062353724244" lon="14.08789797469987"><ele>60.5</ele><time>2026-05-03T11:08:42Z</time></trkpt><trkpt lat="42.320691635405154" lon="14.088036013224725"><ele>60.25</ele><time>2026-05-03T11:08:43Z</time></trkpt><trkpt lat="42.32075452308847" lon="14.08817548001648"><ele>60.0</ele><time>2026-05-03T11:08:44Z</time></trkpt><trkpt lat="42.32081703879109" lon="14.08831167734852"><ele>60.0</ele><time>2026-05-03T11:08:45Z</time></trkpt><trkpt lat="42.32088017528638" lon="14.088448104138156"><ele>60.0</ele><time>2026-05-03T11:08:46Z</time></trkpt><trkpt lat="42.32094531228937" lon="14.088586014798864"><ele>60.0</ele><time>2026-05-03T11:08:47Z</time></trkpt><trkpt lat="42.321011875037705" lon="14.0887229857402"><ele>60.0</ele><time>2026-05-03T11:08:48Z</time></trkpt><trkpt lat="42.321075506509864" lon="14.088858080789974"><ele>60.0</ele><time>2026-05-03T11:08:49Z</time></trkpt><trkpt lat="42.32114120890508" lon="14.08899479777761"><ele>60.0</ele><time>2026-05-03T11:08:50Z</time></trkpt><trkpt lat="42.321207801034035" lon="14.08913107699956"><ele>60.0</ele><time>2026-05-03T11:08:51Z</time></trkpt><trkpt lat="42.321274264083556" lon="14.089268378937481"><ele>60.0</ele><time>2026-05-03T11:08:52Z</time></trkpt><trkpt lat="42.32134061158362" lon="14.089409225392416"><ele>59.75</ele><time>2026-05-03T11:08:53Z</time></trkpt><trkpt lat="42.321409082962624" lon="14.089549711255916"><ele>59.5</ele><time>2026-05-03T11:08:54Z</time></trkpt><trkpt lat="42.32147792256231" lon="14.089693298124033"><ele>59.25</ele><time>2026-05-03T11:08:55Z</time></trkpt><trkpt lat="42.3215480752205" lon="14.089837822112676"><ele>59.0</ele><time>2026-05-03T11:08:56Z</time></trkpt><trkpt lat="42.321618420199286" lon="14.089981834204167"><ele>58.75</ele><time>2026-05-03T11:08:57Z</time></trkpt><trkpt lat="42.321689475172725" lon="14.09012799749101"><ele>58.5</ele><time>2026-05-03T11:08:58Z</time></trkpt><trkpt lat="42.32175985014357" lon="14.090274862661389"><ele>58.25</ele><time>2026-05-03T11:08:59Z</time></trkpt><trkpt lat="42.321832137493075" lon="14.090421048574134"><ele>58.0</ele><time>2026-05-03T11:09:00Z</time></trkpt><trkpt lat="42.3219041104264" lon="14.090569858960318"><ele>58.0</ele><time>2026-05-03T11:09:01Z</time></trkpt><trkpt lat="42.32197588591434" lon="14.090719025401937"><ele>58.0</ele><time>2026-05-03T11:09:02Z</time></trkpt><trkpt lat="42.3220477420832" lon="14.090870118842952"><ele>58.0</ele><time>2026-05-03T11:09:03Z</time></trkpt><trkpt lat="42.322119539996606" lon="14.091021555924224"><ele>58.0</ele><time>2026-05-03T11:09:04Z</time></trkpt><trkpt lat="42.32219088544858" lon="14.09117288678319"><ele>58.25</ele><time>2026-05-03T11:09:05Z</time></trkpt><trkpt lat="42.32226140950354" lon="14.091325010058384"><ele>58.5</ele><time>2026-05-03T11:09:06Z</time></trkpt><trkpt lat="42.32233299757734" lon="14.091476530947794"><ele>58.75</ele><time>2026-05-03T11:09:07Z</time></trkpt><trkpt lat="42.32240584633651" lon="14.091627483613559"><ele>59.0</ele><time>2026-05-03T11:09:08Z</time></trkpt><trkpt lat="42.32247910090027" lon="14.091776092263244"><ele>59.0</ele><time>2026-05-03T11:09:09Z</time></trkpt><trkpt lat="42.32255108957613" lon="14.091923055489572"><ele>59.0</ele><time>2026-05-03T11:09:10Z</time></trkpt><trkpt lat="42.32262021200643" lon="14.092071195293341"><ele>59.0</ele><time>2026-05-03T11:09:11Z</time></trkpt><trkpt lat="42.32268997853219" lon="14.092217318274797"><ele>59.0</ele><time>2026-05-03T11:09:12Z</time></trkpt><trkpt lat="42.32275892566999" lon="14.09236074898976"><ele>58.75</ele><time>2026-05-03T11:09:13Z</time></trkpt><trkpt lat="42.32282645135162" lon="14.092502211644765"><ele>58.5</ele><time>2026-05-03T11:09:14Z</time></trkpt><trkpt lat="42.32289465923086" lon="14.092641263268396"><ele>58.25</ele><time>2026-05-03T11:09:15Z</time></trkpt><trkpt lat="42.322959040186646" lon="14.09278038337705"><ele>58.0</ele><time>2026-05-03T11:09:16Z</time></trkpt><trkpt lat="42.323021710616" lon="14.092921856726047"><ele>58.0</ele><time>2026-05-03T11:09:17Z</time></trkpt><trkpt lat="42.32309386046616" lon="14.093068821458267"><ele>58.0</ele><time>2026-05-03T11:09:18.001Z</time></trkpt><trkpt lat="42.32317259762345" lon="14.093223911202088"><ele>58.0</ele><time>2026-05-03T11:09:19.001Z</time></trkpt><trkpt lat="42.32325006587751" lon="14.093380225145712"><ele>58.0</ele><time>2026-05-03T11:09:20.001Z</time></trkpt><trkpt lat="42.3233245509258" lon="14.093537339701934"><ele>58.0</ele><time>2026-05-03T11:09:21.001Z</time></trkpt><trkpt lat="42.323397399437205" lon="14.093692675049505"><ele>58.0</ele><time>2026-05-03T11:09:22.001Z</time></trkpt><trkpt lat="42.323467099209964" lon="14.093848528824733"><ele>58.0</ele><time>2026-05-03T11:09:23.001Z</time></trkpt><trkpt lat="42.323529408763505" lon="14.094006870228464"><ele>58.0</ele><time>2026-05-03T11:09:24.001Z</time></trkpt><trkpt lat="42.32357855941346" lon="14.094169218267462"><ele>58.0</ele><time>2026-05-03T11:09:25.001Z</time></trkpt><trkpt lat="42.32362120386811" lon="14.09433110640606"><ele>58.0</ele><time>2026-05-03T11:09:26.001Z</time></trkpt><trkpt lat="42.32365636646845" lon="14.094493811242094"><ele>58.0</ele><time>2026-05-03T11:09:27.001Z</time></trkpt><trkpt lat="42.32369015344732" lon="14.094655147711272"><ele>58.0</ele><time>2026-05-03T11:09:28.001Z</time></trkpt><trkpt lat="42.32372598543474" lon="14.094818100294848"><ele>58.25</ele><time>2026-05-03T11:09:29.001Z</time></trkpt><trkpt lat="42.32376191324969" lon="14.094982162288524"><ele>58.5</ele><time>2026-05-03T11:09:30.001Z</time></trkpt><trkpt lat="42.32379806283193" lon="14.095150494947662"><ele>58.75</ele><time>2026-05-03T11:09:31.001Z</time></trkpt><trkpt lat="42.32383103658221" lon="14.095320972026784"><ele>59.0</ele><time>2026-05-03T11:09:32.001Z</time></trkpt><trkpt lat="42.32386720234656" lon="14.095489315227958"><ele>58.75</ele><time>2026-05-03T11:09:33.001Z</time></trkpt><trkpt lat="42.32390108125325" lon="14.095657955078247"><ele>58.5</ele><time>2026-05-03T11:09:34.001Z</time></trkpt><trkpt lat="42.32393580860099" lon="14.095825744260585"><ele>58.25</ele><time>2026-05-03T11:09:35.001Z</time></trkpt><trkpt lat="42.32396962156531" lon="14.095994096640142"><ele>58.0</ele><time>2026-05-03T11:09:36.001Z</time></trkpt><trkpt lat="42.32400291173581" lon="14.09616116408938"><ele>58.0</ele><time>2026-05-03T11:09:37.001Z</time></trkpt><trkpt lat="42.324038937165746" lon="14.096324261993045"><ele>58.0</ele><time>2026-05-03T11:09:38.001Z</time></trkpt><trkpt lat="42.32407258759978" lon="14.096487103595303"><ele>58.0</ele><time>2026-05-03T11:09:39.001Z</time></trkpt><trkpt lat="42.324105775506965" lon="14.09664829060282"><ele>58.0</ele><time>2026-05-03T11:09:40.001Z</time></trkpt><trkpt lat="42.324138486246" lon="14.096815381623879"><ele>58.0</ele><time>2026-05-03T11:09:41.001Z</time></trkpt><trkpt lat="42.32417290499949" lon="14.096988920630649"><ele>58.0</ele><time>2026-05-03T11:09:42.001Z</time></trkpt><trkpt lat="42.324207619103426" lon="14.097166962176479"><ele>58.0</ele><time>2026-05-03T11:09:43.001Z</time></trkpt><trkpt lat="42.32424516294948" lon="14.097350094750789"><ele>58.0</ele><time>2026-05-03T11:09:44.001Z</time></trkpt><trkpt lat="42.32428833304558" lon="14.09753451818909"><ele>57.75</ele><time>2026-05-03T11:09:45.001Z</time></trkpt><trkpt lat="42.32434042438909" lon="14.097719798899154"><ele>57.5</ele><time>2026-05-03T11:09:46.001Z</time></trkpt><trkpt lat="42.32440399900067" lon="14.097897420524024"><ele>57.25</ele><time>2026-05-03T11:09:47.001Z</time></trkpt><trkpt lat="42.32447991883208" lon="14.098069198649785"><ele>57.0</ele><time>2026-05-03T11:09:48.001Z</time></trkpt><trkpt lat="42.32456485092345" lon="14.098229182168689"><ele>57.75</ele><time>2026-05-03T11:09:49.001Z</time></trkpt><trkpt lat="42.32465217385122" lon="14.098381731921162"><ele>58.5</ele><time>2026-05-03T11:09:50.001Z</time></trkpt><trkpt lat="42.32474045780905" lon="14.09852593658265"><ele>59.25</ele><time>2026-05-03T11:09:51.001Z</time></trkpt><trkpt lat="42.3248301048019" lon="14.098663922814872"><ele>60.0</ele><time>2026-05-03T11:09:52.001Z</time></trkpt><trkpt lat="42.32491724538688" lon="14.098804401230662"><ele>59.0</ele><time>2026-05-03T11:09:53.001Z</time></trkpt><trkpt lat="42.325004601391" lon="14.098943804078335"><ele>58.0</ele><time>2026-05-03T11:09:54.001Z</time></trkpt><trkpt lat="42.325090978457" lon="14.099086827654729"><ele>57.0</ele><time>2026-05-03T11:09:55.001Z</time></trkpt><trkpt lat="42.32517997428999" lon="14.099227573706264"><ele>56.0</ele><time>2026-05-03T11:09:56.001Z</time></trkpt><trkpt lat="42.325267101897055" lon="14.099366622454227"><ele>56.0</ele><time>2026-05-03T11:09:57.001Z</time></trkpt><trkpt lat="42.32535432793529" lon="14.099505906096137"><ele>56.0</ele><time>2026-05-03T11:09:58.001Z</time></trkpt><trkpt lat="42.325440086625186" lon="14.099644015562326"><ele>56.0</ele><time>2026-05-03T11:09:59.001Z</time></trkpt><trkpt lat="42.325522627362" lon="14.099773610323915"><ele>56.0</ele><time>2026-05-03T11:10:00.001Z</time></trkpt><trkpt lat="42.325606223463666" lon="14.099903542336833"><ele>55.25</ele><time>2026-05-03T11:10:01.001Z</time></trkpt><trkpt lat="42.325689926190456" lon="14.100034103881198"><ele>54.5</ele><time>2026-05-03T11:10:02.001Z</time></trkpt><trkpt lat="42.325771800665756" lon="14.10016585829408"><ele>53.75</ele><time>2026-05-03T11:10:03.001Z</time></trkpt><trkpt lat="42.32585383972127" lon="14.100292599094052"><ele>53.0</ele><time>2026-05-03T11:10:04.001Z</time></trkpt><trkpt lat="42.325927046432014" lon="14.100413582790846"><ele>53.00000000000001</ele><time>2026-05-03T11:10:05.001Z</time></trkpt><trkpt lat="42.325993299374076" lon="14.100526436511679"><ele>53.0</ele><time>2026-05-03T11:10:06.001Z</time></trkpt><trkpt lat="42.3260486766691" lon="14.100626369957387"><ele>53.0</ele><time>2026-05-03T11:10:07.001Z</time></trkpt><trkpt lat="42.32608915791965" lon="14.100711719480865"><ele>53.0</ele><time>2026-05-03T11:10:08.001Z</time></trkpt><trkpt lat="42.326117856602906" lon="14.100797988364397"><ele>53.00000000000001</ele><time>2026-05-03T11:10:09.001Z</time></trkpt><trkpt lat="42.326140052747746" lon="14.100882015811274"><ele>53.0</ele><time>2026-05-03T11:10:10.001Z</time></trkpt><trkpt lat="42.32614574046401" lon="14.100977717053823"><ele>53.333333333333336</ele><time>2026-05-03T11:10:11.001Z</time></trkpt><trkpt lat="42.32615295932161" lon="14.10107632221592"><ele>53.66666666666667</ele><time>2026-05-03T11:10:12.001Z</time></trkpt><trkpt lat="42.32618033372045" lon="14.101164518927527"><ele>54.0</ele><time>2026-05-03T11:10:13.002Z</time></trkpt><trkpt lat="42.326238133419636" lon="14.101227419242134"><ele>54.33333333333333</ele><time>2026-05-03T11:10:14.002Z</time></trkpt><trkpt lat="42.32631286232074" lon="14.101262733311588"><ele>54.666666666666664</ele><time>2026-05-03T11:10:15.002Z</time></trkpt><trkpt lat="42.32639294533208" lon="14.101282847010996"><ele>55.0</ele><time>2026-05-03T11:10:16.002Z</time></trkpt><trkpt lat="42.32646832992001" lon="14.101325701045107"><ele>55.0</ele><time>2026-05-03T11:10:17.002Z</time></trkpt><trkpt lat="42.32653702037302" lon="14.101398748599948"><ele>55.0</ele><time>2026-05-03T11:10:18.002Z</time></trkpt><trkpt lat="42.326594154170905" lon="14.101494496462239"><ele>55.0</ele><time>2026-05-03T11:10:19.002Z</time></trkpt><trkpt lat="42.3266521216607" lon="14.101601072721675"><ele>55.0</ele><time>2026-05-03T11:10:20.002Z</time></trkpt><trkpt lat="42.326719281365556" lon="14.101708547799113"><ele>55.0</ele><time>2026-05-03T11:10:21.002Z</time></trkpt><trkpt lat="42.32678871568068" lon="14.101818381149394"><ele>55.0</ele><time>2026-05-03T11:10:22.002Z</time></trkpt><trkpt lat="42.32686097243241" lon="14.101932944344659"><ele>55.0</ele><time>2026-05-03T11:10:23Z</time></trkpt><trkpt lat="42.326934749901" lon="14.102052805963453"><ele>55.0</ele><time>2026-05-03T11:10:24Z</time></trkpt><trkpt lat="42.32701052000936" lon="14.102181721472743"><ele>55.0</ele><time>2026-05-03T11:10:25Z</time></trkpt><trkpt lat="42.327085407780466" lon="14.102323612600319"><ele>55.5</ele><time>2026-05-03T11:10:26Z</time></trkpt><trkpt lat="42.327151412138214" lon="14.102468381463042"><ele>56.0</ele><time>2026-05-03T11:10:27Z</time></trkpt><trkpt lat="42.327212858447616" lon="14.102617396227707"><ele>56.5</ele><time>2026-05-03T11:10:28Z</time></trkpt><trkpt lat="42.327268519890055" lon="14.102781884232828"><ele>57.0</ele><time>2026-05-03T11:10:29Z</time></trkpt><trkpt lat="42.327322763673585" lon="14.102956786631214"><ele>55.0</ele><time>2026-05-03T11:10:30Z</time></trkpt><trkpt lat="42.32738113027991" lon="14.103136736312152"><ele>53.0</ele><time>2026-05-03T11:10:31Z</time></trkpt><trkpt lat="42.32743955961875" lon="14.103320232672433"><ele>51.0</ele><time>2026-05-03T11:10:32Z</time></trkpt><trkpt lat="42.327495594991746" lon="14.103499771414247"><ele>49.0</ele><time>2026-05-03T11:10:33Z</time></trkpt><trkpt lat="42.32754794095524" lon="14.103674885062574"><ele>49.0</ele><time>2026-05-03T11:10:34Z</time></trkpt><trkpt lat="42.327601213664366" lon="14.103844302689819"><ele>49.0</ele><time>2026-05-03T11:10:35Z</time></trkpt><trkpt lat="42.327652400117564" lon="14.104014080414403"><ele>49.0</ele><time>2026-05-03T11:10:36Z</time></trkpt><trkpt lat="42.32770599454106" lon="14.104184337625263"><ele>49.0</ele><time>2026-05-03T11:10:37Z</time></trkpt><trkpt lat="42.32776188015972" lon="14.10435370042184"><ele>48.5</ele><time>2026-05-03T11:10:38Z</time></trkpt><trkpt lat="42.3278164209309" lon="14.104523363782937"><ele>48.0</ele><time>2026-05-03T11:10:39Z</time></trkpt><trkpt lat="42.32786684117334" lon="14.104690919419916"><ele>47.5</ele><time>2026-05-03T11:10:40Z</time></trkpt><trkpt lat="42.327917179643805" lon="14.104858094365682"><ele>47.0</ele><time>2026-05-03T11:10:41Z</time></trkpt><trkpt lat="42.32796733741571" lon="14.105021048773727"><ele>46.75</ele><time>2026-05-03T11:10:42Z</time></trkpt><trkpt lat="42.328016172963295" lon="14.105171145284752"><ele>46.5</ele><time>2026-05-03T11:10:43Z</time></trkpt><trkpt lat="42.32806261657216" lon="14.105312870493071"><ele>46.25</ele><time>2026-05-03T11:10:44Z</time></trkpt><trkpt lat="42.3281064086642" lon="14.105451275895955"><ele>46.0</ele><time>2026-05-03T11:10:45Z</time></trkpt><trkpt lat="42.328150850100776" lon="14.105592628205622"><ele>46.0</ele><time>2026-05-03T11:10:46Z</time></trkpt><trkpt lat="42.32819406473918" lon="14.105734523851739"><ele>46.0</ele><time>2026-05-03T11:10:47Z</time></trkpt><trkpt lat="42.32823793365063" lon="14.105876474580809"><ele>46.0</ele><time>2026-05-03T11:10:48Z</time></trkpt><trkpt lat="42.32828253979158" lon="14.106015548904328"><ele>46.0</ele><time>2026-05-03T11:10:49Z</time></trkpt><trkpt lat="42.328325979498146" lon="14.106157867801056"><ele>46.0</ele><time>2026-05-03T11:10:50Z</time></trkpt><trkpt lat="42.328370576853565" lon="14.106297910617526"><ele>46.0</ele><time>2026-05-03T11:10:51Z</time></trkpt><trkpt lat="42.32841321587847" lon="14.106439621219199"><ele>46.0</ele><time>2026-05-03T11:10:52Z</time></trkpt><trkpt lat="42.32845665515812" lon="14.106574456620596"><ele>46.0</ele><time>2026-05-03T11:10:53Z</time></trkpt><trkpt lat="42.328497250205125" lon="14.106710287901928"><ele>46.0</ele><time>2026-05-03T11:10:54Z</time></trkpt><trkpt lat="42.32853950329941" lon="14.106848383573983"><ele>46.0</ele><time>2026-05-03T11:10:55Z</time></trkpt><trkpt lat="42.32858338743082" lon="14.106983417677277"><ele>46.0</ele><time>2026-05-03T11:10:56Z</time></trkpt><trkpt lat="42.328629133389896" lon="14.107121738658282"><ele>46.0</ele><time>2026-05-03T11:10:57Z</time></trkpt><trkpt lat="42.328675605681696" lon="14.107265094030708"><ele>46.0</ele><time>2026-05-03T11:10:58Z</time></trkpt><trkpt lat="42.328722018999606" lon="14.107411715097465"><ele>46.0</ele><time>2026-05-03T11:10:59Z</time></trkpt><trkpt lat="42.32876893702117" lon="14.107560606254603"><ele>46.0</ele><time>2026-05-03T11:11:00Z</time></trkpt><trkpt lat="42.328818095751195" lon="14.107713130246308"><ele>46.0</ele><time>2026-05-03T11:11:01Z</time></trkpt><trkpt lat="42.328869719102954" lon="14.107868136812241"><ele>46.0</ele><time>2026-05-03T11:11:02Z</time></trkpt><trkpt lat="42.328924757148044" lon="14.108031801031954"><ele>44.75</ele><time>2026-05-03T11:11:03Z</time></trkpt><trkpt lat="42.328979647389865" lon="14.108198206134087"><ele>43.5</ele><time>2026-05-03T11:11:04Z</time></trkpt><trkpt lat="42.32903245765326" lon="14.108373467355856"><ele>42.25</ele><time>2026-05-03T11:11:05Z</time></trkpt><trkpt lat="42.32908550336618" lon="14.108551022711058"><ele>41.0</ele><time>2026-05-03T11:11:06Z</time></trkpt><trkpt lat="42.32913768023727" lon="14.108724604943584"><ele>41.0</ele><time>2026-05-03T11:11:07Z</time></trkpt><trkpt lat="42.329190686113556" lon="14.108895506873631"><ele>41.0</ele><time>2026-05-03T11:11:08Z</time></trkpt><trkpt lat="42.32924273721669" lon="14.109059435656865"><ele>41.0</ele><time>2026-05-03T11:11:09Z</time></trkpt><trkpt lat="42.3292934732661" lon="14.109216199524884"><ele>41.0</ele><time>2026-05-03T11:11:10Z</time></trkpt><trkpt lat="42.32934311042057" lon="14.109369166487355"><ele>41.5</ele><time>2026-05-03T11:11:11Z</time></trkpt><trkpt lat="42.32938853688837" lon="14.109522442003152"><ele>42.0</ele><time>2026-05-03T11:11:12Z</time></trkpt><trkpt lat="42.329438985571564" lon="14.109671152476771"><ele>42.5</ele><time>2026-05-03T11:11:13Z</time></trkpt><trkpt lat="42.32948596542953" lon="14.109818697428924"><ele>43.0</ele><time>2026-05-03T11:11:14Z</time></trkpt><trkpt lat="42.32952889927134" lon="14.109969649812298"><ele>43.25</ele><time>2026-05-03T11:11:15.001Z</time></trkpt><trkpt lat="42.32957783006835" lon="14.110123163390796"><ele>43.5</ele><time>2026-05-03T11:11:16.001Z</time></trkpt><trkpt lat="42.329626927537795" lon="14.110276613268452"><ele>43.75</ele><time>2026-05-03T11:11:17.001Z</time></trkpt><trkpt lat="42.32967650364978" lon="14.11043309385543"><ele>44.0</ele><time>2026-05-03T11:11:18.001Z</time></trkpt><trkpt lat="42.32972730613909" lon="14.11059080207961"><ele>43.5</ele><time>2026-05-03T11:11:19.001Z</time></trkpt><trkpt lat="42.329777664918865" lon="14.110754132978121"><ele>43.0</ele><time>2026-05-03T11:11:20.001Z</time></trkpt><trkpt lat="42.32982950467715" lon="14.110915224171942"><ele>42.5</ele><time>2026-05-03T11:11:21.001Z</time></trkpt><trkpt lat="42.329878243828595" lon="14.111069459891926"><ele>42.0</ele><time>2026-05-03T11:11:22.001Z</time></trkpt><trkpt lat="42.32992558190587" lon="14.111215810738463"><ele>42.0</ele><time>2026-05-03T11:11:23.001Z</time></trkpt><trkpt lat="42.329969852631635" lon="14.11135746874345"><ele>42.0</ele><time>2026-05-03T11:11:24.001Z</time></trkpt><trkpt lat="42.330013820374674" lon="14.111497540032117"><ele>42.0</ele><time>2026-05-03T11:11:25.001Z</time></trkpt><trkpt lat="42.33005776299821" lon="14.111638477726567"><ele>42.0</ele><time>2026-05-03T11:11:26.001Z</time></trkpt><trkpt lat="42.33010316094999" lon="14.111778389140762"><ele>42.25</ele><time>2026-05-03T11:11:27.001Z</time></trkpt><trkpt lat="42.33014783638668" lon="14.111921696154972"><ele>42.5</ele><time>2026-05-03T11:11:28.001Z</time></trkpt><trkpt lat="42.330192395382944" lon="14.112064930781436"><ele>42.75</ele><time>2026-05-03T11:11:29.001Z</time></trkpt><trkpt lat="42.330237178232466" lon="14.112205270972513"><ele>43.0</ele><time>2026-05-03T11:11:30.001Z</time></trkpt><trkpt lat="42.33027924286647" lon="14.112341968736745"><ele>43.0</ele><time>2026-05-03T11:11:31.001Z</time></trkpt><trkpt lat="42.330316928676524" lon="14.112469873474847"><ele>43.0</ele><time>2026-05-03T11:11:32.001Z</time></trkpt><trkpt lat="42.33035400053419" lon="14.112589171047048"><ele>43.0</ele><time>2026-05-03T11:11:33.001Z</time></trkpt><trkpt lat="42.33038514460772" lon="14.11269252680472"><ele>43.0</ele><time>2026-05-03T11:11:34.001Z</time></trkpt><trkpt lat="42.33041318801686" lon="14.112789053416412"><ele>43.0</ele><time>2026-05-03T11:11:35.001Z</time></trkpt><trkpt lat="42.33043122308878" lon="14.112890775424255"><ele>43.0</ele><time>2026-05-03T11:11:36.001Z</time></trkpt><trkpt lat="42.330435952960244" lon="14.113000652230486"><ele>43.0</ele><time>2026-05-03T11:11:37.001Z</time></trkpt><trkpt lat="42.3304387579724" lon="14.113110781719213"><ele>43.0</ele><time>2026-05-03T11:11:38.001Z</time></trkpt><trkpt lat="42.33045612893938" lon="14.113204365049633"><ele>43.0</ele><time>2026-05-03T11:11:39.001Z</time></trkpt><trkpt lat="42.33049962960884" lon="14.11328214004275"><ele>43.0</ele><time>2026-05-03T11:11:40.001Z</time></trkpt><trkpt lat="42.330557771207516" lon="14.113340367608066"><ele>43.0</ele><time>2026-05-03T11:11:41.001Z</time></trkpt><trkpt lat="42.33061741866944" lon="14.113410283467886"><ele>43.0</ele><time>2026-05-03T11:11:42.001Z</time></trkpt><trkpt lat="42.3306521511701" lon="14.113502565325273"><ele>42.0</ele><time>2026-05-03T11:11:43.001Z</time></trkpt><trkpt lat="42.33067564816913" lon="14.113606493610469"><ele>41.0</ele><time>2026-05-03T11:11:44.001Z</time></trkpt><trkpt lat="42.33070655377237" lon="14.113716521248467"><ele>40.0</ele><time>2026-05-03T11:11:45.001Z</time></trkpt><trkpt lat="42.3307428295832" lon="14.113829291144812"><ele>39.0</ele><time>2026-05-03T11:11:46.001Z</time></trkpt><trkpt lat="42.330783722817344" lon="14.113948831952492"><ele>38.0</ele><time>2026-05-03T11:11:47.001Z</time></trkpt><trkpt lat="42.33082630559169" lon="14.114073673365997"><ele>38.0</ele><time>2026-05-03T11:11:48.001Z</time></trkpt><trkpt lat="42.33086706314504" lon="14.114209770333337"><ele>38.0</ele><time>2026-05-03T11:11:49.001Z</time></trkpt><trkpt lat="42.330911383245535" lon="14.114352894676523"><ele>38.0</ele><time>2026-05-03T11:11:50.001Z</time></trkpt><trkpt lat="42.33095624785651" lon="14.114505716638625"><ele>38.0</ele><time>2026-05-03T11:11:51.001Z</time></trkpt><trkpt lat="42.331005635203766" lon="14.114661200025957"><ele>38.0</ele><time>2026-05-03T11:11:52.001Z</time></trkpt><trkpt lat="42.33105139362282" lon="14.114813746882833"><ele>38.0</ele><time>2026-05-03T11:11:53.001Z</time></trkpt><trkpt lat="42.33109761968943" lon="14.114962027737189"><ele>38.0</ele><time>2026-05-03T11:11:54.001Z</time></trkpt><trkpt lat="42.33114535435894" lon="14.115115037214807"><ele>38.0</ele><time>2026-05-03T11:11:55.001Z</time></trkpt><trkpt lat="42.331191994378294" lon="14.115270714931"><ele>38.0</ele><time>2026-05-03T11:11:56.001Z</time></trkpt><trkpt lat="42.33123987157023" lon="14.115422165951225"><ele>38.0</ele><time>2026-05-03T11:11:57.001Z</time></trkpt><trkpt lat="42.33128530879293" lon="14.115570006628746"><ele>38.0</ele><time>2026-05-03T11:11:58.001Z</time></trkpt><trkpt lat="42.331330049379055" lon="14.11571304645253"><ele>38.0</ele><time>2026-05-03T11:11:59.001Z</time></trkpt><trkpt lat="42.33137531032048" lon="14.115854581639155"><ele>38.0</ele><time>2026-05-03T11:12:00.001Z</time></trkpt><trkpt lat="42.33142345299064" lon="14.115999155675937"><ele>38.0</ele><time>2026-05-03T11:12:01.001Z</time></trkpt><trkpt lat="42.331468140046304" lon="14.116145044627325"><ele>38.0</ele><time>2026-05-03T11:12:02.001Z</time></trkpt><trkpt lat="42.33151503184057" lon="14.116286268492553"><ele>38.0</ele><time>2026-05-03T11:12:03.001Z</time></trkpt><trkpt lat="42.33156038058527" lon="14.116433303536219"><ele>38.0</ele><time>2026-05-03T11:12:04.001Z</time></trkpt><trkpt lat="42.33160636751951" lon="14.116583697585758"><ele>38.0</ele><time>2026-05-03T11:12:05.001Z</time></trkpt><trkpt lat="42.33165518721821" lon="14.116732035436875"><ele>38.0</ele><time>2026-05-03T11:12:06.001Z</time></trkpt><trkpt lat="42.33170612089466" lon="14.116883619058937"><ele>38.0</ele><time>2026-05-03T11:12:07.002Z</time></trkpt><trkpt lat="42.33175372536564" lon="14.11703462287831"><ele>38.0</ele><time>2026-05-03T11:12:08.002Z</time></trkpt><trkpt lat="42.33180058111546" lon="14.117187794157493"><ele>38.0</ele><time>2026-05-03T11:12:09.002Z</time></trkpt><trkpt lat="42.331848259244225" lon="14.117340159649382"><ele>38.0</ele><time>2026-05-03T11:12:10.002Z</time></trkpt><trkpt lat="42.33189592160755" lon="14.117494096792083"><ele>38.0</ele><time>2026-05-03T11:12:11.002Z</time></trkpt><trkpt lat="42.33194174490788" lon="14.117651289611837"><ele>38.5</ele><time>2026-05-03T11:12:12.002Z</time></trkpt><trkpt lat="42.331990209519745" lon="14.117809962178528"><ele>39.0</ele><time>2026-05-03T11:12:13.002Z</time></trkpt><trkpt lat="42.33204042123493" lon="14.117970912401924"><ele>39.5</ele><time>2026-05-03T11:12:14.002Z</time></trkpt><trkpt lat="42.33209215831797" lon="14.118134958009978"><ele>40.0</ele><time>2026-05-03T11:12:15.002Z</time></trkpt><trkpt lat="42.33214716764633" lon="14.118306772901525"><ele>40.0</ele><time>2026-05-03T11:12:16.002Z</time></trkpt><trkpt lat="42.3322036421278" lon="14.118485044789741"><ele>40.0</ele><time>2026-05-03T11:12:17.002Z</time></trkpt><trkpt lat="42.33226356785153" lon="14.118664850188685"><ele>40.0</ele><time>2026-05-03T11:12:18.002Z</time></trkpt><trkpt lat="42.33231829805701" lon="14.118835877584427"><ele>40.0</ele><time>2026-05-03T11:12:19.002Z</time></trkpt><trkpt lat="42.33236595489447" lon="14.118993815550464"><ele>39.25</ele><time>2026-05-03T11:12:20.002Z</time></trkpt><trkpt lat="42.33241420648958" lon="14.11914374118476"><ele>38.5</ele><time>2026-05-03T11:12:21.002Z</time></trkpt><trkpt lat="42.33245661184299" lon="14.119288990275919"><ele>37.75</ele><time>2026-05-03T11:12:22.002Z</time></trkpt><trkpt lat="42.33250241264722" lon="14.119439544887479"><ele>37.0</ele><time>2026-05-03T11:12:23.002Z</time></trkpt><trkpt lat="42.33254852258728" lon="14.119587232295622"><ele>37.0</ele><time>2026-05-03T11:12:24.002Z</time></trkpt><trkpt lat="42.33259716179585" lon="14.119738025564258"><ele>37.0</ele><time>2026-05-03T11:12:25.002Z</time></trkpt><trkpt lat="42.33264557957701" lon="14.119893920819361"><ele>37.0</ele><time>2026-05-03T11:12:26.002Z</time></trkpt><trkpt lat="42.332695910568894" lon="14.120051196871612"><ele>37.0</ele><time>2026-05-03T11:12:27.002Z</time></trkpt><trkpt lat="42.33274870368259" lon="14.12021137627179"><ele>37.75</ele><time>2026-05-03T11:12:28.002Z</time></trkpt><trkpt lat="42.33279065513697" lon="14.120379492885014"><ele>38.5</ele><time>2026-05-03T11:12:29Z</time></trkpt><trkpt lat="42.33284697799953" lon="14.120562907634694"><ele>39.25</ele><time>2026-05-03T11:12:30Z</time></trkpt><trkpt lat="42.33290408363151" lon="14.120749744645616"><ele>40.0</ele><time>2026-05-03T11:12:31Z</time></trkpt><trkpt lat="42.33296278369302" lon="14.120933627570512"><ele>40.0</ele><time>2026-05-03T11:12:32Z</time></trkpt><trkpt lat="42.333019103487956" lon="14.121111680065354"><ele>40.0</ele><time>2026-05-03T11:12:33Z</time></trkpt><trkpt lat="42.333075430490155" lon="14.121288086158993"><ele>40.0</ele><time>2026-05-03T11:12:34Z</time></trkpt><trkpt lat="42.33313084172093" lon="14.121462903698673"><ele>40.0</ele><time>2026-05-03T11:12:35Z</time></trkpt><trkpt lat="42.33318709423704" lon="14.12163456791037"><ele>40.5</ele><time>2026-05-03T11:12:36Z</time></trkpt><trkpt lat="42.33323935412903" lon="14.12180266840202"><ele>41.0</ele><time>2026-05-03T11:12:37Z</time></trkpt><trkpt lat="42.33329166334148" lon="14.121968802553226"><ele>41.5</ele><time>2026-05-03T11:12:38Z</time></trkpt><trkpt lat="42.333344398853264" lon="14.122131775683764"><ele>42.0</ele><time>2026-05-03T11:12:39Z</time></trkpt><trkpt lat="42.333395356310355" lon="14.122292437768333"><ele>42.5</ele><time>2026-05-03T11:12:40Z</time></trkpt><trkpt lat="42.33344655671887" lon="14.122453135835023"><ele>43.0</ele><time>2026-05-03T11:12:41Z</time></trkpt><trkpt lat="42.33349574535407" lon="14.122610103031347"><ele>43.5</ele><time>2026-05-03T11:12:42Z</time></trkpt><trkpt lat="42.33354531262989" lon="14.12276801474749"><ele>44.0</ele><time>2026-05-03T11:12:43Z</time></trkpt><trkpt lat="42.333594086258785" lon="14.122924646710084"><ele>44.0</ele><time>2026-05-03T11:12:44Z</time></trkpt><trkpt lat="42.33364672646309" lon="14.123080498430712"><ele>44.0</ele><time>2026-05-03T11:12:45Z</time></trkpt><trkpt lat="42.333696204781965" lon="14.12323744335287"><ele>44.0</ele><time>2026-05-03T11:12:46Z</time></trkpt><trkpt lat="42.33374343924244" lon="14.123393831265542"><ele>44.0</ele><time>2026-05-03T11:12:47Z</time></trkpt><trkpt lat="42.33379250586603" lon="14.123551012468631"><ele>43.75</ele><time>2026-05-03T11:12:48Z</time></trkpt><trkpt lat="42.33384315591377" lon="14.12370868780503"><ele>43.5</ele><time>2026-05-03T11:12:49Z</time></trkpt><trkpt lat="42.33389454695595" lon="14.12386803024542"><ele>43.25</ele><time>2026-05-03T11:12:50Z</time></trkpt><trkpt lat="42.33394896811705" lon="14.124031467309273"><ele>43.0</ele><time>2026-05-03T11:12:51Z</time></trkpt><trkpt lat="42.33400562308251" lon="14.124206624734345"><ele>42.333333333333336</ele><time>2026-05-03T11:12:52Z</time></trkpt><trkpt lat="42.33406120210354" lon="14.12439061698958"><ele>41.666666666666664</ele><time>2026-05-03T11:12:53Z</time></trkpt><trkpt lat="42.33412127058121" lon="14.12457818504393"><ele>41.0</ele><time>2026-05-03T11:12:54Z</time></trkpt><trkpt lat="42.33418356111005" lon="14.124777060089666"><ele>41.666666666666664</ele><time>2026-05-03T11:12:55Z</time></trkpt><trkpt lat="42.33424832634674" lon="14.124979029862018"><ele>42.333333333333336</ele><time>2026-05-03T11:12:56Z</time></trkpt><trkpt lat="42.334312655592456" lon="14.125178544840669"><ele>43.0</ele><time>2026-05-03T11:12:57Z</time></trkpt><trkpt lat="42.334377467425796" lon="14.125384721968913"><ele>43.0</ele><time>2026-05-03T11:12:58Z</time></trkpt><trkpt lat="42.33444304932349" lon="14.125587367536424"><ele>43.0</ele><time>2026-05-03T11:12:59Z</time></trkpt><trkpt lat="42.334506578109526" lon="14.125789077923853"><ele>43.0</ele><time>2026-05-03T11:13:00Z</time></trkpt><trkpt lat="42.33456999809499" lon="14.125987192800961"><ele>43.5</ele><time>2026-05-03T11:13:01Z</time></trkpt><trkpt lat="42.33462638460466" lon="14.126171169472043"><ele>44.0</ele><time>2026-05-03T11:13:02Z</time></trkpt><trkpt lat="42.33467795305153" lon="14.12633683925711"><ele>44.5</ele><time>2026-05-03T11:13:03Z</time></trkpt><trkpt lat="42.33472582035037" lon="14.126491313587733"><ele>45.0</ele><time>2026-05-03T11:13:04Z</time></trkpt><trkpt lat="42.33477236240512" lon="14.126632963922015"><ele>45.25</ele><time>2026-05-03T11:13:05Z</time></trkpt><trkpt lat="42.33482048648156" lon="14.126785092426061"><ele>45.5</ele><time>2026-05-03T11:13:06Z</time></trkpt><trkpt lat="42.33486856282237" lon="14.126936956438437"><ele>45.75</ele><time>2026-05-03T11:13:07Z</time></trkpt><trkpt lat="42.3349158224526" lon="14.12708865552227"><ele>46.0</ele><time>2026-05-03T11:13:08Z</time></trkpt><trkpt lat="42.33496315849788" lon="14.127237899775134"><ele>46.0</ele><time>2026-05-03T11:13:09Z</time></trkpt><trkpt lat="42.33500856010457" lon="14.127392104352154"><ele>46.0</ele><time>2026-05-03T11:13:10Z</time></trkpt><trkpt lat="42.3350566568234" lon="14.127555520287826"><ele>46.0</ele><time>2026-05-03T11:13:11Z</time></trkpt><trkpt lat="42.33510833475582" lon="14.12772201982424"><ele>46.0</ele><time>2026-05-03T11:13:12Z</time></trkpt><trkpt lat="42.33516183772468" lon="14.127891206892409"><ele>46.5</ele><time>2026-05-03T11:13:13Z</time></trkpt><trkpt lat="42.33521733355838" lon="14.12805619119769"><ele>47.0</ele><time>2026-05-03T11:13:14Z</time></trkpt><trkpt lat="42.33527465232566" lon="14.128231956723692"><ele>47.5</ele><time>2026-05-03T11:13:15Z</time></trkpt><trkpt lat="42.33533502638312" lon="14.128423548153165"><ele>48.0</ele><time>2026-05-03T11:13:16Z</time></trkpt><trkpt lat="42.3353950418237" lon="14.128612732473124"><ele>48.25</ele><time>2026-05-03T11:13:17Z</time></trkpt><trkpt lat="42.33545318834496" lon="14.128801323860948"><ele>48.5</ele><time>2026-05-03T11:13:18Z</time></trkpt><trkpt lat="42.33550877170289" lon="14.128979791682548"><ele>48.75</ele><time>2026-05-03T11:13:19Z</time></trkpt><trkpt lat="42.3355638391599" lon="14.129150854348818"><ele>49.0</ele><time>2026-05-03T11:13:20.001Z</time></trkpt><trkpt lat="42.335613475873174" lon="14.129314844418593"><ele>49.25</ele><time>2026-05-03T11:13:21.001Z</time></trkpt><trkpt lat="42.33566269806837" lon="14.129474130035714"><ele>49.5</ele><time>2026-05-03T11:13:22.001Z</time></trkpt><trkpt lat="42.33571341236139" lon="14.129643764977361"><ele>49.75</ele><time>2026-05-03T11:13:23.001Z</time></trkpt><trkpt lat="42.335766012034135" lon="14.129814532168304"><ele>50.0</ele><time>2026-05-03T11:13:24.001Z</time></trkpt><trkpt lat="42.3358217023747" lon="14.129986479164215"><ele>50.5</ele><time>2026-05-03T11:13:25.001Z</time></trkpt><trkpt lat="42.33587953161199" lon="14.130162683291728"><ele>51.0</ele><time>2026-05-03T11:13:26.001Z</time></trkpt><trkpt lat="42.335937554931405" lon="14.13034132337834"><ele>51.5</ele><time>2026-05-03T11:13:27.001Z</time></trkpt><trkpt lat="42.336004587238" lon="14.13053970411471"><ele>52.0</ele><time>2026-05-03T11:13:28.001Z</time></trkpt><trkpt lat="42.336074458774576" lon="14.130764845571266"><ele>52.0</ele><time>2026-05-03T11:13:29.001Z</time></trkpt><trkpt lat="42.336139457468576" lon="14.130965293582076"><ele>52.0</ele><time>2026-05-03T11:13:30.001Z</time></trkpt><trkpt lat="42.33619712199689" lon="14.131152501977699"><ele>52.0</ele><time>2026-05-03T11:13:31.001Z</time></trkpt><trkpt lat="42.33625080073434" lon="14.131327974951118"><ele>52.0</ele><time>2026-05-03T11:13:32.001Z</time></trkpt><trkpt lat="42.336300821402524" lon="14.131501117839301"><ele>52.0</ele><time>2026-05-03T11:13:33.001Z</time></trkpt><trkpt lat="42.336348849397794" lon="14.131663198876652"><ele>52.0</ele><time>2026-05-03T11:13:34.001Z</time></trkpt><trkpt lat="42.336402572679724" lon="14.13181935065048"><ele>52.0</ele><time>2026-05-03T11:13:35.001Z</time></trkpt><trkpt lat="42.33645985847787" lon="14.131964326953312"><ele>52.0</ele><time>2026-05-03T11:13:36.001Z</time></trkpt><trkpt lat="42.33652652492033" lon="14.132106119340415"><ele>52.0</ele><time>2026-05-03T11:13:37.001Z</time></trkpt><trkpt lat="42.33660903695466" lon="14.132245700331856"><ele>52.0</ele><time>2026-05-03T11:13:38.001Z</time></trkpt><trkpt lat="42.33670339745353" lon="14.13237791019568"><ele>52.0</ele><time>2026-05-03T11:13:39.001Z</time></trkpt><trkpt lat="42.336808857578845" lon="14.132500713519974"><ele>52.5</ele><time>2026-05-03T11:13:40.001Z</time></trkpt><trkpt lat="42.336922967917204" lon="14.132619428738225"><ele>53.0</ele><time>2026-05-03T11:13:41.001Z</time></trkpt><trkpt lat="42.33703682094505" lon="14.132719644243315"><ele>53.5</ele><time>2026-05-03T11:13:42.001Z</time></trkpt><trkpt lat="42.33715856636764" lon="14.132795505451721"><ele>54.0</ele><time>2026-05-03T11:13:43.001Z</time></trkpt><trkpt lat="42.33726268792024" lon="14.132863906329673"><ele>54.25</ele><time>2026-05-03T11:13:44.001Z</time></trkpt><trkpt lat="42.337363528355695" lon="14.132911843715197"><ele>54.5</ele><time>2026-05-03T11:13:45.001Z</time></trkpt><trkpt lat="42.33747191653263" lon="14.132944605181027"><ele>54.75</ele><time>2026-05-03T11:13:46.001Z</time></trkpt><trkpt lat="42.33758850948215" lon="14.132974221273711"><ele>55.0</ele><time>2026-05-03T11:13:47.001Z</time></trkpt><trkpt lat="42.33770468146993" lon="14.133001739859766"><ele>55.0</ele><time>2026-05-03T11:13:48.001Z</time></trkpt><trkpt lat="42.33782351998979" lon="14.133045909368352"><ele>55.0</ele><time>2026-05-03T11:13:49.001Z</time></trkpt><trkpt lat="42.337953085107635" lon="14.133079153665918"><ele>55.0</ele><time>2026-05-03T11:13:50.001Z</time></trkpt><trkpt lat="42.338082030308776" lon="14.133118151411178"><ele>55.0</ele><time>2026-05-03T11:13:51.001Z</time></trkpt><trkpt lat="42.33821214366085" lon="14.133159450140857"><ele>55.0</ele><time>2026-05-03T11:13:52.001Z</time></trkpt><trkpt lat="42.33835562073628" lon="14.133205287795818"><ele>55.0</ele><time>2026-05-03T11:13:53.001Z</time></trkpt><trkpt lat="42.33850666097929" lon="14.13325077533478"><ele>55.0</ele><time>2026-05-03T11:13:54.001Z</time></trkpt><trkpt lat="42.33866244007724" lon="14.133297492847884"><ele>55.0</ele><time>2026-05-03T11:13:55.001Z</time></trkpt><trkpt lat="42.33881584373438" lon="14.133343903659052"><ele>55.0</ele><time>2026-05-03T11:13:56.001Z</time></trkpt><trkpt lat="42.338962590375395" lon="14.13338724609261"><ele>55.0</ele><time>2026-05-03T11:13:57.001Z</time></trkpt><trkpt lat="42.3391017754667" lon="14.133428345191888"><ele>55.25</ele><time>2026-05-03T11:13:58.001Z</time></trkpt><trkpt lat="42.33923262642253" lon="14.13347041054208"><ele>55.5</ele><time>2026-05-03T11:13:59.001Z</time></trkpt><trkpt lat="42.33935233488756" lon="14.133510520875216"><ele>55.75</ele><time>2026-05-03T11:14:00.001Z</time></trkpt><trkpt lat="42.33947124410289" lon="14.133545142902951"><ele>56.0</ele><time>2026-05-03T11:14:01.001Z</time></trkpt><trkpt lat="42.33957363071212" lon="14.13357868352635"><ele>56.0</ele><time>2026-05-03T11:14:02.001Z</time></trkpt><trkpt lat="42.33967575123776" lon="14.133609847496372"><ele>55.99999999999999</ele><time>2026-05-03T11:14:03.001Z</time></trkpt><trkpt lat="42.33977527808107" lon="14.133638799941219"><ele>55.99999999999999</ele><time>2026-05-03T11:14:04.001Z</time></trkpt><trkpt lat="42.33987420800958" lon="14.133669594487193"><ele>56.0</ele><time>2026-05-03T11:14:05.001Z</time></trkpt><trkpt lat="42.33997438673438" lon="14.133698126270424"><ele>56.0</ele><time>2026-05-03T11:14:06.001Z</time></trkpt><trkpt lat="42.34006808446683" lon="14.133728916495471"><ele>55.8</ele><time>2026-05-03T11:14:07.001Z</time></trkpt><trkpt lat="42.34015598971571" lon="14.133755011714374"><ele>55.599999999999994</ele><time>2026-05-03T11:14:08.001Z</time></trkpt><trkpt lat="42.34023819084765" lon="14.133780272930549"><ele>55.4</ele><time>2026-05-03T11:14:09.001Z</time></trkpt><trkpt lat="42.34030884492258" lon="14.13380597706265"><ele>55.2</ele><time>2026-05-03T11:14:10.002Z</time></trkpt><trkpt lat="42.340414815191565" lon="14.133868683428044"><ele>55.0</ele><time>2026-05-03T11:14:12.002Z</time></trkpt><trkpt lat="42.34050264649577" lon="14.133972332303019"><ele>54.6</ele><time>2026-05-03T11:14:14.002Z</time></trkpt><trkpt lat="42.34062113059413" lon="14.134019534665583"><ele>54.2</ele><time>2026-05-03T11:14:16.002Z</time></trkpt><trkpt lat="42.34067584108063" lon="14.133975971561235"><ele>53.8</ele><time>2026-05-03T11:14:17.002Z</time></trkpt><trkpt lat="42.340709184624735" lon="14.133807908433033"><ele>53.4</ele><time>2026-05-03T11:14:19.002Z</time></trkpt><trkpt lat="42.34068961272897" lon="14.133708899612861"><ele>53.0</ele><time>2026-05-03T11:14:20.002Z</time></trkpt><trkpt lat="42.34066145247616" lon="14.133620887089416"><ele>53.0</ele><time>2026-05-03T11:14:21.002Z</time></trkpt><trkpt lat="42.34069507315277" lon="14.13345373743074"><ele>53.0</ele><time>2026-05-03T11:14:23.002Z</time></trkpt><trkpt lat="42.34074456402026" lon="14.133343105345915"><ele>53.0</ele><time>2026-05-03T11:14:24.002Z</time></trkpt><trkpt lat="42.340817778909916" lon="14.133205276766637"><ele>53.0</ele><time>2026-05-03T11:14:25.002Z</time></trkpt><trkpt lat="42.34090560780141" lon="14.133047244378906"><ele>52.5</ele><time>2026-05-03T11:14:26.002Z</time></trkpt><trkpt lat="42.340997361903526" lon="14.132882357272292"><ele>52.0</ele><time>2026-05-03T11:14:27.002Z</time></trkpt><trkpt lat="42.341094491423696" lon="14.132733918778014"><ele>51.5</ele><time>2026-05-03T11:14:28.002Z</time></trkpt><trkpt lat="42.34118974494026" lon="14.132585962549744"><ele>51.0</ele><time>2026-05-03T11:14:29.002Z</time></trkpt><trkpt lat="42.34128174381946" lon="14.132449696913287"><ele>50.5</ele><time>2026-05-03T11:14:30.002Z</time></trkpt><trkpt lat="42.34137086714016" lon="14.132318290071339"><ele>50.0</ele><time>2026-05-03T11:14:31.002Z</time></trkpt><trkpt lat="42.34144903631885" lon="14.132187312061797"><ele>49.5</ele><time>2026-05-03T11:14:32.002Z</time></trkpt><trkpt lat="42.34150486822826" lon="14.132042215181276"><ele>49.0</ele><time>2026-05-03T11:14:33.002Z</time></trkpt><trkpt lat="42.3415543013634" lon="14.131887838445616"><ele>48.800000000000004</ele><time>2026-05-03T11:14:34.002Z</time></trkpt><trkpt lat="42.34159672434168" lon="14.13173691183352"><ele>48.6</ele><time>2026-05-03T11:14:35Z</time></trkpt><trkpt lat="42.34163304240615" lon="14.13160435902213"><ele>48.4</ele><time>2026-05-03T11:14:36Z</time></trkpt><trkpt lat="42.34166919863325" lon="14.131485762844674"><ele>48.2</ele><time>2026-05-03T11:14:37Z</time></trkpt><trkpt lat="42.3417093197152" lon="14.131381023846409"><ele>48.0</ele><time>2026-05-03T11:14:38Z</time></trkpt><trkpt lat="42.34176471388947" lon="14.131270105156453"><ele>47.75</ele><time>2026-05-03T11:14:39Z</time></trkpt><trkpt lat="42.34184469814843" lon="14.131176138293034"><ele>47.5</ele><time>2026-05-03T11:14:40Z</time></trkpt><trkpt lat="42.34184952844939" lon="14.131022525637125"><ele>47.25</ele><time>2026-05-03T11:14:41Z</time></trkpt><trkpt lat="42.34186928529692" lon="14.130860085641554"><ele>47.0</ele><time>2026-05-03T11:14:42Z</time></trkpt><trkpt lat="42.34190190190414" lon="14.13067958336286"><ele>46.8</ele><time>2026-05-03T11:14:43Z</time></trkpt><trkpt lat="42.341941273420055" lon="14.130507380019418"><ele>46.6</ele><time>2026-05-03T11:14:44Z</time></trkpt><trkpt lat="42.34195746913288" lon="14.130349850124642"><ele>46.4</ele><time>2026-05-03T11:14:45Z</time></trkpt><trkpt lat="42.3420156321064" lon="14.130228185439735"><ele>46.199999999999996</ele><time>2026-05-03T11:14:46Z</time></trkpt><trkpt lat="42.34203549264833" lon="14.130112637324995"><ele>46.0</ele><time>2026-05-03T11:14:47Z</time></trkpt><trkpt lat="42.34203868543488" lon="14.130013867965406"><ele>45.599999999999994</ele><time>2026-05-03T11:14:48Z</time></trkpt><trkpt lat="42.34204516857016" lon="14.129850463798544"><ele>45.2</ele><time>2026-05-03T11:14:50Z</time></trkpt><trkpt lat="42.34209385376099" lon="14.129711219095089"><ele>44.8</ele><time>2026-05-03T11:14:52Z</time></trkpt><trkpt lat="42.342166691776356" lon="14.129578792099393"><ele>44.400000000000006</ele><time>2026-05-03T11:14:54Z</time></trkpt><trkpt lat="42.342187599534604" lon="14.12947746772145"><ele>44.0</ele><time>2026-05-03T11:14:55Z</time></trkpt><trkpt lat="42.34218684987611" lon="14.129358330091893"><ele>44.0</ele><time>2026-05-03T11:14:56Z</time></trkpt><trkpt lat="42.34215182880133" lon="14.129260551233676"><ele>44.0</ele><time>2026-05-03T11:14:57Z</time></trkpt><trkpt lat="42.342080435605915" lon="14.129198677963341"><ele>44.0</ele><time>2026-05-03T11:14:58Z</time></trkpt><trkpt lat="42.342006084966116" lon="14.129146414953334"><ele>44.0</ele><time>2026-05-03T11:14:59Z</time></trkpt><trkpt lat="42.341917555189966" lon="14.129132275880705"><ele>44.0</ele><time>2026-05-03T11:15:00Z</time></trkpt><trkpt lat="42.34188252116828" lon="14.128946137362"><ele>42.75</ele><time>2026-05-03T11:15:01Z</time></trkpt><trkpt lat="42.34185249089604" lon="14.128792597237096"><ele>41.5</ele><time>2026-05-03T11:15:02Z</time></trkpt><trkpt lat="42.34181474217608" lon="14.128607577130781"><ele>40.25</ele><time>2026-05-03T11:15:03Z</time></trkpt><trkpt lat="42.341766961969846" lon="14.128390893553318"><ele>39.0</ele><time>2026-05-03T11:15:04Z</time></trkpt><trkpt lat="42.34172049496119" lon="14.128145866769545"><ele>38.333333333333336</ele><time>2026-05-03T11:15:05Z</time></trkpt><trkpt lat="42.34167816463548" lon="14.127882340008227"><ele>37.66666666666667</ele><time>2026-05-03T11:15:06Z</time></trkpt><trkpt lat="42.3416345593287" lon="14.127622728248557"><ele>37.0</ele><time>2026-05-03T11:15:07Z</time></trkpt><trkpt lat="42.34158770130759" lon="14.127349498083777"><ele>36.333333333333336</ele><time>2026-05-03T11:15:08Z</time></trkpt><trkpt lat="42.34154328769997" lon="14.127070404642911"><ele>35.666666666666664</ele><time>2026-05-03T11:15:09Z</time></trkpt><trkpt lat="42.3414957114176" lon="14.126793223541078"><ele>35.0</ele><time>2026-05-03T11:15:10Z</time></trkpt><trkpt lat="42.34144406929453" lon="14.126513500786604"><ele>35.0</ele><time>2026-05-03T11:15:11Z</time></trkpt><trkpt lat="42.34139677767187" lon="14.126234198596283"><ele>35.0</ele><time>2026-05-03T11:15:12Z</time></trkpt><trkpt lat="42.34135143149386" lon="14.125955880579268"><ele>35.0</ele><time>2026-05-03T11:15:13Z</time></trkpt><trkpt lat="42.34130846015596" lon="14.125689415325356"><ele>34.666666666666664</ele><time>2026-05-03T11:15:14Z</time></trkpt><trkpt lat="42.34126770781205" lon="14.12543336266528"><ele>34.333333333333336</ele><time>2026-05-03T11:15:15Z</time></trkpt><trkpt lat="42.34122654006141" lon="14.125181726584179"><ele>34.0</ele><time>2026-05-03T11:15:16Z</time></trkpt><trkpt lat="42.3411844073611" lon="14.124932704480225"><ele>34.333333333333336</ele><time>2026-05-03T11:15:17Z</time></trkpt><trkpt lat="42.34114560737959" lon="14.124689349982106"><ele>34.666666666666664</ele><time>2026-05-03T11:15:18Z</time></trkpt><trkpt lat="42.341100268368876" lon="14.12443639153026"><ele>35.0</ele><time>2026-05-03T11:15:19Z</time></trkpt><trkpt lat="42.34105608330421" lon="14.124189080800758"><ele>35.33333333333333</ele><time>2026-05-03T11:15:20Z</time></trkpt><trkpt lat="42.341012752961184" lon="14.123942343835418"><ele>35.666666666666664</ele><time>2026-05-03T11:15:21Z</time></trkpt><trkpt lat="42.34097152689967" lon="14.123698578057624"><ele>36.0</ele><time>2026-05-03T11:15:22Z</time></trkpt><trkpt lat="42.340930688915556" lon="14.12345348227054"><ele>35.666666666666664</ele><time>2026-05-03T11:15:23Z</time></trkpt><trkpt lat="42.340890535988535" lon="14.123214449787886"><ele>35.33333333333333</ele><time>2026-05-03T11:15:24.001Z</time></trkpt><trkpt lat="42.34085272036659" lon="14.122991009969617"><ele>35.0</ele><time>2026-05-03T11:15:25.001Z</time></trkpt><trkpt lat="42.34081777089513" lon="14.12278124303804"><ele>35.0</ele><time>2026-05-03T11:15:26.001Z</time></trkpt><trkpt lat="42.34078994480218" lon="14.122581670474172"><ele>35.0</ele><time>2026-05-03T11:15:27.001Z</time></trkpt><trkpt lat="42.34077432146398" lon="14.12239377156894"><ele>35.0</ele><time>2026-05-03T11:15:28.001Z</time></trkpt><trkpt lat="42.34078821932205" lon="14.122213318918199"><ele>35.0</ele><time>2026-05-03T11:15:29.001Z</time></trkpt><trkpt lat="42.34080404023974" lon="14.122037559611138"><ele>34.83333333333333</ele><time>2026-05-03T11:15:30.001Z</time></trkpt><trkpt lat="42.34083817486786" lon="14.121891184805568"><ele>34.666666666666664</ele><time>2026-05-03T11:15:31.001Z</time></trkpt><trkpt lat="42.340880236523475" lon="14.121775830489932"><ele>34.5</ele><time>2026-05-03T11:15:32.001Z</time></trkpt><trkpt lat="42.340932827683694" lon="14.121695481490299"><ele>34.333333333333336</ele><time>2026-05-03T11:15:33.001Z</time></trkpt><trkpt lat="42.34099219310619" lon="14.121641750874508"><ele>34.16666666666667</ele><time>2026-05-03T11:15:34.001Z</time></trkpt><trkpt lat="42.341053054778534" lon="14.121606297490782"><ele>34.0</ele><time>2026-05-03T11:15:35.001Z</time></trkpt><trkpt lat="42.341112320991854" lon="14.12156350039121"><ele>33.42857142857142</ele><time>2026-05-03T11:15:36.001Z</time></trkpt><trkpt lat="42.34115992135488" lon="14.121486467273975"><ele>32.857142857142854</ele><time>2026-05-03T11:15:37.001Z</time></trkpt><trkpt lat="42.341203176083845" lon="14.121398785924223"><ele>32.285714285714285</ele><time>2026-05-03T11:15:38.001Z</time></trkpt><trkpt lat="42.34122573817927" lon="14.121315304599092"><ele>31.71428571428571</ele><time>2026-05-03T11:15:39.001Z</time></trkpt><trkpt lat="42.34119416531086" lon="14.121211747033405"><ele>31.14285714285714</ele><time>2026-05-03T11:15:40.001Z</time></trkpt><trkpt lat="42.34119537602596" lon="14.121120846728664"><ele>30.571428571428573</ele><time>2026-05-03T11:15:41.001Z</time></trkpt><trkpt lat="42.34121005458416" lon="14.12102117784287"><ele>30.0</ele><time>2026-05-03T11:15:42.001Z</time></trkpt><trkpt lat="42.34124875557319" lon="14.120922553739046"><ele>30.0</ele><time>2026-05-03T11:15:43.001Z</time></trkpt><trkpt lat="42.34130453266237" lon="14.12081913985655"><ele>30.0</ele><time>2026-05-03T11:15:44.001Z</time></trkpt><trkpt lat="42.34137173714273" lon="14.12069736580465"><ele>30.0</ele><time>2026-05-03T11:15:45.001Z</time></trkpt><trkpt lat="42.341447937380224" lon="14.120549726805805"><ele>30.0</ele><time>2026-05-03T11:15:46.001Z</time></trkpt><trkpt lat="42.34154118669816" lon="14.120369751770205"><ele>30.333333333333336</ele><time>2026-05-03T11:15:47.001Z</time></trkpt><trkpt lat="42.34166528505028" lon="14.120177955670414"><ele>30.666666666666668</ele><time>2026-05-03T11:15:48.001Z</time></trkpt><trkpt lat="42.3417910630481" lon="14.119948053956197"><ele>31.0</ele><time>2026-05-03T11:15:49.001Z</time></trkpt><trkpt lat="42.34192192049813" lon="14.11970872137467"><ele>31.0</ele><time>2026-05-03T11:15:50.001Z</time></trkpt><trkpt lat="42.34204757307394" lon="14.11947810968445"><ele>31.0</ele><time>2026-05-03T11:15:51.001Z</time></trkpt><trkpt lat="42.342152111150604" lon="14.119247094290117"><ele>31.0</ele><time>2026-05-03T11:15:52.001Z</time></trkpt><trkpt lat="42.342270009388216" lon="14.119042392449527"><ele>31.666666666666668</ele><time>2026-05-03T11:15:53.001Z</time></trkpt><trkpt lat="42.34236681644802" lon="14.118827981332384"><ele>32.333333333333336</ele><time>2026-05-03T11:15:54.001Z</time></trkpt><trkpt lat="42.342447116628094" lon="14.11860211001546"><ele>33.0</ele><time>2026-05-03T11:15:55.001Z</time></trkpt><trkpt lat="42.342513917585975" lon="14.118357625825821"><ele>35.0</ele><time>2026-05-03T11:15:56.001Z</time></trkpt><trkpt lat="42.34256903261095" lon="14.118095318230228"><ele>37.0</ele><time>2026-05-03T11:15:57.001Z</time></trkpt><trkpt lat="42.34261675994036" lon="14.117830575350942"><ele>39.0</ele><time>2026-05-03T11:15:58.001Z</time></trkpt><trkpt lat="42.34266806612563" lon="14.117558866250846"><ele>41.0</ele><time>2026-05-03T11:15:59.001Z</time></trkpt><trkpt lat="42.34272267167651" lon="14.117279508758577"><ele>43.0</ele><time>2026-05-03T11:16:00.001Z</time></trkpt><trkpt lat="42.34277690759319" lon="14.116996780887705"><ele>45.0</ele><time>2026-05-03T11:16:01.001Z</time></trkpt><trkpt lat="42.34282980185875" lon="14.116715114722505"><ele>45.333333333333336</ele><time>2026-05-03T11:16:02.001Z</time></trkpt><trkpt lat="42.34287963942996" lon="14.116439363716475"><ele>45.66666666666667</ele><time>2026-05-03T11:16:03.001Z</time></trkpt><trkpt lat="42.34292941032" lon="14.116162858178567"><ele>46.0</ele><time>2026-05-03T11:16:04.001Z</time></trkpt><trkpt lat="42.34297665601237" lon="14.115895624220538"><ele>46.66666666666667</ele><time>2026-05-03T11:16:05.001Z</time></trkpt><trkpt lat="42.34302232521808" lon="14.115636853020114"><ele>47.333333333333336</ele><time>2026-05-03T11:16:06.001Z</time></trkpt><trkpt lat="42.34306603924659" lon="14.115377244619637"><ele>48.0</ele><time>2026-05-03T11:16:07.001Z</time></trkpt><trkpt lat="42.34310632843645" lon="14.115119262699826"><ele>48.0</ele><time>2026-05-03T11:16:08.001Z</time></trkpt><trkpt lat="42.34313809452805" lon="14.114873708694459"><ele>48.0</ele><time>2026-05-03T11:16:09.001Z</time></trkpt><trkpt lat="42.34318266330981" lon="14.114633511893485"><ele>48.0</ele><time>2026-05-03T11:16:10.001Z</time></trkpt><trkpt lat="42.343216982918705" lon="14.114384767139345"><ele>48.0</ele><time>2026-05-03T11:16:11.001Z</time></trkpt><trkpt lat="42.343251148436885" lon="14.114130214242097"><ele>48.0</ele><time>2026-05-03T11:16:12.002Z</time></trkpt><trkpt lat="42.34328466150717" lon="14.113875331991542"><ele>48.0</ele><time>2026-05-03T11:16:13.002Z</time></trkpt><trkpt lat="42.34331699613824" lon="14.113622500467931"><ele>47.666666666666664</ele><time>2026-05-03T11:16:14.002Z</time></trkpt><trkpt lat="42.343348767966965" lon="14.11337406815532"><ele>47.33333333333333</ele><time>2026-05-03T11:16:15.002Z</time></trkpt><trkpt lat="42.343378974434536" lon="14.11313268447955"><ele>47.0</ele><time>2026-05-03T11:16:16.002Z</time></trkpt><trkpt lat="42.34339276906203" lon="14.112897489173891"><ele>47.0</ele><time>2026-05-03T11:16:17.002Z</time></trkpt><trkpt lat="42.34342163900581" lon="14.11268129240352"><ele>47.0</ele><time>2026-05-03T11:16:18.002Z</time></trkpt><trkpt lat="42.343450030532374" lon="14.112475836382524"><ele>47.0</ele><time>2026-05-03T11:16:19.002Z</time></trkpt><trkpt lat="42.34347559432692" lon="14.112283597576853"><ele>47.0</ele><time>2026-05-03T11:16:20.002Z</time></trkpt><trkpt lat="42.343500533339906" lon="14.112105931375304"><ele>47.0</ele><time>2026-05-03T11:16:21.002Z</time></trkpt><trkpt lat="42.34352067197768" lon="14.11194997046474"><ele>47.0</ele><time>2026-05-03T11:16:22.002Z</time></trkpt><trkpt lat="42.34353888488174" lon="14.111815950941038"><ele>47.0</ele><time>2026-05-03T11:16:23.002Z</time></trkpt><trkpt lat="42.34355603990053" lon="14.111696455488937"><ele>47.0</ele><time>2026-05-03T11:16:24.002Z</time></trkpt><trkpt lat="42.34357170138973" lon="14.111607349079222"><ele>47.2</ele><time>2026-05-03T11:16:25.002Z</time></trkpt><trkpt lat="42.34364260649766" lon="14.111479117080012"><ele>47.400000000000006</ele><time>2026-05-03T11:16:27.002Z</time></trkpt><trkpt lat="42.343706521626125" lon="14.11146012127569"><ele>47.599999999999994</ele><time>2026-05-03T11:16:28.002Z</time></trkpt><trkpt lat="42.34377735212791" lon="14.111481769235564"><ele>47.8</ele><time>2026-05-03T11:16:29.002Z</time></trkpt><trkpt lat="42.34385562085907" lon="14.111539596916478"><ele>48.0</ele><time>2026-05-03T11:16:30.002Z</time></trkpt><trkpt lat="42.343946528410385" lon="14.11160871411739"><ele>48.0</ele><time>2026-05-03T11:16:31.002Z</time></trkpt><trkpt lat="42.34406154512365" lon="14.111684550150379"><ele>48.0</ele><time>2026-05-03T11:16:32.002Z</time></trkpt><trkpt lat="42.34418627435802" lon="14.111761300835107"><ele>48.0</ele><time>2026-05-03T11:16:33.002Z</time></trkpt><trkpt lat="42.344319140047155" lon="14.111843418592077"><ele>48.0</ele><time>2026-05-03T11:16:34.002Z</time></trkpt><trkpt lat="42.34446021260537" lon="14.111935730750101"><ele>48.0</ele><time>2026-05-03T11:16:35.002Z</time></trkpt><trkpt lat="42.34459624243261" lon="14.112027859126755"><ele>48.0</ele><time>2026-05-03T11:16:36.002Z</time></trkpt><trkpt lat="42.344737493219355" lon="14.112122403669849"><ele>48.0</ele><time>2026-05-03T11:16:37.002Z</time></trkpt><trkpt lat="42.34488200652814" lon="14.11221189329424"><ele>47.333333333333336</ele><time>2026-05-03T11:16:38.002Z</time></trkpt><trkpt lat="42.34502649185619" lon="14.112293066078855"><ele>46.66666666666667</ele><time>2026-05-03T11:16:39.002Z</time></trkpt><trkpt lat="42.34517481193245" lon="14.112366129784666"><ele>46.0</ele><time>2026-05-03T11:16:40.002Z</time></trkpt><trkpt lat="42.34532312591954" lon="14.11242625347505"><ele>46.0</ele><time>2026-05-03T11:16:40.999Z</time></trkpt><trkpt lat="42.345480432085814" lon="14.112481046123019"><ele>46.0</ele><time>2026-05-03T11:16:41.999Z</time></trkpt><trkpt lat="42.34563724071148" lon="14.112526886397752"><ele>46.0</ele><time>2026-05-03T11:16:42.999Z</time></trkpt><trkpt lat="42.34579418098769" lon="14.112569991008714"><ele>46.0</ele><time>2026-05-03T11:16:43.999Z</time></trkpt><trkpt lat="42.3459508380477" lon="14.112615848574357"><ele>46.0</ele><time>2026-05-03T11:16:44.999Z</time></trkpt><trkpt lat="42.346105029524445" lon="14.112667114420248"><ele>46.0</ele><time>2026-05-03T11:16:45.999Z</time></trkpt><trkpt lat="42.346256933424634" lon="14.112727678981335"><ele>45.333333333333336</ele><time>2026-05-03T11:16:46.999Z</time></trkpt><trkpt lat="42.346405263113915" lon="14.11279238018703"><ele>44.666666666666664</ele><time>2026-05-03T11:16:47.999Z</time></trkpt><trkpt lat="42.34655175421" lon="14.112864331242287"><ele>44.0</ele><time>2026-05-03T11:16:48.999Z</time></trkpt><trkpt lat="42.34670390510531" lon="14.112937665657965"><ele>44.0</ele><time>2026-05-03T11:16:49.999Z</time></trkpt><trkpt lat="42.346860906177916" lon="14.113012860805126"><ele>44.0</ele><time>2026-05-03T11:16:50.999Z</time></trkpt><trkpt lat="42.347023758283456" lon="14.113091872164704"><ele>44.0</ele><time>2026-05-03T11:16:51.999Z</time></trkpt><trkpt lat="42.34718776799587" lon="14.113174217269101"><ele>44.33333333333333</ele><time>2026-05-03T11:16:52.999Z</time></trkpt><trkpt lat="42.3473457996521" lon="14.11325189399575"><ele>44.666666666666664</ele><time>2026-05-03T11:16:53.999Z</time></trkpt><trkpt lat="42.34749633544758" lon="14.11332549238611"><ele>45.0</ele><time>2026-05-03T11:16:54.999Z</time></trkpt><trkpt lat="42.347645812263856" lon="14.113400905107989"><ele>45.0</ele><time>2026-05-03T11:16:56Z</time></trkpt><trkpt lat="42.347784869405565" lon="14.113474052750975"><ele>45.0</ele><time>2026-05-03T11:16:57Z</time></trkpt><trkpt lat="42.347911147641376" lon="14.11354306842818"><ele>45.0</ele><time>2026-05-03T11:16:58Z</time></trkpt><trkpt lat="42.34803202818225" lon="14.11359857670511"><ele>45.0</ele><time>2026-05-03T11:16:59Z</time></trkpt><trkpt lat="42.34814834200163" lon="14.11364284204197"><ele>45.0</ele><time>2026-05-03T11:17:00Z</time></trkpt><trkpt lat="42.348265623412004" lon="14.11366727452265"><ele>45.0</ele><time>2026-05-03T11:17:01Z</time></trkpt><trkpt lat="42.34838081777493" lon="14.113666603087125"><ele>45.0</ele><time>2026-05-03T11:17:02Z</time></trkpt><trkpt lat="42.3484999114511" lon="14.11363691421903"><ele>45.0</ele><time>2026-05-03T11:17:03Z</time></trkpt><trkpt lat="42.348625005062104" lon="14.113568823634708"><ele>45.0</ele><time>2026-05-03T11:17:04Z</time></trkpt><trkpt lat="42.348758335519776" lon="14.113473795846456"><ele>45.0</ele><time>2026-05-03T11:17:05Z</time></trkpt><trkpt lat="42.3489058066048" lon="14.113374159377967"><ele>45.0</ele><time>2026-05-03T11:17:06Z</time></trkpt><trkpt lat="42.34906314631755" lon="14.11327671059535"><ele>43.666666666666664</ele><time>2026-05-03T11:17:07Z</time></trkpt><trkpt lat="42.34921801119536" lon="14.113178311056263"><ele>42.33333333333333</ele><time>2026-05-03T11:17:08Z</time></trkpt><trkpt lat="42.34936117838836" lon="14.113081419337629"><ele>41.0</ele><time>2026-05-03T11:17:09Z</time></trkpt><trkpt lat="42.34949036146628" lon="14.112989890935582"><ele>41.0</ele><time>2026-05-03T11:17:10Z</time></trkpt><trkpt lat="42.349609082757794" lon="14.11290621825977"><ele>41.0</ele><time>2026-05-03T11:17:11Z</time></trkpt><trkpt lat="42.34972137103479" lon="14.112828756521669"><ele>41.0</ele><time>2026-05-03T11:17:12Z</time></trkpt><trkpt lat="42.349831703437275" lon="14.112749638104738"><ele>41.0</ele><time>2026-05-03T11:17:13Z</time></trkpt><trkpt lat="42.349946250451495" lon="14.11267495748733"><ele>41.75</ele><time>2026-05-03T11:17:14Z</time></trkpt><trkpt lat="42.350070304525694" lon="14.112615722534484"><ele>42.5</ele><time>2026-05-03T11:17:15Z</time></trkpt><trkpt lat="42.35020955732512" lon="14.112566561604023"><ele>43.25</ele><time>2026-05-03T11:17:16Z</time></trkpt><trkpt lat="42.350358517647095" lon="14.112526392279152"><ele>44.0</ele><time>2026-05-03T11:17:17Z</time></trkpt><trkpt lat="42.35051639146196" lon="14.1125008204003"><ele>44.0</ele><time>2026-05-03T11:17:18Z</time></trkpt><trkpt lat="42.35068079926268" lon="14.112501367445278"><ele>44.0</ele><time>2026-05-03T11:17:19Z</time></trkpt><trkpt lat="42.350855707538116" lon="14.11253132938258"><ele>44.0</ele><time>2026-05-03T11:17:20Z</time></trkpt><trkpt lat="42.35104723830634" lon="14.11259000615992"><ele>44.0</ele><time>2026-05-03T11:17:21Z</time></trkpt><trkpt lat="42.35124354688701" lon="14.112659773748923"><ele>44.0</ele><time>2026-05-03T11:17:22Z</time></trkpt><trkpt lat="42.35144403838259" lon="14.112741591800496"><ele>44.0</ele><time>2026-05-03T11:17:23Z</time></trkpt><trkpt lat="42.35164639765097" lon="14.11282599998986"><ele>42.666666666666664</ele><time>2026-05-03T11:17:24Z</time></trkpt><trkpt lat="42.35184469087996" lon="14.112911791603414"><ele>41.333333333333336</ele><time>2026-05-03T11:17:25Z</time></trkpt><trkpt lat="42.352035547053184" lon="14.112996519155459"><ele>40.0</ele><time>2026-05-03T11:17:26Z</time></trkpt><trkpt lat="42.35223531071361" lon="14.113065869546551"><ele>38.66666666666667</ele><time>2026-05-03T11:17:27Z</time></trkpt><trkpt lat="42.35242911384798" lon="14.113154578435704"><ele>37.333333333333336</ele><time>2026-05-03T11:17:28Z</time></trkpt><trkpt lat="42.35262418285101" lon="14.113232873698136"><ele>36.0</ele><time>2026-05-03T11:17:29Z</time></trkpt><trkpt lat="42.35282013741204" lon="14.113310640184558"><ele>36.0</ele><time>2026-05-03T11:17:30Z</time></trkpt><trkpt lat="42.35301413903074" lon="14.11339055138436"><ele>36.0</ele><time>2026-05-03T11:17:31Z</time></trkpt><trkpt lat="42.353207674991495" lon="14.113469409612394"><ele>36.0</ele><time>2026-05-03T11:17:32Z</time></trkpt><trkpt lat="42.353403260792454" lon="14.113548611370986"><ele>36.0</ele><time>2026-05-03T11:17:33Z</time></trkpt><trkpt lat="42.353597582321775" lon="14.113626680133635"><ele>36.0</ele><time>2026-05-03T11:17:34.001Z</time></trkpt><trkpt lat="42.353790971601384" lon="14.11370488137904"><ele>36.0</ele><time>2026-05-03T11:17:35.001Z</time></trkpt><trkpt lat="42.35398344497088" lon="14.113783043776879"><ele>36.0</ele><time>2026-05-03T11:17:36.001Z</time></trkpt><trkpt lat="42.35417570954698" lon="14.113860130126744"><ele>36.0</ele><time>2026-05-03T11:17:37.001Z</time></trkpt><trkpt lat="42.35436607214291" lon="14.113934715295557"><ele>36.0</ele><time>2026-05-03T11:17:38.001Z</time></trkpt><trkpt lat="42.354555386998776" lon="14.114012521851011"><ele>36.333333333333336</ele><time>2026-05-03T11:17:39.001Z</time></trkpt><trkpt lat="42.35474478990334" lon="14.114090419897291"><ele>36.66666666666667</ele><time>2026-05-03T11:17:40.001Z</time></trkpt><trkpt lat="42.354936224662964" lon="14.114164434914967"><ele>37.0</ele><time>2026-05-03T11:17:41.001Z</time></trkpt><trkpt lat="42.35512830582393" lon="14.114237606185675"><ele>37.0</ele><time>2026-05-03T11:17:42.001Z</time></trkpt><trkpt lat="42.35531494713291" lon="14.114311849013223"><ele>37.0</ele><time>2026-05-03T11:17:43.001Z</time></trkpt><trkpt lat="42.35550195618627" lon="14.114391022449182"><ele>37.0</ele><time>2026-05-03T11:17:44.001Z</time></trkpt><trkpt lat="42.35568823949306" lon="14.11446730600573"><ele>40.333333333333336</ele><time>2026-05-03T11:17:45.001Z</time></trkpt><trkpt lat="42.355879088110264" lon="14.114546785679575"><ele>43.666666666666664</ele><time>2026-05-03T11:17:46.001Z</time></trkpt><trkpt lat="42.35606862195115" lon="14.114620271110557"><ele>47.0</ele><time>2026-05-03T11:17:47.001Z</time></trkpt><trkpt lat="42.35625876246116" lon="14.114695805819657"><ele>47.666666666666664</ele><time>2026-05-03T11:17:48.001Z</time></trkpt><trkpt lat="42.3564490127323" lon="14.114772521973604"><ele>48.33333333333333</ele><time>2026-05-03T11:17:49.001Z</time></trkpt><trkpt lat="42.356638940146816" lon="14.114849404608632"><ele>49.0</ele><time>2026-05-03T11:17:50.001Z</time></trkpt><trkpt lat="42.356831577641366" lon="14.114925514068767"><ele>46.33333333333333</ele><time>2026-05-03T11:17:51.001Z</time></trkpt><trkpt lat="42.35702308155377" lon="14.115002523942877"><ele>43.666666666666664</ele><time>2026-05-03T11:17:52.001Z</time></trkpt><trkpt lat="42.35721495865334" lon="14.11508085425401"><ele>41.0</ele><time>2026-05-03T11:17:53.001Z</time></trkpt><trkpt lat="42.35740755402782" lon="14.11515761205339"><ele>41.0</ele><time>2026-05-03T11:17:54.001Z</time></trkpt><trkpt lat="42.35760120126009" lon="14.115233355043845"><ele>41.0</ele><time>2026-05-03T11:17:55.001Z</time></trkpt><trkpt lat="42.35779368046078" lon="14.115309971761068"><ele>41.0</ele><time>2026-05-03T11:17:56.001Z</time></trkpt><trkpt lat="42.35798982731248" lon="14.11539151623733"><ele>41.0</ele><time>2026-05-03T11:17:57.001Z</time></trkpt><trkpt lat="42.35818747219115" lon="14.115470282018705"><ele>41.0</ele><time>2026-05-03T11:17:58.001Z</time></trkpt><trkpt lat="42.35838530191026" lon="14.115552401697697"><ele>41.0</ele><time>2026-05-03T11:17:59.001Z</time></trkpt><trkpt lat="42.35858141876299" lon="14.115635685139566"><ele>41.0</ele><time>2026-05-03T11:18:00.001Z</time></trkpt><trkpt lat="42.358779300962375" lon="14.11571638125257"><ele>41.0</ele><time>2026-05-03T11:18:01.001Z</time></trkpt><trkpt lat="42.358977003673886" lon="14.115792227972333"><ele>41.0</ele><time>2026-05-03T11:18:02.001Z</time></trkpt><trkpt lat="42.359177029517554" lon="14.115869343594373"><ele>39.666666666666664</ele><time>2026-05-03T11:18:03.001Z</time></trkpt><trkpt lat="42.359373497895426" lon="14.115951621833153"><ele>38.333333333333336</ele><time>2026-05-03T11:18:04.001Z</time></trkpt><trkpt lat="42.35956927107219" lon="14.116036414530265"><ele>37.0</ele><time>2026-05-03T11:18:05.001Z</time></trkpt><trkpt lat="42.3597633452496" lon="14.116122773489742"><ele>37.0</ele><time>2026-05-03T11:18:06.001Z</time></trkpt><trkpt lat="42.35995503460714" lon="14.116205727800855"><ele>37.0</ele><time>2026-05-03T11:18:07.001Z</time></trkpt><trkpt lat="42.36014687074558" lon="14.11628793166646"><ele>37.0</ele><time>2026-05-03T11:18:08.001Z</time></trkpt><trkpt lat="42.360335126400045" lon="14.116373638740502"><ele>37.0</ele><time>2026-05-03T11:18:09.001Z</time></trkpt><trkpt lat="42.36052276990683" lon="14.116458343886523"><ele>37.0</ele><time>2026-05-03T11:18:10.001Z</time></trkpt><trkpt lat="42.36070902265227" lon="14.116539162310657"><ele>37.0</ele><time>2026-05-03T11:18:11.001Z</time></trkpt><trkpt lat="42.36089532109653" lon="14.116620994107969"><ele>36.66666666666667</ele><time>2026-05-03T11:18:12.001Z</time></trkpt><trkpt lat="42.3610819481769" lon="14.116705783210811"><ele>36.333333333333336</ele><time>2026-05-03T11:18:13.001Z</time></trkpt><trkpt lat="42.36126807833083" lon="14.116795079526772"><ele>36.0</ele><time>2026-05-03T11:18:14.001Z</time></trkpt><trkpt lat="42.36145552967878" lon="14.116882760660541"><ele>36.0</ele><time>2026-05-03T11:18:15.001Z</time></trkpt><trkpt lat="42.3616481083097" lon="14.116972386793186"><ele>36.0</ele><time>2026-05-03T11:18:16.001Z</time></trkpt><trkpt lat="42.361842982759875" lon="14.117059254912611"><ele>36.0</ele><time>2026-05-03T11:18:17.001Z</time></trkpt><trkpt lat="42.362038726018575" lon="14.117148586616764"><ele>39.0</ele><time>2026-05-03T11:18:18.001Z</time></trkpt><trkpt lat="42.36222985380453" lon="14.117235317176661"><ele>42.0</ele><time>2026-05-03T11:18:19.001Z</time></trkpt><trkpt lat="42.36241549400268" lon="14.117312778058231"><ele>45.0</ele><time>2026-05-03T11:18:20.002Z</time></trkpt><trkpt lat="42.36260326355941" lon="14.11738201188214"><ele>40.333333333333336</ele><time>2026-05-03T11:18:21.002Z</time></trkpt><trkpt lat="42.36279210907296" lon="14.117437366930261"><ele>35.66666666666667</ele><time>2026-05-03T11:18:22.002Z</time></trkpt><trkpt lat="42.36298540213577" lon="14.117460499093866"><ele>31.0</ele><time>2026-05-03T11:18:23.002Z</time></trkpt><trkpt lat="42.36318310616488" lon="14.117465869558597"><ele>31.0</ele><time>2026-05-03T11:18:24.002Z</time></trkpt><trkpt lat="42.363373403583736" lon="14.117465274523433"><ele>31.0</ele><time>2026-05-03T11:18:25.002Z</time></trkpt><trkpt lat="42.36356119002476" lon="14.1174675814953"><ele>31.0</ele><time>2026-05-03T11:18:26.002Z</time></trkpt><trkpt lat="42.36373912598288" lon="14.117469151004371"><ele>31.666666666666668</ele><time>2026-05-03T11:18:27.002Z</time></trkpt><trkpt lat="42.36391568042552" lon="14.117474101549053"><ele>32.333333333333336</ele><time>2026-05-03T11:18:28.002Z</time></trkpt><trkpt lat="42.364094469761156" lon="14.11749234139016"><ele>33.0</ele><time>2026-05-03T11:18:29.002Z</time></trkpt><trkpt lat="42.364273013154396" lon="14.11753216446928"><ele>33.0</ele><time>2026-05-03T11:18:30.002Z</time></trkpt><trkpt lat="42.36444889070209" lon="14.117598569999505"><ele>33.0</ele><time>2026-05-03T11:18:31.002Z</time></trkpt><trkpt lat="42.36461471123629" lon="14.117690010058658"><ele>33.0</ele><time>2026-05-03T11:18:32.002Z</time></trkpt><trkpt lat="42.36478487970085" lon="14.11779922831309"><ele>32.666666666666664</ele><time>2026-05-03T11:18:33.002Z</time></trkpt><trkpt lat="42.36496549257333" lon="14.117921306478994"><ele>32.33333333333333</ele><time>2026-05-03T11:18:34.002Z</time></trkpt><trkpt lat="42.36515997056631" lon="14.118049593701885"><ele>32.0</ele><time>2026-05-03T11:18:35.002Z</time></trkpt><trkpt lat="42.365360713615246" lon="14.118184156129411"><ele>30.0</ele><time>2026-05-03T11:18:36.002Z</time></trkpt><trkpt lat="42.36556455562363" lon="14.118322125284774"><ele>28.0</ele><time>2026-05-03T11:18:37.002Z</time></trkpt><trkpt lat="42.36576712725538" lon="14.118458989042091"><ele>28.0</ele><time>2026-05-03T11:18:38.002Z</time></trkpt><trkpt lat="42.36596737673785" lon="14.11859545240107"><ele>28.0</ele><time>2026-05-03T11:18:39.002Z</time></trkpt><trkpt lat="42.3661694047319" lon="14.118729940024428"><ele>28.0</ele><time>2026-05-03T11:18:40.002Z</time></trkpt><trkpt lat="42.36636876097456" lon="14.11886596115713"><ele>28.0</ele><time>2026-05-03T11:18:41.002Z</time></trkpt><trkpt lat="42.36656586354796" lon="14.119005578253164"><ele>28.0</ele><time>2026-05-03T11:18:42.002Z</time></trkpt><trkpt lat="42.36676243699295" lon="14.119148818191533"><ele>28.0</ele><time>2026-05-03T11:18:43.002Z</time></trkpt><trkpt lat="42.366957081378075" lon="14.119290461612511"><ele>28.0</ele><time>2026-05-03T11:18:44.002Z</time></trkpt><trkpt lat="42.36715035442313" lon="14.119428721572278"><ele>28.0</ele><time>2026-05-03T11:18:45.002Z</time></trkpt><trkpt lat="42.36733955943156" lon="14.119559214802562"><ele>28.0</ele><time>2026-05-03T11:18:46.002Z</time></trkpt><trkpt lat="42.36752478541817" lon="14.119686757297439"><ele>28.0</ele><time>2026-05-03T11:18:47Z</time></trkpt><trkpt lat="42.367705489009765" lon="14.119814445405385"><ele>28.0</ele><time>2026-05-03T11:18:48Z</time></trkpt><trkpt lat="42.36787993268194" lon="14.11993471835177"><ele>28.0</ele><time>2026-05-03T11:18:49Z</time></trkpt><trkpt lat="42.3680431800369" lon="14.120043370175027"><ele>28.333333333333336</ele><time>2026-05-03T11:18:50Z</time></trkpt><trkpt lat="42.36819946687953" lon="14.120137702875331"><ele>28.666666666666664</ele><time>2026-05-03T11:18:51Z</time></trkpt><trkpt lat="42.368357268438444" lon="14.120211291435398"><ele>29.0</ele><time>2026-05-03T11:18:52Z</time></trkpt><trkpt lat="42.36852816225291" lon="14.120258017733738"><ele>29.0</ele><time>2026-05-03T11:18:53Z</time></trkpt><trkpt lat="42.368709141321986" lon="14.120291532560692"><ele>29.0</ele><time>2026-05-03T11:18:54Z</time></trkpt><trkpt lat="42.36890332850282" lon="14.120320359136823"><ele>29.0</ele><time>2026-05-03T11:18:55Z</time></trkpt><trkpt lat="42.3691074103535" lon="14.120349582655914"><ele>31.666666666666664</ele><time>2026-05-03T11:18:56Z</time></trkpt><trkpt lat="42.369315223252485" lon="14.120377519803586"><ele>34.333333333333336</ele><time>2026-05-03T11:18:57Z</time></trkpt><trkpt lat="42.369527226355046" lon="14.12040395679293"><ele>37.0</ele><time>2026-05-03T11:18:58Z</time></trkpt><trkpt lat="42.369739644542406" lon="14.12042798940075"><ele>37.0</ele><time>2026-05-03T11:18:59Z</time></trkpt><trkpt lat="42.3699497163171" lon="14.12045338992931"><ele>37.0</ele><time>2026-05-03T11:19:00Z</time></trkpt><trkpt lat="42.37015316462648" lon="14.120479287943446"><ele>37.0</ele><time>2026-05-03T11:19:01Z</time></trkpt><trkpt lat="42.37034897623844" lon="14.120505650056298"><ele>37.333333333333336</ele><time>2026-05-03T11:19:02Z</time></trkpt><trkpt lat="42.370541355813685" lon="14.120532875650312"><ele>37.666666666666664</ele><time>2026-05-03T11:19:03Z</time></trkpt><trkpt lat="42.37073308065983" lon="14.120570410545628"><ele>38.0</ele><time>2026-05-03T11:19:04Z</time></trkpt><trkpt lat="42.37092545644375" lon="14.12062464253553"><ele>38.0</ele><time>2026-05-03T11:19:05Z</time></trkpt><trkpt lat="42.37111360213682" lon="14.120699227450839"><ele>38.0</ele><time>2026-05-03T11:19:06Z</time></trkpt><trkpt lat="42.37129808281209" lon="14.120780943911035"><ele>38.0</ele><time>2026-05-03T11:19:07Z</time></trkpt><trkpt lat="42.37148507072008" lon="14.120862295924773"><ele>36.33333333333333</ele><time>2026-05-03T11:19:08Z</time></trkpt><trkpt lat="42.371670184182484" lon="14.120942718378364"><ele>34.666666666666664</ele><time>2026-05-03T11:19:09Z</time></trkpt><trkpt lat="42.371854488828816" lon="14.121029275946565"><ele>33.0</ele><time>2026-05-03T11:19:10Z</time></trkpt><trkpt lat="42.37203319613439" lon="14.121121749414053"><ele>36.333333333333336</ele><time>2026-05-03T11:19:11Z</time></trkpt><trkpt lat="42.37219841211091" lon="14.121223396845043"><ele>39.66666666666667</ele><time>2026-05-03T11:19:12Z</time></trkpt><trkpt lat="42.37235449843449" lon="14.121344314881897"><ele>43.0</ele><time>2026-05-03T11:19:13Z</time></trkpt><trkpt lat="42.37251060051955" lon="14.121477864041386"><ele>40.0</ele><time>2026-05-03T11:19:14Z</time></trkpt><trkpt lat="42.37267395980098" lon="14.121611008481068"><ele>37.0</ele><time>2026-05-03T11:19:15Z</time></trkpt><trkpt lat="42.37284114152562" lon="14.121741671635652"><ele>34.0</ele><time>2026-05-03T11:19:16Z</time></trkpt><trkpt lat="42.3729991521761" lon="14.121865017281484"><ele>36.333333333333336</ele><time>2026-05-03T11:19:17Z</time></trkpt><trkpt lat="42.37314704223118" lon="14.121981373109444"><ele>38.666666666666664</ele><time>2026-05-03T11:19:18Z</time></trkpt><trkpt lat="42.373285584179605" lon="14.122088479222088"><ele>41.0</ele><time>2026-05-03T11:19:19Z</time></trkpt><trkpt lat="42.373417435327994" lon="14.122190794876223"><ele>41.0</ele><time>2026-05-03T11:19:20Z</time></trkpt><trkpt lat="42.373540549735104" lon="14.122288302078946"><ele>41.0</ele><time>2026-05-03T11:19:21Z</time></trkpt><trkpt lat="42.37365256152923" lon="14.122379224809276"><ele>41.0</ele><time>2026-05-03T11:19:22Z</time></trkpt><trkpt lat="42.37375008945476" lon="14.122458005544008"><ele>41.0</ele><time>2026-05-03T11:19:23Z</time></trkpt><trkpt lat="42.373831081188015" lon="14.122522398603309"><ele>41.0</ele><time>2026-05-03T11:19:24Z</time></trkpt><trkpt lat="42.37390001901861" lon="14.122576943642375"><ele>41.0</ele><time>2026-05-03T11:19:25Z</time></trkpt><trkpt lat="42.374003554035475" lon="14.122651017065303"><ele>41.0</ele><time>2026-05-03T11:19:27Z</time></trkpt><trkpt lat="42.37406930672377" lon="14.122680500919124"><ele>41.0</ele><time>2026-05-03T11:19:28Z</time></trkpt><trkpt lat="42.37415323127694" lon="14.122725918460333"><ele>41.0</ele><time>2026-05-03T11:19:29Z</time></trkpt><trkpt lat="42.374250742705776" lon="14.12280243410511"><ele>41.0</ele><time>2026-05-03T11:19:30Z</time></trkpt><trkpt lat="42.37437213637541" lon="14.12290878390617"><ele>41.0</ele><time>2026-05-03T11:19:31Z</time></trkpt><trkpt lat="42.374518071219754" lon="14.123030386695865"><ele>41.0</ele><time>2026-05-03T11:19:32Z</time></trkpt><trkpt lat="42.37468721074856" lon="14.123171754953173"><ele>40.33333333333333</ele><time>2026-05-03T11:19:33Z</time></trkpt><trkpt lat="42.374842865706555" lon="14.123311674159977"><ele>39.666666666666664</ele><time>2026-05-03T11:19:34Z</time></trkpt><trkpt lat="42.374978463917145" lon="14.123427587456566"><ele>39.0</ele><time>2026-05-03T11:19:35.001Z</time></trkpt><trkpt lat="42.37510975129958" lon="14.123532944131446"><ele>39.0</ele><time>2026-05-03T11:19:36.001Z</time></trkpt><trkpt lat="42.37523468005793" lon="14.12362560022041"><ele>39.0</ele><time>2026-05-03T11:19:37.001Z</time></trkpt><trkpt lat="42.37535346038034" lon="14.123709937873304"><ele>39.0</ele><time>2026-05-03T11:19:38.001Z</time></trkpt><trkpt lat="42.37546672182976" lon="14.123795173408652"><ele>39.0</ele><time>2026-05-03T11:19:39.001Z</time></trkpt><trkpt lat="42.37558154091266" lon="14.1238808246451"><ele>38.75</ele><time>2026-05-03T11:19:40.001Z</time></trkpt><trkpt lat="42.375702377911054" lon="14.123958017833402"><ele>38.5</ele><time>2026-05-03T11:19:41.001Z</time></trkpt><trkpt lat="42.37582439050568" lon="14.12401501127992"><ele>38.25</ele><time>2026-05-03T11:19:42.001Z</time></trkpt><trkpt lat="42.37593838830518" lon="14.124052267893477"><ele>38.0</ele><time>2026-05-03T11:19:43.001Z</time></trkpt><trkpt lat="42.37604394687407" lon="14.12407417047043"><ele>38.0</ele><time>2026-05-03T11:19:44.001Z</time></trkpt><trkpt lat="42.376130317643195" lon="14.124092928380056"><ele>38.0</ele><time>2026-05-03T11:19:45.001Z</time></trkpt><trkpt lat="42.376205714143794" lon="14.12413007566637"><ele>38.0</ele><time>2026-05-03T11:19:46.001Z</time></trkpt><trkpt lat="42.37626142624252" lon="14.124188360085512"><ele>38.0</ele><time>2026-05-03T11:19:47.001Z</time></trkpt><trkpt lat="42.37630756551285" lon="14.124254706620244"><ele>38.0</ele><time>2026-05-03T11:19:48.001Z</time></trkpt><trkpt lat="42.37635043257045" lon="14.124341051388315"><ele>38.0</ele><time>2026-05-03T11:19:49.001Z</time></trkpt><trkpt lat="42.3763871564264" lon="14.124435928161104"><ele>37.83333333333333</ele><time>2026-05-03T11:19:50.001Z</time></trkpt><trkpt lat="42.37643762600671" lon="14.12450530563927"><ele>37.666666666666664</ele><time>2026-05-03T11:19:51.001Z</time></trkpt><trkpt lat="42.37649736951078" lon="14.124541370361632"><ele>37.5</ele><time>2026-05-03T11:19:52.001Z</time></trkpt><trkpt lat="42.37660768996848" lon="14.124490311065047"><ele>37.333333333333336</ele><time>2026-05-03T11:19:54.001Z</time></trkpt><trkpt lat="42.376647477271405" lon="14.12440584678177"><ele>37.16666666666667</ele><time>2026-05-03T11:19:55.001Z</time></trkpt><trkpt lat="42.37668133784452" lon="14.124292736686707"><ele>37.0</ele><time>2026-05-03T11:19:56.001Z</time></trkpt><trkpt lat="42.37674061249685" lon="14.124184183077443"><ele>37.0</ele><time>2026-05-03T11:19:57.001Z</time></trkpt><trkpt lat="42.37682757626906" lon="14.124086120496914"><ele>37.0</ele><time>2026-05-03T11:19:58.001Z</time></trkpt><trkpt lat="42.37692382456589" lon="14.123976413745043"><ele>37.0</ele><time>2026-05-03T11:19:59.001Z</time></trkpt><trkpt lat="42.377007611443496" lon="14.123827406789456"><ele>37.0</ele><time>2026-05-03T11:20:00.001Z</time></trkpt><trkpt lat="42.377086279750394" lon="14.12366538882117"><ele>38.75</ele><time>2026-05-03T11:20:01.001Z</time></trkpt><trkpt lat="42.37716627431584" lon="14.123547964514305"><ele>40.5</ele><time>2026-05-03T11:20:02.001Z</time></trkpt><trkpt lat="42.37725663784947" lon="14.123468005199571"><ele>42.25</ele><time>2026-05-03T11:20:03.001Z</time></trkpt><trkpt lat="42.37736469047433" lon="14.123415332724646"><ele>44.0</ele><time>2026-05-03T11:20:04.001Z</time></trkpt><trkpt lat="42.37749249993354" lon="14.123402423401956"><ele>44.666666666666664</ele><time>2026-05-03T11:20:05.001Z</time></trkpt><trkpt lat="42.377636444176964" lon="14.12342295223226"><ele>45.333333333333336</ele><time>2026-05-03T11:20:06.001Z</time></trkpt><trkpt lat="42.37779694185725" lon="14.123461189127164"><ele>46.0</ele><time>2026-05-03T11:20:07.001Z</time></trkpt><trkpt lat="42.37796499008871" lon="14.123494397666432"><ele>49.0</ele><time>2026-05-03T11:20:08.001Z</time></trkpt><trkpt lat="42.378127810215204" lon="14.12351854694791"><ele>52.0</ele><time>2026-05-03T11:20:09.001Z</time></trkpt><trkpt lat="42.37829707036584" lon="14.123543036186156"><ele>55.0</ele><time>2026-05-03T11:20:10.001Z</time></trkpt><trkpt lat="42.37846822326627" lon="14.12357481307298"><ele>55.0</ele><time>2026-05-03T11:20:11.001Z</time></trkpt><trkpt lat="42.3786391079461" lon="14.123604146102068"><ele>55.0</ele><time>2026-05-03T11:20:12.001Z</time></trkpt><trkpt lat="42.37880783679251" lon="14.123632067874592"><ele>55.0</ele><time>2026-05-03T11:20:13.001Z</time></trkpt><trkpt lat="42.37897130699206" lon="14.123659659717386"><ele>56.0</ele><time>2026-05-03T11:20:14.001Z</time></trkpt><trkpt lat="42.37912573635911" lon="14.12369020749979"><ele>57.0</ele><time>2026-05-03T11:20:15.001Z</time></trkpt><trkpt lat="42.3792633881362" lon="14.123734848618836"><ele>58.0</ele><time>2026-05-03T11:20:16.001Z</time></trkpt><trkpt lat="42.37937820924921" lon="14.123790982303657"><ele>59.0</ele><time>2026-05-03T11:20:17.001Z</time></trkpt><trkpt lat="42.379482120897144" lon="14.123835770487707"><ele>59.0</ele><time>2026-05-03T11:20:18.001Z</time></trkpt><trkpt lat="42.37956430662725" lon="14.123964089035372"><ele>59.0</ele><time>2026-05-03T11:20:19.001Z</time></trkpt><trkpt lat="42.379667296747996" lon="14.12408145031367"><ele>59.0</ele><time>2026-05-03T11:20:20.002Z</time></trkpt><trkpt lat="42.379795642239664" lon="14.124203689046062"><ele>59.0</ele><time>2026-05-03T11:20:21.002Z</time></trkpt><trkpt lat="42.37994007309794" lon="14.12432941539973"><ele>56.66666666666667</ele><time>2026-05-03T11:20:22.002Z</time></trkpt><trkpt lat="42.380096815405444" lon="14.124451583497232"><ele>54.33333333333333</ele><time>2026-05-03T11:20:23.002Z</time></trkpt><trkpt lat="42.38026081370657" lon="14.124568639657117"><ele>52.0</ele><time>2026-05-03T11:20:24.002Z</time></trkpt><trkpt lat="42.38042255835851" lon="14.124687627533305"><ele>50.666666666666664</ele><time>2026-05-03T11:20:25.002Z</time></trkpt><trkpt lat="42.38057928144014" lon="14.12480985628769"><ele>49.33333333333333</ele><time>2026-05-03T11:20:26.002Z</time></trkpt><trkpt lat="42.38073385409697" lon="14.124927474436674"><ele>48.0</ele><time>2026-05-03T11:20:27.002Z</time></trkpt><trkpt lat="42.380889870762324" lon="14.125037099966306"><ele>48.0</ele><time>2026-05-03T11:20:28.002Z</time></trkpt><trkpt lat="42.3810476283042" lon="14.125151031019364"><ele>48.0</ele><time>2026-05-03T11:20:29.002Z</time></trkpt><trkpt lat="42.38120878745832" lon="14.125269600771091"><ele>48.0</ele><time>2026-05-03T11:20:30.002Z</time></trkpt><trkpt lat="42.381370633668915" lon="14.12538357447146"><ele>46.666666666666664</ele><time>2026-05-03T11:20:31.002Z</time></trkpt><trkpt lat="42.381535348346965" lon="14.125496839946061"><ele>45.33333333333333</ele><time>2026-05-03T11:20:32.002Z</time></trkpt><trkpt lat="42.38169842915385" lon="14.125612424009056"><ele>44.0</ele><time>2026-05-03T11:20:33.002Z</time></trkpt><trkpt lat="42.381854538634094" lon="14.125739792903282"><ele>44.0</ele><time>2026-05-03T11:20:34.002Z</time></trkpt><trkpt lat="42.38200730442733" lon="14.125870224392816"><ele>44.0</ele><time>2026-05-03T11:20:35.002Z</time></trkpt><trkpt lat="42.382154229122776" lon="14.126009661504902"><ele>44.0</ele><time>2026-05-03T11:20:36.002Z</time></trkpt><trkpt lat="42.382292528007106" lon="14.126141407805473"><ele>46.25</ele><time>2026-05-03T11:20:37.002Z</time></trkpt><trkpt lat="42.38242750399233" lon="14.126248480532226"><ele>48.5</ele><time>2026-05-03T11:20:38.002Z</time></trkpt><trkpt lat="42.382557693007975" lon="14.126325781335506"><ele>50.75</ele><time>2026-05-03T11:20:39.002Z</time></trkpt><trkpt lat="42.38269318121961" lon="14.126375764321365"><ele>53.0</ele><time>2026-05-03T11:20:40.002Z</time></trkpt><trkpt lat="42.38283629838515" lon="14.12640874683681"><ele>53.0</ele><time>2026-05-03T11:20:41.002Z</time></trkpt><trkpt lat="42.38298075953035" lon="14.126420886331783"><ele>53.0</ele><time>2026-05-03T11:20:42.002Z</time></trkpt><trkpt lat="42.38311280302827" lon="14.1264227637635"><ele>53.0</ele><time>2026-05-03T11:20:43.002Z</time></trkpt><trkpt lat="42.38322602190826" lon="14.126421898969916"><ele>53.0</ele><time>2026-05-03T11:20:44.002Z</time></trkpt><trkpt lat="42.38333000884512" lon="14.126429406933806"><ele>53.0</ele><time>2026-05-03T11:20:45.002Z</time></trkpt><trkpt lat="42.38343910918694" lon="14.126453897029927"><ele>53.0</ele><time>2026-05-03T11:20:46.002Z</time></trkpt><trkpt lat="42.38355388598798" lon="14.126510539721775"><ele>53.0</ele><time>2026-05-03T11:20:47.002Z</time></trkpt><trkpt lat="42.383674727336114" lon="14.126592359905505"><ele>53.0</ele><time>2026-05-03T11:20:48.002Z</time></trkpt><trkpt lat="42.383807170582635" lon="14.126680443490887"><ele>49.333333333333336</ele><time>2026-05-03T11:20:49.002Z</time></trkpt><trkpt lat="42.383953899239934" lon="14.12676387012126"><ele>45.66666666666667</ele><time>2026-05-03T11:20:50.002Z</time></trkpt><trkpt lat="42.384107562194885" lon="14.126841529156822"><ele>42.0</ele><time>2026-05-03T11:20:51.002Z</time></trkpt><trkpt lat="42.38426351305258" lon="14.126915049309071"><ele>42.0</ele><time>2026-05-03T11:20:52.002Z</time></trkpt><trkpt lat="42.38442021532332" lon="14.126982352355723"><ele>42.0</ele><time>2026-05-03T11:20:53Z</time></trkpt><trkpt lat="42.38456637352659" lon="14.127034599260208"><ele>42.0</ele><time>2026-05-03T11:20:54Z</time></trkpt><trkpt lat="42.384693525131645" lon="14.12707746556574"><ele>42.0</ele><time>2026-05-03T11:20:55Z</time></trkpt><trkpt lat="42.3848144953417" lon="14.127123753027469"><ele>42.75</ele><time>2026-05-03T11:20:56Z</time></trkpt><trkpt lat="42.384936192549496" lon="14.127180901581127"><ele>43.5</ele><time>2026-05-03T11:20:57Z</time></trkpt><trkpt lat="42.385057011344955" lon="14.127264701920895"><ele>44.25</ele><time>2026-05-03T11:20:58Z</time></trkpt><trkpt lat="42.38517717725222" lon="14.127385547351675"><ele>45.0</ele><time>2026-05-03T11:20:59Z</time></trkpt><trkpt lat="42.3853064605711" lon="14.127521345761185"><ele>42.0</ele><time>2026-05-03T11:21:00Z</time></trkpt><trkpt lat="42.38544054986427" lon="14.127663891559116"><ele>39.0</ele><time>2026-05-03T11:21:01Z</time></trkpt><trkpt lat="42.38557646160207" lon="14.127807888232901"><ele>36.0</ele><time>2026-05-03T11:21:02Z</time></trkpt><trkpt lat="42.385714732455135" lon="14.127946514758955"><ele>36.0</ele><time>2026-05-03T11:21:03Z</time></trkpt><trkpt lat="42.38585697428689" lon="14.12807574117442"><ele>36.0</ele><time>2026-05-03T11:21:04Z</time></trkpt><trkpt lat="42.38599967134096" lon="14.12820423065226"><ele>36.0</ele><time>2026-05-03T11:21:05Z</time></trkpt><trkpt lat="42.38613473756371" lon="14.128337381180256"><ele>35.666666666666664</ele><time>2026-05-03T11:21:06Z</time></trkpt><trkpt lat="42.38625648912761" lon="14.128481736577902"><ele>35.33333333333333</ele><time>2026-05-03T11:21:07Z</time></trkpt><trkpt lat="42.386362312035125" lon="14.128647745303521"><ele>35.0</ele><time>2026-05-03T11:21:08Z</time></trkpt><trkpt lat="42.386464988250886" lon="14.128817899648864"><ele>35.5</ele><time>2026-05-03T11:21:09Z</time></trkpt><trkpt lat="42.386565269073806" lon="14.128982188275325"><ele>36.0</ele><time>2026-05-03T11:21:10Z</time></trkpt><trkpt lat="42.3866597994762" lon="14.129139472445633"><ele>36.5</ele><time>2026-05-03T11:21:11Z</time></trkpt><trkpt lat="42.386752844323674" lon="14.129280973897716"><ele>37.0</ele><time>2026-05-03T11:21:12Z</time></trkpt><trkpt lat="42.38684494489635" lon="14.129409243557296"><ele>36.75</ele><time>2026-05-03T11:21:13Z</time></trkpt><trkpt lat="42.38693902505431" lon="14.129520917881134"><ele>36.5</ele><time>2026-05-03T11:21:14Z</time></trkpt><trkpt lat="42.38703567342934" lon="14.129621655319573"><ele>36.25</ele><time>2026-05-03T11:21:15Z</time></trkpt><trkpt lat="42.38713715724204" lon="14.129721689072325"><ele>36.0</ele><time>2026-05-03T11:21:16Z</time></trkpt><trkpt lat="42.38723926909578" lon="14.129825257347754"><ele>35.0</ele><time>2026-05-03T11:21:17Z</time></trkpt><trkpt lat="42.38733613699674" lon="14.129920710403368"><ele>34.0</ele><time>2026-05-03T11:21:18Z</time></trkpt><trkpt lat="42.38743281940169" lon="14.130007761313568"><ele>33.0</ele><time>2026-05-03T11:21:19Z</time></trkpt><trkpt lat="42.387528229842495" lon="14.130093757806268"><ele>32.0</ele><time>2026-05-03T11:21:20Z</time></trkpt><trkpt lat="42.38762077633969" lon="14.130180793930924"><ele>32.0</ele><time>2026-05-03T11:21:21Z</time></trkpt><trkpt lat="42.387708293183685" lon="14.130265952198133"><ele>32.0</ele><time>2026-05-03T11:21:22Z</time></trkpt><trkpt lat="42.387792489040265" lon="14.130348268434837"><ele>32.0</ele><time>2026-05-03T11:21:23Z</time></trkpt><trkpt lat="42.387868670763076" lon="14.130417178449187"><ele>32.0</ele><time>2026-05-03T11:21:24Z</time></trkpt><trkpt lat="42.38794011858147" lon="14.130470139415072"><ele>32.0</ele><time>2026-05-03T11:21:25Z</time></trkpt><trkpt lat="42.38801279004534" lon="14.13051093103312"><ele>32.0</ele><time>2026-05-03T11:21:26Z</time></trkpt><trkpt lat="42.388092092950984" lon="14.130546092928485"><ele>32.0</ele><time>2026-05-03T11:21:27Z</time></trkpt><trkpt lat="42.38817980289917" lon="14.130582971103522"><ele>32.0</ele><time>2026-05-03T11:21:28Z</time></trkpt><trkpt lat="42.38827549003827" lon="14.130630996509346"><ele>32.0</ele><time>2026-05-03T11:21:29Z</time></trkpt><trkpt lat="42.38837411418498" lon="14.130687990254543"><ele>32.0</ele><time>2026-05-03T11:21:30Z</time></trkpt><trkpt lat="42.3884740524335" lon="14.130748179541564"><ele>32.0</ele><time>2026-05-03T11:21:31Z</time></trkpt><trkpt lat="42.38857964677471" lon="14.130812249964096"><ele>32.0</ele><time>2026-05-03T11:21:32Z</time></trkpt><trkpt lat="42.3886855858155" lon="14.130876742567526"><ele>32.0</ele><time>2026-05-03T11:21:33Z</time></trkpt><trkpt lat="42.388785067224426" lon="14.13094084900275"><ele>32.0</ele><time>2026-05-03T11:21:34.001Z</time></trkpt><trkpt lat="42.38888304094809" lon="14.13100304315523"><ele>32.25</ele><time>2026-05-03T11:21:35.001Z</time></trkpt><trkpt lat="42.38898241725774" lon="14.131073320603974"><ele>32.5</ele><time>2026-05-03T11:21:36.001Z</time></trkpt><trkpt lat="42.38908598037145" lon="14.131145499099658"><ele>32.75</ele><time>2026-05-03T11:21:37.001Z</time></trkpt><trkpt lat="42.389191363658234" lon="14.131223815854813"><ele>33.0</ele><time>2026-05-03T11:21:38.001Z</time></trkpt><trkpt lat="42.389300523259536" lon="14.13130993675088"><ele>33.0</ele><time>2026-05-03T11:21:39.001Z</time></trkpt><trkpt lat="42.389415842277565" lon="14.131398390393597"><ele>33.0</ele><time>2026-05-03T11:21:40.001Z</time></trkpt><trkpt lat="42.38953373946685" lon="14.131492102883637"><ele>33.0</ele><time>2026-05-03T11:21:41.001Z</time></trkpt><trkpt lat="42.38965636989139" lon="14.13159439829265"><ele>33.0</ele><time>2026-05-03T11:21:42.001Z</time></trkpt><trkpt lat="42.38978985147687" lon="14.131710820162125"><ele>32.333333333333336</ele><time>2026-05-03T11:21:43.001Z</time></trkpt><trkpt lat="42.38992634286329" lon="14.131831865847115"><ele>31.666666666666668</ele><time>2026-05-03T11:21:44.001Z</time></trkpt><trkpt lat="42.39005981506352" lon="14.131951837464966"><ele>31.0</ele><time>2026-05-03T11:21:45.001Z</time></trkpt><trkpt lat="42.390190931369446" lon="14.132068427690609"><ele>31.0</ele><time>2026-05-03T11:21:46.001Z</time></trkpt><trkpt lat="42.390322020330274" lon="14.132182390745472"><ele>31.0</ele><time>2026-05-03T11:21:47.001Z</time></trkpt><trkpt lat="42.39045207139457" lon="14.132294207101747"><ele>31.0</ele><time>2026-05-03T11:21:48.001Z</time></trkpt><trkpt lat="42.39058118466094" lon="14.132410094343259"><ele>30.666666666666668</ele><time>2026-05-03T11:21:49.001Z</time></trkpt><trkpt lat="42.39070994298544" lon="14.132530872127694"><ele>30.333333333333336</ele><time>2026-05-03T11:21:50.001Z</time></trkpt><trkpt lat="42.390841544820944" lon="14.132649598655203"><ele>30.0</ele><time>2026-05-03T11:21:51.001Z</time></trkpt><trkpt lat="42.390971721351264" lon="14.132766084265734"><ele>30.0</ele><time>2026-05-03T11:21:52.001Z</time></trkpt><trkpt lat="42.39110348272951" lon="14.132884089966797"><ele>30.0</ele><time>2026-05-03T11:21:53.001Z</time></trkpt><trkpt lat="42.39123800085272" lon="14.133004654317222"><ele>30.0</ele><time>2026-05-03T11:21:54.001Z</time></trkpt><trkpt lat="42.39137216955245" lon="14.133126933643734"><ele>30.0</ele><time>2026-05-03T11:21:55.001Z</time></trkpt><trkpt lat="42.39150588488514" lon="14.13324658842811"><ele>30.0</ele><time>2026-05-03T11:21:56.001Z</time></trkpt><trkpt lat="42.39164216584362" lon="14.133367157577569"><ele>30.0</ele><time>2026-05-03T11:21:57.001Z</time></trkpt><trkpt lat="42.39177661634097" lon="14.133485922498844"><ele>30.0</ele><time>2026-05-03T11:21:58.001Z</time></trkpt><trkpt lat="42.3919108211357" lon="14.133606908271133"><ele>30.0</ele><time>2026-05-03T11:21:59.001Z</time></trkpt><trkpt lat="42.392047730347215" lon="14.13373151910046"><ele>30.0</ele><time>2026-05-03T11:22:00.001Z</time></trkpt><trkpt lat="42.39218649935413" lon="14.133854404764046"><ele>29.666666666666664</ele><time>2026-05-03T11:22:01.001Z</time></trkpt><trkpt lat="42.392327514668736" lon="14.133979024151078"><ele>29.333333333333332</ele><time>2026-05-03T11:22:02.001Z</time></trkpt><trkpt lat="42.3924670414045" lon="14.134103643379746"><ele>29.0</ele><time>2026-05-03T11:22:03.001Z</time></trkpt><trkpt lat="42.39260279626898" lon="14.134227125336347"><ele>29.0</ele><time>2026-05-03T11:22:04.001Z</time></trkpt><trkpt lat="42.392736366145826" lon="14.13434806055897"><ele>29.0</ele><time>2026-05-03T11:22:05.001Z</time></trkpt><trkpt lat="42.39286307201552" lon="14.134461600846931"><ele>29.0</ele><time>2026-05-03T11:22:06.001Z</time></trkpt><trkpt lat="42.392976776717866" lon="14.134574524498811"><ele>29.333333333333332</ele><time>2026-05-03T11:22:07.001Z</time></trkpt><trkpt lat="42.39310857243147" lon="14.134706394237416"><ele>29.666666666666664</ele><time>2026-05-03T11:22:08.001Z</time></trkpt><trkpt lat="42.393259472844555" lon="14.134826752850014"><ele>30.0</ele><time>2026-05-03T11:22:09.001Z</time></trkpt><trkpt lat="42.39341087416331" lon="14.134953104652771"><ele>29.0</ele><time>2026-05-03T11:22:10.001Z</time></trkpt><trkpt lat="42.393550396006276" lon="14.135077529182531"><ele>28.0</ele><time>2026-05-03T11:22:11.001Z</time></trkpt><trkpt lat="42.393689367116984" lon="14.135202333039354"><ele>27.0</ele><time>2026-05-03T11:22:12.001Z</time></trkpt><trkpt lat="42.39382713076666" lon="14.135325607305358"><ele>28.0</ele><time>2026-05-03T11:22:13.001Z</time></trkpt><trkpt lat="42.39396429091259" lon="14.13544835983775"><ele>29.0</ele><time>2026-05-03T11:22:14.001Z</time></trkpt><trkpt lat="42.39409955534892" lon="14.135569775414695"><ele>30.0</ele><time>2026-05-03T11:22:15.001Z</time></trkpt><trkpt lat="42.394235954741234" lon="14.135692490816442"><ele>28.666666666666664</ele><time>2026-05-03T11:22:16.001Z</time></trkpt><trkpt lat="42.39437108759102" lon="14.135815528227935"><ele>27.333333333333332</ele><time>2026-05-03T11:22:17.001Z</time></trkpt><trkpt lat="42.394503808047716" lon="14.135937444146636"><ele>26.0</ele><time>2026-05-03T11:22:18.001Z</time></trkpt><trkpt lat="42.394629542135" lon="14.136053179717619"><ele>26.75</ele><time>2026-05-03T11:22:19.002Z</time></trkpt><trkpt lat="42.39474980842329" lon="14.136162885849048"><ele>27.5</ele><time>2026-05-03T11:22:20.002Z</time></trkpt><trkpt lat="42.39487084113076" lon="14.136270095766317"><ele>28.25</ele><time>2026-05-03T11:22:21.002Z</time></trkpt><trkpt lat="42.39499320742761" lon="14.136381017994523"><ele>29.0</ele><time>2026-05-03T11:22:22.002Z</time></trkpt><trkpt lat="42.39511851365352" lon="14.136492526852216"><ele>28.0</ele><time>2026-05-03T11:22:23.002Z</time></trkpt><trkpt lat="42.39524610785618" lon="14.136605061172878"><ele>27.0</ele><time>2026-05-03T11:22:24.002Z</time></trkpt><trkpt lat="42.3953765951679" lon="14.13671932880822"><ele>26.0</ele><time>2026-05-03T11:22:25.002Z</time></trkpt><trkpt lat="42.395508805869255" lon="14.136837596736026"><ele>26.0</ele><time>2026-05-03T11:22:26.002Z</time></trkpt><trkpt lat="42.39563913583815" lon="14.136956777612395"><ele>26.0</ele><time>2026-05-03T11:22:27.002Z</time></trkpt><trkpt lat="42.39576578142938" lon="14.13706900315161"><ele>26.0</ele><time>2026-05-03T11:22:28.002Z</time></trkpt><trkpt lat="42.39589183451325" lon="14.1371788824314"><ele>26.0</ele><time>2026-05-03T11:22:29.002Z</time></trkpt><trkpt lat="42.39601074986947" lon="14.137285975199063"><ele>26.0</ele><time>2026-05-03T11:22:30.002Z</time></trkpt><trkpt lat="42.39611663666799" lon="14.1373825914403"><ele>26.0</ele><time>2026-05-03T11:22:31.002Z</time></trkpt><trkpt lat="42.396210646784326" lon="14.13746834422042"><ele>26.0</ele><time>2026-05-03T11:22:32.002Z</time></trkpt><trkpt lat="42.39630844985179" lon="14.137555634433102"><ele>26.25</ele><time>2026-05-03T11:22:33.002Z</time></trkpt><trkpt lat="42.39641770310626" lon="14.137649138179508"><ele>26.5</ele><time>2026-05-03T11:22:34.002Z</time></trkpt><trkpt lat="42.39653481862191" lon="14.137753104466347"><ele>26.75</ele><time>2026-05-03T11:22:35.002Z</time></trkpt><trkpt lat="42.39665814998091" lon="14.137863343187611"><ele>27.0</ele><time>2026-05-03T11:22:36.002Z</time></trkpt><trkpt lat="42.39678385797501" lon="14.137974181942663"><ele>27.0</ele><time>2026-05-03T11:22:37.002Z</time></trkpt><trkpt lat="42.39691118329807" lon="14.13808460459826"><ele>27.0</ele><time>2026-05-03T11:22:38.002Z</time></trkpt><trkpt lat="42.39703911983215" lon="14.138200559252759"><ele>27.0</ele><time>2026-05-03T11:22:39.002Z</time></trkpt><trkpt lat="42.397171661164336" lon="14.138313135960031"><ele>26.666666666666664</ele><time>2026-05-03T11:22:40.002Z</time></trkpt><trkpt lat="42.39730589423935" lon="14.138431182179886"><ele>26.333333333333332</ele><time>2026-05-03T11:22:41.002Z</time></trkpt><trkpt lat="42.39743759482464" lon="14.138551282218268"><ele>26.0</ele><time>2026-05-03T11:22:42.002Z</time></trkpt><trkpt lat="42.39757547335785" lon="14.138675375258579"><ele>26.0</ele><time>2026-05-03T11:22:43.002Z</time></trkpt><trkpt lat="42.39770979039734" lon="14.138796990171318"><ele>26.0</ele><time>2026-05-03T11:22:44.002Z</time></trkpt><trkpt lat="42.39783977006065" lon="14.138917158551351"><ele>26.0</ele><time>2026-05-03T11:22:45.002Z</time></trkpt><trkpt lat="42.39796962148151" lon="14.139031271953211"><ele>26.0</ele><time>2026-05-03T11:22:46.002Z</time></trkpt><trkpt lat="42.39809730982672" lon="14.139142660725607"><ele>26.0</ele><time>2026-05-03T11:22:47.002Z</time></trkpt><trkpt lat="42.39822213415519" lon="14.139254214128396"><ele>26.0</ele><time>2026-05-03T11:22:48.002Z</time></trkpt><trkpt lat="42.39834646033352" lon="14.139365178412723"><ele>26.0</ele><time>2026-05-03T11:22:49.002Z</time></trkpt><trkpt lat="42.39847182823532" lon="14.139471898602983"><ele>26.0</ele><time>2026-05-03T11:22:50.002Z</time></trkpt><trkpt lat="42.398597057131205" lon="14.139584425907623"><ele>26.0</ele><time>2026-05-03T11:22:51.002Z</time></trkpt><trkpt lat="42.398720057169555" lon="14.13969923184032"><ele>26.0</ele><time>2026-05-03T11:22:52.002Z</time></trkpt><trkpt lat="42.39884402753994" lon="14.139811240965756"><ele>25.75</ele><time>2026-05-03T11:22:53.002Z</time></trkpt><trkpt lat="42.39896961439925" lon="14.13992733132554"><ele>25.5</ele><time>2026-05-03T11:22:54.002Z</time></trkpt><trkpt lat="42.39909116863586" lon="14.14004136641973"><ele>25.25</ele><time>2026-05-03T11:22:55.002Z</time></trkpt><trkpt lat="42.3992152703127" lon="14.140148581257147"><ele>25.0</ele><time>2026-05-03T11:22:56.002Z</time></trkpt><trkpt lat="42.39933737365665" lon="14.140258624287396"><ele>25.0</ele><time>2026-05-03T11:22:57.002Z</time></trkpt><trkpt lat="42.3994600041614" lon="14.14035978998029"><ele>25.0</ele><time>2026-05-03T11:22:58.002Z</time></trkpt><trkpt lat="42.39958595991613" lon="14.140470776009096"><ele>25.0</ele><time>2026-05-03T11:22:59Z</time></trkpt><trkpt lat="42.39969880348719" lon="14.140581491304324"><ele>25.0</ele><time>2026-05-03T11:23:00Z</time></trkpt><trkpt lat="42.39982285777038" lon="14.140693884823127"><ele>25.333333333333336</ele><time>2026-05-03T11:23:01Z</time></trkpt><trkpt lat="42.39994742537619" lon="14.140804114464663"><ele>25.666666666666664</ele><time>2026-05-03T11:23:02Z</time></trkpt><trkpt lat="42.40007504533496" lon="14.14091706178355"><ele>26.0</ele><time>2026-05-03T11:23:03Z</time></trkpt><trkpt lat="42.400202345425335" lon="14.141029792901513"><ele>26.0</ele><time>2026-05-03T11:23:04Z</time></trkpt><trkpt lat="42.40033041081258" lon="14.14114309020914"><ele>26.0</ele><time>2026-05-03T11:23:05Z</time></trkpt><trkpt lat="42.40046784729951" lon="14.141265575460274"><ele>26.0</ele><time>2026-05-03T11:23:06Z</time></trkpt><trkpt lat="42.400611510310156" lon="14.141396868746835"><ele>25.666666666666664</ele><time>2026-05-03T11:23:07Z</time></trkpt><trkpt lat="42.400755406888564" lon="14.14152649174275"><ele>25.333333333333336</ele><time>2026-05-03T11:23:08Z</time></trkpt><trkpt lat="42.40089279587955" lon="14.141650829907766"><ele>25.0</ele><time>2026-05-03T11:23:09Z</time></trkpt><trkpt lat="42.40102844678196" lon="14.141772312171604"><ele>25.0</ele><time>2026-05-03T11:23:10Z</time></trkpt><trkpt lat="42.40116639892481" lon="14.141896630232106"><ele>25.0</ele><time>2026-05-03T11:23:11Z</time></trkpt><trkpt lat="42.40130463102505" lon="14.14201982285647"><ele>25.0</ele><time>2026-05-03T11:23:12Z</time></trkpt><trkpt lat="42.401442758101055" lon="14.14214235798263"><ele>25.0</ele><time>2026-05-03T11:23:13Z</time></trkpt><trkpt lat="42.40157927319425" lon="14.142262768491284"><ele>25.0</ele><time>2026-05-03T11:23:14Z</time></trkpt><trkpt lat="42.401710474093825" lon="14.142379864385278"><ele>25.0</ele><time>2026-05-03T11:23:15Z</time></trkpt><trkpt lat="42.40184548697206" lon="14.142499529472264"><ele>24.666666666666668</ele><time>2026-05-03T11:23:16Z</time></trkpt><trkpt lat="42.40198263094688" lon="14.14262116451445"><ele>24.333333333333336</ele><time>2026-05-03T11:23:17Z</time></trkpt><trkpt lat="42.402125185235164" lon="14.142747323602439"><ele>24.0</ele><time>2026-05-03T11:23:18Z</time></trkpt><trkpt lat="42.402271495193474" lon="14.142874311280151"><ele>24.0</ele><time>2026-05-03T11:23:19Z</time></trkpt><trkpt lat="42.402428268945" lon="14.143007856060201"><ele>24.0</ele><time>2026-05-03T11:23:20Z</time></trkpt><trkpt lat="42.402597558138496" lon="14.143145360132207"><ele>24.0</ele><time>2026-05-03T11:23:21Z</time></trkpt><trkpt lat="42.40276924252558" lon="14.143283598280684"><ele>24.0</ele><time>2026-05-03T11:23:22Z</time></trkpt><trkpt lat="42.40293291002556" lon="14.143418890640174"><ele>24.0</ele><time>2026-05-03T11:23:23Z</time></trkpt><trkpt lat="42.403098325307454" lon="14.143563535477368"><ele>24.0</ele><time>2026-05-03T11:23:24Z</time></trkpt><trkpt lat="42.40327094663762" lon="14.143717500379"><ele>24.0</ele><time>2026-05-03T11:23:25Z</time></trkpt><trkpt lat="42.40345400378839" lon="14.143880382372451"><ele>24.0</ele><time>2026-05-03T11:23:26Z</time></trkpt><trkpt lat="42.40364608002298" lon="14.144051996093106"><ele>24.0</ele><time>2026-05-03T11:23:27Z</time></trkpt><trkpt lat="42.40383340277447" lon="14.144222759919762"><ele>24.333333333333336</ele><time>2026-05-03T11:23:28Z</time></trkpt><trkpt lat="42.404004009940984" lon="14.144384866473592"><ele>24.666666666666668</ele><time>2026-05-03T11:23:29Z</time></trkpt><trkpt lat="42.4041592087606" lon="14.144539574640552"><ele>25.0</ele><time>2026-05-03T11:23:30Z</time></trkpt><trkpt lat="42.40430860142068" lon="14.144683203904872"><ele>25.0</ele><time>2026-05-03T11:23:31Z</time></trkpt><trkpt lat="42.40446311624931" lon="14.144826534172072"><ele>25.0</ele><time>2026-05-03T11:23:32Z</time></trkpt><trkpt lat="42.40461556228638" lon="14.144961552626256"><ele>25.0</ele><time>2026-05-03T11:23:33Z</time></trkpt><trkpt lat="42.40476395462423" lon="14.145093788907323"><ele>24.5</ele><time>2026-05-03T11:23:34Z</time></trkpt><trkpt lat="42.40490092087132" lon="14.14521476701647"><ele>24.0</ele><time>2026-05-03T11:23:35Z</time></trkpt><trkpt lat="42.40502126744662" lon="14.14531986348778"><ele>23.5</ele><time>2026-05-03T11:23:36Z</time></trkpt><trkpt lat="42.40512302706396" lon="14.145412981811663"><ele>23.0</ele><time>2026-05-03T11:23:37Z</time></trkpt><trkpt lat="42.40521623688153" lon="14.145500588955368"><ele>23.0</ele><time>2026-05-03T11:23:38Z</time></trkpt><trkpt lat="42.40530084485645" lon="14.145581879119241"><ele>23.0</ele><time>2026-05-03T11:23:39.001Z</time></trkpt><trkpt lat="42.405375149803945" lon="14.145658923079768"><ele>23.0</ele><time>2026-05-03T11:23:40.001Z</time></trkpt><trkpt lat="42.40543847305116" lon="14.145711076014923"><ele>23.0</ele><time>2026-05-03T11:23:41.001Z</time></trkpt><trkpt lat="42.40546916546808" lon="14.14580408311644"><ele>23.0</ele><time>2026-05-03T11:23:42.001Z</time></trkpt><trkpt lat="42.40546182858854" lon="14.145910035403366"><ele>23.0</ele><time>2026-05-03T11:23:43.001Z</time></trkpt><trkpt lat="42.40544093741559" lon="14.146007249808768"><ele>22.799999999999997</ele><time>2026-05-03T11:23:44.001Z</time></trkpt><trkpt lat="42.40547917988737" lon="14.146081455668646"><ele>22.6</ele><time>2026-05-03T11:23:45.001Z</time></trkpt><trkpt lat="42.40554528664767" lon="14.146123064106778"><ele>22.4</ele><time>2026-05-03T11:23:46.001Z</time></trkpt><trkpt lat="42.405695708103" lon="14.14607237264536"><ele>22.200000000000003</ele><time>2026-05-03T11:23:48.001Z</time></trkpt><trkpt lat="42.40578001662015" lon="14.14603216866902"><ele>22.0</ele><time>2026-05-03T11:23:49.001Z</time></trkpt><trkpt lat="42.405876873225935" lon="14.146065535756264"><ele>22.0</ele><time>2026-05-03T11:23:50.001Z</time></trkpt><trkpt lat="42.40596959483637" lon="14.146174692194633"><ele>22.0</ele><time>2026-05-03T11:23:51.001Z</time></trkpt><trkpt lat="42.406076267859646" lon="14.146284914672997"><ele>22.0</ele><time>2026-05-03T11:23:52.001Z</time></trkpt><trkpt lat="42.40620160057491" lon="14.14640911360298"><ele>22.0</ele><time>2026-05-03T11:23:53.001Z</time></trkpt><trkpt lat="42.40632999865883" lon="14.146523072838418"><ele>22.0</ele><time>2026-05-03T11:23:54.001Z</time></trkpt><trkpt lat="42.40645373972548" lon="14.146628691963636"><ele>22.0</ele><time>2026-05-03T11:23:55.001Z</time></trkpt><trkpt lat="42.40658396795315" lon="14.146731466243118"><ele>22.0</ele><time>2026-05-03T11:23:56.001Z</time></trkpt><trkpt lat="42.40672026192398" lon="14.146831745498966"><ele>22.0</ele><time>2026-05-03T11:23:57.001Z</time></trkpt><trkpt lat="42.40686766725178" lon="14.146917172944464"><ele>22.0</ele><time>2026-05-03T11:23:58.001Z</time></trkpt><trkpt lat="42.4070284046385" lon="14.146974891659609"><ele>22.0</ele><time>2026-05-03T11:23:59.001Z</time></trkpt><trkpt lat="42.40719873322284" lon="14.147035178139978"><ele>20.666666666666664</ele><time>2026-05-03T11:24:00.001Z</time></trkpt><trkpt lat="42.40736688916171" lon="14.14708519374036"><ele>19.333333333333332</ele><time>2026-05-03T11:24:01.001Z</time></trkpt><trkpt lat="42.407527437310804" lon="14.147119218359881"><ele>18.0</ele><time>2026-05-03T11:24:02.001Z</time></trkpt><trkpt lat="42.40768530424511" lon="14.14714841846562"><ele>18.0</ele><time>2026-05-03T11:24:03.001Z</time></trkpt><trkpt lat="42.407840509573724" lon="14.147179232406332"><ele>18.0</ele><time>2026-05-03T11:24:04.001Z</time></trkpt><trkpt lat="42.407996824171434" lon="14.147211561533327"><ele>18.0</ele><time>2026-05-03T11:24:05.001Z</time></trkpt><trkpt lat="42.408157826836145" lon="14.147250806320882"><ele>17.666666666666668</ele><time>2026-05-03T11:24:06.001Z</time></trkpt><trkpt lat="42.40831675591755" lon="14.14730495194298"><ele>17.333333333333336</ele><time>2026-05-03T11:24:07.001Z</time></trkpt><trkpt lat="42.40847595713291" lon="14.14737572211316"><ele>17.0</ele><time>2026-05-03T11:24:08.001Z</time></trkpt><trkpt lat="42.40863516486281" lon="14.147458581495629"><ele>17.0</ele><time>2026-05-03T11:24:09.001Z</time></trkpt><trkpt lat="42.40879067238165" lon="14.14755132486198"><ele>17.0</ele><time>2026-05-03T11:24:10.001Z</time></trkpt><trkpt lat="42.408939886944474" lon="14.147664265055347"><ele>17.0</ele><time>2026-05-03T11:24:11.001Z</time></trkpt><trkpt lat="42.409082367640785" lon="14.147783532637835"><ele>17.0</ele><time>2026-05-03T11:24:12.001Z</time></trkpt><trkpt lat="42.40922186925446" lon="14.14789586369759"><ele>17.0</ele><time>2026-05-03T11:24:13.001Z</time></trkpt><trkpt lat="42.40936986789087" lon="14.148012488780445"><ele>17.0</ele><time>2026-05-03T11:24:14.001Z</time></trkpt><trkpt lat="42.409523480669826" lon="14.148131948979842"><ele>17.666666666666668</ele><time>2026-05-03T11:24:15.001Z</time></trkpt><trkpt lat="42.40967872087706" lon="14.148253975435873"><ele>18.333333333333332</ele><time>2026-05-03T11:24:16.001Z</time></trkpt><trkpt lat="42.40983727782096" lon="14.148380371392335"><ele>19.0</ele><time>2026-05-03T11:24:17.001Z</time></trkpt><trkpt lat="42.40999328320659" lon="14.148502570860591"><ele>19.0</ele><time>2026-05-03T11:24:18.001Z</time></trkpt><trkpt lat="42.41015374900617" lon="14.148627157396996"><ele>19.0</ele><time>2026-05-03T11:24:19.001Z</time></trkpt><trkpt lat="42.41031295621636" lon="14.148752598346567"><ele>19.0</ele><time>2026-05-03T11:24:20.001Z</time></trkpt><trkpt lat="42.41047161570988" lon="14.148881556004746"><ele>19.0</ele><time>2026-05-03T11:24:21.001Z</time></trkpt><trkpt lat="42.41062793731406" lon="14.149007696631129"><ele>19.0</ele><time>2026-05-03T11:24:22.001Z</time></trkpt><trkpt lat="42.41078706872727" lon="14.14913153610884"><ele>19.0</ele><time>2026-05-03T11:24:23.001Z</time></trkpt><trkpt lat="42.41094539102079" lon="14.149253642726023"><ele>19.666666666666664</ele><time>2026-05-03T11:24:24.001Z</time></trkpt><trkpt lat="42.41110144581484" lon="14.149376615104872"><ele>20.333333333333332</ele><time>2026-05-03T11:24:25.002Z</time></trkpt><trkpt lat="42.41125800131899" lon="14.149500507244099"><ele>21.0</ele><time>2026-05-03T11:24:26.002Z</time></trkpt><trkpt lat="42.41141165340515" lon="14.14962349436047"><ele>21.0</ele><time>2026-05-03T11:24:27.002Z</time></trkpt><trkpt lat="42.41156890036764" lon="14.149750712997443"><ele>21.0</ele><time>2026-05-03T11:24:28.002Z</time></trkpt><trkpt lat="42.411727487700716" lon="14.149878128415718"><ele>21.0</ele><time>2026-05-03T11:24:29.002Z</time></trkpt><trkpt lat="42.41188708002358" lon="14.15000870867358"><ele>20.0</ele><time>2026-05-03T11:24:30.002Z</time></trkpt><trkpt lat="42.41205123917223" lon="14.150138654567206"><ele>19.0</ele><time>2026-05-03T11:24:31.002Z</time></trkpt><trkpt lat="42.41222141865325" lon="14.15026866196771"><ele>18.0</ele><time>2026-05-03T11:24:32.002Z</time></trkpt><trkpt lat="42.41238746668747" lon="14.150395863411939"><ele>17.0</ele><time>2026-05-03T11:24:33.002Z</time></trkpt><trkpt lat="42.41254492807169" lon="14.15052307787106"><ele>16.0</ele><time>2026-05-03T11:24:34.002Z</time></trkpt><trkpt lat="42.41269934692808" lon="14.150645244057861"><ele>15.0</ele><time>2026-05-03T11:24:35.002Z</time></trkpt><trkpt lat="42.41285081764777" lon="14.150767662880547"><ele>15.0</ele><time>2026-05-03T11:24:36.002Z</time></trkpt><trkpt lat="42.41299569331892" lon="14.15089867293889"><ele>15.0</ele><time>2026-05-03T11:24:37.002Z</time></trkpt><trkpt lat="42.413131358796754" lon="14.151034024609269"><ele>15.0</ele><time>2026-05-03T11:24:38.002Z</time></trkpt><trkpt lat="42.413267158591665" lon="14.151172844120017"><ele>15.0</ele><time>2026-05-03T11:24:39.002Z</time></trkpt><trkpt lat="42.41340119348917" lon="14.151314290476389"><ele>15.0</ele><time>2026-05-03T11:24:40.002Z</time></trkpt><trkpt lat="42.41353797021648" lon="14.151448775308035"><ele>15.0</ele><time>2026-05-03T11:24:41.002Z</time></trkpt><trkpt lat="42.41368320404767" lon="14.151575234461617"><ele>15.333333333333332</ele><time>2026-05-03T11:24:42.002Z</time></trkpt><trkpt lat="42.41383184353764" lon="14.151688311866076"><ele>15.666666666666666</ele><time>2026-05-03T11:24:43.002Z</time></trkpt><trkpt lat="42.413988962181065" lon="14.15178900899176"><ele>16.0</ele><time>2026-05-03T11:24:44.002Z</time></trkpt><trkpt lat="42.41414955390946" lon="14.151874742479729"><ele>16.0</ele><time>2026-05-03T11:24:45.002Z</time></trkpt><trkpt lat="42.41431320231832" lon="14.151942204960946"><ele>16.0</ele><time>2026-05-03T11:24:46.002Z</time></trkpt><trkpt lat="42.41447912955556" lon="14.151991901010213"><ele>16.0</ele><time>2026-05-03T11:24:47.002Z</time></trkpt><trkpt lat="42.41465133647359" lon="14.152025207192386"><ele>15.666666666666666</ele><time>2026-05-03T11:24:48.002Z</time></trkpt><trkpt lat="42.414828525535206" lon="14.152050138028839"><ele>15.333333333333332</ele><time>2026-05-03T11:24:49.002Z</time></trkpt><trkpt lat="42.415008690844054" lon="14.152065399037838"><ele>15.0</ele><time>2026-05-03T11:24:50.002Z</time></trkpt><trkpt lat="42.41519538629743" lon="14.152076876887818"><ele>15.0</ele><time>2026-05-03T11:24:51.002Z</time></trkpt><trkpt lat="42.415380732843616" lon="14.152090287636021"><ele>15.0</ele><time>2026-05-03T11:24:52.002Z</time></trkpt><trkpt lat="42.41556317793928" lon="14.1521078609986"><ele>15.0</ele><time>2026-05-03T11:24:53.002Z</time></trkpt><trkpt lat="42.41573792141198" lon="14.152133102558842"><ele>15.333333333333332</ele><time>2026-05-03T11:24:54.002Z</time></trkpt><trkpt lat="42.41590850038666" lon="14.152171098448171"><ele>15.666666666666666</ele><time>2026-05-03T11:24:55.002Z</time></trkpt><trkpt lat="42.41606860629125" lon="14.152241565809563"><ele>16.0</ele><time>2026-05-03T11:24:56.002Z</time></trkpt><trkpt lat="42.41621531102766" lon="14.152348727710535"><ele>17.333333333333332</ele><time>2026-05-03T11:24:57.002Z</time></trkpt><trkpt lat="42.41635220094066" lon="14.152484542150805"><ele>18.666666666666668</ele><time>2026-05-03T11:24:58.002Z</time></trkpt><trkpt lat="42.41647864505515" lon="14.152640320933832"><ele>20.0</ele><time>2026-05-03T11:24:59.002Z</time></trkpt><trkpt lat="42.416599296619786" lon="14.152809988061014"><ele>20.0</ele><time>2026-05-03T11:25:00.002Z</time></trkpt><trkpt lat="42.416726966148005" lon="14.152983862229659"><ele>20.0</ele><time>2026-05-03T11:25:01.002Z</time></trkpt><trkpt lat="42.416853476801506" lon="14.153154984976243"><ele>20.0</ele><time>2026-05-03T11:25:02.002Z</time></trkpt><trkpt lat="42.41698581661652" lon="14.153335759214027"><ele>19.666666666666668</ele><time>2026-05-03T11:25:03.002Z</time></trkpt><trkpt lat="42.417120381363645" lon="14.153521196100142"><ele>19.333333333333332</ele><time>2026-05-03T11:25:04.002Z</time></trkpt><trkpt lat="42.41725544921702" lon="14.153701628745488"><ele>19.0</ele><time>2026-05-03T11:25:05Z</time></trkpt><trkpt lat="42.41738952888204" lon="14.153876822283229"><ele>19.0</ele><time>2026-05-03T11:25:06Z</time></trkpt><trkpt lat="42.417518126778425" lon="14.154052544341408"><ele>19.0</ele><time>2026-05-03T11:25:07Z</time></trkpt><trkpt lat="42.41764690673453" lon="14.154229844029283"><ele>19.0</ele><time>2026-05-03T11:25:08Z</time></trkpt><trkpt lat="42.417778129748356" lon="14.154410200032105"><ele>19.0</ele><time>2026-05-03T11:25:09Z</time></trkpt><trkpt lat="42.41790993843001" lon="14.154588259393423"><ele>19.0</ele><time>2026-05-03T11:25:10Z</time></trkpt><trkpt lat="42.41804260142532" lon="14.154764058497115"><ele>19.0</ele><time>2026-05-03T11:25:11Z</time></trkpt><trkpt lat="42.418175023259245" lon="14.154938632717483"><ele>18.333333333333332</ele><time>2026-05-03T11:25:12Z</time></trkpt><trkpt lat="42.418305075523875" lon="14.155115250628079"><ele>17.666666666666668</ele><time>2026-05-03T11:25:13Z</time></trkpt><trkpt lat="42.41843366078182" lon="14.155295190522212"><ele>17.0</ele><time>2026-05-03T11:25:14Z</time></trkpt><trkpt lat="42.41856363101076" lon="14.155475967736884"><ele>17.0</ele><time>2026-05-03T11:25:15Z</time></trkpt><trkpt lat="42.4186948236136" lon="14.155659975624632"><ele>17.0</ele><time>2026-05-03T11:25:16Z</time></trkpt><trkpt lat="42.41882403106224" lon="14.155843894928687"><ele>17.0</ele><time>2026-05-03T11:25:17Z</time></trkpt><trkpt lat="42.41894712057639" lon="14.156013545891115"><ele>19.0</ele><time>2026-05-03T11:25:18Z</time></trkpt><trkpt lat="42.41906559106046" lon="14.156166238119258"><ele>21.0</ele><time>2026-05-03T11:25:19Z</time></trkpt><trkpt lat="42.41918605475026" lon="14.156297301380869"><ele>23.0</ele><time>2026-05-03T11:25:20Z</time></trkpt><trkpt lat="42.41931730844123" lon="14.156396783908903"><ele>23.0</ele><time>2026-05-03T11:25:21Z</time></trkpt><trkpt lat="42.419465979896145" lon="14.156473597479764"><ele>23.0</ele><time>2026-05-03T11:25:22Z</time></trkpt><trkpt lat="42.419630045798606" lon="14.156540122143726"><ele>23.0</ele><time>2026-05-03T11:25:23Z</time></trkpt><trkpt lat="42.41980183034535" lon="14.156611312401136"><ele>22.0</ele><time>2026-05-03T11:25:24Z</time></trkpt><trkpt lat="42.41997739784355" lon="14.156683001406591"><ele>21.0</ele><time>2026-05-03T11:25:25Z</time></trkpt><trkpt lat="42.420151827685835" lon="14.156752891952268"><ele>20.0</ele><time>2026-05-03T11:25:26Z</time></trkpt><trkpt lat="42.420320112426985" lon="14.156819219688916"><ele>20.333333333333336</ele><time>2026-05-03T11:25:27Z</time></trkpt><trkpt lat="42.420484824080674" lon="14.156884068106876"><ele>20.666666666666668</ele><time>2026-05-03T11:25:28Z</time></trkpt><trkpt lat="42.420647929885774" lon="14.156952067208815"><ele>21.0</ele><time>2026-05-03T11:25:29Z</time></trkpt><trkpt lat="42.420813345661294" lon="14.157022743852309"><ele>21.0</ele><time>2026-05-03T11:25:30Z</time></trkpt><trkpt lat="42.420980684515435" lon="14.157094840072583"><ele>21.0</ele><time>2026-05-03T11:25:31Z</time></trkpt><trkpt lat="42.42114728406833" lon="14.157164373248127"><ele>21.0</ele><time>2026-05-03T11:25:32Z</time></trkpt><trkpt lat="42.4213054564165" lon="14.15723109876113"><ele>21.5</ele><time>2026-05-03T11:25:33Z</time></trkpt><trkpt lat="42.421452935865" lon="14.15729270637223"><ele>22.0</ele><time>2026-05-03T11:25:34Z</time></trkpt><trkpt lat="42.42159319110636" lon="14.1573512852033"><ele>22.5</ele><time>2026-05-03T11:25:35Z</time></trkpt><trkpt lat="42.4217265385716" lon="14.157402367653452"><ele>23.0</ele><time>2026-05-03T11:25:36Z</time></trkpt><trkpt lat="42.421849360090576" lon="14.157429441907343"><ele>22.4</ele><time>2026-05-03T11:25:37Z</time></trkpt><trkpt lat="42.421961509093556" lon="14.157432676484166"><ele>21.799999999999997</ele><time>2026-05-03T11:25:38Z</time></trkpt><trkpt lat="42.42206253884545" lon="14.157422315100122"><ele>21.2</ele><time>2026-05-03T11:25:39Z</time></trkpt><trkpt lat="42.42215106645525" lon="14.1574226037421"><ele>20.6</ele><time>2026-05-03T11:25:40Z</time></trkpt><trkpt lat="42.422245560635545" lon="14.157452180587821"><ele>20.0</ele><time>2026-05-03T11:25:41Z</time></trkpt><trkpt lat="42.42235742993068" lon="14.157508992592795"><ele>20.0</ele><time>2026-05-03T11:25:42Z</time></trkpt><trkpt lat="42.422486937163455" lon="14.157581993704435"><ele>20.0</ele><time>2026-05-03T11:25:43Z</time></trkpt><trkpt lat="42.42262244369524" lon="14.157669185234397"><ele>20.0</ele><time>2026-05-03T11:25:44.001Z</time></trkpt><trkpt lat="42.422757035224244" lon="14.157768447672924"><ele>20.0</ele><time>2026-05-03T11:25:45.001Z</time></trkpt><trkpt lat="42.4229031868683" lon="14.15785821462928"><ele>19.333333333333336</ele><time>2026-05-03T11:25:46.001Z</time></trkpt><trkpt lat="42.42306191585905" lon="14.157929089386496"><ele>18.666666666666668</ele><time>2026-05-03T11:25:47.001Z</time></trkpt><trkpt lat="42.423229143912124" lon="14.157994747095897"><ele>18.0</ele><time>2026-05-03T11:25:48.001Z</time></trkpt><trkpt lat="42.42338947869663" lon="14.158061840123343"><ele>18.0</ele><time>2026-05-03T11:25:49.001Z</time></trkpt><trkpt lat="42.42354636265659" lon="14.158125437434562"><ele>18.0</ele><time>2026-05-03T11:25:50.001Z</time></trkpt><trkpt lat="42.4236994938493" lon="14.158187838400007"><ele>18.0</ele><time>2026-05-03T11:25:51.001Z</time></trkpt><trkpt lat="42.423849393520115" lon="14.158248596233676"><ele>17.666666666666668</ele><time>2026-05-03T11:25:52.001Z</time></trkpt><trkpt lat="42.423997044182" lon="14.158311369063131"><ele>17.333333333333336</ele><time>2026-05-03T11:25:53.001Z</time></trkpt><trkpt lat="42.424139256657256" lon="14.158375290732783"><ele>17.0</ele><time>2026-05-03T11:25:54.001Z</time></trkpt><trkpt lat="42.42427771670703" lon="14.158442585928666"><ele>17.0</ele><time>2026-05-03T11:25:55.001Z</time></trkpt><trkpt lat="42.42441466582312" lon="14.158505596401765"><ele>17.0</ele><time>2026-05-03T11:25:56.001Z</time></trkpt><trkpt lat="42.424563814388684" lon="14.158564194513353"><ele>17.0</ele><time>2026-05-03T11:25:57.001Z</time></trkpt><trkpt lat="42.42471222957838" lon="14.158624594830448"><ele>17.25</ele><time>2026-05-03T11:25:58.001Z</time></trkpt><trkpt lat="42.42485833309684" lon="14.158688057128943"><ele>17.5</ele><time>2026-05-03T11:25:59.001Z</time></trkpt><trkpt lat="42.42500097705385" lon="14.158748092626698"><ele>17.75</ele><time>2026-05-03T11:26:00.001Z</time></trkpt><trkpt lat="42.42514045124276" lon="14.15880764549814"><ele>18.0</ele><time>2026-05-03T11:26:01.001Z</time></trkpt><trkpt lat="42.42527400686887" lon="14.158865045630773"><ele>18.0</ele><time>2026-05-03T11:26:02.001Z</time></trkpt><trkpt lat="42.425401558781346" lon="14.158921210480967"><ele>18.0</ele><time>2026-05-03T11:26:03.001Z</time></trkpt><trkpt lat="42.42552399917936" lon="14.158978865638549"><ele>18.0</ele><time>2026-05-03T11:26:04.001Z</time></trkpt><trkpt lat="42.42564664303009" lon="14.15903553268406"><ele>18.0</ele><time>2026-05-03T11:26:05.001Z</time></trkpt><trkpt lat="42.42576703201144" lon="14.159091398389213"><ele>18.333333333333332</ele><time>2026-05-03T11:26:06.001Z</time></trkpt><trkpt lat="42.42588747955075" lon="14.15915139040328"><ele>18.666666666666664</ele><time>2026-05-03T11:26:07.001Z</time></trkpt><trkpt lat="42.42603272898863" lon="14.159225199041048"><ele>19.0</ele><time>2026-05-03T11:26:08.001Z</time></trkpt><trkpt lat="42.426188176008104" lon="14.159322707587389"><ele>19.333333333333332</ele><time>2026-05-03T11:26:09.001Z</time></trkpt><trkpt lat="42.426345114553875" lon="14.159443388561515"><ele>19.666666666666668</ele><time>2026-05-03T11:26:10.001Z</time></trkpt><trkpt lat="42.42649717315362" lon="14.159566479122203"><ele>20.0</ele><time>2026-05-03T11:26:11.001Z</time></trkpt><trkpt lat="42.426650341152204" lon="14.159681368055631"><ele>20.0</ele><time>2026-05-03T11:26:12.001Z</time></trkpt><trkpt lat="42.42680175875762" lon="14.1597962266177"><ele>20.0</ele><time>2026-05-03T11:26:13.001Z</time></trkpt><trkpt lat="42.42695201389385" lon="14.159912889803456"><ele>20.0</ele><time>2026-05-03T11:26:14.001Z</time></trkpt><trkpt lat="42.42710628283024" lon="14.160036042579229"><ele>19.333333333333336</ele><time>2026-05-03T11:26:15.001Z</time></trkpt><trkpt lat="42.42725797076295" lon="14.160163911674669"><ele>18.666666666666668</ele><time>2026-05-03T11:26:16.001Z</time></trkpt><trkpt lat="42.42740804272784" lon="14.160295603287754"><ele>18.0</ele><time>2026-05-03T11:26:17.001Z</time></trkpt><trkpt lat="42.42755643938749" lon="14.16043079663247"><ele>18.0</ele><time>2026-05-03T11:26:18.001Z</time></trkpt><trkpt lat="42.4277078299612" lon="14.160567419716669"><ele>18.0</ele><time>2026-05-03T11:26:19.001Z</time></trkpt><trkpt lat="42.4278527161844" lon="14.160705724495756"><ele>18.0</ele><time>2026-05-03T11:26:20.001Z</time></trkpt><trkpt lat="42.42799688606285" lon="14.160847299313852"><ele>17.666666666666668</ele><time>2026-05-03T11:26:21.001Z</time></trkpt><trkpt lat="42.42813659470532" lon="14.160988818187771"><ele>17.333333333333336</ele><time>2026-05-03T11:26:22.001Z</time></trkpt><trkpt lat="42.42827357572455" lon="14.16112584124978"><ele>17.0</ele><time>2026-05-03T11:26:23.001Z</time></trkpt><trkpt lat="42.42840421648003" lon="14.161254096827426"><ele>17.0</ele><time>2026-05-03T11:26:24.001Z</time></trkpt><trkpt lat="42.42853546146098" lon="14.161386432476446"><ele>17.0</ele><time>2026-05-03T11:26:25.001Z</time></trkpt><trkpt lat="42.4286695726473" lon="14.16152027023784"><ele>17.0</ele><time>2026-05-03T11:26:26.001Z</time></trkpt><trkpt lat="42.428805947954594" lon="14.161654272299668"><ele>20.333333333333336</ele><time>2026-05-03T11:26:27.001Z</time></trkpt><trkpt lat="42.42893682653969" lon="14.161785822020658"><ele>23.666666666666668</ele><time>2026-05-03T11:26:28.001Z</time></trkpt><trkpt lat="42.42906431519344" lon="14.16191336001213"><ele>27.0</ele><time>2026-05-03T11:26:29.001Z</time></trkpt><trkpt lat="42.42918420290491" lon="14.162034770006288"><ele>27.0</ele><time>2026-05-03T11:26:30.002Z</time></trkpt><trkpt lat="42.42929420818887" lon="14.162146682197058"><ele>27.0</ele><time>2026-05-03T11:26:31.002Z</time></trkpt><trkpt lat="42.4293924247444" lon="14.16224928047737"><ele>27.0</ele><time>2026-05-03T11:26:32.002Z</time></trkpt><trkpt lat="42.42948612716422" lon="14.162344174937223"><ele>27.0</ele><time>2026-05-03T11:26:33.002Z</time></trkpt><trkpt lat="42.429578446284005" lon="14.162429558172278"><ele>25.5</ele><time>2026-05-03T11:26:34.002Z</time></trkpt><trkpt lat="42.42967580027107" lon="14.162513931530563"><ele>24.0</ele><time>2026-05-03T11:26:35.002Z</time></trkpt><trkpt lat="42.429776676209926" lon="14.162591033307084"><ele>22.5</ele><time>2026-05-03T11:26:36.002Z</time></trkpt><trkpt lat="42.429881562227756" lon="14.162656245275587"><ele>21.0</ele><time>2026-05-03T11:26:37.002Z</time></trkpt><trkpt lat="42.429991257266664" lon="14.162707514826081"><ele>21.0</ele><time>2026-05-03T11:26:38.002Z</time></trkpt><trkpt lat="42.430099262137524" lon="14.162744783409664"><ele>21.0</ele><time>2026-05-03T11:26:39.002Z</time></trkpt><trkpt lat="42.430199078996345" lon="14.162770818447209"><ele>21.0</ele><time>2026-05-03T11:26:40.002Z</time></trkpt><trkpt lat="42.43028903338047" lon="14.162786730562319"><ele>21.0</ele><time>2026-05-03T11:26:41.002Z</time></trkpt><trkpt lat="42.43037007853361" lon="14.162798087202225"><ele>21.0</ele><time>2026-05-03T11:26:42.002Z</time></trkpt><trkpt lat="42.4304810985064" lon="14.16282208946688"><ele>21.0</ele><time>2026-05-03T11:26:44.002Z</time></trkpt><trkpt lat="42.4304527619988" lon="14.162590771569352"><ele>21.0</ele><time>2026-05-03T11:26:48.002Z</time></trkpt><trkpt lat="42.430375529157" lon="14.162557410379696"><ele>21.0</ele><time>2026-05-03T11:26:49.002Z</time></trkpt><trkpt lat="42.43032569329206" lon="14.162409831296003"><ele>21.0</ele><time>2026-05-03T11:26:51.002Z</time></trkpt><trkpt lat="42.430344389840194" lon="14.162315025382108"><ele>21.0</ele><time>2026-05-03T11:26:52.002Z</time></trkpt><trkpt lat="42.43038900065109" lon="14.162204108011853"><ele>21.4</ele><time>2026-05-03T11:26:53.002Z</time></trkpt><trkpt lat="42.430450343335124" lon="14.162069334403828"><ele>21.8</ele><time>2026-05-03T11:26:54.002Z</time></trkpt><trkpt lat="42.43050339121248" lon="14.161943666126582"><ele>22.2</ele><time>2026-05-03T11:26:55.002Z</time></trkpt><trkpt lat="42.43055399016512" lon="14.161817771907002"><ele>22.599999999999998</ele><time>2026-05-03T11:26:56.002Z</time></trkpt><trkpt lat="42.4306063842545" lon="14.161683900534872"><ele>23.0</ele><time>2026-05-03T11:26:57.002Z</time></trkpt><trkpt lat="42.430657913479074" lon="14.161554029525078"><ele>23.799999999999997</ele><time>2026-05-03T11:26:58.002Z</time></trkpt><trkpt lat="42.43070394325773" lon="14.161433797805577"><ele>24.6</ele><time>2026-05-03T11:26:59.002Z</time></trkpt><trkpt lat="42.430745447910304" lon="14.161337093492149"><ele>25.400000000000002</ele><time>2026-05-03T11:27:00.002Z</time></trkpt><trkpt lat="42.430780569365815" lon="14.161262289609628"><ele>26.200000000000003</ele><time>2026-05-03T11:27:01.002Z</time></trkpt><trkpt lat="42.4308299433261" lon="14.161179529496444"><ele>27.0</ele><time>2026-05-03T11:27:03.002Z</time></trkpt><trkpt lat="42.430932176981024" lon="14.161040958856141"><ele>27.0</ele><time>2026-05-03T11:27:06.002Z</time></trkpt><trkpt lat="42.430953929475244" lon="14.160902466738827"><ele>27.000000000000004</ele><time>2026-05-03T11:27:07.002Z</time></trkpt><trkpt lat="42.431000001937996" lon="14.160767997629362"><ele>27.000000000000004</ele><time>2026-05-03T11:27:08.002Z</time></trkpt><trkpt lat="42.43104602526415" lon="14.160642510374315"><ele>27.0</ele><time>2026-05-03T11:27:09.002Z</time></trkpt><trkpt lat="42.431100207719886" lon="14.160510007289838"><ele>27.0</ele><time>2026-05-03T11:27:10.002Z</time></trkpt><trkpt lat="42.43115613485308" lon="14.160376596273066"><ele>27.0</ele><time>2026-05-03T11:27:11Z</time></trkpt><trkpt lat="42.43121027430404" lon="14.160243276381966"><ele>27.0</ele><time>2026-05-03T11:27:12Z</time></trkpt><trkpt lat="42.43126451550377" lon="14.160109842916746"><ele>27.0</ele><time>2026-05-03T11:27:13Z</time></trkpt><trkpt lat="42.43132079845441" lon="14.159976356115282"><ele>27.0</ele><time>2026-05-03T11:27:14Z</time></trkpt><trkpt lat="42.4313788271528" lon="14.15984288406414"><ele>28.25</ele><time>2026-05-03T11:27:15Z</time></trkpt><trkpt lat="42.431435036678444" lon="14.159702752284483"><ele>29.5</ele><time>2026-05-03T11:27:16Z</time></trkpt><trkpt lat="42.43149290962786" lon="14.159557923089945"><ele>30.75</ele><time>2026-05-03T11:27:17Z</time></trkpt><trkpt lat="42.43155237222039" lon="14.159408768622074"><ele>32.0</ele><time>2026-05-03T11:27:18Z</time></trkpt><trkpt lat="42.43163104884058" lon="14.159264852688217"><ele>32.0</ele><time>2026-05-03T11:27:19Z</time></trkpt><trkpt lat="42.43169757883182" lon="14.15910643033457"><ele>32.0</ele><time>2026-05-03T11:27:20Z</time></trkpt><trkpt lat="42.431764410902126" lon="14.158941844271054"><ele>32.0</ele><time>2026-05-03T11:27:21Z</time></trkpt><trkpt lat="42.43183051764765" lon="14.158776017327702"><ele>32.0</ele><time>2026-05-03T11:27:22Z</time></trkpt><trkpt lat="42.43189542283797" lon="14.15861209115056"><ele>32.25</ele><time>2026-05-03T11:27:23Z</time></trkpt><trkpt lat="42.43196262098138" lon="14.158453709329887"><ele>32.5</ele><time>2026-05-03T11:27:24Z</time></trkpt><trkpt lat="42.432027878879495" lon="14.158295971170507"><ele>32.75</ele><time>2026-05-03T11:27:25Z</time></trkpt><trkpt lat="42.43209189967509" lon="14.158141320083372"><ele>33.0</ele><time>2026-05-03T11:27:26Z</time></trkpt><trkpt lat="42.43215547954956" lon="14.157989002453684"><ele>35.0</ele><time>2026-05-03T11:27:27Z</time></trkpt><trkpt lat="42.432217857373175" lon="14.157839673295712"><ele>37.0</ele><time>2026-05-03T11:27:28Z</time></trkpt><trkpt lat="42.43226589264889" lon="14.157685466707655"><ele>39.0</ele><time>2026-05-03T11:27:29Z</time></trkpt><trkpt lat="42.432336153664735" lon="14.157544839163716"><ele>41.0</ele><time>2026-05-03T11:27:30Z</time></trkpt><trkpt lat="42.43241567639862" lon="14.157414586855223"><ele>42.0</ele><time>2026-05-03T11:27:31Z</time></trkpt><trkpt lat="42.43250742460194" lon="14.157297365657062"><ele>43.0</ele><time>2026-05-03T11:27:32Z</time></trkpt><trkpt lat="42.432605298548424" lon="14.15718585063959"><ele>44.0</ele><time>2026-05-03T11:27:33Z</time></trkpt><trkpt lat="42.432711245319716" lon="14.157079188114276"><ele>45.0</ele><time>2026-05-03T11:27:34Z</time></trkpt><trkpt lat="42.4328235250339" lon="14.156975122190708"><ele>45.0</ele><time>2026-05-03T11:27:35Z</time></trkpt><trkpt lat="42.432943171758495" lon="14.15686982495837"><ele>45.0</ele><time>2026-05-03T11:27:36Z</time></trkpt><trkpt lat="42.433071758595766" lon="14.156759232454482"><ele>45.0</ele><time>2026-05-03T11:27:37Z</time></trkpt><trkpt lat="42.43319670990238" lon="14.156655026166272"><ele>45.0</ele><time>2026-05-03T11:27:38Z</time></trkpt><trkpt lat="42.43332690169047" lon="14.156549686355234"><ele>47.33333333333333</ele><time>2026-05-03T11:27:39Z</time></trkpt><trkpt lat="42.43346448488762" lon="14.15644239295019"><ele>49.666666666666664</ele><time>2026-05-03T11:27:40Z</time></trkpt><trkpt lat="42.4336101546387" lon="14.15633178725137"><ele>52.0</ele><time>2026-05-03T11:27:41Z</time></trkpt><trkpt lat="42.43376095981921" lon="14.156217742659928"><ele>52.666666666666664</ele><time>2026-05-03T11:27:42Z</time></trkpt><trkpt lat="42.433914035949904" lon="14.156102257902363"><ele>53.33333333333333</ele><time>2026-05-03T11:27:43Z</time></trkpt><trkpt lat="42.43406649062566" lon="14.155987185411085"><ele>54.0</ele><time>2026-05-03T11:27:44Z</time></trkpt><trkpt lat="42.434217651379626" lon="14.15587401597575"><ele>54.0</ele><time>2026-05-03T11:27:45.001Z</time></trkpt><trkpt lat="42.43436833624837" lon="14.155761386459723"><ele>54.0</ele><time>2026-05-03T11:27:46.001Z</time></trkpt><trkpt lat="42.4345171682186" lon="14.15564991359897"><ele>54.0</ele><time>2026-05-03T11:27:47.001Z</time></trkpt><trkpt lat="42.43466629594236" lon="14.155540070899571"><ele>55.66666666666667</ele><time>2026-05-03T11:27:48.001Z</time></trkpt><trkpt lat="42.434814673915696" lon="14.155427680651337"><ele>57.333333333333336</ele><time>2026-05-03T11:27:49.001Z</time></trkpt><trkpt lat="42.4349616535386" lon="14.155314183755989"><ele>59.0</ele><time>2026-05-03T11:27:50.001Z</time></trkpt><trkpt lat="42.43511302068909" lon="14.155201387888708"><ele>59.0</ele><time>2026-05-03T11:27:51.001Z</time></trkpt><trkpt lat="42.43526404568547" lon="14.15509024443831"><ele>59.0</ele><time>2026-05-03T11:27:52.001Z</time></trkpt><trkpt lat="42.435414402300445" lon="14.1549787470132"><ele>59.0</ele><time>2026-05-03T11:27:53.001Z</time></trkpt><trkpt lat="42.4355629334891" lon="14.154867319953723"><ele>60.333333333333336</ele><time>2026-05-03T11:27:54.001Z</time></trkpt><trkpt lat="42.43571385718998" lon="14.15475587985175"><ele>61.66666666666667</ele><time>2026-05-03T11:27:55.001Z</time></trkpt><trkpt lat="42.43586667064848" lon="14.154639282157296"><ele>63.0</ele><time>2026-05-03T11:27:56.001Z</time></trkpt><trkpt lat="42.43602040816055" lon="14.154516582161262"><ele>63.0</ele><time>2026-05-03T11:27:57.001Z</time></trkpt><trkpt lat="42.43617862701083" lon="14.1543852544332"><ele>63.0</ele><time>2026-05-03T11:27:58.001Z</time></trkpt><trkpt lat="42.43633051307733" lon="14.154251784759376"><ele>63.0</ele><time>2026-05-03T11:27:59.001Z</time></trkpt><trkpt lat="42.4364851365807" lon="14.154143807707172"><ele>65.33333333333333</ele><time>2026-05-03T11:28:00.001Z</time></trkpt><trkpt lat="42.43662115327402" lon="14.154000552413022"><ele>67.66666666666666</ele><time>2026-05-03T11:28:01.001Z</time></trkpt><trkpt lat="42.43676563105464" lon="14.153880331447278"><ele>70.0</ele><time>2026-05-03T11:28:02.001Z</time></trkpt><trkpt lat="42.4369091343964" lon="14.153754982031778"><ele>70.0</ele><time>2026-05-03T11:28:03.001Z</time></trkpt><trkpt lat="42.43705152892708" lon="14.153630122543394"><ele>70.0</ele><time>2026-05-03T11:28:04.001Z</time></trkpt><trkpt lat="42.43719071132162" lon="14.153512646202946"><ele>70.0</ele><time>2026-05-03T11:28:05.001Z</time></trkpt><trkpt lat="42.43732999385969" lon="14.153413419842048"><ele>69.66666666666666</ele><time>2026-05-03T11:28:06.001Z</time></trkpt><trkpt lat="42.43747261355165" lon="14.153333794786102"><ele>69.33333333333333</ele><time>2026-05-03T11:28:07.001Z</time></trkpt><trkpt lat="42.43762239013677" lon="14.153282131633434"><ele>69.0</ele><time>2026-05-03T11:28:08.001Z</time></trkpt><trkpt lat="42.437777677904066" lon="14.153242888718905"><ele>68.33333333333333</ele><time>2026-05-03T11:28:09.001Z</time></trkpt><trkpt lat="42.4379236913804" lon="14.153200861076508"><ele>67.66666666666666</ele><time>2026-05-03T11:28:10.001Z</time></trkpt><trkpt lat="42.43807794509505" lon="14.15315429830497"><ele>67.0</ele><time>2026-05-03T11:28:11.001Z</time></trkpt><trkpt lat="42.438225457928446" lon="14.15309182603278"><ele>65.66666666666666</ele><time>2026-05-03T11:28:12.001Z</time></trkpt><trkpt lat="42.4383679545158" lon="14.152996365713225"><ele>64.33333333333333</ele><time>2026-05-03T11:28:13.001Z</time></trkpt><trkpt lat="42.438505332143706" lon="14.152871980332293"><ele>63.0</ele><time>2026-05-03T11:28:14.001Z</time></trkpt><trkpt lat="42.43863823291363" lon="14.152735972334014"><ele>63.0</ele><time>2026-05-03T11:28:15.001Z</time></trkpt><trkpt lat="42.43877988666757" lon="14.15259871614305"><ele>63.0</ele><time>2026-05-03T11:28:16.001Z</time></trkpt><trkpt lat="42.43889725726892" lon="14.152412387036236"><ele>63.0</ele><time>2026-05-03T11:28:17.001Z</time></trkpt><trkpt lat="42.439023799991254" lon="14.152232663243671"><ele>66.33333333333333</ele><time>2026-05-03T11:28:18.001Z</time></trkpt><trkpt lat="42.439145476356366" lon="14.152050289801725"><ele>69.66666666666666</ele><time>2026-05-03T11:28:19.001Z</time></trkpt><trkpt lat="42.43926041353341" lon="14.151886820635527"><ele>73.0</ele><time>2026-05-03T11:28:20.001Z</time></trkpt><trkpt lat="42.43938056852782" lon="14.151751201267782"><ele>73.0</ele><time>2026-05-03T11:28:21.001Z</time></trkpt><trkpt lat="42.43951267965892" lon="14.15164470514902"><ele>73.0</ele><time>2026-05-03T11:28:22.001Z</time></trkpt><trkpt lat="42.43965411371943" lon="14.151554882159445"><ele>73.0</ele><time>2026-05-03T11:28:23.001Z</time></trkpt><trkpt lat="42.43980297634223" lon="14.151481403043613"><ele>74.0</ele><time>2026-05-03T11:28:24.001Z</time></trkpt><trkpt lat="42.43996083038614" lon="14.151409594204763"><ele>75.0</ele><time>2026-05-03T11:28:25.001Z</time></trkpt><trkpt lat="42.4401191484485" lon="14.151328514205073"><ele>76.0</ele><time>2026-05-03T11:28:26.001Z</time></trkpt><trkpt lat="42.440275035222975" lon="14.15122828039166"><ele>76.0</ele><time>2026-05-03T11:28:27.001Z</time></trkpt><trkpt lat="42.44042527947171" lon="14.15111113931099"><ele>76.0</ele><time>2026-05-03T11:28:28.001Z</time></trkpt><trkpt lat="42.44057211938893" lon="14.150999811146526"><ele>76.0</ele><time>2026-05-03T11:28:29.001Z</time></trkpt><trkpt lat="42.44072118944807" lon="14.150912432098387"><ele>79.0</ele><time>2026-05-03T11:28:30.001Z</time></trkpt><trkpt lat="42.44086504963924" lon="14.150853874269014"><ele>82.0</ele><time>2026-05-03T11:28:31.001Z</time></trkpt><trkpt lat="42.44100135146787" lon="14.150825695788589"><ele>85.0</ele><time>2026-05-03T11:28:32.001Z</time></trkpt><trkpt lat="42.4411310955295" lon="14.150824227470945"><ele>88.0</ele><time>2026-05-03T11:28:33.001Z</time></trkpt><trkpt lat="42.441266854958926" lon="14.150853070061203"><ele>88.75</ele><time>2026-05-03T11:28:34.002Z</time></trkpt><trkpt lat="42.44140370081127" lon="14.150912679115365"><ele>89.5</ele><time>2026-05-03T11:28:35.002Z</time></trkpt><trkpt lat="42.44154322784128" lon="14.150968090703309"><ele>90.25</ele><time>2026-05-03T11:28:36.002Z</time></trkpt><trkpt lat="42.441684159110466" lon="14.150994558167458"><ele>91.0</ele><time>2026-05-03T11:28:37.002Z</time></trkpt><trkpt lat="42.441822026812396" lon="14.150996995577364"><ele>91.0</ele><time>2026-05-03T11:28:38.002Z</time></trkpt><trkpt lat="42.44194388858778" lon="14.150969643142183"><ele>91.0</ele><time>2026-05-03T11:28:39.002Z</time></trkpt><trkpt lat="42.44205292982724" lon="14.150919711915734"><ele>91.0</ele><time>2026-05-03T11:28:40.002Z</time></trkpt><trkpt lat="42.44214988350973" lon="14.150856771408032"><ele>91.0</ele><time>2026-05-03T11:28:41.002Z</time></trkpt><trkpt lat="42.442243064537365" lon="14.150798844805758"><ele>91.0</ele><time>2026-05-03T11:28:42.002Z</time></trkpt><trkpt lat="42.44231485972626" lon="14.150692356925497"><ele>91.75</ele><time>2026-05-03T11:28:43.002Z</time></trkpt><trkpt lat="42.44237283471625" lon="14.150552652964276"><ele>92.5</ele><time>2026-05-03T11:28:44.002Z</time></trkpt><trkpt lat="42.44241302176499" lon="14.150383502204198"><ele>93.25</ele><time>2026-05-03T11:28:45.002Z</time></trkpt><trkpt lat="42.44244866433646" lon="14.150194941513151"><ele>94.0</ele><time>2026-05-03T11:28:46.002Z</time></trkpt><trkpt lat="42.44249119734624" lon="14.149989196744116"><ele>95.33333333333333</ele><time>2026-05-03T11:28:47.002Z</time></trkpt><trkpt lat="42.442538373935115" lon="14.149779780677772"><ele>96.66666666666666</ele><time>2026-05-03T11:28:48.002Z</time></trkpt><trkpt lat="42.442569612301035" lon="14.14958131223604"><ele>98.0</ele><time>2026-05-03T11:28:49.002Z</time></trkpt><trkpt lat="42.44263797191446" lon="14.14940119403"><ele>98.0</ele><time>2026-05-03T11:28:50.002Z</time></trkpt><trkpt lat="42.44269847128948" lon="14.149220628834739"><ele>98.0</ele><time>2026-05-03T11:28:51.002Z</time></trkpt><trkpt lat="42.442763519660645" lon="14.149042148989695"><ele>98.0</ele><time>2026-05-03T11:28:52.002Z</time></trkpt><trkpt lat="42.442832852596474" lon="14.148874764941459"><ele>98.0</ele><time>2026-05-03T11:28:53.002Z</time></trkpt><trkpt lat="42.44291331084475" lon="14.148721199587344"><ele>99.5</ele><time>2026-05-03T11:28:54.002Z</time></trkpt><trkpt lat="42.442991367302646" lon="14.148564920017835"><ele>101.0</ele><time>2026-05-03T11:28:55.002Z</time></trkpt><trkpt lat="42.44308725076866" lon="14.148429703403488"><ele>102.5</ele><time>2026-05-03T11:28:56.002Z</time></trkpt><trkpt lat="42.44318088273507" lon="14.148288443066727"><ele>104.0</ele><time>2026-05-03T11:28:57.002Z</time></trkpt><trkpt lat="42.44327827558591" lon="14.148146098590885"><ele>107.75</ele><time>2026-05-03T11:28:58.002Z</time></trkpt><trkpt lat="42.44337835319796" lon="14.148006930316736"><ele>111.5</ele><time>2026-05-03T11:28:59.002Z</time></trkpt><trkpt lat="42.44347990059071" lon="14.147874441159681"><ele>115.25</ele><time>2026-05-03T11:29:00.002Z</time></trkpt><trkpt lat="42.44358274567733" lon="14.147747751867364"><ele>119.0</ele><time>2026-05-03T11:29:01.002Z</time></trkpt><trkpt lat="42.44369321975" lon="14.147637118651495"><ele>117.75</ele><time>2026-05-03T11:29:02.002Z</time></trkpt><trkpt lat="42.443819222288745" lon="14.147554200809052"><ele>116.5</ele><time>2026-05-03T11:29:03.002Z</time></trkpt><trkpt lat="42.44395702797351" lon="14.147496501647826"><ele>115.25</ele><time>2026-05-03T11:29:04.002Z</time></trkpt><trkpt lat="42.44410625369474" lon="14.147460386489957"><ele>114.0</ele><time>2026-05-03T11:29:05.002Z</time></trkpt><trkpt lat="42.444240388067975" lon="14.147429705767916"><ele>116.0</ele><time>2026-05-03T11:29:06.002Z</time></trkpt><trkpt lat="42.44435304058441" lon="14.147373746718202"><ele>118.0</ele><time>2026-05-03T11:29:07.002Z</time></trkpt><trkpt lat="42.44444148562963" lon="14.147288259246867"><ele>120.0</ele><time>2026-05-03T11:29:08.002Z</time></trkpt><trkpt lat="42.44450056174454" lon="14.147172177290113"><ele>122.0</ele><time>2026-05-03T11:29:09.002Z</time></trkpt><trkpt lat="42.44454301940362" lon="14.147047759108725"><ele>124.0</ele><time>2026-05-03T11:29:10.002Z</time></trkpt><trkpt lat="42.44458708215447" lon="14.14693414036054"><ele>124.5</ele><time>2026-05-03T11:29:11.002Z</time></trkpt><trkpt lat="42.44465259258839" lon="14.14682316904931"><ele>125.0</ele><time>2026-05-03T11:29:12.002Z</time></trkpt><trkpt lat="42.444732566225085" lon="14.146706853405078"><ele>125.5</ele><time>2026-05-03T11:29:13.002Z</time></trkpt><trkpt lat="42.44481811774826" lon="14.14657623608896"><ele>126.0</ele><time>2026-05-03T11:29:14.002Z</time></trkpt><trkpt lat="42.444908174292884" lon="14.14641891405538"><ele>126.0</ele><time>2026-05-03T11:29:15.002Z</time></trkpt><trkpt lat="42.44500373929267" lon="14.14625104799774"><ele>126.0</ele><time>2026-05-03T11:29:16.002Z</time></trkpt><trkpt lat="42.445101696751024" lon="14.146078604263053"><ele>126.0</ele><time>2026-05-03T11:29:17Z</time></trkpt><trkpt lat="42.44519115285062" lon="14.14591460012051"><ele>126.0</ele><time>2026-05-03T11:29:18Z</time></trkpt><trkpt lat="42.4452779637259" lon="14.145756292133653"><ele>126.0</ele><time>2026-05-03T11:29:19Z</time></trkpt><trkpt lat="42.44535592664228" lon="14.14561722426533"><ele>126.0</ele><time>2026-05-03T11:29:20Z</time></trkpt><trkpt lat="42.44544452110188" lon="14.145504372460682"><ele>126.0</ele><time>2026-05-03T11:29:21Z</time></trkpt><trkpt lat="42.445524736711825" lon="14.145371620354286"><ele>124.5</ele><time>2026-05-03T11:29:22Z</time></trkpt><trkpt lat="42.445627169154136" lon="14.145260951246433"><ele>123.0</ele><time>2026-05-03T11:29:23Z</time></trkpt><trkpt lat="42.44573346307045" lon="14.145157521260163"><ele>121.5</ele><time>2026-05-03T11:29:24Z</time></trkpt><trkpt lat="42.44584727684173" lon="14.145064597633297"><ele>120.0</ele><time>2026-05-03T11:29:25Z</time></trkpt><trkpt lat="42.44596541702794" lon="14.144975896601197"><ele>120.0</ele><time>2026-05-03T11:29:26Z</time></trkpt><trkpt lat="42.44608927993109" lon="14.144889908389104"><ele>120.0</ele><time>2026-05-03T11:29:27Z</time></trkpt><trkpt lat="42.44621799757416" lon="14.144812572909444"><ele>120.0</ele><time>2026-05-03T11:29:28Z</time></trkpt><trkpt lat="42.446353125115394" lon="14.144750138662925"><ele>120.0</ele><time>2026-05-03T11:29:29Z</time></trkpt><trkpt lat="42.44649402678211" lon="14.144704197270666"><ele>120.25</ele><time>2026-05-03T11:29:30Z</time></trkpt><trkpt lat="42.44663839474763" lon="14.144670019680152"><ele>120.5</ele><time>2026-05-03T11:29:31Z</time></trkpt><trkpt lat="42.44678254135647" lon="14.144633984938983"><ele>120.75</ele><time>2026-05-03T11:29:32Z</time></trkpt><trkpt lat="42.44692180578491" lon="14.144593102228272"><ele>121.0</ele><time>2026-05-03T11:29:33Z</time></trkpt><trkpt lat="42.44704494787256" lon="14.144552995239698"><ele>122.0</ele><time>2026-05-03T11:29:34Z</time></trkpt><trkpt lat="42.44715948344217" lon="14.14452296586935"><ele>123.0</ele><time>2026-05-03T11:29:35Z</time></trkpt><trkpt lat="42.447261701870836" lon="14.144514864155074"><ele>124.0</ele><time>2026-05-03T11:29:36Z</time></trkpt><trkpt lat="42.447357547061934" lon="14.144534532492601"><ele>125.0</ele><time>2026-05-03T11:29:37Z</time></trkpt><trkpt lat="42.44744709230005" lon="14.144597336299098"><ele>126.0</ele><time>2026-05-03T11:29:38Z</time></trkpt><trkpt lat="42.44751281765183" lon="14.144704622151988"><ele>126.0</ele><time>2026-05-03T11:29:39Z</time></trkpt><trkpt lat="42.4475480235732" lon="14.14484274385071"><ele>126.0</ele><time>2026-05-03T11:29:40Z</time></trkpt><trkpt lat="42.44755853066897" lon="14.145004657349585"><ele>126.0</ele><time>2026-05-03T11:29:41Z</time></trkpt><trkpt lat="42.44755723001958" lon="14.145187394026141"><ele>126.0</ele><time>2026-05-03T11:29:42Z</time></trkpt><trkpt lat="42.44756317252047" lon="14.145367140707398"><ele>126.25</ele><time>2026-05-03T11:29:43Z</time></trkpt><trkpt lat="42.44757632673256" lon="14.145534545738492"><ele>126.5</ele><time>2026-05-03T11:29:44Z</time></trkpt><trkpt lat="42.44759711477035" lon="14.145678648974098"><ele>126.75</ele><time>2026-05-03T11:29:45Z</time></trkpt><trkpt lat="42.44763933833215" lon="14.145813341136865"><ele>127.0</ele><time>2026-05-03T11:29:46Z</time></trkpt><trkpt lat="42.44770836398457" lon="14.145935687636934"><ele>127.5</ele><time>2026-05-03T11:29:47Z</time></trkpt><trkpt lat="42.44779723789785" lon="14.146045578932805"><ele>128.0</ele><time>2026-05-03T11:29:48Z</time></trkpt><trkpt lat="42.44789839592838" lon="14.146149354904932"><ele>128.5</ele><time>2026-05-03T11:29:49Z</time></trkpt><trkpt lat="42.44801174845298" lon="14.146239836860625"><ele>129.0</ele><time>2026-05-03T11:29:50Z</time></trkpt><trkpt lat="42.44814022073373" lon="14.146315321481111"><ele>132.25</ele><time>2026-05-03T11:29:51Z</time></trkpt><trkpt lat="42.44827561805651" lon="14.14637508223541"><ele>135.5</ele><time>2026-05-03T11:29:52Z</time></trkpt><trkpt lat="42.44841044824445" lon="14.146422380298437"><ele>138.75</ele><time>2026-05-03T11:29:53Z</time></trkpt><trkpt lat="42.448545414104665" lon="14.146450845559144"><ele>142.0</ele><time>2026-05-03T11:29:54Z</time></trkpt><trkpt lat="42.44867877546954" lon="14.14645058177065"><ele>142.5</ele><time>2026-05-03T11:29:55.001Z</time></trkpt><trkpt lat="42.44881121625043" lon="14.14642262155544"><ele>143.0</ele><time>2026-05-03T11:29:56.001Z</time></trkpt><trkpt lat="42.44893123484793" lon="14.146363190786236"><ele>143.5</ele><time>2026-05-03T11:29:57.001Z</time></trkpt><trkpt lat="42.44904059462062" lon="14.146273134975136"><ele>144.0</ele><time>2026-05-03T11:29:58.001Z</time></trkpt><trkpt lat="42.44913652611859" lon="14.146152868582634"><ele>144.0</ele><time>2026-05-03T11:29:59.001Z</time></trkpt><trkpt lat="42.449221690314786" lon="14.146009849762521"><ele>144.0</ele><time>2026-05-03T11:30:00.001Z</time></trkpt><trkpt lat="42.44930730432068" lon="14.145848954084702"><ele>144.0</ele><time>2026-05-03T11:30:01.001Z</time></trkpt><trkpt lat="42.449413786790046" lon="14.145695118792448"><ele>144.0</ele><time>2026-05-03T11:30:02.001Z</time></trkpt><trkpt lat="42.44950623604561" lon="14.145525347300751"><ele>141.33333333333334</ele><time>2026-05-03T11:30:03.001Z</time></trkpt><trkpt lat="42.44959639648436" lon="14.145359782206441"><ele>138.66666666666669</ele><time>2026-05-03T11:30:04.001Z</time></trkpt><trkpt lat="42.449665212124295" lon="14.145165728248497"><ele>136.0</ele><time>2026-05-03T11:30:05.001Z</time></trkpt><trkpt lat="42.44973359236766" lon="14.144976613682351"><ele>138.0</ele><time>2026-05-03T11:30:06.001Z</time></trkpt><trkpt lat="42.44979578994903" lon="14.14478507433558"><ele>140.0</ele><time>2026-05-03T11:30:07.001Z</time></trkpt><trkpt lat="42.44984945027894" lon="14.144598294256381"><ele>142.0</ele><time>2026-05-03T11:30:08.001Z</time></trkpt><trkpt lat="42.449894390759205" lon="14.144406880962046"><ele>142.0</ele><time>2026-05-03T11:30:09.001Z</time></trkpt><trkpt lat="42.44992194609671" lon="14.144207782738265"><ele>142.0</ele><time>2026-05-03T11:30:10.001Z</time></trkpt><trkpt lat="42.4499313235428" lon="14.144006588503958"><ele>142.0</ele><time>2026-05-03T11:30:11.001Z</time></trkpt><trkpt lat="42.44994329841332" lon="14.14380700827764"><ele>142.0</ele><time>2026-05-03T11:30:12.001Z</time></trkpt><trkpt lat="42.44992910706968" lon="14.143607217994905"><ele>141.0</ele><time>2026-05-03T11:30:13.001Z</time></trkpt><trkpt lat="42.44991390628862" lon="14.143414688162048"><ele>140.0</ele><time>2026-05-03T11:30:14.001Z</time></trkpt><trkpt lat="42.4498993638793" lon="14.1432320723862"><ele>139.0</ele><time>2026-05-03T11:30:15.001Z</time></trkpt><trkpt lat="42.44987275808294" lon="14.143059219300577"><ele>138.0</ele><time>2026-05-03T11:30:16.001Z</time></trkpt><trkpt lat="42.44984034612839" lon="14.142907549064462"><ele>137.8</ele><time>2026-05-03T11:30:17.001Z</time></trkpt><trkpt lat="42.449801778995756" lon="14.142774462205317"><ele>137.60000000000002</ele><time>2026-05-03T11:30:18.001Z</time></trkpt><trkpt lat="42.44976229223034" lon="14.142657935870764"><ele>137.39999999999998</ele><time>2026-05-03T11:30:19.001Z</time></trkpt><trkpt lat="42.44971894333811" lon="14.142537496235084"><ele>137.2</ele><time>2026-05-03T11:30:20.001Z</time></trkpt><trkpt lat="42.44965408095894" lon="14.14241733633104"><ele>137.0</ele><time>2026-05-03T11:30:21.001Z</time></trkpt><trkpt lat="42.44960276851822" lon="14.14228158153202"><ele>137.6</ele><time>2026-05-03T11:30:22.001Z</time></trkpt><trkpt lat="42.4495725786759" lon="14.14214221614923"><ele>138.2</ele><time>2026-05-03T11:30:23.001Z</time></trkpt><trkpt lat="42.449547180856854" lon="14.142018419353722"><ele>138.8</ele><time>2026-05-03T11:30:24.001Z</time></trkpt><trkpt lat="42.449536572631246" lon="14.141904215221548"><ele>139.4</ele><time>2026-05-03T11:30:25.001Z</time></trkpt><trkpt lat="42.44958565812003" lon="14.14178816404011"><ele>140.0</ele><time>2026-05-03T11:30:26.001Z</time></trkpt><trkpt lat="42.4496741452081" lon="14.141683057189606"><ele>140.0</ele><time>2026-05-03T11:30:27.001Z</time></trkpt><trkpt lat="42.449790259118394" lon="14.141583888150455"><ele>140.0</ele><time>2026-05-03T11:30:28.001Z</time></trkpt><trkpt lat="42.44992759585896" lon="14.141499618228979"><ele>140.0</ele><time>2026-05-03T11:30:29.001Z</time></trkpt><trkpt lat="42.45006878635394" lon="14.14143449563953"><ele>140.0</ele><time>2026-05-03T11:30:30.001Z</time></trkpt><trkpt lat="42.45020871563072" lon="14.141374920623415"><ele>141.25</ele><time>2026-05-03T11:30:31.001Z</time></trkpt><trkpt lat="42.45034923548339" lon="14.141313852665887"><ele>142.5</ele><time>2026-05-03T11:30:32.001Z</time></trkpt><trkpt lat="42.45048361638038" lon="14.14125938041396"><ele>143.75</ele><time>2026-05-03T11:30:33.001Z</time></trkpt><trkpt lat="42.45061372056349" lon="14.141213171469406"><ele>145.0</ele><time>2026-05-03T11:30:34.001Z</time></trkpt><trkpt lat="42.450745674114266" lon="14.14116103609208"><ele>146.25</ele><time>2026-05-03T11:30:35.001Z</time></trkpt><trkpt lat="42.450877078499545" lon="14.141112142157475"><ele>147.5</ele><time>2026-05-03T11:30:36.001Z</time></trkpt><trkpt lat="42.45100404574134" lon="14.14107291725684"><ele>148.75</ele><time>2026-05-03T11:30:37.001Z</time></trkpt><trkpt lat="42.451129057800095" lon="14.141029456188996"><ele>150.0</ele><time>2026-05-03T11:30:38.001Z</time></trkpt><trkpt lat="42.451251799351844" lon="14.140989036991565"><ele>150.4</ele><time>2026-05-03T11:30:39.001Z</time></trkpt><trkpt lat="42.45137150155569" lon="14.140955050842898"><ele>150.8</ele><time>2026-05-03T11:30:40.001Z</time></trkpt><trkpt lat="42.451481664235956" lon="14.140922002466887"><ele>151.2</ele><time>2026-05-03T11:30:41.001Z</time></trkpt><trkpt lat="42.45158612801492" lon="14.140899432798665"><ele>151.6</ele><time>2026-05-03T11:30:42.001Z</time></trkpt><trkpt lat="42.45168959832973" lon="14.140901966026806"><ele>152.0</ele><time>2026-05-03T11:30:43.001Z</time></trkpt><trkpt lat="42.45179433357225" lon="14.140866817741644"><ele>152.0</ele><time>2026-05-03T11:30:44.002Z</time></trkpt><trkpt lat="42.4519012577514" lon="14.140845516198914"><ele>152.0</ele><time>2026-05-03T11:30:45.002Z</time></trkpt><trkpt lat="42.45200684850012" lon="14.140823601024673"><ele>152.0</ele><time>2026-05-03T11:30:46.002Z</time></trkpt><trkpt lat="42.45211712270776" lon="14.140801182469383"><ele>152.0</ele><time>2026-05-03T11:30:47.002Z</time></trkpt><trkpt lat="42.45222722402355" lon="14.14078114150692"><ele>152.0</ele><time>2026-05-03T11:30:48.002Z</time></trkpt><trkpt lat="42.452338908454216" lon="14.14076176968131"><ele>152.0</ele><time>2026-05-03T11:30:49.002Z</time></trkpt><trkpt lat="42.4524504744683" lon="14.140742073123652"><ele>152.0</ele><time>2026-05-03T11:30:50.002Z</time></trkpt><trkpt lat="42.45255756090923" lon="14.140719006102035"><ele>152.0</ele><time>2026-05-03T11:30:51.002Z</time></trkpt><trkpt lat="42.45266385518382" lon="14.14069328392214"><ele>152.0</ele><time>2026-05-03T11:30:52.002Z</time></trkpt><trkpt lat="42.452766977347125" lon="14.140666443904468"><ele>152.0</ele><time>2026-05-03T11:30:53.002Z</time></trkpt><trkpt lat="42.4528626004975" lon="14.140643669124483"><ele>152.0</ele><time>2026-05-03T11:30:54.002Z</time></trkpt><trkpt lat="42.452935664325096" lon="14.140622170046687"><ele>152.0</ele><time>2026-05-03T11:30:55.002Z</time></trkpt><trkpt lat="42.45300045289885" lon="14.140611595539948"><ele>152.0</ele><time>2026-05-03T11:30:57.002Z</time></trkpt><trkpt lat="42.45311798337833" lon="14.140584169466418"><ele>152.0</ele><time>2026-05-03T11:31:01.002Z</time></trkpt><trkpt lat="42.453183735782346" lon="14.140533114068074"><ele>152.0</ele><time>2026-05-03T11:31:02.002Z</time></trkpt><trkpt lat="42.4532590761366" lon="14.140472878529904"><ele>152.0</ele><time>2026-05-03T11:31:03.002Z</time></trkpt><trkpt lat="42.453344496239495" lon="14.140417614135089"><ele>155.39999999999998</ele><time>2026-05-03T11:31:04.002Z</time></trkpt><trkpt lat="42.45343102343846" lon="14.140365391698433"><ele>158.79999999999998</ele><time>2026-05-03T11:31:05.002Z</time></trkpt><trkpt lat="42.45352185341906" lon="14.140311565508576"><ele>162.2</ele><time>2026-05-03T11:31:06.002Z</time></trkpt><trkpt lat="42.453617831467675" lon="14.140257334916335"><ele>165.6</ele><time>2026-05-03T11:31:07.002Z</time></trkpt><trkpt lat="42.453717003959696" lon="14.140196589256036"><ele>169.0</ele><time>2026-05-03T11:31:08.002Z</time></trkpt><trkpt lat="42.453804269162" lon="14.140123165110149"><ele>169.6</ele><time>2026-05-03T11:31:09.002Z</time></trkpt><trkpt lat="42.45389261447101" lon="14.140044137597751"><ele>170.2</ele><time>2026-05-03T11:31:10.002Z</time></trkpt><trkpt lat="42.45394765638021" lon="14.139915562589463"><ele>170.79999999999998</ele><time>2026-05-03T11:31:11.002Z</time></trkpt><trkpt lat="42.4540102848743" lon="14.139792427901948"><ele>171.39999999999998</ele><time>2026-05-03T11:31:12.002Z</time></trkpt><trkpt lat="42.4540748428691" lon="14.139659839020037"><ele>172.0</ele><time>2026-05-03T11:31:13.002Z</time></trkpt><trkpt lat="42.454143090364205" lon="14.139520935895087"><ele>172.5</ele><time>2026-05-03T11:31:14.002Z</time></trkpt><trkpt lat="42.45421147915034" lon="14.13938059842874"><ele>173.0</ele><time>2026-05-03T11:31:15.002Z</time></trkpt><trkpt lat="42.45428032925281" lon="14.139245511064557"><ele>173.5</ele><time>2026-05-03T11:31:16.002Z</time></trkpt><trkpt lat="42.45434798437536" lon="14.139114881167847"><ele>174.0</ele><time>2026-05-03T11:31:17.002Z</time></trkpt><trkpt lat="42.45441843875522" lon="14.138989744622256"><ele>173.79999999999998</ele><time>2026-05-03T11:31:18.002Z</time></trkpt><trkpt lat="42.454487423381934" lon="14.138869113760787"><ele>173.6</ele><time>2026-05-03T11:31:19.002Z</time></trkpt><trkpt lat="42.454555271523944" lon="14.138753897051336"><ele>173.4</ele><time>2026-05-03T11:31:20.002Z</time></trkpt><trkpt lat="42.454621428278884" lon="14.138639082154592"><ele>173.2</ele><time>2026-05-03T11:31:21.002Z</time></trkpt><trkpt lat="42.4546900343171" lon="14.138525617045737"><ele>173.0</ele><time>2026-05-03T11:31:22.002Z</time></trkpt><trkpt lat="42.45475938868426" lon="14.138414147850582"><ele>173.0</ele><time>2026-05-03T11:31:23Z</time></trkpt><trkpt lat="42.454834007688795" lon="14.138292890277894"><ele>173.0</ele><time>2026-05-03T11:31:24Z</time></trkpt><trkpt lat="42.45490842009817" lon="14.13816749459545"><ele>173.0</ele><time>2026-05-03T11:31:25Z</time></trkpt><trkpt lat="42.45497285202018" lon="14.13803223916893"><ele>173.0</ele><time>2026-05-03T11:31:26Z</time></trkpt><trkpt lat="42.45502058100936" lon="14.137884856895973"><ele>173.0</ele><time>2026-05-03T11:31:27Z</time></trkpt><trkpt lat="42.45504459528617" lon="14.137728644816052"><ele>173.0</ele><time>2026-05-03T11:31:28Z</time></trkpt><trkpt lat="42.455041812584426" lon="14.137566291499617"><ele>173.0</ele><time>2026-05-03T11:31:29Z</time></trkpt><trkpt lat="42.45505267037903" lon="14.137408548173724"><ele>173.0</ele><time>2026-05-03T11:31:30Z</time></trkpt><trkpt lat="42.45504867219514" lon="14.13725395776811"><ele>173.0</ele><time>2026-05-03T11:31:31Z</time></trkpt><trkpt lat="42.45504451455747" lon="14.137103023005935"><ele>173.0</ele><time>2026-05-03T11:31:32Z</time></trkpt><trkpt lat="42.455040860165425" lon="14.136959287283624"><ele>173.0</ele><time>2026-05-03T11:31:33Z</time></trkpt><trkpt lat="42.45503958175327" lon="14.136821181275959"><ele>173.0</ele><time>2026-05-03T11:31:34Z</time></trkpt><trkpt lat="42.45504018652115" lon="14.136689825370217"><ele>173.0</ele><time>2026-05-03T11:31:35Z</time></trkpt><trkpt lat="42.45504398765581" lon="14.136573889478962"><ele>174.66666666666666</ele><time>2026-05-03T11:31:36Z</time></trkpt><trkpt lat="42.45505289892596" lon="14.13647629604093"><ele>176.33333333333331</ele><time>2026-05-03T11:31:37Z</time></trkpt><trkpt lat="42.45510477142276" lon="14.136419654956946"><ele>178.0</ele><time>2026-05-03T11:31:38Z</time></trkpt><trkpt lat="42.455176534553495" lon="14.136391486206115"><ele>179.66666666666666</ele><time>2026-05-03T11:31:39Z</time></trkpt><trkpt lat="42.45525866583674" lon="14.136372966520858"><ele>181.33333333333334</ele><time>2026-05-03T11:31:40Z</time></trkpt><trkpt lat="42.45534667774488" lon="14.136342055210278"><ele>183.0</ele><time>2026-05-03T11:31:41Z</time></trkpt><trkpt lat="42.45544025304555" lon="14.136295552436371"><ele>182.4</ele><time>2026-05-03T11:31:42Z</time></trkpt><trkpt lat="42.45553167153121" lon="14.136237046412543"><ele>181.8</ele><time>2026-05-03T11:31:43Z</time></trkpt><trkpt lat="42.4556211565207" lon="14.136182201211476"><ele>181.2</ele><time>2026-05-03T11:31:44Z</time></trkpt><trkpt lat="42.455708983668224" lon="14.136130308998467"><ele>180.6</ele><time>2026-05-03T11:31:45Z</time></trkpt><trkpt lat="42.4558003592263" lon="14.136068027813467"><ele>180.0</ele><time>2026-05-03T11:31:46Z</time></trkpt><trkpt lat="42.45589055462865" lon="14.135987268830368"><ele>180.0</ele><time>2026-05-03T11:31:47Z</time></trkpt><trkpt lat="42.45597219685078" lon="14.135889571250841"><ele>180.0</ele><time>2026-05-03T11:31:48Z</time></trkpt><trkpt lat="42.4560545981624" lon="14.135786588910758"><ele>180.0</ele><time>2026-05-03T11:31:49Z</time></trkpt><trkpt lat="42.45611982525208" lon="14.135662753191001"><ele>180.0</ele><time>2026-05-03T11:31:50Z</time></trkpt><trkpt lat="42.45617603702178" lon="14.135530728957367"><ele>180.0</ele><time>2026-05-03T11:31:51.001Z</time></trkpt><trkpt lat="42.456230278459365" lon="14.135376794922651"><ele>177.0</ele><time>2026-05-03T11:31:52.001Z</time></trkpt><trkpt lat="42.45628235109656" lon="14.13520908624299"><ele>174.0</ele><time>2026-05-03T11:31:53.001Z</time></trkpt><trkpt lat="42.45633754922048" lon="14.135029174299309"><ele>171.0</ele><time>2026-05-03T11:31:54.001Z</time></trkpt><trkpt lat="42.45639641408302" lon="14.134837311608235"><ele>168.0</ele><time>2026-05-03T11:31:55.001Z</time></trkpt><trkpt lat="42.45645716948898" lon="14.134641590083794"><ele>168.0</ele><time>2026-05-03T11:31:56.001Z</time></trkpt><trkpt lat="42.45651665907423" lon="14.13445183052469"><ele>168.0</ele><time>2026-05-03T11:31:57.001Z</time></trkpt><trkpt lat="42.45657583170311" lon="14.134263465541624"><ele>168.0</ele><time>2026-05-03T11:31:58.001Z</time></trkpt><trkpt lat="42.45663248422057" lon="14.13407227754089"><ele>168.0</ele><time>2026-05-03T11:31:59.001Z</time></trkpt><trkpt lat="42.456684470034865" lon="14.13387411950932"><ele>168.0</ele><time>2026-05-03T11:32:00.001Z</time></trkpt><trkpt lat="42.45672936284444" lon="14.133673139909982"><ele>168.0</ele><time>2026-05-03T11:32:01.001Z</time></trkpt><trkpt lat="42.45676733096861" lon="14.133465924960493"><ele>168.0</ele><time>2026-05-03T11:32:02.001Z</time></trkpt><trkpt lat="42.4567962429087" lon="14.133267677309634"><ele>168.0</ele><time>2026-05-03T11:32:03.001Z</time></trkpt><trkpt lat="42.456820741319596" lon="14.13307337126063"><ele>168.0</ele><time>2026-05-03T11:32:04.001Z</time></trkpt><trkpt lat="42.45684220552293" lon="14.13287650874205"><ele>168.0</ele><time>2026-05-03T11:32:05.001Z</time></trkpt><trkpt lat="42.45686939740343" lon="14.13268181912481"><ele>167.33333333333334</ele><time>2026-05-03T11:32:06.001Z</time></trkpt><trkpt lat="42.45691456137206" lon="14.132491062260337"><ele>166.66666666666669</ele><time>2026-05-03T11:32:07.001Z</time></trkpt><trkpt lat="42.456978617455775" lon="14.132303465647752"><ele>166.0</ele><time>2026-05-03T11:32:08.001Z</time></trkpt><trkpt lat="42.457058778042224" lon="14.13210574592001"><ele>164.0</ele><time>2026-05-03T11:32:09.001Z</time></trkpt><trkpt lat="42.457144046111345" lon="14.131898857772873"><ele>162.0</ele><time>2026-05-03T11:32:10.001Z</time></trkpt><trkpt lat="42.457218995667326" lon="14.13167264687631"><ele>160.0</ele><time>2026-05-03T11:32:11.001Z</time></trkpt><trkpt lat="42.45732052041992" lon="14.131480708475582"><ele>160.0</ele><time>2026-05-03T11:32:12.001Z</time></trkpt><trkpt lat="42.45740509189703" lon="14.131286451718244"><ele>160.0</ele><time>2026-05-03T11:32:13.001Z</time></trkpt><trkpt lat="42.4574861561771" lon="14.131100251533775"><ele>160.0</ele><time>2026-05-03T11:32:14.001Z</time></trkpt><trkpt lat="42.457571444570895" lon="14.130914939826816"><ele>160.0</ele><time>2026-05-03T11:32:15.001Z</time></trkpt><trkpt lat="42.45767048281726" lon="14.130732188267611"><ele>160.0</ele><time>2026-05-03T11:32:16.001Z</time></trkpt><trkpt lat="42.45777711293261" lon="14.130554342623643"><ele>160.0</ele><time>2026-05-03T11:32:17.001Z</time></trkpt><trkpt lat="42.45791202046652" lon="14.13041544153502"><ele>159.33333333333334</ele><time>2026-05-03T11:32:18.001Z</time></trkpt><trkpt lat="42.458049894856686" lon="14.130284568136501"><ele>158.66666666666666</ele><time>2026-05-03T11:32:19.001Z</time></trkpt><trkpt lat="42.45818131158986" lon="14.13014072593174"><ele>158.0</ele><time>2026-05-03T11:32:20.001Z</time></trkpt><trkpt lat="42.45830289723003" lon="14.129984656711697"><ele>158.66666666666666</ele><time>2026-05-03T11:32:21.001Z</time></trkpt><trkpt lat="42.45840911725784" lon="14.129820078660256"><ele>159.33333333333334</ele><time>2026-05-03T11:32:22.001Z</time></trkpt><trkpt lat="42.45849915890402" lon="14.12964738702957"><ele>160.0</ele><time>2026-05-03T11:32:23.001Z</time></trkpt><trkpt lat="42.4585712541011" lon="14.129473047961067"><ele>160.0</ele><time>2026-05-03T11:32:24.001Z</time></trkpt><trkpt lat="42.45864761649491" lon="14.129314862229263"><ele>160.0</ele><time>2026-05-03T11:32:25.001Z</time></trkpt><trkpt lat="42.458690343739605" lon="14.12913219312683"><ele>160.0</ele><time>2026-05-03T11:32:26.001Z</time></trkpt><trkpt lat="42.45871969827324" lon="14.128946947806453"><ele>160.0</ele><time>2026-05-03T11:32:27.001Z</time></trkpt><trkpt lat="42.45872691476911" lon="14.128752712123662"><ele>161.0</ele><time>2026-05-03T11:32:28.001Z</time></trkpt><trkpt lat="42.45871159304952" lon="14.128553459602161"><ele>162.0</ele><time>2026-05-03T11:32:29.001Z</time></trkpt><trkpt lat="42.45867082380355" lon="14.128347976197347"><ele>163.0</ele><time>2026-05-03T11:32:30.001Z</time></trkpt><trkpt lat="42.458609280900745" lon="14.128148083343362"><ele>163.0</ele><time>2026-05-03T11:32:31.001Z</time></trkpt><trkpt lat="42.458535625420126" lon="14.12794611166481"><ele>163.0</ele><time>2026-05-03T11:32:32.001Z</time></trkpt><trkpt lat="42.45846312353424" lon="14.127753182976546"><ele>163.0</ele><time>2026-05-03T11:32:33.001Z</time></trkpt><trkpt lat="42.458394603828005" lon="14.127574231262324"><ele>163.0</ele><time>2026-05-03T11:32:34.001Z</time></trkpt><trkpt lat="42.45832376538357" lon="14.127412534361309"><ele>163.0</ele><time>2026-05-03T11:32:35.001Z</time></trkpt><trkpt lat="42.45823733315709" lon="14.12726772891026"><ele>163.0</ele><time>2026-05-03T11:32:36.001Z</time></trkpt><trkpt lat="42.45812075084382" lon="14.127147808182173"><ele>163.0</ele><time>2026-05-03T11:32:37.001Z</time></trkpt><trkpt lat="42.4580067514332" lon="14.12703880692393"><ele>164.0</ele><time>2026-05-03T11:32:38.001Z</time></trkpt><trkpt lat="42.457909706655556" lon="14.126909706643834"><ele>165.0</ele><time>2026-05-03T11:32:39.001Z</time></trkpt><trkpt lat="42.457825517324856" lon="14.126757552587874"><ele>166.0</ele><time>2026-05-03T11:32:40.001Z</time></trkpt><trkpt lat="42.45774136968085" lon="14.12658990917833"><ele>167.0</ele><time>2026-05-03T11:32:41.001Z</time></trkpt><trkpt lat="42.45764713702513" lon="14.126407414705561"><ele>167.0</ele><time>2026-05-03T11:32:42.001Z</time></trkpt><trkpt lat="42.45755020832629" lon="14.126223108269372"><ele>167.0</ele><time>2026-05-03T11:32:43.001Z</time></trkpt><trkpt lat="42.45746334337628" lon="14.12603693906118"><ele>167.0</ele><time>2026-05-03T11:32:44.001Z</time></trkpt><trkpt lat="42.45739565414697" lon="14.125866553188146"><ele>168.75</ele><time>2026-05-03T11:32:45.001Z</time></trkpt><trkpt lat="42.457345146494006" lon="14.125719886131009"><ele>170.5</ele><time>2026-05-03T11:32:46.002Z</time></trkpt><trkpt lat="42.4573014582525" lon="14.125573204751467"><ele>172.25</ele><time>2026-05-03T11:32:47.002Z</time></trkpt><trkpt lat="42.457253469678484" lon="14.125424165982785"><ele>174.0</ele><time>2026-05-03T11:32:48.002Z</time></trkpt><trkpt lat="42.45722822645684" lon="14.125268532368985"><ele>174.0</ele><time>2026-05-03T11:32:49.002Z</time></trkpt><trkpt lat="42.45721562720154" lon="14.12510610422065"><ele>174.0</ele><time>2026-05-03T11:32:50.002Z</time></trkpt><trkpt lat="42.45721568631928" lon="14.124936042669484"><ele>174.0</ele><time>2026-05-03T11:32:51.002Z</time></trkpt><trkpt lat="42.457227942060676" lon="14.124753026256665"><ele>174.0</ele><time>2026-05-03T11:32:52.002Z</time></trkpt><trkpt lat="42.45724708207197" lon="14.124558712558345"><ele>173.0</ele><time>2026-05-03T11:32:53.002Z</time></trkpt><trkpt lat="42.4572762002873" lon="14.1243599810299"><ele>172.0</ele><time>2026-05-03T11:32:54.002Z</time></trkpt><trkpt lat="42.45732189190126" lon="14.124155321933381"><ele>171.0</ele><time>2026-05-03T11:32:55.002Z</time></trkpt><trkpt lat="42.45737932936969" lon="14.123944036309728"><ele>168.66666666666666</ele><time>2026-05-03T11:32:56.002Z</time></trkpt><trkpt lat="42.45744025044003" lon="14.123737873553832"><ele>166.33333333333331</ele><time>2026-05-03T11:32:57.002Z</time></trkpt><trkpt lat="42.45750625232373" lon="14.123526043811419"><ele>164.0</ele><time>2026-05-03T11:32:58.002Z</time></trkpt><trkpt lat="42.457574070061064" lon="14.123302388532137"><ele>163.33333333333331</ele><time>2026-05-03T11:32:59.002Z</time></trkpt><trkpt lat="42.457634922395364" lon="14.123088030587052"><ele>162.66666666666666</ele><time>2026-05-03T11:33:00.002Z</time></trkpt><trkpt lat="42.45769186276926" lon="14.122891371645533"><ele>162.0</ele><time>2026-05-03T11:33:01.002Z</time></trkpt><trkpt lat="42.45774425321406" lon="14.12271163708803"><ele>162.0</ele><time>2026-05-03T11:33:02.002Z</time></trkpt><trkpt lat="42.45779395336538" lon="14.122548051351098"><ele>162.0</ele><time>2026-05-03T11:33:03.002Z</time></trkpt><trkpt lat="42.45785102470761" lon="14.122389025319078"><ele>162.0</ele><time>2026-05-03T11:33:04.002Z</time></trkpt><trkpt lat="42.45792022358993" lon="14.122229719870662"><ele>162.0</ele><time>2026-05-03T11:33:05.002Z</time></trkpt><trkpt lat="42.4580022157442" lon="14.122077179528354"><ele>161.33333333333334</ele><time>2026-05-03T11:33:06.002Z</time></trkpt><trkpt lat="42.458100607002144" lon="14.121931608897174"><ele>160.66666666666669</ele><time>2026-05-03T11:33:07.002Z</time></trkpt><trkpt lat="42.458210082928254" lon="14.121792066817044"><ele>160.0</ele><time>2026-05-03T11:33:08.002Z</time></trkpt><trkpt lat="42.45832923381337" lon="14.121660120651283"><ele>160.33333333333334</ele><time>2026-05-03T11:33:09.002Z</time></trkpt><trkpt lat="42.458453737363115" lon="14.121531879580282"><ele>160.66666666666666</ele><time>2026-05-03T11:33:10.002Z</time></trkpt><trkpt lat="42.458577227866655" lon="14.121399916962558"><ele>161.0</ele><time>2026-05-03T11:33:11.002Z</time></trkpt><trkpt lat="42.45870267882227" lon="14.121261668375007"><ele>160.66666666666666</ele><time>2026-05-03T11:33:12.002Z</time></trkpt><trkpt lat="42.45883043510296" lon="14.12112467376536"><ele>160.33333333333334</ele><time>2026-05-03T11:33:13.002Z</time></trkpt><trkpt lat="42.45896023113279" lon="14.12098559288694"><ele>160.0</ele><time>2026-05-03T11:33:14.002Z</time></trkpt><trkpt lat="42.459088347024675" lon="14.120848394146355"><ele>159.75</ele><time>2026-05-03T11:33:15.002Z</time></trkpt><trkpt lat="42.4592098261869" lon="14.120716193104382"><ele>159.5</ele><time>2026-05-03T11:33:16.002Z</time></trkpt><trkpt lat="42.45932742830185" lon="14.12059303483124"><ele>159.25</ele><time>2026-05-03T11:33:17.002Z</time></trkpt><trkpt lat="42.459439868969056" lon="14.120478790175007"><ele>159.0</ele><time>2026-05-03T11:33:18.002Z</time></trkpt><trkpt lat="42.45954394694711" lon="14.120375257095885"><ele>159.2</ele><time>2026-05-03T11:33:19.002Z</time></trkpt><trkpt lat="42.45963270368437" lon="14.120286318714484"><ele>159.4</ele><time>2026-05-03T11:33:20.002Z</time></trkpt><trkpt lat="42.45971388250339" lon="14.120208387187853"><ele>159.6</ele><time>2026-05-03T11:33:21.002Z</time></trkpt><trkpt lat="42.459792338406565" lon="14.120144062186661"><ele>159.8</ele><time>2026-05-03T11:33:22.002Z</time></trkpt><trkpt lat="42.45987263274821" lon="14.120099176945097"><ele>160.0</ele><time>2026-05-03T11:33:23.002Z</time></trkpt><trkpt lat="42.45995797050125" lon="14.120072423946283"><ele>160.0</ele><time>2026-05-03T11:33:24.002Z</time></trkpt><trkpt lat="42.46005107836174" lon="14.120045098524724"><ele>160.0</ele><time>2026-05-03T11:33:25.002Z</time></trkpt><trkpt lat="42.460147219460694" lon="14.120020668373092"><ele>160.0</ele><time>2026-05-03T11:33:26.002Z</time></trkpt><trkpt lat="42.46024806385852" lon="14.120015863493352"><ele>160.0</ele><time>2026-05-03T11:33:27.002Z</time></trkpt><trkpt lat="42.46035337026616" lon="14.120039411022923"><ele>160.0</ele><time>2026-05-03T11:33:28Z</time></trkpt><trkpt lat="42.46047244916987" lon="14.12009199626686"><ele>160.5</ele><time>2026-05-03T11:33:29Z</time></trkpt><trkpt lat="42.460604903286274" lon="14.120157687270224"><ele>161.0</ele><time>2026-05-03T11:33:30Z</time></trkpt><trkpt lat="42.460752681400756" lon="14.120210957486023"><ele>161.5</ele><time>2026-05-03T11:33:31Z</time></trkpt><trkpt lat="42.4608982833908" lon="14.120252154406424"><ele>162.0</ele><time>2026-05-03T11:33:32Z</time></trkpt><trkpt lat="42.46103864173299" lon="14.120292248389738"><ele>162.0</ele><time>2026-05-03T11:33:33Z</time></trkpt><trkpt lat="42.461173396677594" lon="14.120335201194356"><ele>162.0</ele><time>2026-05-03T11:33:34Z</time></trkpt><trkpt lat="42.46131114492942" lon="14.1203874050597"><ele>162.0</ele><time>2026-05-03T11:33:35Z</time></trkpt><trkpt lat="42.46144533072833" lon="14.120468270090475"><ele>162.0</ele><time>2026-05-03T11:33:36Z</time></trkpt><trkpt lat="42.46157756465397" lon="14.120575840563818"><ele>164.33333333333334</ele><time>2026-05-03T11:33:37Z</time></trkpt><trkpt lat="42.461713741446694" lon="14.120690720784793"><ele>166.66666666666669</ele><time>2026-05-03T11:33:38Z</time></trkpt><trkpt lat="42.46185322699714" lon="14.120794625891072"><ele>169.0</ele><time>2026-05-03T11:33:39Z</time></trkpt><trkpt lat="42.46198947375971" lon="14.120894341088238"><ele>168.25</ele><time>2026-05-03T11:33:40Z</time></trkpt><trkpt lat="42.46211337483059" lon="14.120984538670442"><ele>167.5</ele><time>2026-05-03T11:33:41Z</time></trkpt><trkpt lat="42.46223714992061" lon="14.12107845120009"><ele>166.75</ele><time>2026-05-03T11:33:42Z</time></trkpt><trkpt lat="42.46236031392018" lon="14.121170959408978"><ele>166.0</ele><time>2026-05-03T11:33:43Z</time></trkpt><trkpt lat="42.462483427323384" lon="14.121259551332459"><ele>166.0</ele><time>2026-05-03T11:33:44Z</time></trkpt><trkpt lat="42.462607973247295" lon="14.12134896418654"><ele>166.0</ele><time>2026-05-03T11:33:45Z</time></trkpt><trkpt lat="42.462735857437856" lon="14.121443127997125"><ele>166.0</ele><time>2026-05-03T11:33:46Z</time></trkpt><trkpt lat="42.4628617354454" lon="14.121537367883446"><ele>166.0</ele><time>2026-05-03T11:33:47Z</time></trkpt><trkpt lat="42.46298268700693" lon="14.121628945106377"><ele>163.25</ele><time>2026-05-03T11:33:48Z</time></trkpt><trkpt lat="42.46310078421199" lon="14.121713755875595"><ele>160.5</ele><time>2026-05-03T11:33:49Z</time></trkpt><trkpt lat="42.46322459706555" lon="14.12179765425898"><ele>157.75</ele><time>2026-05-03T11:33:50Z</time></trkpt><trkpt lat="42.463353678324154" lon="14.121887483584135"><ele>155.0</ele><time>2026-05-03T11:33:51Z</time></trkpt><trkpt lat="42.463474199986734" lon="14.121978397931587"><ele>155.0</ele><time>2026-05-03T11:33:52Z</time></trkpt><trkpt lat="42.46357691367759" lon="14.122056248922283"><ele>155.0</ele><time>2026-05-03T11:33:53Z</time></trkpt><trkpt lat="42.46367106175649" lon="14.122134049160097"><ele>155.0</ele><time>2026-05-03T11:33:54Z</time></trkpt><trkpt lat="42.46377157641215" lon="14.122221354590131"><ele>155.0</ele><time>2026-05-03T11:33:55Z</time></trkpt><trkpt lat="42.463880312645095" lon="14.122345219162403"><ele>153.0</ele><time>2026-05-03T11:33:56Z</time></trkpt><trkpt lat="42.46398435651979" lon="14.122511618237379"><ele>151.0</ele><time>2026-05-03T11:33:57Z</time></trkpt><trkpt lat="42.464074085059316" lon="14.12270334856318"><ele>149.0</ele><time>2026-05-03T11:33:58Z</time></trkpt><trkpt lat="42.464161419979675" lon="14.122907300950311"><ele>149.0</ele><time>2026-05-03T11:33:59Z</time></trkpt><trkpt lat="42.464236067963746" lon="14.123102845785954"><ele>149.0</ele><time>2026-05-03T11:34:00Z</time></trkpt><trkpt lat="42.464297000882944" lon="14.123296892646106"><ele>149.0</ele><time>2026-05-03T11:34:01Z</time></trkpt><trkpt lat="42.46434973445753" lon="14.123510314782878"><ele>149.0</ele><time>2026-05-03T11:34:02Z</time></trkpt><trkpt lat="42.46440239454695" lon="14.123722729344584"><ele>149.0</ele><time>2026-05-03T11:34:03Z</time></trkpt><trkpt lat="42.464462370494275" lon="14.123920119144863"><ele>149.0</ele><time>2026-05-03T11:34:04Z</time></trkpt><trkpt lat="42.46453862570658" lon="14.12409536195905"><ele>146.33333333333331</ele><time>2026-05-03T11:34:05Z</time></trkpt><trkpt lat="42.4646275476986" lon="14.124251814736919"><ele>143.66666666666666</ele><time>2026-05-03T11:34:06Z</time></trkpt><trkpt lat="42.464735240178975" lon="14.124394340990447"><ele>141.0</ele><time>2026-05-03T11:34:07Z</time></trkpt><trkpt lat="42.464855171541494" lon="14.124543066602124"><ele>141.0</ele><time>2026-05-03T11:34:08Z</time></trkpt><trkpt lat="42.46497491649561" lon="14.124695300339187"><ele>141.0</ele><time>2026-05-03T11:34:09.001Z</time></trkpt><trkpt lat="42.46508396672137" lon="14.124864589737978"><ele>141.0</ele><time>2026-05-03T11:34:10.001Z</time></trkpt><trkpt lat="42.465180977278656" lon="14.125047415761124"><ele>139.33333333333334</ele><time>2026-05-03T11:34:11.001Z</time></trkpt><trkpt lat="42.46527819479246" lon="14.12523569839621"><ele>137.66666666666669</ele><time>2026-05-03T11:34:12.001Z</time></trkpt><trkpt lat="42.46538645426263" lon="14.125417490014462"><ele>136.0</ele><time>2026-05-03T11:34:13.001Z</time></trkpt><trkpt lat="42.46550913883546" lon="14.125586014381138"><ele>138.33333333333334</ele><time>2026-05-03T11:34:14.001Z</time></trkpt><trkpt lat="42.46563776387414" lon="14.125746618857079"><ele>140.66666666666666</ele><time>2026-05-03T11:34:15.001Z</time></trkpt><trkpt lat="42.46576343768789" lon="14.125885344695"><ele>143.0</ele><time>2026-05-03T11:34:16.001Z</time></trkpt><trkpt lat="42.46589292624887" lon="14.125996558856457"><ele>143.0</ele><time>2026-05-03T11:34:17.001Z</time></trkpt><trkpt lat="42.46604008378963" lon="14.126078897202628"><ele>143.0</ele><time>2026-05-03T11:34:18.001Z</time></trkpt><trkpt lat="42.46618905826762" lon="14.12613006600125"><ele>143.0</ele><time>2026-05-03T11:34:19.001Z</time></trkpt><trkpt lat="42.46634192413098" lon="14.126155141239355"><ele>140.75</ele><time>2026-05-03T11:34:20.001Z</time></trkpt><trkpt lat="42.46648734934019" lon="14.126169665349932"><ele>138.5</ele><time>2026-05-03T11:34:21.001Z</time></trkpt><trkpt lat="42.46661146702081" lon="14.12620607352775"><ele>136.25</ele><time>2026-05-03T11:34:22.001Z</time></trkpt><trkpt lat="42.466722362955096" lon="14.12626859475763"><ele>134.0</ele><time>2026-05-03T11:34:23.001Z</time></trkpt><trkpt lat="42.46680085649074" lon="14.12639428543758"><ele>135.66666666666666</ele><time>2026-05-03T11:34:24.001Z</time></trkpt><trkpt lat="42.46688157261385" lon="14.12657003589358"><ele>137.33333333333334</ele><time>2026-05-03T11:34:25.001Z</time></trkpt><trkpt lat="42.46697599598298" lon="14.12676687327203"><ele>139.0</ele><time>2026-05-03T11:34:26.001Z</time></trkpt><trkpt lat="42.467081474396345" lon="14.126976233188897"><ele>137.66666666666669</ele><time>2026-05-03T11:34:27.001Z</time></trkpt><trkpt lat="42.46718425253886" lon="14.127191149383766"><ele>136.33333333333334</ele><time>2026-05-03T11:34:28.001Z</time></trkpt><trkpt lat="42.467282175228405" lon="14.127415559692594"><ele>135.0</ele><time>2026-05-03T11:34:29.001Z</time></trkpt><trkpt lat="42.46736841764103" lon="14.12763166224537"><ele>137.5</ele><time>2026-05-03T11:34:30.001Z</time></trkpt><trkpt lat="42.46744300004856" lon="14.127827703854837"><ele>140.0</ele><time>2026-05-03T11:34:31.001Z</time></trkpt><trkpt lat="42.4675045485647" lon="14.128007936081241"><ele>142.5</ele><time>2026-05-03T11:34:32.001Z</time></trkpt><trkpt lat="42.46756595822875" lon="14.128175616313369"><ele>145.0</ele><time>2026-05-03T11:34:33.001Z</time></trkpt><trkpt lat="42.467624525131285" lon="14.12833539818889"><ele>145.5</ele><time>2026-05-03T11:34:34.001Z</time></trkpt><trkpt lat="42.46767879717353" lon="14.128485646362298"><ele>146.0</ele><time>2026-05-03T11:34:35.001Z</time></trkpt><trkpt lat="42.46775029508136" lon="14.128617905291797"><ele>146.5</ele><time>2026-05-03T11:34:36.001Z</time></trkpt><trkpt lat="42.46784551578679" lon="14.128725849399645"><ele>147.0</ele><time>2026-05-03T11:34:37.001Z</time></trkpt><trkpt lat="42.46797039892714" lon="14.128800562583882"><ele>150.33333333333334</ele><time>2026-05-03T11:34:38.001Z</time></trkpt><trkpt lat="42.46812590631155" lon="14.128854878544903"><ele>153.66666666666669</ele><time>2026-05-03T11:34:39.001Z</time></trkpt><trkpt lat="42.468285273490636" lon="14.128914048684255"><ele>157.0</ele><time>2026-05-03T11:34:40.001Z</time></trkpt><trkpt lat="42.46845316780216" lon="14.12897071214556"><ele>157.0</ele><time>2026-05-03T11:34:41.001Z</time></trkpt><trkpt lat="42.46861852518056" lon="14.129028542287854"><ele>157.0</ele><time>2026-05-03T11:34:42.001Z</time></trkpt><trkpt lat="42.468779550908245" lon="14.129080577466553"><ele>157.0</ele><time>2026-05-03T11:34:43.001Z</time></trkpt><trkpt lat="42.46893267439284" lon="14.129129967417372"><ele>155.25</ele><time>2026-05-03T11:34:44.001Z</time></trkpt><trkpt lat="42.4690769057154" lon="14.129183959636546"><ele>153.5</ele><time>2026-05-03T11:34:45.001Z</time></trkpt><trkpt lat="42.46920961425698" lon="14.12924361279178"><ele>151.75</ele><time>2026-05-03T11:34:46.001Z</time></trkpt><trkpt lat="42.46932588665976" lon="14.129322733133424"><ele>150.0</ele><time>2026-05-03T11:34:47.001Z</time></trkpt><trkpt lat="42.46943927838387" lon="14.129425705688416"><ele>150.0</ele><time>2026-05-03T11:34:48.001Z</time></trkpt><trkpt lat="42.46955686812829" lon="14.129550526211801"><ele>150.0</ele><time>2026-05-03T11:34:49.001Z</time></trkpt><trkpt lat="42.46967397166181" lon="14.129684613601343"><ele>150.0</ele><time>2026-05-03T11:34:50.001Z</time></trkpt><trkpt lat="42.46978800966218" lon="14.129810228173241"><ele>150.0</ele><time>2026-05-03T11:34:51.001Z</time></trkpt><trkpt lat="42.46989839579996" lon="14.129940058707263"><ele>150.0</ele><time>2026-05-03T11:34:52.001Z</time></trkpt><trkpt lat="42.47001123849" lon="14.130078990643549"><ele>150.0</ele><time>2026-05-03T11:34:53.001Z</time></trkpt><trkpt lat="42.47012765837725" lon="14.130223421626303"><ele>150.0</ele><time>2026-05-03T11:34:54.001Z</time></trkpt><trkpt lat="42.47025174999704" lon="14.130371045158538"><ele>150.0</ele><time>2026-05-03T11:34:55.001Z</time></trkpt><trkpt lat="42.470376172315994" lon="14.13052079290688"><ele>150.0</ele><time>2026-05-03T11:34:56.001Z</time></trkpt><trkpt lat="42.47050567655947" lon="14.130677542992432"><ele>148.0</ele><time>2026-05-03T11:34:57.001Z</time></trkpt><trkpt lat="42.470640170120724" lon="14.130839182404335"><ele>146.0</ele><time>2026-05-03T11:34:58.001Z</time></trkpt><trkpt lat="42.470770774561814" lon="14.131001201614348"><ele>144.0</ele><time>2026-05-03T11:34:59.001Z</time></trkpt><trkpt lat="42.47089320052324" lon="14.131156765300707"><ele>144.0</ele><time>2026-05-03T11:35:00.001Z</time></trkpt><trkpt lat="42.471017565800175" lon="14.131311659592551"><ele>144.0</ele><time>2026-05-03T11:35:01.001Z</time></trkpt><trkpt lat="42.47114093212052" lon="14.131466498535696"><ele>144.0</ele><time>2026-05-03T11:35:02.002Z</time></trkpt><trkpt lat="42.471265134625455" lon="14.131619757696747"><ele>143.5</ele><time>2026-05-03T11:35:03.002Z</time></trkpt><trkpt lat="42.47137204979492" lon="14.131756391648285"><ele>143.0</ele><time>2026-05-03T11:35:04.002Z</time></trkpt><trkpt lat="42.471465680608155" lon="14.13190196130678"><ele>142.5</ele><time>2026-05-03T11:35:05.002Z</time></trkpt><trkpt lat="42.47151504966401" lon="14.132063686849731"><ele>142.0</ele><time>2026-05-03T11:35:06.002Z</time></trkpt><trkpt lat="42.47152925491216" lon="14.132249307255854"><ele>144.0</ele><time>2026-05-03T11:35:07.002Z</time></trkpt><trkpt lat="42.47152768811689" lon="14.132442531260535"><ele>146.0</ele><time>2026-05-03T11:35:08.002Z</time></trkpt><trkpt lat="42.471536304237354" lon="14.132650555138483"><ele>148.0</ele><time>2026-05-03T11:35:09.002Z</time></trkpt><trkpt lat="42.47156260132724" lon="14.132856758955077"><ele>148.0</ele><time>2026-05-03T11:35:10.002Z</time></trkpt><trkpt lat="42.47161170476801" lon="14.133038180122586"><ele>148.0</ele><time>2026-05-03T11:35:11.002Z</time></trkpt><trkpt lat="42.47168450868236" lon="14.133183484631648"><ele>148.0</ele><time>2026-05-03T11:35:12.002Z</time></trkpt><trkpt lat="42.47177230718251" lon="14.133299345960598"><ele>148.0</ele><time>2026-05-03T11:35:13.002Z</time></trkpt><trkpt lat="42.47189168065981" lon="14.133356806816593"><ele>148.0</ele><time>2026-05-03T11:35:14.002Z</time></trkpt><trkpt lat="42.47200709308193" lon="14.133390191075332"><ele>148.0</ele><time>2026-05-03T11:35:15.002Z</time></trkpt><trkpt lat="42.47214474588597" lon="14.133385036191767"><ele>148.0</ele><time>2026-05-03T11:35:16.002Z</time></trkpt><trkpt lat="42.47228590242287" lon="14.133370513996153"><ele>148.0</ele><time>2026-05-03T11:35:17.002Z</time></trkpt><trkpt lat="42.47240710782327" lon="14.133394522352964"><ele>150.5</ele><time>2026-05-03T11:35:18.002Z</time></trkpt><trkpt lat="42.47251326017402" lon="14.133465115667596"><ele>153.0</ele><time>2026-05-03T11:35:19.002Z</time></trkpt><trkpt lat="42.47262107039671" lon="14.133563679591585"><ele>155.5</ele><time>2026-05-03T11:35:20.002Z</time></trkpt><trkpt lat="42.472726244128815" lon="14.13369230442184"><ele>158.0</ele><time>2026-05-03T11:35:21.002Z</time></trkpt><trkpt lat="42.47284808866467" lon="14.133840596673092"><ele>160.66666666666666</ele><time>2026-05-03T11:35:22.002Z</time></trkpt><trkpt lat="42.47299313898893" lon="14.133958462150053"><ele>163.33333333333334</ele><time>2026-05-03T11:35:23.002Z</time></trkpt><trkpt lat="42.47315349071061" lon="14.13404942518948"><ele>166.0</ele><time>2026-05-03T11:35:24.002Z</time></trkpt><trkpt lat="42.47329420701176" lon="14.134160477590946"><ele>166.0</ele><time>2026-05-03T11:35:25.002Z</time></trkpt><trkpt lat="42.47340580726986" lon="14.13430939281997"><ele>166.0</ele><time>2026-05-03T11:35:26.002Z</time></trkpt><trkpt lat="42.473500571662925" lon="14.13445817080197"><ele>166.0</ele><time>2026-05-03T11:35:27.002Z</time></trkpt><trkpt lat="42.47356126538933" lon="14.134604988025815"><ele>166.0</ele><time>2026-05-03T11:35:28.002Z</time></trkpt><trkpt lat="42.47359351512773" lon="14.13476722911893"><ele>164.0</ele><time>2026-05-03T11:35:29.002Z</time></trkpt><trkpt lat="42.47360468586093" lon="14.134938434473046"><ele>162.0</ele><time>2026-05-03T11:35:30.002Z</time></trkpt><trkpt lat="42.47362622592574" lon="14.135104146375578"><ele>160.0</ele><time>2026-05-03T11:35:31.002Z</time></trkpt><trkpt lat="42.473667475125225" lon="14.13524352149732"><ele>158.0</ele><time>2026-05-03T11:35:32.002Z</time></trkpt><trkpt lat="42.47371494395655" lon="14.13536770806651"><ele>163.75</ele><time>2026-05-03T11:35:33.002Z</time></trkpt><trkpt lat="42.4737815417496" lon="14.135477117921116"><ele>169.5</ele><time>2026-05-03T11:35:34Z</time></trkpt><trkpt lat="42.47388677666771" lon="14.135556200390132"><ele>175.25</ele><time>2026-05-03T11:35:35Z</time></trkpt><trkpt lat="42.474026113849554" lon="14.135610579725615"><ele>181.0</ele><time>2026-05-03T11:35:36Z</time></trkpt><trkpt lat="42.47418146172915" lon="14.135667744446017"><ele>176.0</ele><time>2026-05-03T11:35:37Z</time></trkpt><trkpt lat="42.47433036479871" lon="14.135754799462436"><ele>171.0</ele><time>2026-05-03T11:35:38Z</time></trkpt><trkpt lat="42.47446321127892" lon="14.135875688271963"><ele>166.0</ele><time>2026-05-03T11:35:39Z</time></trkpt><trkpt lat="42.47457563602243" lon="14.136005353123853"><ele>170.25</ele><time>2026-05-03T11:35:40Z</time></trkpt><trkpt lat="42.474688176348394" lon="14.136103709240558"><ele>174.5</ele><time>2026-05-03T11:35:41Z</time></trkpt><trkpt lat="42.4748261683031" lon="14.136161559872889"><ele>178.75</ele><time>2026-05-03T11:35:42Z</time></trkpt><trkpt lat="42.47497123055876" lon="14.136193411103369"><ele>183.0</ele><time>2026-05-03T11:35:43Z</time></trkpt><trkpt lat="42.47510024336522" lon="14.136233907244266"><ele>183.0</ele><time>2026-05-03T11:35:44Z</time></trkpt><trkpt lat="42.47520247250511" lon="14.136321824590903"><ele>183.0</ele><time>2026-05-03T11:35:45Z</time></trkpt><trkpt lat="42.47528774926013" lon="14.136456857602202"><ele>183.0</ele><time>2026-05-03T11:35:46Z</time></trkpt><trkpt lat="42.47537114826541" lon="14.136626465087295"><ele>183.0</ele><time>2026-05-03T11:35:47Z</time></trkpt><trkpt lat="42.475479560489546" lon="14.136774788186704"><ele>183.0</ele><time>2026-05-03T11:35:48Z</time></trkpt><trkpt lat="42.475628176507755" lon="14.136875110032394"><ele>183.0</ele><time>2026-05-03T11:35:49Z</time></trkpt><trkpt lat="42.475803339979606" lon="14.136971258105717"><ele>183.0</ele><time>2026-05-03T11:35:50Z</time></trkpt><trkpt lat="42.47596312237992" lon="14.137078037778075"><ele>183.0</ele><time>2026-05-03T11:35:51Z</time></trkpt><trkpt lat="42.47611373878137" lon="14.137170598182754"><ele>183.0</ele><time>2026-05-03T11:35:52Z</time></trkpt><trkpt lat="42.47625570897793" lon="14.137259512648004"><ele>183.0</ele><time>2026-05-03T11:35:53Z</time></trkpt><trkpt lat="42.476379579014534" lon="14.13732204585505"><ele>182.0</ele><time>2026-05-03T11:35:54Z</time></trkpt><trkpt lat="42.47650604677051" lon="14.137374616888344"><ele>181.0</ele><time>2026-05-03T11:35:55Z</time></trkpt><trkpt lat="42.47663634009743" lon="14.137419027754637"><ele>180.0</ele><time>2026-05-03T11:35:56Z</time></trkpt><trkpt lat="42.476767015260336" lon="14.13744467341069"><ele>179.0</ele><time>2026-05-03T11:35:57Z</time></trkpt><trkpt lat="42.47689110150512" lon="14.137459862646681"><ele>179.0</ele><time>2026-05-03T11:35:58Z</time></trkpt><trkpt lat="42.477005093252075" lon="14.137471102449437"><ele>179.0</ele><time>2026-05-03T11:35:59Z</time></trkpt><trkpt lat="42.477122240129695" lon="14.13747943193569"><ele>179.0</ele><time>2026-05-03T11:36:00Z</time></trkpt><trkpt lat="42.477245023440695" lon="14.137474268391003"><ele>179.0</ele><time>2026-05-03T11:36:01Z</time></trkpt><trkpt lat="42.47737575134389" lon="14.137455875856748"><ele>179.75</ele><time>2026-05-03T11:36:02Z</time></trkpt><trkpt lat="42.47750927413013" lon="14.13742131692726"><ele>180.5</ele><time>2026-05-03T11:36:03Z</time></trkpt><trkpt lat="42.47764295785118" lon="14.137370063564147"><ele>181.25</ele><time>2026-05-03T11:36:04Z</time></trkpt><trkpt lat="42.47777801388175" lon="14.13731119951309"><ele>182.0</ele><time>2026-05-03T11:36:05Z</time></trkpt><trkpt lat="42.47791420004181" lon="14.137254058822398"><ele>179.2</ele><time>2026-05-03T11:36:06Z</time></trkpt><trkpt lat="42.47803325578028" lon="14.137210575767815"><ele>176.39999999999998</ele><time>2026-05-03T11:36:07Z</time></trkpt><trkpt lat="42.478140304785256" lon="14.137187242254234"><ele>173.60000000000002</ele><time>2026-05-03T11:36:08Z</time></trkpt><trkpt lat="42.478248349755404" lon="14.137191416403855"><ele>170.8</ele><time>2026-05-03T11:36:09Z</time></trkpt><trkpt lat="42.47835336974161" lon="14.137227142975252"><ele>168.0</ele><time>2026-05-03T11:36:10Z</time></trkpt><trkpt lat="42.47846369622817" lon="14.13727854161339"><ele>168.0</ele><time>2026-05-03T11:36:11Z</time></trkpt><trkpt lat="42.4785823884407" lon="14.137321819748491"><ele>168.0</ele><time>2026-05-03T11:36:12Z</time></trkpt><trkpt lat="42.47870399899706" lon="14.137321483613311"><ele>168.0</ele><time>2026-05-03T11:36:13Z</time></trkpt><trkpt lat="42.478829053538256" lon="14.137279847174119"><ele>168.0</ele><time>2026-05-03T11:36:14Z</time></trkpt><trkpt lat="42.478961656268886" lon="14.1372123314524"><ele>167.75</ele><time>2026-05-03T11:36:15Z</time></trkpt><trkpt lat="42.4790897220204" lon="14.13713382796172"><ele>167.5</ele><time>2026-05-03T11:36:16Z</time></trkpt><trkpt lat="42.47920214738597" lon="14.13703989157154"><ele>167.25</ele><time>2026-05-03T11:36:17Z</time></trkpt><trkpt lat="42.47929757307314" lon="14.136923724550396"><ele>167.0</ele><time>2026-05-03T11:36:18Z</time></trkpt><trkpt lat="42.47937811218472" lon="14.136774325812567"><ele>167.0</ele><time>2026-05-03T11:36:19Z</time></trkpt><trkpt lat="42.47945623616795" lon="14.136614761614483"><ele>167.0</ele><time>2026-05-03T11:36:20Z</time></trkpt><trkpt lat="42.47954068315846" lon="14.13646949132139"><ele>167.0</ele><time>2026-05-03T11:36:21Z</time></trkpt><trkpt lat="42.47963607736326" lon="14.136343635104938"><ele>167.0</ele><time>2026-05-03T11:36:22Z</time></trkpt><trkpt lat="42.479734012392484" lon="14.136219983466578"><ele>166.5</ele><time>2026-05-03T11:36:23.001Z</time></trkpt><trkpt lat="42.47982326596904" lon="14.13609906769641"><ele>166.0</ele><time>2026-05-03T11:36:24.001Z</time></trkpt><trkpt lat="42.47988929306396" lon="14.135958155055418"><ele>165.5</ele><time>2026-05-03T11:36:25.001Z</time></trkpt><trkpt lat="42.479952431728094" lon="14.135804126977343"><ele>165.0</ele><time>2026-05-03T11:36:26.001Z</time></trkpt><trkpt lat="42.47998798888653" lon="14.13563190321128"><ele>163.0</ele><time>2026-05-03T11:36:27.001Z</time></trkpt><trkpt lat="42.480030343292974" lon="14.135464752631227"><ele>161.0</ele><time>2026-05-03T11:36:28.001Z</time></trkpt><trkpt lat="42.48006739865031" lon="14.135306307915489"><ele>159.0</ele><time>2026-05-03T11:36:29.001Z</time></trkpt><trkpt lat="42.48014519302806" lon="14.135176678729295"><ele>157.0</ele><time>2026-05-03T11:36:30.001Z</time></trkpt><trkpt lat="42.48024089813343" lon="14.135059927315606"><ele>157.0</ele><time>2026-05-03T11:36:31.001Z</time></trkpt><trkpt lat="42.48035019245401" lon="14.134955715732012"><ele>157.0</ele><time>2026-05-03T11:36:32.001Z</time></trkpt><trkpt lat="42.48045514592067" lon="14.134872325917275"><ele>157.0</ele><time>2026-05-03T11:36:33.001Z</time></trkpt><trkpt lat="42.48054689039221" lon="14.134812620650822"><ele>157.0</ele><time>2026-05-03T11:36:34.001Z</time></trkpt><trkpt lat="42.480640582122064" lon="14.134781231739318"><ele>157.2</ele><time>2026-05-03T11:36:35.001Z</time></trkpt><trkpt lat="42.48073620834953" lon="14.134791454075541"><ele>157.39999999999998</ele><time>2026-05-03T11:36:36.001Z</time></trkpt><trkpt lat="42.48083466101802" lon="14.134855157823187"><ele>157.60000000000002</ele><time>2026-05-03T11:36:37.001Z</time></trkpt><trkpt lat="42.48092885043964" lon="14.134943142778685"><ele>157.8</ele><time>2026-05-03T11:36:38.001Z</time></trkpt><trkpt lat="42.48101355227995" lon="14.135054789366745"><ele>158.0</ele><time>2026-05-03T11:36:39.001Z</time></trkpt><trkpt lat="42.48108193881331" lon="14.135178474568512"><ele>158.0</ele><time>2026-05-03T11:36:40.001Z</time></trkpt><trkpt lat="42.481131935581594" lon="14.135313397933258"><ele>158.0</ele><time>2026-05-03T11:36:41.001Z</time></trkpt><trkpt lat="42.48117600891711" lon="14.135467506181993"><ele>158.0</ele><time>2026-05-03T11:36:42.001Z</time></trkpt><trkpt lat="42.48122632227432" lon="14.135627560997534"><ele>158.0</ele><time>2026-05-03T11:36:43.001Z</time></trkpt><trkpt lat="42.48128128844592" lon="14.135786519053065"><ele>155.25</ele><time>2026-05-03T11:36:44.001Z</time></trkpt><trkpt lat="42.48133730463675" lon="14.13594526847018"><ele>152.5</ele><time>2026-05-03T11:36:45.001Z</time></trkpt><trkpt lat="42.481391292670075" lon="14.136103717466506"><ele>149.75</ele><time>2026-05-03T11:36:46.001Z</time></trkpt><trkpt lat="42.48144354935334" lon="14.136254277817203"><ele>147.0</ele><time>2026-05-03T11:36:47.001Z</time></trkpt><trkpt lat="42.48150029602964" lon="14.136389867933195"><ele>147.0</ele><time>2026-05-03T11:36:48.001Z</time></trkpt><trkpt lat="42.481570018384424" lon="14.136491661239495"><ele>147.0</ele><time>2026-05-03T11:36:49.001Z</time></trkpt><trkpt lat="42.48166114042118" lon="14.136553678360565"><ele>147.0</ele><time>2026-05-03T11:36:50.001Z</time></trkpt><trkpt lat="42.48177271150696" lon="14.136572541179289"><ele>147.0</ele><time>2026-05-03T11:36:51.001Z</time></trkpt><trkpt lat="42.48188733233599" lon="14.136549051506709"><ele>147.0</ele><time>2026-05-03T11:36:52.001Z</time></trkpt><trkpt lat="42.48198315902814" lon="14.136480231511305"><ele>147.0</ele><time>2026-05-03T11:36:53.001Z</time></trkpt><trkpt lat="42.482058684154914" lon="14.136371018883814"><ele>147.0</ele><time>2026-05-03T11:36:54.001Z</time></trkpt><trkpt lat="42.48212061042119" lon="14.136224580728472"><ele>147.0</ele><time>2026-05-03T11:36:55.001Z</time></trkpt><trkpt lat="42.482169623680925" lon="14.136021027040801"><ele>147.0</ele><time>2026-05-03T11:36:56.001Z</time></trkpt><trkpt lat="42.48221194910168" lon="14.135776182044536"><ele>144.33333333333334</ele><time>2026-05-03T11:36:57.001Z</time></trkpt><trkpt lat="42.48227426187004" lon="14.135549237202175"><ele>141.66666666666669</ele><time>2026-05-03T11:36:58.001Z</time></trkpt><trkpt lat="42.482321958923755" lon="14.135325648776107"><ele>139.0</ele><time>2026-05-03T11:36:59.001Z</time></trkpt><trkpt lat="42.48236804354302" lon="14.135108465749466"><ele>139.0</ele><time>2026-05-03T11:37:00.001Z</time></trkpt><trkpt lat="42.48241406794325" lon="14.134895525188366"><ele>139.0</ele><time>2026-05-03T11:37:01.001Z</time></trkpt><trkpt lat="42.48245847325748" lon="14.13469103641846"><ele>139.0</ele><time>2026-05-03T11:37:02.001Z</time></trkpt><trkpt lat="42.48250104977286" lon="14.134493477945771"><ele>138.5</ele><time>2026-05-03T11:37:03.001Z</time></trkpt><trkpt lat="42.48254197417009" lon="14.13430335407332"><ele>138.0</ele><time>2026-05-03T11:37:04.001Z</time></trkpt><trkpt lat="42.48258163082058" lon="14.134117563483688"><ele>137.5</ele><time>2026-05-03T11:37:05.001Z</time></trkpt><trkpt lat="42.4826190019333" lon="14.133937160704638"><ele>137.0</ele><time>2026-05-03T11:37:06.001Z</time></trkpt><trkpt lat="42.48265548162208" lon="14.133770973810106"><ele>136.0</ele><time>2026-05-03T11:37:07.001Z</time></trkpt><trkpt lat="42.482698007197065" lon="14.133618170914252"><ele>135.0</ele><time>2026-05-03T11:37:08.001Z</time></trkpt><trkpt lat="42.48274825604094" lon="14.133475423996225"><ele>134.0</ele><time>2026-05-03T11:37:09.001Z</time></trkpt><trkpt lat="42.48281581677296" lon="14.133357519042988"><ele>133.0</ele><time>2026-05-03T11:37:10.001Z</time></trkpt><trkpt lat="42.482904773778316" lon="14.133275027234346"><ele>132.0</ele><time>2026-05-03T11:37:11.001Z</time></trkpt><trkpt lat="42.483013489675336" lon="14.133190193020239"><ele>131.0</ele><time>2026-05-03T11:37:12.001Z</time></trkpt><trkpt lat="42.48314410461634" lon="14.133139090660771"><ele>130.0</ele><time>2026-05-03T11:37:13.001Z</time></trkpt><trkpt lat="42.48326129077322" lon="14.133095515261527"><ele>129.0</ele><time>2026-05-03T11:37:14.001Z</time></trkpt><trkpt lat="42.48336670048005" lon="14.133045426272405"><ele>129.0</ele><time>2026-05-03T11:37:15.001Z</time></trkpt><trkpt lat="42.48348290271462" lon="14.132977116259458"><ele>129.0</ele><time>2026-05-03T11:37:16.002Z</time></trkpt><trkpt lat="42.483610789660744" lon="14.132909920583618"><ele>129.0</ele><time>2026-05-03T11:37:17.002Z</time></trkpt><trkpt lat="42.48374630707679" lon="14.1328443829586"><ele>129.0</ele><time>2026-05-03T11:37:18.002Z</time></trkpt><trkpt lat="42.48388287847829" lon="14.132776679450421"><ele>128.0</ele><time>2026-05-03T11:37:19.002Z</time></trkpt><trkpt lat="42.484013199802284" lon="14.132713964895368"><ele>127.0</ele><time>2026-05-03T11:37:20.002Z</time></trkpt><trkpt lat="42.484140325587774" lon="14.132653030884276"><ele>126.0</ele><time>2026-05-03T11:37:21.002Z</time></trkpt><trkpt lat="42.48426638026913" lon="14.132595754232575"><ele>125.0</ele><time>2026-05-03T11:37:22.002Z</time></trkpt><trkpt lat="42.48439147938464" lon="14.13253518390655"><ele>125.0</ele><time>2026-05-03T11:37:23.002Z</time></trkpt><trkpt lat="42.48451557916429" lon="14.132476970450062"><ele>125.0</ele><time>2026-05-03T11:37:24.002Z</time></trkpt><trkpt lat="42.484634998025115" lon="14.132418995480734"><ele>125.0</ele><time>2026-05-03T11:37:25.002Z</time></trkpt><trkpt lat="42.484749163959734" lon="14.132369141368397"><ele>125.0</ele><time>2026-05-03T11:37:26.002Z</time></trkpt><trkpt lat="42.4848608549544" lon="14.132329662767974"><ele>123.75</ele><time>2026-05-03T11:37:27.002Z</time></trkpt><trkpt lat="42.484970780758715" lon="14.132312197928401"><ele>122.5</ele><time>2026-05-03T11:37:28.002Z</time></trkpt><trkpt lat="42.485080338316926" lon="14.132319117504373"><ele>121.25</ele><time>2026-05-03T11:37:29.002Z</time></trkpt><trkpt lat="42.485194225446556" lon="14.132360195130936"><ele>120.0</ele><time>2026-05-03T11:37:30.002Z</time></trkpt><trkpt lat="42.485304120928646" lon="14.132427336024243"><ele>120.0</ele><time>2026-05-03T11:37:31.002Z</time></trkpt><trkpt lat="42.485413163293664" lon="14.132519098759719"><ele>120.0</ele><time>2026-05-03T11:37:32.002Z</time></trkpt><trkpt lat="42.48551962031551" lon="14.132641254909082"><ele>120.0</ele><time>2026-05-03T11:37:33.002Z</time></trkpt><trkpt lat="42.4856258716375" lon="14.132777882847188"><ele>120.0</ele><time>2026-05-03T11:37:34.002Z</time></trkpt><trkpt lat="42.48573717320848" lon="14.13291644077439"><ele>119.5</ele><time>2026-05-03T11:37:35.002Z</time></trkpt><trkpt lat="42.48585127130949" lon="14.133048205662156"><ele>119.0</ele><time>2026-05-03T11:37:36.002Z</time></trkpt><trkpt lat="42.48595668626916" lon="14.13317449914536"><ele>118.5</ele><time>2026-05-03T11:37:37.002Z</time></trkpt><trkpt lat="42.48605751403261" lon="14.133297201314704"><ele>118.0</ele><time>2026-05-03T11:37:38.002Z</time></trkpt><trkpt lat="42.48615876387769" lon="14.133416950271865"><ele>117.75</ele><time>2026-05-03T11:37:39.002Z</time></trkpt><trkpt lat="42.48625557072758" lon="14.133534393704045"><ele>117.5</ele><time>2026-05-03T11:37:40Z</time></trkpt><trkpt lat="42.48634642685765" lon="14.133640924758044"><ele>117.25</ele><time>2026-05-03T11:37:41Z</time></trkpt><trkpt lat="42.48643129867873" lon="14.133740835847385"><ele>117.0</ele><time>2026-05-03T11:37:42Z</time></trkpt><trkpt lat="42.48650926430269" lon="14.133837551557402"><ele>117.0</ele><time>2026-05-03T11:37:43Z</time></trkpt><trkpt lat="42.48657732331278" lon="14.133938038119508"><ele>116.99999999999999</ele><time>2026-05-03T11:37:44Z</time></trkpt><trkpt lat="42.48662984732431" lon="14.134053380912386"><ele>116.99999999999999</ele><time>2026-05-03T11:37:45Z</time></trkpt><trkpt lat="42.48666527496148" lon="14.134189079322848"><ele>117.0</ele><time>2026-05-03T11:37:46Z</time></trkpt><trkpt lat="42.486683542698295" lon="14.134343260767793"><ele>117.0</ele><time>2026-05-03T11:37:47Z</time></trkpt><trkpt lat="42.48670768495104" lon="14.134506803282441"><ele>117.0</ele><time>2026-05-03T11:37:48Z</time></trkpt><trkpt lat="42.486738155809" lon="14.134678591122723"><ele>117.0</ele><time>2026-05-03T11:37:49Z</time></trkpt><trkpt lat="42.48676853608642" lon="14.134855693396066"><ele>117.0</ele><time>2026-05-03T11:37:50Z</time></trkpt><trkpt lat="42.486799529115345" lon="14.135025500532645"><ele>117.0</ele><time>2026-05-03T11:37:51Z</time></trkpt><trkpt lat="42.486827699160216" lon="14.135189365772554"><ele>117.0</ele><time>2026-05-03T11:37:52Z</time></trkpt><trkpt lat="42.48685573404524" lon="14.13535265780145"><ele>117.0</ele><time>2026-05-03T11:37:53Z</time></trkpt><trkpt lat="42.48688408444341" lon="14.135509769330298"><ele>117.0</ele><time>2026-05-03T11:37:54Z</time></trkpt><trkpt lat="42.48691696209242" lon="14.135662983362947"><ele>117.0</ele><time>2026-05-03T11:37:55Z</time></trkpt><trkpt lat="42.48695598932935" lon="14.135818579031413"><ele>116.75</ele><time>2026-05-03T11:37:56Z</time></trkpt><trkpt lat="42.48700476724161" lon="14.135980568276615"><ele>116.5</ele><time>2026-05-03T11:37:57Z</time></trkpt><trkpt lat="42.48706079989114" lon="14.136146240241889"><ele>116.25</ele><time>2026-05-03T11:37:58Z</time></trkpt><trkpt lat="42.487130884078724" lon="14.136316033191711"><ele>116.0</ele><time>2026-05-03T11:37:59Z</time></trkpt><trkpt lat="42.48720294662826" lon="14.136482079331605"><ele>118.0</ele><time>2026-05-03T11:38:00Z</time></trkpt><trkpt lat="42.48727263621781" lon="14.136649430815016"><ele>120.0</ele><time>2026-05-03T11:38:01Z</time></trkpt><trkpt lat="42.48733833427929" lon="14.136833448105445"><ele>122.0</ele><time>2026-05-03T11:38:02Z</time></trkpt><trkpt lat="42.4874023313402" lon="14.137012191865027"><ele>124.0</ele><time>2026-05-03T11:38:03Z</time></trkpt><trkpt lat="42.487457186493565" lon="14.137187996769285"><ele>124.0</ele><time>2026-05-03T11:38:04Z</time></trkpt><trkpt lat="42.487507506289305" lon="14.137348744860258"><ele>124.0</ele><time>2026-05-03T11:38:05Z</time></trkpt><trkpt lat="42.48755627897269" lon="14.137503449465097"><ele>124.0</ele><time>2026-05-03T11:38:06Z</time></trkpt><trkpt lat="42.48760072413014" lon="14.137660295013339"><ele>124.0</ele><time>2026-05-03T11:38:07Z</time></trkpt><trkpt lat="42.487635169476974" lon="14.137841042593685"><ele>124.0</ele><time>2026-05-03T11:38:08Z</time></trkpt><trkpt lat="42.48763559090312" lon="14.138039791364145"><ele>124.0</ele><time>2026-05-03T11:38:09Z</time></trkpt><trkpt lat="42.48762244586476" lon="14.138239441410033"><ele>124.0</ele><time>2026-05-03T11:38:10Z</time></trkpt><trkpt lat="42.48761871991926" lon="14.138433179918009"><ele>124.0</ele><time>2026-05-03T11:38:11Z</time></trkpt><trkpt lat="42.48763255552866" lon="14.138619767546627"><ele>124.25</ele><time>2026-05-03T11:38:12Z</time></trkpt><trkpt lat="42.48768197515548" lon="14.138797764107396"><ele>124.5</ele><time>2026-05-03T11:38:13Z</time></trkpt><trkpt lat="42.48775724708812" lon="14.138967865689068"><ele>124.75</ele><time>2026-05-03T11:38:14Z</time></trkpt><trkpt lat="42.48785387591883" lon="14.139117238522172"><ele>125.0</ele><time>2026-05-03T11:38:15Z</time></trkpt><trkpt lat="42.487967788545745" lon="14.139233130052924"><ele>127.25</ele><time>2026-05-03T11:38:16Z</time></trkpt><trkpt lat="42.48809889742059" lon="14.13930948472104"><ele>129.5</ele><time>2026-05-03T11:38:17Z</time></trkpt><trkpt lat="42.48824275213704" lon="14.13935070732465"><ele>131.75</ele><time>2026-05-03T11:38:18Z</time></trkpt><trkpt lat="42.48839167602292" lon="14.139368202896192"><ele>134.0</ele><time>2026-05-03T11:38:19Z</time></trkpt><trkpt lat="42.48853592108299" lon="14.139375209671313"><ele>134.0</ele><time>2026-05-03T11:38:20Z</time></trkpt><trkpt lat="42.48866728984798" lon="14.139377158693058"><ele>134.0</ele><time>2026-05-03T11:38:21Z</time></trkpt><trkpt lat="42.488783644143204" lon="14.139383525066448"><ele>134.0</ele><time>2026-05-03T11:38:22Z</time></trkpt><trkpt lat="42.488879119568665" lon="14.139399106188835"><ele>134.0</ele><time>2026-05-03T11:38:23Z</time></trkpt><trkpt lat="42.48896493468766" lon="14.139430507477817"><ele>134.0</ele><time>2026-05-03T11:38:24Z</time></trkpt><trkpt lat="42.4890371464601" lon="14.139481912041605"><ele>134.5</ele><time>2026-05-03T11:38:25Z</time></trkpt><trkpt lat="42.48911084158044" lon="14.13952957532663"><ele>135.0</ele><time>2026-05-03T11:38:26Z</time></trkpt><trkpt lat="42.48916578879534" lon="14.139608369686744"><ele>135.5</ele><time>2026-05-03T11:38:27Z</time></trkpt><trkpt lat="42.48923379259119" lon="14.139637851386288"><ele>136.0</ele><time>2026-05-03T11:38:28Z</time></trkpt><trkpt lat="42.48930751268709" lon="14.13965316793198"><ele>136.5</ele><time>2026-05-03T11:38:29Z</time></trkpt><trkpt lat="42.48938497106658" lon="14.139563881845799"><ele>137.0</ele><time>2026-05-03T11:38:30Z</time></trkpt><trkpt lat="42.48947112137947" lon="14.139491389788327"><ele>137.0</ele><time>2026-05-03T11:38:31Z</time></trkpt><trkpt lat="42.489573608919095" lon="14.139454167077188"><ele>137.0</ele><time>2026-05-03T11:38:32Z</time></trkpt><trkpt lat="42.48970574225235" lon="14.139458135565482"><ele>137.0</ele><time>2026-05-03T11:38:33Z</time></trkpt><trkpt lat="42.48985026128106" lon="14.13946348353329"><ele>137.0</ele><time>2026-05-03T11:38:34Z</time></trkpt><trkpt lat="42.48999064181305" lon="14.139475015317739"><ele>138.0</ele><time>2026-05-03T11:38:35Z</time></trkpt><trkpt lat="42.49012285602601" lon="14.139479728054464"><ele>139.0</ele><time>2026-05-03T11:38:36Z</time></trkpt><trkpt lat="42.49025204610309" lon="14.139483798361942"><ele>140.0</ele><time>2026-05-03T11:38:37Z</time></trkpt><trkpt lat="42.49036983206873" lon="14.13949984519675"><ele>141.0</ele><time>2026-05-03T11:38:38Z</time></trkpt><trkpt lat="42.4904776817713" lon="14.139511669287305"><ele>143.0</ele><time>2026-05-03T11:38:39Z</time></trkpt><trkpt lat="42.49057623749866" lon="14.139518182473184"><ele>145.0</ele><time>2026-05-03T11:38:40Z</time></trkpt><trkpt lat="42.49066031549673" lon="14.139515872216815"><ele>147.0</ele><time>2026-05-03T11:38:41.001Z</time></trkpt><trkpt lat="42.490733591872505" lon="14.139533927547921"><ele>149.0</ele><time>2026-05-03T11:38:42.001Z</time></trkpt><trkpt lat="42.49082849009647" lon="14.13963957691681"><ele>151.0</ele><time>2026-05-03T11:38:44.001Z</time></trkpt><trkpt lat="42.49085383601865" lon="14.139733707077372"><ele>151.0</ele><time>2026-05-03T11:38:45.001Z</time></trkpt><trkpt lat="42.49085830108746" lon="14.139843890880593"><ele>151.0</ele><time>2026-05-03T11:38:46.001Z</time></trkpt><trkpt lat="42.49085841090845" lon="14.13996527805821"><ele>151.0</ele><time>2026-05-03T11:38:47.001Z</time></trkpt><trkpt lat="42.49085571156527" lon="14.140098870430512"><ele>151.0</ele><time>2026-05-03T11:38:48.001Z</time></trkpt><trkpt lat="42.49085420557601" lon="14.140233758213817"><ele>151.0</ele><time>2026-05-03T11:38:49.001Z</time></trkpt><trkpt lat="42.49085473848902" lon="14.140374312180896"><ele>151.66666666666669</ele><time>2026-05-03T11:38:50.001Z</time></trkpt><trkpt lat="42.49085545877417" lon="14.14051322573591"><ele>152.33333333333334</ele><time>2026-05-03T11:38:51.001Z</time></trkpt><trkpt lat="42.490856686018304" lon="14.140633645569054"><ele>153.0</ele><time>2026-05-03T11:38:52.001Z</time></trkpt><trkpt lat="42.490867027979284" lon="14.140737676554593"><ele>153.66666666666666</ele><time>2026-05-03T11:38:53.001Z</time></trkpt><trkpt lat="42.49089643401117" lon="14.140827890086205"><ele>154.33333333333331</ele><time>2026-05-03T11:38:54.001Z</time></trkpt><trkpt lat="42.490947957347345" lon="14.140887006025627"><ele>155.0</ele><time>2026-05-03T11:38:55.001Z</time></trkpt><trkpt lat="42.491088382010275" lon="14.14084660246758"><ele>155.0</ele><time>2026-05-03T11:38:57.001Z</time></trkpt><trkpt lat="42.49114425687687" lon="14.14078340104371"><ele>155.0</ele><time>2026-05-03T11:38:58.001Z</time></trkpt><trkpt lat="42.49118703001627" lon="14.140709522020526"><ele>155.0</ele><time>2026-05-03T11:38:59.001Z</time></trkpt><trkpt lat="42.49125410418711" lon="14.140581003344476"><ele>155.0</ele><time>2026-05-03T11:39:01.001Z</time></trkpt><trkpt lat="42.49130713155581" lon="14.140530484029345"><ele>155.0</ele><time>2026-05-03T11:39:02.001Z</time></trkpt><trkpt lat="42.491381595480945" lon="14.140415585214324"><ele>155.0</ele><time>2026-05-03T11:39:04.001Z</time></trkpt><trkpt lat="42.49144277069134" lon="14.140318226608215"><ele>156.2</ele><time>2026-05-03T11:39:06.001Z</time></trkpt><trkpt lat="42.49150798025387" lon="14.140348074955709"><ele>157.4</ele><time>2026-05-03T11:39:07.001Z</time></trkpt><trkpt lat="42.49156793058834" lon="14.140432076722975"><ele>158.60000000000002</ele><time>2026-05-03T11:39:08.001Z</time></trkpt><trkpt lat="42.491611822673896" lon="14.140551623039334"><ele>159.8</ele><time>2026-05-03T11:39:09.001Z</time></trkpt><trkpt lat="42.4916473470817" lon="14.1406983714104"><ele>161.0</ele><time>2026-05-03T11:39:10.001Z</time></trkpt><trkpt lat="42.491684107942746" lon="14.14086766403165"><ele>161.0</ele><time>2026-05-03T11:39:11.001Z</time></trkpt><trkpt lat="42.49172402303583" lon="14.141031942791326"><ele>161.0</ele><time>2026-05-03T11:39:12.001Z</time></trkpt><trkpt lat="42.491754081257305" lon="14.141185011866297"><ele>161.0</ele><time>2026-05-03T11:39:13.001Z</time></trkpt><trkpt lat="42.49176966435974" lon="14.14133589721631"><ele>161.0</ele><time>2026-05-03T11:39:14.001Z</time></trkpt><trkpt lat="42.49176644285443" lon="14.141481879010287"><ele>161.0</ele><time>2026-05-03T11:39:15.001Z</time></trkpt><trkpt lat="42.491744905140216" lon="14.141621563575118"><ele>161.0</ele><time>2026-05-03T11:39:16.001Z</time></trkpt><trkpt lat="42.491708313769564" lon="14.14175623727539"><ele>161.0</ele><time>2026-05-03T11:39:17.001Z</time></trkpt><trkpt lat="42.49166045702581" lon="14.141883653695064"><ele>161.0</ele><time>2026-05-03T11:39:18.001Z</time></trkpt><trkpt lat="42.49161043812655" lon="14.142015413010228"><ele>161.0</ele><time>2026-05-03T11:39:19.001Z</time></trkpt><trkpt lat="42.491578463501554" lon="14.142149971887594"><ele>161.0</ele><time>2026-05-03T11:39:20.001Z</time></trkpt><trkpt lat="42.491583566322966" lon="14.142281811717245"><ele>161.0</ele><time>2026-05-03T11:39:21.001Z</time></trkpt><trkpt lat="42.49162872938799" lon="14.142402254693652"><ele>161.0</ele><time>2026-05-03T11:39:22.001Z</time></trkpt><trkpt lat="42.49169551284316" lon="14.142513716944748"><ele>161.0</ele><time>2026-05-03T11:39:23.001Z</time></trkpt><trkpt lat="42.49175949114101" lon="14.142624788877146"><ele>161.0</ele><time>2026-05-03T11:39:24.001Z</time></trkpt><trkpt lat="42.49179406500965" lon="14.142747427966835"><ele>160.33333333333331</ele><time>2026-05-03T11:39:25.001Z</time></trkpt><trkpt lat="42.491798461145144" lon="14.142870743876244"><ele>159.66666666666666</ele><time>2026-05-03T11:39:26.001Z</time></trkpt><trkpt lat="42.491774794112246" lon="14.142985731290658"><ele>159.0</ele><time>2026-05-03T11:39:27.001Z</time></trkpt><trkpt lat="42.491719835698525" lon="14.143075245039766"><ele>158.33333333333334</ele><time>2026-05-03T11:39:28.001Z</time></trkpt><trkpt lat="42.4916533064003" lon="14.143147201421653"><ele>157.66666666666669</ele><time>2026-05-03T11:39:29.001Z</time></trkpt><trkpt lat="42.49158586065051" lon="14.14322853950393"><ele>157.0</ele><time>2026-05-03T11:39:30.001Z</time></trkpt><trkpt lat="42.49154519658283" lon="14.143322926095811"><ele>156.2</ele><time>2026-05-03T11:39:31.001Z</time></trkpt><trkpt lat="42.49152813669293" lon="14.143435930211174"><ele>155.39999999999998</ele><time>2026-05-03T11:39:32.001Z</time></trkpt><trkpt lat="42.49154260412413" lon="14.143570320402803"><ele>154.60000000000002</ele><time>2026-05-03T11:39:33.002Z</time></trkpt><trkpt lat="42.49159763605098" lon="14.143715458827838"><ele>153.8</ele><time>2026-05-03T11:39:34.002Z</time></trkpt><trkpt lat="42.49166870843751" lon="14.143862344303798"><ele>153.0</ele><time>2026-05-03T11:39:35.002Z</time></trkpt><trkpt lat="42.491742406496286" lon="14.143997520132237"><ele>154.0</ele><time>2026-05-03T11:39:36.002Z</time></trkpt><trkpt lat="42.49182455837355" lon="14.144109326347543"><ele>155.0</ele><time>2026-05-03T11:39:37.002Z</time></trkpt><trkpt lat="42.49193834418416" lon="14.144192849545972"><ele>156.0</ele><time>2026-05-03T11:39:38.002Z</time></trkpt><trkpt lat="42.492059827704914" lon="14.144247652092789"><ele>157.0</ele><time>2026-05-03T11:39:39.002Z</time></trkpt><trkpt lat="42.492177389548836" lon="14.144287874421723"><ele>150.75</ele><time>2026-05-03T11:39:40.002Z</time></trkpt><trkpt lat="42.492300009359155" lon="14.144333653717874"><ele>144.5</ele><time>2026-05-03T11:39:41.002Z</time></trkpt><trkpt lat="42.49241414294331" lon="14.144414755837525"><ele>138.25</ele><time>2026-05-03T11:39:42.002Z</time></trkpt><trkpt lat="42.49252920248179" lon="14.144477523123367"><ele>132.0</ele><time>2026-05-03T11:39:43.002Z</time></trkpt><trkpt lat="42.49264666202012" lon="14.144523542998305"><ele>132.0</ele><time>2026-05-03T11:39:44.002Z</time></trkpt><trkpt lat="42.492749292395516" lon="14.144587841795365"><ele>132.0</ele><time>2026-05-03T11:39:45.002Z</time></trkpt><trkpt lat="42.49284062913439" lon="14.144640721875644"><ele>132.0</ele><time>2026-05-03T11:39:45.999Z</time></trkpt><trkpt lat="42.492922529897136" lon="14.144708009631621"><ele>132.0</ele><time>2026-05-03T11:39:46.999Z</time></trkpt><trkpt lat="42.49298008881467" lon="14.144792754530108"><ele>132.0</ele><time>2026-05-03T11:39:47.999Z</time></trkpt><trkpt lat="42.49303412319544" lon="14.144904410632074"><ele>133.0</ele><time>2026-05-03T11:39:48.999Z</time></trkpt><trkpt lat="42.493103449293805" lon="14.145024556098674"><ele>134.0</ele><time>2026-05-03T11:39:49.999Z</time></trkpt><trkpt lat="42.49318667778789" lon="14.145139853838751"><ele>135.0</ele><time>2026-05-03T11:39:50.999Z</time></trkpt><trkpt lat="42.49328211004658" lon="14.145225747348363"><ele>136.0</ele><time>2026-05-03T11:39:51.999Z</time></trkpt><trkpt lat="42.49337627156343" lon="14.145275189691553"><ele>137.0</ele><time>2026-05-03T11:39:52.999Z</time></trkpt><trkpt lat="42.49346168902118" lon="14.145308299467713"><ele>137.0</ele><time>2026-05-03T11:39:53.999Z</time></trkpt><trkpt lat="42.49355478677878" lon="14.145310347509513"><ele>137.0</ele><time>2026-05-03T11:39:54.999Z</time></trkpt><trkpt lat="42.49364949069135" lon="14.145264995271093"><ele>137.0</ele><time>2026-05-03T11:39:55.999Z</time></trkpt><trkpt lat="42.49375193235216" lon="14.14522251247145"><ele>137.0</ele><time>2026-05-03T11:39:56.999Z</time></trkpt><trkpt lat="42.49381509219139" lon="14.145116785302918"><ele>137.0</ele><time>2026-05-03T11:39:57.999Z</time></trkpt><trkpt lat="42.49386198378834" lon="14.145012753387869"><ele>132.25</ele><time>2026-05-03T11:39:58.999Z</time></trkpt><trkpt lat="42.493906736272585" lon="14.144876941270292"><ele>127.5</ele><time>2026-05-03T11:39:59.999Z</time></trkpt><trkpt lat="42.49394633521799" lon="14.144725743163255"><ele>122.75</ele><time>2026-05-03T11:40:00.999Z</time></trkpt><trkpt lat="42.49398380679405" lon="14.144577294726574"><ele>118.0</ele><time>2026-05-03T11:40:01.999Z</time></trkpt><trkpt lat="42.49401089770705" lon="14.14442823645575"><ele>118.0</ele><time>2026-05-03T11:40:02.999Z</time></trkpt><trkpt lat="42.4940600349111" lon="14.144287896860762"><ele>118.00000000000001</ele><time>2026-05-03T11:40:03.999Z</time></trkpt><trkpt lat="42.49411064725799" lon="14.144166550817458"><ele>118.00000000000001</ele><time>2026-05-03T11:40:04.999Z</time></trkpt><trkpt lat="42.49417703119386" lon="14.144078027401873"><ele>118.0</ele><time>2026-05-03T11:40:05.999Z</time></trkpt><trkpt lat="42.494259119564475" lon="14.143978322009538"><ele>118.0</ele><time>2026-05-03T11:40:06.999Z</time></trkpt><trkpt lat="42.4943607125331" lon="14.143919840287118"><ele>115.2</ele><time>2026-05-03T11:40:07.999Z</time></trkpt><trkpt lat="42.494462355439126" lon="14.143871485633348"><ele>112.4</ele><time>2026-05-03T11:40:08.999Z</time></trkpt><trkpt lat="42.49455981825902" lon="14.14384306690535"><ele>109.60000000000001</ele><time>2026-05-03T11:40:09.999Z</time></trkpt><trkpt lat="42.494671611214855" lon="14.143843102037952"><ele>106.80000000000001</ele><time>2026-05-03T11:40:10.999Z</time></trkpt><trkpt lat="42.494791039459066" lon="14.143856591450076"><ele>104.0</ele><time>2026-05-03T11:40:11.999Z</time></trkpt><trkpt lat="42.494923110498185" lon="14.143858478432115"><ele>104.0</ele><time>2026-05-03T11:40:12.999Z</time></trkpt><trkpt lat="42.495074432880216" lon="14.143839360311961"><ele>104.0</ele><time>2026-05-03T11:40:14Z</time></trkpt><trkpt lat="42.49522094072482" lon="14.143798513931554"><ele>104.0</ele><time>2026-05-03T11:40:15Z</time></trkpt><trkpt lat="42.495354031914445" lon="14.143745555232401"><ele>104.0</ele><time>2026-05-03T11:40:16Z</time></trkpt><trkpt lat="42.49547626121872" lon="14.143699369020911"><ele>105.75</ele><time>2026-05-03T11:40:17Z</time></trkpt><trkpt lat="42.49559866214121" lon="14.143642504210675"><ele>107.5</ele><time>2026-05-03T11:40:18Z</time></trkpt><trkpt lat="42.495729338939604" lon="14.143543215814148"><ele>109.25</ele><time>2026-05-03T11:40:19Z</time></trkpt><trkpt lat="42.49585780939922" lon="14.143423275502375"><ele>111.0</ele><time>2026-05-03T11:40:20Z</time></trkpt><trkpt lat="42.49598477129073" lon="14.143296652058318"><ele>108.0</ele><time>2026-05-03T11:40:21Z</time></trkpt><trkpt lat="42.49611878728872" lon="14.1431790760826"><ele>105.0</ele><time>2026-05-03T11:40:22Z</time></trkpt><trkpt lat="42.49625185467659" lon="14.14306645823717"><ele>102.0</ele><time>2026-05-03T11:40:23Z</time></trkpt><trkpt lat="42.49638120976228" lon="14.142960626486506"><ele>101.5</ele><time>2026-05-03T11:40:24Z</time></trkpt><trkpt lat="42.496509272739765" lon="14.142858286215558"><ele>101.0</ele><time>2026-05-03T11:40:25Z</time></trkpt><trkpt lat="42.49663175205728" lon="14.142759218620116"><ele>100.5</ele><time>2026-05-03T11:40:26Z</time></trkpt><trkpt lat="42.4967513454415" lon="14.142659594861259"><ele>100.0</ele><time>2026-05-03T11:40:27Z</time></trkpt><trkpt lat="42.49686488084543" lon="14.14255803033367"><ele>100.0</ele><time>2026-05-03T11:40:28Z</time></trkpt><trkpt lat="42.496969614026796" lon="14.142447868230203"><ele>100.0</ele><time>2026-05-03T11:40:29Z</time></trkpt><trkpt lat="42.497067875721285" lon="14.142335791063234"><ele>100.0</ele><time>2026-05-03T11:40:30Z</time></trkpt><trkpt lat="42.497160975600195" lon="14.142224960164755"><ele>100.0</ele><time>2026-05-03T11:40:31Z</time></trkpt><trkpt lat="42.49724519893492" lon="14.14212432208904"><ele>97.50000000000001</ele><time>2026-05-03T11:40:32Z</time></trkpt><trkpt lat="42.49733123413746" lon="14.14205804713663"><ele>95.0</ele><time>2026-05-03T11:40:33Z</time></trkpt><trkpt lat="42.497391370894434" lon="14.141995273788998"><ele>92.5</ele><time>2026-05-03T11:40:34Z</time></trkpt><trkpt lat="42.49744824827725" lon="14.141948832560514"><ele>90.0</ele><time>2026-05-03T11:40:35Z</time></trkpt><trkpt lat="42.49751764693869" lon="14.141962646380904"><ele>87.5</ele><time>2026-05-03T11:40:36Z</time></trkpt><trkpt lat="42.49757041826879" lon="14.142036417040723"><ele>85.0</ele><time>2026-05-03T11:40:37Z</time></trkpt><trkpt lat="42.49759806800559" lon="14.142136580474157"><ele>85.0</ele><time>2026-05-03T11:40:38Z</time></trkpt><trkpt lat="42.49758379329904" lon="14.142252376935213"><ele>85.0</ele><time>2026-05-03T11:40:39Z</time></trkpt><trkpt lat="42.49753400785971" lon="14.142360487006918"><ele>85.0</ele><time>2026-05-03T11:40:40Z</time></trkpt><trkpt lat="42.49745948657815" lon="14.142477497870907"><ele>85.0</ele><time>2026-05-03T11:40:41Z</time></trkpt><trkpt lat="42.497374525853324" lon="14.142615806559244"><ele>85.0</ele><time>2026-05-03T11:40:42Z</time></trkpt><trkpt lat="42.49729642965726" lon="14.142757446905346"><ele>85.25</ele><time>2026-05-03T11:40:43Z</time></trkpt><trkpt lat="42.497215470328705" lon="14.142899112832016"><ele>85.5</ele><time>2026-05-03T11:40:44Z</time></trkpt><trkpt lat="42.497128713403825" lon="14.143048301074954"><ele>85.75</ele><time>2026-05-03T11:40:45Z</time></trkpt><trkpt lat="42.49703933831091" lon="14.143210841634584"><ele>86.0</ele><time>2026-05-03T11:40:46Z</time></trkpt><trkpt lat="42.496948832131075" lon="14.14337055191881"><ele>88.5</ele><time>2026-05-03T11:40:47Z</time></trkpt><trkpt lat="42.49685725010783" lon="14.1435278551839"><ele>91.0</ele><time>2026-05-03T11:40:48Z</time></trkpt><trkpt lat="42.49676367152192" lon="14.143681132746773"><ele>93.5</ele><time>2026-05-03T11:40:49Z</time></trkpt><trkpt lat="42.49667308290879" lon="14.143817685564606"><ele>96.0</ele><time>2026-05-03T11:40:50Z</time></trkpt><trkpt lat="42.49658677251828" lon="14.143938270362213"><ele>96.0</ele><time>2026-05-03T11:40:51Z</time></trkpt><trkpt lat="42.49650678935354" lon="14.144040092671327"><ele>96.0</ele><time>2026-05-03T11:40:52Z</time></trkpt><trkpt lat="42.49644629894501" lon="14.144147259371668"><ele>96.0</ele><time>2026-05-03T11:40:53Z</time></trkpt><trkpt lat="42.49640537312849" lon="14.14427555365059"><ele>96.0</ele><time>2026-05-03T11:40:54Z</time></trkpt><trkpt lat="42.49638525544656" lon="14.14442240819877"><ele>96.0</ele><time>2026-05-03T11:40:55Z</time></trkpt><trkpt lat="42.496384156792274" lon="14.144572363174994"><ele>92.5</ele><time>2026-05-03T11:40:56Z</time></trkpt><trkpt lat="42.496397808843945" lon="14.144722454063745"><ele>89.0</ele><time>2026-05-03T11:40:57Z</time></trkpt><trkpt lat="42.496404690645114" lon="14.14487138919034"><ele>85.5</ele><time>2026-05-03T11:40:58.001Z</time></trkpt><trkpt lat="42.49638450983763" lon="14.145022497366867"><ele>82.0</ele><time>2026-05-03T11:40:59.001Z</time></trkpt><trkpt lat="42.49634166271221" lon="14.145170795304958"><ele>82.0</ele><time>2026-05-03T11:41:00.001Z</time></trkpt><trkpt lat="42.49627186156144" lon="14.145308005864662"><ele>82.0</ele><time>2026-05-03T11:41:01.001Z</time></trkpt><trkpt lat="42.496200596657516" lon="14.145427473383222"><ele>82.0</ele><time>2026-05-03T11:41:02.001Z</time></trkpt><trkpt lat="42.49615074106202" lon="14.145545500572254"><ele>82.0</ele><time>2026-05-03T11:41:03.001Z</time></trkpt><trkpt lat="42.49613228397141" lon="14.145664190414053"><ele>82.0</ele><time>2026-05-03T11:41:04.001Z</time></trkpt><trkpt lat="42.49614859193309" lon="14.14578189668783"><ele>82.0</ele><time>2026-05-03T11:41:05.001Z</time></trkpt><trkpt lat="42.49618286671613" lon="14.145890788802342"><ele>82.0</ele><time>2026-05-03T11:41:06.001Z</time></trkpt><trkpt lat="42.49625068184428" lon="14.145982112740745"><ele>82.0</ele><time>2026-05-03T11:41:07.001Z</time></trkpt><trkpt lat="42.496347358151205" lon="14.146040535736457"><ele>82.0</ele><time>2026-05-03T11:41:08.001Z</time></trkpt><trkpt lat="42.49644691344101" lon="14.146054056340798"><ele>82.0</ele><time>2026-05-03T11:41:09.001Z</time></trkpt><trkpt lat="42.496540517649194" lon="14.146011140856674"><ele>80.0</ele><time>2026-05-03T11:41:10.001Z</time></trkpt><trkpt lat="42.496614603863094" lon="14.145937405902707"><ele>78.0</ele><time>2026-05-03T11:41:11.001Z</time></trkpt><trkpt lat="42.49665649210277" lon="14.145846148477343"><ele>76.0</ele><time>2026-05-03T11:41:12.001Z</time></trkpt><trkpt lat="42.49670571238182" lon="14.145718733576905"><ele>74.0</ele><time>2026-05-03T11:41:13.001Z</time></trkpt><trkpt lat="42.49671977965871" lon="14.145584095094762"><ele>72.0</ele><time>2026-05-03T11:41:14.001Z</time></trkpt><trkpt lat="42.496709420641125" lon="14.145446984943868"><ele>71.5</ele><time>2026-05-03T11:41:15.001Z</time></trkpt><trkpt lat="42.49671930561505" lon="14.145297168683193"><ele>71.0</ele><time>2026-05-03T11:41:16.001Z</time></trkpt><trkpt lat="42.49676193244344" lon="14.145164478078735"><ele>70.5</ele><time>2026-05-03T11:41:17.001Z</time></trkpt><trkpt lat="42.496797430779644" lon="14.145015111170562"><ele>70.0</ele><time>2026-05-03T11:41:18.001Z</time></trkpt><trkpt lat="42.49687531484072" lon="14.144871516968577"><ele>67.5</ele><time>2026-05-03T11:41:19.001Z</time></trkpt><trkpt lat="42.496961087522145" lon="14.144743749833015"><ele>65.0</ele><time>2026-05-03T11:41:20.001Z</time></trkpt><trkpt lat="42.497055239623876" lon="14.144642206037748"><ele>62.5</ele><time>2026-05-03T11:41:21.001Z</time></trkpt><trkpt lat="42.49716185925775" lon="14.144557768391799"><ele>60.0</ele><time>2026-05-03T11:41:22.001Z</time></trkpt><trkpt lat="42.49727718292809" lon="14.144485490325238"><ele>60.0</ele><time>2026-05-03T11:41:23.001Z</time></trkpt><trkpt lat="42.49739078890935" lon="14.14441200017393"><ele>60.0</ele><time>2026-05-03T11:41:24.001Z</time></trkpt><trkpt lat="42.49750028662524" lon="14.144327576932683"><ele>60.0</ele><time>2026-05-03T11:41:25.001Z</time></trkpt><trkpt lat="42.49759991523665" lon="14.144228588107618"><ele>60.0</ele><time>2026-05-03T11:41:26.001Z</time></trkpt><trkpt lat="42.497695470543576" lon="14.144099183681778"><ele>57.75</ele><time>2026-05-03T11:41:27.001Z</time></trkpt><trkpt lat="42.49779132608175" lon="14.143964394668814"><ele>55.5</ele><time>2026-05-03T11:41:28.001Z</time></trkpt><trkpt lat="42.497891280877845" lon="14.143825180066449"><ele>53.25</ele><time>2026-05-03T11:41:29.001Z</time></trkpt><trkpt lat="42.4979904237963" lon="14.143688451962914"><ele>51.0</ele><time>2026-05-03T11:41:30.001Z</time></trkpt><trkpt lat="42.498083925536626" lon="14.14355077936503"><ele>51.0</ele><time>2026-05-03T11:41:31.001Z</time></trkpt><trkpt lat="42.49817049754822" lon="14.143410743526758"><ele>51.0</ele><time>2026-05-03T11:41:32.001Z</time></trkpt><trkpt lat="42.49824993210554" lon="14.14328135799986"><ele>51.0</ele><time>2026-05-03T11:41:33.001Z</time></trkpt><trkpt lat="42.49831318134367" lon="14.143172737647852"><ele>51.0</ele><time>2026-05-03T11:41:34.001Z</time></trkpt><trkpt lat="42.498367717011945" lon="14.14307783709919"><ele>52.85714285714286</ele><time>2026-05-03T11:41:35.001Z</time></trkpt><trkpt lat="42.498414058761405" lon="14.142985371757776"><ele>54.714285714285715</ele><time>2026-05-03T11:41:36.001Z</time></trkpt><trkpt lat="42.49845377117939" lon="14.142915729407594"><ele>56.57142857142857</ele><time>2026-05-03T11:41:37.001Z</time></trkpt><trkpt lat="42.49851381892283" lon="14.142856898734408"><ele>58.42857142857143</ele><time>2026-05-03T11:41:39.001Z</time></trkpt><trkpt lat="42.498562424146286" lon="14.142798852661862"><ele>60.28571428571428</ele><time>2026-05-03T11:41:44.001Z</time></trkpt><trkpt lat="42.498618645054655" lon="14.142739496462715"><ele>62.14285714285714</ele><time>2026-05-03T11:41:47.002Z</time></trkpt><trkpt lat="42.49868379233403" lon="14.142702046817465"><ele>64.0</ele><time>2026-05-03T11:41:52.999Z</time></trkpt><trkpt lat="42.49874793204584" lon="14.142656832664004"><ele>58.75</ele><time>2026-05-03T11:41:54.999Z</time></trkpt><trkpt lat="42.49876435444165" lon="14.142479293048329"><ele>53.5</ele><time>2026-05-03T11:41:55.999Z</time></trkpt><trkpt lat="42.49879290893594" lon="14.142314854797315"><ele>48.25</ele><time>2026-05-03T11:41:56.999Z</time></trkpt><trkpt lat="42.49883544611299" lon="14.1421568470988"><ele>43.0</ele><time>2026-05-03T11:41:57.999Z</time></trkpt><trkpt lat="42.49890050941906" lon="14.141994004498208"><ele>43.0</ele><time>2026-05-03T11:41:58.999Z</time></trkpt><trkpt lat="42.498975926636106" lon="14.141842136510324"><ele>43.0</ele><time>2026-05-03T11:41:59.999Z</time></trkpt><trkpt lat="42.49905527543416" lon="14.14168702271175"><ele>43.0</ele><time>2026-05-03T11:42:00.999Z</time></trkpt><trkpt lat="42.49914331431113" lon="14.141532213323485"><ele>43.0</ele><time>2026-05-03T11:42:01.999Z</time></trkpt><trkpt lat="42.499244356920386" lon="14.141386309922208"><ele>45.25</ele><time>2026-05-03T11:42:02.999Z</time></trkpt><trkpt lat="42.499347798580196" lon="14.141252803157075"><ele>47.5</ele><time>2026-05-03T11:42:03.999Z</time></trkpt><trkpt lat="42.499452841859586" lon="14.141131511284216"><ele>49.75</ele><time>2026-05-03T11:42:04.999Z</time></trkpt><trkpt lat="42.49956064993911" lon="14.141022728662566"><ele>52.0</ele><time>2026-05-03T11:42:05.999Z</time></trkpt><trkpt lat="42.499670858908225" lon="14.140921298401077"><ele>48.75</ele><time>2026-05-03T11:42:06.999Z</time></trkpt><trkpt lat="42.49977335149237" lon="14.140814768270163"><ele>45.5</ele><time>2026-05-03T11:42:07.999Z</time></trkpt><trkpt lat="42.49986927241723" lon="14.140698112285163"><ele>42.25</ele><time>2026-05-03T11:42:08.999Z</time></trkpt><trkpt lat="42.49995516644603" lon="14.140575789660769"><ele>39.0</ele><time>2026-05-03T11:42:09.999Z</time></trkpt><trkpt lat="42.500035544690554" lon="14.140453042516537"><ele>39.0</ele><time>2026-05-03T11:42:10.999Z</time></trkpt><trkpt lat="42.500117230460766" lon="14.14033092226733"><ele>39.0</ele><time>2026-05-03T11:42:11.999Z</time></trkpt><trkpt lat="42.500197370448916" lon="14.14020873004457"><ele>39.0</ele><time>2026-05-03T11:42:12.999Z</time></trkpt><trkpt lat="42.500274395972355" lon="14.140086546379948"><ele>39.0</ele><time>2026-05-03T11:42:13.999Z</time></trkpt><trkpt lat="42.50035458680793" lon="14.13996394042388"><ele>35.75</ele><time>2026-05-03T11:42:14.999Z</time></trkpt><trkpt lat="42.500432164866325" lon="14.139840534543266"><ele>32.5</ele><time>2026-05-03T11:42:15.999Z</time></trkpt><trkpt lat="42.50051017569291" lon="14.139717682168426"><ele>29.25</ele><time>2026-05-03T11:42:16.999Z</time></trkpt><trkpt lat="42.50058367575696" lon="14.139597121648682"><ele>26.0</ele><time>2026-05-03T11:42:17.999Z</time></trkpt><trkpt lat="42.500651827073746" lon="14.139475980220265"><ele>26.0</ele><time>2026-05-03T11:42:18.999Z</time></trkpt><trkpt lat="42.500715718484756" lon="14.139352666097295"><ele>26.0</ele><time>2026-05-03T11:42:20Z</time></trkpt><trkpt lat="42.500782748129694" lon="14.139228494921834"><ele>26.0</ele><time>2026-05-03T11:42:21Z</time></trkpt><trkpt lat="42.500847898434394" lon="14.139099296618127"><ele>26.0</ele><time>2026-05-03T11:42:22Z</time></trkpt><trkpt lat="42.50091031850403" lon="14.138969898294311"><ele>25.0</ele><time>2026-05-03T11:42:23Z</time></trkpt><trkpt lat="42.50096736884566" lon="14.138841170738505"><ele>24.0</ele><time>2026-05-03T11:42:24Z</time></trkpt><trkpt lat="42.50102033718753" lon="14.138722701368604"><ele>23.0</ele><time>2026-05-03T11:42:25Z</time></trkpt><trkpt lat="42.501060761760606" lon="14.138638884617283"><ele>22.0</ele><time>2026-05-03T11:42:26Z</time></trkpt><trkpt lat="42.50112880916748" lon="14.13850959435192"><ele>21.0</ele><time>2026-05-03T11:42:28Z</time></trkpt><trkpt lat="42.50116518223445" lon="14.138426250179826"><ele>21.0</ele><time>2026-05-03T11:42:29Z</time></trkpt><trkpt lat="42.501191122940874" lon="14.138334206371274"><ele>21.0</ele><time>2026-05-03T11:42:30Z</time></trkpt><trkpt lat="42.50121485140438" lon="14.138211558104262"><ele>21.0</ele><time>2026-05-03T11:42:31Z</time></trkpt><trkpt lat="42.50125657453248" lon="14.138053778745325"><ele>21.0</ele><time>2026-05-03T11:42:32Z</time></trkpt><trkpt lat="42.50131012418912" lon="14.13786229717849"><ele>21.0</ele><time>2026-05-03T11:42:33Z</time></trkpt><trkpt lat="42.501370313595764" lon="14.137633344176608"><ele>19.333333333333332</ele><time>2026-05-03T11:42:34Z</time></trkpt><trkpt lat="42.501427279092255" lon="14.137414624808402"><ele>17.666666666666664</ele><time>2026-05-03T11:42:35Z</time></trkpt><trkpt lat="42.50148728313243" lon="14.137183662866445"><ele>16.0</ele><time>2026-05-03T11:42:36Z</time></trkpt><trkpt lat="42.50154689263745" lon="14.136953527993661"><ele>15.333333333333332</ele><time>2026-05-03T11:42:37Z</time></trkpt><trkpt lat="42.50160246261936" lon="14.13673702258921"><ele>14.666666666666668</ele><time>2026-05-03T11:42:38Z</time></trkpt><trkpt lat="42.50163730420828" lon="14.136518736554411"><ele>14.0</ele><time>2026-05-03T11:42:39Z</time></trkpt><trkpt lat="42.50168981814112" lon="14.136319783450196"><ele>14.0</ele><time>2026-05-03T11:42:40Z</time></trkpt><trkpt lat="42.50173980291698" lon="14.13612577854164"><ele>14.0</ele><time>2026-05-03T11:42:41Z</time></trkpt><trkpt lat="42.50178762875215" lon="14.135942276238618"><ele>14.0</ele><time>2026-05-03T11:42:42Z</time></trkpt><trkpt lat="42.50183421019904" lon="14.13576300218545"><ele>14.0</ele><time>2026-05-03T11:42:43Z</time></trkpt><trkpt lat="42.50189884956232" lon="14.135601400544221"><ele>14.25</ele><time>2026-05-03T11:42:44Z</time></trkpt><trkpt lat="42.50194153563051" lon="14.135439040886846"><ele>14.5</ele><time>2026-05-03T11:42:45Z</time></trkpt><trkpt lat="42.50198366992839" lon="14.135278950494282"><ele>14.75</ele><time>2026-05-03T11:42:46Z</time></trkpt><trkpt lat="42.5020075802279" lon="14.13513188096936"><ele>15.0</ele><time>2026-05-03T11:42:47Z</time></trkpt><trkpt lat="42.5020454687539" lon="14.135011092840534"><ele>14.833333333333334</ele><time>2026-05-03T11:42:48Z</time></trkpt><trkpt lat="42.50208290605711" lon="14.134916058976513"><ele>14.666666666666668</ele><time>2026-05-03T11:42:49Z</time></trkpt><trkpt lat="42.50212854928564" lon="14.134842478039648"><ele>14.5</ele><time>2026-05-03T11:42:50Z</time></trkpt><trkpt lat="42.50218308010687" lon="14.134789701049977"><ele>14.333333333333334</ele><time>2026-05-03T11:42:51Z</time></trkpt><trkpt lat="42.502262399045414" lon="14.134753187657342"><ele>14.166666666666668</ele><time>2026-05-03T11:42:52Z</time></trkpt><trkpt lat="42.50235331734112" lon="14.134734593877038"><ele>14.0</ele><time>2026-05-03T11:42:53Z</time></trkpt><trkpt lat="42.50244121551034" lon="14.134744921651349"><ele>14.000000000000002</ele><time>2026-05-03T11:42:54Z</time></trkpt><trkpt lat="42.5025178271859" lon="14.13478970620614"><ele>14.0</ele><time>2026-05-03T11:42:55Z</time></trkpt><trkpt lat="42.502575429528676" lon="14.134854956552427"><ele>14.0</ele><time>2026-05-03T11:42:56Z</time></trkpt><trkpt lat="42.502628868846216" lon="14.134918623023454"><ele>14.0</ele><time>2026-05-03T11:42:57Z</time></trkpt><trkpt lat="42.50268991845298" lon="14.13498800951506"><ele>14.000000000000002</ele><time>2026-05-03T11:42:58Z</time></trkpt><trkpt lat="42.50275202217949" lon="14.135058387990483"><ele>14.0</ele><time>2026-05-03T11:42:59Z</time></trkpt><trkpt lat="42.50280386638718" lon="14.135118041154193"><ele>14.0</ele><time>2026-05-03T11:43:00.001Z</time></trkpt><trkpt lat="42.50288766339014" lon="14.135215824637795"><ele>13.999999999999998</ele><time>2026-05-03T11:43:02.001Z</time></trkpt><trkpt lat="42.502973094602105" lon="14.135301301929173"><ele>13.999999999999998</ele><time>2026-05-03T11:43:04.001Z</time></trkpt><trkpt lat="42.50305605596889" lon="14.135329770858121"><ele>14.0</ele><time>2026-05-03T11:43:06.001Z</time></trkpt><trkpt lat="42.503118000347584" lon="14.135257963358333"><ele>14.0</ele><time>2026-05-03T11:43:08.001Z</time></trkpt><trkpt lat="42.50313877684257" lon="14.13516971744857"><ele>13.799999999999999</ele><time>2026-05-03T11:43:09.001Z</time></trkpt><trkpt lat="42.50315517244145" lon="14.135055847675446"><ele>13.599999999999998</ele><time>2026-05-03T11:43:10.001Z</time></trkpt><trkpt lat="42.50318092164686" lon="14.134916604121189"><ele>13.4</ele><time>2026-05-03T11:43:11.001Z</time></trkpt><trkpt lat="42.503215259294656" lon="14.134769011984467"><ele>13.2</ele><time>2026-05-03T11:43:12.001Z</time></trkpt><trkpt lat="42.50327867752401" lon="14.134632033970144"><ele>13.0</ele><time>2026-05-03T11:43:13.001Z</time></trkpt><trkpt lat="42.503326061279076" lon="14.134474093493637"><ele>13.0</ele><time>2026-05-03T11:43:14.001Z</time></trkpt><trkpt lat="42.50335042195594" lon="14.134312918477907"><ele>13.0</ele><time>2026-05-03T11:43:15.001Z</time></trkpt><trkpt lat="42.50339077243515" lon="14.134167642229407"><ele>13.0</ele><time>2026-05-03T11:43:16.001Z</time></trkpt><trkpt lat="42.50342334521124" lon="14.134029713546928"><ele>13.0</ele><time>2026-05-03T11:43:17.001Z</time></trkpt><trkpt lat="42.50345594466159" lon="14.13391002645282"><ele>13.0</ele><time>2026-05-03T11:43:18.001Z</time></trkpt><trkpt lat="42.50349059841599" lon="14.133807421518078"><ele>13.0</ele><time>2026-05-03T11:43:19.001Z</time></trkpt><trkpt lat="42.503542750973914" lon="14.133702116583018"><ele>13.0</ele><time>2026-05-03T11:43:20.001Z</time></trkpt><trkpt lat="42.50361859482045" lon="14.13360956570033"><ele>13.0</ele><time>2026-05-03T11:43:21.001Z</time></trkpt><trkpt lat="42.50372226097534" lon="14.1335219732095"><ele>13.0</ele><time>2026-05-03T11:43:22.001Z</time></trkpt><trkpt lat="42.50383232079829" lon="14.133431305220688"><ele>13.0</ele><time>2026-05-03T11:43:23.001Z</time></trkpt><trkpt lat="42.503939090708485" lon="14.13333091151706"><ele>13.0</ele><time>2026-05-03T11:43:24.001Z</time></trkpt><trkpt lat="42.50404198891582" lon="14.133234484644358"><ele>13.0</ele><time>2026-05-03T11:43:25.001Z</time></trkpt><trkpt lat="42.50413550813943" lon="14.133150900060892"><ele>13.0</ele><time>2026-05-03T11:43:26.001Z</time></trkpt><trkpt lat="42.50421917763552" lon="14.133073598351737"><ele>13.0</ele><time>2026-05-03T11:43:27.001Z</time></trkpt><trkpt lat="42.504300421476806" lon="14.132998139257511"><ele>13.0</ele><time>2026-05-03T11:43:28.001Z</time></trkpt><trkpt lat="42.50439553233275" lon="14.132910169949591"><ele>13.0</ele><time>2026-05-03T11:43:29.001Z</time></trkpt><trkpt lat="42.504492889963885" lon="14.132818818965998"><ele>13.0</ele><time>2026-05-03T11:43:30.001Z</time></trkpt><trkpt lat="42.504589419533865" lon="14.132719451687663"><ele>13.0</ele><time>2026-05-03T11:43:31.001Z</time></trkpt><trkpt lat="42.504693417790136" lon="14.132609308100005"><ele>13.0</ele><time>2026-05-03T11:43:32.001Z</time></trkpt><trkpt lat="42.50480612221351" lon="14.132499650212706"><ele>12.0</ele><time>2026-05-03T11:43:33.001Z</time></trkpt><trkpt lat="42.50491685347541" lon="14.13239921338969"><ele>11.0</ele><time>2026-05-03T11:43:34.001Z</time></trkpt><trkpt lat="42.50503665545871" lon="14.132293215586897"><ele>10.0</ele><time>2026-05-03T11:43:35.001Z</time></trkpt><trkpt lat="42.50516659244967" lon="14.132199394823267"><ele>9.0</ele><time>2026-05-03T11:43:36.001Z</time></trkpt><trkpt lat="42.50526503469426" lon="14.132079914808902"><ele>9.0</ele><time>2026-05-03T11:43:37.001Z</time></trkpt><trkpt lat="42.505366750885855" lon="14.131990802256253"><ele>9.0</ele><time>2026-05-03T11:43:38.001Z</time></trkpt><trkpt lat="42.505472964553356" lon="14.131893205002733"><ele>9.0</ele><time>2026-05-03T11:43:39.001Z</time></trkpt><trkpt lat="42.50558416081903" lon="14.131791120115595"><ele>9.0</ele><time>2026-05-03T11:43:40.001Z</time></trkpt><trkpt lat="42.50569728696941" lon="14.131687742937718"><ele>9.0</ele><time>2026-05-03T11:43:41.001Z</time></trkpt><trkpt lat="42.50581394706948" lon="14.131582690675243"><ele>9.0</ele><time>2026-05-03T11:43:42.001Z</time></trkpt><trkpt lat="42.50593141106608" lon="14.131478229436516"><ele>9.0</ele><time>2026-05-03T11:43:43.001Z</time></trkpt><trkpt lat="42.50604686912087" lon="14.131373453016687"><ele>9.0</ele><time>2026-05-03T11:43:44.001Z</time></trkpt><trkpt lat="42.5061642154131" lon="14.131271177942514"><ele>9.0</ele><time>2026-05-03T11:43:45.002Z</time></trkpt><trkpt lat="42.506285422844094" lon="14.131174666037957"><ele>9.0</ele><time>2026-05-03T11:43:46.002Z</time></trkpt><trkpt lat="42.50641008753655" lon="14.131088808870041"><ele>9.0</ele><time>2026-05-03T11:43:47.002Z</time></trkpt><trkpt lat="42.5065340304183" lon="14.131011086240463"><ele>9.0</ele><time>2026-05-03T11:43:48.002Z</time></trkpt><trkpt lat="42.50665395096629" lon="14.130948212560055"><ele>9.0</ele><time>2026-05-03T11:43:49.002Z</time></trkpt><trkpt lat="42.50677785266689" lon="14.130889458200972"><ele>9.0</ele><time>2026-05-03T11:43:50.002Z</time></trkpt><trkpt lat="42.50690671917586" lon="14.130832206803268"><ele>9.0</ele><time>2026-05-03T11:43:51.002Z</time></trkpt><trkpt lat="42.50704294733254" lon="14.130776645790041"><ele>9.0</ele><time>2026-05-03T11:43:52.002Z</time></trkpt><trkpt lat="42.50718109780677" lon="14.130728952836403"><ele>9.75</ele><time>2026-05-03T11:43:53.002Z</time></trkpt><trkpt lat="42.5073281857105" lon="14.130687680708231"><ele>10.5</ele><time>2026-05-03T11:43:54.002Z</time></trkpt><trkpt lat="42.507473848147164" lon="14.13064876833701"><ele>11.25</ele><time>2026-05-03T11:43:55.002Z</time></trkpt><trkpt lat="42.50760149893634" lon="14.130601245351706"><ele>12.0</ele><time>2026-05-03T11:43:56.002Z</time></trkpt><trkpt lat="42.50771892596958" lon="14.130544759365389"><ele>12.0</ele><time>2026-05-03T11:43:57.002Z</time></trkpt><trkpt lat="42.50783953950255" lon="14.130473351971867"><ele>12.0</ele><time>2026-05-03T11:43:57.999Z</time></trkpt><trkpt lat="42.507963240937066" lon="14.130385183665293"><ele>12.0</ele><time>2026-05-03T11:43:58.999Z</time></trkpt><trkpt lat="42.50809199491762" lon="14.130289812070357"><ele>12.0</ele><time>2026-05-03T11:43:59.999Z</time></trkpt><trkpt lat="42.508218858457134" lon="14.130192805841423"><ele>12.0</ele><time>2026-05-03T11:44:00.999Z</time></trkpt><trkpt lat="42.508334179713955" lon="14.130094196862796"><ele>12.0</ele><time>2026-05-03T11:44:01.999Z</time></trkpt><trkpt lat="42.508435918258805" lon="14.130004183433"><ele>12.0</ele><time>2026-05-03T11:44:02.999Z</time></trkpt><trkpt lat="42.50853050856869" lon="14.129920139451901"><ele>12.0</ele><time>2026-05-03T11:44:03.999Z</time></trkpt><trkpt lat="42.50860751163789" lon="14.12984986963192"><ele>11.0</ele><time>2026-05-03T11:44:04.999Z</time></trkpt><trkpt lat="42.5086659483323" lon="14.129798298793549"><ele>10.0</ele><time>2026-05-03T11:44:05.999Z</time></trkpt><trkpt lat="42.5087495251623" lon="14.129731166561166"><ele>9.0</ele><time>2026-05-03T11:44:07.999Z</time></trkpt><trkpt lat="42.50882169686023" lon="14.12976860301118"><ele>8.0</ele><time>2026-05-03T11:44:08.999Z</time></trkpt><trkpt lat="42.50890039270944" lon="14.129791691710864"><ele>7.0</ele><time>2026-05-03T11:44:09.999Z</time></trkpt><trkpt lat="42.50898706925844" lon="14.129769154100263"><ele>6.0</ele><time>2026-05-03T11:44:10.999Z</time></trkpt><trkpt lat="42.509073825384434" lon="14.129769154100396"><ele>6.25</ele><time>2026-05-03T11:44:11.999Z</time></trkpt><trkpt lat="42.50915944042078" lon="14.129992022936921"><ele>6.5</ele><time>2026-05-03T11:44:12.999Z</time></trkpt><trkpt lat="42.50923849254765" lon="14.130117023756787"><ele>6.75</ele><time>2026-05-03T11:44:13.999Z</time></trkpt><trkpt lat="42.509323475010106" lon="14.130240665737437"><ele>7.0</ele><time>2026-05-03T11:44:14.999Z</time></trkpt><trkpt lat="42.50941593729026" lon="14.130372210394228"><ele>7.0</ele><time>2026-05-03T11:44:15.999Z</time></trkpt><trkpt lat="42.50951031298827" lon="14.130509111092245"><ele>7.0</ele><time>2026-05-03T11:44:16.999Z</time></trkpt><trkpt lat="42.509606908413005" lon="14.130653604952583"><ele>7.0</ele><time>2026-05-03T11:44:17.999Z</time></trkpt><trkpt lat="42.50971030555608" lon="14.13080693276183"><ele>7.0</ele><time>2026-05-03T11:44:18.999Z</time></trkpt><trkpt lat="42.50981496288104" lon="14.130960058642435"><ele>6.333333333333334</ele><time>2026-05-03T11:44:19.999Z</time></trkpt><trkpt lat="42.5099176140803" lon="14.131115138237938"><ele>5.666666666666667</ele><time>2026-05-03T11:44:20.999Z</time></trkpt><trkpt lat="42.51002403313929" lon="14.131284260087773"><ele>5.0</ele><time>2026-05-03T11:44:21.999Z</time></trkpt><trkpt lat="42.510132175125165" lon="14.131463033105057"><ele>5.333333333333334</ele><time>2026-05-03T11:44:22.999Z</time></trkpt><trkpt lat="42.51023618151374" lon="14.131651610239087"><ele>5.666666666666667</ele><time>2026-05-03T11:44:23.999Z</time></trkpt><trkpt lat="42.510337606183704" lon="14.131843527236008"><ele>6.0</ele><time>2026-05-03T11:44:24.999Z</time></trkpt><trkpt lat="42.5104397474391" lon="14.132035317754202"><ele>6.0</ele><time>2026-05-03T11:44:25.999Z</time></trkpt><trkpt lat="42.510539754416975" lon="14.132228870556277"><ele>6.0</ele><time>2026-05-03T11:44:27Z</time></trkpt><trkpt lat="42.510640040857254" lon="14.13242528389488"><ele>6.0</ele><time>2026-05-03T11:44:28Z</time></trkpt><trkpt lat="42.51074192405313" lon="14.132618279504964"><ele>6.0</ele><time>2026-05-03T11:44:29Z</time></trkpt><trkpt lat="42.51084453693567" lon="14.132808950894223"><ele>6.0</ele><time>2026-05-03T11:44:30Z</time></trkpt><trkpt lat="42.510951194013266" lon="14.132999150627388"><ele>6.0</ele><time>2026-05-03T11:44:31Z</time></trkpt><trkpt lat="42.51105975930874" lon="14.133180121983392"><ele>6.333333333333334</ele><time>2026-05-03T11:44:32Z</time></trkpt><trkpt lat="42.51117115732658" lon="14.133358764577977"><ele>6.666666666666667</ele><time>2026-05-03T11:44:33Z</time></trkpt><trkpt lat="42.51127655605433" lon="14.13354404587669"><ele>7.0</ele><time>2026-05-03T11:44:34Z</time></trkpt><trkpt lat="42.511375466970065" lon="14.13372847584779"><ele>6.333333333333334</ele><time>2026-05-03T11:44:35Z</time></trkpt><trkpt lat="42.51146902215638" lon="14.133913843775554"><ele>5.666666666666667</ele><time>2026-05-03T11:44:36Z</time></trkpt><trkpt lat="42.511555294053665" lon="14.134091777435568"><ele>5.0</ele><time>2026-05-03T11:44:37Z</time></trkpt><trkpt lat="42.511650578163035" lon="14.134257832670842"><ele>5.0</ele><time>2026-05-03T11:44:38Z</time></trkpt><trkpt lat="42.51176609725362" lon="14.13440228217712"><ele>5.0</ele><time>2026-05-03T11:44:39Z</time></trkpt><trkpt lat="42.51189726477019" lon="14.134530803278404"><ele>5.0</ele><time>2026-05-03T11:44:40Z</time></trkpt><trkpt lat="42.51204397186473" lon="14.13464164600561"><ele>4.333333333333334</ele><time>2026-05-03T11:44:41Z</time></trkpt><trkpt lat="42.512209216650945" lon="14.134747224920703"><ele>3.666666666666667</ele><time>2026-05-03T11:44:42Z</time></trkpt><trkpt lat="42.512377591143945" lon="14.134851999209875"><ele>3.0</ele><time>2026-05-03T11:44:43Z</time></trkpt><trkpt lat="42.512531125274656" lon="14.134955808475834"><ele>3.0</ele><time>2026-05-03T11:44:44Z</time></trkpt><trkpt lat="42.51267131812705" lon="14.135059318222448"><ele>3.0</ele><time>2026-05-03T11:44:45Z</time></trkpt><trkpt lat="42.512803625494044" lon="14.135172248230845"><ele>3.0</ele><time>2026-05-03T11:44:46Z</time></trkpt><trkpt lat="42.512926225642566" lon="14.13530547356917"><ele>3.0</ele><time>2026-05-03T11:44:47Z</time></trkpt><trkpt lat="42.51302723791068" lon="14.135454064407028"><ele>3.0</ele><time>2026-05-03T11:44:48Z</time></trkpt><trkpt lat="42.51311763187209" lon="14.135618696594014"><ele>3.0</ele><time>2026-05-03T11:44:49Z</time></trkpt><trkpt lat="42.513197624953996" lon="14.135798802627344"><ele>3.0</ele><time>2026-05-03T11:44:50Z</time></trkpt><trkpt lat="42.513268913396345" lon="14.135986893383704"><ele>3.0</ele><time>2026-05-03T11:44:51Z</time></trkpt><trkpt lat="42.51331748605086" lon="14.136181434063642"><ele>3.0</ele><time>2026-05-03T11:44:52Z</time></trkpt><trkpt lat="42.51335595414254" lon="14.136382048676253"><ele>3.25</ele><time>2026-05-03T11:44:53Z</time></trkpt><trkpt lat="42.51339803240631" lon="14.136581564075698"><ele>3.5</ele><time>2026-05-03T11:44:54Z</time></trkpt><trkpt lat="42.51344816391787" lon="14.136771617725145"><ele>3.75</ele><time>2026-05-03T11:44:55Z</time></trkpt><trkpt lat="42.51350342548415" lon="14.136939104767764"><ele>4.0</ele><time>2026-05-03T11:44:56Z</time></trkpt><trkpt lat="42.51355843494673" lon="14.13709175404039"><ele>4.0</ele><time>2026-05-03T11:44:57Z</time></trkpt><trkpt lat="42.51360986976199" lon="14.137227059622056"><ele>4.0</ele><time>2026-05-03T11:44:58Z</time></trkpt><trkpt lat="42.51365402440579" lon="14.13734250444902"><ele>4.0</ele><time>2026-05-03T11:44:59Z</time></trkpt><trkpt lat="42.51369359016935" lon="14.137447618997655"><ele>4.0</ele><time>2026-05-03T11:45:00Z</time></trkpt><trkpt lat="42.513718909410414" lon="14.137555254955187"><ele>4.0</ele><time>2026-05-03T11:45:01Z</time></trkpt><trkpt lat="42.513729777736145" lon="14.137682517433216"><ele>4.2</ele><time>2026-05-03T11:45:02Z</time></trkpt><trkpt lat="42.51371881098735" lon="14.137817945032568"><ele>4.4</ele><time>2026-05-03T11:45:03Z</time></trkpt><trkpt lat="42.513685838725884" lon="14.137951140219265"><ele>4.6</ele><time>2026-05-03T11:45:04Z</time></trkpt><trkpt lat="42.51362534300811" lon="14.138082761921458"><ele>4.8</ele><time>2026-05-03T11:45:05Z</time></trkpt><trkpt lat="42.513563420673364" lon="14.138218098863303"><ele>5.0</ele><time>2026-05-03T11:45:06.001Z</time></trkpt><trkpt lat="42.51350097806732" lon="14.13836911472724"><ele>5.0</ele><time>2026-05-03T11:45:07.001Z</time></trkpt><trkpt lat="42.513443399762444" lon="14.138516485317234"><ele>5.0</ele><time>2026-05-03T11:45:08.001Z</time></trkpt><trkpt lat="42.51338830086353" lon="14.138662750316524"><ele>5.0</ele><time>2026-05-03T11:45:09.001Z</time></trkpt><trkpt lat="42.51333502938536" lon="14.1388053675257"><ele>5.0</ele><time>2026-05-03T11:45:10.001Z</time></trkpt><trkpt lat="42.51328525369345" lon="14.138931220416138"><ele>5.0</ele><time>2026-05-03T11:45:11.001Z</time></trkpt><trkpt lat="42.51324364005008" lon="14.139046886958951"><ele>5.0</ele><time>2026-05-03T11:45:12.001Z</time></trkpt><trkpt lat="42.51320163957844" lon="14.139150202772607"><ele>5.0</ele><time>2026-05-03T11:45:13.001Z</time></trkpt><trkpt lat="42.513160746723784" lon="14.139252207363949"><ele>5.0</ele><time>2026-05-03T11:45:14.001Z</time></trkpt><trkpt lat="42.513121633207575" lon="14.139355877233331"><ele>5.0</ele><time>2026-05-03T11:45:15.001Z</time></trkpt><trkpt lat="42.51308109216176" lon="14.139466629994814"><ele>5.0</ele><time>2026-05-03T11:45:16.001Z</time></trkpt><trkpt lat="42.51303498392487" lon="14.139582262484018"><ele>5.2</ele><time>2026-05-03T11:45:17.001Z</time></trkpt><trkpt lat="42.51298766233672" lon="14.139698594451554"><ele>5.4</ele><time>2026-05-03T11:45:18.001Z</time></trkpt><trkpt lat="42.51294383568679" lon="14.13982078762158"><ele>5.6</ele><time>2026-05-03T11:45:19.001Z</time></trkpt><trkpt lat="42.51290209910676" lon="14.139948763481984"><ele>5.8</ele><time>2026-05-03T11:45:20.001Z</time></trkpt><trkpt lat="42.51285687160927" lon="14.140076093584998"><ele>6.0</ele><time>2026-05-03T11:45:21.001Z</time></trkpt><trkpt lat="42.51281242667377" lon="14.140197446231188"><ele>6.0</ele><time>2026-05-03T11:45:22.001Z</time></trkpt><trkpt lat="42.51276955622889" lon="14.140314442384037"><ele>6.0</ele><time>2026-05-03T11:45:23.001Z</time></trkpt><trkpt lat="42.51272834396828" lon="14.140429263029196"><ele>6.0</ele><time>2026-05-03T11:45:24.001Z</time></trkpt><trkpt lat="42.51268863627043" lon="14.140538421150579"><ele>6.0</ele><time>2026-05-03T11:45:25.001Z</time></trkpt><trkpt lat="42.51268289496655" lon="14.140654067954571"><ele>6.0</ele><time>2026-05-03T11:45:26.001Z</time></trkpt><trkpt lat="42.512607575591204" lon="14.140748553950353"><ele>6.333333333333333</ele><time>2026-05-03T11:45:27.001Z</time></trkpt><trkpt lat="42.51256685827051" lon="14.140863837047483"><ele>6.666666666666666</ele><time>2026-05-03T11:45:28.001Z</time></trkpt><trkpt lat="42.51252619283088" lon="14.140973877335956"><ele>7.0</ele><time>2026-05-03T11:45:29.001Z</time></trkpt><trkpt lat="42.5124855306887" lon="14.141069356743472"><ele>7.333333333333333</ele><time>2026-05-03T11:45:30.001Z</time></trkpt><trkpt lat="42.512448098467644" lon="14.141158792097638"><ele>7.666666666666666</ele><time>2026-05-03T11:45:31.001Z</time></trkpt><trkpt lat="42.512415755053276" lon="14.141244503241484"><ele>8.0</ele><time>2026-05-03T11:45:32.001Z</time></trkpt><trkpt lat="42.51239053687958" lon="14.141327595986414"><ele>7.999999999999999</ele><time>2026-05-03T11:45:33.001Z</time></trkpt><trkpt lat="42.51243998027557" lon="14.141463714661233"><ele>8.0</ele><time>2026-05-03T11:45:35.001Z</time></trkpt><trkpt lat="42.51247272312261" lon="14.141543984159796"><ele>8.0</ele><time>2026-05-03T11:45:36.001Z</time></trkpt><trkpt lat="42.51254894644396" lon="14.141564531062668"><ele>8.0</ele><time>2026-05-03T11:45:37.001Z</time></trkpt><trkpt lat="42.51262717482911" lon="14.141550448468815"><ele>7.999999999999999</ele><time>2026-05-03T11:45:38.001Z</time></trkpt><trkpt lat="42.51270880552784" lon="14.141512735398784"><ele>8.0</ele><time>2026-05-03T11:45:39.001Z</time></trkpt><trkpt lat="42.51279562018516" lon="14.141484686912808"><ele>8.0</ele><time>2026-05-03T11:45:40.001Z</time></trkpt><trkpt lat="42.51288807576342" lon="14.141469174672608"><ele>8.0</ele><time>2026-05-03T11:45:41.001Z</time></trkpt><trkpt lat="42.5129756355694" lon="14.141435640833423"><ele>8.0</ele><time>2026-05-03T11:45:42.001Z</time></trkpt><trkpt lat="42.513060037309735" lon="14.141390592371243"><ele>8.0</ele><time>2026-05-03T11:45:43.001Z</time></trkpt><trkpt lat="42.51316544246574" lon="14.141459481426782"><ele>8.0</ele><time>2026-05-03T11:45:44.001Z</time></trkpt><trkpt lat="42.51324513037537" lon="14.141468767024286"><ele>7.666666666666666</ele><time>2026-05-03T11:45:45.001Z</time></trkpt><trkpt lat="42.51332226183963" lon="14.141491442845261"><ele>7.333333333333333</ele><time>2026-05-03T11:45:46.001Z</time></trkpt><trkpt lat="42.51339972412109" lon="14.141520333575539"><ele>7.0</ele><time>2026-05-03T11:45:47.001Z</time></trkpt><trkpt lat="42.51347677419818" lon="14.1415539564531"><ele>6.666666666666666</ele><time>2026-05-03T11:45:48.002Z</time></trkpt><trkpt lat="42.513553680790544" lon="14.141598878033257"><ele>6.333333333333333</ele><time>2026-05-03T11:45:49.002Z</time></trkpt><trkpt lat="42.51362909824493" lon="14.141653239330486"><ele>6.0</ele><time>2026-05-03T11:45:50.002Z</time></trkpt><trkpt lat="42.51370397732837" lon="14.141707828161962"><ele>5.571428571428571</ele><time>2026-05-03T11:45:51.002Z</time></trkpt><trkpt lat="42.51378035901017" lon="14.141761576374142"><ele>5.142857142857142</ele><time>2026-05-03T11:45:52.002Z</time></trkpt><trkpt lat="42.513850611905895" lon="14.14181280439631"><ele>4.7142857142857135</ele><time>2026-05-03T11:45:53.002Z</time></trkpt><trkpt lat="42.51391817757477" lon="14.141861852336861"><ele>4.285714285714286</ele><time>2026-05-03T11:45:54.002Z</time></trkpt><trkpt lat="42.513980280524635" lon="14.141906443386134"><ele>3.8571428571428568</ele><time>2026-05-03T11:45:55.002Z</time></trkpt><trkpt lat="42.51404106671034" lon="14.141950929022931"><ele>3.4285714285714284</ele><time>2026-05-03T11:45:56.002Z</time></trkpt><trkpt lat="42.51409933355657" lon="14.141993297315521"><ele>3.0</ele><time>2026-05-03T11:45:57.002Z</time></trkpt><trkpt lat="42.51415725115358" lon="14.14204341005868"><ele>3.0</ele><time>2026-05-03T11:45:58.002Z</time></trkpt><trkpt lat="42.51420601624889" lon="14.142106621079904"><ele>3.0</ele><time>2026-05-03T11:45:59.002Z</time></trkpt><trkpt lat="42.514253921829116" lon="14.142228929843908"><ele>3.0</ele><time>2026-05-03T11:46:01.002Z</time></trkpt><trkpt lat="42.514295826295296" lon="14.142328757904773"><ele>3.0</ele><time>2026-05-03T11:46:03.002Z</time></trkpt><trkpt lat="42.51432874668459" lon="14.14247007593144"><ele>3.0</ele><time>2026-05-03T11:46:04.999Z</time></trkpt><trkpt lat="42.51439028645648" lon="14.14250631941757"><ele>3.0</ele><time>2026-05-03T11:46:05.999Z</time></trkpt><trkpt lat="42.514457107855094" lon="14.142507107071342"><ele>2.8333333333333335</ele><time>2026-05-03T11:46:06.999Z</time></trkpt><trkpt lat="42.514524469266625" lon="14.142466802277545"><ele>2.6666666666666665</ele><time>2026-05-03T11:46:07.999Z</time></trkpt><trkpt lat="42.51456866844504" lon="14.142390618511824"><ele>2.5</ele><time>2026-05-03T11:46:08.999Z</time></trkpt><trkpt lat="42.514631406553015" lon="14.142350994865163"><ele>2.333333333333333</ele><time>2026-05-03T11:46:09.999Z</time></trkpt><trkpt lat="42.514732389966326" lon="14.142403086956914"><ele>2.1666666666666665</ele><time>2026-05-03T11:46:10.999Z</time></trkpt><trkpt lat="42.51481133999062" lon="14.142484968114744"><ele>2.0</ele><time>2026-05-03T11:46:11.999Z</time></trkpt><trkpt lat="42.514889085952575" lon="14.14255074086722"><ele>2.0</ele><time>2026-05-03T11:46:12.999Z</time></trkpt><trkpt lat="42.51497141933413" lon="14.142608432719165"><ele>2.0</ele><time>2026-05-03T11:46:13.999Z</time></trkpt><trkpt lat="42.51505359864956" lon="14.142663008506611"><ele>2.0</ele><time>2026-05-03T11:46:14.999Z</time></trkpt><trkpt lat="42.515134390577984" lon="14.14272490510817"><ele>2.0</ele><time>2026-05-03T11:46:15.999Z</time></trkpt><trkpt lat="42.51521063174169" lon="14.14278348991612"><ele>2.0</ele><time>2026-05-03T11:46:16.999Z</time></trkpt><trkpt lat="42.51528908546797" lon="14.142840638363026"><ele>2.0</ele><time>2026-05-03T11:46:17.999Z</time></trkpt><trkpt lat="42.515391257303285" lon="14.1429070396212"><ele>2.0</ele><time>2026-05-03T11:46:18.999Z</time></trkpt><trkpt lat="42.51551039237487" lon="14.142991735319232"><ele>2.0</ele><time>2026-05-03T11:46:19.999Z</time></trkpt><trkpt lat="42.51562867877307" lon="14.143084172921684"><ele>2.0</ele><time>2026-05-03T11:46:20.999Z</time></trkpt><trkpt lat="42.51573513940858" lon="14.14316647972511"><ele>2.4000000000000004</ele><time>2026-05-03T11:46:21.999Z</time></trkpt><trkpt lat="42.51583100085628" lon="14.143237462938128"><ele>2.8000000000000003</ele><time>2026-05-03T11:46:22.999Z</time></trkpt><trkpt lat="42.515923124952195" lon="14.143299722772575"><ele>3.2</ele><time>2026-05-03T11:46:23.999Z</time></trkpt><trkpt lat="42.51601456757246" lon="14.14336338085497"><ele>3.6</ele><time>2026-05-03T11:46:24.999Z</time></trkpt><trkpt lat="42.51610370146885" lon="14.143427588651907"><ele>4.0</ele><time>2026-05-03T11:46:25.999Z</time></trkpt><trkpt lat="42.5161914540741" lon="14.143489710019027"><ele>4.4</ele><time>2026-05-03T11:46:26.999Z</time></trkpt><trkpt lat="42.51628103150433" lon="14.143555387218267"><ele>4.800000000000001</ele><time>2026-05-03T11:46:27.999Z</time></trkpt><trkpt lat="42.516370774345994" lon="14.143623469034734"><ele>5.199999999999999</ele><time>2026-05-03T11:46:28.999Z</time></trkpt><trkpt lat="42.51645702518413" lon="14.143689146988477"><ele>5.6</ele><time>2026-05-03T11:46:29.999Z</time></trkpt><trkpt lat="42.516537484338265" lon="14.143751757687902"><ele>6.0</ele><time>2026-05-03T11:46:30.999Z</time></trkpt><trkpt lat="42.51662265533489" lon="14.143812603208037"><ele>6.0</ele><time>2026-05-03T11:46:31.999Z</time></trkpt><trkpt lat="42.51671066825031" lon="14.143879241926538"><ele>6.0</ele><time>2026-05-03T11:46:32.999Z</time></trkpt><trkpt lat="42.51679999780759" lon="14.143947362684056"><ele>6.0</ele><time>2026-05-03T11:46:33.999Z</time></trkpt><trkpt lat="42.51689388054124" lon="14.144013006377016"><ele>6.0</ele><time>2026-05-03T11:46:34.999Z</time></trkpt><trkpt lat="42.51698968380362" lon="14.144079831625497"><ele>6.0</ele><time>2026-05-03T11:46:36Z</time></trkpt><trkpt lat="42.51708252453241" lon="14.14415203455024"><ele>5.3999999999999995</ele><time>2026-05-03T11:46:37Z</time></trkpt><trkpt lat="42.5171770443526" lon="14.14422414048895"><ele>4.8</ele><time>2026-05-03T11:46:38Z</time></trkpt><trkpt lat="42.51726966218848" lon="14.14429373895001"><ele>4.199999999999999</ele><time>2026-05-03T11:46:39Z</time></trkpt><trkpt lat="42.51735691646439" lon="14.144355287385464"><ele>3.5999999999999996</ele><time>2026-05-03T11:46:40Z</time></trkpt><trkpt lat="42.5174427233483" lon="14.144414288438558"><ele>3.0</ele><time>2026-05-03T11:46:41Z</time></trkpt><trkpt lat="42.51753146998223" lon="14.144481860324307"><ele>3.0</ele><time>2026-05-03T11:46:42Z</time></trkpt><trkpt lat="42.51762518139995" lon="14.144549416357249"><ele>3.0</ele><time>2026-05-03T11:46:43Z</time></trkpt><trkpt lat="42.517721900694426" lon="14.144619760852473"><ele>3.0</ele><time>2026-05-03T11:46:44Z</time></trkpt><trkpt lat="42.51782335338846" lon="14.144697146997936"><ele>3.0</ele><time>2026-05-03T11:46:45Z</time></trkpt><trkpt lat="42.51792809470342" lon="14.144775314334629"><ele>3.0</ele><time>2026-05-03T11:46:46Z</time></trkpt><trkpt lat="42.518039123450905" lon="14.144849104873254"><ele>3.0</ele><time>2026-05-03T11:46:47Z</time></trkpt><trkpt lat="42.51814599789509" lon="14.144923484431839"><ele>3.0</ele><time>2026-05-03T11:46:48Z</time></trkpt><trkpt lat="42.51824369233588" lon="14.144997222208175"><ele>3.0</ele><time>2026-05-03T11:46:49Z</time></trkpt><trkpt lat="42.51832939891888" lon="14.14506316125431"><ele>3.0</ele><time>2026-05-03T11:46:50Z</time></trkpt><trkpt lat="42.51841153020525" lon="14.145124487585656"><ele>3.0</ele><time>2026-05-03T11:46:51Z</time></trkpt><trkpt lat="42.51849424405929" lon="14.145179804493099"><ele>3.0</ele><time>2026-05-03T11:46:52Z</time></trkpt><trkpt lat="42.518578418691554" lon="14.145241811099556"><ele>3.0</ele><time>2026-05-03T11:46:53Z</time></trkpt><trkpt lat="42.518659300768824" lon="14.145302732739752"><ele>3.0</ele><time>2026-05-03T11:46:54Z</time></trkpt><trkpt lat="42.518741823639964" lon="14.145361354489905"><ele>3.0</ele><time>2026-05-03T11:46:55Z</time></trkpt><trkpt lat="42.518822285232204" lon="14.145417981744956"><ele>3.0</ele><time>2026-05-03T11:46:56Z</time></trkpt><trkpt lat="42.51890231507763" lon="14.14547627816132"><ele>3.0</ele><time>2026-05-03T11:46:57Z</time></trkpt><trkpt lat="42.51898440251113" lon="14.145534643859738"><ele>3.0</ele><time>2026-05-03T11:46:58Z</time></trkpt><trkpt lat="42.51907117078272" lon="14.1455920741496"><ele>3.0</ele><time>2026-05-03T11:46:59Z</time></trkpt><trkpt lat="42.51916072352089" lon="14.145649899048363"><ele>3.0</ele><time>2026-05-03T11:47:00Z</time></trkpt><trkpt lat="42.519240940695376" lon="14.145705025707164"><ele>3.0</ele><time>2026-05-03T11:47:01Z</time></trkpt><trkpt lat="42.51931633117751" lon="14.145750357184017"><ele>3.0</ele><time>2026-05-03T11:47:02Z</time></trkpt><trkpt lat="42.519386920538246" lon="14.14579503125448"><ele>3.0</ele><time>2026-05-03T11:47:03Z</time></trkpt><trkpt lat="42.519441011070946" lon="14.145843076920402"><ele>3.0</ele><time>2026-05-03T11:47:04Z</time></trkpt><trkpt lat="42.519503248880916" lon="14.145931370237076"><ele>3.0</ele><time>2026-05-03T11:47:06Z</time></trkpt><trkpt lat="42.51954808684368" lon="14.145999789650086"><ele>3.3333333333333335</ele><time>2026-05-03T11:47:08Z</time></trkpt><trkpt lat="42.519555513035236" lon="14.146131945601367"><ele>3.666666666666667</ele><time>2026-05-03T11:47:10Z</time></trkpt><trkpt lat="42.519520531162144" lon="14.146210108046073"><ele>4.0</ele><time>2026-05-03T11:47:11Z</time></trkpt><trkpt lat="42.519462449988936" lon="14.146291034671373"><ele>4.333333333333334</ele><time>2026-05-03T11:47:12.001Z</time></trkpt><trkpt lat="42.51940321762272" lon="14.146373369841683"><ele>4.666666666666667</ele><time>2026-05-03T11:47:13.001Z</time></trkpt><trkpt lat="42.51934325724048" lon="14.146461861170659"><ele>5.0</ele><time>2026-05-03T11:47:14.001Z</time></trkpt><trkpt lat="42.519291796727614" lon="14.146543025661439"><ele>4.666666666666667</ele><time>2026-05-03T11:47:15.001Z</time></trkpt><trkpt lat="42.51923313512378" lon="14.146617318689595"><ele>4.333333333333334</ele><time>2026-05-03T11:47:16.001Z</time></trkpt><trkpt lat="42.51917374362748" lon="14.14669330516337"><ele>4.0</ele><time>2026-05-03T11:47:17.001Z</time></trkpt><trkpt lat="42.51911614804311" lon="14.146772602103376"><ele>3.666666666666667</ele><time>2026-05-03T11:47:18.001Z</time></trkpt><trkpt lat="42.519051561736255" lon="14.146829564375977"><ele>3.3333333333333335</ele><time>2026-05-03T11:47:19.001Z</time></trkpt><trkpt lat="42.519053215619046" lon="14.146952236061546"><ele>3.0</ele><time>2026-05-03T11:47:20.001Z</time></trkpt><trkpt lat="42.51907594628575" lon="14.147116220401752"><ele>3.0</ele><time>2026-05-03T11:47:22.001Z</time></trkpt><trkpt lat="42.51913137619732" lon="14.147191496183481"><ele>3.0</ele><time>2026-05-03T11:47:23.001Z</time></trkpt><trkpt lat="42.51920770735535" lon="14.147241816108297"><ele>3.0</ele><time>2026-05-03T11:47:24.001Z</time></trkpt><trkpt lat="42.51931357483156" lon="14.147279677297735"><ele>3.0</ele><time>2026-05-03T11:47:25.001Z</time></trkpt><trkpt lat="42.51942543018388" lon="14.147326808401026"><ele>3.0</ele><time>2026-05-03T11:47:26.001Z</time></trkpt><trkpt lat="42.51951151991995" lon="14.147411789870862"><ele>2.25</ele><time>2026-05-03T11:47:27.001Z</time></trkpt><trkpt lat="42.519584719752835" lon="14.147537864258044"><ele>1.5</ele><time>2026-05-03T11:47:28.001Z</time></trkpt><trkpt lat="42.51965901975809" lon="14.14767181004706"><ele>0.75</ele><time>2026-05-03T11:47:29.001Z</time></trkpt><trkpt lat="42.519739077065175" lon="14.147812419743984"><ele>0.0</ele><time>2026-05-03T11:47:30.001Z</time></trkpt><trkpt lat="42.51981927221192" lon="14.147951956589242"><ele>0.0</ele><time>2026-05-03T11:47:31.001Z</time></trkpt><trkpt lat="42.51989063540933" lon="14.14808534021932"><ele>0.0</ele><time>2026-05-03T11:47:32.001Z</time></trkpt><trkpt lat="42.519951410609536" lon="14.148203037699641"><ele>0.0</ele><time>2026-05-03T11:47:33.001Z</time></trkpt><trkpt lat="42.52000444295838" lon="14.148322567977953"><ele>0.0</ele><time>2026-05-03T11:47:34.001Z</time></trkpt><trkpt lat="42.520049917727626" lon="14.148450242205223"><ele>0.0</ele><time>2026-05-03T11:47:35.001Z</time></trkpt><trkpt lat="42.520091164858655" lon="14.148584848664283"><ele>0.5</ele><time>2026-05-03T11:47:36.001Z</time></trkpt><trkpt lat="42.520136888790965" lon="14.148722531246031"><ele>1.0</ele><time>2026-05-03T11:47:37.001Z</time></trkpt><trkpt lat="42.52018545281572" lon="14.148862555720147"><ele>1.5</ele><time>2026-05-03T11:47:38.001Z</time></trkpt><trkpt lat="42.5202358190246" lon="14.149004670600624"><ele>2.0</ele><time>2026-05-03T11:47:39.001Z</time></trkpt><trkpt lat="42.52028900596724" lon="14.14915337647773"><ele>2.0</ele><time>2026-05-03T11:47:40.001Z</time></trkpt><trkpt lat="42.52033958278333" lon="14.149300324412003"><ele>2.0</ele><time>2026-05-03T11:47:41.001Z</time></trkpt><trkpt lat="42.5203910982179" lon="14.149440219968469"><ele>2.0</ele><time>2026-05-03T11:47:42.001Z</time></trkpt><trkpt lat="42.5204417194987" lon="14.14958398301427"><ele>2.0</ele><time>2026-05-03T11:47:43.001Z</time></trkpt><trkpt lat="42.52049994600051" lon="14.14974348621711"><ele>2.25</ele><time>2026-05-03T11:47:44.001Z</time></trkpt><trkpt lat="42.52056576892337" lon="14.149924954321115"><ele>2.5</ele><time>2026-05-03T11:47:45.001Z</time></trkpt><trkpt lat="42.52062577449016" lon="14.150115195456689"><ele>2.75</ele><time>2026-05-03T11:47:46.001Z</time></trkpt><trkpt lat="42.52068364537992" lon="14.150291006110795"><ele>3.0</ele><time>2026-05-03T11:47:47.001Z</time></trkpt><trkpt lat="42.52073655020625" lon="14.150454130321505"><ele>3.0</ele><time>2026-05-03T11:47:48.001Z</time></trkpt><trkpt lat="42.52078527879344" lon="14.150598411795201"><ele>3.0</ele><time>2026-05-03T11:47:49.001Z</time></trkpt><trkpt lat="42.52083321752568" lon="14.15074554635549"><ele>3.0</ele><time>2026-05-03T11:47:50.001Z</time></trkpt><trkpt lat="42.520881755787904" lon="14.150889251863312"><ele>3.0</ele><time>2026-05-03T11:47:51.001Z</time></trkpt><trkpt lat="42.52092827710515" lon="14.151027406247156"><ele>2.8</ele><time>2026-05-03T11:47:52.002Z</time></trkpt><trkpt lat="42.52097375285628" lon="14.151162460729388"><ele>2.5999999999999996</ele><time>2026-05-03T11:47:53.002Z</time></trkpt><trkpt lat="42.52101845979957" lon="14.151294505677841"><ele>2.4000000000000004</ele><time>2026-05-03T11:47:54.002Z</time></trkpt><trkpt lat="42.521062097170955" lon="14.15142503146186"><ele>2.2</ele><time>2026-05-03T11:47:55.002Z</time></trkpt><trkpt lat="42.52110850290316" lon="14.151554159585356"><ele>2.0</ele><time>2026-05-03T11:47:56.002Z</time></trkpt><trkpt lat="42.52115337891813" lon="14.151682899504694"><ele>2.0</ele><time>2026-05-03T11:47:57.002Z</time></trkpt><trkpt lat="42.5211965220924" lon="14.151810765965754"><ele>2.0</ele><time>2026-05-03T11:47:58.002Z</time></trkpt><trkpt lat="42.52123897470849" lon="14.151937708555419"><ele>2.0</ele><time>2026-05-03T11:47:59.002Z</time></trkpt><trkpt lat="42.52127913978968" lon="14.152060588241106"><ele>2.0</ele><time>2026-05-03T11:48:00.002Z</time></trkpt><trkpt lat="42.521322265938736" lon="14.152188065040276"><ele>2.0</ele><time>2026-05-03T11:48:01.002Z</time></trkpt><trkpt lat="42.521368821676575" lon="14.152318746930503"><ele>1.4000000000000001</ele><time>2026-05-03T11:48:02.002Z</time></trkpt><trkpt lat="42.52141500211818" lon="14.152445432339105"><ele>0.8000000000000002</ele><time>2026-05-03T11:48:03.002Z</time></trkpt><trkpt lat="42.5214598693845" lon="14.152569852220424"><ele>0.19999999999999996</ele><time>2026-05-03T11:48:04.002Z</time></trkpt><trkpt lat="42.521504772740414" lon="14.152698549173756"><ele>-0.4</ele><time>2026-05-03T11:48:05.002Z</time></trkpt><trkpt lat="42.52155263114754" lon="14.152834403353069"><ele>-1.0</ele><time>2026-05-03T11:48:06.002Z</time></trkpt><trkpt lat="42.52159933722827" lon="14.152968831060488"><ele>-1.0</ele><time>2026-05-03T11:48:07.002Z</time></trkpt><trkpt lat="42.52165080714614" lon="14.153102634855573"><ele>-1.0</ele><time>2026-05-03T11:48:08.002Z</time></trkpt><trkpt lat="42.521699011453876" lon="14.15323819366587"><ele>-1.0</ele><time>2026-05-03T11:48:09.002Z</time></trkpt><trkpt lat="42.5217431718875" lon="14.153368944550794"><ele>-1.0</ele><time>2026-05-03T11:48:09.999Z</time></trkpt><trkpt lat="42.5217836416329" lon="14.153487579638437"><ele>-1.0</ele><time>2026-05-03T11:48:10.999Z</time></trkpt><trkpt lat="42.52182056305317" lon="14.153587127227768"><ele>-0.8</ele><time>2026-05-03T11:48:11.999Z</time></trkpt><trkpt lat="42.52185484209179" lon="14.153684298818575"><ele>-0.6000000000000001</ele><time>2026-05-03T11:48:13.999Z</time></trkpt><trkpt lat="42.52189365304233" lon="14.153764552246885"><ele>-0.4</ele><time>2026-05-03T11:48:17.999Z</time></trkpt><trkpt lat="42.52198647430109" lon="14.153658731815161"><ele>-0.2</ele><time>2026-05-03T11:48:18.999Z</time></trkpt><trkpt lat="42.52207818710294" lon="14.153548984617967"><ele>0.0</ele><time>2026-05-03T11:48:20.999Z</time></trkpt><trkpt lat="42.52217287337723" lon="14.153476101718768"><ele>0.4</ele><time>2026-05-03T11:48:22.999Z</time></trkpt><trkpt lat="42.52224973706153" lon="14.153400294222429"><ele>0.8</ele><time>2026-05-03T11:48:24.999Z</time></trkpt><trkpt lat="42.52228142353688" lon="14.153298982374364"><ele>1.2000000000000002</ele><time>2026-05-03T11:48:26.999Z</time></trkpt><trkpt lat="42.522257269315844" lon="14.153135485762975"><ele>1.6</ele><time>2026-05-03T11:48:29.999Z</time></trkpt><trkpt lat="42.52221120366492" lon="14.153037134419698"><ele>2.0</ele><time>2026-05-03T11:48:31.999Z</time></trkpt><trkpt lat="42.522133393619235" lon="14.152957429270552"><ele>1.9999999999999998</ele><time>2026-05-03T11:48:33.999Z</time></trkpt><trkpt lat="42.52208253692314" lon="14.152854472607558"><ele>2.0</ele><time>2026-05-03T11:48:35.999Z</time></trkpt><trkpt lat="42.52203758683194" lon="14.152770692550282"><ele>2.0</ele><time>2026-05-03T11:48:37.999Z</time></trkpt><trkpt lat="42.52200620054178" lon="14.152688078417272"><ele>2.0</ele><time>2026-05-03T11:48:39.999Z</time></trkpt><trkpt lat="42.52197307285819" lon="14.1526138386529"><ele>1.9999999999999998</ele><time>2026-05-03T11:48:42Z</time></trkpt><trkpt lat="42.52193229722063" lon="14.152530686707482"><ele>2.0</ele><time>2026-05-03T11:48:44Z</time></trkpt><trkpt lat="42.5218862979484" lon="14.152429916556354"><ele>1.6</ele><time>2026-05-03T11:48:46Z</time></trkpt><trkpt lat="42.52183457303378" lon="14.152316153009558"><ele>1.2000000000000002</ele><time>2026-05-03T11:48:48Z</time></trkpt><trkpt lat="42.52177837677125" lon="14.152197363002998"><ele>0.8</ele><time>2026-05-03T11:48:50Z</time></trkpt><trkpt lat="42.52176371487268" lon="14.15206216402371"><ele>0.4</ele><time>2026-05-03T11:48:52Z</time></trkpt><trkpt lat="42.52186215150597" lon="14.15197067251642"><ele>0.0</ele><time>2026-05-03T11:48:55Z</time></trkpt><trkpt lat="42.521930443774636" lon="14.152044417001715"><ele>0.0</ele><time>2026-05-03T11:48:57Z</time></trkpt><trkpt lat="42.52196913840619" lon="14.152164940098695"><ele>0.0</ele><time>2026-05-03T11:48:59Z</time></trkpt><trkpt lat="42.522019492689864" lon="14.152278479054678"><ele>0.0</ele><time>2026-05-03T11:49:01Z</time></trkpt><trkpt lat="42.52206327034988" lon="14.152365606324016"><ele>0.0</ele><time>2026-05-03T11:49:03Z</time></trkpt><trkpt lat="42.522101682460885" lon="14.152449854691545"><ele>0.0</ele><time>2026-05-03T11:49:05Z</time></trkpt><trkpt lat="42.522158445385806" lon="14.152527284526242"><ele>0.0</ele><time>2026-05-03T11:49:07Z</time></trkpt><trkpt lat="42.52218863591818" lon="14.15260656674703"><ele>2.0</ele><time>2026-05-03T11:49:09Z</time></trkpt><trkpt lat="42.52221991556765" lon="14.152700655769934"><ele>2.0</ele><time>2026-05-03T11:49:12Z</time></trkpt></trkseg></trk></gpx>